<?xml version="1.0" encoding="UTF-8" standalone="no" ?>
<gpx xmlns="http://www.topografix.com/GPX/1/1" xmlns:xsi="http://www.w3.org/2001/XMLSchema-instance" xsi:schemaLocation="http://www.topografix.com/GPX/1/1 http://www.topografix.com/GPX/1/1/gpx.xsd" version="1.1" creator="VisuGPX - https://www.visugpx.com">
  <metadata>
    <name>Mont Ventoux Dénivelé Challenges 2021</name>
  </metadata>
  <wpt lat="44.24452" lon="5.07232">
    <ele>215.1</ele>
    <name><![CDATA[km 0]]></name>
    <type><![CDATA[Generic]]></type>
  </wpt>
  <wpt lat="44.1735" lon="5.27805">
    <ele>1854.1</ele>
    <name><![CDATA[End VeloViewer]]></name>
    <type><![CDATA[Sprint]]></type>
  </wpt>
  <trk>
    <name><![CDATA[Mont Ventoux Dénivelé Challenges 2021]]></name>
    <trkseg>
      <trkpt lat="44.24452" lon="5.07232">
        <ele>215.1</ele>
        <time>2021-05-31T06:34:38.000Z</time>
      </trkpt>
      <trkpt lat="44.24451" lon="5.07267">
        <ele>215.2</ele>
        <time>2021-05-31T06:34:40.000Z</time>
      </trkpt>
      <trkpt lat="44.24449" lon="5.07301">
        <ele>215.2</ele>
        <time>2021-05-31T06:34:42.000Z</time>
      </trkpt>
      <trkpt lat="44.24448" lon="5.07336">
        <ele>215.3</ele>
        <time>2021-05-31T06:34:45.000Z</time>
      </trkpt>
      <trkpt lat="44.24447" lon="5.0737">
        <ele>215.4</ele>
        <time>2021-05-31T06:34:48.000Z</time>
      </trkpt>
      <trkpt lat="44.24445" lon="5.07405">
        <ele>215.6</ele>
        <time>2021-05-31T06:34:50.000Z</time>
      </trkpt>
      <trkpt lat="44.24444" lon="5.07439">
        <ele>215.8</ele>
        <time>2021-05-31T06:34:53.000Z</time>
      </trkpt>
      <trkpt lat="44.24442" lon="5.07469">
        <ele>216</ele>
        <time>2021-05-31T06:34:55.000Z</time>
      </trkpt>
      <trkpt lat="44.24434" lon="5.075">
        <ele>216.2</ele>
        <time>2021-05-31T06:34:58.000Z</time>
      </trkpt>
      <trkpt lat="44.2442" lon="5.0753">
        <ele>216.4</ele>
        <time>2021-05-31T06:35:00.000Z</time>
      </trkpt>
      <trkpt lat="44.24422" lon="5.07539">
        <ele>216.5</ele>
        <time>2021-05-31T06:35:01.000Z</time>
      </trkpt>
      <trkpt lat="44.24419" lon="5.07565">
        <ele>216.7</ele>
        <time>2021-05-31T06:35:03.000Z</time>
      </trkpt>
      <trkpt lat="44.24408" lon="5.07598">
        <ele>217</ele>
        <time>2021-05-31T06:35:06.000Z</time>
      </trkpt>
      <trkpt lat="44.24397" lon="5.0763">
        <ele>217.3</ele>
        <time>2021-05-31T06:35:09.000Z</time>
      </trkpt>
      <trkpt lat="44.24385" lon="5.07663">
        <ele>217.6</ele>
        <time>2021-05-31T06:35:11.000Z</time>
      </trkpt>
      <trkpt lat="44.24373" lon="5.07696">
        <ele>218</ele>
        <time>2021-05-31T06:35:14.000Z</time>
      </trkpt>
      <trkpt lat="44.24361" lon="5.07729">
        <ele>218.6</ele>
        <time>2021-05-31T06:35:18.000Z</time>
      </trkpt>
      <trkpt lat="44.24349" lon="5.07762">
        <ele>219.3</ele>
        <time>2021-05-31T06:35:21.000Z</time>
      </trkpt>
      <trkpt lat="44.24336" lon="5.07802">
        <ele>219.9</ele>
        <time>2021-05-31T06:35:24.000Z</time>
      </trkpt>
      <trkpt lat="44.24323" lon="5.07842">
        <ele>220.4</ele>
        <time>2021-05-31T06:35:28.000Z</time>
      </trkpt>
      <trkpt lat="44.24309" lon="5.07881">
        <ele>220.7</ele>
        <time>2021-05-31T06:35:31.000Z</time>
      </trkpt>
      <trkpt lat="44.24296" lon="5.07921">
        <ele>221.1</ele>
        <time>2021-05-31T06:35:35.000Z</time>
      </trkpt>
      <trkpt lat="44.24286" lon="5.0795">
        <ele>221.2</ele>
        <time>2021-05-31T06:35:37.000Z</time>
      </trkpt>
      <trkpt lat="44.24276" lon="5.07979">
        <ele>221.3</ele>
        <time>2021-05-31T06:35:39.000Z</time>
      </trkpt>
      <trkpt lat="44.24266" lon="5.08009">
        <ele>221.4</ele>
        <time>2021-05-31T06:35:42.000Z</time>
      </trkpt>
      <trkpt lat="44.24255" lon="5.08038">
        <ele>221.6</ele>
        <time>2021-05-31T06:35:44.000Z</time>
      </trkpt>
      <trkpt lat="44.24245" lon="5.08067">
        <ele>221.8</ele>
        <time>2021-05-31T06:35:47.000Z</time>
      </trkpt>
      <trkpt lat="44.24235" lon="5.08096">
        <ele>221.9</ele>
        <time>2021-05-31T06:35:49.000Z</time>
      </trkpt>
      <trkpt lat="44.24223" lon="5.08117">
        <ele>221.8</ele>
        <time>2021-05-31T06:35:51.000Z</time>
      </trkpt>
      <trkpt lat="44.24215" lon="5.08121">
        <ele>221.8</ele>
        <time>2021-05-31T06:35:52.000Z</time>
      </trkpt>
      <trkpt lat="44.24212" lon="5.08127">
        <ele>221.7</ele>
        <time>2021-05-31T06:35:52.000Z</time>
      </trkpt>
      <trkpt lat="44.24213" lon="5.08142">
        <ele>221.5</ele>
        <time>2021-05-31T06:35:53.000Z</time>
      </trkpt>
      <trkpt lat="44.24217" lon="5.08148">
        <ele>221.2</ele>
        <time>2021-05-31T06:35:54.000Z</time>
      </trkpt>
      <trkpt lat="44.24207" lon="5.08177">
        <ele>220.9</ele>
        <time>2021-05-31T06:35:56.000Z</time>
      </trkpt>
      <trkpt lat="44.24197" lon="5.08207">
        <ele>220.6</ele>
        <time>2021-05-31T06:35:58.000Z</time>
      </trkpt>
      <trkpt lat="44.24186" lon="5.08236">
        <ele>220.4</ele>
        <time>2021-05-31T06:36:00.000Z</time>
      </trkpt>
      <trkpt lat="44.24176" lon="5.08265">
        <ele>220.2</ele>
        <time>2021-05-31T06:36:02.000Z</time>
      </trkpt>
      <trkpt lat="44.24166" lon="5.08294">
        <ele>219.9</ele>
        <time>2021-05-31T06:36:04.000Z</time>
      </trkpt>
      <trkpt lat="44.24156" lon="5.08324">
        <ele>219.6</ele>
        <time>2021-05-31T06:36:07.000Z</time>
      </trkpt>
      <trkpt lat="44.24145" lon="5.08353">
        <ele>219.2</ele>
        <time>2021-05-31T06:36:09.000Z</time>
      </trkpt>
      <trkpt lat="44.24135" lon="5.08382">
        <ele>218.8</ele>
        <time>2021-05-31T06:36:11.000Z</time>
      </trkpt>
      <trkpt lat="44.24125" lon="5.08411">
        <ele>218.4</ele>
        <time>2021-05-31T06:36:13.000Z</time>
      </trkpt>
      <trkpt lat="44.24115" lon="5.08441">
        <ele>218.1</ele>
        <time>2021-05-31T06:36:15.000Z</time>
      </trkpt>
      <trkpt lat="44.24104" lon="5.0847">
        <ele>217.8</ele>
        <time>2021-05-31T06:36:17.000Z</time>
      </trkpt>
      <trkpt lat="44.24094" lon="5.08499">
        <ele>217.4</ele>
        <time>2021-05-31T06:36:19.000Z</time>
      </trkpt>
      <trkpt lat="44.2408" lon="5.08531">
        <ele>216.8</ele>
        <time>2021-05-31T06:36:22.000Z</time>
      </trkpt>
      <trkpt lat="44.24062" lon="5.08563">
        <ele>216.5</ele>
        <time>2021-05-31T06:36:24.000Z</time>
      </trkpt>
      <trkpt lat="44.2404" lon="5.08593">
        <ele>216.1</ele>
        <time>2021-05-31T06:36:27.000Z</time>
      </trkpt>
      <trkpt lat="44.24013" lon="5.08619">
        <ele>215.4</ele>
        <time>2021-05-31T06:36:30.000Z</time>
      </trkpt>
      <trkpt lat="44.23993" lon="5.08635">
        <ele>215.1</ele>
        <time>2021-05-31T06:36:32.000Z</time>
      </trkpt>
      <trkpt lat="44.23972" lon="5.08646">
        <ele>214.8</ele>
        <time>2021-05-31T06:36:34.000Z</time>
      </trkpt>
      <trkpt lat="44.2395" lon="5.08656">
        <ele>214.5</ele>
        <time>2021-05-31T06:36:36.000Z</time>
      </trkpt>
      <trkpt lat="44.23929" lon="5.08661">
        <ele>214</ele>
        <time>2021-05-31T06:36:38.000Z</time>
      </trkpt>
      <trkpt lat="44.23908" lon="5.08666">
        <ele>213.5</ele>
        <time>2021-05-31T06:36:40.000Z</time>
      </trkpt>
      <trkpt lat="44.23873" lon="5.08666">
        <ele>212.8</ele>
        <time>2021-05-31T06:36:43.000Z</time>
      </trkpt>
      <trkpt lat="44.23839" lon="5.08663">
        <ele>212.1</ele>
        <time>2021-05-31T06:36:46.000Z</time>
      </trkpt>
      <trkpt lat="44.23805" lon="5.08661">
        <ele>211.4</ele>
        <time>2021-05-31T06:36:49.000Z</time>
      </trkpt>
      <trkpt lat="44.23771" lon="5.08658">
        <ele>211.1</ele>
        <time>2021-05-31T06:36:52.000Z</time>
      </trkpt>
      <trkpt lat="44.23737" lon="5.08656">
        <ele>210.9</ele>
        <time>2021-05-31T06:36:55.000Z</time>
      </trkpt>
      <trkpt lat="44.23714" lon="5.08654">
        <ele>210.8</ele>
        <time>2021-05-31T06:36:58.000Z</time>
      </trkpt>
      <trkpt lat="44.23692" lon="5.08653">
        <ele>210.8</ele>
        <time>2021-05-31T06:37:00.000Z</time>
      </trkpt>
      <trkpt lat="44.23669" lon="5.08651">
        <ele>210.8</ele>
        <time>2021-05-31T06:37:02.000Z</time>
      </trkpt>
      <trkpt lat="44.2363" lon="5.08654">
        <ele>210.6</ele>
        <time>2021-05-31T06:37:06.000Z</time>
      </trkpt>
      <trkpt lat="44.23609" lon="5.08661">
        <ele>210.6</ele>
        <time>2021-05-31T06:37:08.000Z</time>
      </trkpt>
      <trkpt lat="44.23587" lon="5.08667">
        <ele>210.6</ele>
        <time>2021-05-31T06:37:10.000Z</time>
      </trkpt>
      <trkpt lat="44.23551" lon="5.08691">
        <ele>210.6</ele>
        <time>2021-05-31T06:37:14.000Z</time>
      </trkpt>
      <trkpt lat="44.2353" lon="5.08714">
        <ele>210.6</ele>
        <time>2021-05-31T06:37:17.000Z</time>
      </trkpt>
      <trkpt lat="44.23509" lon="5.08736">
        <ele>210.6</ele>
        <time>2021-05-31T06:37:19.000Z</time>
      </trkpt>
      <trkpt lat="44.23489" lon="5.08759">
        <ele>210.6</ele>
        <time>2021-05-31T06:37:22.000Z</time>
      </trkpt>
      <trkpt lat="44.23468" lon="5.08781">
        <ele>210.6</ele>
        <time>2021-05-31T06:37:24.000Z</time>
      </trkpt>
      <trkpt lat="44.23447" lon="5.08804">
        <ele>210.6</ele>
        <time>2021-05-31T06:37:27.000Z</time>
      </trkpt>
      <trkpt lat="44.23426" lon="5.08826">
        <ele>210.7</ele>
        <time>2021-05-31T06:37:30.000Z</time>
      </trkpt>
      <trkpt lat="44.23402" lon="5.08855">
        <ele>210.7</ele>
        <time>2021-05-31T06:37:33.000Z</time>
      </trkpt>
      <trkpt lat="44.23377" lon="5.08883">
        <ele>210.8</ele>
        <time>2021-05-31T06:37:36.000Z</time>
      </trkpt>
      <trkpt lat="44.23349" lon="5.0891">
        <ele>211</ele>
        <time>2021-05-31T06:37:40.000Z</time>
      </trkpt>
      <trkpt lat="44.23335" lon="5.08921">
        <ele>211.1</ele>
        <time>2021-05-31T06:37:41.000Z</time>
      </trkpt>
      <trkpt lat="44.23302" lon="5.08943">
        <ele>210.9</ele>
        <time>2021-05-31T06:37:45.000Z</time>
      </trkpt>
      <trkpt lat="44.23274" lon="5.08957">
        <ele>210.9</ele>
        <time>2021-05-31T06:37:48.000Z</time>
      </trkpt>
      <trkpt lat="44.23244" lon="5.08965">
        <ele>211.1</ele>
        <time>2021-05-31T06:37:51.000Z</time>
      </trkpt>
      <trkpt lat="44.23229" lon="5.08967">
        <ele>211.3</ele>
        <time>2021-05-31T06:37:52.000Z</time>
      </trkpt>
      <trkpt lat="44.2321" lon="5.08967">
        <ele>211.5</ele>
        <time>2021-05-31T06:37:54.000Z</time>
      </trkpt>
      <trkpt lat="44.23188" lon="5.08963">
        <ele>211.6</ele>
        <time>2021-05-31T06:37:57.000Z</time>
      </trkpt>
      <trkpt lat="44.23165" lon="5.08959">
        <ele>211.8</ele>
        <time>2021-05-31T06:37:59.000Z</time>
      </trkpt>
      <trkpt lat="44.23134" lon="5.08949">
        <ele>212.1</ele>
        <time>2021-05-31T06:38:03.000Z</time>
      </trkpt>
      <trkpt lat="44.23104" lon="5.08939">
        <ele>212.4</ele>
        <time>2021-05-31T06:38:06.000Z</time>
      </trkpt>
      <trkpt lat="44.23073" lon="5.08929">
        <ele>212.8</ele>
        <time>2021-05-31T06:38:09.000Z</time>
      </trkpt>
      <trkpt lat="44.23042" lon="5.08919">
        <ele>213.2</ele>
        <time>2021-05-31T06:38:13.000Z</time>
      </trkpt>
      <trkpt lat="44.23014" lon="5.08907">
        <ele>213.3</ele>
        <time>2021-05-31T06:38:16.000Z</time>
      </trkpt>
      <trkpt lat="44.22986" lon="5.08895">
        <ele>213.4</ele>
        <time>2021-05-31T06:38:19.000Z</time>
      </trkpt>
      <trkpt lat="44.22961" lon="5.08875">
        <ele>213.3</ele>
        <time>2021-05-31T06:38:22.000Z</time>
      </trkpt>
      <trkpt lat="44.22935" lon="5.08856">
        <ele>213.3</ele>
        <time>2021-05-31T06:38:24.000Z</time>
      </trkpt>
      <trkpt lat="44.2291" lon="5.08836">
        <ele>213.2</ele>
        <time>2021-05-31T06:38:27.000Z</time>
      </trkpt>
      <trkpt lat="44.22906" lon="5.08831">
        <ele>213.1</ele>
        <time>2021-05-31T06:38:28.000Z</time>
      </trkpt>
      <trkpt lat="44.22903" lon="5.08822">
        <ele>213</ele>
        <time>2021-05-31T06:38:28.000Z</time>
      </trkpt>
      <trkpt lat="44.2289" lon="5.08802">
        <ele>212.7</ele>
        <time>2021-05-31T06:38:30.000Z</time>
      </trkpt>
      <trkpt lat="44.22883" lon="5.088">
        <ele>212.6</ele>
        <time>2021-05-31T06:38:31.000Z</time>
      </trkpt>
      <trkpt lat="44.22866" lon="5.08812">
        <ele>212.8</ele>
        <time>2021-05-31T06:38:33.000Z</time>
      </trkpt>
      <trkpt lat="44.22845" lon="5.08821">
        <ele>213.9</ele>
        <time>2021-05-31T06:38:36.000Z</time>
      </trkpt>
      <trkpt lat="44.22817" lon="5.08826">
        <ele>214.6</ele>
        <time>2021-05-31T06:38:40.000Z</time>
      </trkpt>
      <trkpt lat="44.2279" lon="5.08826">
        <ele>215.3</ele>
        <time>2021-05-31T06:38:43.000Z</time>
      </trkpt>
      <trkpt lat="44.22763" lon="5.08826">
        <ele>216</ele>
        <time>2021-05-31T06:38:46.000Z</time>
      </trkpt>
      <trkpt lat="44.22736" lon="5.08825">
        <ele>216.7</ele>
        <time>2021-05-31T06:38:49.000Z</time>
      </trkpt>
      <trkpt lat="44.22709" lon="5.08825">
        <ele>217.4</ele>
        <time>2021-05-31T06:38:53.000Z</time>
      </trkpt>
      <trkpt lat="44.2268" lon="5.08827">
        <ele>218.1</ele>
        <time>2021-05-31T06:38:56.000Z</time>
      </trkpt>
      <trkpt lat="44.22651" lon="5.08828">
        <ele>218.7</ele>
        <time>2021-05-31T06:38:59.000Z</time>
      </trkpt>
      <trkpt lat="44.22626" lon="5.08835">
        <ele>219.4</ele>
        <time>2021-05-31T06:39:03.000Z</time>
      </trkpt>
      <trkpt lat="44.22601" lon="5.08842">
        <ele>220.2</ele>
        <time>2021-05-31T06:39:06.000Z</time>
      </trkpt>
      <trkpt lat="44.22587" lon="5.0885">
        <ele>220.8</ele>
        <time>2021-05-31T06:39:08.000Z</time>
      </trkpt>
      <trkpt lat="44.22554" lon="5.08873">
        <ele>221.5</ele>
        <time>2021-05-31T06:39:12.000Z</time>
      </trkpt>
      <trkpt lat="44.22526" lon="5.08897">
        <ele>221.9</ele>
        <time>2021-05-31T06:39:16.000Z</time>
      </trkpt>
      <trkpt lat="44.22503" lon="5.08923">
        <ele>222.2</ele>
        <time>2021-05-31T06:39:19.000Z</time>
      </trkpt>
      <trkpt lat="44.22484" lon="5.08952">
        <ele>222.5</ele>
        <time>2021-05-31T06:39:22.000Z</time>
      </trkpt>
      <trkpt lat="44.22464" lon="5.08981">
        <ele>222.8</ele>
        <time>2021-05-31T06:39:25.000Z</time>
      </trkpt>
      <trkpt lat="44.22445" lon="5.0901">
        <ele>223.3</ele>
        <time>2021-05-31T06:39:28.000Z</time>
      </trkpt>
      <trkpt lat="44.22425" lon="5.09039">
        <ele>223.8</ele>
        <time>2021-05-31T06:39:31.000Z</time>
      </trkpt>
      <trkpt lat="44.22408" lon="5.09068">
        <ele>224</ele>
        <time>2021-05-31T06:39:34.000Z</time>
      </trkpt>
      <trkpt lat="44.22396" lon="5.09095">
        <ele>224.2</ele>
        <time>2021-05-31T06:39:37.000Z</time>
      </trkpt>
      <trkpt lat="44.22384" lon="5.09121">
        <ele>224.3</ele>
        <time>2021-05-31T06:39:39.000Z</time>
      </trkpt>
      <trkpt lat="44.22374" lon="5.0915">
        <ele>224.6</ele>
        <time>2021-05-31T06:39:41.000Z</time>
      </trkpt>
      <trkpt lat="44.22362" lon="5.09193">
        <ele>224.8</ele>
        <time>2021-05-31T06:39:45.000Z</time>
      </trkpt>
      <trkpt lat="44.2235" lon="5.09235">
        <ele>224.9</ele>
        <time>2021-05-31T06:39:48.000Z</time>
      </trkpt>
      <trkpt lat="44.22337" lon="5.09273">
        <ele>225</ele>
        <time>2021-05-31T06:39:51.000Z</time>
      </trkpt>
      <trkpt lat="44.22324" lon="5.09311">
        <ele>225.1</ele>
        <time>2021-05-31T06:39:54.000Z</time>
      </trkpt>
      <trkpt lat="44.22308" lon="5.09338">
        <ele>225.2</ele>
        <time>2021-05-31T06:39:57.000Z</time>
      </trkpt>
      <trkpt lat="44.22285" lon="5.09367">
        <ele>225.2</ele>
        <time>2021-05-31T06:40:00.000Z</time>
      </trkpt>
      <trkpt lat="44.22264" lon="5.09389">
        <ele>225.3</ele>
        <time>2021-05-31T06:40:02.000Z</time>
      </trkpt>
      <trkpt lat="44.22243" lon="5.09411">
        <ele>225.4</ele>
        <time>2021-05-31T06:40:05.000Z</time>
      </trkpt>
      <trkpt lat="44.22222" lon="5.09432">
        <ele>225.6</ele>
        <time>2021-05-31T06:40:08.000Z</time>
      </trkpt>
      <trkpt lat="44.22201" lon="5.09454">
        <ele>225.7</ele>
        <time>2021-05-31T06:40:10.000Z</time>
      </trkpt>
      <trkpt lat="44.22181" lon="5.09476">
        <ele>225.9</ele>
        <time>2021-05-31T06:40:13.000Z</time>
      </trkpt>
      <trkpt lat="44.2216" lon="5.09498">
        <ele>226</ele>
        <time>2021-05-31T06:40:16.000Z</time>
      </trkpt>
      <trkpt lat="44.22139" lon="5.09519">
        <ele>226.2</ele>
        <time>2021-05-31T06:40:19.000Z</time>
      </trkpt>
      <trkpt lat="44.22118" lon="5.09541">
        <ele>226.4</ele>
        <time>2021-05-31T06:40:21.000Z</time>
      </trkpt>
      <trkpt lat="44.22097" lon="5.09563">
        <ele>226.6</ele>
        <time>2021-05-31T06:40:24.000Z</time>
      </trkpt>
      <trkpt lat="44.22078" lon="5.0958">
        <ele>226.7</ele>
        <time>2021-05-31T06:40:26.000Z</time>
      </trkpt>
      <trkpt lat="44.22059" lon="5.09598">
        <ele>226.9</ele>
        <time>2021-05-31T06:40:29.000Z</time>
      </trkpt>
      <trkpt lat="44.2204" lon="5.09615">
        <ele>227.1</ele>
        <time>2021-05-31T06:40:31.000Z</time>
      </trkpt>
      <trkpt lat="44.2202" lon="5.09632">
        <ele>227.3</ele>
        <time>2021-05-31T06:40:34.000Z</time>
      </trkpt>
      <trkpt lat="44.22001" lon="5.0965">
        <ele>227.5</ele>
        <time>2021-05-31T06:40:36.000Z</time>
      </trkpt>
      <trkpt lat="44.21982" lon="5.09667">
        <ele>227.7</ele>
        <time>2021-05-31T06:40:39.000Z</time>
      </trkpt>
      <trkpt lat="44.21963" lon="5.0968">
        <ele>228.1</ele>
        <time>2021-05-31T06:40:41.000Z</time>
      </trkpt>
      <trkpt lat="44.21943" lon="5.09693">
        <ele>228.4</ele>
        <time>2021-05-31T06:40:43.000Z</time>
      </trkpt>
      <trkpt lat="44.21928" lon="5.09711">
        <ele>228.5</ele>
        <time>2021-05-31T06:40:45.000Z</time>
      </trkpt>
      <trkpt lat="44.21914" lon="5.09721">
        <ele>228.5</ele>
        <time>2021-05-31T06:40:47.000Z</time>
      </trkpt>
      <trkpt lat="44.21907" lon="5.09723">
        <ele>228.5</ele>
        <time>2021-05-31T06:40:48.000Z</time>
      </trkpt>
      <trkpt lat="44.21901" lon="5.0972">
        <ele>228.5</ele>
        <time>2021-05-31T06:40:48.000Z</time>
      </trkpt>
      <trkpt lat="44.21893" lon="5.09721">
        <ele>228.8</ele>
        <time>2021-05-31T06:40:49.000Z</time>
      </trkpt>
      <trkpt lat="44.21888" lon="5.09728">
        <ele>229</ele>
        <time>2021-05-31T06:40:50.000Z</time>
      </trkpt>
      <trkpt lat="44.21853" lon="5.09741">
        <ele>229.5</ele>
        <time>2021-05-31T06:40:54.000Z</time>
      </trkpt>
      <trkpt lat="44.21829" lon="5.09755">
        <ele>230</ele>
        <time>2021-05-31T06:40:57.000Z</time>
      </trkpt>
      <trkpt lat="44.21804" lon="5.09769">
        <ele>230.4</ele>
        <time>2021-05-31T06:41:00.000Z</time>
      </trkpt>
      <trkpt lat="44.21784" lon="5.09782">
        <ele>230.8</ele>
        <time>2021-05-31T06:41:03.000Z</time>
      </trkpt>
      <trkpt lat="44.21765" lon="5.09795">
        <ele>231.1</ele>
        <time>2021-05-31T06:41:05.000Z</time>
      </trkpt>
      <trkpt lat="44.21745" lon="5.09809">
        <ele>231.5</ele>
        <time>2021-05-31T06:41:08.000Z</time>
      </trkpt>
      <trkpt lat="44.21726" lon="5.09822">
        <ele>231.8</ele>
        <time>2021-05-31T06:41:10.000Z</time>
      </trkpt>
      <trkpt lat="44.21706" lon="5.09835">
        <ele>232.2</ele>
        <time>2021-05-31T06:41:12.000Z</time>
      </trkpt>
      <trkpt lat="44.21687" lon="5.09848">
        <ele>232.5</ele>
        <time>2021-05-31T06:41:15.000Z</time>
      </trkpt>
      <trkpt lat="44.21657" lon="5.09868">
        <ele>232.8</ele>
        <time>2021-05-31T06:41:18.000Z</time>
      </trkpt>
      <trkpt lat="44.21628" lon="5.09888">
        <ele>233.1</ele>
        <time>2021-05-31T06:41:22.000Z</time>
      </trkpt>
      <trkpt lat="44.21606" lon="5.09906">
        <ele>233.5</ele>
        <time>2021-05-31T06:41:25.000Z</time>
      </trkpt>
      <trkpt lat="44.21584" lon="5.09925">
        <ele>233.9</ele>
        <time>2021-05-31T06:41:27.000Z</time>
      </trkpt>
      <trkpt lat="44.21562" lon="5.09943">
        <ele>234.1</ele>
        <time>2021-05-31T06:41:30.000Z</time>
      </trkpt>
      <trkpt lat="44.2154" lon="5.09961">
        <ele>234.2</ele>
        <time>2021-05-31T06:41:33.000Z</time>
      </trkpt>
      <trkpt lat="44.21531" lon="5.09967">
        <ele>234.3</ele>
        <time>2021-05-31T06:41:34.000Z</time>
      </trkpt>
      <trkpt lat="44.215" lon="5.09983">
        <ele>234.6</ele>
        <time>2021-05-31T06:41:37.000Z</time>
      </trkpt>
      <trkpt lat="44.21466" lon="5.09995">
        <ele>235</ele>
        <time>2021-05-31T06:41:41.000Z</time>
      </trkpt>
      <trkpt lat="44.21445" lon="5.10001">
        <ele>235.4</ele>
        <time>2021-05-31T06:41:44.000Z</time>
      </trkpt>
      <trkpt lat="44.21423" lon="5.10008">
        <ele>235.8</ele>
        <time>2021-05-31T06:41:46.000Z</time>
      </trkpt>
      <trkpt lat="44.21402" lon="5.10014">
        <ele>236.2</ele>
        <time>2021-05-31T06:41:49.000Z</time>
      </trkpt>
      <trkpt lat="44.21381" lon="5.1002">
        <ele>236.8</ele>
        <time>2021-05-31T06:41:51.000Z</time>
      </trkpt>
      <trkpt lat="44.21359" lon="5.10027">
        <ele>237.3</ele>
        <time>2021-05-31T06:41:54.000Z</time>
      </trkpt>
      <trkpt lat="44.21338" lon="5.10033">
        <ele>237.9</ele>
        <time>2021-05-31T06:41:56.000Z</time>
      </trkpt>
      <trkpt lat="44.21314" lon="5.10036">
        <ele>238.4</ele>
        <time>2021-05-31T06:41:59.000Z</time>
      </trkpt>
      <trkpt lat="44.21289" lon="5.1004">
        <ele>238.9</ele>
        <time>2021-05-31T06:42:02.000Z</time>
      </trkpt>
      <trkpt lat="44.21265" lon="5.10043">
        <ele>239.4</ele>
        <time>2021-05-31T06:42:05.000Z</time>
      </trkpt>
      <trkpt lat="44.21235" lon="5.10046">
        <ele>240.1</ele>
        <time>2021-05-31T06:42:09.000Z</time>
      </trkpt>
      <trkpt lat="44.21205" lon="5.10049">
        <ele>240.9</ele>
        <time>2021-05-31T06:42:12.000Z</time>
      </trkpt>
      <trkpt lat="44.21187" lon="5.10053">
        <ele>241.6</ele>
        <time>2021-05-31T06:42:15.000Z</time>
      </trkpt>
      <trkpt lat="44.21172" lon="5.1006">
        <ele>241.8</ele>
        <time>2021-05-31T06:42:16.000Z</time>
      </trkpt>
      <trkpt lat="44.21159" lon="5.10071">
        <ele>242.1</ele>
        <time>2021-05-31T06:42:18.000Z</time>
      </trkpt>
      <trkpt lat="44.21144" lon="5.10088">
        <ele>242.3</ele>
        <time>2021-05-31T06:42:20.000Z</time>
      </trkpt>
      <trkpt lat="44.21118" lon="5.10114">
        <ele>242.4</ele>
        <time>2021-05-31T06:42:23.000Z</time>
      </trkpt>
      <trkpt lat="44.21092" lon="5.1014">
        <ele>242.6</ele>
        <time>2021-05-31T06:42:27.000Z</time>
      </trkpt>
      <trkpt lat="44.21074" lon="5.10162">
        <ele>242.8</ele>
        <time>2021-05-31T06:42:29.000Z</time>
      </trkpt>
      <trkpt lat="44.21056" lon="5.10183">
        <ele>243.1</ele>
        <time>2021-05-31T06:42:32.000Z</time>
      </trkpt>
      <trkpt lat="44.21039" lon="5.10206">
        <ele>244.1</ele>
        <time>2021-05-31T06:42:35.000Z</time>
      </trkpt>
      <trkpt lat="44.21021" lon="5.1023">
        <ele>245.2</ele>
        <time>2021-05-31T06:42:39.000Z</time>
      </trkpt>
      <trkpt lat="44.21004" lon="5.10253">
        <ele>246.3</ele>
        <time>2021-05-31T06:42:42.000Z</time>
      </trkpt>
      <trkpt lat="44.20983" lon="5.10274">
        <ele>247.6</ele>
        <time>2021-05-31T06:42:46.000Z</time>
      </trkpt>
      <trkpt lat="44.20961" lon="5.10295">
        <ele>248.9</ele>
        <time>2021-05-31T06:42:50.000Z</time>
      </trkpt>
      <trkpt lat="44.2094" lon="5.10316">
        <ele>250.2</ele>
        <time>2021-05-31T06:42:54.000Z</time>
      </trkpt>
      <trkpt lat="44.2092" lon="5.10341">
        <ele>250.8</ele>
        <time>2021-05-31T06:42:57.000Z</time>
      </trkpt>
      <trkpt lat="44.20899" lon="5.10366">
        <ele>251.4</ele>
        <time>2021-05-31T06:43:01.000Z</time>
      </trkpt>
      <trkpt lat="44.20879" lon="5.10391">
        <ele>251.6</ele>
        <time>2021-05-31T06:43:03.000Z</time>
      </trkpt>
      <trkpt lat="44.20858" lon="5.10416">
        <ele>251.7</ele>
        <time>2021-05-31T06:43:06.000Z</time>
      </trkpt>
      <trkpt lat="44.20828" lon="5.10445">
        <ele>251.6</ele>
        <time>2021-05-31T06:43:10.000Z</time>
      </trkpt>
      <trkpt lat="44.20807" lon="5.10459">
        <ele>251.4</ele>
        <time>2021-05-31T06:43:12.000Z</time>
      </trkpt>
      <trkpt lat="44.20786" lon="5.10472">
        <ele>251.3</ele>
        <time>2021-05-31T06:43:14.000Z</time>
      </trkpt>
      <trkpt lat="44.20765" lon="5.10486">
        <ele>251.2</ele>
        <time>2021-05-31T06:43:16.000Z</time>
      </trkpt>
      <trkpt lat="44.20744" lon="5.105">
        <ele>251.3</ele>
        <time>2021-05-31T06:43:19.000Z</time>
      </trkpt>
      <trkpt lat="44.20723" lon="5.10513">
        <ele>251.3</ele>
        <time>2021-05-31T06:43:21.000Z</time>
      </trkpt>
      <trkpt lat="44.20702" lon="5.10527">
        <ele>251.4</ele>
        <time>2021-05-31T06:43:23.000Z</time>
      </trkpt>
      <trkpt lat="44.20675" lon="5.10543">
        <ele>251.8</ele>
        <time>2021-05-31T06:43:27.000Z</time>
      </trkpt>
      <trkpt lat="44.20648" lon="5.10559">
        <ele>252.2</ele>
        <time>2021-05-31T06:43:30.000Z</time>
      </trkpt>
      <trkpt lat="44.20622" lon="5.10576">
        <ele>252.6</ele>
        <time>2021-05-31T06:43:33.000Z</time>
      </trkpt>
      <trkpt lat="44.20595" lon="5.10592">
        <ele>253.2</ele>
        <time>2021-05-31T06:43:36.000Z</time>
      </trkpt>
      <trkpt lat="44.20568" lon="5.10608">
        <ele>253.9</ele>
        <time>2021-05-31T06:43:40.000Z</time>
      </trkpt>
      <trkpt lat="44.20541" lon="5.10624">
        <ele>254.5</ele>
        <time>2021-05-31T06:43:43.000Z</time>
      </trkpt>
      <trkpt lat="44.20517" lon="5.10638">
        <ele>254.7</ele>
        <time>2021-05-31T06:43:46.000Z</time>
      </trkpt>
      <trkpt lat="44.20492" lon="5.10653">
        <ele>254.9</ele>
        <time>2021-05-31T06:43:49.000Z</time>
      </trkpt>
      <trkpt lat="44.20468" lon="5.10667">
        <ele>255</ele>
        <time>2021-05-31T06:43:51.000Z</time>
      </trkpt>
      <trkpt lat="44.20451" lon="5.10682">
        <ele>254.7</ele>
        <time>2021-05-31T06:43:53.000Z</time>
      </trkpt>
      <trkpt lat="44.20436" lon="5.10699">
        <ele>254.6</ele>
        <time>2021-05-31T06:43:55.000Z</time>
      </trkpt>
      <trkpt lat="44.20418" lon="5.10727">
        <ele>254.5</ele>
        <time>2021-05-31T06:43:58.000Z</time>
      </trkpt>
      <trkpt lat="44.20399" lon="5.10756">
        <ele>254.4</ele>
        <time>2021-05-31T06:44:00.000Z</time>
      </trkpt>
      <trkpt lat="44.20381" lon="5.10784">
        <ele>254.3</ele>
        <time>2021-05-31T06:44:03.000Z</time>
      </trkpt>
      <trkpt lat="44.20363" lon="5.10812">
        <ele>254.4</ele>
        <time>2021-05-31T06:44:06.000Z</time>
      </trkpt>
      <trkpt lat="44.20344" lon="5.10841">
        <ele>254.6</ele>
        <time>2021-05-31T06:44:09.000Z</time>
      </trkpt>
      <trkpt lat="44.20326" lon="5.10869">
        <ele>254.7</ele>
        <time>2021-05-31T06:44:12.000Z</time>
      </trkpt>
      <trkpt lat="44.20307" lon="5.10895">
        <ele>255</ele>
        <time>2021-05-31T06:44:14.000Z</time>
      </trkpt>
      <trkpt lat="44.20289" lon="5.1092">
        <ele>255.3</ele>
        <time>2021-05-31T06:44:17.000Z</time>
      </trkpt>
      <trkpt lat="44.2027" lon="5.10946">
        <ele>255.7</ele>
        <time>2021-05-31T06:44:20.000Z</time>
      </trkpt>
      <trkpt lat="44.20252" lon="5.10972">
        <ele>256</ele>
        <time>2021-05-31T06:44:23.000Z</time>
      </trkpt>
      <trkpt lat="44.20233" lon="5.10997">
        <ele>256.4</ele>
        <time>2021-05-31T06:44:26.000Z</time>
      </trkpt>
      <trkpt lat="44.20215" lon="5.11023">
        <ele>256.7</ele>
        <time>2021-05-31T06:44:29.000Z</time>
      </trkpt>
      <trkpt lat="44.20196" lon="5.11049">
        <ele>257.2</ele>
        <time>2021-05-31T06:44:32.000Z</time>
      </trkpt>
      <trkpt lat="44.20177" lon="5.11074">
        <ele>257.6</ele>
        <time>2021-05-31T06:44:35.000Z</time>
      </trkpt>
      <trkpt lat="44.20159" lon="5.111">
        <ele>258.1</ele>
        <time>2021-05-31T06:44:38.000Z</time>
      </trkpt>
      <trkpt lat="44.2014" lon="5.11126">
        <ele>258.7</ele>
        <time>2021-05-31T06:44:41.000Z</time>
      </trkpt>
      <trkpt lat="44.20122" lon="5.11151">
        <ele>259.2</ele>
        <time>2021-05-31T06:44:44.000Z</time>
      </trkpt>
      <trkpt lat="44.20103" lon="5.11177">
        <ele>259.8</ele>
        <time>2021-05-31T06:44:47.000Z</time>
      </trkpt>
      <trkpt lat="44.20084" lon="5.11203">
        <ele>260.5</ele>
        <time>2021-05-31T06:44:50.000Z</time>
      </trkpt>
      <trkpt lat="44.20064" lon="5.11228">
        <ele>261.2</ele>
        <time>2021-05-31T06:44:53.000Z</time>
      </trkpt>
      <trkpt lat="44.20045" lon="5.1125">
        <ele>261.6</ele>
        <time>2021-05-31T06:44:56.000Z</time>
      </trkpt>
      <trkpt lat="44.20025" lon="5.11272">
        <ele>261.9</ele>
        <time>2021-05-31T06:44:59.000Z</time>
      </trkpt>
      <trkpt lat="44.20006" lon="5.11293">
        <ele>262.7</ele>
        <time>2021-05-31T06:45:02.000Z</time>
      </trkpt>
      <trkpt lat="44.19986" lon="5.11315">
        <ele>263.4</ele>
        <time>2021-05-31T06:45:05.000Z</time>
      </trkpt>
      <trkpt lat="44.19965" lon="5.11343">
        <ele>263.8</ele>
        <time>2021-05-31T06:45:08.000Z</time>
      </trkpt>
      <trkpt lat="44.19945" lon="5.11374">
        <ele>264.7</ele>
        <time>2021-05-31T06:45:12.000Z</time>
      </trkpt>
      <trkpt lat="44.19931" lon="5.114">
        <ele>265.2</ele>
        <time>2021-05-31T06:45:15.000Z</time>
      </trkpt>
      <trkpt lat="44.19916" lon="5.11427">
        <ele>265.7</ele>
        <time>2021-05-31T06:45:17.000Z</time>
      </trkpt>
      <trkpt lat="44.19902" lon="5.11453">
        <ele>266.1</ele>
        <time>2021-05-31T06:45:20.000Z</time>
      </trkpt>
      <trkpt lat="44.19888" lon="5.11477">
        <ele>266.4</ele>
        <time>2021-05-31T06:45:22.000Z</time>
      </trkpt>
      <trkpt lat="44.19874" lon="5.11501">
        <ele>266.6</ele>
        <time>2021-05-31T06:45:25.000Z</time>
      </trkpt>
      <trkpt lat="44.1986" lon="5.11525">
        <ele>266.9</ele>
        <time>2021-05-31T06:45:27.000Z</time>
      </trkpt>
      <trkpt lat="44.19846" lon="5.11547">
        <ele>267.4</ele>
        <time>2021-05-31T06:45:30.000Z</time>
      </trkpt>
      <trkpt lat="44.19832" lon="5.11568">
        <ele>268</ele>
        <time>2021-05-31T06:45:32.000Z</time>
      </trkpt>
      <trkpt lat="44.19805" lon="5.11602">
        <ele>268.6</ele>
        <time>2021-05-31T06:45:36.000Z</time>
      </trkpt>
      <trkpt lat="44.19787" lon="5.11621">
        <ele>268.8</ele>
        <time>2021-05-31T06:45:39.000Z</time>
      </trkpt>
      <trkpt lat="44.19769" lon="5.1164">
        <ele>269</ele>
        <time>2021-05-31T06:45:41.000Z</time>
      </trkpt>
      <trkpt lat="44.19743" lon="5.11663">
        <ele>269.1</ele>
        <time>2021-05-31T06:45:44.000Z</time>
      </trkpt>
      <trkpt lat="44.19717" lon="5.11686">
        <ele>269.2</ele>
        <time>2021-05-31T06:45:47.000Z</time>
      </trkpt>
      <trkpt lat="44.19692" lon="5.11709">
        <ele>269.1</ele>
        <time>2021-05-31T06:45:50.000Z</time>
      </trkpt>
      <trkpt lat="44.19666" lon="5.11731">
        <ele>269.1</ele>
        <time>2021-05-31T06:45:53.000Z</time>
      </trkpt>
      <trkpt lat="44.1964" lon="5.11754">
        <ele>269.2</ele>
        <time>2021-05-31T06:45:56.000Z</time>
      </trkpt>
      <trkpt lat="44.19614" lon="5.11777">
        <ele>269.2</ele>
        <time>2021-05-31T06:45:59.000Z</time>
      </trkpt>
      <trkpt lat="44.19591" lon="5.11793">
        <ele>269.4</ele>
        <time>2021-05-31T06:46:02.000Z</time>
      </trkpt>
      <trkpt lat="44.19568" lon="5.118">
        <ele>270</ele>
        <time>2021-05-31T06:46:05.000Z</time>
      </trkpt>
      <trkpt lat="44.19546" lon="5.11803">
        <ele>271.3</ele>
        <time>2021-05-31T06:46:09.000Z</time>
      </trkpt>
      <trkpt lat="44.19525" lon="5.11807">
        <ele>272.7</ele>
        <time>2021-05-31T06:46:12.000Z</time>
      </trkpt>
      <trkpt lat="44.19503" lon="5.1181">
        <ele>274.1</ele>
        <time>2021-05-31T06:46:16.000Z</time>
      </trkpt>
      <trkpt lat="44.19486" lon="5.11815">
        <ele>275.2</ele>
        <time>2021-05-31T06:46:19.000Z</time>
      </trkpt>
      <trkpt lat="44.19462" lon="5.11828">
        <ele>276.5</ele>
        <time>2021-05-31T06:46:23.000Z</time>
      </trkpt>
      <trkpt lat="44.1944" lon="5.11843">
        <ele>277.7</ele>
        <time>2021-05-31T06:46:27.000Z</time>
      </trkpt>
      <trkpt lat="44.19417" lon="5.11858">
        <ele>279</ele>
        <time>2021-05-31T06:46:31.000Z</time>
      </trkpt>
      <trkpt lat="44.19395" lon="5.11872">
        <ele>280</ele>
        <time>2021-05-31T06:46:34.000Z</time>
      </trkpt>
      <trkpt lat="44.19372" lon="5.11887">
        <ele>281.1</ele>
        <time>2021-05-31T06:46:38.000Z</time>
      </trkpt>
      <trkpt lat="44.19344" lon="5.11901">
        <ele>282</ele>
        <time>2021-05-31T06:46:42.000Z</time>
      </trkpt>
      <trkpt lat="44.19317" lon="5.11915">
        <ele>282.9</ele>
        <time>2021-05-31T06:46:45.000Z</time>
      </trkpt>
      <trkpt lat="44.19289" lon="5.11928">
        <ele>283.4</ele>
        <time>2021-05-31T06:46:49.000Z</time>
      </trkpt>
      <trkpt lat="44.19261" lon="5.11942">
        <ele>283.9</ele>
        <time>2021-05-31T06:46:52.000Z</time>
      </trkpt>
      <trkpt lat="44.19234" lon="5.11952">
        <ele>284</ele>
        <time>2021-05-31T06:46:55.000Z</time>
      </trkpt>
      <trkpt lat="44.19206" lon="5.11963">
        <ele>284.1</ele>
        <time>2021-05-31T06:46:58.000Z</time>
      </trkpt>
      <trkpt lat="44.19179" lon="5.11973">
        <ele>284.3</ele>
        <time>2021-05-31T06:47:01.000Z</time>
      </trkpt>
      <trkpt lat="44.19151" lon="5.11983">
        <ele>284.5</ele>
        <time>2021-05-31T06:47:04.000Z</time>
      </trkpt>
      <trkpt lat="44.19129" lon="5.1199">
        <ele>284.7</ele>
        <time>2021-05-31T06:47:06.000Z</time>
      </trkpt>
      <trkpt lat="44.19108" lon="5.11996">
        <ele>285</ele>
        <time>2021-05-31T06:47:08.000Z</time>
      </trkpt>
      <trkpt lat="44.19086" lon="5.12003">
        <ele>285.3</ele>
        <time>2021-05-31T06:47:11.000Z</time>
      </trkpt>
      <trkpt lat="44.19064" lon="5.12009">
        <ele>285.6</ele>
        <time>2021-05-31T06:47:13.000Z</time>
      </trkpt>
      <trkpt lat="44.19043" lon="5.12016">
        <ele>285.8</ele>
        <time>2021-05-31T06:47:16.000Z</time>
      </trkpt>
      <trkpt lat="44.19021" lon="5.12022">
        <ele>286.1</ele>
        <time>2021-05-31T06:47:18.000Z</time>
      </trkpt>
      <trkpt lat="44.18997" lon="5.1203">
        <ele>286.5</ele>
        <time>2021-05-31T06:47:21.000Z</time>
      </trkpt>
      <trkpt lat="44.18973" lon="5.12038">
        <ele>286.8</ele>
        <time>2021-05-31T06:47:24.000Z</time>
      </trkpt>
      <trkpt lat="44.1895" lon="5.12045">
        <ele>287.2</ele>
        <time>2021-05-31T06:47:26.000Z</time>
      </trkpt>
      <trkpt lat="44.18926" lon="5.12053">
        <ele>287.5</ele>
        <time>2021-05-31T06:47:29.000Z</time>
      </trkpt>
      <trkpt lat="44.18902" lon="5.12061">
        <ele>287.8</ele>
        <time>2021-05-31T06:47:32.000Z</time>
      </trkpt>
      <trkpt lat="44.18878" lon="5.12069">
        <ele>288.1</ele>
        <time>2021-05-31T06:47:34.000Z</time>
      </trkpt>
      <trkpt lat="44.18855" lon="5.12076">
        <ele>288.6</ele>
        <time>2021-05-31T06:47:37.000Z</time>
      </trkpt>
      <trkpt lat="44.18831" lon="5.12084">
        <ele>289.1</ele>
        <time>2021-05-31T06:47:40.000Z</time>
      </trkpt>
      <trkpt lat="44.18807" lon="5.12092">
        <ele>289.6</ele>
        <time>2021-05-31T06:47:43.000Z</time>
      </trkpt>
      <trkpt lat="44.18778" lon="5.12108">
        <ele>290.1</ele>
        <time>2021-05-31T06:47:46.000Z</time>
      </trkpt>
      <trkpt lat="44.18754" lon="5.12126">
        <ele>290.6</ele>
        <time>2021-05-31T06:47:49.000Z</time>
      </trkpt>
      <trkpt lat="44.1873" lon="5.12143">
        <ele>291</ele>
        <time>2021-05-31T06:47:52.000Z</time>
      </trkpt>
      <trkpt lat="44.18705" lon="5.12161">
        <ele>291.4</ele>
        <time>2021-05-31T06:47:55.000Z</time>
      </trkpt>
      <trkpt lat="44.18681" lon="5.12179">
        <ele>291.8</ele>
        <time>2021-05-31T06:47:58.000Z</time>
      </trkpt>
      <trkpt lat="44.18657" lon="5.12196">
        <ele>292.3</ele>
        <time>2021-05-31T06:48:02.000Z</time>
      </trkpt>
      <trkpt lat="44.18633" lon="5.12214">
        <ele>292.7</ele>
        <time>2021-05-31T06:48:05.000Z</time>
      </trkpt>
      <trkpt lat="44.18608" lon="5.12232">
        <ele>293.1</ele>
        <time>2021-05-31T06:48:08.000Z</time>
      </trkpt>
      <trkpt lat="44.18584" lon="5.12249">
        <ele>293.5</ele>
        <time>2021-05-31T06:48:11.000Z</time>
      </trkpt>
      <trkpt lat="44.1856" lon="5.12267">
        <ele>294</ele>
        <time>2021-05-31T06:48:14.000Z</time>
      </trkpt>
      <trkpt lat="44.18536" lon="5.12285">
        <ele>294.6</ele>
        <time>2021-05-31T06:48:17.000Z</time>
      </trkpt>
      <trkpt lat="44.18511" lon="5.12302">
        <ele>295.3</ele>
        <time>2021-05-31T06:48:20.000Z</time>
      </trkpt>
      <trkpt lat="44.18487" lon="5.1232">
        <ele>296</ele>
        <time>2021-05-31T06:48:24.000Z</time>
      </trkpt>
      <trkpt lat="44.18465" lon="5.12341">
        <ele>296.7</ele>
        <time>2021-05-31T06:48:27.000Z</time>
      </trkpt>
      <trkpt lat="44.18446" lon="5.12365">
        <ele>297.2</ele>
        <time>2021-05-31T06:48:30.000Z</time>
      </trkpt>
      <trkpt lat="44.18426" lon="5.1239">
        <ele>297.8</ele>
        <time>2021-05-31T06:48:33.000Z</time>
      </trkpt>
      <trkpt lat="44.18407" lon="5.12414">
        <ele>298.3</ele>
        <time>2021-05-31T06:48:36.000Z</time>
      </trkpt>
      <trkpt lat="44.18388" lon="5.12438">
        <ele>298.7</ele>
        <time>2021-05-31T06:48:39.000Z</time>
      </trkpt>
      <trkpt lat="44.18368" lon="5.12463">
        <ele>299.1</ele>
        <time>2021-05-31T06:48:42.000Z</time>
      </trkpt>
      <trkpt lat="44.18349" lon="5.12487">
        <ele>299.6</ele>
        <time>2021-05-31T06:48:45.000Z</time>
      </trkpt>
      <trkpt lat="44.1833" lon="5.12511">
        <ele>300.1</ele>
        <time>2021-05-31T06:48:48.000Z</time>
      </trkpt>
      <trkpt lat="44.1831" lon="5.12536">
        <ele>300.7</ele>
        <time>2021-05-31T06:48:51.000Z</time>
      </trkpt>
      <trkpt lat="44.18291" lon="5.1256">
        <ele>301.3</ele>
        <time>2021-05-31T06:48:54.000Z</time>
      </trkpt>
      <trkpt lat="44.18272" lon="5.12584">
        <ele>302</ele>
        <time>2021-05-31T06:48:57.000Z</time>
      </trkpt>
      <trkpt lat="44.18252" lon="5.12609">
        <ele>302.6</ele>
        <time>2021-05-31T06:49:00.000Z</time>
      </trkpt>
      <trkpt lat="44.18233" lon="5.12633">
        <ele>303.3</ele>
        <time>2021-05-31T06:49:03.000Z</time>
      </trkpt>
      <trkpt lat="44.18224" lon="5.12644">
        <ele>303.5</ele>
        <time>2021-05-31T06:49:04.000Z</time>
      </trkpt>
      <trkpt lat="44.18208" lon="5.12658">
        <ele>304</ele>
        <time>2021-05-31T06:49:07.000Z</time>
      </trkpt>
      <trkpt lat="44.1819" lon="5.12667">
        <ele>305</ele>
        <time>2021-05-31T06:49:10.000Z</time>
      </trkpt>
      <trkpt lat="44.18163" lon="5.12679">
        <ele>305.5</ele>
        <time>2021-05-31T06:49:13.000Z</time>
      </trkpt>
      <trkpt lat="44.18136" lon="5.12691">
        <ele>305.9</ele>
        <time>2021-05-31T06:49:16.000Z</time>
      </trkpt>
      <trkpt lat="44.1811" lon="5.12703">
        <ele>306.3</ele>
        <time>2021-05-31T06:49:19.000Z</time>
      </trkpt>
      <trkpt lat="44.18083" lon="5.12715">
        <ele>306.6</ele>
        <time>2021-05-31T06:49:22.000Z</time>
      </trkpt>
      <trkpt lat="44.18056" lon="5.12727">
        <ele>307</ele>
        <time>2021-05-31T06:49:25.000Z</time>
      </trkpt>
      <trkpt lat="44.18029" lon="5.12739">
        <ele>307.4</ele>
        <time>2021-05-31T06:49:28.000Z</time>
      </trkpt>
      <trkpt lat="44.18004" lon="5.1275">
        <ele>307.8</ele>
        <time>2021-05-31T06:49:31.000Z</time>
      </trkpt>
      <trkpt lat="44.17978" lon="5.12761">
        <ele>308.2</ele>
        <time>2021-05-31T06:49:34.000Z</time>
      </trkpt>
      <trkpt lat="44.17953" lon="5.12772">
        <ele>308.6</ele>
        <time>2021-05-31T06:49:37.000Z</time>
      </trkpt>
      <trkpt lat="44.17927" lon="5.12783">
        <ele>309.2</ele>
        <time>2021-05-31T06:49:40.000Z</time>
      </trkpt>
      <trkpt lat="44.17902" lon="5.12794">
        <ele>309.9</ele>
        <time>2021-05-31T06:49:44.000Z</time>
      </trkpt>
      <trkpt lat="44.17876" lon="5.12805">
        <ele>310.5</ele>
        <time>2021-05-31T06:49:47.000Z</time>
      </trkpt>
      <trkpt lat="44.17851" lon="5.12816">
        <ele>310.9</ele>
        <time>2021-05-31T06:49:50.000Z</time>
      </trkpt>
      <trkpt lat="44.17825" lon="5.12827">
        <ele>311.3</ele>
        <time>2021-05-31T06:49:53.000Z</time>
      </trkpt>
      <trkpt lat="44.178" lon="5.12838">
        <ele>311.8</ele>
        <time>2021-05-31T06:49:56.000Z</time>
      </trkpt>
      <trkpt lat="44.17774" lon="5.12848">
        <ele>312.4</ele>
        <time>2021-05-31T06:49:59.000Z</time>
      </trkpt>
      <trkpt lat="44.17749" lon="5.12859">
        <ele>313</ele>
        <time>2021-05-31T06:50:02.000Z</time>
      </trkpt>
      <trkpt lat="44.17723" lon="5.1287">
        <ele>313.6</ele>
        <time>2021-05-31T06:50:05.000Z</time>
      </trkpt>
      <trkpt lat="44.17698" lon="5.12881">
        <ele>314.3</ele>
        <time>2021-05-31T06:50:08.000Z</time>
      </trkpt>
      <trkpt lat="44.17672" lon="5.12892">
        <ele>315</ele>
        <time>2021-05-31T06:50:12.000Z</time>
      </trkpt>
      <trkpt lat="44.17647" lon="5.12903">
        <ele>315.7</ele>
        <time>2021-05-31T06:50:15.000Z</time>
      </trkpt>
      <trkpt lat="44.17621" lon="5.12914">
        <ele>316.6</ele>
        <time>2021-05-31T06:50:18.000Z</time>
      </trkpt>
      <trkpt lat="44.17596" lon="5.12925">
        <ele>317.4</ele>
        <time>2021-05-31T06:50:22.000Z</time>
      </trkpt>
      <trkpt lat="44.1757" lon="5.12936">
        <ele>318.2</ele>
        <time>2021-05-31T06:50:25.000Z</time>
      </trkpt>
      <trkpt lat="44.1757" lon="5.12923">
        <ele>318.1</ele>
        <time>2021-05-31T06:50:26.000Z</time>
      </trkpt>
      <trkpt lat="44.17572" lon="5.12905">
        <ele>318</ele>
        <time>2021-05-31T06:50:27.000Z</time>
      </trkpt>
      <trkpt lat="44.17582" lon="5.1286">
        <ele>318.2</ele>
        <time>2021-05-31T06:50:30.000Z</time>
      </trkpt>
      <trkpt lat="44.17589" lon="5.12831">
        <ele>318.7</ele>
        <time>2021-05-31T06:50:33.000Z</time>
      </trkpt>
      <trkpt lat="44.17595" lon="5.12801">
        <ele>319.3</ele>
        <time>2021-05-31T06:50:36.000Z</time>
      </trkpt>
      <trkpt lat="44.17602" lon="5.12772">
        <ele>319.9</ele>
        <time>2021-05-31T06:50:38.000Z</time>
      </trkpt>
      <trkpt lat="44.17609" lon="5.12743">
        <ele>321</ele>
        <time>2021-05-31T06:50:42.000Z</time>
      </trkpt>
      <trkpt lat="44.17615" lon="5.12713">
        <ele>322.1</ele>
        <time>2021-05-31T06:50:45.000Z</time>
      </trkpt>
      <trkpt lat="44.17622" lon="5.12684">
        <ele>323.3</ele>
        <time>2021-05-31T06:50:49.000Z</time>
      </trkpt>
      <trkpt lat="44.17631" lon="5.12654">
        <ele>325.4</ele>
        <time>2021-05-31T06:50:54.000Z</time>
      </trkpt>
      <trkpt lat="44.17641" lon="5.12632">
        <ele>326</ele>
        <time>2021-05-31T06:50:56.000Z</time>
      </trkpt>
      <trkpt lat="44.17652" lon="5.12614">
        <ele>326.4</ele>
        <time>2021-05-31T06:50:58.000Z</time>
      </trkpt>
      <trkpt lat="44.17662" lon="5.12602">
        <ele>327</ele>
        <time>2021-05-31T06:51:00.000Z</time>
      </trkpt>
      <trkpt lat="44.17673" lon="5.12595">
        <ele>328.1</ele>
        <time>2021-05-31T06:51:03.000Z</time>
      </trkpt>
      <trkpt lat="44.17691" lon="5.1259">
        <ele>329.1</ele>
        <time>2021-05-31T06:51:06.000Z</time>
      </trkpt>
      <trkpt lat="44.17709" lon="5.12584">
        <ele>330</ele>
        <time>2021-05-31T06:51:09.000Z</time>
      </trkpt>
      <trkpt lat="44.17728" lon="5.12572">
        <ele>331.6</ele>
        <time>2021-05-31T06:51:13.000Z</time>
      </trkpt>
      <trkpt lat="44.17747" lon="5.12559">
        <ele>333.3</ele>
        <time>2021-05-31T06:51:17.000Z</time>
      </trkpt>
      <trkpt lat="44.17768" lon="5.12539">
        <ele>334.6</ele>
        <time>2021-05-31T06:51:21.000Z</time>
      </trkpt>
      <trkpt lat="44.17779" lon="5.12524">
        <ele>335.2</ele>
        <time>2021-05-31T06:51:23.000Z</time>
      </trkpt>
      <trkpt lat="44.17786" lon="5.125">
        <ele>335.8</ele>
        <time>2021-05-31T06:51:25.000Z</time>
      </trkpt>
      <trkpt lat="44.17788" lon="5.12482">
        <ele>336.1</ele>
        <time>2021-05-31T06:51:27.000Z</time>
      </trkpt>
      <trkpt lat="44.17786" lon="5.12464">
        <ele>336.1</ele>
        <time>2021-05-31T06:51:28.000Z</time>
      </trkpt>
      <trkpt lat="44.17781" lon="5.12445">
        <ele>335.9</ele>
        <time>2021-05-31T06:51:29.000Z</time>
      </trkpt>
      <trkpt lat="44.17759" lon="5.12418">
        <ele>334.5</ele>
        <time>2021-05-31T06:51:32.000Z</time>
      </trkpt>
      <trkpt lat="44.17737" lon="5.12391">
        <ele>332.8</ele>
        <time>2021-05-31T06:51:34.000Z</time>
      </trkpt>
      <trkpt lat="44.17719" lon="5.12364">
        <ele>330.4</ele>
        <time>2021-05-31T06:51:36.000Z</time>
      </trkpt>
      <trkpt lat="44.17702" lon="5.12334">
        <ele>328.6</ele>
        <time>2021-05-31T06:51:38.000Z</time>
      </trkpt>
      <trkpt lat="44.17686" lon="5.12303">
        <ele>327</ele>
        <time>2021-05-31T06:51:40.000Z</time>
      </trkpt>
      <trkpt lat="44.17669" lon="5.12273">
        <ele>325.2</ele>
        <time>2021-05-31T06:51:42.000Z</time>
      </trkpt>
      <trkpt lat="44.17652" lon="5.12249">
        <ele>323</ele>
        <time>2021-05-31T06:51:43.000Z</time>
      </trkpt>
      <trkpt lat="44.17636" lon="5.12232">
        <ele>321.6</ele>
        <time>2021-05-31T06:51:45.000Z</time>
      </trkpt>
      <trkpt lat="44.17616" lon="5.1222">
        <ele>320.5</ele>
        <time>2021-05-31T06:51:46.000Z</time>
      </trkpt>
      <trkpt lat="44.17592" lon="5.12211">
        <ele>319.4</ele>
        <time>2021-05-31T06:51:48.000Z</time>
      </trkpt>
      <trkpt lat="44.17568" lon="5.12202">
        <ele>318.2</ele>
        <time>2021-05-31T06:51:50.000Z</time>
      </trkpt>
      <trkpt lat="44.17561" lon="5.12197">
        <ele>317.7</ele>
        <time>2021-05-31T06:51:51.000Z</time>
      </trkpt>
      <trkpt lat="44.17555" lon="5.1219">
        <ele>317.3</ele>
        <time>2021-05-31T06:51:51.000Z</time>
      </trkpt>
      <trkpt lat="44.17553" lon="5.12179">
        <ele>316.8</ele>
        <time>2021-05-31T06:51:52.000Z</time>
      </trkpt>
      <trkpt lat="44.17553" lon="5.12169">
        <ele>316.4</ele>
        <time>2021-05-31T06:51:52.000Z</time>
      </trkpt>
      <trkpt lat="44.17557" lon="5.12158">
        <ele>316</ele>
        <time>2021-05-31T06:51:53.000Z</time>
      </trkpt>
      <trkpt lat="44.17566" lon="5.12151">
        <ele>315.4</ele>
        <time>2021-05-31T06:51:54.000Z</time>
      </trkpt>
      <trkpt lat="44.1758" lon="5.12151">
        <ele>314.7</ele>
        <time>2021-05-31T06:51:55.000Z</time>
      </trkpt>
      <trkpt lat="44.176" lon="5.12158">
        <ele>313.6</ele>
        <time>2021-05-31T06:51:56.000Z</time>
      </trkpt>
      <trkpt lat="44.17645" lon="5.12169">
        <ele>310</ele>
        <time>2021-05-31T06:52:00.000Z</time>
      </trkpt>
      <trkpt lat="44.17664" lon="5.12169">
        <ele>308.8</ele>
        <time>2021-05-31T06:52:01.000Z</time>
      </trkpt>
      <trkpt lat="44.17677" lon="5.12166">
        <ele>307.3</ele>
        <time>2021-05-31T06:52:02.000Z</time>
      </trkpt>
      <trkpt lat="44.17692" lon="5.12155">
        <ele>305.4</ele>
        <time>2021-05-31T06:52:03.000Z</time>
      </trkpt>
      <trkpt lat="44.17702" lon="5.12145">
        <ele>304.6</ele>
        <time>2021-05-31T06:52:04.000Z</time>
      </trkpt>
      <trkpt lat="44.1772" lon="5.12116">
        <ele>303</ele>
        <time>2021-05-31T06:52:06.000Z</time>
      </trkpt>
      <trkpt lat="44.17726" lon="5.12083">
        <ele>301.8</ele>
        <time>2021-05-31T06:52:08.000Z</time>
      </trkpt>
      <trkpt lat="44.17726" lon="5.12061">
        <ele>301.5</ele>
        <time>2021-05-31T06:52:09.000Z</time>
      </trkpt>
      <trkpt lat="44.17722" lon="5.12014">
        <ele>300.7</ele>
        <time>2021-05-31T06:52:12.000Z</time>
      </trkpt>
      <trkpt lat="44.17718" lon="5.11967">
        <ele>300</ele>
        <time>2021-05-31T06:52:15.000Z</time>
      </trkpt>
      <trkpt lat="44.17716" lon="5.11935">
        <ele>300.1</ele>
        <time>2021-05-31T06:52:17.000Z</time>
      </trkpt>
      <trkpt lat="44.17713" lon="5.11904">
        <ele>300.2</ele>
        <time>2021-05-31T06:52:20.000Z</time>
      </trkpt>
      <trkpt lat="44.17711" lon="5.11872">
        <ele>300.3</ele>
        <time>2021-05-31T06:52:22.000Z</time>
      </trkpt>
      <trkpt lat="44.17708" lon="5.11841">
        <ele>300.7</ele>
        <time>2021-05-31T06:52:25.000Z</time>
      </trkpt>
      <trkpt lat="44.17705" lon="5.1181">
        <ele>301.1</ele>
        <time>2021-05-31T06:52:27.000Z</time>
      </trkpt>
      <trkpt lat="44.17703" lon="5.11778">
        <ele>301.6</ele>
        <time>2021-05-31T06:52:30.000Z</time>
      </trkpt>
      <trkpt lat="44.177" lon="5.11747">
        <ele>302.3</ele>
        <time>2021-05-31T06:52:33.000Z</time>
      </trkpt>
      <trkpt lat="44.17698" lon="5.11715">
        <ele>303.1</ele>
        <time>2021-05-31T06:52:36.000Z</time>
      </trkpt>
      <trkpt lat="44.17695" lon="5.11684">
        <ele>303.8</ele>
        <time>2021-05-31T06:52:39.000Z</time>
      </trkpt>
      <trkpt lat="44.17676" lon="5.11683">
        <ele>304.7</ele>
        <time>2021-05-31T06:52:41.000Z</time>
      </trkpt>
      <trkpt lat="44.17663" lon="5.11685">
        <ele>305.3</ele>
        <time>2021-05-31T06:52:43.000Z</time>
      </trkpt>
      <trkpt lat="44.17636" lon="5.11699">
        <ele>306</ele>
        <time>2021-05-31T06:52:47.000Z</time>
      </trkpt>
      <trkpt lat="44.17616" lon="5.11714">
        <ele>306.6</ele>
        <time>2021-05-31T06:52:49.000Z</time>
      </trkpt>
      <trkpt lat="44.17596" lon="5.11728">
        <ele>307.1</ele>
        <time>2021-05-31T06:52:52.000Z</time>
      </trkpt>
      <trkpt lat="44.17576" lon="5.11743">
        <ele>307.6</ele>
        <time>2021-05-31T06:52:55.000Z</time>
      </trkpt>
      <trkpt lat="44.17556" lon="5.11757">
        <ele>308</ele>
        <time>2021-05-31T06:52:57.000Z</time>
      </trkpt>
      <trkpt lat="44.17536" lon="5.11772">
        <ele>308.4</ele>
        <time>2021-05-31T06:53:00.000Z</time>
      </trkpt>
      <trkpt lat="44.17516" lon="5.11786">
        <ele>308.8</ele>
        <time>2021-05-31T06:53:02.000Z</time>
      </trkpt>
      <trkpt lat="44.17508" lon="5.11792">
        <ele>309</ele>
        <time>2021-05-31T06:53:04.000Z</time>
      </trkpt>
      <trkpt lat="44.17484" lon="5.11803">
        <ele>309.8</ele>
        <time>2021-05-31T06:53:07.000Z</time>
      </trkpt>
      <trkpt lat="44.17461" lon="5.11814">
        <ele>310.6</ele>
        <time>2021-05-31T06:53:10.000Z</time>
      </trkpt>
      <trkpt lat="44.17437" lon="5.11825">
        <ele>311.4</ele>
        <time>2021-05-31T06:53:13.000Z</time>
      </trkpt>
      <trkpt lat="44.17412" lon="5.11835">
        <ele>312.4</ele>
        <time>2021-05-31T06:53:17.000Z</time>
      </trkpt>
      <trkpt lat="44.17387" lon="5.11845">
        <ele>313.4</ele>
        <time>2021-05-31T06:53:20.000Z</time>
      </trkpt>
      <trkpt lat="44.17364" lon="5.11851">
        <ele>314</ele>
        <time>2021-05-31T06:53:23.000Z</time>
      </trkpt>
      <trkpt lat="44.1734" lon="5.11855">
        <ele>314.8</ele>
        <time>2021-05-31T06:53:26.000Z</time>
      </trkpt>
      <trkpt lat="44.17316" lon="5.11859">
        <ele>315.8</ele>
        <time>2021-05-31T06:53:29.000Z</time>
      </trkpt>
      <trkpt lat="44.17293" lon="5.11863">
        <ele>317.2</ele>
        <time>2021-05-31T06:53:33.000Z</time>
      </trkpt>
      <trkpt lat="44.17269" lon="5.11867">
        <ele>318.6</ele>
        <time>2021-05-31T06:53:37.000Z</time>
      </trkpt>
      <trkpt lat="44.17258" lon="5.11867">
        <ele>319.2</ele>
        <time>2021-05-31T06:53:39.000Z</time>
      </trkpt>
      <trkpt lat="44.17231" lon="5.11862">
        <ele>319.9</ele>
        <time>2021-05-31T06:53:42.000Z</time>
      </trkpt>
      <trkpt lat="44.17204" lon="5.11858">
        <ele>320.6</ele>
        <time>2021-05-31T06:53:46.000Z</time>
      </trkpt>
      <trkpt lat="44.17177" lon="5.11853">
        <ele>321.3</ele>
        <time>2021-05-31T06:53:49.000Z</time>
      </trkpt>
      <trkpt lat="44.1716" lon="5.11853">
        <ele>321.8</ele>
        <time>2021-05-31T06:53:51.000Z</time>
      </trkpt>
      <trkpt lat="44.17133" lon="5.11855">
        <ele>322.7</ele>
        <time>2021-05-31T06:53:54.000Z</time>
      </trkpt>
      <trkpt lat="44.17106" lon="5.11858">
        <ele>323.6</ele>
        <time>2021-05-31T06:53:58.000Z</time>
      </trkpt>
      <trkpt lat="44.1708" lon="5.1186">
        <ele>324.6</ele>
        <time>2021-05-31T06:54:01.000Z</time>
      </trkpt>
      <trkpt lat="44.17053" lon="5.11862">
        <ele>325.7</ele>
        <time>2021-05-31T06:54:05.000Z</time>
      </trkpt>
      <trkpt lat="44.17033" lon="5.11866">
        <ele>327</ele>
        <time>2021-05-31T06:54:09.000Z</time>
      </trkpt>
      <trkpt lat="44.17013" lon="5.11871">
        <ele>328.3</ele>
        <time>2021-05-31T06:54:12.000Z</time>
      </trkpt>
      <trkpt lat="44.16993" lon="5.11875">
        <ele>329.6</ele>
        <time>2021-05-31T06:54:16.000Z</time>
      </trkpt>
      <trkpt lat="44.16972" lon="5.11882">
        <ele>330.6</ele>
        <time>2021-05-31T06:54:19.000Z</time>
      </trkpt>
      <trkpt lat="44.1695" lon="5.11888">
        <ele>331.5</ele>
        <time>2021-05-31T06:54:22.000Z</time>
      </trkpt>
      <trkpt lat="44.16932" lon="5.11896">
        <ele>332.7</ele>
        <time>2021-05-31T06:54:25.000Z</time>
      </trkpt>
      <trkpt lat="44.16914" lon="5.11904">
        <ele>333.9</ele>
        <time>2021-05-31T06:54:29.000Z</time>
      </trkpt>
      <trkpt lat="44.16887" lon="5.11919">
        <ele>334.5</ele>
        <time>2021-05-31T06:54:32.000Z</time>
      </trkpt>
      <trkpt lat="44.1686" lon="5.11934">
        <ele>335</ele>
        <time>2021-05-31T06:54:35.000Z</time>
      </trkpt>
      <trkpt lat="44.16832" lon="5.11949">
        <ele>335.9</ele>
        <time>2021-05-31T06:54:39.000Z</time>
      </trkpt>
      <trkpt lat="44.16805" lon="5.11964">
        <ele>336.8</ele>
        <time>2021-05-31T06:54:43.000Z</time>
      </trkpt>
      <trkpt lat="44.16783" lon="5.11967">
        <ele>337.6</ele>
        <time>2021-05-31T06:54:46.000Z</time>
      </trkpt>
      <trkpt lat="44.16762" lon="5.11971">
        <ele>338.5</ele>
        <time>2021-05-31T06:54:49.000Z</time>
      </trkpt>
      <trkpt lat="44.1674" lon="5.11974">
        <ele>339.4</ele>
        <time>2021-05-31T06:54:52.000Z</time>
      </trkpt>
      <trkpt lat="44.16718" lon="5.11977">
        <ele>340.3</ele>
        <time>2021-05-31T06:54:55.000Z</time>
      </trkpt>
      <trkpt lat="44.16689" lon="5.11981">
        <ele>341.5</ele>
        <time>2021-05-31T06:54:59.000Z</time>
      </trkpt>
      <trkpt lat="44.1666" lon="5.11985">
        <ele>342.8</ele>
        <time>2021-05-31T06:55:03.000Z</time>
      </trkpt>
      <trkpt lat="44.16631" lon="5.11988">
        <ele>344</ele>
        <time>2021-05-31T06:55:07.000Z</time>
      </trkpt>
      <trkpt lat="44.16602" lon="5.11992">
        <ele>345.2</ele>
        <time>2021-05-31T06:55:11.000Z</time>
      </trkpt>
      <trkpt lat="44.16586" lon="5.11998">
        <ele>346.3</ele>
        <time>2021-05-31T06:55:14.000Z</time>
      </trkpt>
      <trkpt lat="44.1657" lon="5.12003">
        <ele>347.4</ele>
        <time>2021-05-31T06:55:17.000Z</time>
      </trkpt>
      <trkpt lat="44.1655" lon="5.12007">
        <ele>348.6</ele>
        <time>2021-05-31T06:55:20.000Z</time>
      </trkpt>
      <trkpt lat="44.1653" lon="5.12012">
        <ele>349.7</ele>
        <time>2021-05-31T06:55:24.000Z</time>
      </trkpt>
      <trkpt lat="44.16511" lon="5.12016">
        <ele>350.9</ele>
        <time>2021-05-31T06:55:27.000Z</time>
      </trkpt>
      <trkpt lat="44.16491" lon="5.1202">
        <ele>352.3</ele>
        <time>2021-05-31T06:55:31.000Z</time>
      </trkpt>
      <trkpt lat="44.16471" lon="5.12025">
        <ele>353.8</ele>
        <time>2021-05-31T06:55:35.000Z</time>
      </trkpt>
      <trkpt lat="44.16451" lon="5.12029">
        <ele>355.4</ele>
        <time>2021-05-31T06:55:39.000Z</time>
      </trkpt>
      <trkpt lat="44.16439" lon="5.12034">
        <ele>356.5</ele>
        <time>2021-05-31T06:55:41.000Z</time>
      </trkpt>
      <trkpt lat="44.16423" lon="5.12044">
        <ele>358.2</ele>
        <time>2021-05-31T06:55:45.000Z</time>
      </trkpt>
      <trkpt lat="44.16406" lon="5.12055">
        <ele>359.8</ele>
        <time>2021-05-31T06:55:49.000Z</time>
      </trkpt>
      <trkpt lat="44.1639" lon="5.12065">
        <ele>361.4</ele>
        <time>2021-05-31T06:55:53.000Z</time>
      </trkpt>
      <trkpt lat="44.1637" lon="5.1208">
        <ele>363.2</ele>
        <time>2021-05-31T06:55:58.000Z</time>
      </trkpt>
      <trkpt lat="44.1635" lon="5.12094">
        <ele>364.9</ele>
        <time>2021-05-31T06:56:02.000Z</time>
      </trkpt>
      <trkpt lat="44.1633" lon="5.12109">
        <ele>366.6</ele>
        <time>2021-05-31T06:56:06.000Z</time>
      </trkpt>
      <trkpt lat="44.16303" lon="5.12131">
        <ele>368.4</ele>
        <time>2021-05-31T06:56:12.000Z</time>
      </trkpt>
      <trkpt lat="44.16291" lon="5.12145">
        <ele>369.5</ele>
        <time>2021-05-31T06:56:15.000Z</time>
      </trkpt>
      <trkpt lat="44.16278" lon="5.12158">
        <ele>370.6</ele>
        <time>2021-05-31T06:56:18.000Z</time>
      </trkpt>
      <trkpt lat="44.16265" lon="5.12176">
        <ele>371.9</ele>
        <time>2021-05-31T06:56:21.000Z</time>
      </trkpt>
      <trkpt lat="44.16253" lon="5.12194">
        <ele>373.1</ele>
        <time>2021-05-31T06:56:24.000Z</time>
      </trkpt>
      <trkpt lat="44.1624" lon="5.12212">
        <ele>374.3</ele>
        <time>2021-05-31T06:56:27.000Z</time>
      </trkpt>
      <trkpt lat="44.16227" lon="5.12229">
        <ele>375.7</ele>
        <time>2021-05-31T06:56:31.000Z</time>
      </trkpt>
      <trkpt lat="44.16215" lon="5.12247">
        <ele>377</ele>
        <time>2021-05-31T06:56:34.000Z</time>
      </trkpt>
      <trkpt lat="44.16202" lon="5.12265">
        <ele>378.4</ele>
        <time>2021-05-31T06:56:38.000Z</time>
      </trkpt>
      <trkpt lat="44.16191" lon="5.12289">
        <ele>380.1</ele>
        <time>2021-05-31T06:56:42.000Z</time>
      </trkpt>
      <trkpt lat="44.1618" lon="5.12312">
        <ele>381.8</ele>
        <time>2021-05-31T06:56:46.000Z</time>
      </trkpt>
      <trkpt lat="44.16167" lon="5.12331">
        <ele>383.9</ele>
        <time>2021-05-31T06:56:51.000Z</time>
      </trkpt>
      <trkpt lat="44.16153" lon="5.12349">
        <ele>386</ele>
        <time>2021-05-31T06:56:56.000Z</time>
      </trkpt>
      <trkpt lat="44.1614" lon="5.12368">
        <ele>388.1</ele>
        <time>2021-05-31T06:57:00.000Z</time>
      </trkpt>
      <trkpt lat="44.16125" lon="5.12385">
        <ele>389.7</ele>
        <time>2021-05-31T06:57:04.000Z</time>
      </trkpt>
      <trkpt lat="44.16111" lon="5.12403">
        <ele>391.3</ele>
        <time>2021-05-31T06:57:08.000Z</time>
      </trkpt>
      <trkpt lat="44.16096" lon="5.1242">
        <ele>392.8</ele>
        <time>2021-05-31T06:57:12.000Z</time>
      </trkpt>
      <trkpt lat="44.16073" lon="5.12443">
        <ele>395.2</ele>
        <time>2021-05-31T06:57:18.000Z</time>
      </trkpt>
      <trkpt lat="44.16056" lon="5.12455">
        <ele>396.7</ele>
        <time>2021-05-31T06:57:22.000Z</time>
      </trkpt>
      <trkpt lat="44.16038" lon="5.12466">
        <ele>398.3</ele>
        <time>2021-05-31T06:57:26.000Z</time>
      </trkpt>
      <trkpt lat="44.16021" lon="5.12478">
        <ele>399.8</ele>
        <time>2021-05-31T06:57:29.000Z</time>
      </trkpt>
      <trkpt lat="44.16014" lon="5.12487">
        <ele>400.3</ele>
        <time>2021-05-31T06:57:31.000Z</time>
      </trkpt>
      <trkpt lat="44.15999" lon="5.12524">
        <ele>401.1</ele>
        <time>2021-05-31T06:57:35.000Z</time>
      </trkpt>
      <trkpt lat="44.15984" lon="5.1256">
        <ele>401.8</ele>
        <time>2021-05-31T06:57:38.000Z</time>
      </trkpt>
      <trkpt lat="44.15981" lon="5.12573">
        <ele>401.8</ele>
        <time>2021-05-31T06:57:39.000Z</time>
      </trkpt>
      <trkpt lat="44.15974" lon="5.12571">
        <ele>401.7</ele>
        <time>2021-05-31T06:57:40.000Z</time>
      </trkpt>
      <trkpt lat="44.15956" lon="5.12572">
        <ele>401.3</ele>
        <time>2021-05-31T06:57:41.000Z</time>
      </trkpt>
      <trkpt lat="44.1594" lon="5.1258">
        <ele>400.8</ele>
        <time>2021-05-31T06:57:43.000Z</time>
      </trkpt>
      <trkpt lat="44.15929" lon="5.12588">
        <ele>400.1</ele>
        <time>2021-05-31T06:57:44.000Z</time>
      </trkpt>
      <trkpt lat="44.15907" lon="5.12616">
        <ele>399</ele>
        <time>2021-05-31T06:57:46.000Z</time>
      </trkpt>
      <trkpt lat="44.15885" lon="5.12644">
        <ele>397.9</ele>
        <time>2021-05-31T06:57:48.000Z</time>
      </trkpt>
      <trkpt lat="44.15864" lon="5.12673">
        <ele>396.9</ele>
        <time>2021-05-31T06:57:51.000Z</time>
      </trkpt>
      <trkpt lat="44.15842" lon="5.12701">
        <ele>395.4</ele>
        <time>2021-05-31T06:57:53.000Z</time>
      </trkpt>
      <trkpt lat="44.1582" lon="5.12729">
        <ele>394</ele>
        <time>2021-05-31T06:57:55.000Z</time>
      </trkpt>
      <trkpt lat="44.15798" lon="5.12757">
        <ele>392.5</ele>
        <time>2021-05-31T06:57:58.000Z</time>
      </trkpt>
      <trkpt lat="44.15777" lon="5.12784">
        <ele>390.6</ele>
        <time>2021-05-31T06:58:00.000Z</time>
      </trkpt>
      <trkpt lat="44.15756" lon="5.1281">
        <ele>388.8</ele>
        <time>2021-05-31T06:58:02.000Z</time>
      </trkpt>
      <trkpt lat="44.15741" lon="5.12826">
        <ele>388</ele>
        <time>2021-05-31T06:58:03.000Z</time>
      </trkpt>
      <trkpt lat="44.15711" lon="5.12846">
        <ele>387.2</ele>
        <time>2021-05-31T06:58:06.000Z</time>
      </trkpt>
      <trkpt lat="44.15685" lon="5.12861">
        <ele>386.4</ele>
        <time>2021-05-31T06:58:08.000Z</time>
      </trkpt>
      <trkpt lat="44.15659" lon="5.12876">
        <ele>385.6</ele>
        <time>2021-05-31T06:58:11.000Z</time>
      </trkpt>
      <trkpt lat="44.15633" lon="5.12891">
        <ele>384.8</ele>
        <time>2021-05-31T06:58:13.000Z</time>
      </trkpt>
      <trkpt lat="44.15606" lon="5.12905">
        <ele>383.6</ele>
        <time>2021-05-31T06:58:15.000Z</time>
      </trkpt>
      <trkpt lat="44.1558" lon="5.1292">
        <ele>382.4</ele>
        <time>2021-05-31T06:58:18.000Z</time>
      </trkpt>
      <trkpt lat="44.15554" lon="5.12935">
        <ele>381.3</ele>
        <time>2021-05-31T06:58:20.000Z</time>
      </trkpt>
      <trkpt lat="44.15527" lon="5.12949">
        <ele>380.7</ele>
        <time>2021-05-31T06:58:22.000Z</time>
      </trkpt>
      <trkpt lat="44.15499" lon="5.12962">
        <ele>380.1</ele>
        <time>2021-05-31T06:58:25.000Z</time>
      </trkpt>
      <trkpt lat="44.15488" lon="5.12963">
        <ele>379.5</ele>
        <time>2021-05-31T06:58:26.000Z</time>
      </trkpt>
      <trkpt lat="44.15478" lon="5.12959">
        <ele>379.3</ele>
        <time>2021-05-31T06:58:27.000Z</time>
      </trkpt>
      <trkpt lat="44.15472" lon="5.12953">
        <ele>379.3</ele>
        <time>2021-05-31T06:58:27.000Z</time>
      </trkpt>
      <trkpt lat="44.1546" lon="5.12974">
        <ele>380</ele>
        <time>2021-05-31T06:58:30.000Z</time>
      </trkpt>
      <trkpt lat="44.15451" lon="5.12984">
        <ele>380.6</ele>
        <time>2021-05-31T06:58:32.000Z</time>
      </trkpt>
      <trkpt lat="44.15414" lon="5.12986">
        <ele>381.4</ele>
        <time>2021-05-31T06:58:36.000Z</time>
      </trkpt>
      <trkpt lat="44.15396" lon="5.12985">
        <ele>381.5</ele>
        <time>2021-05-31T06:58:38.000Z</time>
      </trkpt>
      <trkpt lat="44.15382" lon="5.12988">
        <ele>381.5</ele>
        <time>2021-05-31T06:58:39.000Z</time>
      </trkpt>
      <trkpt lat="44.15368" lon="5.12995">
        <ele>381.4</ele>
        <time>2021-05-31T06:58:41.000Z</time>
      </trkpt>
      <trkpt lat="44.15346" lon="5.13011">
        <ele>380.7</ele>
        <time>2021-05-31T06:58:43.000Z</time>
      </trkpt>
      <trkpt lat="44.15323" lon="5.13037">
        <ele>380.2</ele>
        <time>2021-05-31T06:58:45.000Z</time>
      </trkpt>
      <trkpt lat="44.153" lon="5.13063">
        <ele>379.7</ele>
        <time>2021-05-31T06:58:48.000Z</time>
      </trkpt>
      <trkpt lat="44.15276" lon="5.13088">
        <ele>379.4</ele>
        <time>2021-05-31T06:58:51.000Z</time>
      </trkpt>
      <trkpt lat="44.15253" lon="5.13114">
        <ele>379</ele>
        <time>2021-05-31T06:58:54.000Z</time>
      </trkpt>
      <trkpt lat="44.1523" lon="5.13138">
        <ele>378.4</ele>
        <time>2021-05-31T06:58:56.000Z</time>
      </trkpt>
      <trkpt lat="44.15208" lon="5.13163">
        <ele>377.7</ele>
        <time>2021-05-31T06:58:59.000Z</time>
      </trkpt>
      <trkpt lat="44.15185" lon="5.13187">
        <ele>377.1</ele>
        <time>2021-05-31T06:59:01.000Z</time>
      </trkpt>
      <trkpt lat="44.15165" lon="5.13218">
        <ele>377.1</ele>
        <time>2021-05-31T06:59:04.000Z</time>
      </trkpt>
      <trkpt lat="44.15144" lon="5.1325">
        <ele>377.3</ele>
        <time>2021-05-31T06:59:07.000Z</time>
      </trkpt>
      <trkpt lat="44.15131" lon="5.13271">
        <ele>378.2</ele>
        <time>2021-05-31T06:59:10.000Z</time>
      </trkpt>
      <trkpt lat="44.15117" lon="5.13291">
        <ele>379.3</ele>
        <time>2021-05-31T06:59:13.000Z</time>
      </trkpt>
      <trkpt lat="44.15104" lon="5.13312">
        <ele>380.3</ele>
        <time>2021-05-31T06:59:17.000Z</time>
      </trkpt>
      <trkpt lat="44.1509" lon="5.13333">
        <ele>381.4</ele>
        <time>2021-05-31T06:59:20.000Z</time>
      </trkpt>
      <trkpt lat="44.15077" lon="5.13354">
        <ele>382.4</ele>
        <time>2021-05-31T06:59:23.000Z</time>
      </trkpt>
      <trkpt lat="44.15063" lon="5.13375">
        <ele>383.4</ele>
        <time>2021-05-31T06:59:26.000Z</time>
      </trkpt>
      <trkpt lat="44.15057" lon="5.13384">
        <ele>383.7</ele>
        <time>2021-05-31T06:59:27.000Z</time>
      </trkpt>
      <trkpt lat="44.15043" lon="5.13399">
        <ele>384.3</ele>
        <time>2021-05-31T06:59:29.000Z</time>
      </trkpt>
      <trkpt lat="44.15025" lon="5.13404">
        <ele>385.8</ele>
        <time>2021-05-31T06:59:33.000Z</time>
      </trkpt>
      <trkpt lat="44.15008" lon="5.13404">
        <ele>387.3</ele>
        <time>2021-05-31T06:59:37.000Z</time>
      </trkpt>
      <trkpt lat="44.15003" lon="5.13401">
        <ele>387.6</ele>
        <time>2021-05-31T06:59:38.000Z</time>
      </trkpt>
      <trkpt lat="44.14999" lon="5.13395">
        <ele>388.1</ele>
        <time>2021-05-31T06:59:39.000Z</time>
      </trkpt>
      <trkpt lat="44.14996" lon="5.13369">
        <ele>389.4</ele>
        <time>2021-05-31T06:59:42.000Z</time>
      </trkpt>
      <trkpt lat="44.14998" lon="5.13342">
        <ele>390.7</ele>
        <time>2021-05-31T06:59:46.000Z</time>
      </trkpt>
      <trkpt lat="44.15" lon="5.13314">
        <ele>392</ele>
        <time>2021-05-31T06:59:49.000Z</time>
      </trkpt>
      <trkpt lat="44.14998" lon="5.13284">
        <ele>393</ele>
        <time>2021-05-31T06:59:53.000Z</time>
      </trkpt>
      <trkpt lat="44.14997" lon="5.13254">
        <ele>393.9</ele>
        <time>2021-05-31T06:59:56.000Z</time>
      </trkpt>
      <trkpt lat="44.14995" lon="5.13224">
        <ele>394.9</ele>
        <time>2021-05-31T06:59:59.000Z</time>
      </trkpt>
      <trkpt lat="44.14993" lon="5.13195">
        <ele>396.2</ele>
        <time>2021-05-31T07:00:02.000Z</time>
      </trkpt>
      <trkpt lat="44.14992" lon="5.13165">
        <ele>397.5</ele>
        <time>2021-05-31T07:00:06.000Z</time>
      </trkpt>
      <trkpt lat="44.1499" lon="5.13135">
        <ele>398.8</ele>
        <time>2021-05-31T07:00:10.000Z</time>
      </trkpt>
      <trkpt lat="44.14986" lon="5.13114">
        <ele>399.7</ele>
        <time>2021-05-31T07:00:12.000Z</time>
      </trkpt>
      <trkpt lat="44.14979" lon="5.13098">
        <ele>401.5</ele>
        <time>2021-05-31T07:00:16.000Z</time>
      </trkpt>
      <trkpt lat="44.14964" lon="5.13072">
        <ele>402.7</ele>
        <time>2021-05-31T07:00:20.000Z</time>
      </trkpt>
      <trkpt lat="44.14948" lon="5.13045">
        <ele>403.5</ele>
        <time>2021-05-31T07:00:23.000Z</time>
      </trkpt>
      <trkpt lat="44.14933" lon="5.13019">
        <ele>404.5</ele>
        <time>2021-05-31T07:00:26.000Z</time>
      </trkpt>
      <trkpt lat="44.14919" lon="5.12999">
        <ele>405.9</ele>
        <time>2021-05-31T07:00:30.000Z</time>
      </trkpt>
      <trkpt lat="44.14898" lon="5.12978">
        <ele>407.2</ele>
        <time>2021-05-31T07:00:34.000Z</time>
      </trkpt>
      <trkpt lat="44.14883" lon="5.12966">
        <ele>408.6</ele>
        <time>2021-05-31T07:00:37.000Z</time>
      </trkpt>
      <trkpt lat="44.14867" lon="5.12953">
        <ele>410</ele>
        <time>2021-05-31T07:00:41.000Z</time>
      </trkpt>
      <trkpt lat="44.14852" lon="5.12941">
        <ele>411.4</ele>
        <time>2021-05-31T07:00:45.000Z</time>
      </trkpt>
      <trkpt lat="44.14832" lon="5.12931">
        <ele>412.4</ele>
        <time>2021-05-31T07:00:48.000Z</time>
      </trkpt>
      <trkpt lat="44.14814" lon="5.12924">
        <ele>413.4</ele>
        <time>2021-05-31T07:00:51.000Z</time>
      </trkpt>
      <trkpt lat="44.14795" lon="5.12918">
        <ele>414.5</ele>
        <time>2021-05-31T07:00:54.000Z</time>
      </trkpt>
      <trkpt lat="44.14777" lon="5.12914">
        <ele>416.2</ele>
        <time>2021-05-31T07:00:58.000Z</time>
      </trkpt>
      <trkpt lat="44.1476" lon="5.12914">
        <ele>417</ele>
        <time>2021-05-31T07:01:00.000Z</time>
      </trkpt>
      <trkpt lat="44.14745" lon="5.12918">
        <ele>417.7</ele>
        <time>2021-05-31T07:01:03.000Z</time>
      </trkpt>
      <trkpt lat="44.14732" lon="5.12926">
        <ele>418.2</ele>
        <time>2021-05-31T07:01:05.000Z</time>
      </trkpt>
      <trkpt lat="44.14717" lon="5.12941">
        <ele>418.7</ele>
        <time>2021-05-31T07:01:07.000Z</time>
      </trkpt>
      <trkpt lat="44.14703" lon="5.12963">
        <ele>419.2</ele>
        <time>2021-05-31T07:01:09.000Z</time>
      </trkpt>
      <trkpt lat="44.14691" lon="5.12994">
        <ele>420.3</ele>
        <time>2021-05-31T07:01:13.000Z</time>
      </trkpt>
      <trkpt lat="44.1468" lon="5.13026">
        <ele>421.4</ele>
        <time>2021-05-31T07:01:17.000Z</time>
      </trkpt>
      <trkpt lat="44.14668" lon="5.13057">
        <ele>422.5</ele>
        <time>2021-05-31T07:01:20.000Z</time>
      </trkpt>
      <trkpt lat="44.14653" lon="5.13087">
        <ele>423</ele>
        <time>2021-05-31T07:01:23.000Z</time>
      </trkpt>
      <trkpt lat="44.14635" lon="5.13114">
        <ele>423.4</ele>
        <time>2021-05-31T07:01:26.000Z</time>
      </trkpt>
      <trkpt lat="44.14617" lon="5.13142">
        <ele>423.9</ele>
        <time>2021-05-31T07:01:29.000Z</time>
      </trkpt>
      <trkpt lat="44.14599" lon="5.13169">
        <ele>424.4</ele>
        <time>2021-05-31T07:01:32.000Z</time>
      </trkpt>
      <trkpt lat="44.14591" lon="5.13189">
        <ele>425</ele>
        <time>2021-05-31T07:01:34.000Z</time>
      </trkpt>
      <trkpt lat="44.14584" lon="5.13216">
        <ele>425.4</ele>
        <time>2021-05-31T07:01:37.000Z</time>
      </trkpt>
      <trkpt lat="44.14581" lon="5.13245">
        <ele>426.2</ele>
        <time>2021-05-31T07:01:40.000Z</time>
      </trkpt>
      <trkpt lat="44.14577" lon="5.13273">
        <ele>427.2</ele>
        <time>2021-05-31T07:01:43.000Z</time>
      </trkpt>
      <trkpt lat="44.14578" lon="5.13309">
        <ele>428.3</ele>
        <time>2021-05-31T07:01:46.000Z</time>
      </trkpt>
      <trkpt lat="44.14578" lon="5.13345">
        <ele>429.5</ele>
        <time>2021-05-31T07:01:50.000Z</time>
      </trkpt>
      <trkpt lat="44.14571" lon="5.13361">
        <ele>430.2</ele>
        <time>2021-05-31T07:01:52.000Z</time>
      </trkpt>
      <trkpt lat="44.14565" lon="5.13364">
        <ele>430.8</ele>
        <time>2021-05-31T07:01:54.000Z</time>
      </trkpt>
      <trkpt lat="44.14558" lon="5.13364">
        <ele>431.4</ele>
        <time>2021-05-31T07:01:55.000Z</time>
      </trkpt>
      <trkpt lat="44.1453" lon="5.13355">
        <ele>432</ele>
        <time>2021-05-31T07:01:59.000Z</time>
      </trkpt>
      <trkpt lat="44.14501" lon="5.13347">
        <ele>432.6</ele>
        <time>2021-05-31T07:02:02.000Z</time>
      </trkpt>
      <trkpt lat="44.14484" lon="5.13347">
        <ele>434</ele>
        <time>2021-05-31T07:02:05.000Z</time>
      </trkpt>
      <trkpt lat="44.14457" lon="5.13351">
        <ele>434.7</ele>
        <time>2021-05-31T07:02:09.000Z</time>
      </trkpt>
      <trkpt lat="44.14429" lon="5.13355">
        <ele>435.2</ele>
        <time>2021-05-31T07:02:12.000Z</time>
      </trkpt>
      <trkpt lat="44.14406" lon="5.1335">
        <ele>435.8</ele>
        <time>2021-05-31T07:02:15.000Z</time>
      </trkpt>
      <trkpt lat="44.14391" lon="5.13339">
        <ele>436.8</ele>
        <time>2021-05-31T07:02:17.000Z</time>
      </trkpt>
      <trkpt lat="44.14375" lon="5.13329">
        <ele>437.7</ele>
        <time>2021-05-31T07:02:20.000Z</time>
      </trkpt>
      <trkpt lat="44.14358" lon="5.13299">
        <ele>438.4</ele>
        <time>2021-05-31T07:02:23.000Z</time>
      </trkpt>
      <trkpt lat="44.14345" lon="5.13266">
        <ele>440.4</ele>
        <time>2021-05-31T07:02:29.000Z</time>
      </trkpt>
      <trkpt lat="44.14335" lon="5.13248">
        <ele>441.5</ele>
        <time>2021-05-31T07:02:32.000Z</time>
      </trkpt>
      <trkpt lat="44.14325" lon="5.13239">
        <ele>442</ele>
        <time>2021-05-31T07:02:33.000Z</time>
      </trkpt>
      <trkpt lat="44.14297" lon="5.13229">
        <ele>443.2</ele>
        <time>2021-05-31T07:02:37.000Z</time>
      </trkpt>
      <trkpt lat="44.14285" lon="5.13218">
        <ele>444.4</ele>
        <time>2021-05-31T07:02:40.000Z</time>
      </trkpt>
      <trkpt lat="44.14269" lon="5.1319">
        <ele>445.6</ele>
        <time>2021-05-31T07:02:44.000Z</time>
      </trkpt>
      <trkpt lat="44.14253" lon="5.13161">
        <ele>446.7</ele>
        <time>2021-05-31T07:02:48.000Z</time>
      </trkpt>
      <trkpt lat="44.14237" lon="5.13133">
        <ele>447.8</ele>
        <time>2021-05-31T07:02:51.000Z</time>
      </trkpt>
      <trkpt lat="44.14218" lon="5.13108">
        <ele>449.2</ele>
        <time>2021-05-31T07:02:56.000Z</time>
      </trkpt>
      <trkpt lat="44.14198" lon="5.13091">
        <ele>450.7</ele>
        <time>2021-05-31T07:03:00.000Z</time>
      </trkpt>
      <trkpt lat="44.1417" lon="5.1306">
        <ele>451.8</ele>
        <time>2021-05-31T07:03:04.000Z</time>
      </trkpt>
      <trkpt lat="44.14151" lon="5.13029">
        <ele>453.4</ele>
        <time>2021-05-31T07:03:09.000Z</time>
      </trkpt>
      <trkpt lat="44.14139" lon="5.13">
        <ele>454.4</ele>
        <time>2021-05-31T07:03:12.000Z</time>
      </trkpt>
      <trkpt lat="44.14139" lon="5.12959">
        <ele>455.9</ele>
        <time>2021-05-31T07:03:17.000Z</time>
      </trkpt>
      <trkpt lat="44.14133" lon="5.12947">
        <ele>456.1</ele>
        <time>2021-05-31T07:03:18.000Z</time>
      </trkpt>
      <trkpt lat="44.14129" lon="5.12943">
        <ele>456.1</ele>
        <time>2021-05-31T07:03:19.000Z</time>
      </trkpt>
      <trkpt lat="44.14122" lon="5.12941">
        <ele>456.1</ele>
        <time>2021-05-31T07:03:19.000Z</time>
      </trkpt>
      <trkpt lat="44.14114" lon="5.12945">
        <ele>456</ele>
        <time>2021-05-31T07:03:20.000Z</time>
      </trkpt>
      <trkpt lat="44.14103" lon="5.12961">
        <ele>455.6</ele>
        <time>2021-05-31T07:03:22.000Z</time>
      </trkpt>
      <trkpt lat="44.14099" lon="5.12971">
        <ele>455.1</ele>
        <time>2021-05-31T07:03:22.000Z</time>
      </trkpt>
      <trkpt lat="44.14099" lon="5.1299">
        <ele>454.4</ele>
        <time>2021-05-31T07:03:23.000Z</time>
      </trkpt>
      <trkpt lat="44.14107" lon="5.13028">
        <ele>453.9</ele>
        <time>2021-05-31T07:03:26.000Z</time>
      </trkpt>
      <trkpt lat="44.14109" lon="5.13049">
        <ele>453.5</ele>
        <time>2021-05-31T07:03:27.000Z</time>
      </trkpt>
      <trkpt lat="44.14108" lon="5.13074">
        <ele>452.7</ele>
        <time>2021-05-31T07:03:28.000Z</time>
      </trkpt>
      <trkpt lat="44.14102" lon="5.13116">
        <ele>451.5</ele>
        <time>2021-05-31T07:03:31.000Z</time>
      </trkpt>
      <trkpt lat="44.14096" lon="5.13157">
        <ele>450.3</ele>
        <time>2021-05-31T07:03:33.000Z</time>
      </trkpt>
      <trkpt lat="44.14086" lon="5.13191">
        <ele>449.3</ele>
        <time>2021-05-31T07:03:35.000Z</time>
      </trkpt>
      <trkpt lat="44.14075" lon="5.13216">
        <ele>448.4</ele>
        <time>2021-05-31T07:03:37.000Z</time>
      </trkpt>
      <trkpt lat="44.14058" lon="5.13245">
        <ele>447.6</ele>
        <time>2021-05-31T07:03:39.000Z</time>
      </trkpt>
      <trkpt lat="44.14055" lon="5.13263">
        <ele>446.9</ele>
        <time>2021-05-31T07:03:40.000Z</time>
      </trkpt>
      <trkpt lat="44.14057" lon="5.13272">
        <ele>446.2</ele>
        <time>2021-05-31T07:03:41.000Z</time>
      </trkpt>
      <trkpt lat="44.14073" lon="5.13298">
        <ele>445.4</ele>
        <time>2021-05-31T07:03:43.000Z</time>
      </trkpt>
      <trkpt lat="44.14089" lon="5.13325">
        <ele>444.6</ele>
        <time>2021-05-31T07:03:45.000Z</time>
      </trkpt>
      <trkpt lat="44.14096" lon="5.13342">
        <ele>443.3</ele>
        <time>2021-05-31T07:03:46.000Z</time>
      </trkpt>
      <trkpt lat="44.14099" lon="5.13365">
        <ele>442.4</ele>
        <time>2021-05-31T07:03:47.000Z</time>
      </trkpt>
      <trkpt lat="44.14097" lon="5.13383">
        <ele>441.7</ele>
        <time>2021-05-31T07:03:48.000Z</time>
      </trkpt>
      <trkpt lat="44.14088" lon="5.13412">
        <ele>440.8</ele>
        <time>2021-05-31T07:03:50.000Z</time>
      </trkpt>
      <trkpt lat="44.14078" lon="5.1344">
        <ele>439.9</ele>
        <time>2021-05-31T07:03:51.000Z</time>
      </trkpt>
      <trkpt lat="44.14076" lon="5.13458">
        <ele>439.2</ele>
        <time>2021-05-31T07:03:52.000Z</time>
      </trkpt>
      <trkpt lat="44.14081" lon="5.13493">
        <ele>438.4</ele>
        <time>2021-05-31T07:03:54.000Z</time>
      </trkpt>
      <trkpt lat="44.14094" lon="5.13524">
        <ele>437.1</ele>
        <time>2021-05-31T07:03:56.000Z</time>
      </trkpt>
      <trkpt lat="44.14106" lon="5.13541">
        <ele>436.4</ele>
        <time>2021-05-31T07:03:58.000Z</time>
      </trkpt>
      <trkpt lat="44.14122" lon="5.1356">
        <ele>435.8</ele>
        <time>2021-05-31T07:04:00.000Z</time>
      </trkpt>
      <trkpt lat="44.14138" lon="5.13579">
        <ele>435.2</ele>
        <time>2021-05-31T07:04:01.000Z</time>
      </trkpt>
      <trkpt lat="44.14167" lon="5.13602">
        <ele>434.9</ele>
        <time>2021-05-31T07:04:04.000Z</time>
      </trkpt>
      <trkpt lat="44.14206" lon="5.13612">
        <ele>434.7</ele>
        <time>2021-05-31T07:04:08.000Z</time>
      </trkpt>
      <trkpt lat="44.14215" lon="5.13617">
        <ele>434.7</ele>
        <time>2021-05-31T07:04:09.000Z</time>
      </trkpt>
      <trkpt lat="44.14218" lon="5.13633">
        <ele>434.7</ele>
        <time>2021-05-31T07:04:10.000Z</time>
      </trkpt>
      <trkpt lat="44.14217" lon="5.13643">
        <ele>434.7</ele>
        <time>2021-05-31T07:04:11.000Z</time>
      </trkpt>
      <trkpt lat="44.14195" lon="5.13686">
        <ele>434.6</ele>
        <time>2021-05-31T07:04:15.000Z</time>
      </trkpt>
      <trkpt lat="44.14176" lon="5.13721">
        <ele>434.4</ele>
        <time>2021-05-31T07:04:18.000Z</time>
      </trkpt>
      <trkpt lat="44.14157" lon="5.13756">
        <ele>434.2</ele>
        <time>2021-05-31T07:04:21.000Z</time>
      </trkpt>
      <trkpt lat="44.14147" lon="5.13782">
        <ele>434.1</ele>
        <time>2021-05-31T07:04:23.000Z</time>
      </trkpt>
      <trkpt lat="44.14141" lon="5.13806">
        <ele>434</ele>
        <time>2021-05-31T07:04:24.000Z</time>
      </trkpt>
      <trkpt lat="44.14141" lon="5.13823">
        <ele>433.9</ele>
        <time>2021-05-31T07:04:26.000Z</time>
      </trkpt>
      <trkpt lat="44.1415" lon="5.13846">
        <ele>433.5</ele>
        <time>2021-05-31T07:04:27.000Z</time>
      </trkpt>
      <trkpt lat="44.14158" lon="5.13853">
        <ele>433.2</ele>
        <time>2021-05-31T07:04:28.000Z</time>
      </trkpt>
      <trkpt lat="44.14167" lon="5.13855">
        <ele>432.8</ele>
        <time>2021-05-31T07:04:29.000Z</time>
      </trkpt>
      <trkpt lat="44.14177" lon="5.13853">
        <ele>432.4</ele>
        <time>2021-05-31T07:04:30.000Z</time>
      </trkpt>
      <trkpt lat="44.14203" lon="5.13843">
        <ele>431</ele>
        <time>2021-05-31T07:04:32.000Z</time>
      </trkpt>
      <trkpt lat="44.14216" lon="5.1384">
        <ele>429.6</ele>
        <time>2021-05-31T07:04:33.000Z</time>
      </trkpt>
      <trkpt lat="44.14224" lon="5.13842">
        <ele>429.2</ele>
        <time>2021-05-31T07:04:33.000Z</time>
      </trkpt>
      <trkpt lat="44.14231" lon="5.13846">
        <ele>428.9</ele>
        <time>2021-05-31T07:04:34.000Z</time>
      </trkpt>
      <trkpt lat="44.14237" lon="5.13852">
        <ele>428.4</ele>
        <time>2021-05-31T07:04:34.000Z</time>
      </trkpt>
      <trkpt lat="44.14242" lon="5.13862">
        <ele>427.6</ele>
        <time>2021-05-31T07:04:35.000Z</time>
      </trkpt>
      <trkpt lat="44.14259" lon="5.13912">
        <ele>426.1</ele>
        <time>2021-05-31T07:04:38.000Z</time>
      </trkpt>
      <trkpt lat="44.14274" lon="5.13928">
        <ele>425.5</ele>
        <time>2021-05-31T07:04:40.000Z</time>
      </trkpt>
      <trkpt lat="44.14285" lon="5.13934">
        <ele>424.9</ele>
        <time>2021-05-31T07:04:40.000Z</time>
      </trkpt>
      <trkpt lat="44.1429" lon="5.1394">
        <ele>424.6</ele>
        <time>2021-05-31T07:04:41.000Z</time>
      </trkpt>
      <trkpt lat="44.14292" lon="5.13946">
        <ele>424.4</ele>
        <time>2021-05-31T07:04:41.000Z</time>
      </trkpt>
      <trkpt lat="44.14291" lon="5.13954">
        <ele>424.1</ele>
        <time>2021-05-31T07:04:42.000Z</time>
      </trkpt>
      <trkpt lat="44.14263" lon="5.14003">
        <ele>420.8</ele>
        <time>2021-05-31T07:04:45.000Z</time>
      </trkpt>
      <trkpt lat="44.14253" lon="5.14038">
        <ele>419</ele>
        <time>2021-05-31T07:04:47.000Z</time>
      </trkpt>
      <trkpt lat="44.14252" lon="5.14054">
        <ele>418.2</ele>
        <time>2021-05-31T07:04:48.000Z</time>
      </trkpt>
      <trkpt lat="44.14254" lon="5.14069">
        <ele>417.7</ele>
        <time>2021-05-31T07:04:49.000Z</time>
      </trkpt>
      <trkpt lat="44.14259" lon="5.14085">
        <ele>417.1</ele>
        <time>2021-05-31T07:04:49.000Z</time>
      </trkpt>
      <trkpt lat="44.14266" lon="5.14095">
        <ele>416.8</ele>
        <time>2021-05-31T07:04:50.000Z</time>
      </trkpt>
      <trkpt lat="44.14288" lon="5.14113">
        <ele>416.3</ele>
        <time>2021-05-31T07:04:53.000Z</time>
      </trkpt>
      <trkpt lat="44.14291" lon="5.14126">
        <ele>416.2</ele>
        <time>2021-05-31T07:04:53.000Z</time>
      </trkpt>
      <trkpt lat="44.14287" lon="5.1414">
        <ele>416</ele>
        <time>2021-05-31T07:04:54.000Z</time>
      </trkpt>
      <trkpt lat="44.14277" lon="5.14148">
        <ele>415.9</ele>
        <time>2021-05-31T07:04:56.000Z</time>
      </trkpt>
      <trkpt lat="44.14258" lon="5.14147">
        <ele>416.4</ele>
        <time>2021-05-31T07:04:58.000Z</time>
      </trkpt>
      <trkpt lat="44.14238" lon="5.14146">
        <ele>416.8</ele>
        <time>2021-05-31T07:05:00.000Z</time>
      </trkpt>
      <trkpt lat="44.14232" lon="5.14149">
        <ele>417</ele>
        <time>2021-05-31T07:05:01.000Z</time>
      </trkpt>
      <trkpt lat="44.14226" lon="5.14157">
        <ele>417.1</ele>
        <time>2021-05-31T07:05:02.000Z</time>
      </trkpt>
      <trkpt lat="44.14217" lon="5.14188">
        <ele>417.7</ele>
        <time>2021-05-31T07:05:05.000Z</time>
      </trkpt>
      <trkpt lat="44.14212" lon="5.14196">
        <ele>418</ele>
        <time>2021-05-31T07:05:06.000Z</time>
      </trkpt>
      <trkpt lat="44.14203" lon="5.14202">
        <ele>418.3</ele>
        <time>2021-05-31T07:05:07.000Z</time>
      </trkpt>
      <trkpt lat="44.14195" lon="5.14204">
        <ele>418.5</ele>
        <time>2021-05-31T07:05:08.000Z</time>
      </trkpt>
      <trkpt lat="44.14175" lon="5.142">
        <ele>418.6</ele>
        <time>2021-05-31T07:05:10.000Z</time>
      </trkpt>
      <trkpt lat="44.14154" lon="5.14197">
        <ele>418.8</ele>
        <time>2021-05-31T07:05:12.000Z</time>
      </trkpt>
      <trkpt lat="44.14136" lon="5.14198">
        <ele>419.2</ele>
        <time>2021-05-31T07:05:14.000Z</time>
      </trkpt>
      <trkpt lat="44.1412" lon="5.14208">
        <ele>420</ele>
        <time>2021-05-31T07:05:17.000Z</time>
      </trkpt>
      <trkpt lat="44.14104" lon="5.14218">
        <ele>420.9</ele>
        <time>2021-05-31T07:05:20.000Z</time>
      </trkpt>
      <trkpt lat="44.14089" lon="5.14222">
        <ele>421.2</ele>
        <time>2021-05-31T07:05:21.000Z</time>
      </trkpt>
      <trkpt lat="44.14083" lon="5.14221">
        <ele>421.4</ele>
        <time>2021-05-31T07:05:22.000Z</time>
      </trkpt>
      <trkpt lat="44.14064" lon="5.14197">
        <ele>421.8</ele>
        <time>2021-05-31T07:05:25.000Z</time>
      </trkpt>
      <trkpt lat="44.14051" lon="5.14186">
        <ele>422.2</ele>
        <time>2021-05-31T07:05:27.000Z</time>
      </trkpt>
      <trkpt lat="44.1403" lon="5.14181">
        <ele>422.7</ele>
        <time>2021-05-31T07:05:29.000Z</time>
      </trkpt>
      <trkpt lat="44.14009" lon="5.14177">
        <ele>423.2</ele>
        <time>2021-05-31T07:05:32.000Z</time>
      </trkpt>
      <trkpt lat="44.13988" lon="5.14172">
        <ele>423.8</ele>
        <time>2021-05-31T07:05:34.000Z</time>
      </trkpt>
      <trkpt lat="44.1398" lon="5.14164">
        <ele>424.6</ele>
        <time>2021-05-31T07:05:36.000Z</time>
      </trkpt>
      <trkpt lat="44.13969" lon="5.14148">
        <ele>425.2</ele>
        <time>2021-05-31T07:05:39.000Z</time>
      </trkpt>
      <trkpt lat="44.13958" lon="5.14138">
        <ele>425.7</ele>
        <time>2021-05-31T07:05:40.000Z</time>
      </trkpt>
      <trkpt lat="44.13939" lon="5.14129">
        <ele>426.7</ele>
        <time>2021-05-31T07:05:43.000Z</time>
      </trkpt>
      <trkpt lat="44.13915" lon="5.14122">
        <ele>427.3</ele>
        <time>2021-05-31T07:05:46.000Z</time>
      </trkpt>
      <trkpt lat="44.13891" lon="5.14115">
        <ele>427.9</ele>
        <time>2021-05-31T07:05:49.000Z</time>
      </trkpt>
      <trkpt lat="44.13871" lon="5.14115">
        <ele>428.1</ele>
        <time>2021-05-31T07:05:51.000Z</time>
      </trkpt>
      <trkpt lat="44.13859" lon="5.14118">
        <ele>428.3</ele>
        <time>2021-05-31T07:05:53.000Z</time>
      </trkpt>
      <trkpt lat="44.13833" lon="5.14141">
        <ele>428.9</ele>
        <time>2021-05-31T07:05:56.000Z</time>
      </trkpt>
      <trkpt lat="44.13819" lon="5.14184">
        <ele>429.2</ele>
        <time>2021-05-31T07:06:00.000Z</time>
      </trkpt>
      <trkpt lat="44.13812" lon="5.14216">
        <ele>429.2</ele>
        <time>2021-05-31T07:06:02.000Z</time>
      </trkpt>
      <trkpt lat="44.13805" lon="5.14248">
        <ele>429.1</ele>
        <time>2021-05-31T07:06:05.000Z</time>
      </trkpt>
      <trkpt lat="44.13798" lon="5.14281">
        <ele>429</ele>
        <time>2021-05-31T07:06:07.000Z</time>
      </trkpt>
      <trkpt lat="44.1379" lon="5.14313">
        <ele>429.1</ele>
        <time>2021-05-31T07:06:09.000Z</time>
      </trkpt>
      <trkpt lat="44.13783" lon="5.14345">
        <ele>429.2</ele>
        <time>2021-05-31T07:06:12.000Z</time>
      </trkpt>
      <trkpt lat="44.13776" lon="5.14377">
        <ele>429.4</ele>
        <time>2021-05-31T07:06:14.000Z</time>
      </trkpt>
      <trkpt lat="44.13771" lon="5.14397">
        <ele>429.7</ele>
        <time>2021-05-31T07:06:16.000Z</time>
      </trkpt>
      <trkpt lat="44.13765" lon="5.14409">
        <ele>430</ele>
        <time>2021-05-31T07:06:17.000Z</time>
      </trkpt>
      <trkpt lat="44.13746" lon="5.14424">
        <ele>430.7</ele>
        <time>2021-05-31T07:06:20.000Z</time>
      </trkpt>
      <trkpt lat="44.13724" lon="5.1443">
        <ele>431.1</ele>
        <time>2021-05-31T07:06:23.000Z</time>
      </trkpt>
      <trkpt lat="44.13701" lon="5.14436">
        <ele>431.4</ele>
        <time>2021-05-31T07:06:25.000Z</time>
      </trkpt>
      <trkpt lat="44.13679" lon="5.14441">
        <ele>431.8</ele>
        <time>2021-05-31T07:06:28.000Z</time>
      </trkpt>
      <trkpt lat="44.13657" lon="5.14447">
        <ele>432.2</ele>
        <time>2021-05-31T07:06:30.000Z</time>
      </trkpt>
      <trkpt lat="44.1364" lon="5.14454">
        <ele>432.6</ele>
        <time>2021-05-31T07:06:33.000Z</time>
      </trkpt>
      <trkpt lat="44.13611" lon="5.14471">
        <ele>432.9</ele>
        <time>2021-05-31T07:06:36.000Z</time>
      </trkpt>
      <trkpt lat="44.13583" lon="5.14489">
        <ele>433.2</ele>
        <time>2021-05-31T07:06:39.000Z</time>
      </trkpt>
      <trkpt lat="44.13554" lon="5.14506">
        <ele>433.1</ele>
        <time>2021-05-31T07:06:42.000Z</time>
      </trkpt>
      <trkpt lat="44.13525" lon="5.14523">
        <ele>432.9</ele>
        <time>2021-05-31T07:06:45.000Z</time>
      </trkpt>
      <trkpt lat="44.13517" lon="5.14529">
        <ele>432.8</ele>
        <time>2021-05-31T07:06:46.000Z</time>
      </trkpt>
      <trkpt lat="44.13505" lon="5.14545">
        <ele>432.5</ele>
        <time>2021-05-31T07:06:47.000Z</time>
      </trkpt>
      <trkpt lat="44.13498" lon="5.1456">
        <ele>432</ele>
        <time>2021-05-31T07:06:48.000Z</time>
      </trkpt>
      <trkpt lat="44.13489" lon="5.1461">
        <ele>431.3</ele>
        <time>2021-05-31T07:06:52.000Z</time>
      </trkpt>
      <trkpt lat="44.13492" lon="5.14628">
        <ele>430.7</ele>
        <time>2021-05-31T07:06:53.000Z</time>
      </trkpt>
      <trkpt lat="44.13502" lon="5.14638">
        <ele>430.1</ele>
        <time>2021-05-31T07:06:54.000Z</time>
      </trkpt>
      <trkpt lat="44.13508" lon="5.1464">
        <ele>429.6</ele>
        <time>2021-05-31T07:06:54.000Z</time>
      </trkpt>
      <trkpt lat="44.13528" lon="5.14642">
        <ele>428.8</ele>
        <time>2021-05-31T07:06:56.000Z</time>
      </trkpt>
      <trkpt lat="44.1356" lon="5.14643">
        <ele>426.8</ele>
        <time>2021-05-31T07:06:58.000Z</time>
      </trkpt>
      <trkpt lat="44.13569" lon="5.14646">
        <ele>426</ele>
        <time>2021-05-31T07:06:59.000Z</time>
      </trkpt>
      <trkpt lat="44.13592" lon="5.14661">
        <ele>424.1</ele>
        <time>2021-05-31T07:07:00.000Z</time>
      </trkpt>
      <trkpt lat="44.13615" lon="5.14677">
        <ele>422.4</ele>
        <time>2021-05-31T07:07:02.000Z</time>
      </trkpt>
      <trkpt lat="44.13639" lon="5.14678">
        <ele>421</ele>
        <time>2021-05-31T07:07:04.000Z</time>
      </trkpt>
      <trkpt lat="44.13662" lon="5.14679">
        <ele>419.6</ele>
        <time>2021-05-31T07:07:06.000Z</time>
      </trkpt>
      <trkpt lat="44.13669" lon="5.14681">
        <ele>419.1</ele>
        <time>2021-05-31T07:07:06.000Z</time>
      </trkpt>
      <trkpt lat="44.13681" lon="5.14694">
        <ele>418.2</ele>
        <time>2021-05-31T07:07:07.000Z</time>
      </trkpt>
      <trkpt lat="44.13695" lon="5.14735">
        <ele>415.8</ele>
        <time>2021-05-31T07:07:10.000Z</time>
      </trkpt>
      <trkpt lat="44.13708" lon="5.14777">
        <ele>413.5</ele>
        <time>2021-05-31T07:07:12.000Z</time>
      </trkpt>
      <trkpt lat="44.13722" lon="5.14807">
        <ele>412.3</ele>
        <time>2021-05-31T07:07:14.000Z</time>
      </trkpt>
      <trkpt lat="44.13754" lon="5.14854">
        <ele>407.9</ele>
        <time>2021-05-31T07:07:17.000Z</time>
      </trkpt>
      <trkpt lat="44.13781" lon="5.14886">
        <ele>405</ele>
        <time>2021-05-31T07:07:20.000Z</time>
      </trkpt>
      <trkpt lat="44.13805" lon="5.14909">
        <ele>403.1</ele>
        <time>2021-05-31T07:07:22.000Z</time>
      </trkpt>
      <trkpt lat="44.13829" lon="5.14933">
        <ele>401.2</ele>
        <time>2021-05-31T07:07:24.000Z</time>
      </trkpt>
      <trkpt lat="44.13853" lon="5.14956">
        <ele>399.3</ele>
        <time>2021-05-31T07:07:26.000Z</time>
      </trkpt>
      <trkpt lat="44.13872" lon="5.14983">
        <ele>396.8</ele>
        <time>2021-05-31T07:07:28.000Z</time>
      </trkpt>
      <trkpt lat="44.1389" lon="5.15014">
        <ele>395.7</ele>
        <time>2021-05-31T07:07:30.000Z</time>
      </trkpt>
      <trkpt lat="44.13909" lon="5.15045">
        <ele>394.7</ele>
        <time>2021-05-31T07:07:33.000Z</time>
      </trkpt>
      <trkpt lat="44.13927" lon="5.15076">
        <ele>393.7</ele>
        <time>2021-05-31T07:07:35.000Z</time>
      </trkpt>
      <trkpt lat="44.13945" lon="5.15107">
        <ele>391.9</ele>
        <time>2021-05-31T07:07:37.000Z</time>
      </trkpt>
      <trkpt lat="44.13964" lon="5.15138">
        <ele>390</ele>
        <time>2021-05-31T07:07:39.000Z</time>
      </trkpt>
      <trkpt lat="44.13982" lon="5.15169">
        <ele>388.2</ele>
        <time>2021-05-31T07:07:41.000Z</time>
      </trkpt>
      <trkpt lat="44.14005" lon="5.15194">
        <ele>387.3</ele>
        <time>2021-05-31T07:07:44.000Z</time>
      </trkpt>
      <trkpt lat="44.14033" lon="5.15215">
        <ele>385.8</ele>
        <time>2021-05-31T07:07:46.000Z</time>
      </trkpt>
      <trkpt lat="44.1406" lon="5.15237">
        <ele>384.3</ele>
        <time>2021-05-31T07:07:48.000Z</time>
      </trkpt>
      <trkpt lat="44.14071" lon="5.15251">
        <ele>383.7</ele>
        <time>2021-05-31T07:07:49.000Z</time>
      </trkpt>
      <trkpt lat="44.14076" lon="5.15262">
        <ele>383</ele>
        <time>2021-05-31T07:07:50.000Z</time>
      </trkpt>
      <trkpt lat="44.14086" lon="5.15304">
        <ele>380.9</ele>
        <time>2021-05-31T07:07:52.000Z</time>
      </trkpt>
      <trkpt lat="44.14086" lon="5.15327">
        <ele>380.1</ele>
        <time>2021-05-31T07:07:54.000Z</time>
      </trkpt>
      <trkpt lat="44.14069" lon="5.15385">
        <ele>377.4</ele>
        <time>2021-05-31T07:07:57.000Z</time>
      </trkpt>
      <trkpt lat="44.14067" lon="5.15396">
        <ele>376.4</ele>
        <time>2021-05-31T07:07:58.000Z</time>
      </trkpt>
      <trkpt lat="44.14067" lon="5.1542">
        <ele>374.8</ele>
        <time>2021-05-31T07:07:59.000Z</time>
      </trkpt>
      <trkpt lat="44.14071" lon="5.15455">
        <ele>373.7</ele>
        <time>2021-05-31T07:08:01.000Z</time>
      </trkpt>
      <trkpt lat="44.14075" lon="5.15491">
        <ele>372.6</ele>
        <time>2021-05-31T07:08:03.000Z</time>
      </trkpt>
      <trkpt lat="44.14079" lon="5.1551">
        <ele>371.7</ele>
        <time>2021-05-31T07:08:04.000Z</time>
      </trkpt>
      <trkpt lat="44.14093" lon="5.15534">
        <ele>369.9</ele>
        <time>2021-05-31T07:08:05.000Z</time>
      </trkpt>
      <trkpt lat="44.14121" lon="5.15558">
        <ele>367.8</ele>
        <time>2021-05-31T07:08:08.000Z</time>
      </trkpt>
      <trkpt lat="44.14144" lon="5.15583">
        <ele>366.6</ele>
        <time>2021-05-31T07:08:10.000Z</time>
      </trkpt>
      <trkpt lat="44.14162" lon="5.15606">
        <ele>365.6</ele>
        <time>2021-05-31T07:08:12.000Z</time>
      </trkpt>
      <trkpt lat="44.14179" lon="5.1563">
        <ele>364.6</ele>
        <time>2021-05-31T07:08:14.000Z</time>
      </trkpt>
      <trkpt lat="44.14186" lon="5.15647">
        <ele>363.9</ele>
        <time>2021-05-31T07:08:15.000Z</time>
      </trkpt>
      <trkpt lat="44.14187" lon="5.15658">
        <ele>363.3</ele>
        <time>2021-05-31T07:08:15.000Z</time>
      </trkpt>
      <trkpt lat="44.14184" lon="5.15671">
        <ele>362.5</ele>
        <time>2021-05-31T07:08:16.000Z</time>
      </trkpt>
      <trkpt lat="44.14157" lon="5.15723">
        <ele>358.7</ele>
        <time>2021-05-31T07:08:19.000Z</time>
      </trkpt>
      <trkpt lat="44.1413" lon="5.15774">
        <ele>355.6</ele>
        <time>2021-05-31T07:08:22.000Z</time>
      </trkpt>
      <trkpt lat="44.14126" lon="5.1579">
        <ele>355</ele>
        <time>2021-05-31T07:08:23.000Z</time>
      </trkpt>
      <trkpt lat="44.14125" lon="5.15807">
        <ele>354.3</ele>
        <time>2021-05-31T07:08:24.000Z</time>
      </trkpt>
      <trkpt lat="44.14128" lon="5.15849">
        <ele>353.2</ele>
        <time>2021-05-31T07:08:27.000Z</time>
      </trkpt>
      <trkpt lat="44.14131" lon="5.15891">
        <ele>352.3</ele>
        <time>2021-05-31T07:08:29.000Z</time>
      </trkpt>
      <trkpt lat="44.14131" lon="5.15928">
        <ele>352.4</ele>
        <time>2021-05-31T07:08:32.000Z</time>
      </trkpt>
      <trkpt lat="44.1413" lon="5.15959">
        <ele>353.1</ele>
        <time>2021-05-31T07:08:35.000Z</time>
      </trkpt>
      <trkpt lat="44.14128" lon="5.1599">
        <ele>353.8</ele>
        <time>2021-05-31T07:08:38.000Z</time>
      </trkpt>
      <trkpt lat="44.14126" lon="5.16002">
        <ele>354.3</ele>
        <time>2021-05-31T07:08:39.000Z</time>
      </trkpt>
      <trkpt lat="44.14118" lon="5.16025">
        <ele>355.8</ele>
        <time>2021-05-31T07:08:43.000Z</time>
      </trkpt>
      <trkpt lat="44.14109" lon="5.16047">
        <ele>357.4</ele>
        <time>2021-05-31T07:08:47.000Z</time>
      </trkpt>
      <trkpt lat="44.14101" lon="5.1607">
        <ele>358.9</ele>
        <time>2021-05-31T07:08:50.000Z</time>
      </trkpt>
      <trkpt lat="44.14092" lon="5.16093">
        <ele>360.4</ele>
        <time>2021-05-31T07:08:54.000Z</time>
      </trkpt>
      <trkpt lat="44.14084" lon="5.16115">
        <ele>361.8</ele>
        <time>2021-05-31T07:08:58.000Z</time>
      </trkpt>
      <trkpt lat="44.14075" lon="5.16138">
        <ele>363.1</ele>
        <time>2021-05-31T07:09:01.000Z</time>
      </trkpt>
      <trkpt lat="44.14071" lon="5.1616">
        <ele>363.9</ele>
        <time>2021-05-31T07:09:04.000Z</time>
      </trkpt>
      <trkpt lat="44.1407" lon="5.16189">
        <ele>364.9</ele>
        <time>2021-05-31T07:09:07.000Z</time>
      </trkpt>
      <trkpt lat="44.14068" lon="5.16217">
        <ele>365.9</ele>
        <time>2021-05-31T07:09:10.000Z</time>
      </trkpt>
      <trkpt lat="44.14067" lon="5.16246">
        <ele>366.8</ele>
        <time>2021-05-31T07:09:13.000Z</time>
      </trkpt>
      <trkpt lat="44.14064" lon="5.1627">
        <ele>366.9</ele>
        <time>2021-05-31T07:09:15.000Z</time>
      </trkpt>
      <trkpt lat="44.14051" lon="5.1631">
        <ele>365.6</ele>
        <time>2021-05-31T07:09:17.000Z</time>
      </trkpt>
      <trkpt lat="44.14028" lon="5.16361">
        <ele>362.7</ele>
        <time>2021-05-31T07:09:20.000Z</time>
      </trkpt>
      <trkpt lat="44.14009" lon="5.16395">
        <ele>360.5</ele>
        <time>2021-05-31T07:09:22.000Z</time>
      </trkpt>
      <trkpt lat="44.13981" lon="5.16434">
        <ele>356.6</ele>
        <time>2021-05-31T07:09:25.000Z</time>
      </trkpt>
      <trkpt lat="44.13955" lon="5.16462">
        <ele>354.4</ele>
        <time>2021-05-31T07:09:28.000Z</time>
      </trkpt>
      <trkpt lat="44.1392" lon="5.16488">
        <ele>351.9</ele>
        <time>2021-05-31T07:09:30.000Z</time>
      </trkpt>
      <trkpt lat="44.13882" lon="5.16502">
        <ele>349.9</ele>
        <time>2021-05-31T07:09:33.000Z</time>
      </trkpt>
      <trkpt lat="44.13857" lon="5.1651">
        <ele>349.2</ele>
        <time>2021-05-31T07:09:35.000Z</time>
      </trkpt>
      <trkpt lat="44.13832" lon="5.16517">
        <ele>348.5</ele>
        <time>2021-05-31T07:09:38.000Z</time>
      </trkpt>
      <trkpt lat="44.13807" lon="5.16525">
        <ele>347.8</ele>
        <time>2021-05-31T07:09:40.000Z</time>
      </trkpt>
      <trkpt lat="44.13784" lon="5.16531">
        <ele>347.9</ele>
        <time>2021-05-31T07:09:42.000Z</time>
      </trkpt>
      <trkpt lat="44.13761" lon="5.16536">
        <ele>348</ele>
        <time>2021-05-31T07:09:45.000Z</time>
      </trkpt>
      <trkpt lat="44.13742" lon="5.16543">
        <ele>348.1</ele>
        <time>2021-05-31T07:09:47.000Z</time>
      </trkpt>
      <trkpt lat="44.13717" lon="5.16561">
        <ele>348.5</ele>
        <time>2021-05-31T07:09:50.000Z</time>
      </trkpt>
      <trkpt lat="44.13691" lon="5.16579">
        <ele>348.9</ele>
        <time>2021-05-31T07:09:53.000Z</time>
      </trkpt>
      <trkpt lat="44.13671" lon="5.1659">
        <ele>349.3</ele>
        <time>2021-05-31T07:09:55.000Z</time>
      </trkpt>
      <trkpt lat="44.1365" lon="5.16602">
        <ele>349.7</ele>
        <time>2021-05-31T07:09:58.000Z</time>
      </trkpt>
      <trkpt lat="44.1363" lon="5.16613">
        <ele>350.2</ele>
        <time>2021-05-31T07:10:00.000Z</time>
      </trkpt>
      <trkpt lat="44.13609" lon="5.16624">
        <ele>351</ele>
        <time>2021-05-31T07:10:03.000Z</time>
      </trkpt>
      <trkpt lat="44.13589" lon="5.16636">
        <ele>351.9</ele>
        <time>2021-05-31T07:10:06.000Z</time>
      </trkpt>
      <trkpt lat="44.13568" lon="5.16647">
        <ele>352.8</ele>
        <time>2021-05-31T07:10:09.000Z</time>
      </trkpt>
      <trkpt lat="44.13548" lon="5.16658">
        <ele>353.7</ele>
        <time>2021-05-31T07:10:13.000Z</time>
      </trkpt>
      <trkpt lat="44.13527" lon="5.1667">
        <ele>354.6</ele>
        <time>2021-05-31T07:10:16.000Z</time>
      </trkpt>
      <trkpt lat="44.13507" lon="5.16681">
        <ele>355.5</ele>
        <time>2021-05-31T07:10:19.000Z</time>
      </trkpt>
      <trkpt lat="44.13481" lon="5.16696">
        <ele>355.8</ele>
        <time>2021-05-31T07:10:22.000Z</time>
      </trkpt>
      <trkpt lat="44.13454" lon="5.16712">
        <ele>356.1</ele>
        <time>2021-05-31T07:10:25.000Z</time>
      </trkpt>
      <trkpt lat="44.13428" lon="5.16727">
        <ele>356.3</ele>
        <time>2021-05-31T07:10:28.000Z</time>
      </trkpt>
      <trkpt lat="44.13405" lon="5.16746">
        <ele>355.2</ele>
        <time>2021-05-31T07:10:30.000Z</time>
      </trkpt>
      <trkpt lat="44.13379" lon="5.16776">
        <ele>353.8</ele>
        <time>2021-05-31T07:10:33.000Z</time>
      </trkpt>
      <trkpt lat="44.13359" lon="5.16814">
        <ele>352.3</ele>
        <time>2021-05-31T07:10:35.000Z</time>
      </trkpt>
      <trkpt lat="44.13339" lon="5.16851">
        <ele>350.8</ele>
        <time>2021-05-31T07:10:38.000Z</time>
      </trkpt>
      <trkpt lat="44.13319" lon="5.16889">
        <ele>349.8</ele>
        <time>2021-05-31T07:10:41.000Z</time>
      </trkpt>
      <trkpt lat="44.13298" lon="5.16926">
        <ele>349</ele>
        <time>2021-05-31T07:10:43.000Z</time>
      </trkpt>
      <trkpt lat="44.13278" lon="5.16964">
        <ele>348.6</ele>
        <time>2021-05-31T07:10:47.000Z</time>
      </trkpt>
      <trkpt lat="44.13258" lon="5.17001">
        <ele>348.3</ele>
        <time>2021-05-31T07:10:50.000Z</time>
      </trkpt>
      <trkpt lat="44.13237" lon="5.17029">
        <ele>348.1</ele>
        <time>2021-05-31T07:10:52.000Z</time>
      </trkpt>
      <trkpt lat="44.13215" lon="5.17056">
        <ele>347.8</ele>
        <time>2021-05-31T07:10:55.000Z</time>
      </trkpt>
      <trkpt lat="44.13194" lon="5.17084">
        <ele>347.5</ele>
        <time>2021-05-31T07:10:58.000Z</time>
      </trkpt>
      <trkpt lat="44.13171" lon="5.17112">
        <ele>345.9</ele>
        <time>2021-05-31T07:11:00.000Z</time>
      </trkpt>
      <trkpt lat="44.13148" lon="5.1714">
        <ele>344.4</ele>
        <time>2021-05-31T07:11:02.000Z</time>
      </trkpt>
      <trkpt lat="44.13125" lon="5.17169">
        <ele>343.3</ele>
        <time>2021-05-31T07:11:05.000Z</time>
      </trkpt>
      <trkpt lat="44.13101" lon="5.17197">
        <ele>342.2</ele>
        <time>2021-05-31T07:11:07.000Z</time>
      </trkpt>
      <trkpt lat="44.13078" lon="5.17225">
        <ele>341.8</ele>
        <time>2021-05-31T07:11:10.000Z</time>
      </trkpt>
      <trkpt lat="44.13055" lon="5.17253">
        <ele>341.5</ele>
        <time>2021-05-31T07:11:13.000Z</time>
      </trkpt>
      <trkpt lat="44.13044" lon="5.17277">
        <ele>341.4</ele>
        <time>2021-05-31T07:11:15.000Z</time>
      </trkpt>
      <trkpt lat="44.13031" lon="5.17326">
        <ele>340.4</ele>
        <time>2021-05-31T07:11:18.000Z</time>
      </trkpt>
      <trkpt lat="44.13026" lon="5.17359">
        <ele>339.7</ele>
        <time>2021-05-31T07:11:20.000Z</time>
      </trkpt>
      <trkpt lat="44.1302" lon="5.17393">
        <ele>338.9</ele>
        <time>2021-05-31T07:11:22.000Z</time>
      </trkpt>
      <trkpt lat="44.13015" lon="5.17426">
        <ele>338.2</ele>
        <time>2021-05-31T07:11:24.000Z</time>
      </trkpt>
      <trkpt lat="44.13006" lon="5.17476">
        <ele>336.2</ele>
        <time>2021-05-31T07:11:27.000Z</time>
      </trkpt>
      <trkpt lat="44.12998" lon="5.17526">
        <ele>334.2</ele>
        <time>2021-05-31T07:11:30.000Z</time>
      </trkpt>
      <trkpt lat="44.1299" lon="5.17566">
        <ele>333.4</ele>
        <time>2021-05-31T07:11:32.000Z</time>
      </trkpt>
      <trkpt lat="44.1298" lon="5.17595">
        <ele>332.4</ele>
        <time>2021-05-31T07:11:34.000Z</time>
      </trkpt>
      <trkpt lat="44.12967" lon="5.17622">
        <ele>332</ele>
        <time>2021-05-31T07:11:36.000Z</time>
      </trkpt>
      <trkpt lat="44.12954" lon="5.17642">
        <ele>331.8</ele>
        <time>2021-05-31T07:11:38.000Z</time>
      </trkpt>
      <trkpt lat="44.12934" lon="5.17665">
        <ele>331.2</ele>
        <time>2021-05-31T07:11:40.000Z</time>
      </trkpt>
      <trkpt lat="44.12913" lon="5.17687">
        <ele>330.7</ele>
        <time>2021-05-31T07:11:43.000Z</time>
      </trkpt>
      <trkpt lat="44.12895" lon="5.17703">
        <ele>330.2</ele>
        <time>2021-05-31T07:11:44.000Z</time>
      </trkpt>
      <trkpt lat="44.12876" lon="5.17719">
        <ele>329.7</ele>
        <time>2021-05-31T07:11:46.000Z</time>
      </trkpt>
      <trkpt lat="44.12852" lon="5.17737">
        <ele>329.2</ele>
        <time>2021-05-31T07:11:49.000Z</time>
      </trkpt>
      <trkpt lat="44.12835" lon="5.17754">
        <ele>328.8</ele>
        <time>2021-05-31T07:11:51.000Z</time>
      </trkpt>
      <trkpt lat="44.12811" lon="5.17774">
        <ele>328</ele>
        <time>2021-05-31T07:11:53.000Z</time>
      </trkpt>
      <trkpt lat="44.12787" lon="5.17794">
        <ele>327.1</ele>
        <time>2021-05-31T07:11:55.000Z</time>
      </trkpt>
      <trkpt lat="44.12763" lon="5.17814">
        <ele>326.2</ele>
        <time>2021-05-31T07:11:58.000Z</time>
      </trkpt>
      <trkpt lat="44.12739" lon="5.17834">
        <ele>324.6</ele>
        <time>2021-05-31T07:12:00.000Z</time>
      </trkpt>
      <trkpt lat="44.12715" lon="5.17854">
        <ele>323</ele>
        <time>2021-05-31T07:12:02.000Z</time>
      </trkpt>
      <trkpt lat="44.12692" lon="5.17874">
        <ele>321.4</ele>
        <time>2021-05-31T07:12:04.000Z</time>
      </trkpt>
      <trkpt lat="44.12668" lon="5.17894">
        <ele>320.7</ele>
        <time>2021-05-31T07:12:06.000Z</time>
      </trkpt>
      <trkpt lat="44.12644" lon="5.17914">
        <ele>320.1</ele>
        <time>2021-05-31T07:12:08.000Z</time>
      </trkpt>
      <trkpt lat="44.1262" lon="5.17934">
        <ele>319.4</ele>
        <time>2021-05-31T07:12:11.000Z</time>
      </trkpt>
      <trkpt lat="44.12596" lon="5.17954">
        <ele>317.8</ele>
        <time>2021-05-31T07:12:13.000Z</time>
      </trkpt>
      <trkpt lat="44.12572" lon="5.17974">
        <ele>316.1</ele>
        <time>2021-05-31T07:12:15.000Z</time>
      </trkpt>
      <trkpt lat="44.12548" lon="5.17994">
        <ele>314.5</ele>
        <time>2021-05-31T07:12:17.000Z</time>
      </trkpt>
      <trkpt lat="44.12535" lon="5.18007">
        <ele>313.9</ele>
        <time>2021-05-31T07:12:18.000Z</time>
      </trkpt>
      <trkpt lat="44.12529" lon="5.1803">
        <ele>313.3</ele>
        <time>2021-05-31T07:12:20.000Z</time>
      </trkpt>
      <trkpt lat="44.12525" lon="5.18034">
        <ele>313.2</ele>
        <time>2021-05-31T07:12:20.000Z</time>
      </trkpt>
      <trkpt lat="44.12529" lon="5.18045">
        <ele>313.2</ele>
        <time>2021-05-31T07:12:21.000Z</time>
      </trkpt>
      <trkpt lat="44.12526" lon="5.18074">
        <ele>313.1</ele>
        <time>2021-05-31T07:12:23.000Z</time>
      </trkpt>
      <trkpt lat="44.12518" lon="5.18109">
        <ele>313.1</ele>
        <time>2021-05-31T07:12:26.000Z</time>
      </trkpt>
      <trkpt lat="44.1251" lon="5.18145">
        <ele>313.2</ele>
        <time>2021-05-31T07:12:28.000Z</time>
      </trkpt>
      <trkpt lat="44.12502" lon="5.1818">
        <ele>313.3</ele>
        <time>2021-05-31T07:12:31.000Z</time>
      </trkpt>
      <trkpt lat="44.12494" lon="5.18216">
        <ele>313.6</ele>
        <time>2021-05-31T07:12:34.000Z</time>
      </trkpt>
      <trkpt lat="44.12487" lon="5.18251">
        <ele>313.9</ele>
        <time>2021-05-31T07:12:37.000Z</time>
      </trkpt>
      <trkpt lat="44.12479" lon="5.18287">
        <ele>314.2</ele>
        <time>2021-05-31T07:12:40.000Z</time>
      </trkpt>
      <trkpt lat="44.12471" lon="5.18322">
        <ele>314.7</ele>
        <time>2021-05-31T07:12:43.000Z</time>
      </trkpt>
      <trkpt lat="44.12463" lon="5.18358">
        <ele>315.3</ele>
        <time>2021-05-31T07:12:46.000Z</time>
      </trkpt>
      <trkpt lat="44.12455" lon="5.18393">
        <ele>315.8</ele>
        <time>2021-05-31T07:12:49.000Z</time>
      </trkpt>
      <trkpt lat="44.12448" lon="5.18424">
        <ele>316.1</ele>
        <time>2021-05-31T07:12:51.000Z</time>
      </trkpt>
      <trkpt lat="44.12441" lon="5.18456">
        <ele>316.3</ele>
        <time>2021-05-31T07:12:54.000Z</time>
      </trkpt>
      <trkpt lat="44.12434" lon="5.18487">
        <ele>316.5</ele>
        <time>2021-05-31T07:12:56.000Z</time>
      </trkpt>
      <trkpt lat="44.12427" lon="5.18518">
        <ele>316.8</ele>
        <time>2021-05-31T07:12:59.000Z</time>
      </trkpt>
      <trkpt lat="44.1242" lon="5.1855">
        <ele>317.1</ele>
        <time>2021-05-31T07:13:02.000Z</time>
      </trkpt>
      <trkpt lat="44.12413" lon="5.18581">
        <ele>317.4</ele>
        <time>2021-05-31T07:13:04.000Z</time>
      </trkpt>
      <trkpt lat="44.12406" lon="5.18612">
        <ele>317.7</ele>
        <time>2021-05-31T07:13:07.000Z</time>
      </trkpt>
      <trkpt lat="44.12399" lon="5.18644">
        <ele>318</ele>
        <time>2021-05-31T07:13:09.000Z</time>
      </trkpt>
      <trkpt lat="44.12392" lon="5.18675">
        <ele>318.5</ele>
        <time>2021-05-31T07:13:12.000Z</time>
      </trkpt>
      <trkpt lat="44.12385" lon="5.18707">
        <ele>319.7</ele>
        <time>2021-05-31T07:13:16.000Z</time>
      </trkpt>
      <trkpt lat="44.12377" lon="5.18738">
        <ele>321</ele>
        <time>2021-05-31T07:13:20.000Z</time>
      </trkpt>
      <trkpt lat="44.1237" lon="5.1877">
        <ele>322.2</ele>
        <time>2021-05-31T07:13:23.000Z</time>
      </trkpt>
      <trkpt lat="44.12363" lon="5.18802">
        <ele>323.6</ele>
        <time>2021-05-31T07:13:27.000Z</time>
      </trkpt>
      <trkpt lat="44.12355" lon="5.18833">
        <ele>324.9</ele>
        <time>2021-05-31T07:13:31.000Z</time>
      </trkpt>
      <trkpt lat="44.12348" lon="5.18865">
        <ele>326.2</ele>
        <time>2021-05-31T07:13:35.000Z</time>
      </trkpt>
      <trkpt lat="44.12342" lon="5.18885">
        <ele>327</ele>
        <time>2021-05-31T07:13:38.000Z</time>
      </trkpt>
      <trkpt lat="44.12326" lon="5.18917">
        <ele>328</ele>
        <time>2021-05-31T07:13:41.000Z</time>
      </trkpt>
      <trkpt lat="44.12303" lon="5.18937">
        <ele>329</ele>
        <time>2021-05-31T07:13:45.000Z</time>
      </trkpt>
      <trkpt lat="44.12279" lon="5.18956">
        <ele>330</ele>
        <time>2021-05-31T07:13:49.000Z</time>
      </trkpt>
      <trkpt lat="44.12256" lon="5.18976">
        <ele>331.1</ele>
        <time>2021-05-31T07:13:52.000Z</time>
      </trkpt>
      <trkpt lat="44.12232" lon="5.18995">
        <ele>332.2</ele>
        <time>2021-05-31T07:13:56.000Z</time>
      </trkpt>
      <trkpt lat="44.12222" lon="5.19009">
        <ele>332.6</ele>
        <time>2021-05-31T07:13:58.000Z</time>
      </trkpt>
      <trkpt lat="44.12206" lon="5.19044">
        <ele>333.2</ele>
        <time>2021-05-31T07:14:01.000Z</time>
      </trkpt>
      <trkpt lat="44.12189" lon="5.19079">
        <ele>333.8</ele>
        <time>2021-05-31T07:14:05.000Z</time>
      </trkpt>
      <trkpt lat="44.12177" lon="5.19108">
        <ele>334.2</ele>
        <time>2021-05-31T07:14:07.000Z</time>
      </trkpt>
      <trkpt lat="44.12166" lon="5.19138">
        <ele>334.7</ele>
        <time>2021-05-31T07:14:10.000Z</time>
      </trkpt>
      <trkpt lat="44.12154" lon="5.19167">
        <ele>335.1</ele>
        <time>2021-05-31T07:14:13.000Z</time>
      </trkpt>
      <trkpt lat="44.12144" lon="5.19199">
        <ele>335.4</ele>
        <time>2021-05-31T07:14:16.000Z</time>
      </trkpt>
      <trkpt lat="44.12134" lon="5.1923">
        <ele>335.7</ele>
        <time>2021-05-31T07:14:18.000Z</time>
      </trkpt>
      <trkpt lat="44.12124" lon="5.19262">
        <ele>336.1</ele>
        <time>2021-05-31T07:14:21.000Z</time>
      </trkpt>
      <trkpt lat="44.12116" lon="5.19289">
        <ele>336.5</ele>
        <time>2021-05-31T07:14:24.000Z</time>
      </trkpt>
      <trkpt lat="44.12109" lon="5.19317">
        <ele>337</ele>
        <time>2021-05-31T07:14:26.000Z</time>
      </trkpt>
      <trkpt lat="44.12101" lon="5.19344">
        <ele>337.5</ele>
        <time>2021-05-31T07:14:28.000Z</time>
      </trkpt>
      <trkpt lat="44.12094" lon="5.19371">
        <ele>338.1</ele>
        <time>2021-05-31T07:14:31.000Z</time>
      </trkpt>
      <trkpt lat="44.12086" lon="5.19399">
        <ele>338.7</ele>
        <time>2021-05-31T07:14:34.000Z</time>
      </trkpt>
      <trkpt lat="44.12079" lon="5.19426">
        <ele>339.4</ele>
        <time>2021-05-31T07:14:36.000Z</time>
      </trkpt>
      <trkpt lat="44.12071" lon="5.19453">
        <ele>340.1</ele>
        <time>2021-05-31T07:14:39.000Z</time>
      </trkpt>
      <trkpt lat="44.12064" lon="5.19481">
        <ele>340.8</ele>
        <time>2021-05-31T07:14:42.000Z</time>
      </trkpt>
      <trkpt lat="44.12056" lon="5.19508">
        <ele>341.4</ele>
        <time>2021-05-31T07:14:44.000Z</time>
      </trkpt>
      <trkpt lat="44.12044" lon="5.19541">
        <ele>342.1</ele>
        <time>2021-05-31T07:14:48.000Z</time>
      </trkpt>
      <trkpt lat="44.12032" lon="5.19574">
        <ele>342.7</ele>
        <time>2021-05-31T07:14:51.000Z</time>
      </trkpt>
      <trkpt lat="44.12019" lon="5.19606">
        <ele>343.9</ele>
        <time>2021-05-31T07:14:55.000Z</time>
      </trkpt>
      <trkpt lat="44.12007" lon="5.19639">
        <ele>345.2</ele>
        <time>2021-05-31T07:14:59.000Z</time>
      </trkpt>
      <trkpt lat="44.11996" lon="5.19664">
        <ele>346.2</ele>
        <time>2021-05-31T07:15:02.000Z</time>
      </trkpt>
      <trkpt lat="44.11983" lon="5.19691">
        <ele>347</ele>
        <time>2021-05-31T07:15:05.000Z</time>
      </trkpt>
      <trkpt lat="44.11969" lon="5.19719">
        <ele>347.8</ele>
        <time>2021-05-31T07:15:08.000Z</time>
      </trkpt>
      <trkpt lat="44.11956" lon="5.19746">
        <ele>348.7</ele>
        <time>2021-05-31T07:15:11.000Z</time>
      </trkpt>
      <trkpt lat="44.11942" lon="5.19773">
        <ele>349.4</ele>
        <time>2021-05-31T07:15:14.000Z</time>
      </trkpt>
      <trkpt lat="44.11929" lon="5.19801">
        <ele>350.1</ele>
        <time>2021-05-31T07:15:17.000Z</time>
      </trkpt>
      <trkpt lat="44.11915" lon="5.19828">
        <ele>350.9</ele>
        <time>2021-05-31T07:15:20.000Z</time>
      </trkpt>
      <trkpt lat="44.11902" lon="5.19855">
        <ele>351.5</ele>
        <time>2021-05-31T07:15:23.000Z</time>
      </trkpt>
      <trkpt lat="44.11888" lon="5.19883">
        <ele>352.1</ele>
        <time>2021-05-31T07:15:26.000Z</time>
      </trkpt>
      <trkpt lat="44.11875" lon="5.1991">
        <ele>352.7</ele>
        <time>2021-05-31T07:15:29.000Z</time>
      </trkpt>
      <trkpt lat="44.11865" lon="5.19943">
        <ele>354.1</ele>
        <time>2021-05-31T07:15:33.000Z</time>
      </trkpt>
      <trkpt lat="44.11854" lon="5.19977">
        <ele>355.4</ele>
        <time>2021-05-31T07:15:37.000Z</time>
      </trkpt>
      <trkpt lat="44.11844" lon="5.2001">
        <ele>356.9</ele>
        <time>2021-05-31T07:15:41.000Z</time>
      </trkpt>
      <trkpt lat="44.11845" lon="5.20025">
        <ele>357.6</ele>
        <time>2021-05-31T07:15:43.000Z</time>
      </trkpt>
      <trkpt lat="44.11838" lon="5.2003">
        <ele>357.9</ele>
        <time>2021-05-31T07:15:44.000Z</time>
      </trkpt>
      <trkpt lat="44.11824" lon="5.20068">
        <ele>358.3</ele>
        <time>2021-05-31T07:15:47.000Z</time>
      </trkpt>
      <trkpt lat="44.11815" lon="5.20099">
        <ele>359.2</ele>
        <time>2021-05-31T07:15:50.000Z</time>
      </trkpt>
      <trkpt lat="44.11806" lon="5.20129">
        <ele>360.1</ele>
        <time>2021-05-31T07:15:54.000Z</time>
      </trkpt>
      <trkpt lat="44.11804" lon="5.2014">
        <ele>360.4</ele>
        <time>2021-05-31T07:15:55.000Z</time>
      </trkpt>
      <trkpt lat="44.11805" lon="5.20166">
        <ele>360.8</ele>
        <time>2021-05-31T07:15:57.000Z</time>
      </trkpt>
      <trkpt lat="44.11809" lon="5.20193">
        <ele>361.6</ele>
        <time>2021-05-31T07:16:00.000Z</time>
      </trkpt>
      <trkpt lat="44.11812" lon="5.20221">
        <ele>362.5</ele>
        <time>2021-05-31T07:16:03.000Z</time>
      </trkpt>
      <trkpt lat="44.11816" lon="5.20248">
        <ele>363.5</ele>
        <time>2021-05-31T07:16:06.000Z</time>
      </trkpt>
      <trkpt lat="44.11816" lon="5.20268">
        <ele>364.9</ele>
        <time>2021-05-31T07:16:09.000Z</time>
      </trkpt>
      <trkpt lat="44.11813" lon="5.20286">
        <ele>366.2</ele>
        <time>2021-05-31T07:16:12.000Z</time>
      </trkpt>
      <trkpt lat="44.11802" lon="5.20318">
        <ele>367.5</ele>
        <time>2021-05-31T07:16:16.000Z</time>
      </trkpt>
      <trkpt lat="44.11791" lon="5.20349">
        <ele>368.6</ele>
        <time>2021-05-31T07:16:20.000Z</time>
      </trkpt>
      <trkpt lat="44.1178" lon="5.20381">
        <ele>369.7</ele>
        <time>2021-05-31T07:16:23.000Z</time>
      </trkpt>
      <trkpt lat="44.11769" lon="5.20412">
        <ele>370.4</ele>
        <time>2021-05-31T07:16:26.000Z</time>
      </trkpt>
      <trkpt lat="44.11758" lon="5.20444">
        <ele>371</ele>
        <time>2021-05-31T07:16:29.000Z</time>
      </trkpt>
      <trkpt lat="44.11747" lon="5.20475">
        <ele>371.6</ele>
        <time>2021-05-31T07:16:32.000Z</time>
      </trkpt>
      <trkpt lat="44.11733" lon="5.20503">
        <ele>372</ele>
        <time>2021-05-31T07:16:35.000Z</time>
      </trkpt>
      <trkpt lat="44.1172" lon="5.20532">
        <ele>372.3</ele>
        <time>2021-05-31T07:16:38.000Z</time>
      </trkpt>
      <trkpt lat="44.11706" lon="5.2056">
        <ele>373</ele>
        <time>2021-05-31T07:16:41.000Z</time>
      </trkpt>
      <trkpt lat="44.11692" lon="5.20588">
        <ele>373.6</ele>
        <time>2021-05-31T07:16:44.000Z</time>
      </trkpt>
      <trkpt lat="44.11682" lon="5.20616">
        <ele>373.8</ele>
        <time>2021-05-31T07:16:46.000Z</time>
      </trkpt>
      <trkpt lat="44.11672" lon="5.20643">
        <ele>373.9</ele>
        <time>2021-05-31T07:16:48.000Z</time>
      </trkpt>
      <trkpt lat="44.11663" lon="5.20671">
        <ele>374.1</ele>
        <time>2021-05-31T07:16:51.000Z</time>
      </trkpt>
      <trkpt lat="44.11653" lon="5.20698">
        <ele>374.6</ele>
        <time>2021-05-31T07:16:53.000Z</time>
      </trkpt>
      <trkpt lat="44.11643" lon="5.20726">
        <ele>375.2</ele>
        <time>2021-05-31T07:16:56.000Z</time>
      </trkpt>
      <trkpt lat="44.11633" lon="5.20753">
        <ele>375.8</ele>
        <time>2021-05-31T07:16:58.000Z</time>
      </trkpt>
      <trkpt lat="44.11624" lon="5.20781">
        <ele>377.2</ele>
        <time>2021-05-31T07:17:02.000Z</time>
      </trkpt>
      <trkpt lat="44.11614" lon="5.20808">
        <ele>378.7</ele>
        <time>2021-05-31T07:17:06.000Z</time>
      </trkpt>
      <trkpt lat="44.11604" lon="5.20836">
        <ele>380.1</ele>
        <time>2021-05-31T07:17:10.000Z</time>
      </trkpt>
      <trkpt lat="44.11595" lon="5.20867">
        <ele>381.5</ele>
        <time>2021-05-31T07:17:14.000Z</time>
      </trkpt>
      <trkpt lat="44.11586" lon="5.20898">
        <ele>382.8</ele>
        <time>2021-05-31T07:17:18.000Z</time>
      </trkpt>
      <trkpt lat="44.11576" lon="5.20929">
        <ele>384.1</ele>
        <time>2021-05-31T07:17:22.000Z</time>
      </trkpt>
      <trkpt lat="44.11567" lon="5.2096">
        <ele>385.1</ele>
        <time>2021-05-31T07:17:25.000Z</time>
      </trkpt>
      <trkpt lat="44.11558" lon="5.20991">
        <ele>386</ele>
        <time>2021-05-31T07:17:29.000Z</time>
      </trkpt>
      <trkpt lat="44.11549" lon="5.21023">
        <ele>387</ele>
        <time>2021-05-31T07:17:32.000Z</time>
      </trkpt>
      <trkpt lat="44.11539" lon="5.21054">
        <ele>387.9</ele>
        <time>2021-05-31T07:17:35.000Z</time>
      </trkpt>
      <trkpt lat="44.1153" lon="5.21085">
        <ele>388.9</ele>
        <time>2021-05-31T07:17:39.000Z</time>
      </trkpt>
      <trkpt lat="44.11521" lon="5.21116">
        <ele>389.7</ele>
        <time>2021-05-31T07:17:42.000Z</time>
      </trkpt>
      <trkpt lat="44.11512" lon="5.21147">
        <ele>389.4</ele>
        <time>2021-05-31T07:17:44.000Z</time>
      </trkpt>
      <trkpt lat="44.11502" lon="5.21178">
        <ele>388.9</ele>
        <time>2021-05-31T07:17:46.000Z</time>
      </trkpt>
      <trkpt lat="44.11493" lon="5.21209">
        <ele>388.4</ele>
        <time>2021-05-31T07:17:48.000Z</time>
      </trkpt>
      <trkpt lat="44.11489" lon="5.21218">
        <ele>388.1</ele>
        <time>2021-05-31T07:17:49.000Z</time>
      </trkpt>
      <trkpt lat="44.11471" lon="5.21239">
        <ele>387.5</ele>
        <time>2021-05-31T07:17:51.000Z</time>
      </trkpt>
      <trkpt lat="44.1145" lon="5.21255">
        <ele>387.5</ele>
        <time>2021-05-31T07:17:53.000Z</time>
      </trkpt>
      <trkpt lat="44.11429" lon="5.21271">
        <ele>387.7</ele>
        <time>2021-05-31T07:17:56.000Z</time>
      </trkpt>
      <trkpt lat="44.11408" lon="5.21286">
        <ele>388.5</ele>
        <time>2021-05-31T07:17:59.000Z</time>
      </trkpt>
      <trkpt lat="44.11387" lon="5.21302">
        <ele>389.5</ele>
        <time>2021-05-31T07:18:02.000Z</time>
      </trkpt>
      <trkpt lat="44.1137" lon="5.21319">
        <ele>390.8</ele>
        <time>2021-05-31T07:18:06.000Z</time>
      </trkpt>
      <trkpt lat="44.11352" lon="5.21336">
        <ele>392.1</ele>
        <time>2021-05-31T07:18:09.000Z</time>
      </trkpt>
      <trkpt lat="44.11344" lon="5.21345">
        <ele>392.8</ele>
        <time>2021-05-31T07:18:11.000Z</time>
      </trkpt>
      <trkpt lat="44.11329" lon="5.21367">
        <ele>393.4</ele>
        <time>2021-05-31T07:18:14.000Z</time>
      </trkpt>
      <trkpt lat="44.11313" lon="5.21389">
        <ele>393.8</ele>
        <time>2021-05-31T07:18:16.000Z</time>
      </trkpt>
      <trkpt lat="44.11295" lon="5.21416">
        <ele>394.5</ele>
        <time>2021-05-31T07:18:20.000Z</time>
      </trkpt>
      <trkpt lat="44.11277" lon="5.21444">
        <ele>395.1</ele>
        <time>2021-05-31T07:18:23.000Z</time>
      </trkpt>
      <trkpt lat="44.11258" lon="5.21471">
        <ele>395.5</ele>
        <time>2021-05-31T07:18:26.000Z</time>
      </trkpt>
      <trkpt lat="44.1124" lon="5.21498">
        <ele>395.9</ele>
        <time>2021-05-31T07:18:29.000Z</time>
      </trkpt>
      <trkpt lat="44.11224" lon="5.21522">
        <ele>396.2</ele>
        <time>2021-05-31T07:18:31.000Z</time>
      </trkpt>
      <trkpt lat="44.11208" lon="5.21545">
        <ele>396.5</ele>
        <time>2021-05-31T07:18:34.000Z</time>
      </trkpt>
      <trkpt lat="44.11192" lon="5.21569">
        <ele>396.8</ele>
        <time>2021-05-31T07:18:36.000Z</time>
      </trkpt>
      <trkpt lat="44.11176" lon="5.21593">
        <ele>397.2</ele>
        <time>2021-05-31T07:18:39.000Z</time>
      </trkpt>
      <trkpt lat="44.1116" lon="5.21616">
        <ele>397.5</ele>
        <time>2021-05-31T07:18:42.000Z</time>
      </trkpt>
      <trkpt lat="44.11144" lon="5.2164">
        <ele>397.9</ele>
        <time>2021-05-31T07:18:44.000Z</time>
      </trkpt>
      <trkpt lat="44.11128" lon="5.21664">
        <ele>398.9</ele>
        <time>2021-05-31T07:18:47.000Z</time>
      </trkpt>
      <trkpt lat="44.11112" lon="5.21687">
        <ele>400</ele>
        <time>2021-05-31T07:18:51.000Z</time>
      </trkpt>
      <trkpt lat="44.11096" lon="5.21711">
        <ele>401</ele>
        <time>2021-05-31T07:18:54.000Z</time>
      </trkpt>
      <trkpt lat="44.11084" lon="5.21735">
        <ele>402</ele>
        <time>2021-05-31T07:18:57.000Z</time>
      </trkpt>
      <trkpt lat="44.11072" lon="5.21758">
        <ele>403.1</ele>
        <time>2021-05-31T07:19:01.000Z</time>
      </trkpt>
      <trkpt lat="44.11065" lon="5.21784">
        <ele>404.6</ele>
        <time>2021-05-31T07:19:05.000Z</time>
      </trkpt>
      <trkpt lat="44.11058" lon="5.2181">
        <ele>406.2</ele>
        <time>2021-05-31T07:19:08.000Z</time>
      </trkpt>
      <trkpt lat="44.11051" lon="5.21837">
        <ele>407.7</ele>
        <time>2021-05-31T07:19:12.000Z</time>
      </trkpt>
      <trkpt lat="44.11043" lon="5.21863">
        <ele>408.7</ele>
        <time>2021-05-31T07:19:15.000Z</time>
      </trkpt>
      <trkpt lat="44.11036" lon="5.21889">
        <ele>409.6</ele>
        <time>2021-05-31T07:19:18.000Z</time>
      </trkpt>
      <trkpt lat="44.11029" lon="5.21915">
        <ele>410.5</ele>
        <time>2021-05-31T07:19:21.000Z</time>
      </trkpt>
      <trkpt lat="44.11015" lon="5.21952">
        <ele>411.7</ele>
        <time>2021-05-31T07:19:25.000Z</time>
      </trkpt>
      <trkpt lat="44.11004" lon="5.21976">
        <ele>412.6</ele>
        <time>2021-05-31T07:19:28.000Z</time>
      </trkpt>
      <trkpt lat="44.10993" lon="5.22">
        <ele>413.6</ele>
        <time>2021-05-31T07:19:32.000Z</time>
      </trkpt>
      <trkpt lat="44.10981" lon="5.22024">
        <ele>414.6</ele>
        <time>2021-05-31T07:19:35.000Z</time>
      </trkpt>
      <trkpt lat="44.1097" lon="5.22048">
        <ele>415.5</ele>
        <time>2021-05-31T07:19:38.000Z</time>
      </trkpt>
      <trkpt lat="44.10947" lon="5.22087">
        <ele>416.3</ele>
        <time>2021-05-31T07:19:42.000Z</time>
      </trkpt>
      <trkpt lat="44.10931" lon="5.22107">
        <ele>416.8</ele>
        <time>2021-05-31T07:19:44.000Z</time>
      </trkpt>
      <trkpt lat="44.10914" lon="5.22126">
        <ele>417.4</ele>
        <time>2021-05-31T07:19:47.000Z</time>
      </trkpt>
      <trkpt lat="44.10897" lon="5.22145">
        <ele>418</ele>
        <time>2021-05-31T07:19:50.000Z</time>
      </trkpt>
      <trkpt lat="44.1088" lon="5.22163">
        <ele>418.6</ele>
        <time>2021-05-31T07:19:52.000Z</time>
      </trkpt>
      <trkpt lat="44.10864" lon="5.22182">
        <ele>419.1</ele>
        <time>2021-05-31T07:19:55.000Z</time>
      </trkpt>
      <trkpt lat="44.10838" lon="5.2221">
        <ele>419</ele>
        <time>2021-05-31T07:19:58.000Z</time>
      </trkpt>
      <trkpt lat="44.10813" lon="5.22238">
        <ele>418.7</ele>
        <time>2021-05-31T07:20:01.000Z</time>
      </trkpt>
      <trkpt lat="44.10802" lon="5.22252">
        <ele>417.7</ele>
        <time>2021-05-31T07:20:02.000Z</time>
      </trkpt>
      <trkpt lat="44.10787" lon="5.22277">
        <ele>416.9</ele>
        <time>2021-05-31T07:20:04.000Z</time>
      </trkpt>
      <trkpt lat="44.10772" lon="5.22302">
        <ele>416.3</ele>
        <time>2021-05-31T07:20:06.000Z</time>
      </trkpt>
      <trkpt lat="44.1076" lon="5.22318">
        <ele>415.9</ele>
        <time>2021-05-31T07:20:07.000Z</time>
      </trkpt>
      <trkpt lat="44.10747" lon="5.22331">
        <ele>415.6</ele>
        <time>2021-05-31T07:20:09.000Z</time>
      </trkpt>
      <trkpt lat="44.10721" lon="5.22353">
        <ele>415.5</ele>
        <time>2021-05-31T07:20:12.000Z</time>
      </trkpt>
      <trkpt lat="44.10694" lon="5.22374">
        <ele>415.5</ele>
        <time>2021-05-31T07:20:15.000Z</time>
      </trkpt>
      <trkpt lat="44.10668" lon="5.22396">
        <ele>415.4</ele>
        <time>2021-05-31T07:20:18.000Z</time>
      </trkpt>
      <trkpt lat="44.10642" lon="5.22418">
        <ele>415.4</ele>
        <time>2021-05-31T07:20:21.000Z</time>
      </trkpt>
      <trkpt lat="44.10615" lon="5.22439">
        <ele>415.8</ele>
        <time>2021-05-31T07:20:24.000Z</time>
      </trkpt>
      <trkpt lat="44.10589" lon="5.22461">
        <ele>416.3</ele>
        <time>2021-05-31T07:20:27.000Z</time>
      </trkpt>
      <trkpt lat="44.10569" lon="5.2247">
        <ele>416.6</ele>
        <time>2021-05-31T07:20:30.000Z</time>
      </trkpt>
      <trkpt lat="44.10549" lon="5.22478">
        <ele>417.1</ele>
        <time>2021-05-31T07:20:32.000Z</time>
      </trkpt>
      <trkpt lat="44.10533" lon="5.22492">
        <ele>417.7</ele>
        <time>2021-05-31T07:20:35.000Z</time>
      </trkpt>
      <trkpt lat="44.10525" lon="5.22503">
        <ele>418.3</ele>
        <time>2021-05-31T07:20:36.000Z</time>
      </trkpt>
      <trkpt lat="44.10514" lon="5.22528">
        <ele>419.4</ele>
        <time>2021-05-31T07:20:40.000Z</time>
      </trkpt>
      <trkpt lat="44.10502" lon="5.22553">
        <ele>420.6</ele>
        <time>2021-05-31T07:20:43.000Z</time>
      </trkpt>
      <trkpt lat="44.10491" lon="5.22578">
        <ele>421.7</ele>
        <time>2021-05-31T07:20:47.000Z</time>
      </trkpt>
      <trkpt lat="44.10479" lon="5.22603">
        <ele>422.2</ele>
        <time>2021-05-31T07:20:49.000Z</time>
      </trkpt>
      <trkpt lat="44.10468" lon="5.22628">
        <ele>422.6</ele>
        <time>2021-05-31T07:20:52.000Z</time>
      </trkpt>
      <trkpt lat="44.10456" lon="5.22653">
        <ele>423</ele>
        <time>2021-05-31T07:20:54.000Z</time>
      </trkpt>
      <trkpt lat="44.10442" lon="5.22679">
        <ele>423.8</ele>
        <time>2021-05-31T07:20:57.000Z</time>
      </trkpt>
      <trkpt lat="44.10427" lon="5.22705">
        <ele>424.7</ele>
        <time>2021-05-31T07:21:00.000Z</time>
      </trkpt>
      <trkpt lat="44.10398" lon="5.22732">
        <ele>425.5</ele>
        <time>2021-05-31T07:21:04.000Z</time>
      </trkpt>
      <trkpt lat="44.1038" lon="5.22748">
        <ele>426.8</ele>
        <time>2021-05-31T07:21:08.000Z</time>
      </trkpt>
      <trkpt lat="44.10361" lon="5.22763">
        <ele>428</ele>
        <time>2021-05-31T07:21:12.000Z</time>
      </trkpt>
      <trkpt lat="44.10344" lon="5.2278">
        <ele>428.8</ele>
        <time>2021-05-31T07:21:14.000Z</time>
      </trkpt>
      <trkpt lat="44.10327" lon="5.22797">
        <ele>429.6</ele>
        <time>2021-05-31T07:21:17.000Z</time>
      </trkpt>
      <trkpt lat="44.1031" lon="5.22815">
        <ele>430.3</ele>
        <time>2021-05-31T07:21:20.000Z</time>
      </trkpt>
      <trkpt lat="44.10284" lon="5.2284">
        <ele>431</ele>
        <time>2021-05-31T07:21:24.000Z</time>
      </trkpt>
      <trkpt lat="44.10258" lon="5.22866">
        <ele>431.6</ele>
        <time>2021-05-31T07:21:27.000Z</time>
      </trkpt>
      <trkpt lat="44.1024" lon="5.22878">
        <ele>431.9</ele>
        <time>2021-05-31T07:21:30.000Z</time>
      </trkpt>
      <trkpt lat="44.1021" lon="5.22893">
        <ele>432.3</ele>
        <time>2021-05-31T07:21:33.000Z</time>
      </trkpt>
      <trkpt lat="44.10183" lon="5.22905">
        <ele>432.5</ele>
        <time>2021-05-31T07:21:36.000Z</time>
      </trkpt>
      <trkpt lat="44.10157" lon="5.22916">
        <ele>432.8</ele>
        <time>2021-05-31T07:21:39.000Z</time>
      </trkpt>
      <trkpt lat="44.1013" lon="5.22928">
        <ele>433</ele>
        <time>2021-05-31T07:21:42.000Z</time>
      </trkpt>
      <trkpt lat="44.10103" lon="5.22939">
        <ele>433.1</ele>
        <time>2021-05-31T07:21:45.000Z</time>
      </trkpt>
      <trkpt lat="44.10077" lon="5.22951">
        <ele>433.1</ele>
        <time>2021-05-31T07:21:47.000Z</time>
      </trkpt>
      <trkpt lat="44.1005" lon="5.22962">
        <ele>433.2</ele>
        <time>2021-05-31T07:21:50.000Z</time>
      </trkpt>
      <trkpt lat="44.10023" lon="5.22974">
        <ele>433</ele>
        <time>2021-05-31T07:21:53.000Z</time>
      </trkpt>
      <trkpt lat="44.09997" lon="5.22985">
        <ele>432.8</ele>
        <time>2021-05-31T07:21:56.000Z</time>
      </trkpt>
      <trkpt lat="44.0997" lon="5.22997">
        <ele>432.6</ele>
        <time>2021-05-31T07:21:58.000Z</time>
      </trkpt>
      <trkpt lat="44.09934" lon="5.23003">
        <ele>432</ele>
        <time>2021-05-31T07:22:01.000Z</time>
      </trkpt>
      <trkpt lat="44.09906" lon="5.23005">
        <ele>431.5</ele>
        <time>2021-05-31T07:22:04.000Z</time>
      </trkpt>
      <trkpt lat="44.09879" lon="5.23007">
        <ele>430.9</ele>
        <time>2021-05-31T07:22:06.000Z</time>
      </trkpt>
      <trkpt lat="44.09851" lon="5.23009">
        <ele>430</ele>
        <time>2021-05-31T07:22:09.000Z</time>
      </trkpt>
      <trkpt lat="44.09823" lon="5.23011">
        <ele>428.9</ele>
        <time>2021-05-31T07:22:11.000Z</time>
      </trkpt>
      <trkpt lat="44.0981" lon="5.23014">
        <ele>428.2</ele>
        <time>2021-05-31T07:22:12.000Z</time>
      </trkpt>
      <trkpt lat="44.09777" lon="5.23032">
        <ele>427.4</ele>
        <time>2021-05-31T07:22:15.000Z</time>
      </trkpt>
      <trkpt lat="44.09756" lon="5.23058">
        <ele>426.7</ele>
        <time>2021-05-31T07:22:17.000Z</time>
      </trkpt>
      <trkpt lat="44.09749" lon="5.23084">
        <ele>426.6</ele>
        <time>2021-05-31T07:22:19.000Z</time>
      </trkpt>
      <trkpt lat="44.09741" lon="5.23121">
        <ele>426.7</ele>
        <time>2021-05-31T07:22:22.000Z</time>
      </trkpt>
      <trkpt lat="44.09734" lon="5.23159">
        <ele>426.8</ele>
        <time>2021-05-31T07:22:25.000Z</time>
      </trkpt>
      <trkpt lat="44.09726" lon="5.23196">
        <ele>427.3</ele>
        <time>2021-05-31T07:22:28.000Z</time>
      </trkpt>
      <trkpt lat="44.09718" lon="5.23233">
        <ele>427.8</ele>
        <time>2021-05-31T07:22:31.000Z</time>
      </trkpt>
      <trkpt lat="44.09719" lon="5.2326">
        <ele>428.1</ele>
        <time>2021-05-31T07:22:33.000Z</time>
      </trkpt>
      <trkpt lat="44.09729" lon="5.23301">
        <ele>428.5</ele>
        <time>2021-05-31T07:22:37.000Z</time>
      </trkpt>
      <trkpt lat="44.09738" lon="5.23343">
        <ele>428.9</ele>
        <time>2021-05-31T07:22:40.000Z</time>
      </trkpt>
      <trkpt lat="44.09744" lon="5.23374">
        <ele>429</ele>
        <time>2021-05-31T07:22:43.000Z</time>
      </trkpt>
      <trkpt lat="44.0975" lon="5.23406">
        <ele>429.2</ele>
        <time>2021-05-31T07:22:45.000Z</time>
      </trkpt>
      <trkpt lat="44.09749" lon="5.23426">
        <ele>429.2</ele>
        <time>2021-05-31T07:22:47.000Z</time>
      </trkpt>
      <trkpt lat="44.09745" lon="5.23444">
        <ele>429.2</ele>
        <time>2021-05-31T07:22:48.000Z</time>
      </trkpt>
      <trkpt lat="44.09734" lon="5.23471">
        <ele>429.3</ele>
        <time>2021-05-31T07:22:50.000Z</time>
      </trkpt>
      <trkpt lat="44.09722" lon="5.23499">
        <ele>429.5</ele>
        <time>2021-05-31T07:22:53.000Z</time>
      </trkpt>
      <trkpt lat="44.09711" lon="5.23526">
        <ele>429.7</ele>
        <time>2021-05-31T07:22:55.000Z</time>
      </trkpt>
      <trkpt lat="44.09708" lon="5.2355">
        <ele>429.9</ele>
        <time>2021-05-31T07:22:57.000Z</time>
      </trkpt>
      <trkpt lat="44.09709" lon="5.23584">
        <ele>430.4</ele>
        <time>2021-05-31T07:23:00.000Z</time>
      </trkpt>
      <trkpt lat="44.0971" lon="5.23619">
        <ele>431</ele>
        <time>2021-05-31T07:23:03.000Z</time>
      </trkpt>
      <trkpt lat="44.09711" lon="5.23653">
        <ele>431.7</ele>
        <time>2021-05-31T07:23:06.000Z</time>
      </trkpt>
      <trkpt lat="44.09712" lon="5.23688">
        <ele>432.4</ele>
        <time>2021-05-31T07:23:09.000Z</time>
      </trkpt>
      <trkpt lat="44.09716" lon="5.23735">
        <ele>433.1</ele>
        <time>2021-05-31T07:23:13.000Z</time>
      </trkpt>
      <trkpt lat="44.09721" lon="5.23755">
        <ele>433.3</ele>
        <time>2021-05-31T07:23:14.000Z</time>
      </trkpt>
      <trkpt lat="44.09727" lon="5.23765">
        <ele>433.2</ele>
        <time>2021-05-31T07:23:15.000Z</time>
      </trkpt>
      <trkpt lat="44.09734" lon="5.23773">
        <ele>433.1</ele>
        <time>2021-05-31T07:23:16.000Z</time>
      </trkpt>
      <trkpt lat="44.09758" lon="5.23794">
        <ele>432.6</ele>
        <time>2021-05-31T07:23:19.000Z</time>
      </trkpt>
      <trkpt lat="44.09782" lon="5.23815">
        <ele>431.9</ele>
        <time>2021-05-31T07:23:21.000Z</time>
      </trkpt>
      <trkpt lat="44.09805" lon="5.23837">
        <ele>430.6</ele>
        <time>2021-05-31T07:23:23.000Z</time>
      </trkpt>
      <trkpt lat="44.09829" lon="5.23858">
        <ele>429.3</ele>
        <time>2021-05-31T07:23:25.000Z</time>
      </trkpt>
      <trkpt lat="44.09842" lon="5.23875">
        <ele>429</ele>
        <time>2021-05-31T07:23:27.000Z</time>
      </trkpt>
      <trkpt lat="44.09846" lon="5.23885">
        <ele>428.7</ele>
        <time>2021-05-31T07:23:28.000Z</time>
      </trkpt>
      <trkpt lat="44.09847" lon="5.23894">
        <ele>428.5</ele>
        <time>2021-05-31T07:23:28.000Z</time>
      </trkpt>
      <trkpt lat="44.09844" lon="5.23918">
        <ele>428.3</ele>
        <time>2021-05-31T07:23:30.000Z</time>
      </trkpt>
      <trkpt lat="44.09836" lon="5.23951">
        <ele>428.3</ele>
        <time>2021-05-31T07:23:32.000Z</time>
      </trkpt>
      <trkpt lat="44.09828" lon="5.23983">
        <ele>428.2</ele>
        <time>2021-05-31T07:23:35.000Z</time>
      </trkpt>
      <trkpt lat="44.09822" lon="5.23998">
        <ele>428.2</ele>
        <time>2021-05-31T07:23:36.000Z</time>
      </trkpt>
      <trkpt lat="44.09815" lon="5.24006">
        <ele>428.2</ele>
        <time>2021-05-31T07:23:37.000Z</time>
      </trkpt>
      <trkpt lat="44.09818" lon="5.24017">
        <ele>428.4</ele>
        <time>2021-05-31T07:23:38.000Z</time>
      </trkpt>
      <trkpt lat="44.09817" lon="5.24046">
        <ele>429.2</ele>
        <time>2021-05-31T07:23:41.000Z</time>
      </trkpt>
      <trkpt lat="44.09817" lon="5.24075">
        <ele>430.1</ele>
        <time>2021-05-31T07:23:43.000Z</time>
      </trkpt>
      <trkpt lat="44.09816" lon="5.24104">
        <ele>431</ele>
        <time>2021-05-31T07:23:46.000Z</time>
      </trkpt>
      <trkpt lat="44.09818" lon="5.2414">
        <ele>432</ele>
        <time>2021-05-31T07:23:50.000Z</time>
      </trkpt>
      <trkpt lat="44.09822" lon="5.24161">
        <ele>433</ele>
        <time>2021-05-31T07:23:53.000Z</time>
      </trkpt>
      <trkpt lat="44.0983" lon="5.24175">
        <ele>434</ele>
        <time>2021-05-31T07:23:55.000Z</time>
      </trkpt>
      <trkpt lat="44.09838" lon="5.24177">
        <ele>434.5</ele>
        <time>2021-05-31T07:23:57.000Z</time>
      </trkpt>
      <trkpt lat="44.09856" lon="5.24166">
        <ele>435.5</ele>
        <time>2021-05-31T07:24:00.000Z</time>
      </trkpt>
      <trkpt lat="44.09876" lon="5.24163">
        <ele>436.2</ele>
        <time>2021-05-31T07:24:02.000Z</time>
      </trkpt>
      <trkpt lat="44.09896" lon="5.24168">
        <ele>437</ele>
        <time>2021-05-31T07:24:05.000Z</time>
      </trkpt>
      <trkpt lat="44.09916" lon="5.24174">
        <ele>437.8</ele>
        <time>2021-05-31T07:24:08.000Z</time>
      </trkpt>
      <trkpt lat="44.09936" lon="5.24179">
        <ele>438.7</ele>
        <time>2021-05-31T07:24:11.000Z</time>
      </trkpt>
      <trkpt lat="44.09955" lon="5.24185">
        <ele>439.6</ele>
        <time>2021-05-31T07:24:14.000Z</time>
      </trkpt>
      <trkpt lat="44.09975" lon="5.2419">
        <ele>440.5</ele>
        <time>2021-05-31T07:24:17.000Z</time>
      </trkpt>
      <trkpt lat="44.09995" lon="5.24196">
        <ele>441.5</ele>
        <time>2021-05-31T07:24:20.000Z</time>
      </trkpt>
      <trkpt lat="44.10007" lon="5.24203">
        <ele>442.4</ele>
        <time>2021-05-31T07:24:22.000Z</time>
      </trkpt>
      <trkpt lat="44.10011" lon="5.2421">
        <ele>443</ele>
        <time>2021-05-31T07:24:23.000Z</time>
      </trkpt>
      <trkpt lat="44.10013" lon="5.24218">
        <ele>443.7</ele>
        <time>2021-05-31T07:24:25.000Z</time>
      </trkpt>
      <trkpt lat="44.10011" lon="5.24247">
        <ele>444.8</ele>
        <time>2021-05-31T07:24:28.000Z</time>
      </trkpt>
      <trkpt lat="44.10005" lon="5.24286">
        <ele>446.6</ele>
        <time>2021-05-31T07:24:33.000Z</time>
      </trkpt>
      <trkpt lat="44.10001" lon="5.24297">
        <ele>447.5</ele>
        <time>2021-05-31T07:24:35.000Z</time>
      </trkpt>
      <trkpt lat="44.09973" lon="5.24326">
        <ele>449</ele>
        <time>2021-05-31T07:24:40.000Z</time>
      </trkpt>
      <trkpt lat="44.09951" lon="5.24345">
        <ele>450.9</ele>
        <time>2021-05-31T07:24:45.000Z</time>
      </trkpt>
      <trkpt lat="44.09934" lon="5.24356">
        <ele>452.3</ele>
        <time>2021-05-31T07:24:49.000Z</time>
      </trkpt>
      <trkpt lat="44.09918" lon="5.24367">
        <ele>453.7</ele>
        <time>2021-05-31T07:24:52.000Z</time>
      </trkpt>
      <trkpt lat="44.09901" lon="5.24378">
        <ele>455</ele>
        <time>2021-05-31T07:24:56.000Z</time>
      </trkpt>
      <trkpt lat="44.0988" lon="5.24397">
        <ele>456.3</ele>
        <time>2021-05-31T07:25:00.000Z</time>
      </trkpt>
      <trkpt lat="44.09859" lon="5.24417">
        <ele>457.5</ele>
        <time>2021-05-31T07:25:04.000Z</time>
      </trkpt>
      <trkpt lat="44.09845" lon="5.24429">
        <ele>459.1</ele>
        <time>2021-05-31T07:25:07.000Z</time>
      </trkpt>
      <trkpt lat="44.09831" lon="5.24442">
        <ele>460.8</ele>
        <time>2021-05-31T07:25:11.000Z</time>
      </trkpt>
      <trkpt lat="44.09817" lon="5.24455">
        <ele>462.4</ele>
        <time>2021-05-31T07:25:15.000Z</time>
      </trkpt>
      <trkpt lat="44.09799" lon="5.24476">
        <ele>464.1</ele>
        <time>2021-05-31T07:25:20.000Z</time>
      </trkpt>
      <trkpt lat="44.09781" lon="5.24497">
        <ele>465.8</ele>
        <time>2021-05-31T07:25:24.000Z</time>
      </trkpt>
      <trkpt lat="44.09763" lon="5.24517">
        <ele>467.3</ele>
        <time>2021-05-31T07:25:28.000Z</time>
      </trkpt>
      <trkpt lat="44.09745" lon="5.24538">
        <ele>469</ele>
        <time>2021-05-31T07:25:32.000Z</time>
      </trkpt>
      <trkpt lat="44.09724" lon="5.24558">
        <ele>471.8</ele>
        <time>2021-05-31T07:25:39.000Z</time>
      </trkpt>
      <trkpt lat="44.09705" lon="5.24568">
        <ele>472.8</ele>
        <time>2021-05-31T07:25:42.000Z</time>
      </trkpt>
      <trkpt lat="44.09687" lon="5.24577">
        <ele>473.6</ele>
        <time>2021-05-31T07:25:44.000Z</time>
      </trkpt>
      <trkpt lat="44.09668" lon="5.24587">
        <ele>474.4</ele>
        <time>2021-05-31T07:25:47.000Z</time>
      </trkpt>
      <trkpt lat="44.09659" lon="5.24596">
        <ele>474.9</ele>
        <time>2021-05-31T07:25:49.000Z</time>
      </trkpt>
      <trkpt lat="44.09651" lon="5.24607">
        <ele>475.4</ele>
        <time>2021-05-31T07:25:50.000Z</time>
      </trkpt>
      <trkpt lat="44.09644" lon="5.24633">
        <ele>476.1</ele>
        <time>2021-05-31T07:25:53.000Z</time>
      </trkpt>
      <trkpt lat="44.09645" lon="5.24646">
        <ele>476.5</ele>
        <time>2021-05-31T07:25:54.000Z</time>
      </trkpt>
      <trkpt lat="44.09648" lon="5.24658">
        <ele>476.8</ele>
        <time>2021-05-31T07:25:56.000Z</time>
      </trkpt>
      <trkpt lat="44.09656" lon="5.2467">
        <ele>477</ele>
        <time>2021-05-31T07:25:57.000Z</time>
      </trkpt>
      <trkpt lat="44.09671" lon="5.24684">
        <ele>477.7</ele>
        <time>2021-05-31T07:25:59.000Z</time>
      </trkpt>
      <trkpt lat="44.09689" lon="5.24698">
        <ele>478.9</ele>
        <time>2021-05-31T07:26:03.000Z</time>
      </trkpt>
      <trkpt lat="44.09706" lon="5.24712">
        <ele>480.1</ele>
        <time>2021-05-31T07:26:06.000Z</time>
      </trkpt>
      <trkpt lat="44.09724" lon="5.24727">
        <ele>481.3</ele>
        <time>2021-05-31T07:26:10.000Z</time>
      </trkpt>
      <trkpt lat="44.09741" lon="5.24741">
        <ele>482.5</ele>
        <time>2021-05-31T07:26:13.000Z</time>
      </trkpt>
      <trkpt lat="44.09759" lon="5.24755">
        <ele>483.9</ele>
        <time>2021-05-31T07:26:17.000Z</time>
      </trkpt>
      <trkpt lat="44.09776" lon="5.24769">
        <ele>485.4</ele>
        <time>2021-05-31T07:26:21.000Z</time>
      </trkpt>
      <trkpt lat="44.09794" lon="5.24784">
        <ele>486.8</ele>
        <time>2021-05-31T07:26:24.000Z</time>
      </trkpt>
      <trkpt lat="44.09811" lon="5.24798">
        <ele>488.3</ele>
        <time>2021-05-31T07:26:28.000Z</time>
      </trkpt>
      <trkpt lat="44.09838" lon="5.24815">
        <ele>490.8</ele>
        <time>2021-05-31T07:26:34.000Z</time>
      </trkpt>
      <trkpt lat="44.09856" lon="5.2482">
        <ele>492.7</ele>
        <time>2021-05-31T07:26:39.000Z</time>
      </trkpt>
      <trkpt lat="44.09879" lon="5.24824">
        <ele>493.3</ele>
        <time>2021-05-31T07:26:42.000Z</time>
      </trkpt>
      <trkpt lat="44.09903" lon="5.24828">
        <ele>494</ele>
        <time>2021-05-31T07:26:44.000Z</time>
      </trkpt>
      <trkpt lat="44.09918" lon="5.24831">
        <ele>495.6</ele>
        <time>2021-05-31T07:26:48.000Z</time>
      </trkpt>
      <trkpt lat="44.09934" lon="5.24833">
        <ele>497.4</ele>
        <time>2021-05-31T07:26:52.000Z</time>
      </trkpt>
      <trkpt lat="44.09949" lon="5.24836">
        <ele>499.2</ele>
        <time>2021-05-31T07:26:56.000Z</time>
      </trkpt>
      <trkpt lat="44.09969" lon="5.24841">
        <ele>501</ele>
        <time>2021-05-31T07:27:01.000Z</time>
      </trkpt>
      <trkpt lat="44.0999" lon="5.24845">
        <ele>502.8</ele>
        <time>2021-05-31T07:27:05.000Z</time>
      </trkpt>
      <trkpt lat="44.1001" lon="5.2485">
        <ele>504.5</ele>
        <time>2021-05-31T07:27:09.000Z</time>
      </trkpt>
      <trkpt lat="44.10017" lon="5.24857">
        <ele>505.1</ele>
        <time>2021-05-31T07:27:11.000Z</time>
      </trkpt>
      <trkpt lat="44.10023" lon="5.24877">
        <ele>505.7</ele>
        <time>2021-05-31T07:27:13.000Z</time>
      </trkpt>
      <trkpt lat="44.10023" lon="5.24899">
        <ele>506.1</ele>
        <time>2021-05-31T07:27:15.000Z</time>
      </trkpt>
      <trkpt lat="44.10016" lon="5.24937">
        <ele>507.4</ele>
        <time>2021-05-31T07:27:19.000Z</time>
      </trkpt>
      <trkpt lat="44.10008" lon="5.24957">
        <ele>508.5</ele>
        <time>2021-05-31T07:27:22.000Z</time>
      </trkpt>
      <trkpt lat="44.09999" lon="5.24977">
        <ele>509.6</ele>
        <time>2021-05-31T07:27:25.000Z</time>
      </trkpt>
      <trkpt lat="44.0998" lon="5.25006">
        <ele>510.8</ele>
        <time>2021-05-31T07:27:29.000Z</time>
      </trkpt>
      <trkpt lat="44.09964" lon="5.25023">
        <ele>512</ele>
        <time>2021-05-31T07:27:32.000Z</time>
      </trkpt>
      <trkpt lat="44.09958" lon="5.25035">
        <ele>512.7</ele>
        <time>2021-05-31T07:27:34.000Z</time>
      </trkpt>
      <trkpt lat="44.09948" lon="5.25064">
        <ele>514</ele>
        <time>2021-05-31T07:27:38.000Z</time>
      </trkpt>
      <trkpt lat="44.09943" lon="5.25092">
        <ele>515.6</ele>
        <time>2021-05-31T07:27:42.000Z</time>
      </trkpt>
      <trkpt lat="44.09944" lon="5.25108">
        <ele>516.2</ele>
        <time>2021-05-31T07:27:44.000Z</time>
      </trkpt>
      <trkpt lat="44.09952" lon="5.25143">
        <ele>517.7</ele>
        <time>2021-05-31T07:27:48.000Z</time>
      </trkpt>
      <trkpt lat="44.09952" lon="5.25152">
        <ele>518</ele>
        <time>2021-05-31T07:27:49.000Z</time>
      </trkpt>
      <trkpt lat="44.09949" lon="5.25163">
        <ele>518.3</ele>
        <time>2021-05-31T07:27:50.000Z</time>
      </trkpt>
      <trkpt lat="44.09942" lon="5.25172">
        <ele>518.7</ele>
        <time>2021-05-31T07:27:52.000Z</time>
      </trkpt>
      <trkpt lat="44.09935" lon="5.25177">
        <ele>519.1</ele>
        <time>2021-05-31T07:27:53.000Z</time>
      </trkpt>
      <trkpt lat="44.09902" lon="5.25189">
        <ele>519.9</ele>
        <time>2021-05-31T07:27:57.000Z</time>
      </trkpt>
      <trkpt lat="44.09874" lon="5.25208">
        <ele>521.4</ele>
        <time>2021-05-31T07:28:02.000Z</time>
      </trkpt>
      <trkpt lat="44.09854" lon="5.25229">
        <ele>522.9</ele>
        <time>2021-05-31T07:28:06.000Z</time>
      </trkpt>
      <trkpt lat="44.09834" lon="5.25251">
        <ele>524.4</ele>
        <time>2021-05-31T07:28:10.000Z</time>
      </trkpt>
      <trkpt lat="44.09814" lon="5.25272">
        <ele>526</ele>
        <time>2021-05-31T07:28:14.000Z</time>
      </trkpt>
      <trkpt lat="44.09794" lon="5.25289">
        <ele>527.7</ele>
        <time>2021-05-31T07:28:19.000Z</time>
      </trkpt>
      <trkpt lat="44.09774" lon="5.25306">
        <ele>529.5</ele>
        <time>2021-05-31T07:28:23.000Z</time>
      </trkpt>
      <trkpt lat="44.09754" lon="5.25323">
        <ele>531.3</ele>
        <time>2021-05-31T07:28:28.000Z</time>
      </trkpt>
      <trkpt lat="44.09734" lon="5.2534">
        <ele>532.8</ele>
        <time>2021-05-31T07:28:32.000Z</time>
      </trkpt>
      <trkpt lat="44.09714" lon="5.25357">
        <ele>534.2</ele>
        <time>2021-05-31T07:28:36.000Z</time>
      </trkpt>
      <trkpt lat="44.09694" lon="5.25374">
        <ele>535.7</ele>
        <time>2021-05-31T07:28:40.000Z</time>
      </trkpt>
      <trkpt lat="44.09672" lon="5.25389">
        <ele>537.1</ele>
        <time>2021-05-31T07:28:44.000Z</time>
      </trkpt>
      <trkpt lat="44.09649" lon="5.25404">
        <ele>538.5</ele>
        <time>2021-05-31T07:28:48.000Z</time>
      </trkpt>
      <trkpt lat="44.09627" lon="5.25419">
        <ele>539.2</ele>
        <time>2021-05-31T07:28:51.000Z</time>
      </trkpt>
      <trkpt lat="44.09604" lon="5.25434">
        <ele>539.9</ele>
        <time>2021-05-31T07:28:54.000Z</time>
      </trkpt>
      <trkpt lat="44.09584" lon="5.25449">
        <ele>540.9</ele>
        <time>2021-05-31T07:28:58.000Z</time>
      </trkpt>
      <trkpt lat="44.09563" lon="5.25464">
        <ele>542</ele>
        <time>2021-05-31T07:29:01.000Z</time>
      </trkpt>
      <trkpt lat="44.09545" lon="5.25481">
        <ele>543.4</ele>
        <time>2021-05-31T07:29:05.000Z</time>
      </trkpt>
      <trkpt lat="44.09526" lon="5.25497">
        <ele>544.7</ele>
        <time>2021-05-31T07:29:09.000Z</time>
      </trkpt>
      <trkpt lat="44.09508" lon="5.25514">
        <ele>546.1</ele>
        <time>2021-05-31T07:29:13.000Z</time>
      </trkpt>
      <trkpt lat="44.0949" lon="5.2553">
        <ele>547.2</ele>
        <time>2021-05-31T07:29:16.000Z</time>
      </trkpt>
      <trkpt lat="44.09471" lon="5.25547">
        <ele>548.3</ele>
        <time>2021-05-31T07:29:19.000Z</time>
      </trkpt>
      <trkpt lat="44.09453" lon="5.25563">
        <ele>549.3</ele>
        <time>2021-05-31T07:29:23.000Z</time>
      </trkpt>
      <trkpt lat="44.09437" lon="5.25579">
        <ele>550.4</ele>
        <time>2021-05-31T07:29:26.000Z</time>
      </trkpt>
      <trkpt lat="44.09433" lon="5.25586">
        <ele>550.7</ele>
        <time>2021-05-31T07:29:27.000Z</time>
      </trkpt>
      <trkpt lat="44.09432" lon="5.25598">
        <ele>551.3</ele>
        <time>2021-05-31T07:29:28.000Z</time>
      </trkpt>
      <trkpt lat="44.09435" lon="5.25603">
        <ele>551.6</ele>
        <time>2021-05-31T07:29:29.000Z</time>
      </trkpt>
      <trkpt lat="44.09443" lon="5.25605">
        <ele>552</ele>
        <time>2021-05-31T07:29:30.000Z</time>
      </trkpt>
      <trkpt lat="44.0946" lon="5.25594">
        <ele>552.8</ele>
        <time>2021-05-31T07:29:33.000Z</time>
      </trkpt>
      <trkpt lat="44.09477" lon="5.25582">
        <ele>553.7</ele>
        <time>2021-05-31T07:29:36.000Z</time>
      </trkpt>
      <trkpt lat="44.09494" lon="5.25576">
        <ele>554.9</ele>
        <time>2021-05-31T07:29:39.000Z</time>
      </trkpt>
      <trkpt lat="44.09513" lon="5.25574">
        <ele>555.8</ele>
        <time>2021-05-31T07:29:42.000Z</time>
      </trkpt>
      <trkpt lat="44.0954" lon="5.25574">
        <ele>557</ele>
        <time>2021-05-31T07:29:46.000Z</time>
      </trkpt>
      <trkpt lat="44.09568" lon="5.25574">
        <ele>558.2</ele>
        <time>2021-05-31T07:29:50.000Z</time>
      </trkpt>
      <trkpt lat="44.09595" lon="5.25574">
        <ele>559.5</ele>
        <time>2021-05-31T07:29:54.000Z</time>
      </trkpt>
      <trkpt lat="44.09615" lon="5.25574">
        <ele>561</ele>
        <time>2021-05-31T07:29:58.000Z</time>
      </trkpt>
      <trkpt lat="44.09636" lon="5.25574">
        <ele>562.6</ele>
        <time>2021-05-31T07:30:02.000Z</time>
      </trkpt>
      <trkpt lat="44.09656" lon="5.25574">
        <ele>564.2</ele>
        <time>2021-05-31T07:30:06.000Z</time>
      </trkpt>
      <trkpt lat="44.09677" lon="5.25574">
        <ele>565.8</ele>
        <time>2021-05-31T07:30:10.000Z</time>
      </trkpt>
      <trkpt lat="44.09697" lon="5.25574">
        <ele>567.3</ele>
        <time>2021-05-31T07:30:14.000Z</time>
      </trkpt>
      <trkpt lat="44.09717" lon="5.25574">
        <ele>568.7</ele>
        <time>2021-05-31T07:30:17.000Z</time>
      </trkpt>
      <trkpt lat="44.09738" lon="5.25574">
        <ele>570.2</ele>
        <time>2021-05-31T07:30:21.000Z</time>
      </trkpt>
      <trkpt lat="44.09758" lon="5.25574">
        <ele>571.6</ele>
        <time>2021-05-31T07:30:25.000Z</time>
      </trkpt>
      <trkpt lat="44.09779" lon="5.25574">
        <ele>572.8</ele>
        <time>2021-05-31T07:30:29.000Z</time>
      </trkpt>
      <trkpt lat="44.09799" lon="5.25574">
        <ele>574</ele>
        <time>2021-05-31T07:30:32.000Z</time>
      </trkpt>
      <trkpt lat="44.0982" lon="5.25574">
        <ele>575.2</ele>
        <time>2021-05-31T07:30:35.000Z</time>
      </trkpt>
      <trkpt lat="44.0984" lon="5.25574">
        <ele>576.3</ele>
        <time>2021-05-31T07:30:39.000Z</time>
      </trkpt>
      <trkpt lat="44.09861" lon="5.25574">
        <ele>577.7</ele>
        <time>2021-05-31T07:30:42.000Z</time>
      </trkpt>
      <trkpt lat="44.09881" lon="5.25574">
        <ele>579.1</ele>
        <time>2021-05-31T07:30:46.000Z</time>
      </trkpt>
      <trkpt lat="44.09902" lon="5.25574">
        <ele>580.4</ele>
        <time>2021-05-31T07:30:50.000Z</time>
      </trkpt>
      <trkpt lat="44.09922" lon="5.25574">
        <ele>581.8</ele>
        <time>2021-05-31T07:30:53.000Z</time>
      </trkpt>
      <trkpt lat="44.09938" lon="5.25578">
        <ele>582.8</ele>
        <time>2021-05-31T07:30:56.000Z</time>
      </trkpt>
      <trkpt lat="44.09962" lon="5.2559">
        <ele>585.6</ele>
        <time>2021-05-31T07:31:02.000Z</time>
      </trkpt>
      <trkpt lat="44.09983" lon="5.25606">
        <ele>586.9</ele>
        <time>2021-05-31T07:31:06.000Z</time>
      </trkpt>
      <trkpt lat="44.10005" lon="5.25621">
        <ele>587.9</ele>
        <time>2021-05-31T07:31:10.000Z</time>
      </trkpt>
      <trkpt lat="44.10026" lon="5.25637">
        <ele>589.1</ele>
        <time>2021-05-31T07:31:13.000Z</time>
      </trkpt>
      <trkpt lat="44.10042" lon="5.25646">
        <ele>590.3</ele>
        <time>2021-05-31T07:31:17.000Z</time>
      </trkpt>
      <trkpt lat="44.10058" lon="5.25656">
        <ele>591.7</ele>
        <time>2021-05-31T07:31:20.000Z</time>
      </trkpt>
      <trkpt lat="44.10078" lon="5.25663">
        <ele>593.4</ele>
        <time>2021-05-31T07:31:24.000Z</time>
      </trkpt>
      <trkpt lat="44.10098" lon="5.2567">
        <ele>595</ele>
        <time>2021-05-31T07:31:28.000Z</time>
      </trkpt>
      <trkpt lat="44.10124" lon="5.25675">
        <ele>596.4</ele>
        <time>2021-05-31T07:31:33.000Z</time>
      </trkpt>
      <trkpt lat="44.1015" lon="5.25681">
        <ele>597.8</ele>
        <time>2021-05-31T07:31:37.000Z</time>
      </trkpt>
      <trkpt lat="44.10161" lon="5.25681">
        <ele>598.5</ele>
        <time>2021-05-31T07:31:39.000Z</time>
      </trkpt>
      <trkpt lat="44.10172" lon="5.25678">
        <ele>599.2</ele>
        <time>2021-05-31T07:31:41.000Z</time>
      </trkpt>
      <trkpt lat="44.10187" lon="5.25663">
        <ele>600.1</ele>
        <time>2021-05-31T07:31:43.000Z</time>
      </trkpt>
      <trkpt lat="44.10209" lon="5.2563">
        <ele>601.5</ele>
        <time>2021-05-31T07:31:48.000Z</time>
      </trkpt>
      <trkpt lat="44.10219" lon="5.25622">
        <ele>602.2</ele>
        <time>2021-05-31T07:31:50.000Z</time>
      </trkpt>
      <trkpt lat="44.10233" lon="5.25616">
        <ele>602.8</ele>
        <time>2021-05-31T07:31:52.000Z</time>
      </trkpt>
      <trkpt lat="44.10249" lon="5.25612">
        <ele>603.5</ele>
        <time>2021-05-31T07:31:54.000Z</time>
      </trkpt>
      <trkpt lat="44.10272" lon="5.2561">
        <ele>604.2</ele>
        <time>2021-05-31T07:31:57.000Z</time>
      </trkpt>
      <trkpt lat="44.10293" lon="5.2561">
        <ele>605.5</ele>
        <time>2021-05-31T07:32:01.000Z</time>
      </trkpt>
      <trkpt lat="44.10315" lon="5.2561">
        <ele>606.9</ele>
        <time>2021-05-31T07:32:05.000Z</time>
      </trkpt>
      <trkpt lat="44.10336" lon="5.2561">
        <ele>608.2</ele>
        <time>2021-05-31T07:32:08.000Z</time>
      </trkpt>
      <trkpt lat="44.10357" lon="5.2561">
        <ele>609.6</ele>
        <time>2021-05-31T07:32:12.000Z</time>
      </trkpt>
      <trkpt lat="44.10378" lon="5.25611">
        <ele>610.8</ele>
        <time>2021-05-31T07:32:15.000Z</time>
      </trkpt>
      <trkpt lat="44.104" lon="5.25611">
        <ele>611.9</ele>
        <time>2021-05-31T07:32:19.000Z</time>
      </trkpt>
      <trkpt lat="44.10421" lon="5.25611">
        <ele>613.1</ele>
        <time>2021-05-31T07:32:22.000Z</time>
      </trkpt>
      <trkpt lat="44.10442" lon="5.25611">
        <ele>614.2</ele>
        <time>2021-05-31T07:32:26.000Z</time>
      </trkpt>
      <trkpt lat="44.10463" lon="5.25613">
        <ele>615.6</ele>
        <time>2021-05-31T07:32:29.000Z</time>
      </trkpt>
      <trkpt lat="44.10476" lon="5.25609">
        <ele>616.7</ele>
        <time>2021-05-31T07:32:32.000Z</time>
      </trkpt>
      <trkpt lat="44.10486" lon="5.25599">
        <ele>617.8</ele>
        <time>2021-05-31T07:32:35.000Z</time>
      </trkpt>
      <trkpt lat="44.105" lon="5.25579">
        <ele>619</ele>
        <time>2021-05-31T07:32:38.000Z</time>
      </trkpt>
      <trkpt lat="44.10511" lon="5.25567">
        <ele>619.6</ele>
        <time>2021-05-31T07:32:40.000Z</time>
      </trkpt>
      <trkpt lat="44.10519" lon="5.25562">
        <ele>620.1</ele>
        <time>2021-05-31T07:32:42.000Z</time>
      </trkpt>
      <trkpt lat="44.10527" lon="5.25561">
        <ele>620.7</ele>
        <time>2021-05-31T07:32:43.000Z</time>
      </trkpt>
      <trkpt lat="44.10533" lon="5.25563">
        <ele>621.3</ele>
        <time>2021-05-31T07:32:45.000Z</time>
      </trkpt>
      <trkpt lat="44.10537" lon="5.25569">
        <ele>621.9</ele>
        <time>2021-05-31T07:32:46.000Z</time>
      </trkpt>
      <trkpt lat="44.10538" lon="5.25577">
        <ele>622.4</ele>
        <time>2021-05-31T07:32:47.000Z</time>
      </trkpt>
      <trkpt lat="44.10537" lon="5.25586">
        <ele>622.9</ele>
        <time>2021-05-31T07:32:49.000Z</time>
      </trkpt>
      <trkpt lat="44.10519" lon="5.25619">
        <ele>624.7</ele>
        <time>2021-05-31T07:32:54.000Z</time>
      </trkpt>
      <trkpt lat="44.10507" lon="5.25654">
        <ele>626.4</ele>
        <time>2021-05-31T07:32:58.000Z</time>
      </trkpt>
      <trkpt lat="44.10499" lon="5.25668">
        <ele>627.1</ele>
        <time>2021-05-31T07:33:00.000Z</time>
      </trkpt>
      <trkpt lat="44.10488" lon="5.2568">
        <ele>627.8</ele>
        <time>2021-05-31T07:33:03.000Z</time>
      </trkpt>
      <trkpt lat="44.1047" lon="5.25692">
        <ele>629.3</ele>
        <time>2021-05-31T07:33:06.000Z</time>
      </trkpt>
      <trkpt lat="44.10452" lon="5.25705">
        <ele>630.8</ele>
        <time>2021-05-31T07:33:10.000Z</time>
      </trkpt>
      <trkpt lat="44.10434" lon="5.25717">
        <ele>632.4</ele>
        <time>2021-05-31T07:33:14.000Z</time>
      </trkpt>
      <trkpt lat="44.10416" lon="5.25729">
        <ele>634.1</ele>
        <time>2021-05-31T07:33:19.000Z</time>
      </trkpt>
      <trkpt lat="44.10397" lon="5.25747">
        <ele>636.7</ele>
        <time>2021-05-31T07:33:24.000Z</time>
      </trkpt>
      <trkpt lat="44.1038" lon="5.25769">
        <ele>639.3</ele>
        <time>2021-05-31T07:33:30.000Z</time>
      </trkpt>
      <trkpt lat="44.10371" lon="5.25793">
        <ele>640.7</ele>
        <time>2021-05-31T07:33:34.000Z</time>
      </trkpt>
      <trkpt lat="44.10365" lon="5.25818">
        <ele>641.9</ele>
        <time>2021-05-31T07:33:37.000Z</time>
      </trkpt>
      <trkpt lat="44.10365" lon="5.25851">
        <ele>643.6</ele>
        <time>2021-05-31T07:33:41.000Z</time>
      </trkpt>
      <trkpt lat="44.10369" lon="5.25885">
        <ele>645.5</ele>
        <time>2021-05-31T07:33:46.000Z</time>
      </trkpt>
      <trkpt lat="44.10374" lon="5.25903">
        <ele>647</ele>
        <time>2021-05-31T07:33:50.000Z</time>
      </trkpt>
      <trkpt lat="44.10379" lon="5.25922">
        <ele>648.5</ele>
        <time>2021-05-31T07:33:53.000Z</time>
      </trkpt>
      <trkpt lat="44.10393" lon="5.25952">
        <ele>651.4</ele>
        <time>2021-05-31T07:34:00.000Z</time>
      </trkpt>
      <trkpt lat="44.10406" lon="5.25976">
        <ele>652.6</ele>
        <time>2021-05-31T07:34:03.000Z</time>
      </trkpt>
      <trkpt lat="44.10418" lon="5.25999">
        <ele>653.5</ele>
        <time>2021-05-31T07:34:06.000Z</time>
      </trkpt>
      <trkpt lat="44.10431" lon="5.26023">
        <ele>654.5</ele>
        <time>2021-05-31T07:34:09.000Z</time>
      </trkpt>
      <trkpt lat="44.10443" lon="5.26047">
        <ele>655.5</ele>
        <time>2021-05-31T07:34:12.000Z</time>
      </trkpt>
      <trkpt lat="44.10453" lon="5.26068">
        <ele>656.7</ele>
        <time>2021-05-31T07:34:16.000Z</time>
      </trkpt>
      <trkpt lat="44.10463" lon="5.26089">
        <ele>658</ele>
        <time>2021-05-31T07:34:19.000Z</time>
      </trkpt>
      <trkpt lat="44.10474" lon="5.26119">
        <ele>659.7</ele>
        <time>2021-05-31T07:34:23.000Z</time>
      </trkpt>
      <trkpt lat="44.10485" lon="5.26148">
        <ele>661.5</ele>
        <time>2021-05-31T07:34:28.000Z</time>
      </trkpt>
      <trkpt lat="44.10496" lon="5.26178">
        <ele>663.3</ele>
        <time>2021-05-31T07:34:33.000Z</time>
      </trkpt>
      <trkpt lat="44.10508" lon="5.26201">
        <ele>665.7</ele>
        <time>2021-05-31T07:34:38.000Z</time>
      </trkpt>
      <trkpt lat="44.10522" lon="5.26221">
        <ele>667.1</ele>
        <time>2021-05-31T07:34:42.000Z</time>
      </trkpt>
      <trkpt lat="44.10539" lon="5.26235">
        <ele>668.2</ele>
        <time>2021-05-31T07:34:45.000Z</time>
      </trkpt>
      <trkpt lat="44.10556" lon="5.2625">
        <ele>669.2</ele>
        <time>2021-05-31T07:34:48.000Z</time>
      </trkpt>
      <trkpt lat="44.10574" lon="5.26264">
        <ele>670.3</ele>
        <time>2021-05-31T07:34:51.000Z</time>
      </trkpt>
      <trkpt lat="44.10591" lon="5.26279">
        <ele>672</ele>
        <time>2021-05-31T07:34:55.000Z</time>
      </trkpt>
      <trkpt lat="44.10608" lon="5.26293">
        <ele>673.7</ele>
        <time>2021-05-31T07:35:00.000Z</time>
      </trkpt>
      <trkpt lat="44.10625" lon="5.26308">
        <ele>675.4</ele>
        <time>2021-05-31T07:35:04.000Z</time>
      </trkpt>
      <trkpt lat="44.10642" lon="5.26322">
        <ele>676.9</ele>
        <time>2021-05-31T07:35:08.000Z</time>
      </trkpt>
      <trkpt lat="44.1066" lon="5.26335">
        <ele>678.3</ele>
        <time>2021-05-31T07:35:11.000Z</time>
      </trkpt>
      <trkpt lat="44.10677" lon="5.26349">
        <ele>679.7</ele>
        <time>2021-05-31T07:35:15.000Z</time>
      </trkpt>
      <trkpt lat="44.10694" lon="5.26363">
        <ele>681</ele>
        <time>2021-05-31T07:35:18.000Z</time>
      </trkpt>
      <trkpt lat="44.10712" lon="5.26376">
        <ele>682.3</ele>
        <time>2021-05-31T07:35:22.000Z</time>
      </trkpt>
      <trkpt lat="44.10729" lon="5.2639">
        <ele>683.6</ele>
        <time>2021-05-31T07:35:25.000Z</time>
      </trkpt>
      <trkpt lat="44.10733" lon="5.26396">
        <ele>683.9</ele>
        <time>2021-05-31T07:35:26.000Z</time>
      </trkpt>
      <trkpt lat="44.10734" lon="5.26405">
        <ele>684.2</ele>
        <time>2021-05-31T07:35:27.000Z</time>
      </trkpt>
      <trkpt lat="44.1073" lon="5.26421">
        <ele>684.7</ele>
        <time>2021-05-31T07:35:29.000Z</time>
      </trkpt>
      <trkpt lat="44.10714" lon="5.26442">
        <ele>686.2</ele>
        <time>2021-05-31T07:35:33.000Z</time>
      </trkpt>
      <trkpt lat="44.10697" lon="5.26463">
        <ele>687.7</ele>
        <time>2021-05-31T07:35:37.000Z</time>
      </trkpt>
      <trkpt lat="44.10681" lon="5.26484">
        <ele>689.2</ele>
        <time>2021-05-31T07:35:41.000Z</time>
      </trkpt>
      <trkpt lat="44.1066" lon="5.2652">
        <ele>690.8</ele>
        <time>2021-05-31T07:35:46.000Z</time>
      </trkpt>
      <trkpt lat="44.10648" lon="5.26546">
        <ele>692.5</ele>
        <time>2021-05-31T07:35:50.000Z</time>
      </trkpt>
      <trkpt lat="44.10639" lon="5.26583">
        <ele>694.4</ele>
        <time>2021-05-31T07:35:56.000Z</time>
      </trkpt>
      <trkpt lat="44.10635" lon="5.26617">
        <ele>695.9</ele>
        <time>2021-05-31T07:36:00.000Z</time>
      </trkpt>
      <trkpt lat="44.10631" lon="5.2665">
        <ele>697.5</ele>
        <time>2021-05-31T07:36:04.000Z</time>
      </trkpt>
      <trkpt lat="44.10631" lon="5.26676">
        <ele>699.8</ele>
        <time>2021-05-31T07:36:09.000Z</time>
      </trkpt>
      <trkpt lat="44.10636" lon="5.26714">
        <ele>701.3</ele>
        <time>2021-05-31T07:36:13.000Z</time>
      </trkpt>
      <trkpt lat="44.1064" lon="5.26752">
        <ele>702.5</ele>
        <time>2021-05-31T07:36:17.000Z</time>
      </trkpt>
      <trkpt lat="44.10649" lon="5.26788">
        <ele>703.8</ele>
        <time>2021-05-31T07:36:21.000Z</time>
      </trkpt>
      <trkpt lat="44.10656" lon="5.26806">
        <ele>705.3</ele>
        <time>2021-05-31T07:36:25.000Z</time>
      </trkpt>
      <trkpt lat="44.10663" lon="5.26824">
        <ele>706.7</ele>
        <time>2021-05-31T07:36:28.000Z</time>
      </trkpt>
      <trkpt lat="44.10673" lon="5.26845">
        <ele>707.7</ele>
        <time>2021-05-31T07:36:31.000Z</time>
      </trkpt>
      <trkpt lat="44.10683" lon="5.26867">
        <ele>708.5</ele>
        <time>2021-05-31T07:36:34.000Z</time>
      </trkpt>
      <trkpt lat="44.10695" lon="5.26886">
        <ele>709.6</ele>
        <time>2021-05-31T07:36:37.000Z</time>
      </trkpt>
      <trkpt lat="44.10707" lon="5.26906">
        <ele>710.6</ele>
        <time>2021-05-31T07:36:40.000Z</time>
      </trkpt>
      <trkpt lat="44.10725" lon="5.26929">
        <ele>711.8</ele>
        <time>2021-05-31T07:36:44.000Z</time>
      </trkpt>
      <trkpt lat="44.10743" lon="5.26952">
        <ele>713</ele>
        <time>2021-05-31T07:36:47.000Z</time>
      </trkpt>
      <trkpt lat="44.10761" lon="5.26975">
        <ele>714.3</ele>
        <time>2021-05-31T07:36:51.000Z</time>
      </trkpt>
      <trkpt lat="44.10765" lon="5.26986">
        <ele>714.8</ele>
        <time>2021-05-31T07:36:53.000Z</time>
      </trkpt>
      <trkpt lat="44.10764" lon="5.26996">
        <ele>715.3</ele>
        <time>2021-05-31T07:36:54.000Z</time>
      </trkpt>
      <trkpt lat="44.10761" lon="5.27001">
        <ele>715.7</ele>
        <time>2021-05-31T07:36:55.000Z</time>
      </trkpt>
      <trkpt lat="44.10751" lon="5.27015">
        <ele>716.5</ele>
        <time>2021-05-31T07:36:57.000Z</time>
      </trkpt>
      <trkpt lat="44.10737" lon="5.27024">
        <ele>717.7</ele>
        <time>2021-05-31T07:37:00.000Z</time>
      </trkpt>
      <trkpt lat="44.10715" lon="5.2703">
        <ele>718.5</ele>
        <time>2021-05-31T07:37:03.000Z</time>
      </trkpt>
      <trkpt lat="44.10693" lon="5.27037">
        <ele>719.3</ele>
        <time>2021-05-31T07:37:06.000Z</time>
      </trkpt>
      <trkpt lat="44.1067" lon="5.27043">
        <ele>720.5</ele>
        <time>2021-05-31T07:37:10.000Z</time>
      </trkpt>
      <trkpt lat="44.10648" lon="5.27049">
        <ele>721.8</ele>
        <time>2021-05-31T07:37:14.000Z</time>
      </trkpt>
      <trkpt lat="44.1063" lon="5.27058">
        <ele>722.5</ele>
        <time>2021-05-31T07:37:16.000Z</time>
      </trkpt>
      <trkpt lat="44.10611" lon="5.27071">
        <ele>723.1</ele>
        <time>2021-05-31T07:37:19.000Z</time>
      </trkpt>
      <trkpt lat="44.10599" lon="5.27087">
        <ele>723.8</ele>
        <time>2021-05-31T07:37:21.000Z</time>
      </trkpt>
      <trkpt lat="44.10588" lon="5.27106">
        <ele>724.8</ele>
        <time>2021-05-31T07:37:24.000Z</time>
      </trkpt>
      <trkpt lat="44.1058" lon="5.27128">
        <ele>725.5</ele>
        <time>2021-05-31T07:37:27.000Z</time>
      </trkpt>
      <trkpt lat="44.10573" lon="5.2716">
        <ele>726.3</ele>
        <time>2021-05-31T07:37:30.000Z</time>
      </trkpt>
      <trkpt lat="44.10567" lon="5.27194">
        <ele>727.5</ele>
        <time>2021-05-31T07:37:33.000Z</time>
      </trkpt>
      <trkpt lat="44.10561" lon="5.27227">
        <ele>728.6</ele>
        <time>2021-05-31T07:37:37.000Z</time>
      </trkpt>
      <trkpt lat="44.1056" lon="5.27259">
        <ele>729.6</ele>
        <time>2021-05-31T07:37:40.000Z</time>
      </trkpt>
      <trkpt lat="44.10559" lon="5.2729">
        <ele>730.5</ele>
        <time>2021-05-31T07:37:43.000Z</time>
      </trkpt>
      <trkpt lat="44.10558" lon="5.27322">
        <ele>731.5</ele>
        <time>2021-05-31T07:37:47.000Z</time>
      </trkpt>
      <trkpt lat="44.10555" lon="5.27336">
        <ele>732.4</ele>
        <time>2021-05-31T07:37:49.000Z</time>
      </trkpt>
      <trkpt lat="44.10551" lon="5.27345">
        <ele>732.9</ele>
        <time>2021-05-31T07:37:50.000Z</time>
      </trkpt>
      <trkpt lat="44.10545" lon="5.27348">
        <ele>733.3</ele>
        <time>2021-05-31T07:37:51.000Z</time>
      </trkpt>
      <trkpt lat="44.10537" lon="5.27348">
        <ele>734</ele>
        <time>2021-05-31T07:37:53.000Z</time>
      </trkpt>
      <trkpt lat="44.10508" lon="5.27333">
        <ele>735.3</ele>
        <time>2021-05-31T07:37:57.000Z</time>
      </trkpt>
      <trkpt lat="44.10494" lon="5.2733">
        <ele>736.1</ele>
        <time>2021-05-31T07:38:00.000Z</time>
      </trkpt>
      <trkpt lat="44.10479" lon="5.27331">
        <ele>736.8</ele>
        <time>2021-05-31T07:38:02.000Z</time>
      </trkpt>
      <trkpt lat="44.10465" lon="5.27336">
        <ele>737.4</ele>
        <time>2021-05-31T07:38:04.000Z</time>
      </trkpt>
      <trkpt lat="44.10447" lon="5.27348">
        <ele>738.1</ele>
        <time>2021-05-31T07:38:07.000Z</time>
      </trkpt>
      <trkpt lat="44.10425" lon="5.27371">
        <ele>739</ele>
        <time>2021-05-31T07:38:10.000Z</time>
      </trkpt>
      <trkpt lat="44.10405" lon="5.27394">
        <ele>740.2</ele>
        <time>2021-05-31T07:38:14.000Z</time>
      </trkpt>
      <trkpt lat="44.10384" lon="5.27417">
        <ele>741.4</ele>
        <time>2021-05-31T07:38:18.000Z</time>
      </trkpt>
      <trkpt lat="44.10374" lon="5.27434">
        <ele>742</ele>
        <time>2021-05-31T07:38:20.000Z</time>
      </trkpt>
      <trkpt lat="44.10367" lon="5.27456">
        <ele>743.1</ele>
        <time>2021-05-31T07:38:23.000Z</time>
      </trkpt>
      <trkpt lat="44.10362" lon="5.27484">
        <ele>744.1</ele>
        <time>2021-05-31T07:38:26.000Z</time>
      </trkpt>
      <trkpt lat="44.10359" lon="5.27522">
        <ele>745.2</ele>
        <time>2021-05-31T07:38:30.000Z</time>
      </trkpt>
      <trkpt lat="44.10362" lon="5.27553">
        <ele>746</ele>
        <time>2021-05-31T07:38:33.000Z</time>
      </trkpt>
      <trkpt lat="44.10367" lon="5.27583">
        <ele>747</ele>
        <time>2021-05-31T07:38:36.000Z</time>
      </trkpt>
      <trkpt lat="44.10372" lon="5.27613">
        <ele>748.1</ele>
        <time>2021-05-31T07:38:39.000Z</time>
      </trkpt>
      <trkpt lat="44.10376" lon="5.27643">
        <ele>749.1</ele>
        <time>2021-05-31T07:38:43.000Z</time>
      </trkpt>
      <trkpt lat="44.10381" lon="5.27673">
        <ele>750.2</ele>
        <time>2021-05-31T07:38:46.000Z</time>
      </trkpt>
      <trkpt lat="44.10382" lon="5.27684">
        <ele>750.6</ele>
        <time>2021-05-31T07:38:47.000Z</time>
      </trkpt>
      <trkpt lat="44.1038" lon="5.27698">
        <ele>751.1</ele>
        <time>2021-05-31T07:38:49.000Z</time>
      </trkpt>
      <trkpt lat="44.10375" lon="5.27706">
        <ele>751.5</ele>
        <time>2021-05-31T07:38:50.000Z</time>
      </trkpt>
      <trkpt lat="44.10366" lon="5.27713">
        <ele>751.9</ele>
        <time>2021-05-31T07:38:51.000Z</time>
      </trkpt>
      <trkpt lat="44.10349" lon="5.27714">
        <ele>752.2</ele>
        <time>2021-05-31T07:38:53.000Z</time>
      </trkpt>
      <trkpt lat="44.10328" lon="5.27719">
        <ele>752.7</ele>
        <time>2021-05-31T07:38:56.000Z</time>
      </trkpt>
      <trkpt lat="44.10308" lon="5.27729">
        <ele>754.4</ele>
        <time>2021-05-31T07:39:00.000Z</time>
      </trkpt>
      <trkpt lat="44.10287" lon="5.27747">
        <ele>756.1</ele>
        <time>2021-05-31T07:39:05.000Z</time>
      </trkpt>
      <trkpt lat="44.10266" lon="5.2777">
        <ele>756.9</ele>
        <time>2021-05-31T07:39:08.000Z</time>
      </trkpt>
      <trkpt lat="44.10251" lon="5.27794">
        <ele>757.5</ele>
        <time>2021-05-31T07:39:11.000Z</time>
      </trkpt>
      <trkpt lat="44.10236" lon="5.27826">
        <ele>758.1</ele>
        <time>2021-05-31T07:39:14.000Z</time>
      </trkpt>
      <trkpt lat="44.10224" lon="5.27859">
        <ele>760.2</ele>
        <time>2021-05-31T07:39:19.000Z</time>
      </trkpt>
      <trkpt lat="44.10221" lon="5.27883">
        <ele>760.8</ele>
        <time>2021-05-31T07:39:21.000Z</time>
      </trkpt>
      <trkpt lat="44.10221" lon="5.27905">
        <ele>761.3</ele>
        <time>2021-05-31T07:39:23.000Z</time>
      </trkpt>
      <trkpt lat="44.10225" lon="5.2793">
        <ele>762</ele>
        <time>2021-05-31T07:39:26.000Z</time>
      </trkpt>
      <trkpt lat="44.10229" lon="5.27955">
        <ele>762.8</ele>
        <time>2021-05-31T07:39:29.000Z</time>
      </trkpt>
      <trkpt lat="44.10228" lon="5.27977">
        <ele>763.3</ele>
        <time>2021-05-31T07:39:31.000Z</time>
      </trkpt>
      <trkpt lat="44.10218" lon="5.27985">
        <ele>763.6</ele>
        <time>2021-05-31T07:39:32.000Z</time>
      </trkpt>
      <trkpt lat="44.10207" lon="5.27983">
        <ele>764</ele>
        <time>2021-05-31T07:39:33.000Z</time>
      </trkpt>
      <trkpt lat="44.10181" lon="5.27966">
        <ele>764.8</ele>
        <time>2021-05-31T07:39:37.000Z</time>
      </trkpt>
      <trkpt lat="44.10169" lon="5.27964">
        <ele>765.1</ele>
        <time>2021-05-31T07:39:38.000Z</time>
      </trkpt>
      <trkpt lat="44.10156" lon="5.27965">
        <ele>765.5</ele>
        <time>2021-05-31T07:39:40.000Z</time>
      </trkpt>
      <trkpt lat="44.10136" lon="5.27975">
        <ele>766.2</ele>
        <time>2021-05-31T07:39:43.000Z</time>
      </trkpt>
      <trkpt lat="44.10116" lon="5.27984">
        <ele>767</ele>
        <time>2021-05-31T07:39:45.000Z</time>
      </trkpt>
      <trkpt lat="44.10092" lon="5.27999">
        <ele>768.1</ele>
        <time>2021-05-31T07:39:49.000Z</time>
      </trkpt>
      <trkpt lat="44.10074" lon="5.28014">
        <ele>769.2</ele>
        <time>2021-05-31T07:39:53.000Z</time>
      </trkpt>
      <trkpt lat="44.10057" lon="5.28028">
        <ele>770.4</ele>
        <time>2021-05-31T07:39:56.000Z</time>
      </trkpt>
      <trkpt lat="44.10039" lon="5.28043">
        <ele>771.5</ele>
        <time>2021-05-31T07:39:59.000Z</time>
      </trkpt>
      <trkpt lat="44.10021" lon="5.28058">
        <ele>773.1</ele>
        <time>2021-05-31T07:40:03.000Z</time>
      </trkpt>
      <trkpt lat="44.10004" lon="5.28072">
        <ele>774.7</ele>
        <time>2021-05-31T07:40:07.000Z</time>
      </trkpt>
      <trkpt lat="44.09986" lon="5.28087">
        <ele>776.3</ele>
        <time>2021-05-31T07:40:11.000Z</time>
      </trkpt>
      <trkpt lat="44.0997" lon="5.28102">
        <ele>777.7</ele>
        <time>2021-05-31T07:40:15.000Z</time>
      </trkpt>
      <trkpt lat="44.09954" lon="5.28118">
        <ele>779</ele>
        <time>2021-05-31T07:40:19.000Z</time>
      </trkpt>
      <trkpt lat="44.09937" lon="5.28133">
        <ele>780.4</ele>
        <time>2021-05-31T07:40:22.000Z</time>
      </trkpt>
      <trkpt lat="44.09921" lon="5.28148">
        <ele>781.8</ele>
        <time>2021-05-31T07:40:26.000Z</time>
      </trkpt>
      <trkpt lat="44.09905" lon="5.28163">
        <ele>783</ele>
        <time>2021-05-31T07:40:29.000Z</time>
      </trkpt>
      <trkpt lat="44.09889" lon="5.28179">
        <ele>784.2</ele>
        <time>2021-05-31T07:40:33.000Z</time>
      </trkpt>
      <trkpt lat="44.09872" lon="5.28194">
        <ele>785.5</ele>
        <time>2021-05-31T07:40:36.000Z</time>
      </trkpt>
      <trkpt lat="44.09856" lon="5.28209">
        <ele>786.7</ele>
        <time>2021-05-31T07:40:39.000Z</time>
      </trkpt>
      <trkpt lat="44.09834" lon="5.28229">
        <ele>787.7</ele>
        <time>2021-05-31T07:40:43.000Z</time>
      </trkpt>
      <trkpt lat="44.09813" lon="5.2825">
        <ele>788.7</ele>
        <time>2021-05-31T07:40:47.000Z</time>
      </trkpt>
      <trkpt lat="44.09791" lon="5.2827">
        <ele>789.7</ele>
        <time>2021-05-31T07:40:50.000Z</time>
      </trkpt>
      <trkpt lat="44.09785" lon="5.28285">
        <ele>790.2</ele>
        <time>2021-05-31T07:40:52.000Z</time>
      </trkpt>
      <trkpt lat="44.09781" lon="5.28301">
        <ele>791</ele>
        <time>2021-05-31T07:40:54.000Z</time>
      </trkpt>
      <trkpt lat="44.09779" lon="5.28319">
        <ele>791.8</ele>
        <time>2021-05-31T07:40:56.000Z</time>
      </trkpt>
      <trkpt lat="44.09779" lon="5.28345">
        <ele>792.4</ele>
        <time>2021-05-31T07:40:58.000Z</time>
      </trkpt>
      <trkpt lat="44.09782" lon="5.28366">
        <ele>792.5</ele>
        <time>2021-05-31T07:41:00.000Z</time>
      </trkpt>
      <trkpt lat="44.09788" lon="5.28385">
        <ele>792.5</ele>
        <time>2021-05-31T07:41:02.000Z</time>
      </trkpt>
      <trkpt lat="44.09797" lon="5.284">
        <ele>792.5</ele>
        <time>2021-05-31T07:41:03.000Z</time>
      </trkpt>
      <trkpt lat="44.09821" lon="5.2842">
        <ele>792.5</ele>
        <time>2021-05-31T07:41:06.000Z</time>
      </trkpt>
      <trkpt lat="44.09847" lon="5.28438">
        <ele>792.7</ele>
        <time>2021-05-31T07:41:09.000Z</time>
      </trkpt>
      <trkpt lat="44.09874" lon="5.28455">
        <ele>792.8</ele>
        <time>2021-05-31T07:41:12.000Z</time>
      </trkpt>
      <trkpt lat="44.099" lon="5.28473">
        <ele>792.9</ele>
        <time>2021-05-31T07:41:15.000Z</time>
      </trkpt>
      <trkpt lat="44.09911" lon="5.28486">
        <ele>792.8</ele>
        <time>2021-05-31T07:41:16.000Z</time>
      </trkpt>
      <trkpt lat="44.0993" lon="5.28525">
        <ele>792.9</ele>
        <time>2021-05-31T07:41:19.000Z</time>
      </trkpt>
      <trkpt lat="44.09948" lon="5.28564">
        <ele>792.9</ele>
        <time>2021-05-31T07:41:23.000Z</time>
      </trkpt>
      <trkpt lat="44.0996" lon="5.2859">
        <ele>793</ele>
        <time>2021-05-31T07:41:25.000Z</time>
      </trkpt>
      <trkpt lat="44.09973" lon="5.28616">
        <ele>793.1</ele>
        <time>2021-05-31T07:41:27.000Z</time>
      </trkpt>
      <trkpt lat="44.09985" lon="5.28642">
        <ele>793.3</ele>
        <time>2021-05-31T07:41:30.000Z</time>
      </trkpt>
      <trkpt lat="44.09997" lon="5.28669">
        <ele>794.1</ele>
        <time>2021-05-31T07:41:33.000Z</time>
      </trkpt>
      <trkpt lat="44.10008" lon="5.28696">
        <ele>795.1</ele>
        <time>2021-05-31T07:41:36.000Z</time>
      </trkpt>
      <trkpt lat="44.10016" lon="5.28726">
        <ele>796.7</ele>
        <time>2021-05-31T07:41:40.000Z</time>
      </trkpt>
      <trkpt lat="44.10024" lon="5.28756">
        <ele>798.3</ele>
        <time>2021-05-31T07:41:44.000Z</time>
      </trkpt>
      <trkpt lat="44.10026" lon="5.28782">
        <ele>799.5</ele>
        <time>2021-05-31T07:41:48.000Z</time>
      </trkpt>
      <trkpt lat="44.10024" lon="5.28807">
        <ele>800.5</ele>
        <time>2021-05-31T07:41:51.000Z</time>
      </trkpt>
      <trkpt lat="44.10018" lon="5.28834">
        <ele>801.8</ele>
        <time>2021-05-31T07:41:54.000Z</time>
      </trkpt>
      <trkpt lat="44.10012" lon="5.28862">
        <ele>803</ele>
        <time>2021-05-31T07:41:58.000Z</time>
      </trkpt>
      <trkpt lat="44.10006" lon="5.28889">
        <ele>804.3</ele>
        <time>2021-05-31T07:42:01.000Z</time>
      </trkpt>
      <trkpt lat="44.10001" lon="5.28916">
        <ele>805.8</ele>
        <time>2021-05-31T07:42:05.000Z</time>
      </trkpt>
      <trkpt lat="44.09996" lon="5.28938">
        <ele>807.6</ele>
        <time>2021-05-31T07:42:09.000Z</time>
      </trkpt>
      <trkpt lat="44.09991" lon="5.2896">
        <ele>809.5</ele>
        <time>2021-05-31T07:42:13.000Z</time>
      </trkpt>
      <trkpt lat="44.09986" lon="5.28981">
        <ele>811.4</ele>
        <time>2021-05-31T07:42:17.000Z</time>
      </trkpt>
      <trkpt lat="44.09982" lon="5.29003">
        <ele>813.4</ele>
        <time>2021-05-31T07:42:22.000Z</time>
      </trkpt>
      <trkpt lat="44.09977" lon="5.29025">
        <ele>815.2</ele>
        <time>2021-05-31T07:42:26.000Z</time>
      </trkpt>
      <trkpt lat="44.09973" lon="5.29056">
        <ele>816.9</ele>
        <time>2021-05-31T07:42:30.000Z</time>
      </trkpt>
      <trkpt lat="44.09969" lon="5.29086">
        <ele>818.4</ele>
        <time>2021-05-31T07:42:34.000Z</time>
      </trkpt>
      <trkpt lat="44.09965" lon="5.29117">
        <ele>819.9</ele>
        <time>2021-05-31T07:42:38.000Z</time>
      </trkpt>
      <trkpt lat="44.09964" lon="5.29143">
        <ele>820.6</ele>
        <time>2021-05-31T07:42:41.000Z</time>
      </trkpt>
      <trkpt lat="44.09967" lon="5.29168">
        <ele>821.3</ele>
        <time>2021-05-31T07:42:43.000Z</time>
      </trkpt>
      <trkpt lat="44.09969" lon="5.29193">
        <ele>822.2</ele>
        <time>2021-05-31T07:42:46.000Z</time>
      </trkpt>
      <trkpt lat="44.09977" lon="5.29226">
        <ele>824.7</ele>
        <time>2021-05-31T07:42:52.000Z</time>
      </trkpt>
      <trkpt lat="44.09989" lon="5.2926">
        <ele>826.5</ele>
        <time>2021-05-31T07:42:56.000Z</time>
      </trkpt>
      <trkpt lat="44.10002" lon="5.29287">
        <ele>828.2</ele>
        <time>2021-05-31T07:43:01.000Z</time>
      </trkpt>
      <trkpt lat="44.10016" lon="5.29315">
        <ele>830</ele>
        <time>2021-05-31T07:43:06.000Z</time>
      </trkpt>
      <trkpt lat="44.10029" lon="5.29342">
        <ele>831.9</ele>
        <time>2021-05-31T07:43:10.000Z</time>
      </trkpt>
      <trkpt lat="44.10045" lon="5.29367">
        <ele>834.3</ele>
        <time>2021-05-31T07:43:16.000Z</time>
      </trkpt>
      <trkpt lat="44.10061" lon="5.29386">
        <ele>835.6</ele>
        <time>2021-05-31T07:43:19.000Z</time>
      </trkpt>
      <trkpt lat="44.10076" lon="5.29406">
        <ele>836.8</ele>
        <time>2021-05-31T07:43:23.000Z</time>
      </trkpt>
      <trkpt lat="44.10087" lon="5.29416">
        <ele>837.8</ele>
        <time>2021-05-31T07:43:25.000Z</time>
      </trkpt>
      <trkpt lat="44.10101" lon="5.29425">
        <ele>838.9</ele>
        <time>2021-05-31T07:43:28.000Z</time>
      </trkpt>
      <trkpt lat="44.10125" lon="5.29436">
        <ele>839.7</ele>
        <time>2021-05-31T07:43:32.000Z</time>
      </trkpt>
      <trkpt lat="44.10149" lon="5.29447">
        <ele>840.6</ele>
        <time>2021-05-31T07:43:35.000Z</time>
      </trkpt>
      <trkpt lat="44.10164" lon="5.29455">
        <ele>842.1</ele>
        <time>2021-05-31T07:43:38.000Z</time>
      </trkpt>
      <trkpt lat="44.1018" lon="5.29462">
        <ele>843.7</ele>
        <time>2021-05-31T07:43:42.000Z</time>
      </trkpt>
      <trkpt lat="44.10196" lon="5.2947">
        <ele>845.2</ele>
        <time>2021-05-31T07:43:46.000Z</time>
      </trkpt>
      <trkpt lat="44.10207" lon="5.29477">
        <ele>845.7</ele>
        <time>2021-05-31T07:43:48.000Z</time>
      </trkpt>
      <trkpt lat="44.10218" lon="5.29488">
        <ele>846.2</ele>
        <time>2021-05-31T07:43:50.000Z</time>
      </trkpt>
      <trkpt lat="44.10233" lon="5.2951">
        <ele>848.1</ele>
        <time>2021-05-31T07:43:54.000Z</time>
      </trkpt>
      <trkpt lat="44.10249" lon="5.29533">
        <ele>850</ele>
        <time>2021-05-31T07:43:59.000Z</time>
      </trkpt>
      <trkpt lat="44.10264" lon="5.29555">
        <ele>852</ele>
        <time>2021-05-31T07:44:04.000Z</time>
      </trkpt>
      <trkpt lat="44.10279" lon="5.29578">
        <ele>853.9</ele>
        <time>2021-05-31T07:44:08.000Z</time>
      </trkpt>
      <trkpt lat="44.10295" lon="5.29597">
        <ele>855.6</ele>
        <time>2021-05-31T07:44:13.000Z</time>
      </trkpt>
      <trkpt lat="44.1031" lon="5.29616">
        <ele>857.2</ele>
        <time>2021-05-31T07:44:17.000Z</time>
      </trkpt>
      <trkpt lat="44.10326" lon="5.29636">
        <ele>858.9</ele>
        <time>2021-05-31T07:44:21.000Z</time>
      </trkpt>
      <trkpt lat="44.10341" lon="5.29655">
        <ele>860.4</ele>
        <time>2021-05-31T07:44:25.000Z</time>
      </trkpt>
      <trkpt lat="44.10353" lon="5.29678">
        <ele>861.4</ele>
        <time>2021-05-31T07:44:28.000Z</time>
      </trkpt>
      <trkpt lat="44.10361" lon="5.29701">
        <ele>863.3</ele>
        <time>2021-05-31T07:44:32.000Z</time>
      </trkpt>
      <trkpt lat="44.10369" lon="5.29738">
        <ele>865.2</ele>
        <time>2021-05-31T07:44:37.000Z</time>
      </trkpt>
      <trkpt lat="44.10371" lon="5.2977">
        <ele>866.6</ele>
        <time>2021-05-31T07:44:41.000Z</time>
      </trkpt>
      <trkpt lat="44.10372" lon="5.29802">
        <ele>867.9</ele>
        <time>2021-05-31T07:44:45.000Z</time>
      </trkpt>
      <trkpt lat="44.10374" lon="5.29834">
        <ele>869.2</ele>
        <time>2021-05-31T07:44:49.000Z</time>
      </trkpt>
      <trkpt lat="44.1038" lon="5.2986">
        <ele>870.5</ele>
        <time>2021-05-31T07:44:52.000Z</time>
      </trkpt>
      <trkpt lat="44.10386" lon="5.29886">
        <ele>871.7</ele>
        <time>2021-05-31T07:44:56.000Z</time>
      </trkpt>
      <trkpt lat="44.10394" lon="5.29912">
        <ele>873.1</ele>
        <time>2021-05-31T07:44:59.000Z</time>
      </trkpt>
      <trkpt lat="44.10403" lon="5.29938">
        <ele>874.5</ele>
        <time>2021-05-31T07:45:03.000Z</time>
      </trkpt>
      <trkpt lat="44.10411" lon="5.29964">
        <ele>875.8</ele>
        <time>2021-05-31T07:45:07.000Z</time>
      </trkpt>
      <trkpt lat="44.1042" lon="5.2999">
        <ele>877.2</ele>
        <time>2021-05-31T07:45:10.000Z</time>
      </trkpt>
      <trkpt lat="44.10428" lon="5.30017">
        <ele>878.5</ele>
        <time>2021-05-31T07:45:14.000Z</time>
      </trkpt>
      <trkpt lat="44.10437" lon="5.30043">
        <ele>879.9</ele>
        <time>2021-05-31T07:45:18.000Z</time>
      </trkpt>
      <trkpt lat="44.10445" lon="5.30069">
        <ele>881.3</ele>
        <time>2021-05-31T07:45:21.000Z</time>
      </trkpt>
      <trkpt lat="44.10454" lon="5.30095">
        <ele>882.7</ele>
        <time>2021-05-31T07:45:25.000Z</time>
      </trkpt>
      <trkpt lat="44.10462" lon="5.30121">
        <ele>884.2</ele>
        <time>2021-05-31T07:45:29.000Z</time>
      </trkpt>
      <trkpt lat="44.10463" lon="5.30129">
        <ele>884.6</ele>
        <time>2021-05-31T07:45:30.000Z</time>
      </trkpt>
      <trkpt lat="44.10461" lon="5.30137">
        <ele>885.1</ele>
        <time>2021-05-31T07:45:31.000Z</time>
      </trkpt>
      <trkpt lat="44.10453" lon="5.30145">
        <ele>885.7</ele>
        <time>2021-05-31T07:45:33.000Z</time>
      </trkpt>
      <trkpt lat="44.10448" lon="5.30146">
        <ele>886</ele>
        <time>2021-05-31T07:45:34.000Z</time>
      </trkpt>
      <trkpt lat="44.10441" lon="5.30143">
        <ele>886.5</ele>
        <time>2021-05-31T07:45:35.000Z</time>
      </trkpt>
      <trkpt lat="44.10435" lon="5.30136">
        <ele>887.1</ele>
        <time>2021-05-31T07:45:37.000Z</time>
      </trkpt>
      <trkpt lat="44.10418" lon="5.3011">
        <ele>888.4</ele>
        <time>2021-05-31T07:45:41.000Z</time>
      </trkpt>
      <trkpt lat="44.10402" lon="5.30084">
        <ele>889.5</ele>
        <time>2021-05-31T07:45:44.000Z</time>
      </trkpt>
      <trkpt lat="44.10385" lon="5.30059">
        <ele>890.6</ele>
        <time>2021-05-31T07:45:48.000Z</time>
      </trkpt>
      <trkpt lat="44.10368" lon="5.30033">
        <ele>891.8</ele>
        <time>2021-05-31T07:45:51.000Z</time>
      </trkpt>
      <trkpt lat="44.10354" lon="5.30015">
        <ele>892.8</ele>
        <time>2021-05-31T07:45:55.000Z</time>
      </trkpt>
      <trkpt lat="44.10339" lon="5.29998">
        <ele>893.9</ele>
        <time>2021-05-31T07:45:58.000Z</time>
      </trkpt>
      <trkpt lat="44.10325" lon="5.2998">
        <ele>895</ele>
        <time>2021-05-31T07:46:01.000Z</time>
      </trkpt>
      <trkpt lat="44.10311" lon="5.29958">
        <ele>896</ele>
        <time>2021-05-31T07:46:04.000Z</time>
      </trkpt>
      <trkpt lat="44.10298" lon="5.29935">
        <ele>896.9</ele>
        <time>2021-05-31T07:46:07.000Z</time>
      </trkpt>
      <trkpt lat="44.10284" lon="5.29913">
        <ele>897.8</ele>
        <time>2021-05-31T07:46:10.000Z</time>
      </trkpt>
      <trkpt lat="44.1027" lon="5.29891">
        <ele>898.6</ele>
        <time>2021-05-31T07:46:13.000Z</time>
      </trkpt>
      <trkpt lat="44.10252" lon="5.29874">
        <ele>898.8</ele>
        <time>2021-05-31T07:46:15.000Z</time>
      </trkpt>
      <trkpt lat="44.10241" lon="5.2987">
        <ele>898.7</ele>
        <time>2021-05-31T07:46:16.000Z</time>
      </trkpt>
      <trkpt lat="44.10221" lon="5.2987">
        <ele>898.5</ele>
        <time>2021-05-31T07:46:18.000Z</time>
      </trkpt>
      <trkpt lat="44.10208" lon="5.29875">
        <ele>898.4</ele>
        <time>2021-05-31T07:46:19.000Z</time>
      </trkpt>
      <trkpt lat="44.10179" lon="5.29892">
        <ele>898.2</ele>
        <time>2021-05-31T07:46:23.000Z</time>
      </trkpt>
      <trkpt lat="44.10158" lon="5.29917">
        <ele>898.1</ele>
        <time>2021-05-31T07:46:25.000Z</time>
      </trkpt>
      <trkpt lat="44.10137" lon="5.29951">
        <ele>897.9</ele>
        <time>2021-05-31T07:46:28.000Z</time>
      </trkpt>
      <trkpt lat="44.10131" lon="5.2997">
        <ele>897.8</ele>
        <time>2021-05-31T07:46:30.000Z</time>
      </trkpt>
      <trkpt lat="44.10121" lon="5.30019">
        <ele>897.7</ele>
        <time>2021-05-31T07:46:33.000Z</time>
      </trkpt>
      <trkpt lat="44.10118" lon="5.30055">
        <ele>897.6</ele>
        <time>2021-05-31T07:46:36.000Z</time>
      </trkpt>
      <trkpt lat="44.10114" lon="5.3009">
        <ele>897.4</ele>
        <time>2021-05-31T07:46:38.000Z</time>
      </trkpt>
      <trkpt lat="44.10107" lon="5.3012">
        <ele>897.5</ele>
        <time>2021-05-31T07:46:40.000Z</time>
      </trkpt>
      <trkpt lat="44.10099" lon="5.30149">
        <ele>897.5</ele>
        <time>2021-05-31T07:46:43.000Z</time>
      </trkpt>
      <trkpt lat="44.1009" lon="5.30178">
        <ele>897.6</ele>
        <time>2021-05-31T07:46:45.000Z</time>
      </trkpt>
      <trkpt lat="44.10086" lon="5.30199">
        <ele>897.8</ele>
        <time>2021-05-31T07:46:47.000Z</time>
      </trkpt>
      <trkpt lat="44.10082" lon="5.30243">
        <ele>898.1</ele>
        <time>2021-05-31T07:46:50.000Z</time>
      </trkpt>
      <trkpt lat="44.10075" lon="5.30254">
        <ele>898.6</ele>
        <time>2021-05-31T07:46:52.000Z</time>
      </trkpt>
      <trkpt lat="44.10069" lon="5.30257">
        <ele>899</ele>
        <time>2021-05-31T07:46:53.000Z</time>
      </trkpt>
      <trkpt lat="44.10061" lon="5.30253">
        <ele>899.4</ele>
        <time>2021-05-31T07:46:54.000Z</time>
      </trkpt>
      <trkpt lat="44.10029" lon="5.30225">
        <ele>900</ele>
        <time>2021-05-31T07:46:58.000Z</time>
      </trkpt>
      <trkpt lat="44.10009" lon="5.30216">
        <ele>900.6</ele>
        <time>2021-05-31T07:47:01.000Z</time>
      </trkpt>
      <trkpt lat="44.09993" lon="5.30215">
        <ele>900.9</ele>
        <time>2021-05-31T07:47:03.000Z</time>
      </trkpt>
      <trkpt lat="44.09983" lon="5.30219">
        <ele>901</ele>
        <time>2021-05-31T07:47:04.000Z</time>
      </trkpt>
      <trkpt lat="44.09957" lon="5.30244">
        <ele>901.2</ele>
        <time>2021-05-31T07:47:07.000Z</time>
      </trkpt>
      <trkpt lat="44.09947" lon="5.30261">
        <ele>901.2</ele>
        <time>2021-05-31T07:47:09.000Z</time>
      </trkpt>
      <trkpt lat="44.09936" lon="5.30299">
        <ele>901</ele>
        <time>2021-05-31T07:47:11.000Z</time>
      </trkpt>
      <trkpt lat="44.09924" lon="5.30331">
        <ele>900.8</ele>
        <time>2021-05-31T07:47:14.000Z</time>
      </trkpt>
      <trkpt lat="44.09912" lon="5.30362">
        <ele>900.7</ele>
        <time>2021-05-31T07:47:16.000Z</time>
      </trkpt>
      <trkpt lat="44.099" lon="5.30381">
        <ele>900.4</ele>
        <time>2021-05-31T07:47:18.000Z</time>
      </trkpt>
      <trkpt lat="44.09893" lon="5.30388">
        <ele>900.3</ele>
        <time>2021-05-31T07:47:19.000Z</time>
      </trkpt>
      <trkpt lat="44.09885" lon="5.30391">
        <ele>900.4</ele>
        <time>2021-05-31T07:47:20.000Z</time>
      </trkpt>
      <trkpt lat="44.09877" lon="5.30391">
        <ele>900.4</ele>
        <time>2021-05-31T07:47:20.000Z</time>
      </trkpt>
      <trkpt lat="44.09868" lon="5.30388">
        <ele>900.5</ele>
        <time>2021-05-31T07:47:21.000Z</time>
      </trkpt>
      <trkpt lat="44.09844" lon="5.30371">
        <ele>900.5</ele>
        <time>2021-05-31T07:47:24.000Z</time>
      </trkpt>
      <trkpt lat="44.0982" lon="5.30355">
        <ele>900.5</ele>
        <time>2021-05-31T07:47:27.000Z</time>
      </trkpt>
      <trkpt lat="44.09795" lon="5.30338">
        <ele>900.4</ele>
        <time>2021-05-31T07:47:29.000Z</time>
      </trkpt>
      <trkpt lat="44.09771" lon="5.30322">
        <ele>900.3</ele>
        <time>2021-05-31T07:47:32.000Z</time>
      </trkpt>
      <trkpt lat="44.09743" lon="5.30309">
        <ele>900.1</ele>
        <time>2021-05-31T07:47:35.000Z</time>
      </trkpt>
      <trkpt lat="44.09715" lon="5.30296">
        <ele>899.8</ele>
        <time>2021-05-31T07:47:37.000Z</time>
      </trkpt>
      <trkpt lat="44.09687" lon="5.30283">
        <ele>899.5</ele>
        <time>2021-05-31T07:47:40.000Z</time>
      </trkpt>
      <trkpt lat="44.09651" lon="5.3028">
        <ele>899.2</ele>
        <time>2021-05-31T07:47:44.000Z</time>
      </trkpt>
      <trkpt lat="44.09637" lon="5.30283">
        <ele>898.9</ele>
        <time>2021-05-31T07:47:45.000Z</time>
      </trkpt>
      <trkpt lat="44.09624" lon="5.30288">
        <ele>898.7</ele>
        <time>2021-05-31T07:47:46.000Z</time>
      </trkpt>
      <trkpt lat="44.09611" lon="5.30298">
        <ele>898.5</ele>
        <time>2021-05-31T07:47:47.000Z</time>
      </trkpt>
      <trkpt lat="44.096" lon="5.30313">
        <ele>898.3</ele>
        <time>2021-05-31T07:47:49.000Z</time>
      </trkpt>
      <trkpt lat="44.09578" lon="5.30351">
        <ele>897.9</ele>
        <time>2021-05-31T07:47:52.000Z</time>
      </trkpt>
      <trkpt lat="44.09565" lon="5.30382">
        <ele>897.6</ele>
        <time>2021-05-31T07:47:54.000Z</time>
      </trkpt>
      <trkpt lat="44.0955" lon="5.30427">
        <ele>896.4</ele>
        <time>2021-05-31T07:47:57.000Z</time>
      </trkpt>
      <trkpt lat="44.09535" lon="5.30471">
        <ele>895.2</ele>
        <time>2021-05-31T07:48:00.000Z</time>
      </trkpt>
      <trkpt lat="44.09531" lon="5.30502">
        <ele>894.7</ele>
        <time>2021-05-31T07:48:02.000Z</time>
      </trkpt>
      <trkpt lat="44.09531" lon="5.30538">
        <ele>893.6</ele>
        <time>2021-05-31T07:48:04.000Z</time>
      </trkpt>
      <trkpt lat="44.09529" lon="5.30552">
        <ele>892.8</ele>
        <time>2021-05-31T07:48:05.000Z</time>
      </trkpt>
      <trkpt lat="44.09524" lon="5.3056">
        <ele>892.5</ele>
        <time>2021-05-31T07:48:05.000Z</time>
      </trkpt>
      <trkpt lat="44.09518" lon="5.30566">
        <ele>892.3</ele>
        <time>2021-05-31T07:48:06.000Z</time>
      </trkpt>
      <trkpt lat="44.09509" lon="5.30571">
        <ele>892</ele>
        <time>2021-05-31T07:48:07.000Z</time>
      </trkpt>
      <trkpt lat="44.09502" lon="5.30572">
        <ele>891.6</ele>
        <time>2021-05-31T07:48:07.000Z</time>
      </trkpt>
      <trkpt lat="44.0949" lon="5.30567">
        <ele>891.1</ele>
        <time>2021-05-31T07:48:08.000Z</time>
      </trkpt>
      <trkpt lat="44.09464" lon="5.30552">
        <ele>890.4</ele>
        <time>2021-05-31T07:48:11.000Z</time>
      </trkpt>
      <trkpt lat="44.09438" lon="5.30538">
        <ele>889.7</ele>
        <time>2021-05-31T07:48:13.000Z</time>
      </trkpt>
      <trkpt lat="44.09412" lon="5.30523">
        <ele>889</ele>
        <time>2021-05-31T07:48:16.000Z</time>
      </trkpt>
      <trkpt lat="44.09386" lon="5.30509">
        <ele>888.2</ele>
        <time>2021-05-31T07:48:18.000Z</time>
      </trkpt>
      <trkpt lat="44.09362" lon="5.30488">
        <ele>887.3</ele>
        <time>2021-05-31T07:48:20.000Z</time>
      </trkpt>
      <trkpt lat="44.09337" lon="5.30467">
        <ele>886.5</ele>
        <time>2021-05-31T07:48:23.000Z</time>
      </trkpt>
      <trkpt lat="44.09313" lon="5.30445">
        <ele>885.6</ele>
        <time>2021-05-31T07:48:25.000Z</time>
      </trkpt>
      <trkpt lat="44.09288" lon="5.30424">
        <ele>884.6</ele>
        <time>2021-05-31T07:48:27.000Z</time>
      </trkpt>
      <trkpt lat="44.09264" lon="5.30403">
        <ele>883.6</ele>
        <time>2021-05-31T07:48:30.000Z</time>
      </trkpt>
      <trkpt lat="44.09239" lon="5.30382">
        <ele>882.6</ele>
        <time>2021-05-31T07:48:32.000Z</time>
      </trkpt>
      <trkpt lat="44.09218" lon="5.30367">
        <ele>881.8</ele>
        <time>2021-05-31T07:48:34.000Z</time>
      </trkpt>
      <trkpt lat="44.09205" lon="5.30361">
        <ele>881.3</ele>
        <time>2021-05-31T07:48:35.000Z</time>
      </trkpt>
      <trkpt lat="44.09167" lon="5.30355">
        <ele>880.5</ele>
        <time>2021-05-31T07:48:39.000Z</time>
      </trkpt>
      <trkpt lat="44.09172" lon="5.30305">
        <ele>875.6</ele>
        <time>2021-05-31T07:48:41.000Z</time>
      </trkpt>
      <trkpt lat="44.09175" lon="5.30237">
        <ele>866.7</ele>
        <time>2021-05-31T07:48:45.000Z</time>
      </trkpt>
      <trkpt lat="44.09173" lon="5.30193">
        <ele>864.6</ele>
        <time>2021-05-31T07:48:48.000Z</time>
      </trkpt>
      <trkpt lat="44.09169" lon="5.30158">
        <ele>861.7</ele>
        <time>2021-05-31T07:48:50.000Z</time>
      </trkpt>
      <trkpt lat="44.09164" lon="5.30123">
        <ele>858.7</ele>
        <time>2021-05-31T07:48:52.000Z</time>
      </trkpt>
      <trkpt lat="44.09156" lon="5.30084">
        <ele>855.4</ele>
        <time>2021-05-31T07:48:54.000Z</time>
      </trkpt>
      <trkpt lat="44.09142" lon="5.30028">
        <ele>851.2</ele>
        <time>2021-05-31T07:48:57.000Z</time>
      </trkpt>
      <trkpt lat="44.09131" lon="5.30001">
        <ele>850.2</ele>
        <time>2021-05-31T07:48:59.000Z</time>
      </trkpt>
      <trkpt lat="44.09116" lon="5.29968">
        <ele>848.4</ele>
        <time>2021-05-31T07:49:01.000Z</time>
      </trkpt>
      <trkpt lat="44.091" lon="5.29936">
        <ele>846.5</ele>
        <time>2021-05-31T07:49:03.000Z</time>
      </trkpt>
      <trkpt lat="44.09083" lon="5.29907">
        <ele>845.5</ele>
        <time>2021-05-31T07:49:05.000Z</time>
      </trkpt>
      <trkpt lat="44.09065" lon="5.29882">
        <ele>844.7</ele>
        <time>2021-05-31T07:49:07.000Z</time>
      </trkpt>
      <trkpt lat="44.09044" lon="5.29858">
        <ele>844</ele>
        <time>2021-05-31T07:49:09.000Z</time>
      </trkpt>
      <trkpt lat="44.09024" lon="5.2984">
        <ele>843.5</ele>
        <time>2021-05-31T07:49:11.000Z</time>
      </trkpt>
      <trkpt lat="44.09005" lon="5.29823">
        <ele>843</ele>
        <time>2021-05-31T07:49:13.000Z</time>
      </trkpt>
      <trkpt lat="44.08985" lon="5.29805">
        <ele>842.6</ele>
        <time>2021-05-31T07:49:15.000Z</time>
      </trkpt>
      <trkpt lat="44.08963" lon="5.29792">
        <ele>841.9</ele>
        <time>2021-05-31T07:49:17.000Z</time>
      </trkpt>
      <trkpt lat="44.08941" lon="5.29779">
        <ele>841.2</ele>
        <time>2021-05-31T07:49:19.000Z</time>
      </trkpt>
      <trkpt lat="44.08917" lon="5.29769">
        <ele>839.7</ele>
        <time>2021-05-31T07:49:21.000Z</time>
      </trkpt>
      <trkpt lat="44.08882" lon="5.2976">
        <ele>838.2</ele>
        <time>2021-05-31T07:49:24.000Z</time>
      </trkpt>
      <trkpt lat="44.08846" lon="5.29751">
        <ele>836.7</ele>
        <time>2021-05-31T07:49:27.000Z</time>
      </trkpt>
      <trkpt lat="44.08811" lon="5.29741">
        <ele>833.6</ele>
        <time>2021-05-31T07:49:29.000Z</time>
      </trkpt>
      <trkpt lat="44.08775" lon="5.29732">
        <ele>830.4</ele>
        <time>2021-05-31T07:49:32.000Z</time>
      </trkpt>
      <trkpt lat="44.0874" lon="5.29723">
        <ele>827.4</ele>
        <time>2021-05-31T07:49:34.000Z</time>
      </trkpt>
      <trkpt lat="44.08704" lon="5.29714">
        <ele>824.4</ele>
        <time>2021-05-31T07:49:37.000Z</time>
      </trkpt>
      <trkpt lat="44.08661" lon="5.29701">
        <ele>820.2</ele>
        <time>2021-05-31T07:49:40.000Z</time>
      </trkpt>
      <trkpt lat="44.08627" lon="5.29693">
        <ele>818.2</ele>
        <time>2021-05-31T07:49:42.000Z</time>
      </trkpt>
      <trkpt lat="44.08595" lon="5.29688">
        <ele>815.7</ele>
        <time>2021-05-31T07:49:45.000Z</time>
      </trkpt>
      <trkpt lat="44.08562" lon="5.29683">
        <ele>813.2</ele>
        <time>2021-05-31T07:49:47.000Z</time>
      </trkpt>
      <trkpt lat="44.08533" lon="5.29682">
        <ele>811.2</ele>
        <time>2021-05-31T07:49:49.000Z</time>
      </trkpt>
      <trkpt lat="44.08503" lon="5.29681">
        <ele>809.3</ele>
        <time>2021-05-31T07:49:51.000Z</time>
      </trkpt>
      <trkpt lat="44.08471" lon="5.29682">
        <ele>806.8</ele>
        <time>2021-05-31T07:49:54.000Z</time>
      </trkpt>
      <trkpt lat="44.08438" lon="5.29683">
        <ele>804.4</ele>
        <time>2021-05-31T07:49:56.000Z</time>
      </trkpt>
      <trkpt lat="44.08412" lon="5.29687">
        <ele>802.5</ele>
        <time>2021-05-31T07:49:58.000Z</time>
      </trkpt>
      <trkpt lat="44.08386" lon="5.2969">
        <ele>800.6</ele>
        <time>2021-05-31T07:50:00.000Z</time>
      </trkpt>
      <trkpt lat="44.0836" lon="5.29694">
        <ele>799.1</ele>
        <time>2021-05-31T07:50:01.000Z</time>
      </trkpt>
      <trkpt lat="44.08334" lon="5.29697">
        <ele>797.5</ele>
        <time>2021-05-31T07:50:03.000Z</time>
      </trkpt>
      <trkpt lat="44.08312" lon="5.29696">
        <ele>796</ele>
        <time>2021-05-31T07:50:05.000Z</time>
      </trkpt>
      <trkpt lat="44.08298" lon="5.29693">
        <ele>795.3</ele>
        <time>2021-05-31T07:50:06.000Z</time>
      </trkpt>
      <trkpt lat="44.08266" lon="5.29674">
        <ele>794.4</ele>
        <time>2021-05-31T07:50:09.000Z</time>
      </trkpt>
      <trkpt lat="44.08245" lon="5.29653">
        <ele>792.6</ele>
        <time>2021-05-31T07:50:11.000Z</time>
      </trkpt>
      <trkpt lat="44.08224" lon="5.2962">
        <ele>790.4</ele>
        <time>2021-05-31T07:50:13.000Z</time>
      </trkpt>
      <trkpt lat="44.08211" lon="5.29582">
        <ele>788</ele>
        <time>2021-05-31T07:50:15.000Z</time>
      </trkpt>
      <trkpt lat="44.08204" lon="5.29541">
        <ele>786.6</ele>
        <time>2021-05-31T07:50:17.000Z</time>
      </trkpt>
      <trkpt lat="44.08203" lon="5.29516">
        <ele>784.4</ele>
        <time>2021-05-31T07:50:19.000Z</time>
      </trkpt>
      <trkpt lat="44.08205" lon="5.29492">
        <ele>782.4</ele>
        <time>2021-05-31T07:50:20.000Z</time>
      </trkpt>
      <trkpt lat="44.08209" lon="5.2947">
        <ele>779.8</ele>
        <time>2021-05-31T07:50:22.000Z</time>
      </trkpt>
      <trkpt lat="44.08224" lon="5.29427">
        <ele>778</ele>
        <time>2021-05-31T07:50:24.000Z</time>
      </trkpt>
      <trkpt lat="44.08238" lon="5.29383">
        <ele>776.4</ele>
        <time>2021-05-31T07:50:27.000Z</time>
      </trkpt>
      <trkpt lat="44.0825" lon="5.29338">
        <ele>774.3</ele>
        <time>2021-05-31T07:50:29.000Z</time>
      </trkpt>
      <trkpt lat="44.08253" lon="5.29314">
        <ele>772.6</ele>
        <time>2021-05-31T07:50:30.000Z</time>
      </trkpt>
      <trkpt lat="44.08255" lon="5.29263">
        <ele>770.5</ele>
        <time>2021-05-31T07:50:33.000Z</time>
      </trkpt>
      <trkpt lat="44.08249" lon="5.29212">
        <ele>768</ele>
        <time>2021-05-31T07:50:36.000Z</time>
      </trkpt>
      <trkpt lat="44.08244" lon="5.29189">
        <ele>765</ele>
        <time>2021-05-31T07:50:37.000Z</time>
      </trkpt>
      <trkpt lat="44.08233" lon="5.29152">
        <ele>762.6</ele>
        <time>2021-05-31T07:50:39.000Z</time>
      </trkpt>
      <trkpt lat="44.08223" lon="5.29116">
        <ele>760.4</ele>
        <time>2021-05-31T07:50:41.000Z</time>
      </trkpt>
      <trkpt lat="44.08212" lon="5.29079">
        <ele>758.2</ele>
        <time>2021-05-31T07:50:43.000Z</time>
      </trkpt>
      <trkpt lat="44.08205" lon="5.29017">
        <ele>753.8</ele>
        <time>2021-05-31T07:50:46.000Z</time>
      </trkpt>
      <trkpt lat="44.08206" lon="5.28986">
        <ele>751.8</ele>
        <time>2021-05-31T07:50:48.000Z</time>
      </trkpt>
      <trkpt lat="44.08209" lon="5.28961">
        <ele>750.4</ele>
        <time>2021-05-31T07:50:49.000Z</time>
      </trkpt>
      <trkpt lat="44.0822" lon="5.28909">
        <ele>746.4</ele>
        <time>2021-05-31T07:50:52.000Z</time>
      </trkpt>
      <trkpt lat="44.08229" lon="5.28884">
        <ele>743.2</ele>
        <time>2021-05-31T07:50:53.000Z</time>
      </trkpt>
      <trkpt lat="44.08243" lon="5.28858">
        <ele>741.6</ele>
        <time>2021-05-31T07:50:55.000Z</time>
      </trkpt>
      <trkpt lat="44.08257" lon="5.28833">
        <ele>740.1</ele>
        <time>2021-05-31T07:50:57.000Z</time>
      </trkpt>
      <trkpt lat="44.08284" lon="5.28781">
        <ele>733.9</ele>
        <time>2021-05-31T07:51:00.000Z</time>
      </trkpt>
      <trkpt lat="44.08294" lon="5.28756">
        <ele>732.4</ele>
        <time>2021-05-31T07:51:02.000Z</time>
      </trkpt>
      <trkpt lat="44.0831" lon="5.28706">
        <ele>730.8</ele>
        <time>2021-05-31T07:51:05.000Z</time>
      </trkpt>
      <trkpt lat="44.08319" lon="5.28653">
        <ele>726.7</ele>
        <time>2021-05-31T07:51:08.000Z</time>
      </trkpt>
      <trkpt lat="44.08323" lon="5.28599">
        <ele>724.1</ele>
        <time>2021-05-31T07:51:11.000Z</time>
      </trkpt>
      <trkpt lat="44.08322" lon="5.28557">
        <ele>721.4</ele>
        <time>2021-05-31T07:51:13.000Z</time>
      </trkpt>
      <trkpt lat="44.08319" lon="5.285">
        <ele>717.2</ele>
        <time>2021-05-31T07:51:16.000Z</time>
      </trkpt>
      <trkpt lat="44.08316" lon="5.28444">
        <ele>713</ele>
        <time>2021-05-31T07:51:19.000Z</time>
      </trkpt>
      <trkpt lat="44.08314" lon="5.28406">
        <ele>710.7</ele>
        <time>2021-05-31T07:51:20.000Z</time>
      </trkpt>
      <trkpt lat="44.08312" lon="5.28369">
        <ele>708.4</ele>
        <time>2021-05-31T07:51:22.000Z</time>
      </trkpt>
      <trkpt lat="44.0831" lon="5.28331">
        <ele>706.1</ele>
        <time>2021-05-31T07:51:24.000Z</time>
      </trkpt>
      <trkpt lat="44.08311" lon="5.28294">
        <ele>703.8</ele>
        <time>2021-05-31T07:51:26.000Z</time>
      </trkpt>
      <trkpt lat="44.08312" lon="5.28256">
        <ele>701.5</ele>
        <time>2021-05-31T07:51:28.000Z</time>
      </trkpt>
      <trkpt lat="44.08313" lon="5.28219">
        <ele>699.2</ele>
        <time>2021-05-31T07:51:30.000Z</time>
      </trkpt>
      <trkpt lat="44.08314" lon="5.28163">
        <ele>695.3</ele>
        <time>2021-05-31T07:51:33.000Z</time>
      </trkpt>
      <trkpt lat="44.08316" lon="5.28107">
        <ele>691.4</ele>
        <time>2021-05-31T07:51:35.000Z</time>
      </trkpt>
      <trkpt lat="44.08316" lon="5.2807">
        <ele>689</ele>
        <time>2021-05-31T07:51:37.000Z</time>
      </trkpt>
      <trkpt lat="44.08317" lon="5.28032">
        <ele>686.6</ele>
        <time>2021-05-31T07:51:39.000Z</time>
      </trkpt>
      <trkpt lat="44.08318" lon="5.27995">
        <ele>684.1</ele>
        <time>2021-05-31T07:51:41.000Z</time>
      </trkpt>
      <trkpt lat="44.0832" lon="5.27939">
        <ele>679.9</ele>
        <time>2021-05-31T07:51:44.000Z</time>
      </trkpt>
      <trkpt lat="44.08321" lon="5.27883">
        <ele>675.7</ele>
        <time>2021-05-31T07:51:47.000Z</time>
      </trkpt>
      <trkpt lat="44.08326" lon="5.27836">
        <ele>673</ele>
        <time>2021-05-31T07:51:49.000Z</time>
      </trkpt>
      <trkpt lat="44.08336" lon="5.2779">
        <ele>670.5</ele>
        <time>2021-05-31T07:51:52.000Z</time>
      </trkpt>
      <trkpt lat="44.08348" lon="5.27756">
        <ele>669.5</ele>
        <time>2021-05-31T07:51:54.000Z</time>
      </trkpt>
      <trkpt lat="44.08359" lon="5.27722">
        <ele>668.4</ele>
        <time>2021-05-31T07:51:56.000Z</time>
      </trkpt>
      <trkpt lat="44.08371" lon="5.27679">
        <ele>664.9</ele>
        <time>2021-05-31T07:51:59.000Z</time>
      </trkpt>
      <trkpt lat="44.08378" lon="5.27643">
        <ele>661.8</ele>
        <time>2021-05-31T07:52:01.000Z</time>
      </trkpt>
      <trkpt lat="44.08378" lon="5.27628">
        <ele>660.1</ele>
        <time>2021-05-31T07:52:01.000Z</time>
      </trkpt>
      <trkpt lat="44.08381" lon="5.27583">
        <ele>657.6</ele>
        <time>2021-05-31T07:52:04.000Z</time>
      </trkpt>
      <trkpt lat="44.08378" lon="5.27543">
        <ele>655.7</ele>
        <time>2021-05-31T07:52:06.000Z</time>
      </trkpt>
      <trkpt lat="44.08371" lon="5.27505">
        <ele>653.9</ele>
        <time>2021-05-31T07:52:08.000Z</time>
      </trkpt>
      <trkpt lat="44.0836" lon="5.2747">
        <ele>652.1</ele>
        <time>2021-05-31T07:52:10.000Z</time>
      </trkpt>
      <trkpt lat="44.08346" lon="5.27439">
        <ele>648.9</ele>
        <time>2021-05-31T07:52:12.000Z</time>
      </trkpt>
      <trkpt lat="44.08325" lon="5.27407">
        <ele>646.4</ele>
        <time>2021-05-31T07:52:14.000Z</time>
      </trkpt>
      <trkpt lat="44.08304" lon="5.27375">
        <ele>644.1</ele>
        <time>2021-05-31T07:52:16.000Z</time>
      </trkpt>
      <trkpt lat="44.08277" lon="5.2734">
        <ele>641.3</ele>
        <time>2021-05-31T07:52:19.000Z</time>
      </trkpt>
      <trkpt lat="44.08252" lon="5.27313">
        <ele>638.3</ele>
        <time>2021-05-31T07:52:21.000Z</time>
      </trkpt>
      <trkpt lat="44.08227" lon="5.27287">
        <ele>635.2</ele>
        <time>2021-05-31T07:52:23.000Z</time>
      </trkpt>
      <trkpt lat="44.08203" lon="5.2726">
        <ele>631.6</ele>
        <time>2021-05-31T07:52:26.000Z</time>
      </trkpt>
      <trkpt lat="44.08178" lon="5.27234">
        <ele>628.2</ele>
        <time>2021-05-31T07:52:28.000Z</time>
      </trkpt>
      <trkpt lat="44.08153" lon="5.27207">
        <ele>626.6</ele>
        <time>2021-05-31T07:52:30.000Z</time>
      </trkpt>
      <trkpt lat="44.08128" lon="5.27181">
        <ele>625.1</ele>
        <time>2021-05-31T07:52:33.000Z</time>
      </trkpt>
      <trkpt lat="44.08106" lon="5.27159">
        <ele>623.9</ele>
        <time>2021-05-31T07:52:35.000Z</time>
      </trkpt>
      <trkpt lat="44.08083" lon="5.27137">
        <ele>622.6</ele>
        <time>2021-05-31T07:52:37.000Z</time>
      </trkpt>
      <trkpt lat="44.08061" lon="5.27119">
        <ele>620.1</ele>
        <time>2021-05-31T07:52:39.000Z</time>
      </trkpt>
      <trkpt lat="44.0804" lon="5.27105">
        <ele>618.7</ele>
        <time>2021-05-31T07:52:40.000Z</time>
      </trkpt>
      <trkpt lat="44.08018" lon="5.27092">
        <ele>617.5</ele>
        <time>2021-05-31T07:52:42.000Z</time>
      </trkpt>
      <trkpt lat="44.07985" lon="5.27075">
        <ele>615.4</ele>
        <time>2021-05-31T07:52:45.000Z</time>
      </trkpt>
      <trkpt lat="44.07951" lon="5.27058">
        <ele>613.3</ele>
        <time>2021-05-31T07:52:47.000Z</time>
      </trkpt>
      <trkpt lat="44.07918" lon="5.27041">
        <ele>611.2</ele>
        <time>2021-05-31T07:52:50.000Z</time>
      </trkpt>
      <trkpt lat="44.07885" lon="5.27024">
        <ele>609.1</ele>
        <time>2021-05-31T07:52:52.000Z</time>
      </trkpt>
      <trkpt lat="44.07851" lon="5.27007">
        <ele>606.6</ele>
        <time>2021-05-31T07:52:55.000Z</time>
      </trkpt>
      <trkpt lat="44.07818" lon="5.2699">
        <ele>604.1</ele>
        <time>2021-05-31T07:52:58.000Z</time>
      </trkpt>
      <trkpt lat="44.07788" lon="5.26974">
        <ele>601.1</ele>
        <time>2021-05-31T07:53:00.000Z</time>
      </trkpt>
      <trkpt lat="44.07757" lon="5.26958">
        <ele>598.1</ele>
        <time>2021-05-31T07:53:02.000Z</time>
      </trkpt>
      <trkpt lat="44.07734" lon="5.26943">
        <ele>596.5</ele>
        <time>2021-05-31T07:53:04.000Z</time>
      </trkpt>
      <trkpt lat="44.07716" lon="5.26929">
        <ele>595.1</ele>
        <time>2021-05-31T07:53:05.000Z</time>
      </trkpt>
      <trkpt lat="44.07697" lon="5.26909">
        <ele>593.2</ele>
        <time>2021-05-31T07:53:07.000Z</time>
      </trkpt>
      <trkpt lat="44.07677" lon="5.2689">
        <ele>591.2</ele>
        <time>2021-05-31T07:53:09.000Z</time>
      </trkpt>
      <trkpt lat="44.07658" lon="5.2687">
        <ele>589.5</ele>
        <time>2021-05-31T07:53:10.000Z</time>
      </trkpt>
      <trkpt lat="44.07638" lon="5.26851">
        <ele>587.5</ele>
        <time>2021-05-31T07:53:12.000Z</time>
      </trkpt>
      <trkpt lat="44.07621" lon="5.26839">
        <ele>584.3</ele>
        <time>2021-05-31T07:53:14.000Z</time>
      </trkpt>
      <trkpt lat="44.07587" lon="5.26818">
        <ele>581.4</ele>
        <time>2021-05-31T07:53:16.000Z</time>
      </trkpt>
      <trkpt lat="44.07553" lon="5.26798">
        <ele>578.8</ele>
        <time>2021-05-31T07:53:19.000Z</time>
      </trkpt>
      <trkpt lat="44.0754" lon="5.26786">
        <ele>578.2</ele>
        <time>2021-05-31T07:53:20.000Z</time>
      </trkpt>
      <trkpt lat="44.0753" lon="5.26774">
        <ele>577.4</ele>
        <time>2021-05-31T07:53:21.000Z</time>
      </trkpt>
      <trkpt lat="44.07517" lon="5.26753">
        <ele>574.9</ele>
        <time>2021-05-31T07:53:23.000Z</time>
      </trkpt>
      <trkpt lat="44.07502" lon="5.26716">
        <ele>572.5</ele>
        <time>2021-05-31T07:53:25.000Z</time>
      </trkpt>
      <trkpt lat="44.07498" lon="5.26675">
        <ele>570.8</ele>
        <time>2021-05-31T07:53:27.000Z</time>
      </trkpt>
      <trkpt lat="44.075" lon="5.26654">
        <ele>568.6</ele>
        <time>2021-05-31T07:53:28.000Z</time>
      </trkpt>
      <trkpt lat="44.07505" lon="5.26631">
        <ele>566.8</ele>
        <time>2021-05-31T07:53:29.000Z</time>
      </trkpt>
      <trkpt lat="44.07512" lon="5.26609">
        <ele>565.3</ele>
        <time>2021-05-31T07:53:31.000Z</time>
      </trkpt>
      <trkpt lat="44.07525" lon="5.26586">
        <ele>563.5</ele>
        <time>2021-05-31T07:53:32.000Z</time>
      </trkpt>
      <trkpt lat="44.07538" lon="5.26569">
        <ele>561.5</ele>
        <time>2021-05-31T07:53:33.000Z</time>
      </trkpt>
      <trkpt lat="44.07571" lon="5.26543">
        <ele>559.2</ele>
        <time>2021-05-31T07:53:36.000Z</time>
      </trkpt>
      <trkpt lat="44.0759" lon="5.26531">
        <ele>557.2</ele>
        <time>2021-05-31T07:53:38.000Z</time>
      </trkpt>
      <trkpt lat="44.07615" lon="5.26518">
        <ele>555.2</ele>
        <time>2021-05-31T07:53:40.000Z</time>
      </trkpt>
      <trkpt lat="44.0764" lon="5.26505">
        <ele>553.3</ele>
        <time>2021-05-31T07:53:41.000Z</time>
      </trkpt>
      <trkpt lat="44.07658" lon="5.26492">
        <ele>551.9</ele>
        <time>2021-05-31T07:53:43.000Z</time>
      </trkpt>
      <trkpt lat="44.07681" lon="5.26468">
        <ele>549.2</ele>
        <time>2021-05-31T07:53:45.000Z</time>
      </trkpt>
      <trkpt lat="44.0769" lon="5.26454">
        <ele>548.4</ele>
        <time>2021-05-31T07:53:46.000Z</time>
      </trkpt>
      <trkpt lat="44.07696" lon="5.26437">
        <ele>547.7</ele>
        <time>2021-05-31T07:53:47.000Z</time>
      </trkpt>
      <trkpt lat="44.07703" lon="5.26402">
        <ele>545.7</ele>
        <time>2021-05-31T07:53:49.000Z</time>
      </trkpt>
      <trkpt lat="44.07705" lon="5.26384">
        <ele>544.2</ele>
        <time>2021-05-31T07:53:50.000Z</time>
      </trkpt>
      <trkpt lat="44.07704" lon="5.26365">
        <ele>543.3</ele>
        <time>2021-05-31T07:53:51.000Z</time>
      </trkpt>
      <trkpt lat="44.077" lon="5.26348">
        <ele>542.3</ele>
        <time>2021-05-31T07:53:52.000Z</time>
      </trkpt>
      <trkpt lat="44.07692" lon="5.26329">
        <ele>540.7</ele>
        <time>2021-05-31T07:53:53.000Z</time>
      </trkpt>
      <trkpt lat="44.07672" lon="5.26297">
        <ele>537.5</ele>
        <time>2021-05-31T07:53:55.000Z</time>
      </trkpt>
      <trkpt lat="44.0765" lon="5.26279">
        <ele>534.9</ele>
        <time>2021-05-31T07:53:57.000Z</time>
      </trkpt>
      <trkpt lat="44.07624" lon="5.26269">
        <ele>532.9</ele>
        <time>2021-05-31T07:53:59.000Z</time>
      </trkpt>
      <trkpt lat="44.07595" lon="5.26268">
        <ele>530.1</ele>
        <time>2021-05-31T07:54:01.000Z</time>
      </trkpt>
      <trkpt lat="44.07568" lon="5.26269">
        <ele>527.9</ele>
        <time>2021-05-31T07:54:03.000Z</time>
      </trkpt>
      <trkpt lat="44.07542" lon="5.26271">
        <ele>525.7</ele>
        <time>2021-05-31T07:54:04.000Z</time>
      </trkpt>
      <trkpt lat="44.07515" lon="5.26272">
        <ele>523.5</ele>
        <time>2021-05-31T07:54:06.000Z</time>
      </trkpt>
      <trkpt lat="44.07485" lon="5.26266">
        <ele>521</ele>
        <time>2021-05-31T07:54:08.000Z</time>
      </trkpt>
      <trkpt lat="44.07467" lon="5.2626">
        <ele>519</ele>
        <time>2021-05-31T07:54:10.000Z</time>
      </trkpt>
      <trkpt lat="44.07439" lon="5.26244">
        <ele>517.7</ele>
        <time>2021-05-31T07:54:12.000Z</time>
      </trkpt>
      <trkpt lat="44.07412" lon="5.26228">
        <ele>516.5</ele>
        <time>2021-05-31T07:54:15.000Z</time>
      </trkpt>
      <trkpt lat="44.07384" lon="5.26212">
        <ele>514.6</ele>
        <time>2021-05-31T07:54:17.000Z</time>
      </trkpt>
      <trkpt lat="44.07356" lon="5.26196">
        <ele>512.6</ele>
        <time>2021-05-31T07:54:19.000Z</time>
      </trkpt>
      <trkpt lat="44.07326" lon="5.26183">
        <ele>510.1</ele>
        <time>2021-05-31T07:54:21.000Z</time>
      </trkpt>
      <trkpt lat="44.07295" lon="5.26171">
        <ele>507.5</ele>
        <time>2021-05-31T07:54:23.000Z</time>
      </trkpt>
      <trkpt lat="44.07265" lon="5.26158">
        <ele>504.8</ele>
        <time>2021-05-31T07:54:26.000Z</time>
      </trkpt>
      <trkpt lat="44.07234" lon="5.26145">
        <ele>502.2</ele>
        <time>2021-05-31T07:54:28.000Z</time>
      </trkpt>
      <trkpt lat="44.07204" lon="5.26133">
        <ele>500.2</ele>
        <time>2021-05-31T07:54:30.000Z</time>
      </trkpt>
      <trkpt lat="44.07173" lon="5.2612">
        <ele>498.3</ele>
        <time>2021-05-31T07:54:32.000Z</time>
      </trkpt>
      <trkpt lat="44.07148" lon="5.26111">
        <ele>496.9</ele>
        <time>2021-05-31T07:54:34.000Z</time>
      </trkpt>
      <trkpt lat="44.07123" lon="5.26103">
        <ele>495.5</ele>
        <time>2021-05-31T07:54:36.000Z</time>
      </trkpt>
      <trkpt lat="44.07096" lon="5.26095">
        <ele>493.7</ele>
        <time>2021-05-31T07:54:38.000Z</time>
      </trkpt>
      <trkpt lat="44.07069" lon="5.26087">
        <ele>491.8</ele>
        <time>2021-05-31T07:54:40.000Z</time>
      </trkpt>
      <trkpt lat="44.07042" lon="5.26079">
        <ele>489.9</ele>
        <time>2021-05-31T07:54:42.000Z</time>
      </trkpt>
      <trkpt lat="44.07015" lon="5.26071">
        <ele>488.3</ele>
        <time>2021-05-31T07:54:44.000Z</time>
      </trkpt>
      <trkpt lat="44.06988" lon="5.26062">
        <ele>486.7</ele>
        <time>2021-05-31T07:54:46.000Z</time>
      </trkpt>
      <trkpt lat="44.06961" lon="5.26054">
        <ele>485.1</ele>
        <time>2021-05-31T07:54:48.000Z</time>
      </trkpt>
      <trkpt lat="44.06934" lon="5.26046">
        <ele>483.7</ele>
        <time>2021-05-31T07:54:50.000Z</time>
      </trkpt>
      <trkpt lat="44.06907" lon="5.26038">
        <ele>482.4</ele>
        <time>2021-05-31T07:54:52.000Z</time>
      </trkpt>
      <trkpt lat="44.0688" lon="5.2603">
        <ele>480.9</ele>
        <time>2021-05-31T07:54:54.000Z</time>
      </trkpt>
      <trkpt lat="44.06854" lon="5.26017">
        <ele>478.2</ele>
        <time>2021-05-31T07:54:56.000Z</time>
      </trkpt>
      <trkpt lat="44.06828" lon="5.25994">
        <ele>475.6</ele>
        <time>2021-05-31T07:54:58.000Z</time>
      </trkpt>
      <trkpt lat="44.06804" lon="5.25965">
        <ele>472.8</ele>
        <time>2021-05-31T07:55:01.000Z</time>
      </trkpt>
      <trkpt lat="44.06782" lon="5.25925">
        <ele>470.8</ele>
        <time>2021-05-31T07:55:03.000Z</time>
      </trkpt>
      <trkpt lat="44.06767" lon="5.25892">
        <ele>468.2</ele>
        <time>2021-05-31T07:55:05.000Z</time>
      </trkpt>
      <trkpt lat="44.06752" lon="5.25859">
        <ele>465.5</ele>
        <time>2021-05-31T07:55:07.000Z</time>
      </trkpt>
      <trkpt lat="44.06736" lon="5.25827">
        <ele>462.7</ele>
        <time>2021-05-31T07:55:09.000Z</time>
      </trkpt>
      <trkpt lat="44.06721" lon="5.25794">
        <ele>460</ele>
        <time>2021-05-31T07:55:11.000Z</time>
      </trkpt>
      <trkpt lat="44.06702" lon="5.25758">
        <ele>457.3</ele>
        <time>2021-05-31T07:55:13.000Z</time>
      </trkpt>
      <trkpt lat="44.06682" lon="5.25723">
        <ele>454.6</ele>
        <time>2021-05-31T07:55:16.000Z</time>
      </trkpt>
      <trkpt lat="44.06663" lon="5.25683">
        <ele>451.2</ele>
        <time>2021-05-31T07:55:18.000Z</time>
      </trkpt>
      <trkpt lat="44.06655" lon="5.25661">
        <ele>449.8</ele>
        <time>2021-05-31T07:55:19.000Z</time>
      </trkpt>
      <trkpt lat="44.06646" lon="5.25622">
        <ele>447.2</ele>
        <time>2021-05-31T07:55:21.000Z</time>
      </trkpt>
      <trkpt lat="44.06636" lon="5.25583">
        <ele>444.5</ele>
        <time>2021-05-31T07:55:23.000Z</time>
      </trkpt>
      <trkpt lat="44.06627" lon="5.25544">
        <ele>441.8</ele>
        <time>2021-05-31T07:55:25.000Z</time>
      </trkpt>
      <trkpt lat="44.06614" lon="5.25501">
        <ele>439</ele>
        <time>2021-05-31T07:55:28.000Z</time>
      </trkpt>
      <trkpt lat="44.06598" lon="5.25465">
        <ele>435.7</ele>
        <time>2021-05-31T07:55:30.000Z</time>
      </trkpt>
      <trkpt lat="44.06579" lon="5.25435">
        <ele>433.3</ele>
        <time>2021-05-31T07:55:32.000Z</time>
      </trkpt>
      <trkpt lat="44.06559" lon="5.25405">
        <ele>431.1</ele>
        <time>2021-05-31T07:55:34.000Z</time>
      </trkpt>
      <trkpt lat="44.0654" lon="5.25375">
        <ele>428.9</ele>
        <time>2021-05-31T07:55:36.000Z</time>
      </trkpt>
      <trkpt lat="44.06521" lon="5.25346">
        <ele>427.2</ele>
        <time>2021-05-31T07:55:38.000Z</time>
      </trkpt>
      <trkpt lat="44.06501" lon="5.25316">
        <ele>425.7</ele>
        <time>2021-05-31T07:55:40.000Z</time>
      </trkpt>
      <trkpt lat="44.06482" lon="5.25286">
        <ele>424.2</ele>
        <time>2021-05-31T07:55:42.000Z</time>
      </trkpt>
      <trkpt lat="44.06463" lon="5.25253">
        <ele>423.1</ele>
        <time>2021-05-31T07:55:45.000Z</time>
      </trkpt>
      <trkpt lat="44.06447" lon="5.2522">
        <ele>422.6</ele>
        <time>2021-05-31T07:55:47.000Z</time>
      </trkpt>
      <trkpt lat="44.06435" lon="5.25176">
        <ele>422.2</ele>
        <time>2021-05-31T07:55:51.000Z</time>
      </trkpt>
      <trkpt lat="44.06428" lon="5.25135">
        <ele>421.8</ele>
        <time>2021-05-31T07:55:53.000Z</time>
      </trkpt>
      <trkpt lat="44.06424" lon="5.25092">
        <ele>421.6</ele>
        <time>2021-05-31T07:55:56.000Z</time>
      </trkpt>
      <trkpt lat="44.06423" lon="5.25053">
        <ele>421.4</ele>
        <time>2021-05-31T07:55:59.000Z</time>
      </trkpt>
      <trkpt lat="44.06425" lon="5.2503">
        <ele>421.2</ele>
        <time>2021-05-31T07:56:00.000Z</time>
      </trkpt>
      <trkpt lat="44.06435" lon="5.24977">
        <ele>419.9</ele>
        <time>2021-05-31T07:56:04.000Z</time>
      </trkpt>
      <trkpt lat="44.06447" lon="5.24934">
        <ele>417.8</ele>
        <time>2021-05-31T07:56:06.000Z</time>
      </trkpt>
      <trkpt lat="44.06458" lon="5.2489">
        <ele>415.6</ele>
        <time>2021-05-31T07:56:09.000Z</time>
      </trkpt>
      <trkpt lat="44.06466" lon="5.24845">
        <ele>412.6</ele>
        <time>2021-05-31T07:56:11.000Z</time>
      </trkpt>
      <trkpt lat="44.06468" lon="5.24797">
        <ele>411.4</ele>
        <time>2021-05-31T07:56:14.000Z</time>
      </trkpt>
      <trkpt lat="44.06465" lon="5.24745">
        <ele>406.7</ele>
        <time>2021-05-31T07:56:17.000Z</time>
      </trkpt>
      <trkpt lat="44.06462" lon="5.2472">
        <ele>404.7</ele>
        <time>2021-05-31T07:56:18.000Z</time>
      </trkpt>
      <trkpt lat="44.06449" lon="5.24671">
        <ele>401.4</ele>
        <time>2021-05-31T07:56:21.000Z</time>
      </trkpt>
      <trkpt lat="44.0643" lon="5.24622">
        <ele>398.4</ele>
        <time>2021-05-31T07:56:23.000Z</time>
      </trkpt>
      <trkpt lat="44.06421" lon="5.24603">
        <ele>396.9</ele>
        <time>2021-05-31T07:56:25.000Z</time>
      </trkpt>
      <trkpt lat="44.06396" lon="5.24568">
        <ele>394.5</ele>
        <time>2021-05-31T07:56:27.000Z</time>
      </trkpt>
      <trkpt lat="44.06373" lon="5.24543">
        <ele>392.1</ele>
        <time>2021-05-31T07:56:29.000Z</time>
      </trkpt>
      <trkpt lat="44.0635" lon="5.24518">
        <ele>389.7</ele>
        <time>2021-05-31T07:56:31.000Z</time>
      </trkpt>
      <trkpt lat="44.06327" lon="5.24493">
        <ele>387.2</ele>
        <time>2021-05-31T07:56:33.000Z</time>
      </trkpt>
      <trkpt lat="44.06304" lon="5.24468">
        <ele>384.9</ele>
        <time>2021-05-31T07:56:35.000Z</time>
      </trkpt>
      <trkpt lat="44.06281" lon="5.24443">
        <ele>382.6</ele>
        <time>2021-05-31T07:56:37.000Z</time>
      </trkpt>
      <trkpt lat="44.06258" lon="5.24418">
        <ele>380.3</ele>
        <time>2021-05-31T07:56:39.000Z</time>
      </trkpt>
      <trkpt lat="44.0624" lon="5.24401">
        <ele>379.6</ele>
        <time>2021-05-31T07:56:41.000Z</time>
      </trkpt>
      <trkpt lat="44.0622" lon="5.24388">
        <ele>379.5</ele>
        <time>2021-05-31T07:56:43.000Z</time>
      </trkpt>
      <trkpt lat="44.062" lon="5.24375">
        <ele>379.2</ele>
        <time>2021-05-31T07:56:45.000Z</time>
      </trkpt>
      <trkpt lat="44.06171" lon="5.24359">
        <ele>376.4</ele>
        <time>2021-05-31T07:56:47.000Z</time>
      </trkpt>
      <trkpt lat="44.06142" lon="5.24343">
        <ele>373.5</ele>
        <time>2021-05-31T07:56:50.000Z</time>
      </trkpt>
      <trkpt lat="44.06112" lon="5.24328">
        <ele>371.8</ele>
        <time>2021-05-31T07:56:52.000Z</time>
      </trkpt>
      <trkpt lat="44.06083" lon="5.24312">
        <ele>370.2</ele>
        <time>2021-05-31T07:56:54.000Z</time>
      </trkpt>
      <trkpt lat="44.06056" lon="5.24299">
        <ele>368.1</ele>
        <time>2021-05-31T07:56:56.000Z</time>
      </trkpt>
      <trkpt lat="44.06029" lon="5.24286">
        <ele>366</ele>
        <time>2021-05-31T07:56:58.000Z</time>
      </trkpt>
      <trkpt lat="44.06003" lon="5.24273">
        <ele>363.9</ele>
        <time>2021-05-31T07:57:00.000Z</time>
      </trkpt>
      <trkpt lat="44.05976" lon="5.2426">
        <ele>362.3</ele>
        <time>2021-05-31T07:57:02.000Z</time>
      </trkpt>
      <trkpt lat="44.05949" lon="5.24247">
        <ele>360.7</ele>
        <time>2021-05-31T07:57:04.000Z</time>
      </trkpt>
      <trkpt lat="44.05922" lon="5.24234">
        <ele>359.1</ele>
        <time>2021-05-31T07:57:07.000Z</time>
      </trkpt>
      <trkpt lat="44.05895" lon="5.24221">
        <ele>357</ele>
        <time>2021-05-31T07:57:09.000Z</time>
      </trkpt>
      <trkpt lat="44.05868" lon="5.24208">
        <ele>354.8</ele>
        <time>2021-05-31T07:57:10.000Z</time>
      </trkpt>
      <trkpt lat="44.05842" lon="5.24194">
        <ele>352.5</ele>
        <time>2021-05-31T07:57:12.000Z</time>
      </trkpt>
      <trkpt lat="44.05815" lon="5.24181">
        <ele>350.4</ele>
        <time>2021-05-31T07:57:14.000Z</time>
      </trkpt>
      <trkpt lat="44.05788" lon="5.24168">
        <ele>348.2</ele>
        <time>2021-05-31T07:57:16.000Z</time>
      </trkpt>
      <trkpt lat="44.05761" lon="5.24155">
        <ele>346.1</ele>
        <time>2021-05-31T07:57:18.000Z</time>
      </trkpt>
      <trkpt lat="44.05734" lon="5.24142">
        <ele>344</ele>
        <time>2021-05-31T07:57:20.000Z</time>
      </trkpt>
      <trkpt lat="44.05707" lon="5.24129">
        <ele>342</ele>
        <time>2021-05-31T07:57:23.000Z</time>
      </trkpt>
      <trkpt lat="44.05681" lon="5.24116">
        <ele>340</ele>
        <time>2021-05-31T07:57:25.000Z</time>
      </trkpt>
      <trkpt lat="44.05654" lon="5.24103">
        <ele>338.5</ele>
        <time>2021-05-31T07:57:27.000Z</time>
      </trkpt>
      <trkpt lat="44.05627" lon="5.2409">
        <ele>337</ele>
        <time>2021-05-31T07:57:29.000Z</time>
      </trkpt>
      <trkpt lat="44.056" lon="5.24077">
        <ele>335.5</ele>
        <time>2021-05-31T07:57:31.000Z</time>
      </trkpt>
      <trkpt lat="44.05576" lon="5.24069">
        <ele>334.2</ele>
        <time>2021-05-31T07:57:33.000Z</time>
      </trkpt>
      <trkpt lat="44.05552" lon="5.24065">
        <ele>333.2</ele>
        <time>2021-05-31T07:57:35.000Z</time>
      </trkpt>
      <trkpt lat="44.05529" lon="5.24065">
        <ele>331.5</ele>
        <time>2021-05-31T07:57:36.000Z</time>
      </trkpt>
      <trkpt lat="44.05504" lon="5.24069">
        <ele>330.6</ele>
        <time>2021-05-31T07:57:38.000Z</time>
      </trkpt>
      <trkpt lat="44.05478" lon="5.24072">
        <ele>329.7</ele>
        <time>2021-05-31T07:57:40.000Z</time>
      </trkpt>
      <trkpt lat="44.05461" lon="5.24069">
        <ele>328.1</ele>
        <time>2021-05-31T07:57:41.000Z</time>
      </trkpt>
      <trkpt lat="44.05445" lon="5.24059">
        <ele>327.2</ele>
        <time>2021-05-31T07:57:43.000Z</time>
      </trkpt>
      <trkpt lat="44.05438" lon="5.24051">
        <ele>326.6</ele>
        <time>2021-05-31T07:57:43.000Z</time>
      </trkpt>
      <trkpt lat="44.05424" lon="5.24028">
        <ele>325.4</ele>
        <time>2021-05-31T07:57:45.000Z</time>
      </trkpt>
      <trkpt lat="44.05418" lon="5.24008">
        <ele>324.3</ele>
        <time>2021-05-31T07:57:46.000Z</time>
      </trkpt>
      <trkpt lat="44.05417" lon="5.23983">
        <ele>323.3</ele>
        <time>2021-05-31T07:57:47.000Z</time>
      </trkpt>
      <trkpt lat="44.05427" lon="5.23949">
        <ele>322.1</ele>
        <time>2021-05-31T07:57:49.000Z</time>
      </trkpt>
      <trkpt lat="44.05433" lon="5.23941">
        <ele>321.3</ele>
        <time>2021-05-31T07:57:50.000Z</time>
      </trkpt>
      <trkpt lat="44.0545" lon="5.23924">
        <ele>320</ele>
        <time>2021-05-31T07:57:52.000Z</time>
      </trkpt>
      <trkpt lat="44.05477" lon="5.23905">
        <ele>318.7</ele>
        <time>2021-05-31T07:57:54.000Z</time>
      </trkpt>
      <trkpt lat="44.05504" lon="5.23885">
        <ele>317.3</ele>
        <time>2021-05-31T07:57:56.000Z</time>
      </trkpt>
      <trkpt lat="44.0554" lon="5.23865">
        <ele>314.7</ele>
        <time>2021-05-31T07:57:59.000Z</time>
      </trkpt>
      <trkpt lat="44.05575" lon="5.23844">
        <ele>312</ele>
        <time>2021-05-31T07:58:02.000Z</time>
      </trkpt>
      <trkpt lat="44.05588" lon="5.23829">
        <ele>310.2</ele>
        <time>2021-05-31T07:58:03.000Z</time>
      </trkpt>
      <trkpt lat="44.05605" lon="5.23803">
        <ele>308.4</ele>
        <time>2021-05-31T07:58:05.000Z</time>
      </trkpt>
      <trkpt lat="44.05622" lon="5.23775">
        <ele>306.9</ele>
        <time>2021-05-31T07:58:07.000Z</time>
      </trkpt>
      <trkpt lat="44.05639" lon="5.23748">
        <ele>305.5</ele>
        <time>2021-05-31T07:58:09.000Z</time>
      </trkpt>
      <trkpt lat="44.05655" lon="5.2372">
        <ele>305</ele>
        <time>2021-05-31T07:58:11.000Z</time>
      </trkpt>
      <trkpt lat="44.05672" lon="5.23692">
        <ele>304.6</ele>
        <time>2021-05-31T07:58:13.000Z</time>
      </trkpt>
      <trkpt lat="44.05661" lon="5.23687">
        <ele>304.6</ele>
        <time>2021-05-31T07:58:14.000Z</time>
      </trkpt>
      <trkpt lat="44.05654" lon="5.23688">
        <ele>304.8</ele>
        <time>2021-05-31T07:58:15.000Z</time>
      </trkpt>
      <trkpt lat="44.05649" lon="5.2369">
        <ele>305</ele>
        <time>2021-05-31T07:58:16.000Z</time>
      </trkpt>
      <trkpt lat="44.05621" lon="5.23701">
        <ele>305.3</ele>
        <time>2021-05-31T07:58:19.000Z</time>
      </trkpt>
      <trkpt lat="44.05593" lon="5.23712">
        <ele>305.5</ele>
        <time>2021-05-31T07:58:22.000Z</time>
      </trkpt>
      <trkpt lat="44.05564" lon="5.23722">
        <ele>306.1</ele>
        <time>2021-05-31T07:58:25.000Z</time>
      </trkpt>
      <trkpt lat="44.05536" lon="5.23733">
        <ele>306.7</ele>
        <time>2021-05-31T07:58:29.000Z</time>
      </trkpt>
      <trkpt lat="44.05522" lon="5.23735">
        <ele>307.2</ele>
        <time>2021-05-31T07:58:31.000Z</time>
      </trkpt>
      <trkpt lat="44.05495" lon="5.23735">
        <ele>308.5</ele>
        <time>2021-05-31T07:58:35.000Z</time>
      </trkpt>
      <trkpt lat="44.05477" lon="5.23743">
        <ele>309.4</ele>
        <time>2021-05-31T07:58:38.000Z</time>
      </trkpt>
      <trkpt lat="44.05467" lon="5.23755">
        <ele>310.2</ele>
        <time>2021-05-31T07:58:40.000Z</time>
      </trkpt>
      <trkpt lat="44.0545" lon="5.23781">
        <ele>311</ele>
        <time>2021-05-31T07:58:43.000Z</time>
      </trkpt>
      <trkpt lat="44.05426" lon="5.2381">
        <ele>312.2</ele>
        <time>2021-05-31T07:58:47.000Z</time>
      </trkpt>
      <trkpt lat="44.054" lon="5.23834">
        <ele>314</ele>
        <time>2021-05-31T07:58:53.000Z</time>
      </trkpt>
      <trkpt lat="44.05386" lon="5.23856">
        <ele>314.6</ele>
        <time>2021-05-31T07:58:55.000Z</time>
      </trkpt>
      <trkpt lat="44.05382" lon="5.23868">
        <ele>315</ele>
        <time>2021-05-31T07:58:56.000Z</time>
      </trkpt>
      <trkpt lat="44.05381" lon="5.23881">
        <ele>315.4</ele>
        <time>2021-05-31T07:58:58.000Z</time>
      </trkpt>
      <trkpt lat="44.05386" lon="5.23934">
        <ele>316</ele>
        <time>2021-05-31T07:59:02.000Z</time>
      </trkpt>
      <trkpt lat="44.05384" lon="5.23966">
        <ele>316.9</ele>
        <time>2021-05-31T07:59:05.000Z</time>
      </trkpt>
      <trkpt lat="44.05377" lon="5.24004">
        <ele>317.7</ele>
        <time>2021-05-31T07:59:09.000Z</time>
      </trkpt>
      <trkpt lat="44.0537" lon="5.24026">
        <ele>319.3</ele>
        <time>2021-05-31T07:59:12.000Z</time>
      </trkpt>
      <trkpt lat="44.05357" lon="5.24057">
        <ele>320</ele>
        <time>2021-05-31T07:59:16.000Z</time>
      </trkpt>
      <trkpt lat="44.05343" lon="5.24088">
        <ele>320.5</ele>
        <time>2021-05-31T07:59:19.000Z</time>
      </trkpt>
      <trkpt lat="44.05343" lon="5.24105">
        <ele>320.7</ele>
        <time>2021-05-31T07:59:20.000Z</time>
      </trkpt>
      <trkpt lat="44.05349" lon="5.24123">
        <ele>321.6</ele>
        <time>2021-05-31T07:59:22.000Z</time>
      </trkpt>
      <trkpt lat="44.05363" lon="5.24152">
        <ele>322.7</ele>
        <time>2021-05-31T07:59:26.000Z</time>
      </trkpt>
      <trkpt lat="44.05384" lon="5.24176">
        <ele>323.7</ele>
        <time>2021-05-31T07:59:30.000Z</time>
      </trkpt>
      <trkpt lat="44.05402" lon="5.24191">
        <ele>324.3</ele>
        <time>2021-05-31T07:59:32.000Z</time>
      </trkpt>
      <trkpt lat="44.0542" lon="5.24207">
        <ele>324.9</ele>
        <time>2021-05-31T07:59:35.000Z</time>
      </trkpt>
      <trkpt lat="44.05429" lon="5.2422">
        <ele>325.7</ele>
        <time>2021-05-31T07:59:37.000Z</time>
      </trkpt>
      <trkpt lat="44.0544" lon="5.24249">
        <ele>326.4</ele>
        <time>2021-05-31T07:59:40.000Z</time>
      </trkpt>
      <trkpt lat="44.0545" lon="5.24277">
        <ele>326.9</ele>
        <time>2021-05-31T07:59:43.000Z</time>
      </trkpt>
      <trkpt lat="44.05461" lon="5.24306">
        <ele>327.7</ele>
        <time>2021-05-31T07:59:46.000Z</time>
      </trkpt>
      <trkpt lat="44.05471" lon="5.24335">
        <ele>328.5</ele>
        <time>2021-05-31T07:59:49.000Z</time>
      </trkpt>
      <trkpt lat="44.05486" lon="5.24371">
        <ele>330</ele>
        <time>2021-05-31T07:59:53.000Z</time>
      </trkpt>
      <trkpt lat="44.05496" lon="5.24384">
        <ele>330.4</ele>
        <time>2021-05-31T07:59:55.000Z</time>
      </trkpt>
      <trkpt lat="44.05509" lon="5.24394">
        <ele>330.7</ele>
        <time>2021-05-31T07:59:57.000Z</time>
      </trkpt>
      <trkpt lat="44.05537" lon="5.2441">
        <ele>331.4</ele>
        <time>2021-05-31T08:00:00.000Z</time>
      </trkpt>
      <trkpt lat="44.05551" lon="5.24422">
        <ele>333.2</ele>
        <time>2021-05-31T08:00:04.000Z</time>
      </trkpt>
      <trkpt lat="44.05562" lon="5.24438">
        <ele>334.1</ele>
        <time>2021-05-31T08:00:07.000Z</time>
      </trkpt>
      <trkpt lat="44.05572" lon="5.24455">
        <ele>334.8</ele>
        <time>2021-05-31T08:00:09.000Z</time>
      </trkpt>
      <trkpt lat="44.05585" lon="5.24482">
        <ele>335.2</ele>
        <time>2021-05-31T08:00:12.000Z</time>
      </trkpt>
      <trkpt lat="44.05598" lon="5.24509">
        <ele>335.6</ele>
        <time>2021-05-31T08:00:15.000Z</time>
      </trkpt>
      <trkpt lat="44.05609" lon="5.2453">
        <ele>336.6</ele>
        <time>2021-05-31T08:00:18.000Z</time>
      </trkpt>
      <trkpt lat="44.05619" lon="5.24551">
        <ele>337.7</ele>
        <time>2021-05-31T08:00:21.000Z</time>
      </trkpt>
      <trkpt lat="44.0563" lon="5.24571">
        <ele>338.7</ele>
        <time>2021-05-31T08:00:24.000Z</time>
      </trkpt>
      <trkpt lat="44.05646" lon="5.24603">
        <ele>339</ele>
        <time>2021-05-31T08:00:27.000Z</time>
      </trkpt>
      <trkpt lat="44.05662" lon="5.24634">
        <ele>339.3</ele>
        <time>2021-05-31T08:00:30.000Z</time>
      </trkpt>
      <trkpt lat="44.05679" lon="5.2466">
        <ele>340.3</ele>
        <time>2021-05-31T08:00:33.000Z</time>
      </trkpt>
      <trkpt lat="44.05696" lon="5.24687">
        <ele>341.4</ele>
        <time>2021-05-31T08:00:37.000Z</time>
      </trkpt>
      <trkpt lat="44.05707" lon="5.2471">
        <ele>342.3</ele>
        <time>2021-05-31T08:00:40.000Z</time>
      </trkpt>
      <trkpt lat="44.05718" lon="5.24732">
        <ele>343.3</ele>
        <time>2021-05-31T08:00:43.000Z</time>
      </trkpt>
      <trkpt lat="44.05729" lon="5.24755">
        <ele>344.3</ele>
        <time>2021-05-31T08:00:46.000Z</time>
      </trkpt>
      <trkpt lat="44.05741" lon="5.24764">
        <ele>344.7</ele>
        <time>2021-05-31T08:00:47.000Z</time>
      </trkpt>
      <trkpt lat="44.05776" lon="5.24771">
        <ele>345.6</ele>
        <time>2021-05-31T08:00:52.000Z</time>
      </trkpt>
      <trkpt lat="44.05787" lon="5.24776">
        <ele>346.6</ele>
        <time>2021-05-31T08:00:54.000Z</time>
      </trkpt>
      <trkpt lat="44.05798" lon="5.24784">
        <ele>347.1</ele>
        <time>2021-05-31T08:00:56.000Z</time>
      </trkpt>
      <trkpt lat="44.05815" lon="5.24805">
        <ele>347.3</ele>
        <time>2021-05-31T08:00:58.000Z</time>
      </trkpt>
      <trkpt lat="44.05818" lon="5.24831">
        <ele>347.7</ele>
        <time>2021-05-31T08:01:00.000Z</time>
      </trkpt>
      <trkpt lat="44.05815" lon="5.24845">
        <ele>348.2</ele>
        <time>2021-05-31T08:01:02.000Z</time>
      </trkpt>
      <trkpt lat="44.05805" lon="5.24865">
        <ele>348.6</ele>
        <time>2021-05-31T08:01:04.000Z</time>
      </trkpt>
      <trkpt lat="44.05799" lon="5.2487">
        <ele>348.8</ele>
        <time>2021-05-31T08:01:05.000Z</time>
      </trkpt>
      <trkpt lat="44.0579" lon="5.24872">
        <ele>349.1</ele>
        <time>2021-05-31T08:01:06.000Z</time>
      </trkpt>
      <trkpt lat="44.05781" lon="5.2487">
        <ele>349.3</ele>
        <time>2021-05-31T08:01:07.000Z</time>
      </trkpt>
      <trkpt lat="44.05774" lon="5.24866">
        <ele>349.5</ele>
        <time>2021-05-31T08:01:08.000Z</time>
      </trkpt>
      <trkpt lat="44.05752" lon="5.24838">
        <ele>350.3</ele>
        <time>2021-05-31T08:01:12.000Z</time>
      </trkpt>
      <trkpt lat="44.05729" lon="5.2481">
        <ele>351.1</ele>
        <time>2021-05-31T08:01:15.000Z</time>
      </trkpt>
      <trkpt lat="44.05714" lon="5.24791">
        <ele>351.9</ele>
        <time>2021-05-31T08:01:18.000Z</time>
      </trkpt>
      <trkpt lat="44.05699" lon="5.24773">
        <ele>352.8</ele>
        <time>2021-05-31T08:01:21.000Z</time>
      </trkpt>
      <trkpt lat="44.05684" lon="5.24754">
        <ele>353.6</ele>
        <time>2021-05-31T08:01:24.000Z</time>
      </trkpt>
      <trkpt lat="44.0566" lon="5.24732">
        <ele>354.9</ele>
        <time>2021-05-31T08:01:28.000Z</time>
      </trkpt>
      <trkpt lat="44.05647" lon="5.24723">
        <ele>355.7</ele>
        <time>2021-05-31T08:01:30.000Z</time>
      </trkpt>
      <trkpt lat="44.05622" lon="5.2471">
        <ele>356.6</ele>
        <time>2021-05-31T08:01:34.000Z</time>
      </trkpt>
      <trkpt lat="44.05595" lon="5.24707">
        <ele>357</ele>
        <time>2021-05-31T08:01:37.000Z</time>
      </trkpt>
      <trkpt lat="44.05575" lon="5.24709">
        <ele>357.5</ele>
        <time>2021-05-31T08:01:39.000Z</time>
      </trkpt>
      <trkpt lat="44.05554" lon="5.2471">
        <ele>358.2</ele>
        <time>2021-05-31T08:01:42.000Z</time>
      </trkpt>
      <trkpt lat="44.05534" lon="5.24706">
        <ele>360</ele>
        <time>2021-05-31T08:01:46.000Z</time>
      </trkpt>
      <trkpt lat="44.05522" lon="5.24709">
        <ele>360.7</ele>
        <time>2021-05-31T08:01:48.000Z</time>
      </trkpt>
      <trkpt lat="44.05502" lon="5.24723">
        <ele>361.4</ele>
        <time>2021-05-31T08:01:51.000Z</time>
      </trkpt>
      <trkpt lat="44.05492" lon="5.24727">
        <ele>361.9</ele>
        <time>2021-05-31T08:01:53.000Z</time>
      </trkpt>
      <trkpt lat="44.05482" lon="5.24727">
        <ele>362.4</ele>
        <time>2021-05-31T08:01:54.000Z</time>
      </trkpt>
      <trkpt lat="44.05452" lon="5.24708">
        <ele>363.1</ele>
        <time>2021-05-31T08:01:58.000Z</time>
      </trkpt>
      <trkpt lat="44.0544" lon="5.24704">
        <ele>363.7</ele>
        <time>2021-05-31T08:02:00.000Z</time>
      </trkpt>
      <trkpt lat="44.05427" lon="5.24704">
        <ele>364.2</ele>
        <time>2021-05-31T08:02:01.000Z</time>
      </trkpt>
      <trkpt lat="44.05414" lon="5.24707">
        <ele>364.8</ele>
        <time>2021-05-31T08:02:03.000Z</time>
      </trkpt>
      <trkpt lat="44.05389" lon="5.24717">
        <ele>365.7</ele>
        <time>2021-05-31T08:02:07.000Z</time>
      </trkpt>
      <trkpt lat="44.05375" lon="5.24727">
        <ele>366.7</ele>
        <time>2021-05-31T08:02:10.000Z</time>
      </trkpt>
      <trkpt lat="44.05357" lon="5.24743">
        <ele>367.2</ele>
        <time>2021-05-31T08:02:12.000Z</time>
      </trkpt>
      <trkpt lat="44.05339" lon="5.2476">
        <ele>367.6</ele>
        <time>2021-05-31T08:02:15.000Z</time>
      </trkpt>
      <trkpt lat="44.05321" lon="5.24776">
        <ele>368.2</ele>
        <time>2021-05-31T08:02:17.000Z</time>
      </trkpt>
      <trkpt lat="44.05308" lon="5.24781">
        <ele>369.1</ele>
        <time>2021-05-31T08:02:20.000Z</time>
      </trkpt>
      <trkpt lat="44.05283" lon="5.24778">
        <ele>370.1</ele>
        <time>2021-05-31T08:02:23.000Z</time>
      </trkpt>
      <trkpt lat="44.05257" lon="5.24776">
        <ele>370.9</ele>
        <time>2021-05-31T08:02:26.000Z</time>
      </trkpt>
      <trkpt lat="44.05235" lon="5.24779">
        <ele>371.4</ele>
        <time>2021-05-31T08:02:29.000Z</time>
      </trkpt>
      <trkpt lat="44.0522" lon="5.24779">
        <ele>372.1</ele>
        <time>2021-05-31T08:02:31.000Z</time>
      </trkpt>
      <trkpt lat="44.05199" lon="5.24775">
        <ele>372.7</ele>
        <time>2021-05-31T08:02:34.000Z</time>
      </trkpt>
      <trkpt lat="44.05186" lon="5.24777">
        <ele>373.5</ele>
        <time>2021-05-31T08:02:36.000Z</time>
      </trkpt>
      <trkpt lat="44.05157" lon="5.24788">
        <ele>374.8</ele>
        <time>2021-05-31T08:02:40.000Z</time>
      </trkpt>
      <trkpt lat="44.05146" lon="5.24787">
        <ele>375.3</ele>
        <time>2021-05-31T08:02:42.000Z</time>
      </trkpt>
      <trkpt lat="44.05135" lon="5.24783">
        <ele>375.7</ele>
        <time>2021-05-31T08:02:43.000Z</time>
      </trkpt>
      <trkpt lat="44.05117" lon="5.24769">
        <ele>376.1</ele>
        <time>2021-05-31T08:02:46.000Z</time>
      </trkpt>
      <trkpt lat="44.05106" lon="5.24747">
        <ele>376.5</ele>
        <time>2021-05-31T08:02:48.000Z</time>
      </trkpt>
      <trkpt lat="44.05104" lon="5.24719">
        <ele>376.9</ele>
        <time>2021-05-31T08:02:50.000Z</time>
      </trkpt>
      <trkpt lat="44.05106" lon="5.24706">
        <ele>377.2</ele>
        <time>2021-05-31T08:02:52.000Z</time>
      </trkpt>
      <trkpt lat="44.05112" lon="5.24695">
        <ele>377.6</ele>
        <time>2021-05-31T08:02:53.000Z</time>
      </trkpt>
      <trkpt lat="44.0512" lon="5.24687">
        <ele>377.9</ele>
        <time>2021-05-31T08:02:54.000Z</time>
      </trkpt>
      <trkpt lat="44.05129" lon="5.24684">
        <ele>378.3</ele>
        <time>2021-05-31T08:02:55.000Z</time>
      </trkpt>
      <trkpt lat="44.05161" lon="5.24687">
        <ele>379.1</ele>
        <time>2021-05-31T08:02:59.000Z</time>
      </trkpt>
      <trkpt lat="44.05172" lon="5.24683">
        <ele>380.1</ele>
        <time>2021-05-31T08:03:02.000Z</time>
      </trkpt>
      <trkpt lat="44.0518" lon="5.24674">
        <ele>380.7</ele>
        <time>2021-05-31T08:03:03.000Z</time>
      </trkpt>
      <trkpt lat="44.05185" lon="5.24662">
        <ele>381.1</ele>
        <time>2021-05-31T08:03:05.000Z</time>
      </trkpt>
      <trkpt lat="44.05186" lon="5.2465">
        <ele>381.5</ele>
        <time>2021-05-31T08:03:06.000Z</time>
      </trkpt>
      <trkpt lat="44.05181" lon="5.2463">
        <ele>382.2</ele>
        <time>2021-05-31T08:03:08.000Z</time>
      </trkpt>
      <trkpt lat="44.05175" lon="5.24622">
        <ele>382.6</ele>
        <time>2021-05-31T08:03:10.000Z</time>
      </trkpt>
      <trkpt lat="44.05169" lon="5.24619">
        <ele>383</ele>
        <time>2021-05-31T08:03:11.000Z</time>
      </trkpt>
      <trkpt lat="44.05146" lon="5.24614">
        <ele>383.3</ele>
        <time>2021-05-31T08:03:13.000Z</time>
      </trkpt>
      <trkpt lat="44.05123" lon="5.24609">
        <ele>383.7</ele>
        <time>2021-05-31T08:03:16.000Z</time>
      </trkpt>
      <trkpt lat="44.05101" lon="5.24604">
        <ele>384.7</ele>
        <time>2021-05-31T08:03:19.000Z</time>
      </trkpt>
      <trkpt lat="44.05078" lon="5.24599">
        <ele>385.9</ele>
        <time>2021-05-31T08:03:23.000Z</time>
      </trkpt>
      <trkpt lat="44.05061" lon="5.24597">
        <ele>386.7</ele>
        <time>2021-05-31T08:03:25.000Z</time>
      </trkpt>
      <trkpt lat="44.05045" lon="5.24598">
        <ele>387.9</ele>
        <time>2021-05-31T08:03:28.000Z</time>
      </trkpt>
      <trkpt lat="44.05017" lon="5.24602">
        <ele>388.7</ele>
        <time>2021-05-31T08:03:32.000Z</time>
      </trkpt>
      <trkpt lat="44.04988" lon="5.24606">
        <ele>389.4</ele>
        <time>2021-05-31T08:03:35.000Z</time>
      </trkpt>
      <trkpt lat="44.0496" lon="5.2461">
        <ele>390.2</ele>
        <time>2021-05-31T08:03:39.000Z</time>
      </trkpt>
      <trkpt lat="44.04931" lon="5.24614">
        <ele>391</ele>
        <time>2021-05-31T08:03:42.000Z</time>
      </trkpt>
      <trkpt lat="44.04908" lon="5.24615">
        <ele>391.7</ele>
        <time>2021-05-31T08:03:45.000Z</time>
      </trkpt>
      <trkpt lat="44.04874" lon="5.24614">
        <ele>392.8</ele>
        <time>2021-05-31T08:03:49.000Z</time>
      </trkpt>
      <trkpt lat="44.04855" lon="5.24608">
        <ele>393.4</ele>
        <time>2021-05-31T08:03:52.000Z</time>
      </trkpt>
      <trkpt lat="44.04835" lon="5.24602">
        <ele>394.1</ele>
        <time>2021-05-31T08:03:54.000Z</time>
      </trkpt>
      <trkpt lat="44.0482" lon="5.24601">
        <ele>395</ele>
        <time>2021-05-31T08:03:57.000Z</time>
      </trkpt>
      <trkpt lat="44.04792" lon="5.24605">
        <ele>396.5</ele>
        <time>2021-05-31T08:04:02.000Z</time>
      </trkpt>
      <trkpt lat="44.04764" lon="5.24609">
        <ele>397.9</ele>
        <time>2021-05-31T08:04:06.000Z</time>
      </trkpt>
      <trkpt lat="44.04746" lon="5.24615">
        <ele>398.5</ele>
        <time>2021-05-31T08:04:08.000Z</time>
      </trkpt>
      <trkpt lat="44.04727" lon="5.24621">
        <ele>399</ele>
        <time>2021-05-31T08:04:11.000Z</time>
      </trkpt>
      <trkpt lat="44.04715" lon="5.24619">
        <ele>399.4</ele>
        <time>2021-05-31T08:04:12.000Z</time>
      </trkpt>
      <trkpt lat="44.04696" lon="5.24608">
        <ele>400.2</ele>
        <time>2021-05-31T08:04:15.000Z</time>
      </trkpt>
      <trkpt lat="44.04676" lon="5.24597">
        <ele>401.1</ele>
        <time>2021-05-31T08:04:18.000Z</time>
      </trkpt>
      <trkpt lat="44.0465" lon="5.24585">
        <ele>402.4</ele>
        <time>2021-05-31T08:04:22.000Z</time>
      </trkpt>
      <trkpt lat="44.04624" lon="5.24573">
        <ele>403.8</ele>
        <time>2021-05-31T08:04:26.000Z</time>
      </trkpt>
      <trkpt lat="44.04597" lon="5.24562">
        <ele>404.6</ele>
        <time>2021-05-31T08:04:30.000Z</time>
      </trkpt>
      <trkpt lat="44.04571" lon="5.2455">
        <ele>405.7</ele>
        <time>2021-05-31T08:04:33.000Z</time>
      </trkpt>
      <trkpt lat="44.04558" lon="5.2455">
        <ele>407.1</ele>
        <time>2021-05-31T08:04:37.000Z</time>
      </trkpt>
      <trkpt lat="44.04531" lon="5.24559">
        <ele>409</ele>
        <time>2021-05-31T08:04:42.000Z</time>
      </trkpt>
      <trkpt lat="44.04505" lon="5.24573">
        <ele>409.4</ele>
        <time>2021-05-31T08:04:45.000Z</time>
      </trkpt>
      <trkpt lat="44.04479" lon="5.24586">
        <ele>409.8</ele>
        <time>2021-05-31T08:04:48.000Z</time>
      </trkpt>
      <trkpt lat="44.04466" lon="5.24595">
        <ele>410.6</ele>
        <time>2021-05-31T08:04:50.000Z</time>
      </trkpt>
      <trkpt lat="44.04455" lon="5.24606">
        <ele>411.7</ele>
        <time>2021-05-31T08:04:53.000Z</time>
      </trkpt>
      <trkpt lat="44.04437" lon="5.2464">
        <ele>412.7</ele>
        <time>2021-05-31T08:04:57.000Z</time>
      </trkpt>
      <trkpt lat="44.04418" lon="5.24673">
        <ele>413.4</ele>
        <time>2021-05-31T08:05:00.000Z</time>
      </trkpt>
      <trkpt lat="44.04409" lon="5.24683">
        <ele>413.9</ele>
        <time>2021-05-31T08:05:02.000Z</time>
      </trkpt>
      <trkpt lat="44.04399" lon="5.24689">
        <ele>414.3</ele>
        <time>2021-05-31T08:05:03.000Z</time>
      </trkpt>
      <trkpt lat="44.04388" lon="5.2469">
        <ele>414.7</ele>
        <time>2021-05-31T08:05:05.000Z</time>
      </trkpt>
      <trkpt lat="44.04377" lon="5.24688">
        <ele>415.3</ele>
        <time>2021-05-31T08:05:07.000Z</time>
      </trkpt>
      <trkpt lat="44.04367" lon="5.24683">
        <ele>415.8</ele>
        <time>2021-05-31T08:05:08.000Z</time>
      </trkpt>
      <trkpt lat="44.04357" lon="5.24674">
        <ele>416.5</ele>
        <time>2021-05-31T08:05:10.000Z</time>
      </trkpt>
      <trkpt lat="44.04351" lon="5.24662">
        <ele>417.1</ele>
        <time>2021-05-31T08:05:12.000Z</time>
      </trkpt>
      <trkpt lat="44.04339" lon="5.24619">
        <ele>418.2</ele>
        <time>2021-05-31T08:05:16.000Z</time>
      </trkpt>
      <trkpt lat="44.04333" lon="5.24605">
        <ele>418.8</ele>
        <time>2021-05-31T08:05:18.000Z</time>
      </trkpt>
      <trkpt lat="44.04325" lon="5.24597">
        <ele>419.1</ele>
        <time>2021-05-31T08:05:19.000Z</time>
      </trkpt>
      <trkpt lat="44.04315" lon="5.24592">
        <ele>419.3</ele>
        <time>2021-05-31T08:05:21.000Z</time>
      </trkpt>
      <trkpt lat="44.04306" lon="5.24593">
        <ele>419.5</ele>
        <time>2021-05-31T08:05:22.000Z</time>
      </trkpt>
      <trkpt lat="44.04295" lon="5.24597">
        <ele>419.7</ele>
        <time>2021-05-31T08:05:23.000Z</time>
      </trkpt>
      <trkpt lat="44.04283" lon="5.24605">
        <ele>419.9</ele>
        <time>2021-05-31T08:05:24.000Z</time>
      </trkpt>
      <trkpt lat="44.04264" lon="5.24621">
        <ele>421</ele>
        <time>2021-05-31T08:05:28.000Z</time>
      </trkpt>
      <trkpt lat="44.04244" lon="5.24637">
        <ele>422.1</ele>
        <time>2021-05-31T08:05:31.000Z</time>
      </trkpt>
      <trkpt lat="44.04229" lon="5.24647">
        <ele>423</ele>
        <time>2021-05-31T08:05:34.000Z</time>
      </trkpt>
      <trkpt lat="44.04208" lon="5.24657">
        <ele>423.4</ele>
        <time>2021-05-31T08:05:36.000Z</time>
      </trkpt>
      <trkpt lat="44.04188" lon="5.24666">
        <ele>423.8</ele>
        <time>2021-05-31T08:05:39.000Z</time>
      </trkpt>
      <trkpt lat="44.04167" lon="5.24676">
        <ele>424.2</ele>
        <time>2021-05-31T08:05:41.000Z</time>
      </trkpt>
      <trkpt lat="44.04152" lon="5.2468">
        <ele>425.1</ele>
        <time>2021-05-31T08:05:44.000Z</time>
      </trkpt>
      <trkpt lat="44.04136" lon="5.24682">
        <ele>426.3</ele>
        <time>2021-05-31T08:05:47.000Z</time>
      </trkpt>
      <trkpt lat="44.04103" lon="5.24681">
        <ele>427.7</ele>
        <time>2021-05-31T08:05:52.000Z</time>
      </trkpt>
      <trkpt lat="44.04072" lon="5.24684">
        <ele>429.1</ele>
        <time>2021-05-31T08:05:56.000Z</time>
      </trkpt>
      <trkpt lat="44.04053" lon="5.2469">
        <ele>429.9</ele>
        <time>2021-05-31T08:05:59.000Z</time>
      </trkpt>
      <trkpt lat="44.04033" lon="5.24696">
        <ele>430.6</ele>
        <time>2021-05-31T08:06:01.000Z</time>
      </trkpt>
      <trkpt lat="44.04023" lon="5.24702">
        <ele>430.8</ele>
        <time>2021-05-31T08:06:03.000Z</time>
      </trkpt>
      <trkpt lat="44.0401" lon="5.24718">
        <ele>431.2</ele>
        <time>2021-05-31T08:06:05.000Z</time>
      </trkpt>
      <trkpt lat="44.03997" lon="5.24747">
        <ele>432.1</ele>
        <time>2021-05-31T08:06:08.000Z</time>
      </trkpt>
      <trkpt lat="44.03994" lon="5.24765">
        <ele>432.4</ele>
        <time>2021-05-31T08:06:10.000Z</time>
      </trkpt>
      <trkpt lat="44.03994" lon="5.24782">
        <ele>432.6</ele>
        <time>2021-05-31T08:06:11.000Z</time>
      </trkpt>
      <trkpt lat="44.03999" lon="5.248">
        <ele>432.9</ele>
        <time>2021-05-31T08:06:13.000Z</time>
      </trkpt>
      <trkpt lat="44.04017" lon="5.2483">
        <ele>433</ele>
        <time>2021-05-31T08:06:15.000Z</time>
      </trkpt>
      <trkpt lat="44.04043" lon="5.24861">
        <ele>432.6</ele>
        <time>2021-05-31T08:06:19.000Z</time>
      </trkpt>
      <trkpt lat="44.04069" lon="5.24892">
        <ele>432.3</ele>
        <time>2021-05-31T08:06:22.000Z</time>
      </trkpt>
      <trkpt lat="44.04094" lon="5.24924">
        <ele>431.7</ele>
        <time>2021-05-31T08:06:25.000Z</time>
      </trkpt>
      <trkpt lat="44.0412" lon="5.24955">
        <ele>431.1</ele>
        <time>2021-05-31T08:06:28.000Z</time>
      </trkpt>
      <trkpt lat="44.04141" lon="5.24979">
        <ele>430.8</ele>
        <time>2021-05-31T08:06:30.000Z</time>
      </trkpt>
      <trkpt lat="44.04161" lon="5.25003">
        <ele>430.6</ele>
        <time>2021-05-31T08:06:33.000Z</time>
      </trkpt>
      <trkpt lat="44.04182" lon="5.25027">
        <ele>430.4</ele>
        <time>2021-05-31T08:06:35.000Z</time>
      </trkpt>
      <trkpt lat="44.04202" lon="5.25051">
        <ele>430.2</ele>
        <time>2021-05-31T08:06:38.000Z</time>
      </trkpt>
      <trkpt lat="44.04217" lon="5.2508">
        <ele>429.9</ele>
        <time>2021-05-31T08:06:40.000Z</time>
      </trkpt>
      <trkpt lat="44.04232" lon="5.25109">
        <ele>429.6</ele>
        <time>2021-05-31T08:06:43.000Z</time>
      </trkpt>
      <trkpt lat="44.04246" lon="5.25128">
        <ele>429.2</ele>
        <time>2021-05-31T08:06:44.000Z</time>
      </trkpt>
      <trkpt lat="44.0426" lon="5.25142">
        <ele>428.9</ele>
        <time>2021-05-31T08:06:46.000Z</time>
      </trkpt>
      <trkpt lat="44.04282" lon="5.25184">
        <ele>428.6</ele>
        <time>2021-05-31T08:06:49.000Z</time>
      </trkpt>
      <trkpt lat="44.04297" lon="5.25219">
        <ele>428.4</ele>
        <time>2021-05-31T08:06:52.000Z</time>
      </trkpt>
      <trkpt lat="44.04304" lon="5.25232">
        <ele>428.3</ele>
        <time>2021-05-31T08:06:53.000Z</time>
      </trkpt>
      <trkpt lat="44.04313" lon="5.25242">
        <ele>428.2</ele>
        <time>2021-05-31T08:06:54.000Z</time>
      </trkpt>
      <trkpt lat="44.04342" lon="5.25266">
        <ele>427.8</ele>
        <time>2021-05-31T08:06:58.000Z</time>
      </trkpt>
      <trkpt lat="44.04371" lon="5.25291">
        <ele>427.4</ele>
        <time>2021-05-31T08:07:01.000Z</time>
      </trkpt>
      <trkpt lat="44.04394" lon="5.25319">
        <ele>427.2</ele>
        <time>2021-05-31T08:07:04.000Z</time>
      </trkpt>
      <trkpt lat="44.04411" lon="5.25341">
        <ele>427.1</ele>
        <time>2021-05-31T08:07:06.000Z</time>
      </trkpt>
      <trkpt lat="44.04427" lon="5.25364">
        <ele>426.9</ele>
        <time>2021-05-31T08:07:08.000Z</time>
      </trkpt>
      <trkpt lat="44.04444" lon="5.25386">
        <ele>426.7</ele>
        <time>2021-05-31T08:07:10.000Z</time>
      </trkpt>
      <trkpt lat="44.04463" lon="5.25423">
        <ele>426.8</ele>
        <time>2021-05-31T08:07:13.000Z</time>
      </trkpt>
      <trkpt lat="44.04465" lon="5.25431">
        <ele>426.9</ele>
        <time>2021-05-31T08:07:14.000Z</time>
      </trkpt>
      <trkpt lat="44.04467" lon="5.25446">
        <ele>426.9</ele>
        <time>2021-05-31T08:07:15.000Z</time>
      </trkpt>
      <trkpt lat="44.04463" lon="5.2548">
        <ele>427.3</ele>
        <time>2021-05-31T08:07:18.000Z</time>
      </trkpt>
      <trkpt lat="44.0446" lon="5.25492">
        <ele>427.6</ele>
        <time>2021-05-31T08:07:19.000Z</time>
      </trkpt>
      <trkpt lat="44.04452" lon="5.25508">
        <ele>427.9</ele>
        <time>2021-05-31T08:07:21.000Z</time>
      </trkpt>
      <trkpt lat="44.04443" lon="5.25516">
        <ele>428.3</ele>
        <time>2021-05-31T08:07:22.000Z</time>
      </trkpt>
      <trkpt lat="44.04432" lon="5.25519">
        <ele>428.7</ele>
        <time>2021-05-31T08:07:24.000Z</time>
      </trkpt>
      <trkpt lat="44.04397" lon="5.25524">
        <ele>430</ele>
        <time>2021-05-31T08:07:28.000Z</time>
      </trkpt>
      <trkpt lat="44.04388" lon="5.25524">
        <ele>430.6</ele>
        <time>2021-05-31T08:07:30.000Z</time>
      </trkpt>
      <trkpt lat="44.04377" lon="5.25521">
        <ele>431.2</ele>
        <time>2021-05-31T08:07:32.000Z</time>
      </trkpt>
      <trkpt lat="44.04359" lon="5.25511">
        <ele>431.7</ele>
        <time>2021-05-31T08:07:34.000Z</time>
      </trkpt>
      <trkpt lat="44.0434" lon="5.25501">
        <ele>432</ele>
        <time>2021-05-31T08:07:36.000Z</time>
      </trkpt>
      <trkpt lat="44.0433" lon="5.25498">
        <ele>432.3</ele>
        <time>2021-05-31T08:07:38.000Z</time>
      </trkpt>
      <trkpt lat="44.04309" lon="5.25499">
        <ele>432.7</ele>
        <time>2021-05-31T08:07:40.000Z</time>
      </trkpt>
      <trkpt lat="44.04276" lon="5.25505">
        <ele>433.7</ele>
        <time>2021-05-31T08:07:44.000Z</time>
      </trkpt>
      <trkpt lat="44.0425" lon="5.25513">
        <ele>434.2</ele>
        <time>2021-05-31T08:07:47.000Z</time>
      </trkpt>
      <trkpt lat="44.04235" lon="5.25523">
        <ele>435</ele>
        <time>2021-05-31T08:07:50.000Z</time>
      </trkpt>
      <trkpt lat="44.04224" lon="5.25533">
        <ele>435.6</ele>
        <time>2021-05-31T08:07:52.000Z</time>
      </trkpt>
      <trkpt lat="44.04217" lon="5.25546">
        <ele>436</ele>
        <time>2021-05-31T08:07:53.000Z</time>
      </trkpt>
      <trkpt lat="44.04208" lon="5.25593">
        <ele>436.5</ele>
        <time>2021-05-31T08:07:57.000Z</time>
      </trkpt>
      <trkpt lat="44.04204" lon="5.25606">
        <ele>436.9</ele>
        <time>2021-05-31T08:07:58.000Z</time>
      </trkpt>
      <trkpt lat="44.04196" lon="5.25616">
        <ele>437</ele>
        <time>2021-05-31T08:08:00.000Z</time>
      </trkpt>
      <trkpt lat="44.04184" lon="5.2562">
        <ele>437.2</ele>
        <time>2021-05-31T08:08:01.000Z</time>
      </trkpt>
      <trkpt lat="44.04164" lon="5.25607">
        <ele>437.8</ele>
        <time>2021-05-31T08:08:04.000Z</time>
      </trkpt>
      <trkpt lat="44.04145" lon="5.25594">
        <ele>438.5</ele>
        <time>2021-05-31T08:08:06.000Z</time>
      </trkpt>
      <trkpt lat="44.04125" lon="5.25582">
        <ele>439.2</ele>
        <time>2021-05-31T08:08:09.000Z</time>
      </trkpt>
      <trkpt lat="44.04105" lon="5.25569">
        <ele>439.9</ele>
        <time>2021-05-31T08:08:12.000Z</time>
      </trkpt>
      <trkpt lat="44.04091" lon="5.25562">
        <ele>440.4</ele>
        <time>2021-05-31T08:08:14.000Z</time>
      </trkpt>
      <trkpt lat="44.04075" lon="5.25558">
        <ele>441</ele>
        <time>2021-05-31T08:08:16.000Z</time>
      </trkpt>
      <trkpt lat="44.04059" lon="5.25557">
        <ele>441.6</ele>
        <time>2021-05-31T08:08:18.000Z</time>
      </trkpt>
      <trkpt lat="44.04027" lon="5.25557">
        <ele>442.4</ele>
        <time>2021-05-31T08:08:22.000Z</time>
      </trkpt>
      <trkpt lat="44.03996" lon="5.25559">
        <ele>443.2</ele>
        <time>2021-05-31T08:08:26.000Z</time>
      </trkpt>
      <trkpt lat="44.03965" lon="5.25566">
        <ele>443.7</ele>
        <time>2021-05-31T08:08:29.000Z</time>
      </trkpt>
      <trkpt lat="44.03936" lon="5.25579">
        <ele>444.3</ele>
        <time>2021-05-31T08:08:33.000Z</time>
      </trkpt>
      <trkpt lat="44.03909" lon="5.25594">
        <ele>445.6</ele>
        <time>2021-05-31T08:08:37.000Z</time>
      </trkpt>
      <trkpt lat="44.03882" lon="5.25609">
        <ele>446.8</ele>
        <time>2021-05-31T08:08:41.000Z</time>
      </trkpt>
      <trkpt lat="44.03868" lon="5.25612">
        <ele>447.2</ele>
        <time>2021-05-31T08:08:43.000Z</time>
      </trkpt>
      <trkpt lat="44.03854" lon="5.25611">
        <ele>447.8</ele>
        <time>2021-05-31T08:08:45.000Z</time>
      </trkpt>
      <trkpt lat="44.03832" lon="5.25605">
        <ele>448.2</ele>
        <time>2021-05-31T08:08:47.000Z</time>
      </trkpt>
      <trkpt lat="44.0381" lon="5.25599">
        <ele>448.5</ele>
        <time>2021-05-31T08:08:50.000Z</time>
      </trkpt>
      <trkpt lat="44.03795" lon="5.25599">
        <ele>448.8</ele>
        <time>2021-05-31T08:08:51.000Z</time>
      </trkpt>
      <trkpt lat="44.03765" lon="5.25607">
        <ele>450.2</ele>
        <time>2021-05-31T08:08:56.000Z</time>
      </trkpt>
      <trkpt lat="44.03734" lon="5.25622">
        <ele>450.9</ele>
        <time>2021-05-31T08:09:00.000Z</time>
      </trkpt>
      <trkpt lat="44.03714" lon="5.25638">
        <ele>451.3</ele>
        <time>2021-05-31T08:09:02.000Z</time>
      </trkpt>
      <trkpt lat="44.03693" lon="5.25653">
        <ele>451.7</ele>
        <time>2021-05-31T08:09:05.000Z</time>
      </trkpt>
      <trkpt lat="44.03666" lon="5.25684">
        <ele>453.1</ele>
        <time>2021-05-31T08:09:10.000Z</time>
      </trkpt>
      <trkpt lat="44.03649" lon="5.2571">
        <ele>454</ele>
        <time>2021-05-31T08:09:13.000Z</time>
      </trkpt>
      <trkpt lat="44.03631" lon="5.25737">
        <ele>455</ele>
        <time>2021-05-31T08:09:17.000Z</time>
      </trkpt>
      <trkpt lat="44.03614" lon="5.25763">
        <ele>455.9</ele>
        <time>2021-05-31T08:09:20.000Z</time>
      </trkpt>
      <trkpt lat="44.03596" lon="5.25786">
        <ele>456.5</ele>
        <time>2021-05-31T08:09:23.000Z</time>
      </trkpt>
      <trkpt lat="44.03579" lon="5.25808">
        <ele>457.1</ele>
        <time>2021-05-31T08:09:26.000Z</time>
      </trkpt>
      <trkpt lat="44.03561" lon="5.25831">
        <ele>457.8</ele>
        <time>2021-05-31T08:09:29.000Z</time>
      </trkpt>
      <trkpt lat="44.03543" lon="5.25853">
        <ele>458.4</ele>
        <time>2021-05-31T08:09:32.000Z</time>
      </trkpt>
      <trkpt lat="44.03534" lon="5.25868">
        <ele>458.7</ele>
        <time>2021-05-31T08:09:33.000Z</time>
      </trkpt>
      <trkpt lat="44.03528" lon="5.25884">
        <ele>459</ele>
        <time>2021-05-31T08:09:35.000Z</time>
      </trkpt>
      <trkpt lat="44.03524" lon="5.25905">
        <ele>459.3</ele>
        <time>2021-05-31T08:09:36.000Z</time>
      </trkpt>
      <trkpt lat="44.03524" lon="5.25926">
        <ele>459.6</ele>
        <time>2021-05-31T08:09:38.000Z</time>
      </trkpt>
      <trkpt lat="44.03527" lon="5.25961">
        <ele>459.9</ele>
        <time>2021-05-31T08:09:41.000Z</time>
      </trkpt>
      <trkpt lat="44.03531" lon="5.25996">
        <ele>460</ele>
        <time>2021-05-31T08:09:44.000Z</time>
      </trkpt>
      <trkpt lat="44.03534" lon="5.26031">
        <ele>460.2</ele>
        <time>2021-05-31T08:09:46.000Z</time>
      </trkpt>
      <trkpt lat="44.03532" lon="5.26061">
        <ele>460.5</ele>
        <time>2021-05-31T08:09:49.000Z</time>
      </trkpt>
      <trkpt lat="44.0353" lon="5.26092">
        <ele>460.8</ele>
        <time>2021-05-31T08:09:51.000Z</time>
      </trkpt>
      <trkpt lat="44.03528" lon="5.26122">
        <ele>461.2</ele>
        <time>2021-05-31T08:09:53.000Z</time>
      </trkpt>
      <trkpt lat="44.03519" lon="5.26167">
        <ele>461.6</ele>
        <time>2021-05-31T08:09:57.000Z</time>
      </trkpt>
      <trkpt lat="44.03508" lon="5.26199">
        <ele>462</ele>
        <time>2021-05-31T08:10:00.000Z</time>
      </trkpt>
      <trkpt lat="44.03496" lon="5.2623">
        <ele>462.3</ele>
        <time>2021-05-31T08:10:03.000Z</time>
      </trkpt>
      <trkpt lat="44.03485" lon="5.26262">
        <ele>462.7</ele>
        <time>2021-05-31T08:10:06.000Z</time>
      </trkpt>
      <trkpt lat="44.03484" lon="5.26278">
        <ele>463</ele>
        <time>2021-05-31T08:10:07.000Z</time>
      </trkpt>
      <trkpt lat="44.03494" lon="5.26308">
        <ele>463.3</ele>
        <time>2021-05-31T08:10:10.000Z</time>
      </trkpt>
      <trkpt lat="44.03512" lon="5.26345">
        <ele>463.8</ele>
        <time>2021-05-31T08:10:13.000Z</time>
      </trkpt>
      <trkpt lat="44.03529" lon="5.26382">
        <ele>464.3</ele>
        <time>2021-05-31T08:10:17.000Z</time>
      </trkpt>
      <trkpt lat="44.03547" lon="5.26419">
        <ele>464.7</ele>
        <time>2021-05-31T08:10:20.000Z</time>
      </trkpt>
      <trkpt lat="44.03564" lon="5.26456">
        <ele>465</ele>
        <time>2021-05-31T08:10:24.000Z</time>
      </trkpt>
      <trkpt lat="44.03583" lon="5.26486">
        <ele>465.3</ele>
        <time>2021-05-31T08:10:27.000Z</time>
      </trkpt>
      <trkpt lat="44.03606" lon="5.26507">
        <ele>465.9</ele>
        <time>2021-05-31T08:10:30.000Z</time>
      </trkpt>
      <trkpt lat="44.03632" lon="5.26521">
        <ele>466.3</ele>
        <time>2021-05-31T08:10:33.000Z</time>
      </trkpt>
      <trkpt lat="44.0366" lon="5.2653">
        <ele>466.6</ele>
        <time>2021-05-31T08:10:36.000Z</time>
      </trkpt>
      <trkpt lat="44.03688" lon="5.26539">
        <ele>466.9</ele>
        <time>2021-05-31T08:10:39.000Z</time>
      </trkpt>
      <trkpt lat="44.03717" lon="5.26551">
        <ele>467.2</ele>
        <time>2021-05-31T08:10:42.000Z</time>
      </trkpt>
      <trkpt lat="44.03743" lon="5.26564">
        <ele>467.9</ele>
        <time>2021-05-31T08:10:46.000Z</time>
      </trkpt>
      <trkpt lat="44.03768" lon="5.26576">
        <ele>468.6</ele>
        <time>2021-05-31T08:10:49.000Z</time>
      </trkpt>
      <trkpt lat="44.03794" lon="5.26589">
        <ele>469</ele>
        <time>2021-05-31T08:10:52.000Z</time>
      </trkpt>
      <trkpt lat="44.03819" lon="5.26602">
        <ele>469.5</ele>
        <time>2021-05-31T08:10:55.000Z</time>
      </trkpt>
      <trkpt lat="44.03832" lon="5.26611">
        <ele>469.6</ele>
        <time>2021-05-31T08:10:57.000Z</time>
      </trkpt>
      <trkpt lat="44.03857" lon="5.26637">
        <ele>470</ele>
        <time>2021-05-31T08:11:00.000Z</time>
      </trkpt>
      <trkpt lat="44.03875" lon="5.26659">
        <ele>470.4</ele>
        <time>2021-05-31T08:11:03.000Z</time>
      </trkpt>
      <trkpt lat="44.03892" lon="5.26681">
        <ele>470.9</ele>
        <time>2021-05-31T08:11:05.000Z</time>
      </trkpt>
      <trkpt lat="44.03914" lon="5.2671">
        <ele>471.5</ele>
        <time>2021-05-31T08:11:09.000Z</time>
      </trkpt>
      <trkpt lat="44.03935" lon="5.26739">
        <ele>472.1</ele>
        <time>2021-05-31T08:11:12.000Z</time>
      </trkpt>
      <trkpt lat="44.03946" lon="5.26751">
        <ele>472.3</ele>
        <time>2021-05-31T08:11:14.000Z</time>
      </trkpt>
      <trkpt lat="44.03964" lon="5.26762">
        <ele>472.6</ele>
        <time>2021-05-31T08:11:16.000Z</time>
      </trkpt>
      <trkpt lat="44.03982" lon="5.26774">
        <ele>472.9</ele>
        <time>2021-05-31T08:11:18.000Z</time>
      </trkpt>
      <trkpt lat="44.03996" lon="5.2678">
        <ele>473.4</ele>
        <time>2021-05-31T08:11:20.000Z</time>
      </trkpt>
      <trkpt lat="44.04024" lon="5.26783">
        <ele>474</ele>
        <time>2021-05-31T08:11:23.000Z</time>
      </trkpt>
      <trkpt lat="44.04051" lon="5.26777">
        <ele>474.5</ele>
        <time>2021-05-31T08:11:26.000Z</time>
      </trkpt>
      <trkpt lat="44.04065" lon="5.26777">
        <ele>474.7</ele>
        <time>2021-05-31T08:11:28.000Z</time>
      </trkpt>
      <trkpt lat="44.04079" lon="5.26781">
        <ele>474.8</ele>
        <time>2021-05-31T08:11:30.000Z</time>
      </trkpt>
      <trkpt lat="44.04106" lon="5.26794">
        <ele>475.1</ele>
        <time>2021-05-31T08:11:33.000Z</time>
      </trkpt>
      <trkpt lat="44.04133" lon="5.26808">
        <ele>475.5</ele>
        <time>2021-05-31T08:11:36.000Z</time>
      </trkpt>
      <trkpt lat="44.04155" lon="5.26817">
        <ele>475.8</ele>
        <time>2021-05-31T08:11:38.000Z</time>
      </trkpt>
      <trkpt lat="44.04176" lon="5.26826">
        <ele>476.2</ele>
        <time>2021-05-31T08:11:41.000Z</time>
      </trkpt>
      <trkpt lat="44.04198" lon="5.26835">
        <ele>476.6</ele>
        <time>2021-05-31T08:11:43.000Z</time>
      </trkpt>
      <trkpt lat="44.0421" lon="5.26842">
        <ele>476.9</ele>
        <time>2021-05-31T08:11:45.000Z</time>
      </trkpt>
      <trkpt lat="44.04224" lon="5.26862">
        <ele>477.1</ele>
        <time>2021-05-31T08:11:47.000Z</time>
      </trkpt>
      <trkpt lat="44.04227" lon="5.26876">
        <ele>477.2</ele>
        <time>2021-05-31T08:11:48.000Z</time>
      </trkpt>
      <trkpt lat="44.04227" lon="5.2689">
        <ele>477.4</ele>
        <time>2021-05-31T08:11:49.000Z</time>
      </trkpt>
      <trkpt lat="44.04223" lon="5.26904">
        <ele>477.6</ele>
        <time>2021-05-31T08:11:51.000Z</time>
      </trkpt>
      <trkpt lat="44.04201" lon="5.26942">
        <ele>477.8</ele>
        <time>2021-05-31T08:11:54.000Z</time>
      </trkpt>
      <trkpt lat="44.04185" lon="5.26975">
        <ele>478</ele>
        <time>2021-05-31T08:11:57.000Z</time>
      </trkpt>
      <trkpt lat="44.04179" lon="5.26994">
        <ele>478.2</ele>
        <time>2021-05-31T08:11:59.000Z</time>
      </trkpt>
      <trkpt lat="44.04175" lon="5.27032">
        <ele>478.5</ele>
        <time>2021-05-31T08:12:02.000Z</time>
      </trkpt>
      <trkpt lat="44.04177" lon="5.2705">
        <ele>478.9</ele>
        <time>2021-05-31T08:12:03.000Z</time>
      </trkpt>
      <trkpt lat="44.04182" lon="5.27067">
        <ele>479.1</ele>
        <time>2021-05-31T08:12:05.000Z</time>
      </trkpt>
      <trkpt lat="44.04189" lon="5.27083">
        <ele>479.3</ele>
        <time>2021-05-31T08:12:06.000Z</time>
      </trkpt>
      <trkpt lat="44.04209" lon="5.2711">
        <ele>479.8</ele>
        <time>2021-05-31T08:12:10.000Z</time>
      </trkpt>
      <trkpt lat="44.04229" lon="5.27138">
        <ele>480.3</ele>
        <time>2021-05-31T08:12:13.000Z</time>
      </trkpt>
      <trkpt lat="44.0424" lon="5.2715">
        <ele>480.5</ele>
        <time>2021-05-31T08:12:14.000Z</time>
      </trkpt>
      <trkpt lat="44.04265" lon="5.27172">
        <ele>480.7</ele>
        <time>2021-05-31T08:12:17.000Z</time>
      </trkpt>
      <trkpt lat="44.04275" lon="5.27185">
        <ele>481</ele>
        <time>2021-05-31T08:12:19.000Z</time>
      </trkpt>
      <trkpt lat="44.04294" lon="5.27217">
        <ele>481.2</ele>
        <time>2021-05-31T08:12:22.000Z</time>
      </trkpt>
      <trkpt lat="44.04313" lon="5.27249">
        <ele>481.3</ele>
        <time>2021-05-31T08:12:25.000Z</time>
      </trkpt>
      <trkpt lat="44.04332" lon="5.27281">
        <ele>481.5</ele>
        <time>2021-05-31T08:12:28.000Z</time>
      </trkpt>
      <trkpt lat="44.04351" lon="5.27313">
        <ele>481.7</ele>
        <time>2021-05-31T08:12:31.000Z</time>
      </trkpt>
      <trkpt lat="44.04367" lon="5.27335">
        <ele>482.1</ele>
        <time>2021-05-31T08:12:34.000Z</time>
      </trkpt>
      <trkpt lat="44.04387" lon="5.27355">
        <ele>482.2</ele>
        <time>2021-05-31T08:12:36.000Z</time>
      </trkpt>
      <trkpt lat="44.04397" lon="5.27368">
        <ele>482.4</ele>
        <time>2021-05-31T08:12:38.000Z</time>
      </trkpt>
      <trkpt lat="44.04406" lon="5.27383">
        <ele>482.6</ele>
        <time>2021-05-31T08:12:40.000Z</time>
      </trkpt>
      <trkpt lat="44.0442" lon="5.27411">
        <ele>482.8</ele>
        <time>2021-05-31T08:12:42.000Z</time>
      </trkpt>
      <trkpt lat="44.04435" lon="5.2744">
        <ele>483</ele>
        <time>2021-05-31T08:12:45.000Z</time>
      </trkpt>
      <trkpt lat="44.04449" lon="5.27468">
        <ele>483.2</ele>
        <time>2021-05-31T08:12:47.000Z</time>
      </trkpt>
      <trkpt lat="44.04466" lon="5.27496">
        <ele>483.4</ele>
        <time>2021-05-31T08:12:50.000Z</time>
      </trkpt>
      <trkpt lat="44.04483" lon="5.27519">
        <ele>483.6</ele>
        <time>2021-05-31T08:12:53.000Z</time>
      </trkpt>
      <trkpt lat="44.04499" lon="5.27542">
        <ele>483.8</ele>
        <time>2021-05-31T08:12:55.000Z</time>
      </trkpt>
      <trkpt lat="44.04516" lon="5.27565">
        <ele>484.1</ele>
        <time>2021-05-31T08:12:58.000Z</time>
      </trkpt>
      <trkpt lat="44.04538" lon="5.27587">
        <ele>484.9</ele>
        <time>2021-05-31T08:13:01.000Z</time>
      </trkpt>
      <trkpt lat="44.0456" lon="5.27598">
        <ele>485.1</ele>
        <time>2021-05-31T08:13:04.000Z</time>
      </trkpt>
      <trkpt lat="44.04571" lon="5.27599">
        <ele>485.2</ele>
        <time>2021-05-31T08:13:05.000Z</time>
      </trkpt>
      <trkpt lat="44.0459" lon="5.27593">
        <ele>485.4</ele>
        <time>2021-05-31T08:13:07.000Z</time>
      </trkpt>
      <trkpt lat="44.04607" lon="5.27572">
        <ele>485.6</ele>
        <time>2021-05-31T08:13:09.000Z</time>
      </trkpt>
      <trkpt lat="44.04623" lon="5.2755">
        <ele>485.8</ele>
        <time>2021-05-31T08:13:12.000Z</time>
      </trkpt>
      <trkpt lat="44.04646" lon="5.27533">
        <ele>486</ele>
        <time>2021-05-31T08:13:14.000Z</time>
      </trkpt>
      <trkpt lat="44.04669" lon="5.27516">
        <ele>486.3</ele>
        <time>2021-05-31T08:13:17.000Z</time>
      </trkpt>
      <trkpt lat="44.04692" lon="5.27499">
        <ele>486.5</ele>
        <time>2021-05-31T08:13:20.000Z</time>
      </trkpt>
      <trkpt lat="44.0471" lon="5.27493">
        <ele>486.7</ele>
        <time>2021-05-31T08:13:22.000Z</time>
      </trkpt>
      <trkpt lat="44.04718" lon="5.27497">
        <ele>486.8</ele>
        <time>2021-05-31T08:13:23.000Z</time>
      </trkpt>
      <trkpt lat="44.04724" lon="5.27505">
        <ele>486.9</ele>
        <time>2021-05-31T08:13:24.000Z</time>
      </trkpt>
      <trkpt lat="44.04728" lon="5.27514">
        <ele>486.9</ele>
        <time>2021-05-31T08:13:25.000Z</time>
      </trkpt>
      <trkpt lat="44.04729" lon="5.27525">
        <ele>486.9</ele>
        <time>2021-05-31T08:13:25.000Z</time>
      </trkpt>
      <trkpt lat="44.04722" lon="5.27554">
        <ele>486.9</ele>
        <time>2021-05-31T08:13:27.000Z</time>
      </trkpt>
      <trkpt lat="44.04715" lon="5.27582">
        <ele>487</ele>
        <time>2021-05-31T08:13:30.000Z</time>
      </trkpt>
      <trkpt lat="44.04713" lon="5.27599">
        <ele>487.2</ele>
        <time>2021-05-31T08:13:31.000Z</time>
      </trkpt>
      <trkpt lat="44.04713" lon="5.27645">
        <ele>487.3</ele>
        <time>2021-05-31T08:13:34.000Z</time>
      </trkpt>
      <trkpt lat="44.04712" lon="5.27691">
        <ele>487.5</ele>
        <time>2021-05-31T08:13:38.000Z</time>
      </trkpt>
      <trkpt lat="44.04712" lon="5.27721">
        <ele>487.7</ele>
        <time>2021-05-31T08:13:40.000Z</time>
      </trkpt>
      <trkpt lat="44.04711" lon="5.27752">
        <ele>488</ele>
        <time>2021-05-31T08:13:43.000Z</time>
      </trkpt>
      <trkpt lat="44.04711" lon="5.27782">
        <ele>488.3</ele>
        <time>2021-05-31T08:13:45.000Z</time>
      </trkpt>
      <trkpt lat="44.04723" lon="5.2781">
        <ele>488.5</ele>
        <time>2021-05-31T08:13:47.000Z</time>
      </trkpt>
      <trkpt lat="44.04732" lon="5.27823">
        <ele>488.6</ele>
        <time>2021-05-31T08:13:49.000Z</time>
      </trkpt>
      <trkpt lat="44.04754" lon="5.27842">
        <ele>489.4</ele>
        <time>2021-05-31T08:13:52.000Z</time>
      </trkpt>
      <trkpt lat="44.04777" lon="5.2786">
        <ele>490.2</ele>
        <time>2021-05-31T08:13:55.000Z</time>
      </trkpt>
      <trkpt lat="44.04799" lon="5.27879">
        <ele>490.5</ele>
        <time>2021-05-31T08:13:58.000Z</time>
      </trkpt>
      <trkpt lat="44.04821" lon="5.27898">
        <ele>490.8</ele>
        <time>2021-05-31T08:14:01.000Z</time>
      </trkpt>
      <trkpt lat="44.04842" lon="5.27923">
        <ele>491.2</ele>
        <time>2021-05-31T08:14:04.000Z</time>
      </trkpt>
      <trkpt lat="44.04864" lon="5.27947">
        <ele>491.5</ele>
        <time>2021-05-31T08:14:07.000Z</time>
      </trkpt>
      <trkpt lat="44.04885" lon="5.27972">
        <ele>491.9</ele>
        <time>2021-05-31T08:14:10.000Z</time>
      </trkpt>
      <trkpt lat="44.04906" lon="5.27997">
        <ele>492.3</ele>
        <time>2021-05-31T08:14:13.000Z</time>
      </trkpt>
      <trkpt lat="44.04916" lon="5.28012">
        <ele>492.4</ele>
        <time>2021-05-31T08:14:15.000Z</time>
      </trkpt>
      <trkpt lat="44.04923" lon="5.28029">
        <ele>492.6</ele>
        <time>2021-05-31T08:14:16.000Z</time>
      </trkpt>
      <trkpt lat="44.04933" lon="5.28062">
        <ele>493</ele>
        <time>2021-05-31T08:14:19.000Z</time>
      </trkpt>
      <trkpt lat="44.04943" lon="5.28094">
        <ele>493.5</ele>
        <time>2021-05-31T08:14:22.000Z</time>
      </trkpt>
      <trkpt lat="44.04953" lon="5.28127">
        <ele>493.7</ele>
        <time>2021-05-31T08:14:25.000Z</time>
      </trkpt>
      <trkpt lat="44.04963" lon="5.2816">
        <ele>493.8</ele>
        <time>2021-05-31T08:14:27.000Z</time>
      </trkpt>
      <trkpt lat="44.04963" lon="5.28177">
        <ele>494</ele>
        <time>2021-05-31T08:14:29.000Z</time>
      </trkpt>
      <trkpt lat="44.04955" lon="5.28212">
        <ele>494.1</ele>
        <time>2021-05-31T08:14:31.000Z</time>
      </trkpt>
      <trkpt lat="44.04946" lon="5.28248">
        <ele>494.2</ele>
        <time>2021-05-31T08:14:34.000Z</time>
      </trkpt>
      <trkpt lat="44.04938" lon="5.28283">
        <ele>494.3</ele>
        <time>2021-05-31T08:14:37.000Z</time>
      </trkpt>
      <trkpt lat="44.0493" lon="5.28318">
        <ele>494.4</ele>
        <time>2021-05-31T08:14:40.000Z</time>
      </trkpt>
      <trkpt lat="44.04921" lon="5.28354">
        <ele>494.6</ele>
        <time>2021-05-31T08:14:42.000Z</time>
      </trkpt>
      <trkpt lat="44.04913" lon="5.28389">
        <ele>494.8</ele>
        <time>2021-05-31T08:14:45.000Z</time>
      </trkpt>
      <trkpt lat="44.04903" lon="5.28423">
        <ele>495.3</ele>
        <time>2021-05-31T08:14:48.000Z</time>
      </trkpt>
      <trkpt lat="44.04893" lon="5.28456">
        <ele>495.7</ele>
        <time>2021-05-31T08:14:51.000Z</time>
      </trkpt>
      <trkpt lat="44.04883" lon="5.2849">
        <ele>496.2</ele>
        <time>2021-05-31T08:14:54.000Z</time>
      </trkpt>
      <trkpt lat="44.04882" lon="5.28509">
        <ele>496.5</ele>
        <time>2021-05-31T08:14:56.000Z</time>
      </trkpt>
      <trkpt lat="44.04889" lon="5.28544">
        <ele>496.8</ele>
        <time>2021-05-31T08:14:59.000Z</time>
      </trkpt>
      <trkpt lat="44.04901" lon="5.28573">
        <ele>497.2</ele>
        <time>2021-05-31T08:15:01.000Z</time>
      </trkpt>
      <trkpt lat="44.04911" lon="5.28583">
        <ele>497.4</ele>
        <time>2021-05-31T08:15:03.000Z</time>
      </trkpt>
      <trkpt lat="44.04938" lon="5.28596">
        <ele>497.6</ele>
        <time>2021-05-31T08:15:06.000Z</time>
      </trkpt>
      <trkpt lat="44.04967" lon="5.28605">
        <ele>497.9</ele>
        <time>2021-05-31T08:15:09.000Z</time>
      </trkpt>
      <trkpt lat="44.04996" lon="5.28611">
        <ele>498.4</ele>
        <time>2021-05-31T08:15:12.000Z</time>
      </trkpt>
      <trkpt lat="44.05024" lon="5.28618">
        <ele>499</ele>
        <time>2021-05-31T08:15:15.000Z</time>
      </trkpt>
      <trkpt lat="44.05049" lon="5.28628">
        <ele>499.5</ele>
        <time>2021-05-31T08:15:18.000Z</time>
      </trkpt>
      <trkpt lat="44.05074" lon="5.28638">
        <ele>500</ele>
        <time>2021-05-31T08:15:21.000Z</time>
      </trkpt>
      <trkpt lat="44.05099" lon="5.28648">
        <ele>500.6</ele>
        <time>2021-05-31T08:15:24.000Z</time>
      </trkpt>
      <trkpt lat="44.05124" lon="5.28658">
        <ele>501.3</ele>
        <time>2021-05-31T08:15:28.000Z</time>
      </trkpt>
      <trkpt lat="44.05146" lon="5.28664">
        <ele>501.7</ele>
        <time>2021-05-31T08:15:30.000Z</time>
      </trkpt>
      <trkpt lat="44.05168" lon="5.28671">
        <ele>502.2</ele>
        <time>2021-05-31T08:15:33.000Z</time>
      </trkpt>
      <trkpt lat="44.0519" lon="5.28677">
        <ele>502.6</ele>
        <time>2021-05-31T08:15:35.000Z</time>
      </trkpt>
      <trkpt lat="44.05211" lon="5.28683">
        <ele>503.1</ele>
        <time>2021-05-31T08:15:38.000Z</time>
      </trkpt>
      <trkpt lat="44.05233" lon="5.2869">
        <ele>503.6</ele>
        <time>2021-05-31T08:15:40.000Z</time>
      </trkpt>
      <trkpt lat="44.05255" lon="5.28696">
        <ele>504</ele>
        <time>2021-05-31T08:15:43.000Z</time>
      </trkpt>
      <trkpt lat="44.05265" lon="5.28701">
        <ele>504.3</ele>
        <time>2021-05-31T08:15:44.000Z</time>
      </trkpt>
      <trkpt lat="44.05276" lon="5.2871">
        <ele>504.6</ele>
        <time>2021-05-31T08:15:46.000Z</time>
      </trkpt>
      <trkpt lat="44.05296" lon="5.28734">
        <ele>504.9</ele>
        <time>2021-05-31T08:15:49.000Z</time>
      </trkpt>
      <trkpt lat="44.05316" lon="5.28759">
        <ele>505.3</ele>
        <time>2021-05-31T08:15:52.000Z</time>
      </trkpt>
      <trkpt lat="44.05331" lon="5.28787">
        <ele>505.9</ele>
        <time>2021-05-31T08:15:55.000Z</time>
      </trkpt>
      <trkpt lat="44.05336" lon="5.28814">
        <ele>506.1</ele>
        <time>2021-05-31T08:15:57.000Z</time>
      </trkpt>
      <trkpt lat="44.05341" lon="5.28841">
        <ele>506.2</ele>
        <time>2021-05-31T08:15:59.000Z</time>
      </trkpt>
      <trkpt lat="44.05345" lon="5.28871">
        <ele>506.5</ele>
        <time>2021-05-31T08:16:01.000Z</time>
      </trkpt>
      <trkpt lat="44.05349" lon="5.28901">
        <ele>506.8</ele>
        <time>2021-05-31T08:16:04.000Z</time>
      </trkpt>
      <trkpt lat="44.05346" lon="5.28942">
        <ele>507.1</ele>
        <time>2021-05-31T08:16:07.000Z</time>
      </trkpt>
      <trkpt lat="44.05342" lon="5.28984">
        <ele>507.3</ele>
        <time>2021-05-31T08:16:10.000Z</time>
      </trkpt>
      <trkpt lat="44.05339" lon="5.29025">
        <ele>507.6</ele>
        <time>2021-05-31T08:16:13.000Z</time>
      </trkpt>
      <trkpt lat="44.05339" lon="5.29057">
        <ele>508.3</ele>
        <time>2021-05-31T08:16:16.000Z</time>
      </trkpt>
      <trkpt lat="44.05345" lon="5.2908">
        <ele>508.5</ele>
        <time>2021-05-31T08:16:18.000Z</time>
      </trkpt>
      <trkpt lat="44.05354" lon="5.29088">
        <ele>508.7</ele>
        <time>2021-05-31T08:16:19.000Z</time>
      </trkpt>
      <trkpt lat="44.05365" lon="5.29094">
        <ele>508.8</ele>
        <time>2021-05-31T08:16:20.000Z</time>
      </trkpt>
      <trkpt lat="44.054" lon="5.29102">
        <ele>509.2</ele>
        <time>2021-05-31T08:16:24.000Z</time>
      </trkpt>
      <trkpt lat="44.05406" lon="5.29106">
        <ele>509.5</ele>
        <time>2021-05-31T08:16:25.000Z</time>
      </trkpt>
      <trkpt lat="44.05415" lon="5.2912">
        <ele>510</ele>
        <time>2021-05-31T08:16:27.000Z</time>
      </trkpt>
      <trkpt lat="44.05419" lon="5.29129">
        <ele>510.3</ele>
        <time>2021-05-31T08:16:28.000Z</time>
      </trkpt>
      <trkpt lat="44.05428" lon="5.29165">
        <ele>510.6</ele>
        <time>2021-05-31T08:16:31.000Z</time>
      </trkpt>
      <trkpt lat="44.05437" lon="5.29201">
        <ele>510.9</ele>
        <time>2021-05-31T08:16:34.000Z</time>
      </trkpt>
      <trkpt lat="44.05453" lon="5.29235">
        <ele>511.3</ele>
        <time>2021-05-31T08:16:37.000Z</time>
      </trkpt>
      <trkpt lat="44.05468" lon="5.29268">
        <ele>511.8</ele>
        <time>2021-05-31T08:16:40.000Z</time>
      </trkpt>
      <trkpt lat="44.05484" lon="5.29302">
        <ele>512.3</ele>
        <time>2021-05-31T08:16:44.000Z</time>
      </trkpt>
      <trkpt lat="44.05496" lon="5.29338">
        <ele>512.5</ele>
        <time>2021-05-31T08:16:47.000Z</time>
      </trkpt>
      <trkpt lat="44.05504" lon="5.29372">
        <ele>512.8</ele>
        <time>2021-05-31T08:16:49.000Z</time>
      </trkpt>
      <trkpt lat="44.05512" lon="5.29406">
        <ele>513.1</ele>
        <time>2021-05-31T08:16:52.000Z</time>
      </trkpt>
      <trkpt lat="44.0552" lon="5.2944">
        <ele>513.4</ele>
        <time>2021-05-31T08:16:55.000Z</time>
      </trkpt>
      <trkpt lat="44.05524" lon="5.29446">
        <ele>513.5</ele>
        <time>2021-05-31T08:16:56.000Z</time>
      </trkpt>
      <trkpt lat="44.0553" lon="5.29452">
        <ele>513.6</ele>
        <time>2021-05-31T08:16:56.000Z</time>
      </trkpt>
      <trkpt lat="44.05548" lon="5.29462">
        <ele>513.8</ele>
        <time>2021-05-31T08:16:59.000Z</time>
      </trkpt>
      <trkpt lat="44.05562" lon="5.29478">
        <ele>514.1</ele>
        <time>2021-05-31T08:17:01.000Z</time>
      </trkpt>
      <trkpt lat="44.05567" lon="5.2949">
        <ele>514.3</ele>
        <time>2021-05-31T08:17:02.000Z</time>
      </trkpt>
      <trkpt lat="44.05575" lon="5.29527">
        <ele>514.6</ele>
        <time>2021-05-31T08:17:05.000Z</time>
      </trkpt>
      <trkpt lat="44.05583" lon="5.29542">
        <ele>514.9</ele>
        <time>2021-05-31T08:17:06.000Z</time>
      </trkpt>
      <trkpt lat="44.05602" lon="5.29564">
        <ele>515.4</ele>
        <time>2021-05-31T08:17:09.000Z</time>
      </trkpt>
      <trkpt lat="44.05633" lon="5.29589">
        <ele>515.8</ele>
        <time>2021-05-31T08:17:13.000Z</time>
      </trkpt>
      <trkpt lat="44.05644" lon="5.29602">
        <ele>516.2</ele>
        <time>2021-05-31T08:17:15.000Z</time>
      </trkpt>
      <trkpt lat="44.05666" lon="5.29643">
        <ele>516.7</ele>
        <time>2021-05-31T08:17:19.000Z</time>
      </trkpt>
      <trkpt lat="44.05675" lon="5.29676">
        <ele>517.4</ele>
        <time>2021-05-31T08:17:22.000Z</time>
      </trkpt>
      <trkpt lat="44.05679" lon="5.2971">
        <ele>517.7</ele>
        <time>2021-05-31T08:17:25.000Z</time>
      </trkpt>
      <trkpt lat="44.05683" lon="5.29743">
        <ele>517.9</ele>
        <time>2021-05-31T08:17:27.000Z</time>
      </trkpt>
      <trkpt lat="44.05687" lon="5.29777">
        <ele>518.2</ele>
        <time>2021-05-31T08:17:30.000Z</time>
      </trkpt>
      <trkpt lat="44.05691" lon="5.29788">
        <ele>518.3</ele>
        <time>2021-05-31T08:17:31.000Z</time>
      </trkpt>
      <trkpt lat="44.05698" lon="5.29796">
        <ele>518.4</ele>
        <time>2021-05-31T08:17:32.000Z</time>
      </trkpt>
      <trkpt lat="44.05706" lon="5.29801">
        <ele>518.6</ele>
        <time>2021-05-31T08:17:33.000Z</time>
      </trkpt>
      <trkpt lat="44.05734" lon="5.2981">
        <ele>518.7</ele>
        <time>2021-05-31T08:17:36.000Z</time>
      </trkpt>
      <trkpt lat="44.05761" lon="5.29819">
        <ele>518.7</ele>
        <time>2021-05-31T08:17:39.000Z</time>
      </trkpt>
      <trkpt lat="44.05786" lon="5.29833">
        <ele>519</ele>
        <time>2021-05-31T08:17:41.000Z</time>
      </trkpt>
      <trkpt lat="44.0581" lon="5.29846">
        <ele>519.3</ele>
        <time>2021-05-31T08:17:44.000Z</time>
      </trkpt>
      <trkpt lat="44.05835" lon="5.2986">
        <ele>519.5</ele>
        <time>2021-05-31T08:17:47.000Z</time>
      </trkpt>
      <trkpt lat="44.05846" lon="5.2987">
        <ele>519.6</ele>
        <time>2021-05-31T08:17:49.000Z</time>
      </trkpt>
      <trkpt lat="44.05857" lon="5.29882">
        <ele>519.8</ele>
        <time>2021-05-31T08:17:50.000Z</time>
      </trkpt>
      <trkpt lat="44.05876" lon="5.2991">
        <ele>520.2</ele>
        <time>2021-05-31T08:17:53.000Z</time>
      </trkpt>
      <trkpt lat="44.05895" lon="5.29937">
        <ele>520.6</ele>
        <time>2021-05-31T08:17:56.000Z</time>
      </trkpt>
      <trkpt lat="44.05914" lon="5.29965">
        <ele>521.3</ele>
        <time>2021-05-31T08:17:59.000Z</time>
      </trkpt>
      <trkpt lat="44.05933" lon="5.29993">
        <ele>521.9</ele>
        <time>2021-05-31T08:18:03.000Z</time>
      </trkpt>
      <trkpt lat="44.05946" lon="5.30031">
        <ele>522.9</ele>
        <time>2021-05-31T08:18:06.000Z</time>
      </trkpt>
      <trkpt lat="44.05958" lon="5.3007">
        <ele>523.8</ele>
        <time>2021-05-31T08:18:10.000Z</time>
      </trkpt>
      <trkpt lat="44.05963" lon="5.30081">
        <ele>524.1</ele>
        <time>2021-05-31T08:18:11.000Z</time>
      </trkpt>
      <trkpt lat="44.05974" lon="5.30091">
        <ele>524.3</ele>
        <time>2021-05-31T08:18:13.000Z</time>
      </trkpt>
      <trkpt lat="44.05995" lon="5.30107">
        <ele>524.6</ele>
        <time>2021-05-31T08:18:16.000Z</time>
      </trkpt>
      <trkpt lat="44.06016" lon="5.30123">
        <ele>524.9</ele>
        <time>2021-05-31T08:18:18.000Z</time>
      </trkpt>
      <trkpt lat="44.06044" lon="5.30141">
        <ele>525.5</ele>
        <time>2021-05-31T08:18:22.000Z</time>
      </trkpt>
      <trkpt lat="44.06065" lon="5.30152">
        <ele>525.9</ele>
        <time>2021-05-31T08:18:24.000Z</time>
      </trkpt>
      <trkpt lat="44.06086" lon="5.30163">
        <ele>526.2</ele>
        <time>2021-05-31T08:18:27.000Z</time>
      </trkpt>
      <trkpt lat="44.06122" lon="5.30177">
        <ele>526.7</ele>
        <time>2021-05-31T08:18:31.000Z</time>
      </trkpt>
      <trkpt lat="44.06129" lon="5.30177">
        <ele>526.7</ele>
        <time>2021-05-31T08:18:32.000Z</time>
      </trkpt>
      <trkpt lat="44.0615" lon="5.30171">
        <ele>526.8</ele>
        <time>2021-05-31T08:18:34.000Z</time>
      </trkpt>
      <trkpt lat="44.06173" lon="5.30171">
        <ele>527</ele>
        <time>2021-05-31T08:18:36.000Z</time>
      </trkpt>
      <trkpt lat="44.06196" lon="5.30171">
        <ele>527.2</ele>
        <time>2021-05-31T08:18:39.000Z</time>
      </trkpt>
      <trkpt lat="44.06219" lon="5.30172">
        <ele>527.4</ele>
        <time>2021-05-31T08:18:41.000Z</time>
      </trkpt>
      <trkpt lat="44.06242" lon="5.30172">
        <ele>527.6</ele>
        <time>2021-05-31T08:18:43.000Z</time>
      </trkpt>
      <trkpt lat="44.06257" lon="5.30175">
        <ele>527.7</ele>
        <time>2021-05-31T08:18:45.000Z</time>
      </trkpt>
      <trkpt lat="44.06279" lon="5.30183">
        <ele>528.1</ele>
        <time>2021-05-31T08:18:48.000Z</time>
      </trkpt>
      <trkpt lat="44.063" lon="5.30192">
        <ele>528.5</ele>
        <time>2021-05-31T08:18:50.000Z</time>
      </trkpt>
      <trkpt lat="44.06335" lon="5.30201">
        <ele>528.9</ele>
        <time>2021-05-31T08:18:54.000Z</time>
      </trkpt>
      <trkpt lat="44.06359" lon="5.30209">
        <ele>529.4</ele>
        <time>2021-05-31T08:18:57.000Z</time>
      </trkpt>
      <trkpt lat="44.06383" lon="5.30218">
        <ele>529.9</ele>
        <time>2021-05-31T08:19:00.000Z</time>
      </trkpt>
      <trkpt lat="44.06396" lon="5.30225">
        <ele>530.2</ele>
        <time>2021-05-31T08:19:01.000Z</time>
      </trkpt>
      <trkpt lat="44.06411" lon="5.30242">
        <ele>530.8</ele>
        <time>2021-05-31T08:19:04.000Z</time>
      </trkpt>
      <trkpt lat="44.06425" lon="5.30259">
        <ele>531.5</ele>
        <time>2021-05-31T08:19:06.000Z</time>
      </trkpt>
      <trkpt lat="44.06447" lon="5.30282">
        <ele>532.2</ele>
        <time>2021-05-31T08:19:10.000Z</time>
      </trkpt>
      <trkpt lat="44.06469" lon="5.30302">
        <ele>533</ele>
        <time>2021-05-31T08:19:13.000Z</time>
      </trkpt>
      <trkpt lat="44.06491" lon="5.30321">
        <ele>533.8</ele>
        <time>2021-05-31T08:19:16.000Z</time>
      </trkpt>
      <trkpt lat="44.06513" lon="5.30341">
        <ele>534.7</ele>
        <time>2021-05-31T08:19:19.000Z</time>
      </trkpt>
      <trkpt lat="44.06532" lon="5.30366">
        <ele>536.1</ele>
        <time>2021-05-31T08:19:24.000Z</time>
      </trkpt>
      <trkpt lat="44.06552" lon="5.30402">
        <ele>537.5</ele>
        <time>2021-05-31T08:19:28.000Z</time>
      </trkpt>
      <trkpt lat="44.06569" lon="5.30427">
        <ele>538.7</ele>
        <time>2021-05-31T08:19:32.000Z</time>
      </trkpt>
      <trkpt lat="44.06594" lon="5.3046">
        <ele>540</ele>
        <time>2021-05-31T08:19:37.000Z</time>
      </trkpt>
      <trkpt lat="44.06601" lon="5.30467">
        <ele>540.3</ele>
        <time>2021-05-31T08:19:38.000Z</time>
      </trkpt>
      <trkpt lat="44.0661" lon="5.30473">
        <ele>540.7</ele>
        <time>2021-05-31T08:19:39.000Z</time>
      </trkpt>
      <trkpt lat="44.06623" lon="5.30474">
        <ele>541.2</ele>
        <time>2021-05-31T08:19:41.000Z</time>
      </trkpt>
      <trkpt lat="44.06644" lon="5.30472">
        <ele>541.8</ele>
        <time>2021-05-31T08:19:44.000Z</time>
      </trkpt>
      <trkpt lat="44.06665" lon="5.30469">
        <ele>542.4</ele>
        <time>2021-05-31T08:19:46.000Z</time>
      </trkpt>
      <trkpt lat="44.06686" lon="5.30467">
        <ele>543.2</ele>
        <time>2021-05-31T08:19:49.000Z</time>
      </trkpt>
      <trkpt lat="44.06697" lon="5.3047">
        <ele>544.1</ele>
        <time>2021-05-31T08:19:51.000Z</time>
      </trkpt>
      <trkpt lat="44.06721" lon="5.30487">
        <ele>544.6</ele>
        <time>2021-05-31T08:19:54.000Z</time>
      </trkpt>
      <trkpt lat="44.06735" lon="5.30492">
        <ele>545.1</ele>
        <time>2021-05-31T08:19:56.000Z</time>
      </trkpt>
      <trkpt lat="44.06746" lon="5.30494">
        <ele>545.5</ele>
        <time>2021-05-31T08:19:58.000Z</time>
      </trkpt>
      <trkpt lat="44.06757" lon="5.30493">
        <ele>546.3</ele>
        <time>2021-05-31T08:20:00.000Z</time>
      </trkpt>
      <trkpt lat="44.06778" lon="5.30489">
        <ele>547</ele>
        <time>2021-05-31T08:20:02.000Z</time>
      </trkpt>
      <trkpt lat="44.06799" lon="5.30484">
        <ele>547.5</ele>
        <time>2021-05-31T08:20:05.000Z</time>
      </trkpt>
      <trkpt lat="44.06823" lon="5.30484">
        <ele>547.8</ele>
        <time>2021-05-31T08:20:08.000Z</time>
      </trkpt>
      <trkpt lat="44.06854" lon="5.30501">
        <ele>548.9</ele>
        <time>2021-05-31T08:20:12.000Z</time>
      </trkpt>
      <trkpt lat="44.06876" lon="5.30506">
        <ele>549.7</ele>
        <time>2021-05-31T08:20:15.000Z</time>
      </trkpt>
      <trkpt lat="44.06897" lon="5.30512">
        <ele>550.5</ele>
        <time>2021-05-31T08:20:18.000Z</time>
      </trkpt>
      <trkpt lat="44.06906" lon="5.30513">
        <ele>550.7</ele>
        <time>2021-05-31T08:20:19.000Z</time>
      </trkpt>
      <trkpt lat="44.06918" lon="5.3051">
        <ele>551</ele>
        <time>2021-05-31T08:20:20.000Z</time>
      </trkpt>
      <trkpt lat="44.06927" lon="5.30514">
        <ele>551.3</ele>
        <time>2021-05-31T08:20:21.000Z</time>
      </trkpt>
      <trkpt lat="44.06936" lon="5.30523">
        <ele>551.6</ele>
        <time>2021-05-31T08:20:23.000Z</time>
      </trkpt>
      <trkpt lat="44.06941" lon="5.30541">
        <ele>551.9</ele>
        <time>2021-05-31T08:20:24.000Z</time>
      </trkpt>
      <trkpt lat="44.0694" lon="5.3056">
        <ele>552.1</ele>
        <time>2021-05-31T08:20:26.000Z</time>
      </trkpt>
      <trkpt lat="44.06936" lon="5.30572">
        <ele>552.3</ele>
        <time>2021-05-31T08:20:27.000Z</time>
      </trkpt>
      <trkpt lat="44.0693" lon="5.30581">
        <ele>552.8</ele>
        <time>2021-05-31T08:20:28.000Z</time>
      </trkpt>
      <trkpt lat="44.06923" lon="5.30587">
        <ele>553.3</ele>
        <time>2021-05-31T08:20:30.000Z</time>
      </trkpt>
      <trkpt lat="44.06899" lon="5.306">
        <ele>553.7</ele>
        <time>2021-05-31T08:20:33.000Z</time>
      </trkpt>
      <trkpt lat="44.06875" lon="5.30613">
        <ele>554.1</ele>
        <time>2021-05-31T08:20:35.000Z</time>
      </trkpt>
      <trkpt lat="44.06856" lon="5.30627">
        <ele>554.5</ele>
        <time>2021-05-31T08:20:38.000Z</time>
      </trkpt>
      <trkpt lat="44.06848" lon="5.30635">
        <ele>554.9</ele>
        <time>2021-05-31T08:20:39.000Z</time>
      </trkpt>
      <trkpt lat="44.06829" lon="5.30662">
        <ele>555.5</ele>
        <time>2021-05-31T08:20:42.000Z</time>
      </trkpt>
      <trkpt lat="44.06816" lon="5.30677">
        <ele>555.9</ele>
        <time>2021-05-31T08:20:44.000Z</time>
      </trkpt>
      <trkpt lat="44.06792" lon="5.30687">
        <ele>556.6</ele>
        <time>2021-05-31T08:20:47.000Z</time>
      </trkpt>
      <trkpt lat="44.06769" lon="5.30698">
        <ele>557.3</ele>
        <time>2021-05-31T08:20:50.000Z</time>
      </trkpt>
      <trkpt lat="44.06745" lon="5.30708">
        <ele>558</ele>
        <time>2021-05-31T08:20:54.000Z</time>
      </trkpt>
      <trkpt lat="44.06726" lon="5.30721">
        <ele>559</ele>
        <time>2021-05-31T08:20:57.000Z</time>
      </trkpt>
      <trkpt lat="44.06709" lon="5.3074">
        <ele>559.5</ele>
        <time>2021-05-31T08:20:59.000Z</time>
      </trkpt>
      <trkpt lat="44.06692" lon="5.30758">
        <ele>559.9</ele>
        <time>2021-05-31T08:21:02.000Z</time>
      </trkpt>
      <trkpt lat="44.06675" lon="5.30777">
        <ele>560.3</ele>
        <time>2021-05-31T08:21:04.000Z</time>
      </trkpt>
      <trkpt lat="44.0666" lon="5.30802">
        <ele>560.9</ele>
        <time>2021-05-31T08:21:07.000Z</time>
      </trkpt>
      <trkpt lat="44.06646" lon="5.30826">
        <ele>561.5</ele>
        <time>2021-05-31T08:21:10.000Z</time>
      </trkpt>
      <trkpt lat="44.06631" lon="5.30851">
        <ele>562.2</ele>
        <time>2021-05-31T08:21:13.000Z</time>
      </trkpt>
      <trkpt lat="44.06625" lon="5.30878">
        <ele>562.8</ele>
        <time>2021-05-31T08:21:15.000Z</time>
      </trkpt>
      <trkpt lat="44.06628" lon="5.30891">
        <ele>563.4</ele>
        <time>2021-05-31T08:21:17.000Z</time>
      </trkpt>
      <trkpt lat="44.06645" lon="5.30925">
        <ele>563.9</ele>
        <time>2021-05-31T08:21:20.000Z</time>
      </trkpt>
      <trkpt lat="44.06662" lon="5.30959">
        <ele>564.3</ele>
        <time>2021-05-31T08:21:23.000Z</time>
      </trkpt>
      <trkpt lat="44.06683" lon="5.3098">
        <ele>564.6</ele>
        <time>2021-05-31T08:21:26.000Z</time>
      </trkpt>
      <trkpt lat="44.06704" lon="5.31001">
        <ele>565</ele>
        <time>2021-05-31T08:21:29.000Z</time>
      </trkpt>
      <trkpt lat="44.06725" lon="5.31022">
        <ele>565.4</ele>
        <time>2021-05-31T08:21:32.000Z</time>
      </trkpt>
      <trkpt lat="44.06748" lon="5.3105">
        <ele>566.3</ele>
        <time>2021-05-31T08:21:36.000Z</time>
      </trkpt>
      <trkpt lat="44.06754" lon="5.31061">
        <ele>566.5</ele>
        <time>2021-05-31T08:21:37.000Z</time>
      </trkpt>
      <trkpt lat="44.06757" lon="5.31082">
        <ele>566.7</ele>
        <time>2021-05-31T08:21:39.000Z</time>
      </trkpt>
      <trkpt lat="44.06749" lon="5.31105">
        <ele>567</ele>
        <time>2021-05-31T08:21:41.000Z</time>
      </trkpt>
      <trkpt lat="44.06744" lon="5.31112">
        <ele>567.1</ele>
        <time>2021-05-31T08:21:42.000Z</time>
      </trkpt>
      <trkpt lat="44.06727" lon="5.31117">
        <ele>567.5</ele>
        <time>2021-05-31T08:21:44.000Z</time>
      </trkpt>
      <trkpt lat="44.06702" lon="5.31121">
        <ele>567.7</ele>
        <time>2021-05-31T08:21:46.000Z</time>
      </trkpt>
      <trkpt lat="44.06676" lon="5.31124">
        <ele>567.9</ele>
        <time>2021-05-31T08:21:49.000Z</time>
      </trkpt>
      <trkpt lat="44.06651" lon="5.31128">
        <ele>568.7</ele>
        <time>2021-05-31T08:21:52.000Z</time>
      </trkpt>
      <trkpt lat="44.06626" lon="5.31131">
        <ele>569.4</ele>
        <time>2021-05-31T08:21:55.000Z</time>
      </trkpt>
      <trkpt lat="44.06615" lon="5.31137">
        <ele>569.7</ele>
        <time>2021-05-31T08:21:57.000Z</time>
      </trkpt>
      <trkpt lat="44.06589" lon="5.31164">
        <ele>570</ele>
        <time>2021-05-31T08:22:00.000Z</time>
      </trkpt>
      <trkpt lat="44.06581" lon="5.31177">
        <ele>570.3</ele>
        <time>2021-05-31T08:22:02.000Z</time>
      </trkpt>
      <trkpt lat="44.06567" lon="5.3121">
        <ele>570.5</ele>
        <time>2021-05-31T08:22:04.000Z</time>
      </trkpt>
      <trkpt lat="44.06553" lon="5.31243">
        <ele>570.7</ele>
        <time>2021-05-31T08:22:07.000Z</time>
      </trkpt>
      <trkpt lat="44.06538" lon="5.31268">
        <ele>571.2</ele>
        <time>2021-05-31T08:22:10.000Z</time>
      </trkpt>
      <trkpt lat="44.06524" lon="5.31294">
        <ele>571.7</ele>
        <time>2021-05-31T08:22:13.000Z</time>
      </trkpt>
      <trkpt lat="44.06509" lon="5.31319">
        <ele>572.2</ele>
        <time>2021-05-31T08:22:15.000Z</time>
      </trkpt>
      <trkpt lat="44.06492" lon="5.3134">
        <ele>572.8</ele>
        <time>2021-05-31T08:22:18.000Z</time>
      </trkpt>
      <trkpt lat="44.06475" lon="5.31357">
        <ele>573.2</ele>
        <time>2021-05-31T08:22:21.000Z</time>
      </trkpt>
      <trkpt lat="44.06454" lon="5.31372">
        <ele>573.7</ele>
        <time>2021-05-31T08:22:23.000Z</time>
      </trkpt>
      <trkpt lat="44.06431" lon="5.31384">
        <ele>574.4</ele>
        <time>2021-05-31T08:22:26.000Z</time>
      </trkpt>
      <trkpt lat="44.06407" lon="5.31395">
        <ele>575.3</ele>
        <time>2021-05-31T08:22:30.000Z</time>
      </trkpt>
      <trkpt lat="44.06384" lon="5.31407">
        <ele>576</ele>
        <time>2021-05-31T08:22:33.000Z</time>
      </trkpt>
      <trkpt lat="44.06368" lon="5.31417">
        <ele>576.6</ele>
        <time>2021-05-31T08:22:35.000Z</time>
      </trkpt>
      <trkpt lat="44.06357" lon="5.31429">
        <ele>577.5</ele>
        <time>2021-05-31T08:22:37.000Z</time>
      </trkpt>
      <trkpt lat="44.06351" lon="5.31462">
        <ele>578.4</ele>
        <time>2021-05-31T08:22:41.000Z</time>
      </trkpt>
      <trkpt lat="44.06352" lon="5.31482">
        <ele>579.1</ele>
        <time>2021-05-31T08:22:43.000Z</time>
      </trkpt>
      <trkpt lat="44.0636" lon="5.31498">
        <ele>579.7</ele>
        <time>2021-05-31T08:22:45.000Z</time>
      </trkpt>
      <trkpt lat="44.06384" lon="5.31524">
        <ele>580.7</ele>
        <time>2021-05-31T08:22:49.000Z</time>
      </trkpt>
      <trkpt lat="44.06399" lon="5.31537">
        <ele>581.9</ele>
        <time>2021-05-31T08:22:52.000Z</time>
      </trkpt>
      <trkpt lat="44.06415" lon="5.31541">
        <ele>582.7</ele>
        <time>2021-05-31T08:22:54.000Z</time>
      </trkpt>
      <trkpt lat="44.06423" lon="5.31538">
        <ele>583.2</ele>
        <time>2021-05-31T08:22:56.000Z</time>
      </trkpt>
      <trkpt lat="44.06441" lon="5.31525">
        <ele>583.6</ele>
        <time>2021-05-31T08:22:58.000Z</time>
      </trkpt>
      <trkpt lat="44.06459" lon="5.31512">
        <ele>584</ele>
        <time>2021-05-31T08:23:00.000Z</time>
      </trkpt>
      <trkpt lat="44.06472" lon="5.31509">
        <ele>584.2</ele>
        <time>2021-05-31T08:23:02.000Z</time>
      </trkpt>
      <trkpt lat="44.06492" lon="5.31513">
        <ele>584.6</ele>
        <time>2021-05-31T08:23:04.000Z</time>
      </trkpt>
      <trkpt lat="44.06512" lon="5.31514">
        <ele>585.3</ele>
        <time>2021-05-31T08:23:07.000Z</time>
      </trkpt>
      <trkpt lat="44.06532" lon="5.31516">
        <ele>586.2</ele>
        <time>2021-05-31T08:23:10.000Z</time>
      </trkpt>
      <trkpt lat="44.0654" lon="5.31514">
        <ele>587.1</ele>
        <time>2021-05-31T08:23:12.000Z</time>
      </trkpt>
      <trkpt lat="44.06556" lon="5.31499">
        <ele>588.3</ele>
        <time>2021-05-31T08:23:15.000Z</time>
      </trkpt>
      <trkpt lat="44.06576" lon="5.31473">
        <ele>589.1</ele>
        <time>2021-05-31T08:23:19.000Z</time>
      </trkpt>
      <trkpt lat="44.06584" lon="5.31467">
        <ele>589.6</ele>
        <time>2021-05-31T08:23:20.000Z</time>
      </trkpt>
      <trkpt lat="44.06604" lon="5.31465">
        <ele>590.3</ele>
        <time>2021-05-31T08:23:23.000Z</time>
      </trkpt>
      <trkpt lat="44.06622" lon="5.31468">
        <ele>590.5</ele>
        <time>2021-05-31T08:23:25.000Z</time>
      </trkpt>
      <trkpt lat="44.0663" lon="5.31473">
        <ele>590.6</ele>
        <time>2021-05-31T08:23:26.000Z</time>
      </trkpt>
      <trkpt lat="44.06637" lon="5.31482">
        <ele>590.8</ele>
        <time>2021-05-31T08:23:27.000Z</time>
      </trkpt>
      <trkpt lat="44.0665" lon="5.31506">
        <ele>591.6</ele>
        <time>2021-05-31T08:23:29.000Z</time>
      </trkpt>
      <trkpt lat="44.06657" lon="5.31511">
        <ele>592</ele>
        <time>2021-05-31T08:23:31.000Z</time>
      </trkpt>
      <trkpt lat="44.0668" lon="5.31511">
        <ele>592.8</ele>
        <time>2021-05-31T08:23:34.000Z</time>
      </trkpt>
      <trkpt lat="44.06688" lon="5.31513">
        <ele>593.4</ele>
        <time>2021-05-31T08:23:35.000Z</time>
      </trkpt>
      <trkpt lat="44.06697" lon="5.31521">
        <ele>594</ele>
        <time>2021-05-31T08:23:37.000Z</time>
      </trkpt>
      <trkpt lat="44.06711" lon="5.31543">
        <ele>594.5</ele>
        <time>2021-05-31T08:23:40.000Z</time>
      </trkpt>
      <trkpt lat="44.06725" lon="5.31565">
        <ele>594.9</ele>
        <time>2021-05-31T08:23:42.000Z</time>
      </trkpt>
      <trkpt lat="44.06731" lon="5.31608">
        <ele>595.4</ele>
        <time>2021-05-31T08:23:45.000Z</time>
      </trkpt>
      <trkpt lat="44.06749" lon="5.31636">
        <ele>595.9</ele>
        <time>2021-05-31T08:23:49.000Z</time>
      </trkpt>
      <trkpt lat="44.06753" lon="5.31674">
        <ele>597.2</ele>
        <time>2021-05-31T08:23:53.000Z</time>
      </trkpt>
      <trkpt lat="44.06753" lon="5.31684">
        <ele>597.6</ele>
        <time>2021-05-31T08:23:54.000Z</time>
      </trkpt>
      <trkpt lat="44.06742" lon="5.31729">
        <ele>598.7</ele>
        <time>2021-05-31T08:23:58.000Z</time>
      </trkpt>
      <trkpt lat="44.06739" lon="5.31769">
        <ele>599.4</ele>
        <time>2021-05-31T08:24:02.000Z</time>
      </trkpt>
      <trkpt lat="44.06731" lon="5.31803">
        <ele>600.5</ele>
        <time>2021-05-31T08:24:05.000Z</time>
      </trkpt>
      <trkpt lat="44.06718" lon="5.31845">
        <ele>601.5</ele>
        <time>2021-05-31T08:24:09.000Z</time>
      </trkpt>
      <trkpt lat="44.06717" lon="5.31866">
        <ele>603.3</ele>
        <time>2021-05-31T08:24:13.000Z</time>
      </trkpt>
      <trkpt lat="44.06719" lon="5.31907">
        <ele>604.3</ele>
        <time>2021-05-31T08:24:17.000Z</time>
      </trkpt>
      <trkpt lat="44.0672" lon="5.31948">
        <ele>605.1</ele>
        <time>2021-05-31T08:24:21.000Z</time>
      </trkpt>
      <trkpt lat="44.06723" lon="5.31968">
        <ele>605.8</ele>
        <time>2021-05-31T08:24:23.000Z</time>
      </trkpt>
      <trkpt lat="44.06731" lon="5.31996">
        <ele>606.6</ele>
        <time>2021-05-31T08:24:26.000Z</time>
      </trkpt>
      <trkpt lat="44.06738" lon="5.32023">
        <ele>607.3</ele>
        <time>2021-05-31T08:24:28.000Z</time>
      </trkpt>
      <trkpt lat="44.06746" lon="5.32051">
        <ele>608</ele>
        <time>2021-05-31T08:24:31.000Z</time>
      </trkpt>
      <trkpt lat="44.06753" lon="5.32068">
        <ele>608.3</ele>
        <time>2021-05-31T08:24:33.000Z</time>
      </trkpt>
      <trkpt lat="44.06759" lon="5.32076">
        <ele>608.6</ele>
        <time>2021-05-31T08:24:34.000Z</time>
      </trkpt>
      <trkpt lat="44.06793" lon="5.32086">
        <ele>609</ele>
        <time>2021-05-31T08:24:38.000Z</time>
      </trkpt>
      <trkpt lat="44.06804" lon="5.32092">
        <ele>609.2</ele>
        <time>2021-05-31T08:24:39.000Z</time>
      </trkpt>
      <trkpt lat="44.0681" lon="5.32101">
        <ele>609.3</ele>
        <time>2021-05-31T08:24:40.000Z</time>
      </trkpt>
      <trkpt lat="44.06812" lon="5.32111">
        <ele>609.4</ele>
        <time>2021-05-31T08:24:41.000Z</time>
      </trkpt>
      <trkpt lat="44.06811" lon="5.32133">
        <ele>609.5</ele>
        <time>2021-05-31T08:24:42.000Z</time>
      </trkpt>
      <trkpt lat="44.06803" lon="5.32152">
        <ele>609.6</ele>
        <time>2021-05-31T08:24:44.000Z</time>
      </trkpt>
      <trkpt lat="44.06796" lon="5.3216">
        <ele>609.6</ele>
        <time>2021-05-31T08:24:45.000Z</time>
      </trkpt>
      <trkpt lat="44.06778" lon="5.32173">
        <ele>609.8</ele>
        <time>2021-05-31T08:24:47.000Z</time>
      </trkpt>
      <trkpt lat="44.0676" lon="5.32185">
        <ele>610.1</ele>
        <time>2021-05-31T08:24:49.000Z</time>
      </trkpt>
      <trkpt lat="44.0674" lon="5.32193">
        <ele>610.4</ele>
        <time>2021-05-31T08:24:52.000Z</time>
      </trkpt>
      <trkpt lat="44.06721" lon="5.32193">
        <ele>610.9</ele>
        <time>2021-05-31T08:24:54.000Z</time>
      </trkpt>
      <trkpt lat="44.06702" lon="5.32188">
        <ele>611.5</ele>
        <time>2021-05-31T08:24:56.000Z</time>
      </trkpt>
      <trkpt lat="44.0667" lon="5.3217">
        <ele>612.1</ele>
        <time>2021-05-31T08:25:00.000Z</time>
      </trkpt>
      <trkpt lat="44.06659" lon="5.32167">
        <ele>612.7</ele>
        <time>2021-05-31T08:25:02.000Z</time>
      </trkpt>
      <trkpt lat="44.06652" lon="5.32167">
        <ele>613.1</ele>
        <time>2021-05-31T08:25:03.000Z</time>
      </trkpt>
      <trkpt lat="44.06646" lon="5.3217">
        <ele>613.4</ele>
        <time>2021-05-31T08:25:04.000Z</time>
      </trkpt>
      <trkpt lat="44.06617" lon="5.322">
        <ele>613.9</ele>
        <time>2021-05-31T08:25:08.000Z</time>
      </trkpt>
      <trkpt lat="44.06601" lon="5.32223">
        <ele>614.6</ele>
        <time>2021-05-31T08:25:11.000Z</time>
      </trkpt>
      <trkpt lat="44.06585" lon="5.32245">
        <ele>615.4</ele>
        <time>2021-05-31T08:25:14.000Z</time>
      </trkpt>
      <trkpt lat="44.06579" lon="5.32257">
        <ele>615.7</ele>
        <time>2021-05-31T08:25:15.000Z</time>
      </trkpt>
      <trkpt lat="44.06578" lon="5.32272">
        <ele>616.2</ele>
        <time>2021-05-31T08:25:17.000Z</time>
      </trkpt>
      <trkpt lat="44.0658" lon="5.32284">
        <ele>616.6</ele>
        <time>2021-05-31T08:25:18.000Z</time>
      </trkpt>
      <trkpt lat="44.06591" lon="5.32313">
        <ele>617.2</ele>
        <time>2021-05-31T08:25:21.000Z</time>
      </trkpt>
      <trkpt lat="44.06598" lon="5.3232">
        <ele>617.6</ele>
        <time>2021-05-31T08:25:22.000Z</time>
      </trkpt>
      <trkpt lat="44.06616" lon="5.32329">
        <ele>618.1</ele>
        <time>2021-05-31T08:25:24.000Z</time>
      </trkpt>
      <trkpt lat="44.0663" lon="5.32344">
        <ele>618.6</ele>
        <time>2021-05-31T08:25:27.000Z</time>
      </trkpt>
      <trkpt lat="44.06643" lon="5.32361">
        <ele>619</ele>
        <time>2021-05-31T08:25:29.000Z</time>
      </trkpt>
      <trkpt lat="44.06659" lon="5.32386">
        <ele>619.6</ele>
        <time>2021-05-31T08:25:32.000Z</time>
      </trkpt>
      <trkpt lat="44.06674" lon="5.32411">
        <ele>620.2</ele>
        <time>2021-05-31T08:25:34.000Z</time>
      </trkpt>
      <trkpt lat="44.06689" lon="5.32431">
        <ele>620.7</ele>
        <time>2021-05-31T08:25:37.000Z</time>
      </trkpt>
      <trkpt lat="44.06704" lon="5.32452">
        <ele>621.2</ele>
        <time>2021-05-31T08:25:39.000Z</time>
      </trkpt>
      <trkpt lat="44.06728" lon="5.3248">
        <ele>622</ele>
        <time>2021-05-31T08:25:43.000Z</time>
      </trkpt>
      <trkpt lat="44.06733" lon="5.32492">
        <ele>622.3</ele>
        <time>2021-05-31T08:25:44.000Z</time>
      </trkpt>
      <trkpt lat="44.06733" lon="5.32504">
        <ele>622.6</ele>
        <time>2021-05-31T08:25:45.000Z</time>
      </trkpt>
      <trkpt lat="44.0673" lon="5.3252">
        <ele>623</ele>
        <time>2021-05-31T08:25:47.000Z</time>
      </trkpt>
      <trkpt lat="44.06725" lon="5.3253">
        <ele>623.5</ele>
        <time>2021-05-31T08:25:48.000Z</time>
      </trkpt>
      <trkpt lat="44.06717" lon="5.32537">
        <ele>623.8</ele>
        <time>2021-05-31T08:25:50.000Z</time>
      </trkpt>
      <trkpt lat="44.06709" lon="5.32541">
        <ele>624.1</ele>
        <time>2021-05-31T08:25:51.000Z</time>
      </trkpt>
      <trkpt lat="44.067" lon="5.3254">
        <ele>624.4</ele>
        <time>2021-05-31T08:25:52.000Z</time>
      </trkpt>
      <trkpt lat="44.06673" lon="5.32524">
        <ele>625.5</ele>
        <time>2021-05-31T08:25:56.000Z</time>
      </trkpt>
      <trkpt lat="44.06651" lon="5.32514">
        <ele>626.4</ele>
        <time>2021-05-31T08:25:59.000Z</time>
      </trkpt>
      <trkpt lat="44.06629" lon="5.32504">
        <ele>627.4</ele>
        <time>2021-05-31T08:26:02.000Z</time>
      </trkpt>
      <trkpt lat="44.06607" lon="5.32494">
        <ele>628.4</ele>
        <time>2021-05-31T08:26:06.000Z</time>
      </trkpt>
      <trkpt lat="44.06585" lon="5.32484">
        <ele>629.4</ele>
        <time>2021-05-31T08:26:09.000Z</time>
      </trkpt>
      <trkpt lat="44.06565" lon="5.32468">
        <ele>630.3</ele>
        <time>2021-05-31T08:26:12.000Z</time>
      </trkpt>
      <trkpt lat="44.06544" lon="5.32452">
        <ele>631.1</ele>
        <time>2021-05-31T08:26:15.000Z</time>
      </trkpt>
      <trkpt lat="44.06525" lon="5.3244">
        <ele>631.8</ele>
        <time>2021-05-31T08:26:18.000Z</time>
      </trkpt>
      <trkpt lat="44.06505" lon="5.32429">
        <ele>632.6</ele>
        <time>2021-05-31T08:26:21.000Z</time>
      </trkpt>
      <trkpt lat="44.06486" lon="5.32417">
        <ele>633.3</ele>
        <time>2021-05-31T08:26:23.000Z</time>
      </trkpt>
      <trkpt lat="44.06466" lon="5.32406">
        <ele>634.1</ele>
        <time>2021-05-31T08:26:26.000Z</time>
      </trkpt>
      <trkpt lat="44.0646" lon="5.32398">
        <ele>634.4</ele>
        <time>2021-05-31T08:26:27.000Z</time>
      </trkpt>
      <trkpt lat="44.06445" lon="5.3236">
        <ele>635.2</ele>
        <time>2021-05-31T08:26:31.000Z</time>
      </trkpt>
      <trkpt lat="44.06429" lon="5.32323">
        <ele>635.9</ele>
        <time>2021-05-31T08:26:35.000Z</time>
      </trkpt>
      <trkpt lat="44.06419" lon="5.32298">
        <ele>636.5</ele>
        <time>2021-05-31T08:26:37.000Z</time>
      </trkpt>
      <trkpt lat="44.06408" lon="5.32273">
        <ele>637.1</ele>
        <time>2021-05-31T08:26:40.000Z</time>
      </trkpt>
      <trkpt lat="44.06398" lon="5.32248">
        <ele>637.8</ele>
        <time>2021-05-31T08:26:42.000Z</time>
      </trkpt>
      <trkpt lat="44.06384" lon="5.32231">
        <ele>639.2</ele>
        <time>2021-05-31T08:26:46.000Z</time>
      </trkpt>
      <trkpt lat="44.06369" lon="5.32215">
        <ele>640.6</ele>
        <time>2021-05-31T08:26:50.000Z</time>
      </trkpt>
      <trkpt lat="44.0636" lon="5.32198">
        <ele>641.1</ele>
        <time>2021-05-31T08:26:52.000Z</time>
      </trkpt>
      <trkpt lat="44.06358" lon="5.32189">
        <ele>641.4</ele>
        <time>2021-05-31T08:26:53.000Z</time>
      </trkpt>
      <trkpt lat="44.06358" lon="5.32177">
        <ele>642</ele>
        <time>2021-05-31T08:26:54.000Z</time>
      </trkpt>
      <trkpt lat="44.06361" lon="5.32168">
        <ele>642.7</ele>
        <time>2021-05-31T08:26:56.000Z</time>
      </trkpt>
      <trkpt lat="44.06381" lon="5.32149">
        <ele>643.5</ele>
        <time>2021-05-31T08:26:59.000Z</time>
      </trkpt>
      <trkpt lat="44.064" lon="5.3213">
        <ele>644.1</ele>
        <time>2021-05-31T08:27:02.000Z</time>
      </trkpt>
      <trkpt lat="44.0641" lon="5.32117">
        <ele>644.6</ele>
        <time>2021-05-31T08:27:04.000Z</time>
      </trkpt>
      <trkpt lat="44.06425" lon="5.3209">
        <ele>645.1</ele>
        <time>2021-05-31T08:27:06.000Z</time>
      </trkpt>
      <trkpt lat="44.0644" lon="5.32062">
        <ele>645.5</ele>
        <time>2021-05-31T08:27:09.000Z</time>
      </trkpt>
      <trkpt lat="44.06453" lon="5.3203">
        <ele>646.9</ele>
        <time>2021-05-31T08:27:13.000Z</time>
      </trkpt>
      <trkpt lat="44.06454" lon="5.32018">
        <ele>647.4</ele>
        <time>2021-05-31T08:27:15.000Z</time>
      </trkpt>
      <trkpt lat="44.06452" lon="5.32007">
        <ele>647.7</ele>
        <time>2021-05-31T08:27:16.000Z</time>
      </trkpt>
      <trkpt lat="44.06447" lon="5.31996">
        <ele>648.1</ele>
        <time>2021-05-31T08:27:17.000Z</time>
      </trkpt>
      <trkpt lat="44.06431" lon="5.31989">
        <ele>648.6</ele>
        <time>2021-05-31T08:27:19.000Z</time>
      </trkpt>
      <trkpt lat="44.06424" lon="5.31989">
        <ele>648.9</ele>
        <time>2021-05-31T08:27:20.000Z</time>
      </trkpt>
      <trkpt lat="44.06395" lon="5.31997">
        <ele>649.4</ele>
        <time>2021-05-31T08:27:24.000Z</time>
      </trkpt>
      <trkpt lat="44.06376" lon="5.31999">
        <ele>650.9</ele>
        <time>2021-05-31T08:27:27.000Z</time>
      </trkpt>
      <trkpt lat="44.06348" lon="5.31997">
        <ele>652</ele>
        <time>2021-05-31T08:27:31.000Z</time>
      </trkpt>
      <trkpt lat="44.06321" lon="5.31994">
        <ele>653</ele>
        <time>2021-05-31T08:27:35.000Z</time>
      </trkpt>
      <trkpt lat="44.06293" lon="5.31992">
        <ele>654</ele>
        <time>2021-05-31T08:27:39.000Z</time>
      </trkpt>
      <trkpt lat="44.06271" lon="5.31995">
        <ele>655.8</ele>
        <time>2021-05-31T08:27:43.000Z</time>
      </trkpt>
      <trkpt lat="44.06251" lon="5.32006">
        <ele>656.5</ele>
        <time>2021-05-31T08:27:46.000Z</time>
      </trkpt>
      <trkpt lat="44.06231" lon="5.32017">
        <ele>657.2</ele>
        <time>2021-05-31T08:27:49.000Z</time>
      </trkpt>
      <trkpt lat="44.06212" lon="5.32028">
        <ele>657.9</ele>
        <time>2021-05-31T08:27:51.000Z</time>
      </trkpt>
      <trkpt lat="44.06192" lon="5.32039">
        <ele>658.5</ele>
        <time>2021-05-31T08:27:54.000Z</time>
      </trkpt>
      <trkpt lat="44.06172" lon="5.3205">
        <ele>659.1</ele>
        <time>2021-05-31T08:27:57.000Z</time>
      </trkpt>
      <trkpt lat="44.06152" lon="5.32061">
        <ele>659.8</ele>
        <time>2021-05-31T08:27:59.000Z</time>
      </trkpt>
      <trkpt lat="44.06126" lon="5.32073">
        <ele>661.1</ele>
        <time>2021-05-31T08:28:03.000Z</time>
      </trkpt>
      <trkpt lat="44.061" lon="5.32085">
        <ele>662.5</ele>
        <time>2021-05-31T08:28:08.000Z</time>
      </trkpt>
      <trkpt lat="44.06094" lon="5.32086">
        <ele>662.9</ele>
        <time>2021-05-31T08:28:09.000Z</time>
      </trkpt>
      <trkpt lat="44.06083" lon="5.32084">
        <ele>663.4</ele>
        <time>2021-05-31T08:28:10.000Z</time>
      </trkpt>
      <trkpt lat="44.06069" lon="5.32079">
        <ele>663.9</ele>
        <time>2021-05-31T08:28:12.000Z</time>
      </trkpt>
      <trkpt lat="44.06058" lon="5.32079">
        <ele>664.2</ele>
        <time>2021-05-31T08:28:13.000Z</time>
      </trkpt>
      <trkpt lat="44.06037" lon="5.32088">
        <ele>665</ele>
        <time>2021-05-31T08:28:16.000Z</time>
      </trkpt>
      <trkpt lat="44.06016" lon="5.32096">
        <ele>665.8</ele>
        <time>2021-05-31T08:28:19.000Z</time>
      </trkpt>
      <trkpt lat="44.05985" lon="5.32106">
        <ele>667.1</ele>
        <time>2021-05-31T08:28:24.000Z</time>
      </trkpt>
      <trkpt lat="44.05968" lon="5.32114">
        <ele>668.2</ele>
        <time>2021-05-31T08:28:27.000Z</time>
      </trkpt>
      <trkpt lat="44.05959" lon="5.32126">
        <ele>668.6</ele>
        <time>2021-05-31T08:28:28.000Z</time>
      </trkpt>
      <trkpt lat="44.05954" lon="5.32139">
        <ele>669</ele>
        <time>2021-05-31T08:28:30.000Z</time>
      </trkpt>
      <trkpt lat="44.05953" lon="5.32145">
        <ele>669.3</ele>
        <time>2021-05-31T08:28:31.000Z</time>
      </trkpt>
      <trkpt lat="44.05953" lon="5.32152">
        <ele>669.6</ele>
        <time>2021-05-31T08:28:31.000Z</time>
      </trkpt>
      <trkpt lat="44.05956" lon="5.32163">
        <ele>669.9</ele>
        <time>2021-05-31T08:28:33.000Z</time>
      </trkpt>
      <trkpt lat="44.05965" lon="5.32182">
        <ele>670.4</ele>
        <time>2021-05-31T08:28:35.000Z</time>
      </trkpt>
      <trkpt lat="44.05967" lon="5.32196">
        <ele>670.7</ele>
        <time>2021-05-31T08:28:36.000Z</time>
      </trkpt>
      <trkpt lat="44.05962" lon="5.32239">
        <ele>671.3</ele>
        <time>2021-05-31T08:28:39.000Z</time>
      </trkpt>
      <trkpt lat="44.05958" lon="5.32258">
        <ele>671.6</ele>
        <time>2021-05-31T08:28:41.000Z</time>
      </trkpt>
      <trkpt lat="44.05944" lon="5.32301">
        <ele>671.9</ele>
        <time>2021-05-31T08:28:45.000Z</time>
      </trkpt>
      <trkpt lat="44.05925" lon="5.32346">
        <ele>672.4</ele>
        <time>2021-05-31T08:28:49.000Z</time>
      </trkpt>
      <trkpt lat="44.05918" lon="5.32359">
        <ele>672.6</ele>
        <time>2021-05-31T08:28:50.000Z</time>
      </trkpt>
      <trkpt lat="44.05909" lon="5.32369">
        <ele>673.1</ele>
        <time>2021-05-31T08:28:52.000Z</time>
      </trkpt>
      <trkpt lat="44.05882" lon="5.32393">
        <ele>673.6</ele>
        <time>2021-05-31T08:28:55.000Z</time>
      </trkpt>
      <trkpt lat="44.05854" lon="5.32416">
        <ele>674</ele>
        <time>2021-05-31T08:28:59.000Z</time>
      </trkpt>
      <trkpt lat="44.05838" lon="5.32429">
        <ele>674.9</ele>
        <time>2021-05-31T08:29:02.000Z</time>
      </trkpt>
      <trkpt lat="44.05821" lon="5.32442">
        <ele>675.9</ele>
        <time>2021-05-31T08:29:05.000Z</time>
      </trkpt>
      <trkpt lat="44.05794" lon="5.32469">
        <ele>676.9</ele>
        <time>2021-05-31T08:29:09.000Z</time>
      </trkpt>
      <trkpt lat="44.05771" lon="5.32503">
        <ele>677.9</ele>
        <time>2021-05-31T08:29:13.000Z</time>
      </trkpt>
      <trkpt lat="44.05753" lon="5.32546">
        <ele>679.1</ele>
        <time>2021-05-31T08:29:18.000Z</time>
      </trkpt>
      <trkpt lat="44.05733" lon="5.32565">
        <ele>680.3</ele>
        <time>2021-05-31T08:29:21.000Z</time>
      </trkpt>
      <trkpt lat="44.05713" lon="5.32584">
        <ele>681.8</ele>
        <time>2021-05-31T08:29:25.000Z</time>
      </trkpt>
      <trkpt lat="44.05708" lon="5.32595">
        <ele>682.7</ele>
        <time>2021-05-31T08:29:28.000Z</time>
      </trkpt>
      <trkpt lat="44.05702" lon="5.32625">
        <ele>683.7</ele>
        <time>2021-05-31T08:29:31.000Z</time>
      </trkpt>
      <trkpt lat="44.05695" lon="5.32655">
        <ele>684.3</ele>
        <time>2021-05-31T08:29:34.000Z</time>
      </trkpt>
      <trkpt lat="44.05686" lon="5.32672">
        <ele>684.5</ele>
        <time>2021-05-31T08:29:35.000Z</time>
      </trkpt>
      <trkpt lat="44.05675" lon="5.32682">
        <ele>684.7</ele>
        <time>2021-05-31T08:29:37.000Z</time>
      </trkpt>
      <trkpt lat="44.0567" lon="5.3269">
        <ele>684.8</ele>
        <time>2021-05-31T08:29:38.000Z</time>
      </trkpt>
      <trkpt lat="44.05664" lon="5.32705">
        <ele>684.9</ele>
        <time>2021-05-31T08:29:39.000Z</time>
      </trkpt>
      <trkpt lat="44.05664" lon="5.32752">
        <ele>685.9</ele>
        <time>2021-05-31T08:29:43.000Z</time>
      </trkpt>
      <trkpt lat="44.05662" lon="5.32767">
        <ele>686.3</ele>
        <time>2021-05-31T08:29:45.000Z</time>
      </trkpt>
      <trkpt lat="44.05656" lon="5.3278">
        <ele>686.8</ele>
        <time>2021-05-31T08:29:46.000Z</time>
      </trkpt>
      <trkpt lat="44.05624" lon="5.32808">
        <ele>687.4</ele>
        <time>2021-05-31T08:29:50.000Z</time>
      </trkpt>
      <trkpt lat="44.05599" lon="5.32826">
        <ele>688.7</ele>
        <time>2021-05-31T08:29:55.000Z</time>
      </trkpt>
      <trkpt lat="44.05572" lon="5.32839">
        <ele>689.6</ele>
        <time>2021-05-31T08:29:58.000Z</time>
      </trkpt>
      <trkpt lat="44.05544" lon="5.32842">
        <ele>690.8</ele>
        <time>2021-05-31T08:30:02.000Z</time>
      </trkpt>
      <trkpt lat="44.05515" lon="5.32845">
        <ele>692.3</ele>
        <time>2021-05-31T08:30:07.000Z</time>
      </trkpt>
      <trkpt lat="44.05505" lon="5.32852">
        <ele>693.5</ele>
        <time>2021-05-31T08:30:09.000Z</time>
      </trkpt>
      <trkpt lat="44.05496" lon="5.32861">
        <ele>693.9</ele>
        <time>2021-05-31T08:30:11.000Z</time>
      </trkpt>
      <trkpt lat="44.05479" lon="5.32895">
        <ele>694.5</ele>
        <time>2021-05-31T08:30:14.000Z</time>
      </trkpt>
      <trkpt lat="44.05472" lon="5.32904">
        <ele>695.2</ele>
        <time>2021-05-31T08:30:16.000Z</time>
      </trkpt>
      <trkpt lat="44.05463" lon="5.32909">
        <ele>695.7</ele>
        <time>2021-05-31T08:30:18.000Z</time>
      </trkpt>
      <trkpt lat="44.05454" lon="5.3291">
        <ele>696.2</ele>
        <time>2021-05-31T08:30:19.000Z</time>
      </trkpt>
      <trkpt lat="44.05434" lon="5.32903">
        <ele>696.7</ele>
        <time>2021-05-31T08:30:22.000Z</time>
      </trkpt>
      <trkpt lat="44.05417" lon="5.32903">
        <ele>697.2</ele>
        <time>2021-05-31T08:30:24.000Z</time>
      </trkpt>
      <trkpt lat="44.05408" lon="5.3291">
        <ele>697.5</ele>
        <time>2021-05-31T08:30:25.000Z</time>
      </trkpt>
      <trkpt lat="44.05382" lon="5.32945">
        <ele>698.2</ele>
        <time>2021-05-31T08:30:29.000Z</time>
      </trkpt>
      <trkpt lat="44.05372" lon="5.32951">
        <ele>698.3</ele>
        <time>2021-05-31T08:30:30.000Z</time>
      </trkpt>
      <trkpt lat="44.05361" lon="5.32954">
        <ele>698.4</ele>
        <time>2021-05-31T08:30:32.000Z</time>
      </trkpt>
      <trkpt lat="44.0533" lon="5.32956">
        <ele>698.6</ele>
        <time>2021-05-31T08:30:35.000Z</time>
      </trkpt>
      <trkpt lat="44.05311" lon="5.3296">
        <ele>698.9</ele>
        <time>2021-05-31T08:30:37.000Z</time>
      </trkpt>
      <trkpt lat="44.05297" lon="5.32968">
        <ele>699.1</ele>
        <time>2021-05-31T08:30:39.000Z</time>
      </trkpt>
      <trkpt lat="44.05289" lon="5.32981">
        <ele>699.2</ele>
        <time>2021-05-31T08:30:40.000Z</time>
      </trkpt>
      <trkpt lat="44.05285" lon="5.32995">
        <ele>699.3</ele>
        <time>2021-05-31T08:30:41.000Z</time>
      </trkpt>
      <trkpt lat="44.05283" lon="5.33039">
        <ele>699.5</ele>
        <time>2021-05-31T08:30:44.000Z</time>
      </trkpt>
      <trkpt lat="44.0528" lon="5.33052">
        <ele>699.8</ele>
        <time>2021-05-31T08:30:45.000Z</time>
      </trkpt>
      <trkpt lat="44.05272" lon="5.33062">
        <ele>700.1</ele>
        <time>2021-05-31T08:30:47.000Z</time>
      </trkpt>
      <trkpt lat="44.05253" lon="5.33079">
        <ele>700.4</ele>
        <time>2021-05-31T08:30:49.000Z</time>
      </trkpt>
      <trkpt lat="44.05233" lon="5.33096">
        <ele>700.6</ele>
        <time>2021-05-31T08:30:52.000Z</time>
      </trkpt>
      <trkpt lat="44.05209" lon="5.33112">
        <ele>701</ele>
        <time>2021-05-31T08:30:55.000Z</time>
      </trkpt>
      <trkpt lat="44.05184" lon="5.33128">
        <ele>701.8</ele>
        <time>2021-05-31T08:30:58.000Z</time>
      </trkpt>
      <trkpt lat="44.05175" lon="5.33138">
        <ele>703.2</ele>
        <time>2021-05-31T08:31:01.000Z</time>
      </trkpt>
      <trkpt lat="44.05162" lon="5.33166">
        <ele>704.2</ele>
        <time>2021-05-31T08:31:05.000Z</time>
      </trkpt>
      <trkpt lat="44.05158" lon="5.33193">
        <ele>704.6</ele>
        <time>2021-05-31T08:31:07.000Z</time>
      </trkpt>
      <trkpt lat="44.05153" lon="5.33219">
        <ele>705.1</ele>
        <time>2021-05-31T08:31:09.000Z</time>
      </trkpt>
      <trkpt lat="44.05148" lon="5.33231">
        <ele>705.8</ele>
        <time>2021-05-31T08:31:11.000Z</time>
      </trkpt>
      <trkpt lat="44.05142" lon="5.3324">
        <ele>706.2</ele>
        <time>2021-05-31T08:31:12.000Z</time>
      </trkpt>
      <trkpt lat="44.0513" lon="5.33247">
        <ele>706.5</ele>
        <time>2021-05-31T08:31:14.000Z</time>
      </trkpt>
      <trkpt lat="44.05114" lon="5.33247">
        <ele>707</ele>
        <time>2021-05-31T08:31:16.000Z</time>
      </trkpt>
      <trkpt lat="44.05091" lon="5.33252">
        <ele>708.3</ele>
        <time>2021-05-31T08:31:20.000Z</time>
      </trkpt>
      <trkpt lat="44.05071" lon="5.33267">
        <ele>709.6</ele>
        <time>2021-05-31T08:31:23.000Z</time>
      </trkpt>
      <trkpt lat="44.05052" lon="5.33283">
        <ele>710.3</ele>
        <time>2021-05-31T08:31:26.000Z</time>
      </trkpt>
      <trkpt lat="44.05032" lon="5.33299">
        <ele>710.9</ele>
        <time>2021-05-31T08:31:29.000Z</time>
      </trkpt>
      <trkpt lat="44.05013" lon="5.33315">
        <ele>711.5</ele>
        <time>2021-05-31T08:31:32.000Z</time>
      </trkpt>
      <trkpt lat="44.04997" lon="5.33327">
        <ele>712.2</ele>
        <time>2021-05-31T08:31:34.000Z</time>
      </trkpt>
      <trkpt lat="44.04985" lon="5.33329">
        <ele>712.9</ele>
        <time>2021-05-31T08:31:36.000Z</time>
      </trkpt>
      <trkpt lat="44.04964" lon="5.33324">
        <ele>713.6</ele>
        <time>2021-05-31T08:31:39.000Z</time>
      </trkpt>
      <trkpt lat="44.04943" lon="5.33319">
        <ele>714.2</ele>
        <time>2021-05-31T08:31:42.000Z</time>
      </trkpt>
      <trkpt lat="44.04922" lon="5.33314">
        <ele>714.9</ele>
        <time>2021-05-31T08:31:44.000Z</time>
      </trkpt>
      <trkpt lat="44.04912" lon="5.33318">
        <ele>715.6</ele>
        <time>2021-05-31T08:31:46.000Z</time>
      </trkpt>
      <trkpt lat="44.04905" lon="5.33326">
        <ele>716.2</ele>
        <time>2021-05-31T08:31:48.000Z</time>
      </trkpt>
      <trkpt lat="44.04901" lon="5.33334">
        <ele>716.5</ele>
        <time>2021-05-31T08:31:49.000Z</time>
      </trkpt>
      <trkpt lat="44.04898" lon="5.33353">
        <ele>716.9</ele>
        <time>2021-05-31T08:31:50.000Z</time>
      </trkpt>
      <trkpt lat="44.049" lon="5.33376">
        <ele>717.7</ele>
        <time>2021-05-31T08:31:53.000Z</time>
      </trkpt>
      <trkpt lat="44.04902" lon="5.334">
        <ele>718.6</ele>
        <time>2021-05-31T08:31:56.000Z</time>
      </trkpt>
      <trkpt lat="44.04899" lon="5.33416">
        <ele>719.3</ele>
        <time>2021-05-31T08:31:58.000Z</time>
      </trkpt>
      <trkpt lat="44.04896" lon="5.33422">
        <ele>719.5</ele>
        <time>2021-05-31T08:31:58.000Z</time>
      </trkpt>
      <trkpt lat="44.04885" lon="5.3343">
        <ele>719.7</ele>
        <time>2021-05-31T08:32:00.000Z</time>
      </trkpt>
      <trkpt lat="44.04876" lon="5.3343">
        <ele>720</ele>
        <time>2021-05-31T08:32:01.000Z</time>
      </trkpt>
      <trkpt lat="44.04867" lon="5.33423">
        <ele>720.3</ele>
        <time>2021-05-31T08:32:02.000Z</time>
      </trkpt>
      <trkpt lat="44.0485" lon="5.33391">
        <ele>720.8</ele>
        <time>2021-05-31T08:32:05.000Z</time>
      </trkpt>
      <trkpt lat="44.04837" lon="5.33373">
        <ele>721.6</ele>
        <time>2021-05-31T08:32:08.000Z</time>
      </trkpt>
      <trkpt lat="44.04815" lon="5.33346">
        <ele>722.6</ele>
        <time>2021-05-31T08:32:12.000Z</time>
      </trkpt>
      <trkpt lat="44.04792" lon="5.3332">
        <ele>723.6</ele>
        <time>2021-05-31T08:32:16.000Z</time>
      </trkpt>
      <trkpt lat="44.04778" lon="5.33295">
        <ele>724.3</ele>
        <time>2021-05-31T08:32:19.000Z</time>
      </trkpt>
      <trkpt lat="44.04763" lon="5.33271">
        <ele>725.1</ele>
        <time>2021-05-31T08:32:22.000Z</time>
      </trkpt>
      <trkpt lat="44.04753" lon="5.33242">
        <ele>726.1</ele>
        <time>2021-05-31T08:32:25.000Z</time>
      </trkpt>
      <trkpt lat="44.04743" lon="5.33213">
        <ele>727</ele>
        <time>2021-05-31T08:32:28.000Z</time>
      </trkpt>
      <trkpt lat="44.04727" lon="5.33187">
        <ele>727.9</ele>
        <time>2021-05-31T08:32:31.000Z</time>
      </trkpt>
      <trkpt lat="44.0471" lon="5.33161">
        <ele>728.8</ele>
        <time>2021-05-31T08:32:35.000Z</time>
      </trkpt>
      <trkpt lat="44.04705" lon="5.33156">
        <ele>729.1</ele>
        <time>2021-05-31T08:32:35.000Z</time>
      </trkpt>
      <trkpt lat="44.04695" lon="5.3315">
        <ele>729.4</ele>
        <time>2021-05-31T08:32:37.000Z</time>
      </trkpt>
      <trkpt lat="44.04672" lon="5.33142">
        <ele>730.3</ele>
        <time>2021-05-31T08:32:40.000Z</time>
      </trkpt>
      <trkpt lat="44.04647" lon="5.33155">
        <ele>730.8</ele>
        <time>2021-05-31T08:32:43.000Z</time>
      </trkpt>
      <trkpt lat="44.04621" lon="5.33168">
        <ele>731.2</ele>
        <time>2021-05-31T08:32:46.000Z</time>
      </trkpt>
      <trkpt lat="44.0461" lon="5.33176">
        <ele>731.5</ele>
        <time>2021-05-31T08:32:47.000Z</time>
      </trkpt>
      <trkpt lat="44.04606" lon="5.33185">
        <ele>731.6</ele>
        <time>2021-05-31T08:32:48.000Z</time>
      </trkpt>
      <trkpt lat="44.04604" lon="5.33202">
        <ele>731.7</ele>
        <time>2021-05-31T08:32:50.000Z</time>
      </trkpt>
      <trkpt lat="44.04612" lon="5.33242">
        <ele>731.6</ele>
        <time>2021-05-31T08:32:53.000Z</time>
      </trkpt>
      <trkpt lat="44.04619" lon="5.33282">
        <ele>731.4</ele>
        <time>2021-05-31T08:32:55.000Z</time>
      </trkpt>
      <trkpt lat="44.04627" lon="5.33322">
        <ele>731.3</ele>
        <time>2021-05-31T08:32:58.000Z</time>
      </trkpt>
      <trkpt lat="44.04631" lon="5.33359">
        <ele>731.2</ele>
        <time>2021-05-31T08:33:01.000Z</time>
      </trkpt>
      <trkpt lat="44.04627" lon="5.33382">
        <ele>731.1</ele>
        <time>2021-05-31T08:33:02.000Z</time>
      </trkpt>
      <trkpt lat="44.04619" lon="5.33401">
        <ele>731.1</ele>
        <time>2021-05-31T08:33:04.000Z</time>
      </trkpt>
      <trkpt lat="44.04601" lon="5.33427">
        <ele>731.3</ele>
        <time>2021-05-31T08:33:07.000Z</time>
      </trkpt>
      <trkpt lat="44.04583" lon="5.33453">
        <ele>731.4</ele>
        <time>2021-05-31T08:33:09.000Z</time>
      </trkpt>
      <trkpt lat="44.0458" lon="5.33473">
        <ele>731.5</ele>
        <time>2021-05-31T08:33:11.000Z</time>
      </trkpt>
      <trkpt lat="44.04584" lon="5.33491">
        <ele>731.5</ele>
        <time>2021-05-31T08:33:12.000Z</time>
      </trkpt>
      <trkpt lat="44.04592" lon="5.33506">
        <ele>731.5</ele>
        <time>2021-05-31T08:33:14.000Z</time>
      </trkpt>
      <trkpt lat="44.04617" lon="5.33541">
        <ele>731.4</ele>
        <time>2021-05-31T08:33:17.000Z</time>
      </trkpt>
      <trkpt lat="44.04631" lon="5.33567">
        <ele>731.5</ele>
        <time>2021-05-31T08:33:19.000Z</time>
      </trkpt>
      <trkpt lat="44.04646" lon="5.33594">
        <ele>731.5</ele>
        <time>2021-05-31T08:33:22.000Z</time>
      </trkpt>
      <trkpt lat="44.0466" lon="5.3362">
        <ele>731.6</ele>
        <time>2021-05-31T08:33:24.000Z</time>
      </trkpt>
      <trkpt lat="44.04674" lon="5.33647">
        <ele>732</ele>
        <time>2021-05-31T08:33:27.000Z</time>
      </trkpt>
      <trkpt lat="44.04689" lon="5.33673">
        <ele>732.5</ele>
        <time>2021-05-31T08:33:30.000Z</time>
      </trkpt>
      <trkpt lat="44.04703" lon="5.337">
        <ele>732.9</ele>
        <time>2021-05-31T08:33:32.000Z</time>
      </trkpt>
      <trkpt lat="44.04713" lon="5.33725">
        <ele>733.3</ele>
        <time>2021-05-31T08:33:35.000Z</time>
      </trkpt>
      <trkpt lat="44.04721" lon="5.33756">
        <ele>733.7</ele>
        <time>2021-05-31T08:33:37.000Z</time>
      </trkpt>
      <trkpt lat="44.04726" lon="5.33787">
        <ele>734</ele>
        <time>2021-05-31T08:33:40.000Z</time>
      </trkpt>
      <trkpt lat="44.04731" lon="5.33817">
        <ele>734.4</ele>
        <time>2021-05-31T08:33:42.000Z</time>
      </trkpt>
      <trkpt lat="44.04736" lon="5.33848">
        <ele>734.7</ele>
        <time>2021-05-31T08:33:45.000Z</time>
      </trkpt>
      <trkpt lat="44.04747" lon="5.33879">
        <ele>734.5</ele>
        <time>2021-05-31T08:33:47.000Z</time>
      </trkpt>
      <trkpt lat="44.04758" lon="5.33911">
        <ele>734.3</ele>
        <time>2021-05-31T08:33:50.000Z</time>
      </trkpt>
      <trkpt lat="44.04761" lon="5.33932">
        <ele>733.7</ele>
        <time>2021-05-31T08:33:51.000Z</time>
      </trkpt>
      <trkpt lat="44.0476" lon="5.33947">
        <ele>733.5</ele>
        <time>2021-05-31T08:33:52.000Z</time>
      </trkpt>
      <trkpt lat="44.04756" lon="5.33961">
        <ele>733.4</ele>
        <time>2021-05-31T08:33:53.000Z</time>
      </trkpt>
      <trkpt lat="44.04746" lon="5.3398">
        <ele>732.8</ele>
        <time>2021-05-31T08:33:54.000Z</time>
      </trkpt>
      <trkpt lat="44.04728" lon="5.34007">
        <ele>732.3</ele>
        <time>2021-05-31T08:33:56.000Z</time>
      </trkpt>
      <trkpt lat="44.04711" lon="5.34034">
        <ele>731.8</ele>
        <time>2021-05-31T08:33:59.000Z</time>
      </trkpt>
      <trkpt lat="44.04693" lon="5.34061">
        <ele>731.3</ele>
        <time>2021-05-31T08:34:01.000Z</time>
      </trkpt>
      <trkpt lat="44.04689" lon="5.34075">
        <ele>731</ele>
        <time>2021-05-31T08:34:02.000Z</time>
      </trkpt>
      <trkpt lat="44.04688" lon="5.34092">
        <ele>730.4</ele>
        <time>2021-05-31T08:34:03.000Z</time>
      </trkpt>
      <trkpt lat="44.04694" lon="5.34111">
        <ele>729.8</ele>
        <time>2021-05-31T08:34:04.000Z</time>
      </trkpt>
      <trkpt lat="44.04715" lon="5.34137">
        <ele>728.5</ele>
        <time>2021-05-31T08:34:06.000Z</time>
      </trkpt>
      <trkpt lat="44.04739" lon="5.34154">
        <ele>727.6</ele>
        <time>2021-05-31T08:34:08.000Z</time>
      </trkpt>
      <trkpt lat="44.04763" lon="5.34171">
        <ele>726.7</ele>
        <time>2021-05-31T08:34:11.000Z</time>
      </trkpt>
      <trkpt lat="44.04787" lon="5.34188">
        <ele>725.9</ele>
        <time>2021-05-31T08:34:13.000Z</time>
      </trkpt>
      <trkpt lat="44.04801" lon="5.34195">
        <ele>725.5</ele>
        <time>2021-05-31T08:34:14.000Z</time>
      </trkpt>
      <trkpt lat="44.04828" lon="5.34204">
        <ele>724.3</ele>
        <time>2021-05-31T08:34:16.000Z</time>
      </trkpt>
      <trkpt lat="44.04854" lon="5.34205">
        <ele>723.3</ele>
        <time>2021-05-31T08:34:18.000Z</time>
      </trkpt>
      <trkpt lat="44.0488" lon="5.34207">
        <ele>722.2</ele>
        <time>2021-05-31T08:34:20.000Z</time>
      </trkpt>
      <trkpt lat="44.04893" lon="5.34209">
        <ele>721.9</ele>
        <time>2021-05-31T08:34:22.000Z</time>
      </trkpt>
      <trkpt lat="44.04905" lon="5.34213">
        <ele>721.7</ele>
        <time>2021-05-31T08:34:23.000Z</time>
      </trkpt>
      <trkpt lat="44.04917" lon="5.34221">
        <ele>721.3</ele>
        <time>2021-05-31T08:34:24.000Z</time>
      </trkpt>
      <trkpt lat="44.04927" lon="5.34231">
        <ele>720.7</ele>
        <time>2021-05-31T08:34:25.000Z</time>
      </trkpt>
      <trkpt lat="44.0495" lon="5.34259">
        <ele>719.7</ele>
        <time>2021-05-31T08:34:27.000Z</time>
      </trkpt>
      <trkpt lat="44.04972" lon="5.34288">
        <ele>718.7</ele>
        <time>2021-05-31T08:34:30.000Z</time>
      </trkpt>
      <trkpt lat="44.0499" lon="5.34307">
        <ele>718.2</ele>
        <time>2021-05-31T08:34:32.000Z</time>
      </trkpt>
      <trkpt lat="44.05024" lon="5.34317">
        <ele>716.3</ele>
        <time>2021-05-31T08:34:34.000Z</time>
      </trkpt>
      <trkpt lat="44.05034" lon="5.34324">
        <ele>716.1</ele>
        <time>2021-05-31T08:34:35.000Z</time>
      </trkpt>
      <trkpt lat="44.05043" lon="5.34334">
        <ele>715.9</ele>
        <time>2021-05-31T08:34:36.000Z</time>
      </trkpt>
      <trkpt lat="44.05065" lon="5.34382">
        <ele>714.6</ele>
        <time>2021-05-31T08:34:40.000Z</time>
      </trkpt>
      <trkpt lat="44.05081" lon="5.34401">
        <ele>713.9</ele>
        <time>2021-05-31T08:34:41.000Z</time>
      </trkpt>
      <trkpt lat="44.05102" lon="5.34411">
        <ele>712.6</ele>
        <time>2021-05-31T08:34:43.000Z</time>
      </trkpt>
      <trkpt lat="44.05115" lon="5.34414">
        <ele>711.8</ele>
        <time>2021-05-31T08:34:44.000Z</time>
      </trkpt>
      <trkpt lat="44.05148" lon="5.34415">
        <ele>710.8</ele>
        <time>2021-05-31T08:34:47.000Z</time>
      </trkpt>
      <trkpt lat="44.0516" lon="5.34418">
        <ele>710.7</ele>
        <time>2021-05-31T08:34:48.000Z</time>
      </trkpt>
      <trkpt lat="44.05172" lon="5.34424">
        <ele>710.5</ele>
        <time>2021-05-31T08:34:49.000Z</time>
      </trkpt>
      <trkpt lat="44.05183" lon="5.34432">
        <ele>710.1</ele>
        <time>2021-05-31T08:34:50.000Z</time>
      </trkpt>
      <trkpt lat="44.05193" lon="5.34442">
        <ele>709.9</ele>
        <time>2021-05-31T08:34:51.000Z</time>
      </trkpt>
      <trkpt lat="44.05202" lon="5.34454">
        <ele>709.8</ele>
        <time>2021-05-31T08:34:52.000Z</time>
      </trkpt>
      <trkpt lat="44.05208" lon="5.34466">
        <ele>709.5</ele>
        <time>2021-05-31T08:34:53.000Z</time>
      </trkpt>
      <trkpt lat="44.0521" lon="5.34493">
        <ele>708.9</ele>
        <time>2021-05-31T08:34:55.000Z</time>
      </trkpt>
      <trkpt lat="44.05205" lon="5.34504">
        <ele>708.3</ele>
        <time>2021-05-31T08:34:55.000Z</time>
      </trkpt>
      <trkpt lat="44.05186" lon="5.34533">
        <ele>707.3</ele>
        <time>2021-05-31T08:34:58.000Z</time>
      </trkpt>
      <trkpt lat="44.0518" lon="5.34545">
        <ele>706.7</ele>
        <time>2021-05-31T08:34:58.000Z</time>
      </trkpt>
      <trkpt lat="44.05172" lon="5.34575">
        <ele>705.9</ele>
        <time>2021-05-31T08:35:00.000Z</time>
      </trkpt>
      <trkpt lat="44.05171" lon="5.34609">
        <ele>704.7</ele>
        <time>2021-05-31T08:35:02.000Z</time>
      </trkpt>
      <trkpt lat="44.05178" lon="5.34638">
        <ele>704</ele>
        <time>2021-05-31T08:35:04.000Z</time>
      </trkpt>
      <trkpt lat="44.05184" lon="5.34649">
        <ele>703.5</ele>
        <time>2021-05-31T08:35:05.000Z</time>
      </trkpt>
      <trkpt lat="44.05192" lon="5.34659">
        <ele>703</ele>
        <time>2021-05-31T08:35:06.000Z</time>
      </trkpt>
      <trkpt lat="44.05213" lon="5.34675">
        <ele>702.3</ele>
        <time>2021-05-31T08:35:08.000Z</time>
      </trkpt>
      <trkpt lat="44.05249" lon="5.34697">
        <ele>701.2</ele>
        <time>2021-05-31T08:35:11.000Z</time>
      </trkpt>
      <trkpt lat="44.05272" lon="5.34709">
        <ele>700.3</ele>
        <time>2021-05-31T08:35:13.000Z</time>
      </trkpt>
      <trkpt lat="44.05295" lon="5.34722">
        <ele>699.4</ele>
        <time>2021-05-31T08:35:15.000Z</time>
      </trkpt>
      <trkpt lat="44.05304" lon="5.34731">
        <ele>699</ele>
        <time>2021-05-31T08:35:16.000Z</time>
      </trkpt>
      <trkpt lat="44.0531" lon="5.34742">
        <ele>698.5</ele>
        <time>2021-05-31T08:35:16.000Z</time>
      </trkpt>
      <trkpt lat="44.05314" lon="5.34756">
        <ele>697.7</ele>
        <time>2021-05-31T08:35:17.000Z</time>
      </trkpt>
      <trkpt lat="44.05319" lon="5.34786">
        <ele>697.1</ele>
        <time>2021-05-31T08:35:19.000Z</time>
      </trkpt>
      <trkpt lat="44.05324" lon="5.34816">
        <ele>696.6</ele>
        <time>2021-05-31T08:35:21.000Z</time>
      </trkpt>
      <trkpt lat="44.05333" lon="5.34847">
        <ele>696</ele>
        <time>2021-05-31T08:35:23.000Z</time>
      </trkpt>
      <trkpt lat="44.05342" lon="5.34878">
        <ele>695.4</ele>
        <time>2021-05-31T08:35:25.000Z</time>
      </trkpt>
      <trkpt lat="44.05351" lon="5.34909">
        <ele>694.8</ele>
        <time>2021-05-31T08:35:27.000Z</time>
      </trkpt>
      <trkpt lat="44.05359" lon="5.3493">
        <ele>694.4</ele>
        <time>2021-05-31T08:35:29.000Z</time>
      </trkpt>
      <trkpt lat="44.05372" lon="5.34953">
        <ele>693.4</ele>
        <time>2021-05-31T08:35:30.000Z</time>
      </trkpt>
      <trkpt lat="44.05389" lon="5.34973">
        <ele>692.8</ele>
        <time>2021-05-31T08:35:32.000Z</time>
      </trkpt>
      <trkpt lat="44.05419" lon="5.34996">
        <ele>692</ele>
        <time>2021-05-31T08:35:35.000Z</time>
      </trkpt>
      <trkpt lat="44.05443" lon="5.35026">
        <ele>691.5</ele>
        <time>2021-05-31T08:35:38.000Z</time>
      </trkpt>
      <trkpt lat="44.05466" lon="5.35057">
        <ele>691</ele>
        <time>2021-05-31T08:35:41.000Z</time>
      </trkpt>
      <trkpt lat="44.05491" lon="5.35086">
        <ele>690</ele>
        <time>2021-05-31T08:35:44.000Z</time>
      </trkpt>
      <trkpt lat="44.0551" lon="5.35099">
        <ele>689.3</ele>
        <time>2021-05-31T08:35:45.000Z</time>
      </trkpt>
      <trkpt lat="44.05524" lon="5.35105">
        <ele>689</ele>
        <time>2021-05-31T08:35:47.000Z</time>
      </trkpt>
      <trkpt lat="44.05537" lon="5.3511">
        <ele>688.6</ele>
        <time>2021-05-31T08:35:48.000Z</time>
      </trkpt>
      <trkpt lat="44.05556" lon="5.35112">
        <ele>688.1</ele>
        <time>2021-05-31T08:35:49.000Z</time>
      </trkpt>
      <trkpt lat="44.05565" lon="5.35116">
        <ele>687.9</ele>
        <time>2021-05-31T08:35:50.000Z</time>
      </trkpt>
      <trkpt lat="44.05573" lon="5.35124">
        <ele>687.5</ele>
        <time>2021-05-31T08:35:51.000Z</time>
      </trkpt>
      <trkpt lat="44.05578" lon="5.35134">
        <ele>687.1</ele>
        <time>2021-05-31T08:35:52.000Z</time>
      </trkpt>
      <trkpt lat="44.05587" lon="5.35183">
        <ele>686</ele>
        <time>2021-05-31T08:35:55.000Z</time>
      </trkpt>
      <trkpt lat="44.05595" lon="5.35204">
        <ele>685.2</ele>
        <time>2021-05-31T08:35:56.000Z</time>
      </trkpt>
      <trkpt lat="44.05621" lon="5.35241">
        <ele>683.8</ele>
        <time>2021-05-31T08:35:59.000Z</time>
      </trkpt>
      <trkpt lat="44.05642" lon="5.35259">
        <ele>682.6</ele>
        <time>2021-05-31T08:36:01.000Z</time>
      </trkpt>
      <trkpt lat="44.05662" lon="5.35278">
        <ele>681.6</ele>
        <time>2021-05-31T08:36:03.000Z</time>
      </trkpt>
      <trkpt lat="44.05672" lon="5.35282">
        <ele>681.3</ele>
        <time>2021-05-31T08:36:04.000Z</time>
      </trkpt>
      <trkpt lat="44.05685" lon="5.35284">
        <ele>681.1</ele>
        <time>2021-05-31T08:36:05.000Z</time>
      </trkpt>
      <trkpt lat="44.05709" lon="5.35281">
        <ele>679.9</ele>
        <time>2021-05-31T08:36:07.000Z</time>
      </trkpt>
      <trkpt lat="44.05733" lon="5.35277">
        <ele>678.6</ele>
        <time>2021-05-31T08:36:08.000Z</time>
      </trkpt>
      <trkpt lat="44.05744" lon="5.35277">
        <ele>678.1</ele>
        <time>2021-05-31T08:36:09.000Z</time>
      </trkpt>
      <trkpt lat="44.05762" lon="5.3528">
        <ele>677.4</ele>
        <time>2021-05-31T08:36:11.000Z</time>
      </trkpt>
      <trkpt lat="44.0577" lon="5.35286">
        <ele>677.1</ele>
        <time>2021-05-31T08:36:11.000Z</time>
      </trkpt>
      <trkpt lat="44.05782" lon="5.35301">
        <ele>676.8</ele>
        <time>2021-05-31T08:36:13.000Z</time>
      </trkpt>
      <trkpt lat="44.05793" lon="5.35311">
        <ele>676.5</ele>
        <time>2021-05-31T08:36:14.000Z</time>
      </trkpt>
      <trkpt lat="44.05817" lon="5.35318">
        <ele>675.7</ele>
        <time>2021-05-31T08:36:16.000Z</time>
      </trkpt>
      <trkpt lat="44.05846" lon="5.35321">
        <ele>675.1</ele>
        <time>2021-05-31T08:36:19.000Z</time>
      </trkpt>
      <trkpt lat="44.05875" lon="5.35324">
        <ele>674.5</ele>
        <time>2021-05-31T08:36:21.000Z</time>
      </trkpt>
      <trkpt lat="44.05895" lon="5.35332">
        <ele>673.6</ele>
        <time>2021-05-31T08:36:23.000Z</time>
      </trkpt>
      <trkpt lat="44.05915" lon="5.35343">
        <ele>673.3</ele>
        <time>2021-05-31T08:36:25.000Z</time>
      </trkpt>
      <trkpt lat="44.05928" lon="5.35356">
        <ele>673.1</ele>
        <time>2021-05-31T08:36:26.000Z</time>
      </trkpt>
      <trkpt lat="44.05944" lon="5.35379">
        <ele>672.2</ele>
        <time>2021-05-31T08:36:28.000Z</time>
      </trkpt>
      <trkpt lat="44.0596" lon="5.35402">
        <ele>671.2</ele>
        <time>2021-05-31T08:36:30.000Z</time>
      </trkpt>
      <trkpt lat="44.05975" lon="5.35425">
        <ele>670.3</ele>
        <time>2021-05-31T08:36:31.000Z</time>
      </trkpt>
      <trkpt lat="44.05991" lon="5.35448">
        <ele>669.4</ele>
        <time>2021-05-31T08:36:33.000Z</time>
      </trkpt>
      <trkpt lat="44.06005" lon="5.35461">
        <ele>668.5</ele>
        <time>2021-05-31T08:36:34.000Z</time>
      </trkpt>
      <trkpt lat="44.0603" lon="5.35478">
        <ele>667.8</ele>
        <time>2021-05-31T08:36:37.000Z</time>
      </trkpt>
      <trkpt lat="44.06054" lon="5.35495">
        <ele>667.2</ele>
        <time>2021-05-31T08:36:39.000Z</time>
      </trkpt>
      <trkpt lat="44.06079" lon="5.35513">
        <ele>666.1</ele>
        <time>2021-05-31T08:36:41.000Z</time>
      </trkpt>
      <trkpt lat="44.06104" lon="5.35532">
        <ele>665</ele>
        <time>2021-05-31T08:36:44.000Z</time>
      </trkpt>
      <trkpt lat="44.0612" lon="5.3555">
        <ele>664.3</ele>
        <time>2021-05-31T08:36:45.000Z</time>
      </trkpt>
      <trkpt lat="44.06137" lon="5.35572">
        <ele>663.5</ele>
        <time>2021-05-31T08:36:47.000Z</time>
      </trkpt>
      <trkpt lat="44.06154" lon="5.35594">
        <ele>662.7</ele>
        <time>2021-05-31T08:36:49.000Z</time>
      </trkpt>
      <trkpt lat="44.06174" lon="5.35617">
        <ele>661.6</ele>
        <time>2021-05-31T08:36:51.000Z</time>
      </trkpt>
      <trkpt lat="44.06194" lon="5.3564">
        <ele>660.6</ele>
        <time>2021-05-31T08:36:53.000Z</time>
      </trkpt>
      <trkpt lat="44.06213" lon="5.35655">
        <ele>659.7</ele>
        <time>2021-05-31T08:36:55.000Z</time>
      </trkpt>
      <trkpt lat="44.06234" lon="5.35665">
        <ele>658.9</ele>
        <time>2021-05-31T08:36:57.000Z</time>
      </trkpt>
      <trkpt lat="44.0626" lon="5.35669">
        <ele>658.3</ele>
        <time>2021-05-31T08:36:59.000Z</time>
      </trkpt>
      <trkpt lat="44.06285" lon="5.35674">
        <ele>657.7</ele>
        <time>2021-05-31T08:37:01.000Z</time>
      </trkpt>
      <trkpt lat="44.06309" lon="5.35676">
        <ele>657.4</ele>
        <time>2021-05-31T08:37:03.000Z</time>
      </trkpt>
      <trkpt lat="44.06333" lon="5.35678">
        <ele>657.2</ele>
        <time>2021-05-31T08:37:06.000Z</time>
      </trkpt>
      <trkpt lat="44.06357" lon="5.3568">
        <ele>656.7</ele>
        <time>2021-05-31T08:37:08.000Z</time>
      </trkpt>
      <trkpt lat="44.06381" lon="5.35682">
        <ele>656.1</ele>
        <time>2021-05-31T08:37:10.000Z</time>
      </trkpt>
      <trkpt lat="44.06422" lon="5.35688">
        <ele>654.2</ele>
        <time>2021-05-31T08:37:13.000Z</time>
      </trkpt>
      <trkpt lat="44.06446" lon="5.35698">
        <ele>653.7</ele>
        <time>2021-05-31T08:37:15.000Z</time>
      </trkpt>
      <trkpt lat="44.06466" lon="5.35713">
        <ele>653</ele>
        <time>2021-05-31T08:37:17.000Z</time>
      </trkpt>
      <trkpt lat="44.06493" lon="5.35738">
        <ele>652.1</ele>
        <time>2021-05-31T08:37:20.000Z</time>
      </trkpt>
      <trkpt lat="44.0652" lon="5.35764">
        <ele>651.3</ele>
        <time>2021-05-31T08:37:23.000Z</time>
      </trkpt>
      <trkpt lat="44.06545" lon="5.35787">
        <ele>650.3</ele>
        <time>2021-05-31T08:37:25.000Z</time>
      </trkpt>
      <trkpt lat="44.06569" lon="5.35809">
        <ele>649.3</ele>
        <time>2021-05-31T08:37:27.000Z</time>
      </trkpt>
      <trkpt lat="44.06594" lon="5.35832">
        <ele>648.3</ele>
        <time>2021-05-31T08:37:30.000Z</time>
      </trkpt>
      <trkpt lat="44.06615" lon="5.35858">
        <ele>647.4</ele>
        <time>2021-05-31T08:37:32.000Z</time>
      </trkpt>
      <trkpt lat="44.06633" lon="5.35884">
        <ele>646.6</ele>
        <time>2021-05-31T08:37:34.000Z</time>
      </trkpt>
      <trkpt lat="44.06652" lon="5.35909">
        <ele>645.8</ele>
        <time>2021-05-31T08:37:37.000Z</time>
      </trkpt>
      <trkpt lat="44.0667" lon="5.35935">
        <ele>645</ele>
        <time>2021-05-31T08:37:39.000Z</time>
      </trkpt>
      <trkpt lat="44.06694" lon="5.35971">
        <ele>643.6</ele>
        <time>2021-05-31T08:37:42.000Z</time>
      </trkpt>
      <trkpt lat="44.06718" lon="5.36008">
        <ele>642.2</ele>
        <time>2021-05-31T08:37:44.000Z</time>
      </trkpt>
      <trkpt lat="44.06738" lon="5.36033">
        <ele>641.4</ele>
        <time>2021-05-31T08:37:47.000Z</time>
      </trkpt>
      <trkpt lat="44.06768" lon="5.36067">
        <ele>640.1</ele>
        <time>2021-05-31T08:37:50.000Z</time>
      </trkpt>
      <trkpt lat="44.06793" lon="5.36092">
        <ele>639.1</ele>
        <time>2021-05-31T08:37:52.000Z</time>
      </trkpt>
      <trkpt lat="44.06818" lon="5.36118">
        <ele>638.2</ele>
        <time>2021-05-31T08:37:55.000Z</time>
      </trkpt>
      <trkpt lat="44.06843" lon="5.36143">
        <ele>637.8</ele>
        <time>2021-05-31T08:37:58.000Z</time>
      </trkpt>
      <trkpt lat="44.06868" lon="5.36168">
        <ele>637.5</ele>
        <time>2021-05-31T08:38:01.000Z</time>
      </trkpt>
      <trkpt lat="44.06893" lon="5.36194">
        <ele>637.1</ele>
        <time>2021-05-31T08:38:03.000Z</time>
      </trkpt>
      <trkpt lat="44.06918" lon="5.36219">
        <ele>636.8</ele>
        <time>2021-05-31T08:38:06.000Z</time>
      </trkpt>
      <trkpt lat="44.06938" lon="5.36244">
        <ele>636.6</ele>
        <time>2021-05-31T08:38:09.000Z</time>
      </trkpt>
      <trkpt lat="44.06957" lon="5.36269">
        <ele>636.5</ele>
        <time>2021-05-31T08:38:11.000Z</time>
      </trkpt>
      <trkpt lat="44.06977" lon="5.36295">
        <ele>636.3</ele>
        <time>2021-05-31T08:38:14.000Z</time>
      </trkpt>
      <trkpt lat="44.06997" lon="5.3632">
        <ele>636.5</ele>
        <time>2021-05-31T08:38:17.000Z</time>
      </trkpt>
      <trkpt lat="44.07016" lon="5.36345">
        <ele>636.8</ele>
        <time>2021-05-31T08:38:20.000Z</time>
      </trkpt>
      <trkpt lat="44.07036" lon="5.3637">
        <ele>637.1</ele>
        <time>2021-05-31T08:38:23.000Z</time>
      </trkpt>
      <trkpt lat="44.07056" lon="5.36396">
        <ele>637.4</ele>
        <time>2021-05-31T08:38:25.000Z</time>
      </trkpt>
      <trkpt lat="44.07075" lon="5.36421">
        <ele>637.8</ele>
        <time>2021-05-31T08:38:28.000Z</time>
      </trkpt>
      <trkpt lat="44.07095" lon="5.36446">
        <ele>638.1</ele>
        <time>2021-05-31T08:38:31.000Z</time>
      </trkpt>
      <trkpt lat="44.07112" lon="5.36469">
        <ele>638.3</ele>
        <time>2021-05-31T08:38:34.000Z</time>
      </trkpt>
      <trkpt lat="44.07129" lon="5.36493">
        <ele>638.4</ele>
        <time>2021-05-31T08:38:36.000Z</time>
      </trkpt>
      <trkpt lat="44.07146" lon="5.36516">
        <ele>638.6</ele>
        <time>2021-05-31T08:38:39.000Z</time>
      </trkpt>
      <trkpt lat="44.07163" lon="5.36536">
        <ele>638.8</ele>
        <time>2021-05-31T08:38:41.000Z</time>
      </trkpt>
      <trkpt lat="44.07181" lon="5.36557">
        <ele>639</ele>
        <time>2021-05-31T08:38:44.000Z</time>
      </trkpt>
      <trkpt lat="44.07198" lon="5.36577">
        <ele>639.3</ele>
        <time>2021-05-31T08:38:46.000Z</time>
      </trkpt>
      <trkpt lat="44.07215" lon="5.36598">
        <ele>639.7</ele>
        <time>2021-05-31T08:38:49.000Z</time>
      </trkpt>
      <trkpt lat="44.07233" lon="5.36618">
        <ele>640.1</ele>
        <time>2021-05-31T08:38:51.000Z</time>
      </trkpt>
      <trkpt lat="44.0725" lon="5.36639">
        <ele>640.5</ele>
        <time>2021-05-31T08:38:54.000Z</time>
      </trkpt>
      <trkpt lat="44.07267" lon="5.36659">
        <ele>640.9</ele>
        <time>2021-05-31T08:38:56.000Z</time>
      </trkpt>
      <trkpt lat="44.07285" lon="5.3668">
        <ele>641.2</ele>
        <time>2021-05-31T08:38:59.000Z</time>
      </trkpt>
      <trkpt lat="44.07302" lon="5.367">
        <ele>641.6</ele>
        <time>2021-05-31T08:39:02.000Z</time>
      </trkpt>
      <trkpt lat="44.07319" lon="5.36721">
        <ele>641.7</ele>
        <time>2021-05-31T08:39:04.000Z</time>
      </trkpt>
      <trkpt lat="44.07337" lon="5.36741">
        <ele>641.9</ele>
        <time>2021-05-31T08:39:06.000Z</time>
      </trkpt>
      <trkpt lat="44.07354" lon="5.36762">
        <ele>642</ele>
        <time>2021-05-31T08:39:09.000Z</time>
      </trkpt>
      <trkpt lat="44.07372" lon="5.36788">
        <ele>641.9</ele>
        <time>2021-05-31T08:39:11.000Z</time>
      </trkpt>
      <trkpt lat="44.07391" lon="5.36814">
        <ele>641.9</ele>
        <time>2021-05-31T08:39:14.000Z</time>
      </trkpt>
      <trkpt lat="44.07409" lon="5.3684">
        <ele>642.1</ele>
        <time>2021-05-31T08:39:16.000Z</time>
      </trkpt>
      <trkpt lat="44.07427" lon="5.36866">
        <ele>642.3</ele>
        <time>2021-05-31T08:39:19.000Z</time>
      </trkpt>
      <trkpt lat="44.07448" lon="5.36898">
        <ele>642.5</ele>
        <time>2021-05-31T08:39:22.000Z</time>
      </trkpt>
      <trkpt lat="44.07469" lon="5.36931">
        <ele>642.8</ele>
        <time>2021-05-31T08:39:26.000Z</time>
      </trkpt>
      <trkpt lat="44.07489" lon="5.36965">
        <ele>643.2</ele>
        <time>2021-05-31T08:39:29.000Z</time>
      </trkpt>
      <trkpt lat="44.07503" lon="5.36993">
        <ele>643.6</ele>
        <time>2021-05-31T08:39:32.000Z</time>
      </trkpt>
      <trkpt lat="44.07516" lon="5.37022">
        <ele>643.9</ele>
        <time>2021-05-31T08:39:35.000Z</time>
      </trkpt>
      <trkpt lat="44.07528" lon="5.37039">
        <ele>644.2</ele>
        <time>2021-05-31T08:39:37.000Z</time>
      </trkpt>
      <trkpt lat="44.07546" lon="5.37059">
        <ele>644.9</ele>
        <time>2021-05-31T08:39:39.000Z</time>
      </trkpt>
      <trkpt lat="44.07576" lon="5.3708">
        <ele>646.2</ele>
        <time>2021-05-31T08:39:44.000Z</time>
      </trkpt>
      <trkpt lat="44.07602" lon="5.37095">
        <ele>647.1</ele>
        <time>2021-05-31T08:39:47.000Z</time>
      </trkpt>
      <trkpt lat="44.07627" lon="5.3711">
        <ele>647.9</ele>
        <time>2021-05-31T08:39:51.000Z</time>
      </trkpt>
      <trkpt lat="44.07653" lon="5.37125">
        <ele>648.4</ele>
        <time>2021-05-31T08:39:54.000Z</time>
      </trkpt>
      <trkpt lat="44.07678" lon="5.3714">
        <ele>648.9</ele>
        <time>2021-05-31T08:39:57.000Z</time>
      </trkpt>
      <trkpt lat="44.07701" lon="5.3716">
        <ele>649.6</ele>
        <time>2021-05-31T08:40:00.000Z</time>
      </trkpt>
      <trkpt lat="44.07724" lon="5.37179">
        <ele>650.3</ele>
        <time>2021-05-31T08:40:04.000Z</time>
      </trkpt>
      <trkpt lat="44.07747" lon="5.37199">
        <ele>651.1</ele>
        <time>2021-05-31T08:40:07.000Z</time>
      </trkpt>
      <trkpt lat="44.0777" lon="5.37219">
        <ele>651.8</ele>
        <time>2021-05-31T08:40:10.000Z</time>
      </trkpt>
      <trkpt lat="44.07795" lon="5.37233">
        <ele>652.3</ele>
        <time>2021-05-31T08:40:13.000Z</time>
      </trkpt>
      <trkpt lat="44.07819" lon="5.37248">
        <ele>652.8</ele>
        <time>2021-05-31T08:40:16.000Z</time>
      </trkpt>
      <trkpt lat="44.07844" lon="5.37262">
        <ele>653.3</ele>
        <time>2021-05-31T08:40:19.000Z</time>
      </trkpt>
      <trkpt lat="44.07868" lon="5.37276">
        <ele>654.1</ele>
        <time>2021-05-31T08:40:23.000Z</time>
      </trkpt>
      <trkpt lat="44.07893" lon="5.37291">
        <ele>654.9</ele>
        <time>2021-05-31T08:40:26.000Z</time>
      </trkpt>
      <trkpt lat="44.07917" lon="5.37305">
        <ele>655.7</ele>
        <time>2021-05-31T08:40:29.000Z</time>
      </trkpt>
      <trkpt lat="44.07938" lon="5.37316">
        <ele>655.8</ele>
        <time>2021-05-31T08:40:32.000Z</time>
      </trkpt>
      <trkpt lat="44.07959" lon="5.37326">
        <ele>656</ele>
        <time>2021-05-31T08:40:34.000Z</time>
      </trkpt>
      <trkpt lat="44.0798" lon="5.37337">
        <ele>656.1</ele>
        <time>2021-05-31T08:40:36.000Z</time>
      </trkpt>
      <trkpt lat="44.0801" lon="5.37349">
        <ele>656.7</ele>
        <time>2021-05-31T08:40:40.000Z</time>
      </trkpt>
      <trkpt lat="44.0804" lon="5.37362">
        <ele>657.3</ele>
        <time>2021-05-31T08:40:43.000Z</time>
      </trkpt>
      <trkpt lat="44.08069" lon="5.37374">
        <ele>658</ele>
        <time>2021-05-31T08:40:47.000Z</time>
      </trkpt>
      <trkpt lat="44.08099" lon="5.37387">
        <ele>658.7</ele>
        <time>2021-05-31T08:40:51.000Z</time>
      </trkpt>
      <trkpt lat="44.08113" lon="5.37396">
        <ele>659.2</ele>
        <time>2021-05-31T08:40:53.000Z</time>
      </trkpt>
      <trkpt lat="44.08135" lon="5.37418">
        <ele>660.1</ele>
        <time>2021-05-31T08:40:56.000Z</time>
      </trkpt>
      <trkpt lat="44.08158" lon="5.3744">
        <ele>660.9</ele>
        <time>2021-05-31T08:41:00.000Z</time>
      </trkpt>
      <trkpt lat="44.0818" lon="5.37462">
        <ele>661.7</ele>
        <time>2021-05-31T08:41:03.000Z</time>
      </trkpt>
      <trkpt lat="44.08202" lon="5.37484">
        <ele>662.5</ele>
        <time>2021-05-31T08:41:06.000Z</time>
      </trkpt>
      <trkpt lat="44.08222" lon="5.37515">
        <ele>663.3</ele>
        <time>2021-05-31T08:41:10.000Z</time>
      </trkpt>
      <trkpt lat="44.08243" lon="5.37542">
        <ele>663.8</ele>
        <time>2021-05-31T08:41:13.000Z</time>
      </trkpt>
      <trkpt lat="44.08274" lon="5.37573">
        <ele>664.4</ele>
        <time>2021-05-31T08:41:17.000Z</time>
      </trkpt>
      <trkpt lat="44.08293" lon="5.37591">
        <ele>664.9</ele>
        <time>2021-05-31T08:41:20.000Z</time>
      </trkpt>
      <trkpt lat="44.08313" lon="5.37608">
        <ele>665.5</ele>
        <time>2021-05-31T08:41:23.000Z</time>
      </trkpt>
      <trkpt lat="44.08332" lon="5.37626">
        <ele>666</ele>
        <time>2021-05-31T08:41:26.000Z</time>
      </trkpt>
      <trkpt lat="44.08351" lon="5.37644">
        <ele>666.4</ele>
        <time>2021-05-31T08:41:28.000Z</time>
      </trkpt>
      <trkpt lat="44.08371" lon="5.37663">
        <ele>667.1</ele>
        <time>2021-05-31T08:41:31.000Z</time>
      </trkpt>
      <trkpt lat="44.08391" lon="5.37681">
        <ele>667.7</ele>
        <time>2021-05-31T08:41:34.000Z</time>
      </trkpt>
      <trkpt lat="44.08411" lon="5.377">
        <ele>667.9</ele>
        <time>2021-05-31T08:41:37.000Z</time>
      </trkpt>
      <trkpt lat="44.08431" lon="5.37719">
        <ele>668.1</ele>
        <time>2021-05-31T08:41:39.000Z</time>
      </trkpt>
      <trkpt lat="44.08444" lon="5.37728">
        <ele>668.4</ele>
        <time>2021-05-31T08:41:41.000Z</time>
      </trkpt>
      <trkpt lat="44.08478" lon="5.37747">
        <ele>668.8</ele>
        <time>2021-05-31T08:41:45.000Z</time>
      </trkpt>
      <trkpt lat="44.08498" lon="5.37757">
        <ele>669</ele>
        <time>2021-05-31T08:41:47.000Z</time>
      </trkpt>
      <trkpt lat="44.08518" lon="5.37767">
        <ele>669.3</ele>
        <time>2021-05-31T08:41:49.000Z</time>
      </trkpt>
      <trkpt lat="44.08535" lon="5.3778">
        <ele>669.6</ele>
        <time>2021-05-31T08:41:52.000Z</time>
      </trkpt>
      <trkpt lat="44.08554" lon="5.37802">
        <ele>669.7</ele>
        <time>2021-05-31T08:41:54.000Z</time>
      </trkpt>
      <trkpt lat="44.08573" lon="5.37824">
        <ele>669.9</ele>
        <time>2021-05-31T08:41:57.000Z</time>
      </trkpt>
      <trkpt lat="44.08591" lon="5.37847">
        <ele>669.9</ele>
        <time>2021-05-31T08:41:59.000Z</time>
      </trkpt>
      <trkpt lat="44.0861" lon="5.37869">
        <ele>670</ele>
        <time>2021-05-31T08:42:02.000Z</time>
      </trkpt>
      <trkpt lat="44.08632" lon="5.3789">
        <ele>670</ele>
        <time>2021-05-31T08:42:04.000Z</time>
      </trkpt>
      <trkpt lat="44.08653" lon="5.37905">
        <ele>670.1</ele>
        <time>2021-05-31T08:42:07.000Z</time>
      </trkpt>
      <trkpt lat="44.08675" lon="5.3792">
        <ele>670.2</ele>
        <time>2021-05-31T08:42:09.000Z</time>
      </trkpt>
      <trkpt lat="44.08696" lon="5.37935">
        <ele>670.2</ele>
        <time>2021-05-31T08:42:12.000Z</time>
      </trkpt>
      <trkpt lat="44.08717" lon="5.3795">
        <ele>670.4</ele>
        <time>2021-05-31T08:42:14.000Z</time>
      </trkpt>
      <trkpt lat="44.08739" lon="5.37965">
        <ele>670.5</ele>
        <time>2021-05-31T08:42:17.000Z</time>
      </trkpt>
      <trkpt lat="44.0876" lon="5.3798">
        <ele>670.7</ele>
        <time>2021-05-31T08:42:19.000Z</time>
      </trkpt>
      <trkpt lat="44.08781" lon="5.37995">
        <ele>670.7</ele>
        <time>2021-05-31T08:42:21.000Z</time>
      </trkpt>
      <trkpt lat="44.08803" lon="5.3801">
        <ele>670.8</ele>
        <time>2021-05-31T08:42:24.000Z</time>
      </trkpt>
      <trkpt lat="44.08824" lon="5.38025">
        <ele>670.8</ele>
        <time>2021-05-31T08:42:26.000Z</time>
      </trkpt>
      <trkpt lat="44.08857" lon="5.38043">
        <ele>670.9</ele>
        <time>2021-05-31T08:42:30.000Z</time>
      </trkpt>
      <trkpt lat="44.08879" lon="5.38052">
        <ele>671.1</ele>
        <time>2021-05-31T08:42:32.000Z</time>
      </trkpt>
      <trkpt lat="44.08902" lon="5.38061">
        <ele>671.3</ele>
        <time>2021-05-31T08:42:35.000Z</time>
      </trkpt>
      <trkpt lat="44.08924" lon="5.3807">
        <ele>671.5</ele>
        <time>2021-05-31T08:42:37.000Z</time>
      </trkpt>
      <trkpt lat="44.08934" lon="5.38077">
        <ele>671.5</ele>
        <time>2021-05-31T08:42:38.000Z</time>
      </trkpt>
      <trkpt lat="44.08967" lon="5.38108">
        <ele>671.5</ele>
        <time>2021-05-31T08:42:42.000Z</time>
      </trkpt>
      <trkpt lat="44.08993" lon="5.38137">
        <ele>671.7</ele>
        <time>2021-05-31T08:42:46.000Z</time>
      </trkpt>
      <trkpt lat="44.09019" lon="5.38165">
        <ele>671.8</ele>
        <time>2021-05-31T08:42:49.000Z</time>
      </trkpt>
      <trkpt lat="44.09045" lon="5.38194">
        <ele>672</ele>
        <time>2021-05-31T08:42:52.000Z</time>
      </trkpt>
      <trkpt lat="44.0907" lon="5.38223">
        <ele>672.2</ele>
        <time>2021-05-31T08:42:56.000Z</time>
      </trkpt>
      <trkpt lat="44.09088" lon="5.38242">
        <ele>672.4</ele>
        <time>2021-05-31T08:42:58.000Z</time>
      </trkpt>
      <trkpt lat="44.09105" lon="5.38261">
        <ele>672.7</ele>
        <time>2021-05-31T08:43:00.000Z</time>
      </trkpt>
      <trkpt lat="44.09122" lon="5.3828">
        <ele>672.9</ele>
        <time>2021-05-31T08:43:03.000Z</time>
      </trkpt>
      <trkpt lat="44.0914" lon="5.38303">
        <ele>673.2</ele>
        <time>2021-05-31T08:43:06.000Z</time>
      </trkpt>
      <trkpt lat="44.09163" lon="5.38339">
        <ele>673.5</ele>
        <time>2021-05-31T08:43:09.000Z</time>
      </trkpt>
      <trkpt lat="44.09177" lon="5.38366">
        <ele>673.7</ele>
        <time>2021-05-31T08:43:12.000Z</time>
      </trkpt>
      <trkpt lat="44.09191" lon="5.38392">
        <ele>674</ele>
        <time>2021-05-31T08:43:14.000Z</time>
      </trkpt>
      <trkpt lat="44.09205" lon="5.38419">
        <ele>674.3</ele>
        <time>2021-05-31T08:43:17.000Z</time>
      </trkpt>
      <trkpt lat="44.09218" lon="5.38446">
        <ele>675</ele>
        <time>2021-05-31T08:43:20.000Z</time>
      </trkpt>
      <trkpt lat="44.09232" lon="5.38472">
        <ele>675.7</ele>
        <time>2021-05-31T08:43:23.000Z</time>
      </trkpt>
      <trkpt lat="44.09246" lon="5.38499">
        <ele>676.5</ele>
        <time>2021-05-31T08:43:26.000Z</time>
      </trkpt>
      <trkpt lat="44.09258" lon="5.38521">
        <ele>677.5</ele>
        <time>2021-05-31T08:43:29.000Z</time>
      </trkpt>
      <trkpt lat="44.09271" lon="5.38544">
        <ele>678.5</ele>
        <time>2021-05-31T08:43:32.000Z</time>
      </trkpt>
      <trkpt lat="44.09283" lon="5.38566">
        <ele>679.5</ele>
        <time>2021-05-31T08:43:35.000Z</time>
      </trkpt>
      <trkpt lat="44.09289" lon="5.38574">
        <ele>680.2</ele>
        <time>2021-05-31T08:43:37.000Z</time>
      </trkpt>
      <trkpt lat="44.09297" lon="5.38577">
        <ele>680.6</ele>
        <time>2021-05-31T08:43:38.000Z</time>
      </trkpt>
      <trkpt lat="44.0931" lon="5.38575">
        <ele>680.9</ele>
        <time>2021-05-31T08:43:40.000Z</time>
      </trkpt>
      <trkpt lat="44.09313" lon="5.38615">
        <ele>681</ele>
        <time>2021-05-31T08:43:42.000Z</time>
      </trkpt>
      <trkpt lat="44.09317" lon="5.38654">
        <ele>681</ele>
        <time>2021-05-31T08:43:45.000Z</time>
      </trkpt>
      <trkpt lat="44.0932" lon="5.38694">
        <ele>681.1</ele>
        <time>2021-05-31T08:43:48.000Z</time>
      </trkpt>
      <trkpt lat="44.09324" lon="5.38734">
        <ele>681.2</ele>
        <time>2021-05-31T08:43:51.000Z</time>
      </trkpt>
      <trkpt lat="44.09327" lon="5.38774">
        <ele>681.3</ele>
        <time>2021-05-31T08:43:54.000Z</time>
      </trkpt>
      <trkpt lat="44.0933" lon="5.38813">
        <ele>681.4</ele>
        <time>2021-05-31T08:43:57.000Z</time>
      </trkpt>
      <trkpt lat="44.09334" lon="5.38853">
        <ele>681.5</ele>
        <time>2021-05-31T08:44:00.000Z</time>
      </trkpt>
      <trkpt lat="44.09337" lon="5.38893">
        <ele>681.6</ele>
        <time>2021-05-31T08:44:03.000Z</time>
      </trkpt>
      <trkpt lat="44.09341" lon="5.38933">
        <ele>681.7</ele>
        <time>2021-05-31T08:44:06.000Z</time>
      </trkpt>
      <trkpt lat="44.09344" lon="5.38972">
        <ele>681.7</ele>
        <time>2021-05-31T08:44:09.000Z</time>
      </trkpt>
      <trkpt lat="44.09347" lon="5.39012">
        <ele>681.7</ele>
        <time>2021-05-31T08:44:11.000Z</time>
      </trkpt>
      <trkpt lat="44.09351" lon="5.39052">
        <ele>681.6</ele>
        <time>2021-05-31T08:44:14.000Z</time>
      </trkpt>
      <trkpt lat="44.09354" lon="5.39092">
        <ele>681.6</ele>
        <time>2021-05-31T08:44:17.000Z</time>
      </trkpt>
      <trkpt lat="44.09358" lon="5.39131">
        <ele>681.6</ele>
        <time>2021-05-31T08:44:20.000Z</time>
      </trkpt>
      <trkpt lat="44.09361" lon="5.39171">
        <ele>681.6</ele>
        <time>2021-05-31T08:44:23.000Z</time>
      </trkpt>
      <trkpt lat="44.09364" lon="5.39211">
        <ele>681.6</ele>
        <time>2021-05-31T08:44:25.000Z</time>
      </trkpt>
      <trkpt lat="44.09367" lon="5.3925">
        <ele>681.6</ele>
        <time>2021-05-31T08:44:28.000Z</time>
      </trkpt>
      <trkpt lat="44.0937" lon="5.3929">
        <ele>682</ele>
        <time>2021-05-31T08:44:31.000Z</time>
      </trkpt>
      <trkpt lat="44.09373" lon="5.3933">
        <ele>682.3</ele>
        <time>2021-05-31T08:44:35.000Z</time>
      </trkpt>
      <trkpt lat="44.09374" lon="5.39367">
        <ele>682.9</ele>
        <time>2021-05-31T08:44:38.000Z</time>
      </trkpt>
      <trkpt lat="44.09375" lon="5.39404">
        <ele>683.5</ele>
        <time>2021-05-31T08:44:41.000Z</time>
      </trkpt>
      <trkpt lat="44.09376" lon="5.3944">
        <ele>684.2</ele>
        <time>2021-05-31T08:44:44.000Z</time>
      </trkpt>
      <trkpt lat="44.09377" lon="5.39477">
        <ele>684.9</ele>
        <time>2021-05-31T08:44:47.000Z</time>
      </trkpt>
      <trkpt lat="44.09377" lon="5.39514">
        <ele>685.7</ele>
        <time>2021-05-31T08:44:50.000Z</time>
      </trkpt>
      <trkpt lat="44.09378" lon="5.39551">
        <ele>686.5</ele>
        <time>2021-05-31T08:44:54.000Z</time>
      </trkpt>
      <trkpt lat="44.09379" lon="5.39587">
        <ele>687</ele>
        <time>2021-05-31T08:44:57.000Z</time>
      </trkpt>
      <trkpt lat="44.0938" lon="5.39624">
        <ele>687.4</ele>
        <time>2021-05-31T08:45:00.000Z</time>
      </trkpt>
      <trkpt lat="44.09381" lon="5.39661">
        <ele>687.9</ele>
        <time>2021-05-31T08:45:03.000Z</time>
      </trkpt>
      <trkpt lat="44.09379" lon="5.39708">
        <ele>688</ele>
        <time>2021-05-31T08:45:06.000Z</time>
      </trkpt>
      <trkpt lat="44.09375" lon="5.39753">
        <ele>687.6</ele>
        <time>2021-05-31T08:45:09.000Z</time>
      </trkpt>
      <trkpt lat="44.09372" lon="5.39798">
        <ele>687.1</ele>
        <time>2021-05-31T08:45:12.000Z</time>
      </trkpt>
      <trkpt lat="44.09368" lon="5.39842">
        <ele>687</ele>
        <time>2021-05-31T08:45:15.000Z</time>
      </trkpt>
      <trkpt lat="44.09364" lon="5.39887">
        <ele>686.9</ele>
        <time>2021-05-31T08:45:18.000Z</time>
      </trkpt>
      <trkpt lat="44.0936" lon="5.39905">
        <ele>686.8</ele>
        <time>2021-05-31T08:45:20.000Z</time>
      </trkpt>
      <trkpt lat="44.09347" lon="5.39931">
        <ele>686.8</ele>
        <time>2021-05-31T08:45:22.000Z</time>
      </trkpt>
      <trkpt lat="44.09329" lon="5.39946">
        <ele>686.8</ele>
        <time>2021-05-31T08:45:24.000Z</time>
      </trkpt>
      <trkpt lat="44.0931" lon="5.39961">
        <ele>686.8</ele>
        <time>2021-05-31T08:45:26.000Z</time>
      </trkpt>
      <trkpt lat="44.09298" lon="5.39988">
        <ele>687.3</ele>
        <time>2021-05-31T08:45:29.000Z</time>
      </trkpt>
      <trkpt lat="44.09287" lon="5.40016">
        <ele>687.7</ele>
        <time>2021-05-31T08:45:31.000Z</time>
      </trkpt>
      <trkpt lat="44.09275" lon="5.40043">
        <ele>688.4</ele>
        <time>2021-05-31T08:45:34.000Z</time>
      </trkpt>
      <trkpt lat="44.09263" lon="5.4007">
        <ele>689</ele>
        <time>2021-05-31T08:45:37.000Z</time>
      </trkpt>
      <trkpt lat="44.09276" lon="5.40094">
        <ele>689.4</ele>
        <time>2021-05-31T08:45:39.000Z</time>
      </trkpt>
      <trkpt lat="44.09284" lon="5.40102">
        <ele>689.4</ele>
        <time>2021-05-31T08:45:40.000Z</time>
      </trkpt>
      <trkpt lat="44.09309" lon="5.40111">
        <ele>689.3</ele>
        <time>2021-05-31T08:45:43.000Z</time>
      </trkpt>
      <trkpt lat="44.09333" lon="5.4012">
        <ele>689.3</ele>
        <time>2021-05-31T08:45:45.000Z</time>
      </trkpt>
      <trkpt lat="44.09333" lon="5.40145">
        <ele>689</ele>
        <time>2021-05-31T08:45:47.000Z</time>
      </trkpt>
      <trkpt lat="44.0933" lon="5.40175">
        <ele>688.9</ele>
        <time>2021-05-31T08:45:49.000Z</time>
      </trkpt>
      <trkpt lat="44.09326" lon="5.40204">
        <ele>688.9</ele>
        <time>2021-05-31T08:45:51.000Z</time>
      </trkpt>
      <trkpt lat="44.09328" lon="5.40228">
        <ele>688.8</ele>
        <time>2021-05-31T08:45:53.000Z</time>
      </trkpt>
      <trkpt lat="44.09334" lon="5.40256">
        <ele>688.8</ele>
        <time>2021-05-31T08:45:55.000Z</time>
      </trkpt>
      <trkpt lat="44.0934" lon="5.40284">
        <ele>688.8</ele>
        <time>2021-05-31T08:45:57.000Z</time>
      </trkpt>
      <trkpt lat="44.09347" lon="5.40305">
        <ele>688.9</ele>
        <time>2021-05-31T08:45:59.000Z</time>
      </trkpt>
      <trkpt lat="44.09367" lon="5.40339">
        <ele>689</ele>
        <time>2021-05-31T08:46:02.000Z</time>
      </trkpt>
      <trkpt lat="44.0939" lon="5.4037">
        <ele>689.3</ele>
        <time>2021-05-31T08:46:05.000Z</time>
      </trkpt>
      <trkpt lat="44.09411" lon="5.40391">
        <ele>689.9</ele>
        <time>2021-05-31T08:46:08.000Z</time>
      </trkpt>
      <trkpt lat="44.09431" lon="5.40413">
        <ele>690.4</ele>
        <time>2021-05-31T08:46:11.000Z</time>
      </trkpt>
      <trkpt lat="44.09434" lon="5.4042">
        <ele>690.6</ele>
        <time>2021-05-31T08:46:12.000Z</time>
      </trkpt>
      <trkpt lat="44.09434" lon="5.40427">
        <ele>690.8</ele>
        <time>2021-05-31T08:46:13.000Z</time>
      </trkpt>
      <trkpt lat="44.09425" lon="5.40463">
        <ele>692</ele>
        <time>2021-05-31T08:46:17.000Z</time>
      </trkpt>
      <trkpt lat="44.09426" lon="5.40476">
        <ele>692.2</ele>
        <time>2021-05-31T08:46:18.000Z</time>
      </trkpt>
      <trkpt lat="44.0943" lon="5.40482">
        <ele>692.2</ele>
        <time>2021-05-31T08:46:18.000Z</time>
      </trkpt>
      <trkpt lat="44.09453" lon="5.40492">
        <ele>692.3</ele>
        <time>2021-05-31T08:46:21.000Z</time>
      </trkpt>
      <trkpt lat="44.09475" lon="5.40503">
        <ele>692.3</ele>
        <time>2021-05-31T08:46:23.000Z</time>
      </trkpt>
      <trkpt lat="44.09498" lon="5.40513">
        <ele>692.3</ele>
        <time>2021-05-31T08:46:25.000Z</time>
      </trkpt>
      <trkpt lat="44.09521" lon="5.40524">
        <ele>692.3</ele>
        <time>2021-05-31T08:46:28.000Z</time>
      </trkpt>
      <trkpt lat="44.09543" lon="5.40534">
        <ele>692.2</ele>
        <time>2021-05-31T08:46:30.000Z</time>
      </trkpt>
      <trkpt lat="44.09566" lon="5.40545">
        <ele>692.2</ele>
        <time>2021-05-31T08:46:32.000Z</time>
      </trkpt>
      <trkpt lat="44.09589" lon="5.40555">
        <ele>692.3</ele>
        <time>2021-05-31T08:46:35.000Z</time>
      </trkpt>
      <trkpt lat="44.09611" lon="5.40566">
        <ele>692.4</ele>
        <time>2021-05-31T08:46:37.000Z</time>
      </trkpt>
      <trkpt lat="44.09634" lon="5.40576">
        <ele>692.5</ele>
        <time>2021-05-31T08:46:40.000Z</time>
      </trkpt>
      <trkpt lat="44.09657" lon="5.40587">
        <ele>692.9</ele>
        <time>2021-05-31T08:46:42.000Z</time>
      </trkpt>
      <trkpt lat="44.09679" lon="5.40597">
        <ele>693.2</ele>
        <time>2021-05-31T08:46:45.000Z</time>
      </trkpt>
      <trkpt lat="44.09702" lon="5.40608">
        <ele>693.7</ele>
        <time>2021-05-31T08:46:48.000Z</time>
      </trkpt>
      <trkpt lat="44.09711" lon="5.40621">
        <ele>694.2</ele>
        <time>2021-05-31T08:46:49.000Z</time>
      </trkpt>
      <trkpt lat="44.09714" lon="5.40641">
        <ele>694.6</ele>
        <time>2021-05-31T08:46:51.000Z</time>
      </trkpt>
      <trkpt lat="44.09728" lon="5.40645">
        <ele>694.6</ele>
        <time>2021-05-31T08:46:53.000Z</time>
      </trkpt>
      <trkpt lat="44.0972" lon="5.4062">
        <ele>694.6</ele>
        <time>2021-05-31T08:46:55.000Z</time>
      </trkpt>
      <trkpt lat="44.09719" lon="5.40599">
        <ele>694.7</ele>
        <time>2021-05-31T08:46:56.000Z</time>
      </trkpt>
      <trkpt lat="44.0972" lon="5.40587">
        <ele>694.8</ele>
        <time>2021-05-31T08:46:57.000Z</time>
      </trkpt>
      <trkpt lat="44.09729" lon="5.40564">
        <ele>695.1</ele>
        <time>2021-05-31T08:46:59.000Z</time>
      </trkpt>
      <trkpt lat="44.09746" lon="5.40541">
        <ele>696.2</ele>
        <time>2021-05-31T08:47:03.000Z</time>
      </trkpt>
      <trkpt lat="44.09763" lon="5.40518">
        <ele>697.5</ele>
        <time>2021-05-31T08:47:07.000Z</time>
      </trkpt>
      <trkpt lat="44.09779" lon="5.40495">
        <ele>698.9</ele>
        <time>2021-05-31T08:47:11.000Z</time>
      </trkpt>
      <trkpt lat="44.09792" lon="5.40478">
        <ele>700.4</ele>
        <time>2021-05-31T08:47:14.000Z</time>
      </trkpt>
      <trkpt lat="44.09805" lon="5.40461">
        <ele>701.9</ele>
        <time>2021-05-31T08:47:18.000Z</time>
      </trkpt>
      <trkpt lat="44.09817" lon="5.40443">
        <ele>703.4</ele>
        <time>2021-05-31T08:47:22.000Z</time>
      </trkpt>
      <trkpt lat="44.0983" lon="5.40426">
        <ele>704.9</ele>
        <time>2021-05-31T08:47:25.000Z</time>
      </trkpt>
      <trkpt lat="44.09846" lon="5.40403">
        <ele>706.4</ele>
        <time>2021-05-31T08:47:29.000Z</time>
      </trkpt>
      <trkpt lat="44.09863" lon="5.4038">
        <ele>707.9</ele>
        <time>2021-05-31T08:47:34.000Z</time>
      </trkpt>
      <trkpt lat="44.0988" lon="5.40357">
        <ele>709.3</ele>
        <time>2021-05-31T08:47:38.000Z</time>
      </trkpt>
      <trkpt lat="44.09896" lon="5.40332">
        <ele>711</ele>
        <time>2021-05-31T08:47:42.000Z</time>
      </trkpt>
      <trkpt lat="44.09907" lon="5.4031">
        <ele>711.5</ele>
        <time>2021-05-31T08:47:44.000Z</time>
      </trkpt>
      <trkpt lat="44.09918" lon="5.40287">
        <ele>712</ele>
        <time>2021-05-31T08:47:47.000Z</time>
      </trkpt>
      <trkpt lat="44.09934" lon="5.40263">
        <ele>712.4</ele>
        <time>2021-05-31T08:47:49.000Z</time>
      </trkpt>
      <trkpt lat="44.09944" lon="5.40257">
        <ele>712.6</ele>
        <time>2021-05-31T08:47:51.000Z</time>
      </trkpt>
      <trkpt lat="44.09975" lon="5.40248">
        <ele>712.9</ele>
        <time>2021-05-31T08:47:54.000Z</time>
      </trkpt>
      <trkpt lat="44.10005" lon="5.40238">
        <ele>713.1</ele>
        <time>2021-05-31T08:47:57.000Z</time>
      </trkpt>
      <trkpt lat="44.10025" lon="5.40229">
        <ele>713.2</ele>
        <time>2021-05-31T08:47:59.000Z</time>
      </trkpt>
      <trkpt lat="44.10044" lon="5.4022">
        <ele>713.3</ele>
        <time>2021-05-31T08:48:01.000Z</time>
      </trkpt>
      <trkpt lat="44.10071" lon="5.40204">
        <ele>713.6</ele>
        <time>2021-05-31T08:48:04.000Z</time>
      </trkpt>
      <trkpt lat="44.10097" lon="5.40187">
        <ele>713.9</ele>
        <time>2021-05-31T08:48:08.000Z</time>
      </trkpt>
      <trkpt lat="44.10124" lon="5.40171">
        <ele>714.2</ele>
        <time>2021-05-31T08:48:11.000Z</time>
      </trkpt>
      <trkpt lat="44.10152" lon="5.40156">
        <ele>714.5</ele>
        <time>2021-05-31T08:48:14.000Z</time>
      </trkpt>
      <trkpt lat="44.10179" lon="5.4014">
        <ele>714.8</ele>
        <time>2021-05-31T08:48:17.000Z</time>
      </trkpt>
      <trkpt lat="44.10207" lon="5.40125">
        <ele>715.1</ele>
        <time>2021-05-31T08:48:20.000Z</time>
      </trkpt>
      <trkpt lat="44.10235" lon="5.40109">
        <ele>715.5</ele>
        <time>2021-05-31T08:48:24.000Z</time>
      </trkpt>
      <trkpt lat="44.10262" lon="5.40094">
        <ele>715.8</ele>
        <time>2021-05-31T08:48:27.000Z</time>
      </trkpt>
      <trkpt lat="44.1029" lon="5.40078">
        <ele>716.2</ele>
        <time>2021-05-31T08:48:30.000Z</time>
      </trkpt>
      <trkpt lat="44.10314" lon="5.40066">
        <ele>717</ele>
        <time>2021-05-31T08:48:33.000Z</time>
      </trkpt>
      <trkpt lat="44.10337" lon="5.40053">
        <ele>717.7</ele>
        <time>2021-05-31T08:48:36.000Z</time>
      </trkpt>
      <trkpt lat="44.1036" lon="5.40036">
        <ele>718.1</ele>
        <time>2021-05-31T08:48:39.000Z</time>
      </trkpt>
      <trkpt lat="44.10381" lon="5.40014">
        <ele>718.3</ele>
        <time>2021-05-31T08:48:42.000Z</time>
      </trkpt>
      <trkpt lat="44.10399" lon="5.3999">
        <ele>719</ele>
        <time>2021-05-31T08:48:45.000Z</time>
      </trkpt>
      <trkpt lat="44.10415" lon="5.39963">
        <ele>719.2</ele>
        <time>2021-05-31T08:48:48.000Z</time>
      </trkpt>
      <trkpt lat="44.10434" lon="5.3994">
        <ele>719.4</ele>
        <time>2021-05-31T08:48:50.000Z</time>
      </trkpt>
      <trkpt lat="44.10444" lon="5.39931">
        <ele>719.5</ele>
        <time>2021-05-31T08:48:52.000Z</time>
      </trkpt>
      <trkpt lat="44.10467" lon="5.39917">
        <ele>719.7</ele>
        <time>2021-05-31T08:48:54.000Z</time>
      </trkpt>
      <trkpt lat="44.10479" lon="5.39914">
        <ele>719.7</ele>
        <time>2021-05-31T08:48:56.000Z</time>
      </trkpt>
      <trkpt lat="44.10494" lon="5.39912">
        <ele>719.7</ele>
        <time>2021-05-31T08:48:57.000Z</time>
      </trkpt>
      <trkpt lat="44.10503" lon="5.39913">
        <ele>719.8</ele>
        <time>2021-05-31T08:48:58.000Z</time>
      </trkpt>
      <trkpt lat="44.10515" lon="5.39917">
        <ele>719.9</ele>
        <time>2021-05-31T08:48:59.000Z</time>
      </trkpt>
      <trkpt lat="44.1054" lon="5.3993">
        <ele>720.1</ele>
        <time>2021-05-31T08:49:02.000Z</time>
      </trkpt>
      <trkpt lat="44.10565" lon="5.39946">
        <ele>720.8</ele>
        <time>2021-05-31T08:49:05.000Z</time>
      </trkpt>
      <trkpt lat="44.1059" lon="5.39961">
        <ele>721.5</ele>
        <time>2021-05-31T08:49:09.000Z</time>
      </trkpt>
      <trkpt lat="44.10615" lon="5.39977">
        <ele>722.3</ele>
        <time>2021-05-31T08:49:12.000Z</time>
      </trkpt>
      <trkpt lat="44.10638" lon="5.39993">
        <ele>723.7</ele>
        <time>2021-05-31T08:49:16.000Z</time>
      </trkpt>
      <trkpt lat="44.1066" lon="5.40009">
        <ele>725.3</ele>
        <time>2021-05-31T08:49:21.000Z</time>
      </trkpt>
      <trkpt lat="44.10685" lon="5.40031">
        <ele>727.5</ele>
        <time>2021-05-31T08:49:26.000Z</time>
      </trkpt>
      <trkpt lat="44.10704" lon="5.40044">
        <ele>729.8</ele>
        <time>2021-05-31T08:49:31.000Z</time>
      </trkpt>
      <trkpt lat="44.10729" lon="5.40052">
        <ele>731.6</ele>
        <time>2021-05-31T08:49:36.000Z</time>
      </trkpt>
      <trkpt lat="44.10753" lon="5.4006">
        <ele>733.2</ele>
        <time>2021-05-31T08:49:41.000Z</time>
      </trkpt>
      <trkpt lat="44.10773" lon="5.40069">
        <ele>734.1</ele>
        <time>2021-05-31T08:49:44.000Z</time>
      </trkpt>
      <trkpt lat="44.10792" lon="5.40079">
        <ele>735</ele>
        <time>2021-05-31T08:49:47.000Z</time>
      </trkpt>
      <trkpt lat="44.10801" lon="5.4008">
        <ele>735.5</ele>
        <time>2021-05-31T08:49:48.000Z</time>
      </trkpt>
      <trkpt lat="44.1081" lon="5.40078">
        <ele>735.9</ele>
        <time>2021-05-31T08:49:49.000Z</time>
      </trkpt>
      <trkpt lat="44.10825" lon="5.40065">
        <ele>736.7</ele>
        <time>2021-05-31T08:49:52.000Z</time>
      </trkpt>
      <trkpt lat="44.10842" lon="5.40041">
        <ele>737.9</ele>
        <time>2021-05-31T08:49:55.000Z</time>
      </trkpt>
      <trkpt lat="44.10858" lon="5.40018">
        <ele>739.1</ele>
        <time>2021-05-31T08:49:59.000Z</time>
      </trkpt>
      <trkpt lat="44.10875" lon="5.39994">
        <ele>740.4</ele>
        <time>2021-05-31T08:50:03.000Z</time>
      </trkpt>
      <trkpt lat="44.10891" lon="5.3997">
        <ele>741.7</ele>
        <time>2021-05-31T08:50:07.000Z</time>
      </trkpt>
      <trkpt lat="44.10904" lon="5.39955">
        <ele>743</ele>
        <time>2021-05-31T08:50:10.000Z</time>
      </trkpt>
      <trkpt lat="44.10917" lon="5.3994">
        <ele>744.3</ele>
        <time>2021-05-31T08:50:13.000Z</time>
      </trkpt>
      <trkpt lat="44.10941" lon="5.39922">
        <ele>745.7</ele>
        <time>2021-05-31T08:50:18.000Z</time>
      </trkpt>
      <trkpt lat="44.10965" lon="5.39904">
        <ele>747.2</ele>
        <time>2021-05-31T08:50:22.000Z</time>
      </trkpt>
      <trkpt lat="44.10984" lon="5.39891">
        <ele>748.8</ele>
        <time>2021-05-31T08:50:26.000Z</time>
      </trkpt>
      <trkpt lat="44.11003" lon="5.39879">
        <ele>750.5</ele>
        <time>2021-05-31T08:50:31.000Z</time>
      </trkpt>
      <trkpt lat="44.11023" lon="5.39866">
        <ele>752.1</ele>
        <time>2021-05-31T08:50:35.000Z</time>
      </trkpt>
      <trkpt lat="44.11042" lon="5.39853">
        <ele>753.1</ele>
        <time>2021-05-31T08:50:38.000Z</time>
      </trkpt>
      <trkpt lat="44.11061" lon="5.39841">
        <ele>754.1</ele>
        <time>2021-05-31T08:50:41.000Z</time>
      </trkpt>
      <trkpt lat="44.1108" lon="5.39828">
        <ele>755.2</ele>
        <time>2021-05-31T08:50:44.000Z</time>
      </trkpt>
      <trkpt lat="44.11096" lon="5.39815">
        <ele>756.9</ele>
        <time>2021-05-31T08:50:48.000Z</time>
      </trkpt>
      <trkpt lat="44.11112" lon="5.39802">
        <ele>758.7</ele>
        <time>2021-05-31T08:50:53.000Z</time>
      </trkpt>
      <trkpt lat="44.11128" lon="5.39787">
        <ele>759.8</ele>
        <time>2021-05-31T08:50:56.000Z</time>
      </trkpt>
      <trkpt lat="44.11143" lon="5.39772">
        <ele>760.9</ele>
        <time>2021-05-31T08:50:59.000Z</time>
      </trkpt>
      <trkpt lat="44.11165" lon="5.39755">
        <ele>762.8</ele>
        <time>2021-05-31T08:51:04.000Z</time>
      </trkpt>
      <trkpt lat="44.11176" lon="5.39749">
        <ele>763.6</ele>
        <time>2021-05-31T08:51:06.000Z</time>
      </trkpt>
      <trkpt lat="44.1119" lon="5.39745">
        <ele>764.4</ele>
        <time>2021-05-31T08:51:08.000Z</time>
      </trkpt>
      <trkpt lat="44.11211" lon="5.39744">
        <ele>765.8</ele>
        <time>2021-05-31T08:51:12.000Z</time>
      </trkpt>
      <trkpt lat="44.11232" lon="5.39743">
        <ele>767.2</ele>
        <time>2021-05-31T08:51:16.000Z</time>
      </trkpt>
      <trkpt lat="44.11253" lon="5.39742">
        <ele>768.6</ele>
        <time>2021-05-31T08:51:20.000Z</time>
      </trkpt>
      <trkpt lat="44.11277" lon="5.39737">
        <ele>770.1</ele>
        <time>2021-05-31T08:51:24.000Z</time>
      </trkpt>
      <trkpt lat="44.113" lon="5.39731">
        <ele>771.6</ele>
        <time>2021-05-31T08:51:28.000Z</time>
      </trkpt>
      <trkpt lat="44.11324" lon="5.39726">
        <ele>773</ele>
        <time>2021-05-31T08:51:32.000Z</time>
      </trkpt>
      <trkpt lat="44.11342" lon="5.39726">
        <ele>773.9</ele>
        <time>2021-05-31T08:51:35.000Z</time>
      </trkpt>
      <trkpt lat="44.11368" lon="5.3973">
        <ele>775</ele>
        <time>2021-05-31T08:51:38.000Z</time>
      </trkpt>
      <trkpt lat="44.11391" lon="5.39727">
        <ele>776.2</ele>
        <time>2021-05-31T08:51:42.000Z</time>
      </trkpt>
      <trkpt lat="44.11407" lon="5.39721">
        <ele>777.9</ele>
        <time>2021-05-31T08:51:46.000Z</time>
      </trkpt>
      <trkpt lat="44.11422" lon="5.39714">
        <ele>779.5</ele>
        <time>2021-05-31T08:51:50.000Z</time>
      </trkpt>
      <trkpt lat="44.11431" lon="5.39708">
        <ele>780.1</ele>
        <time>2021-05-31T08:51:51.000Z</time>
      </trkpt>
      <trkpt lat="44.11438" lon="5.39701">
        <ele>780.6</ele>
        <time>2021-05-31T08:51:53.000Z</time>
      </trkpt>
      <trkpt lat="44.11442" lon="5.39691">
        <ele>781.2</ele>
        <time>2021-05-31T08:51:54.000Z</time>
      </trkpt>
      <trkpt lat="44.11443" lon="5.39678">
        <ele>782.7</ele>
        <time>2021-05-31T08:51:57.000Z</time>
      </trkpt>
      <trkpt lat="44.1144" lon="5.39666">
        <ele>784</ele>
        <time>2021-05-31T08:52:00.000Z</time>
      </trkpt>
      <trkpt lat="44.11429" lon="5.39634">
        <ele>785</ele>
        <time>2021-05-31T08:52:03.000Z</time>
      </trkpt>
      <trkpt lat="44.11417" lon="5.39603">
        <ele>785.5</ele>
        <time>2021-05-31T08:52:06.000Z</time>
      </trkpt>
      <trkpt lat="44.11406" lon="5.39571">
        <ele>786.2</ele>
        <time>2021-05-31T08:52:10.000Z</time>
      </trkpt>
      <trkpt lat="44.11397" lon="5.39549">
        <ele>787</ele>
        <time>2021-05-31T08:52:12.000Z</time>
      </trkpt>
      <trkpt lat="44.11388" lon="5.39528">
        <ele>787.9</ele>
        <time>2021-05-31T08:52:15.000Z</time>
      </trkpt>
      <trkpt lat="44.11377" lon="5.39509">
        <ele>788.9</ele>
        <time>2021-05-31T08:52:18.000Z</time>
      </trkpt>
      <trkpt lat="44.11365" lon="5.3949">
        <ele>790</ele>
        <time>2021-05-31T08:52:21.000Z</time>
      </trkpt>
      <trkpt lat="44.11347" lon="5.39471">
        <ele>791.9</ele>
        <time>2021-05-31T08:52:26.000Z</time>
      </trkpt>
      <trkpt lat="44.11336" lon="5.39463">
        <ele>793.4</ele>
        <time>2021-05-31T08:52:29.000Z</time>
      </trkpt>
      <trkpt lat="44.11311" lon="5.39447">
        <ele>794.6</ele>
        <time>2021-05-31T08:52:33.000Z</time>
      </trkpt>
      <trkpt lat="44.11285" lon="5.39432">
        <ele>795.5</ele>
        <time>2021-05-31T08:52:36.000Z</time>
      </trkpt>
      <trkpt lat="44.1126" lon="5.39416">
        <ele>796.4</ele>
        <time>2021-05-31T08:52:40.000Z</time>
      </trkpt>
      <trkpt lat="44.11234" lon="5.39401">
        <ele>797.5</ele>
        <time>2021-05-31T08:52:44.000Z</time>
      </trkpt>
      <trkpt lat="44.11216" lon="5.39391">
        <ele>798.9</ele>
        <time>2021-05-31T08:52:47.000Z</time>
      </trkpt>
      <trkpt lat="44.11197" lon="5.39382">
        <ele>800.4</ele>
        <time>2021-05-31T08:52:51.000Z</time>
      </trkpt>
      <trkpt lat="44.11191" lon="5.39377">
        <ele>800.8</ele>
        <time>2021-05-31T08:52:52.000Z</time>
      </trkpt>
      <trkpt lat="44.11185" lon="5.39369">
        <ele>801.2</ele>
        <time>2021-05-31T08:52:54.000Z</time>
      </trkpt>
      <trkpt lat="44.11182" lon="5.3936">
        <ele>801.6</ele>
        <time>2021-05-31T08:52:55.000Z</time>
      </trkpt>
      <trkpt lat="44.11182" lon="5.39348">
        <ele>801.9</ele>
        <time>2021-05-31T08:52:56.000Z</time>
      </trkpt>
      <trkpt lat="44.11185" lon="5.39337">
        <ele>802.2</ele>
        <time>2021-05-31T08:52:57.000Z</time>
      </trkpt>
      <trkpt lat="44.11198" lon="5.39313">
        <ele>803.6</ele>
        <time>2021-05-31T08:53:01.000Z</time>
      </trkpt>
      <trkpt lat="44.11211" lon="5.39289">
        <ele>805</ele>
        <time>2021-05-31T08:53:05.000Z</time>
      </trkpt>
      <trkpt lat="44.11214" lon="5.39278">
        <ele>805.5</ele>
        <time>2021-05-31T08:53:06.000Z</time>
      </trkpt>
      <trkpt lat="44.11214" lon="5.39267">
        <ele>806.2</ele>
        <time>2021-05-31T08:53:08.000Z</time>
      </trkpt>
      <trkpt lat="44.1121" lon="5.39257">
        <ele>806.6</ele>
        <time>2021-05-31T08:53:09.000Z</time>
      </trkpt>
      <trkpt lat="44.11203" lon="5.39251">
        <ele>807.1</ele>
        <time>2021-05-31T08:53:10.000Z</time>
      </trkpt>
      <trkpt lat="44.11195" lon="5.39247">
        <ele>807.8</ele>
        <time>2021-05-31T08:53:12.000Z</time>
      </trkpt>
      <trkpt lat="44.11166" lon="5.39237">
        <ele>809</ele>
        <time>2021-05-31T08:53:16.000Z</time>
      </trkpt>
      <trkpt lat="44.11143" lon="5.39227">
        <ele>810.7</ele>
        <time>2021-05-31T08:53:21.000Z</time>
      </trkpt>
      <trkpt lat="44.11127" lon="5.39218">
        <ele>812.1</ele>
        <time>2021-05-31T08:53:24.000Z</time>
      </trkpt>
      <trkpt lat="44.1111" lon="5.39208">
        <ele>813.5</ele>
        <time>2021-05-31T08:53:28.000Z</time>
      </trkpt>
      <trkpt lat="44.11094" lon="5.39199">
        <ele>814.8</ele>
        <time>2021-05-31T08:53:31.000Z</time>
      </trkpt>
      <trkpt lat="44.11075" lon="5.39184">
        <ele>816.3</ele>
        <time>2021-05-31T08:53:35.000Z</time>
      </trkpt>
      <trkpt lat="44.11056" lon="5.39169">
        <ele>817.8</ele>
        <time>2021-05-31T08:53:39.000Z</time>
      </trkpt>
      <trkpt lat="44.11036" lon="5.39154">
        <ele>819.2</ele>
        <time>2021-05-31T08:53:43.000Z</time>
      </trkpt>
      <trkpt lat="44.11017" lon="5.39139">
        <ele>820.6</ele>
        <time>2021-05-31T08:53:47.000Z</time>
      </trkpt>
      <trkpt lat="44.10989" lon="5.39113">
        <ele>821.9</ele>
        <time>2021-05-31T08:53:51.000Z</time>
      </trkpt>
      <trkpt lat="44.10983" lon="5.39104">
        <ele>822.4</ele>
        <time>2021-05-31T08:53:53.000Z</time>
      </trkpt>
      <trkpt lat="44.10974" lon="5.39082">
        <ele>823.4</ele>
        <time>2021-05-31T08:53:56.000Z</time>
      </trkpt>
      <trkpt lat="44.10972" lon="5.39069">
        <ele>823.9</ele>
        <time>2021-05-31T08:53:57.000Z</time>
      </trkpt>
      <trkpt lat="44.10972" lon="5.39052">
        <ele>824.5</ele>
        <time>2021-05-31T08:53:59.000Z</time>
      </trkpt>
      <trkpt lat="44.10976" lon="5.39011">
        <ele>825.5</ele>
        <time>2021-05-31T08:54:03.000Z</time>
      </trkpt>
      <trkpt lat="44.10981" lon="5.38989">
        <ele>826.4</ele>
        <time>2021-05-31T08:54:06.000Z</time>
      </trkpt>
      <trkpt lat="44.10998" lon="5.38952">
        <ele>827.3</ele>
        <time>2021-05-31T08:54:10.000Z</time>
      </trkpt>
      <trkpt lat="44.1102" lon="5.38919">
        <ele>828.5</ele>
        <time>2021-05-31T08:54:14.000Z</time>
      </trkpt>
      <trkpt lat="44.11041" lon="5.38899">
        <ele>830</ele>
        <time>2021-05-31T08:54:18.000Z</time>
      </trkpt>
      <trkpt lat="44.11066" lon="5.38882">
        <ele>831.5</ele>
        <time>2021-05-31T08:54:23.000Z</time>
      </trkpt>
      <trkpt lat="44.11095" lon="5.38873">
        <ele>832.8</ele>
        <time>2021-05-31T08:54:27.000Z</time>
      </trkpt>
      <trkpt lat="44.11125" lon="5.38869">
        <ele>834</ele>
        <time>2021-05-31T08:54:31.000Z</time>
      </trkpt>
      <trkpt lat="44.11152" lon="5.38871">
        <ele>834.5</ele>
        <time>2021-05-31T08:54:34.000Z</time>
      </trkpt>
      <trkpt lat="44.11179" lon="5.38873">
        <ele>835</ele>
        <time>2021-05-31T08:54:37.000Z</time>
      </trkpt>
      <trkpt lat="44.11199" lon="5.38872">
        <ele>835.8</ele>
        <time>2021-05-31T08:54:40.000Z</time>
      </trkpt>
      <trkpt lat="44.11219" lon="5.38871">
        <ele>836.7</ele>
        <time>2021-05-31T08:54:43.000Z</time>
      </trkpt>
      <trkpt lat="44.11239" lon="5.3887">
        <ele>837.6</ele>
        <time>2021-05-31T08:54:46.000Z</time>
      </trkpt>
      <trkpt lat="44.1126" lon="5.38875">
        <ele>838.5</ele>
        <time>2021-05-31T08:54:49.000Z</time>
      </trkpt>
      <trkpt lat="44.1127" lon="5.38881">
        <ele>839.3</ele>
        <time>2021-05-31T08:54:51.000Z</time>
      </trkpt>
      <trkpt lat="44.11292" lon="5.38903">
        <ele>840.2</ele>
        <time>2021-05-31T08:54:54.000Z</time>
      </trkpt>
      <trkpt lat="44.11314" lon="5.38926">
        <ele>841.1</ele>
        <time>2021-05-31T08:54:58.000Z</time>
      </trkpt>
      <trkpt lat="44.11325" lon="5.38933">
        <ele>842</ele>
        <time>2021-05-31T08:55:00.000Z</time>
      </trkpt>
      <trkpt lat="44.11337" lon="5.38937">
        <ele>842.3</ele>
        <time>2021-05-31T08:55:02.000Z</time>
      </trkpt>
      <trkpt lat="44.11348" lon="5.38937">
        <ele>842.5</ele>
        <time>2021-05-31T08:55:03.000Z</time>
      </trkpt>
      <trkpt lat="44.11359" lon="5.38932">
        <ele>842.8</ele>
        <time>2021-05-31T08:55:04.000Z</time>
      </trkpt>
      <trkpt lat="44.11381" lon="5.38917">
        <ele>843.7</ele>
        <time>2021-05-31T08:55:07.000Z</time>
      </trkpt>
      <trkpt lat="44.11404" lon="5.38903">
        <ele>844.6</ele>
        <time>2021-05-31T08:55:11.000Z</time>
      </trkpt>
      <trkpt lat="44.11426" lon="5.38888">
        <ele>845.6</ele>
        <time>2021-05-31T08:55:14.000Z</time>
      </trkpt>
      <trkpt lat="44.11437" lon="5.38883">
        <ele>846</ele>
        <time>2021-05-31T08:55:16.000Z</time>
      </trkpt>
      <trkpt lat="44.11447" lon="5.38882">
        <ele>846.3</ele>
        <time>2021-05-31T08:55:17.000Z</time>
      </trkpt>
      <trkpt lat="44.11459" lon="5.38885">
        <ele>846.7</ele>
        <time>2021-05-31T08:55:18.000Z</time>
      </trkpt>
      <trkpt lat="44.11486" lon="5.38899">
        <ele>847.4</ele>
        <time>2021-05-31T08:55:22.000Z</time>
      </trkpt>
      <trkpt lat="44.11494" lon="5.389">
        <ele>847.8</ele>
        <time>2021-05-31T08:55:23.000Z</time>
      </trkpt>
      <trkpt lat="44.11514" lon="5.38894">
        <ele>848.4</ele>
        <time>2021-05-31T08:55:26.000Z</time>
      </trkpt>
      <trkpt lat="44.11523" lon="5.38885">
        <ele>849</ele>
        <time>2021-05-31T08:55:27.000Z</time>
      </trkpt>
      <trkpt lat="44.11531" lon="5.38874">
        <ele>849.9</ele>
        <time>2021-05-31T08:55:30.000Z</time>
      </trkpt>
      <trkpt lat="44.11546" lon="5.38843">
        <ele>850.5</ele>
        <time>2021-05-31T08:55:33.000Z</time>
      </trkpt>
      <trkpt lat="44.11561" lon="5.38811">
        <ele>850.9</ele>
        <time>2021-05-31T08:55:36.000Z</time>
      </trkpt>
      <trkpt lat="44.11576" lon="5.3878">
        <ele>851.3</ele>
        <time>2021-05-31T08:55:39.000Z</time>
      </trkpt>
      <trkpt lat="44.11593" lon="5.38759">
        <ele>852.2</ele>
        <time>2021-05-31T08:55:42.000Z</time>
      </trkpt>
      <trkpt lat="44.11604" lon="5.38748">
        <ele>852.9</ele>
        <time>2021-05-31T08:55:44.000Z</time>
      </trkpt>
      <trkpt lat="44.11627" lon="5.38733">
        <ele>854.8</ele>
        <time>2021-05-31T08:55:49.000Z</time>
      </trkpt>
      <trkpt lat="44.11646" lon="5.38722">
        <ele>856.1</ele>
        <time>2021-05-31T08:55:52.000Z</time>
      </trkpt>
      <trkpt lat="44.11666" lon="5.38711">
        <ele>857.3</ele>
        <time>2021-05-31T08:55:56.000Z</time>
      </trkpt>
      <trkpt lat="44.11685" lon="5.387">
        <ele>858.6</ele>
        <time>2021-05-31T08:55:59.000Z</time>
      </trkpt>
      <trkpt lat="44.11704" lon="5.38689">
        <ele>859.8</ele>
        <time>2021-05-31T08:56:03.000Z</time>
      </trkpt>
      <trkpt lat="44.11723" lon="5.38673">
        <ele>861.1</ele>
        <time>2021-05-31T08:56:07.000Z</time>
      </trkpt>
      <trkpt lat="44.11742" lon="5.38656">
        <ele>862.4</ele>
        <time>2021-05-31T08:56:10.000Z</time>
      </trkpt>
      <trkpt lat="44.11761" lon="5.3864">
        <ele>863.8</ele>
        <time>2021-05-31T08:56:14.000Z</time>
      </trkpt>
      <trkpt lat="44.11772" lon="5.38624">
        <ele>865.4</ele>
        <time>2021-05-31T08:56:18.000Z</time>
      </trkpt>
      <trkpt lat="44.11774" lon="5.38611">
        <ele>865.9</ele>
        <time>2021-05-31T08:56:20.000Z</time>
      </trkpt>
      <trkpt lat="44.11771" lon="5.38599">
        <ele>866.3</ele>
        <time>2021-05-31T08:56:21.000Z</time>
      </trkpt>
      <trkpt lat="44.11758" lon="5.3858">
        <ele>867.5</ele>
        <time>2021-05-31T08:56:24.000Z</time>
      </trkpt>
      <trkpt lat="44.11744" lon="5.38562">
        <ele>868.7</ele>
        <time>2021-05-31T08:56:27.000Z</time>
      </trkpt>
      <trkpt lat="44.11735" lon="5.38546">
        <ele>869.5</ele>
        <time>2021-05-31T08:56:30.000Z</time>
      </trkpt>
      <trkpt lat="44.1172" lon="5.38502">
        <ele>870.7</ele>
        <time>2021-05-31T08:56:34.000Z</time>
      </trkpt>
      <trkpt lat="44.11715" lon="5.3847">
        <ele>872.8</ele>
        <time>2021-05-31T08:56:39.000Z</time>
      </trkpt>
      <trkpt lat="44.11718" lon="5.38435">
        <ele>874.3</ele>
        <time>2021-05-31T08:56:44.000Z</time>
      </trkpt>
      <trkpt lat="44.11721" lon="5.38419">
        <ele>875.2</ele>
        <time>2021-05-31T08:56:46.000Z</time>
      </trkpt>
      <trkpt lat="44.11726" lon="5.38404">
        <ele>876.3</ele>
        <time>2021-05-31T08:56:49.000Z</time>
      </trkpt>
      <trkpt lat="44.11739" lon="5.38386">
        <ele>877.1</ele>
        <time>2021-05-31T08:56:51.000Z</time>
      </trkpt>
      <trkpt lat="44.11752" lon="5.38368">
        <ele>877.9</ele>
        <time>2021-05-31T08:56:54.000Z</time>
      </trkpt>
      <trkpt lat="44.1177" lon="5.3835">
        <ele>879.2</ele>
        <time>2021-05-31T08:56:58.000Z</time>
      </trkpt>
      <trkpt lat="44.11788" lon="5.38332">
        <ele>880.6</ele>
        <time>2021-05-31T08:57:02.000Z</time>
      </trkpt>
      <trkpt lat="44.11806" lon="5.38315">
        <ele>881.9</ele>
        <time>2021-05-31T08:57:05.000Z</time>
      </trkpt>
      <trkpt lat="44.11824" lon="5.38297">
        <ele>883.1</ele>
        <time>2021-05-31T08:57:09.000Z</time>
      </trkpt>
      <trkpt lat="44.11842" lon="5.38279">
        <ele>884.2</ele>
        <time>2021-05-31T08:57:12.000Z</time>
      </trkpt>
      <trkpt lat="44.1186" lon="5.38261">
        <ele>885.4</ele>
        <time>2021-05-31T08:57:16.000Z</time>
      </trkpt>
      <trkpt lat="44.11877" lon="5.38243">
        <ele>887</ele>
        <time>2021-05-31T08:57:20.000Z</time>
      </trkpt>
      <trkpt lat="44.11891" lon="5.38223">
        <ele>888.3</ele>
        <time>2021-05-31T08:57:23.000Z</time>
      </trkpt>
      <trkpt lat="44.11901" lon="5.38197">
        <ele>889.5</ele>
        <time>2021-05-31T08:57:27.000Z</time>
      </trkpt>
      <trkpt lat="44.11906" lon="5.38168">
        <ele>890.7</ele>
        <time>2021-05-31T08:57:30.000Z</time>
      </trkpt>
      <trkpt lat="44.11917" lon="5.38126">
        <ele>891.7</ele>
        <time>2021-05-31T08:57:34.000Z</time>
      </trkpt>
      <trkpt lat="44.11929" lon="5.38103">
        <ele>893.3</ele>
        <time>2021-05-31T08:57:39.000Z</time>
      </trkpt>
      <trkpt lat="44.11948" lon="5.38074">
        <ele>894.9</ele>
        <time>2021-05-31T08:57:43.000Z</time>
      </trkpt>
      <trkpt lat="44.11966" lon="5.38045">
        <ele>896.4</ele>
        <time>2021-05-31T08:57:48.000Z</time>
      </trkpt>
      <trkpt lat="44.11978" lon="5.38026">
        <ele>897.5</ele>
        <time>2021-05-31T08:57:51.000Z</time>
      </trkpt>
      <trkpt lat="44.11991" lon="5.38006">
        <ele>898.5</ele>
        <time>2021-05-31T08:57:54.000Z</time>
      </trkpt>
      <trkpt lat="44.12003" lon="5.37987">
        <ele>899.6</ele>
        <time>2021-05-31T08:57:57.000Z</time>
      </trkpt>
      <trkpt lat="44.12021" lon="5.37962">
        <ele>901.3</ele>
        <time>2021-05-31T08:58:01.000Z</time>
      </trkpt>
      <trkpt lat="44.12036" lon="5.37944">
        <ele>902.8</ele>
        <time>2021-05-31T08:58:05.000Z</time>
      </trkpt>
      <trkpt lat="44.12051" lon="5.37926">
        <ele>904.2</ele>
        <time>2021-05-31T08:58:09.000Z</time>
      </trkpt>
      <trkpt lat="44.12066" lon="5.37908">
        <ele>905.7</ele>
        <time>2021-05-31T08:58:13.000Z</time>
      </trkpt>
      <trkpt lat="44.12081" lon="5.3789">
        <ele>907.2</ele>
        <time>2021-05-31T08:58:17.000Z</time>
      </trkpt>
      <trkpt lat="44.12099" lon="5.37866">
        <ele>908.4</ele>
        <time>2021-05-31T08:58:20.000Z</time>
      </trkpt>
      <trkpt lat="44.12107" lon="5.37851">
        <ele>909</ele>
        <time>2021-05-31T08:58:22.000Z</time>
      </trkpt>
      <trkpt lat="44.1212" lon="5.37818">
        <ele>910.6</ele>
        <time>2021-05-31T08:58:27.000Z</time>
      </trkpt>
      <trkpt lat="44.12128" lon="5.37787">
        <ele>911.8</ele>
        <time>2021-05-31T08:58:31.000Z</time>
      </trkpt>
      <trkpt lat="44.12136" lon="5.37755">
        <ele>913</ele>
        <time>2021-05-31T08:58:34.000Z</time>
      </trkpt>
      <trkpt lat="44.12144" lon="5.37724">
        <ele>914.2</ele>
        <time>2021-05-31T08:58:38.000Z</time>
      </trkpt>
      <trkpt lat="44.12153" lon="5.37683">
        <ele>915.8</ele>
        <time>2021-05-31T08:58:43.000Z</time>
      </trkpt>
      <trkpt lat="44.1216" lon="5.37661">
        <ele>917.5</ele>
        <time>2021-05-31T08:58:47.000Z</time>
      </trkpt>
      <trkpt lat="44.12167" lon="5.37638">
        <ele>919.2</ele>
        <time>2021-05-31T08:58:51.000Z</time>
      </trkpt>
      <trkpt lat="44.12177" lon="5.37618">
        <ele>920.2</ele>
        <time>2021-05-31T08:58:54.000Z</time>
      </trkpt>
      <trkpt lat="44.12186" lon="5.37597">
        <ele>921.2</ele>
        <time>2021-05-31T08:58:57.000Z</time>
      </trkpt>
      <trkpt lat="44.12198" lon="5.37577">
        <ele>921.8</ele>
        <time>2021-05-31T08:58:59.000Z</time>
      </trkpt>
      <trkpt lat="44.1221" lon="5.37556">
        <ele>922.4</ele>
        <time>2021-05-31T08:59:01.000Z</time>
      </trkpt>
      <trkpt lat="44.12225" lon="5.37536">
        <ele>923.5</ele>
        <time>2021-05-31T08:59:05.000Z</time>
      </trkpt>
      <trkpt lat="44.12239" lon="5.37516">
        <ele>924.7</ele>
        <time>2021-05-31T08:59:08.000Z</time>
      </trkpt>
      <trkpt lat="44.12254" lon="5.37496">
        <ele>925.9</ele>
        <time>2021-05-31T08:59:12.000Z</time>
      </trkpt>
      <trkpt lat="44.12273" lon="5.37473">
        <ele>927.4</ele>
        <time>2021-05-31T08:59:16.000Z</time>
      </trkpt>
      <trkpt lat="44.12291" lon="5.37449">
        <ele>928.9</ele>
        <time>2021-05-31T08:59:20.000Z</time>
      </trkpt>
      <trkpt lat="44.12308" lon="5.3743">
        <ele>930.4</ele>
        <time>2021-05-31T08:59:24.000Z</time>
      </trkpt>
      <trkpt lat="44.12326" lon="5.37411">
        <ele>932</ele>
        <time>2021-05-31T08:59:28.000Z</time>
      </trkpt>
      <trkpt lat="44.12343" lon="5.37391">
        <ele>933.6</ele>
        <time>2021-05-31T08:59:32.000Z</time>
      </trkpt>
      <trkpt lat="44.1236" lon="5.37372">
        <ele>935.1</ele>
        <time>2021-05-31T08:59:36.000Z</time>
      </trkpt>
      <trkpt lat="44.12377" lon="5.37358">
        <ele>935.9</ele>
        <time>2021-05-31T08:59:39.000Z</time>
      </trkpt>
      <trkpt lat="44.12394" lon="5.37343">
        <ele>936.6</ele>
        <time>2021-05-31T08:59:42.000Z</time>
      </trkpt>
      <trkpt lat="44.12413" lon="5.37332">
        <ele>937.3</ele>
        <time>2021-05-31T08:59:44.000Z</time>
      </trkpt>
      <trkpt lat="44.12432" lon="5.3732">
        <ele>938.3</ele>
        <time>2021-05-31T08:59:47.000Z</time>
      </trkpt>
      <trkpt lat="44.12445" lon="5.37314">
        <ele>939.9</ele>
        <time>2021-05-31T08:59:51.000Z</time>
      </trkpt>
      <trkpt lat="44.12472" lon="5.37307">
        <ele>941.1</ele>
        <time>2021-05-31T08:59:55.000Z</time>
      </trkpt>
      <trkpt lat="44.12499" lon="5.37303">
        <ele>942.8</ele>
        <time>2021-05-31T09:00:00.000Z</time>
      </trkpt>
      <trkpt lat="44.12519" lon="5.37302">
        <ele>944</ele>
        <time>2021-05-31T09:00:03.000Z</time>
      </trkpt>
      <trkpt lat="44.1254" lon="5.37301">
        <ele>945.2</ele>
        <time>2021-05-31T09:00:06.000Z</time>
      </trkpt>
      <trkpt lat="44.1256" lon="5.373">
        <ele>946.4</ele>
        <time>2021-05-31T09:00:10.000Z</time>
      </trkpt>
      <trkpt lat="44.1258" lon="5.37299">
        <ele>947.6</ele>
        <time>2021-05-31T09:00:13.000Z</time>
      </trkpt>
      <trkpt lat="44.12602" lon="5.373">
        <ele>949.1</ele>
        <time>2021-05-31T09:00:17.000Z</time>
      </trkpt>
      <trkpt lat="44.12623" lon="5.37302">
        <ele>950.6</ele>
        <time>2021-05-31T09:00:21.000Z</time>
      </trkpt>
      <trkpt lat="44.12645" lon="5.37303">
        <ele>952.1</ele>
        <time>2021-05-31T09:00:25.000Z</time>
      </trkpt>
      <trkpt lat="44.12672" lon="5.37307">
        <ele>953.7</ele>
        <time>2021-05-31T09:00:30.000Z</time>
      </trkpt>
      <trkpt lat="44.12699" lon="5.37314">
        <ele>955.2</ele>
        <time>2021-05-31T09:00:34.000Z</time>
      </trkpt>
      <trkpt lat="44.12722" lon="5.37321">
        <ele>956.2</ele>
        <time>2021-05-31T09:00:38.000Z</time>
      </trkpt>
      <trkpt lat="44.12746" lon="5.37329">
        <ele>957.3</ele>
        <time>2021-05-31T09:00:41.000Z</time>
      </trkpt>
      <trkpt lat="44.12769" lon="5.37336">
        <ele>959.1</ele>
        <time>2021-05-31T09:00:46.000Z</time>
      </trkpt>
      <trkpt lat="44.12792" lon="5.37344">
        <ele>960.9</ele>
        <time>2021-05-31T09:00:50.000Z</time>
      </trkpt>
      <trkpt lat="44.12819" lon="5.3735">
        <ele>962.1</ele>
        <time>2021-05-31T09:00:54.000Z</time>
      </trkpt>
      <trkpt lat="44.12844" lon="5.37352">
        <ele>963.3</ele>
        <time>2021-05-31T09:00:58.000Z</time>
      </trkpt>
      <trkpt lat="44.12871" lon="5.37352">
        <ele>964.7</ele>
        <time>2021-05-31T09:01:02.000Z</time>
      </trkpt>
      <trkpt lat="44.12897" lon="5.37351">
        <ele>966.1</ele>
        <time>2021-05-31T09:01:06.000Z</time>
      </trkpt>
      <trkpt lat="44.12924" lon="5.37348">
        <ele>968</ele>
        <time>2021-05-31T09:01:11.000Z</time>
      </trkpt>
      <trkpt lat="44.12949" lon="5.37342">
        <ele>969.4</ele>
        <time>2021-05-31T09:01:16.000Z</time>
      </trkpt>
      <trkpt lat="44.12969" lon="5.37333">
        <ele>970.6</ele>
        <time>2021-05-31T09:01:19.000Z</time>
      </trkpt>
      <trkpt lat="44.12988" lon="5.37324">
        <ele>971.9</ele>
        <time>2021-05-31T09:01:23.000Z</time>
      </trkpt>
      <trkpt lat="44.13008" lon="5.37315">
        <ele>973.2</ele>
        <time>2021-05-31T09:01:26.000Z</time>
      </trkpt>
      <trkpt lat="44.13033" lon="5.37311">
        <ele>975.1</ele>
        <time>2021-05-31T09:01:31.000Z</time>
      </trkpt>
      <trkpt lat="44.13045" lon="5.37312">
        <ele>976.4</ele>
        <time>2021-05-31T09:01:34.000Z</time>
      </trkpt>
      <trkpt lat="44.13072" lon="5.37319">
        <ele>978.3</ele>
        <time>2021-05-31T09:01:39.000Z</time>
      </trkpt>
      <trkpt lat="44.13098" lon="5.37326">
        <ele>980</ele>
        <time>2021-05-31T09:01:44.000Z</time>
      </trkpt>
      <trkpt lat="44.13117" lon="5.37333">
        <ele>981.2</ele>
        <time>2021-05-31T09:01:47.000Z</time>
      </trkpt>
      <trkpt lat="44.13135" lon="5.37341">
        <ele>982.4</ele>
        <time>2021-05-31T09:01:50.000Z</time>
      </trkpt>
      <trkpt lat="44.13159" lon="5.37354">
        <ele>983.7</ele>
        <time>2021-05-31T09:01:54.000Z</time>
      </trkpt>
      <trkpt lat="44.13182" lon="5.37367">
        <ele>985.1</ele>
        <time>2021-05-31T09:01:58.000Z</time>
      </trkpt>
      <trkpt lat="44.13206" lon="5.37379">
        <ele>986.5</ele>
        <time>2021-05-31T09:02:03.000Z</time>
      </trkpt>
      <trkpt lat="44.13229" lon="5.37392">
        <ele>988.1</ele>
        <time>2021-05-31T09:02:07.000Z</time>
      </trkpt>
      <trkpt lat="44.13253" lon="5.37405">
        <ele>989.7</ele>
        <time>2021-05-31T09:02:11.000Z</time>
      </trkpt>
      <trkpt lat="44.13276" lon="5.37418">
        <ele>991.4</ele>
        <time>2021-05-31T09:02:16.000Z</time>
      </trkpt>
      <trkpt lat="44.13295" lon="5.37425">
        <ele>992.9</ele>
        <time>2021-05-31T09:02:20.000Z</time>
      </trkpt>
      <trkpt lat="44.13314" lon="5.37433">
        <ele>994.3</ele>
        <time>2021-05-31T09:02:23.000Z</time>
      </trkpt>
      <trkpt lat="44.1334" lon="5.37439">
        <ele>995.3</ele>
        <time>2021-05-31T09:02:27.000Z</time>
      </trkpt>
      <trkpt lat="44.13365" lon="5.37446">
        <ele>996.3</ele>
        <time>2021-05-31T09:02:30.000Z</time>
      </trkpt>
      <trkpt lat="44.13391" lon="5.3745">
        <ele>998.7</ele>
        <time>2021-05-31T09:02:36.000Z</time>
      </trkpt>
      <trkpt lat="44.13404" lon="5.37449">
        <ele>1000.2</ele>
        <time>2021-05-31T09:02:40.000Z</time>
      </trkpt>
      <trkpt lat="44.13437" lon="5.37441">
        <ele>1001.3</ele>
        <time>2021-05-31T09:02:44.000Z</time>
      </trkpt>
      <trkpt lat="44.13458" lon="5.37435">
        <ele>1002.4</ele>
        <time>2021-05-31T09:02:47.000Z</time>
      </trkpt>
      <trkpt lat="44.1348" lon="5.37428">
        <ele>1003.6</ele>
        <time>2021-05-31T09:02:51.000Z</time>
      </trkpt>
      <trkpt lat="44.13501" lon="5.37422">
        <ele>1004.8</ele>
        <time>2021-05-31T09:02:54.000Z</time>
      </trkpt>
      <trkpt lat="44.13521" lon="5.37417">
        <ele>1006.2</ele>
        <time>2021-05-31T09:02:58.000Z</time>
      </trkpt>
      <trkpt lat="44.13541" lon="5.37413">
        <ele>1007.7</ele>
        <time>2021-05-31T09:03:02.000Z</time>
      </trkpt>
      <trkpt lat="44.1356" lon="5.37408">
        <ele>1009.1</ele>
        <time>2021-05-31T09:03:06.000Z</time>
      </trkpt>
      <trkpt lat="44.1358" lon="5.37403">
        <ele>1010.7</ele>
        <time>2021-05-31T09:03:09.000Z</time>
      </trkpt>
      <trkpt lat="44.13597" lon="5.37401">
        <ele>1012.3</ele>
        <time>2021-05-31T09:03:13.000Z</time>
      </trkpt>
      <trkpt lat="44.13613" lon="5.37398">
        <ele>1013.9</ele>
        <time>2021-05-31T09:03:17.000Z</time>
      </trkpt>
      <trkpt lat="44.1363" lon="5.37396">
        <ele>1015.5</ele>
        <time>2021-05-31T09:03:21.000Z</time>
      </trkpt>
      <trkpt lat="44.13636" lon="5.37392">
        <ele>1016</ele>
        <time>2021-05-31T09:03:22.000Z</time>
      </trkpt>
      <trkpt lat="44.13645" lon="5.37378">
        <ele>1016.8</ele>
        <time>2021-05-31T09:03:24.000Z</time>
      </trkpt>
      <trkpt lat="44.13646" lon="5.37367">
        <ele>1017.7</ele>
        <time>2021-05-31T09:03:26.000Z</time>
      </trkpt>
      <trkpt lat="44.1364" lon="5.37349">
        <ele>1019.3</ele>
        <time>2021-05-31T09:03:30.000Z</time>
      </trkpt>
      <trkpt lat="44.13634" lon="5.37343">
        <ele>1020.6</ele>
        <time>2021-05-31T09:03:33.000Z</time>
      </trkpt>
      <trkpt lat="44.13615" lon="5.37333">
        <ele>1021.9</ele>
        <time>2021-05-31T09:03:36.000Z</time>
      </trkpt>
      <trkpt lat="44.13596" lon="5.37324">
        <ele>1022.9</ele>
        <time>2021-05-31T09:03:39.000Z</time>
      </trkpt>
      <trkpt lat="44.13569" lon="5.37304">
        <ele>1024.7</ele>
        <time>2021-05-31T09:03:44.000Z</time>
      </trkpt>
      <trkpt lat="44.13552" lon="5.37285">
        <ele>1026.3</ele>
        <time>2021-05-31T09:03:48.000Z</time>
      </trkpt>
      <trkpt lat="44.13534" lon="5.3726">
        <ele>1027.4</ele>
        <time>2021-05-31T09:03:52.000Z</time>
      </trkpt>
      <trkpt lat="44.13515" lon="5.37235">
        <ele>1028.4</ele>
        <time>2021-05-31T09:03:56.000Z</time>
      </trkpt>
      <trkpt lat="44.13498" lon="5.37213">
        <ele>1029.4</ele>
        <time>2021-05-31T09:03:59.000Z</time>
      </trkpt>
      <trkpt lat="44.1348" lon="5.3719">
        <ele>1030.4</ele>
        <time>2021-05-31T09:04:02.000Z</time>
      </trkpt>
      <trkpt lat="44.13463" lon="5.37168">
        <ele>1030.9</ele>
        <time>2021-05-31T09:04:05.000Z</time>
      </trkpt>
      <trkpt lat="44.13445" lon="5.37146">
        <ele>1031.4</ele>
        <time>2021-05-31T09:04:08.000Z</time>
      </trkpt>
      <trkpt lat="44.13438" lon="5.37135">
        <ele>1031.8</ele>
        <time>2021-05-31T09:04:09.000Z</time>
      </trkpt>
      <trkpt lat="44.13435" lon="5.37126">
        <ele>1032.1</ele>
        <time>2021-05-31T09:04:10.000Z</time>
      </trkpt>
      <trkpt lat="44.13433" lon="5.37106">
        <ele>1032.7</ele>
        <time>2021-05-31T09:04:12.000Z</time>
      </trkpt>
      <trkpt lat="44.13435" lon="5.37095">
        <ele>1033</ele>
        <time>2021-05-31T09:04:13.000Z</time>
      </trkpt>
      <trkpt lat="44.13439" lon="5.37085">
        <ele>1033.3</ele>
        <time>2021-05-31T09:04:15.000Z</time>
      </trkpt>
      <trkpt lat="44.13445" lon="5.37076">
        <ele>1033.7</ele>
        <time>2021-05-31T09:04:16.000Z</time>
      </trkpt>
      <trkpt lat="44.13462" lon="5.3706">
        <ele>1034.3</ele>
        <time>2021-05-31T09:04:18.000Z</time>
      </trkpt>
      <trkpt lat="44.13484" lon="5.37044">
        <ele>1035.3</ele>
        <time>2021-05-31T09:04:22.000Z</time>
      </trkpt>
      <trkpt lat="44.13507" lon="5.37028">
        <ele>1036.4</ele>
        <time>2021-05-31T09:04:25.000Z</time>
      </trkpt>
      <trkpt lat="44.13529" lon="5.37012">
        <ele>1037.6</ele>
        <time>2021-05-31T09:04:29.000Z</time>
      </trkpt>
      <trkpt lat="44.13543" lon="5.37001">
        <ele>1039</ele>
        <time>2021-05-31T09:04:32.000Z</time>
      </trkpt>
      <trkpt lat="44.13558" lon="5.36991">
        <ele>1040.5</ele>
        <time>2021-05-31T09:04:36.000Z</time>
      </trkpt>
      <trkpt lat="44.13572" lon="5.3698">
        <ele>1041.9</ele>
        <time>2021-05-31T09:04:40.000Z</time>
      </trkpt>
      <trkpt lat="44.13602" lon="5.36962">
        <ele>1043.6</ele>
        <time>2021-05-31T09:04:45.000Z</time>
      </trkpt>
      <trkpt lat="44.13622" lon="5.36954">
        <ele>1046.1</ele>
        <time>2021-05-31T09:04:50.000Z</time>
      </trkpt>
      <trkpt lat="44.13645" lon="5.36949">
        <ele>1048.1</ele>
        <time>2021-05-31T09:04:55.000Z</time>
      </trkpt>
      <trkpt lat="44.13668" lon="5.36943">
        <ele>1050</ele>
        <time>2021-05-31T09:05:00.000Z</time>
      </trkpt>
      <trkpt lat="44.1369" lon="5.36936">
        <ele>1051.9</ele>
        <time>2021-05-31T09:05:04.000Z</time>
      </trkpt>
      <trkpt lat="44.13712" lon="5.36929">
        <ele>1053.8</ele>
        <time>2021-05-31T09:05:09.000Z</time>
      </trkpt>
      <trkpt lat="44.13741" lon="5.36914">
        <ele>1055.2</ele>
        <time>2021-05-31T09:05:14.000Z</time>
      </trkpt>
      <trkpt lat="44.13769" lon="5.36892">
        <ele>1056.7</ele>
        <time>2021-05-31T09:05:18.000Z</time>
      </trkpt>
      <trkpt lat="44.13784" lon="5.36875">
        <ele>1058.2</ele>
        <time>2021-05-31T09:05:22.000Z</time>
      </trkpt>
      <trkpt lat="44.13798" lon="5.36858">
        <ele>1059.7</ele>
        <time>2021-05-31T09:05:26.000Z</time>
      </trkpt>
      <trkpt lat="44.13813" lon="5.36841">
        <ele>1061.3</ele>
        <time>2021-05-31T09:05:30.000Z</time>
      </trkpt>
      <trkpt lat="44.13827" lon="5.36824">
        <ele>1062.8</ele>
        <time>2021-05-31T09:05:34.000Z</time>
      </trkpt>
      <trkpt lat="44.13837" lon="5.36815">
        <ele>1063.7</ele>
        <time>2021-05-31T09:05:36.000Z</time>
      </trkpt>
      <trkpt lat="44.1386" lon="5.36801">
        <ele>1064.7</ele>
        <time>2021-05-31T09:05:39.000Z</time>
      </trkpt>
      <trkpt lat="44.13883" lon="5.3679">
        <ele>1065.8</ele>
        <time>2021-05-31T09:05:43.000Z</time>
      </trkpt>
      <trkpt lat="44.13907" lon="5.36783">
        <ele>1067.9</ele>
        <time>2021-05-31T09:05:48.000Z</time>
      </trkpt>
      <trkpt lat="44.13927" lon="5.36784">
        <ele>1069.1</ele>
        <time>2021-05-31T09:05:51.000Z</time>
      </trkpt>
      <trkpt lat="44.13946" lon="5.36785">
        <ele>1070.2</ele>
        <time>2021-05-31T09:05:55.000Z</time>
      </trkpt>
      <trkpt lat="44.13963" lon="5.36787">
        <ele>1071.7</ele>
        <time>2021-05-31T09:05:58.000Z</time>
      </trkpt>
      <trkpt lat="44.13979" lon="5.3679">
        <ele>1073.1</ele>
        <time>2021-05-31T09:06:02.000Z</time>
      </trkpt>
      <trkpt lat="44.13996" lon="5.36792">
        <ele>1074.6</ele>
        <time>2021-05-31T09:06:05.000Z</time>
      </trkpt>
      <trkpt lat="44.14022" lon="5.36801">
        <ele>1076.3</ele>
        <time>2021-05-31T09:06:10.000Z</time>
      </trkpt>
      <trkpt lat="44.14047" lon="5.36811">
        <ele>1077.9</ele>
        <time>2021-05-31T09:06:15.000Z</time>
      </trkpt>
      <trkpt lat="44.14065" lon="5.36822">
        <ele>1079.5</ele>
        <time>2021-05-31T09:06:18.000Z</time>
      </trkpt>
      <trkpt lat="44.14083" lon="5.36834">
        <ele>1081</ele>
        <time>2021-05-31T09:06:22.000Z</time>
      </trkpt>
      <trkpt lat="44.14099" lon="5.36848">
        <ele>1082.1</ele>
        <time>2021-05-31T09:06:26.000Z</time>
      </trkpt>
      <trkpt lat="44.14115" lon="5.36862">
        <ele>1083.3</ele>
        <time>2021-05-31T09:06:29.000Z</time>
      </trkpt>
      <trkpt lat="44.14133" lon="5.36885">
        <ele>1085</ele>
        <time>2021-05-31T09:06:33.000Z</time>
      </trkpt>
      <trkpt lat="44.1415" lon="5.36909">
        <ele>1086.8</ele>
        <time>2021-05-31T09:06:38.000Z</time>
      </trkpt>
      <trkpt lat="44.14166" lon="5.36938">
        <ele>1088.9</ele>
        <time>2021-05-31T09:06:43.000Z</time>
      </trkpt>
      <trkpt lat="44.14179" lon="5.36969">
        <ele>1090.7</ele>
        <time>2021-05-31T09:06:48.000Z</time>
      </trkpt>
      <trkpt lat="44.14184" lon="5.36985">
        <ele>1091.7</ele>
        <time>2021-05-31T09:06:50.000Z</time>
      </trkpt>
      <trkpt lat="44.14191" lon="5.37035">
        <ele>1092.9</ele>
        <time>2021-05-31T09:06:55.000Z</time>
      </trkpt>
      <trkpt lat="44.14195" lon="5.37047">
        <ele>1093.3</ele>
        <time>2021-05-31T09:06:56.000Z</time>
      </trkpt>
      <trkpt lat="44.14201" lon="5.37057">
        <ele>1093.7</ele>
        <time>2021-05-31T09:06:58.000Z</time>
      </trkpt>
      <trkpt lat="44.14209" lon="5.37063">
        <ele>1094.1</ele>
        <time>2021-05-31T09:06:59.000Z</time>
      </trkpt>
      <trkpt lat="44.14219" lon="5.37064">
        <ele>1094.6</ele>
        <time>2021-05-31T09:07:01.000Z</time>
      </trkpt>
      <trkpt lat="44.14229" lon="5.3706">
        <ele>1095</ele>
        <time>2021-05-31T09:07:02.000Z</time>
      </trkpt>
      <trkpt lat="44.14238" lon="5.37051">
        <ele>1095.3</ele>
        <time>2021-05-31T09:07:03.000Z</time>
      </trkpt>
      <trkpt lat="44.14254" lon="5.3703">
        <ele>1096.1</ele>
        <time>2021-05-31T09:07:06.000Z</time>
      </trkpt>
      <trkpt lat="44.14263" lon="5.37002">
        <ele>1097.8</ele>
        <time>2021-05-31T09:07:11.000Z</time>
      </trkpt>
      <trkpt lat="44.14266" lon="5.36962">
        <ele>1098.9</ele>
        <time>2021-05-31T09:07:14.000Z</time>
      </trkpt>
      <trkpt lat="44.14269" lon="5.36923">
        <ele>1099.9</ele>
        <time>2021-05-31T09:07:18.000Z</time>
      </trkpt>
      <trkpt lat="44.14271" lon="5.36896">
        <ele>1101.4</ele>
        <time>2021-05-31T09:07:22.000Z</time>
      </trkpt>
      <trkpt lat="44.14273" lon="5.3687">
        <ele>1103</ele>
        <time>2021-05-31T09:07:26.000Z</time>
      </trkpt>
      <trkpt lat="44.14275" lon="5.36843">
        <ele>1104.6</ele>
        <time>2021-05-31T09:07:30.000Z</time>
      </trkpt>
      <trkpt lat="44.1428" lon="5.3682">
        <ele>1105.7</ele>
        <time>2021-05-31T09:07:33.000Z</time>
      </trkpt>
      <trkpt lat="44.14285" lon="5.36796">
        <ele>1106.7</ele>
        <time>2021-05-31T09:07:36.000Z</time>
      </trkpt>
      <trkpt lat="44.14299" lon="5.36767">
        <ele>1107.6</ele>
        <time>2021-05-31T09:07:39.000Z</time>
      </trkpt>
      <trkpt lat="44.14316" lon="5.36739">
        <ele>1108.6</ele>
        <time>2021-05-31T09:07:43.000Z</time>
      </trkpt>
      <trkpt lat="44.14326" lon="5.36727">
        <ele>1109.2</ele>
        <time>2021-05-31T09:07:45.000Z</time>
      </trkpt>
      <trkpt lat="44.14353" lon="5.367">
        <ele>1110.3</ele>
        <time>2021-05-31T09:07:49.000Z</time>
      </trkpt>
      <trkpt lat="44.14376" lon="5.36681">
        <ele>1112.2</ele>
        <time>2021-05-31T09:07:54.000Z</time>
      </trkpt>
      <trkpt lat="44.144" lon="5.36667">
        <ele>1113.1</ele>
        <time>2021-05-31T09:07:57.000Z</time>
      </trkpt>
      <trkpt lat="44.14424" lon="5.36658">
        <ele>1115.1</ele>
        <time>2021-05-31T09:08:02.000Z</time>
      </trkpt>
      <trkpt lat="44.1445" lon="5.36653">
        <ele>1116.1</ele>
        <time>2021-05-31T09:08:06.000Z</time>
      </trkpt>
      <trkpt lat="44.14477" lon="5.36651">
        <ele>1117.6</ele>
        <time>2021-05-31T09:08:10.000Z</time>
      </trkpt>
      <trkpt lat="44.14499" lon="5.36654">
        <ele>1119.1</ele>
        <time>2021-05-31T09:08:14.000Z</time>
      </trkpt>
      <trkpt lat="44.14521" lon="5.36657">
        <ele>1120.6</ele>
        <time>2021-05-31T09:08:18.000Z</time>
      </trkpt>
      <trkpt lat="44.14543" lon="5.36661">
        <ele>1122.1</ele>
        <time>2021-05-31T09:08:22.000Z</time>
      </trkpt>
      <trkpt lat="44.14565" lon="5.36664">
        <ele>1123.6</ele>
        <time>2021-05-31T09:08:26.000Z</time>
      </trkpt>
      <trkpt lat="44.14577" lon="5.3666">
        <ele>1124.4</ele>
        <time>2021-05-31T09:08:28.000Z</time>
      </trkpt>
      <trkpt lat="44.14583" lon="5.36645">
        <ele>1125.1</ele>
        <time>2021-05-31T09:08:31.000Z</time>
      </trkpt>
      <trkpt lat="44.14583" lon="5.36635">
        <ele>1125.5</ele>
        <time>2021-05-31T09:08:32.000Z</time>
      </trkpt>
      <trkpt lat="44.14579" lon="5.36621">
        <ele>1126</ele>
        <time>2021-05-31T09:08:33.000Z</time>
      </trkpt>
      <trkpt lat="44.14566" lon="5.36594">
        <ele>1126.9</ele>
        <time>2021-05-31T09:08:36.000Z</time>
      </trkpt>
      <trkpt lat="44.14554" lon="5.36568">
        <ele>1127.7</ele>
        <time>2021-05-31T09:08:39.000Z</time>
      </trkpt>
      <trkpt lat="44.14541" lon="5.36541">
        <ele>1128.5</ele>
        <time>2021-05-31T09:08:42.000Z</time>
      </trkpt>
      <trkpt lat="44.14526" lon="5.36506">
        <ele>1129.6</ele>
        <time>2021-05-31T09:08:46.000Z</time>
      </trkpt>
      <trkpt lat="44.14511" lon="5.36472">
        <ele>1130.7</ele>
        <time>2021-05-31T09:08:50.000Z</time>
      </trkpt>
      <trkpt lat="44.14506" lon="5.36448">
        <ele>1131.6</ele>
        <time>2021-05-31T09:08:53.000Z</time>
      </trkpt>
      <trkpt lat="44.14506" lon="5.36424">
        <ele>1132.7</ele>
        <time>2021-05-31T09:08:56.000Z</time>
      </trkpt>
      <trkpt lat="44.14509" lon="5.36412">
        <ele>1133.1</ele>
        <time>2021-05-31T09:08:57.000Z</time>
      </trkpt>
      <trkpt lat="44.1452" lon="5.3639">
        <ele>1133.8</ele>
        <time>2021-05-31T09:09:00.000Z</time>
      </trkpt>
      <trkpt lat="44.14537" lon="5.3637">
        <ele>1135</ele>
        <time>2021-05-31T09:09:03.000Z</time>
      </trkpt>
      <trkpt lat="44.14553" lon="5.3635">
        <ele>1136.3</ele>
        <time>2021-05-31T09:09:07.000Z</time>
      </trkpt>
      <trkpt lat="44.1458" lon="5.36321">
        <ele>1137.2</ele>
        <time>2021-05-31T09:09:11.000Z</time>
      </trkpt>
      <trkpt lat="44.14593" lon="5.36305">
        <ele>1138.5</ele>
        <time>2021-05-31T09:09:14.000Z</time>
      </trkpt>
      <trkpt lat="44.14598" lon="5.36294">
        <ele>1139.1</ele>
        <time>2021-05-31T09:09:16.000Z</time>
      </trkpt>
      <trkpt lat="44.14602" lon="5.36278">
        <ele>1139.8</ele>
        <time>2021-05-31T09:09:18.000Z</time>
      </trkpt>
      <trkpt lat="44.14603" lon="5.36247">
        <ele>1142</ele>
        <time>2021-05-31T09:09:23.000Z</time>
      </trkpt>
      <trkpt lat="44.14601" lon="5.36212">
        <ele>1143</ele>
        <time>2021-05-31T09:09:27.000Z</time>
      </trkpt>
      <trkpt lat="44.14599" lon="5.36178">
        <ele>1143.8</ele>
        <time>2021-05-31T09:09:30.000Z</time>
      </trkpt>
      <trkpt lat="44.14597" lon="5.36143">
        <ele>1144.7</ele>
        <time>2021-05-31T09:09:33.000Z</time>
      </trkpt>
      <trkpt lat="44.14601" lon="5.36106">
        <ele>1146.5</ele>
        <time>2021-05-31T09:09:38.000Z</time>
      </trkpt>
      <trkpt lat="44.14608" lon="5.36068">
        <ele>1148.1</ele>
        <time>2021-05-31T09:09:43.000Z</time>
      </trkpt>
      <trkpt lat="44.14617" lon="5.36033">
        <ele>1149.5</ele>
        <time>2021-05-31T09:09:47.000Z</time>
      </trkpt>
      <trkpt lat="44.14623" lon="5.36016">
        <ele>1150.6</ele>
        <time>2021-05-31T09:09:50.000Z</time>
      </trkpt>
      <trkpt lat="44.1464" lon="5.35981">
        <ele>1152.1</ele>
        <time>2021-05-31T09:09:54.000Z</time>
      </trkpt>
      <trkpt lat="44.14657" lon="5.35958">
        <ele>1154.1</ele>
        <time>2021-05-31T09:09:59.000Z</time>
      </trkpt>
      <trkpt lat="44.1468" lon="5.35938">
        <ele>1155.5</ele>
        <time>2021-05-31T09:10:03.000Z</time>
      </trkpt>
      <trkpt lat="44.14706" lon="5.35925">
        <ele>1156.8</ele>
        <time>2021-05-31T09:10:08.000Z</time>
      </trkpt>
      <trkpt lat="44.14724" lon="5.3592">
        <ele>1158</ele>
        <time>2021-05-31T09:10:11.000Z</time>
      </trkpt>
      <trkpt lat="44.14743" lon="5.35916">
        <ele>1159.2</ele>
        <time>2021-05-31T09:10:14.000Z</time>
      </trkpt>
      <trkpt lat="44.14761" lon="5.35911">
        <ele>1160.9</ele>
        <time>2021-05-31T09:10:18.000Z</time>
      </trkpt>
      <trkpt lat="44.14768" lon="5.35911">
        <ele>1162.5</ele>
        <time>2021-05-31T09:10:21.000Z</time>
      </trkpt>
      <trkpt lat="44.14775" lon="5.35911">
        <ele>1164</ele>
        <time>2021-05-31T09:10:23.000Z</time>
      </trkpt>
      <trkpt lat="44.14801" lon="5.3592">
        <ele>1165.9</ele>
        <time>2021-05-31T09:10:28.000Z</time>
      </trkpt>
      <trkpt lat="44.14826" lon="5.35929">
        <ele>1167.3</ele>
        <time>2021-05-31T09:10:32.000Z</time>
      </trkpt>
      <trkpt lat="44.14852" lon="5.35937">
        <ele>1168.7</ele>
        <time>2021-05-31T09:10:37.000Z</time>
      </trkpt>
      <trkpt lat="44.14871" lon="5.35944">
        <ele>1170</ele>
        <time>2021-05-31T09:10:40.000Z</time>
      </trkpt>
      <trkpt lat="44.1489" lon="5.35951">
        <ele>1171.3</ele>
        <time>2021-05-31T09:10:44.000Z</time>
      </trkpt>
      <trkpt lat="44.14909" lon="5.35957">
        <ele>1172.7</ele>
        <time>2021-05-31T09:10:47.000Z</time>
      </trkpt>
      <trkpt lat="44.14928" lon="5.35964">
        <ele>1173.9</ele>
        <time>2021-05-31T09:10:51.000Z</time>
      </trkpt>
      <trkpt lat="44.14939" lon="5.35966">
        <ele>1174.3</ele>
        <time>2021-05-31T09:10:52.000Z</time>
      </trkpt>
      <trkpt lat="44.14942" lon="5.35965">
        <ele>1174.5</ele>
        <time>2021-05-31T09:10:53.000Z</time>
      </trkpt>
      <trkpt lat="44.14945" lon="5.35963">
        <ele>1174.7</ele>
        <time>2021-05-31T09:10:53.000Z</time>
      </trkpt>
      <trkpt lat="44.14949" lon="5.35957">
        <ele>1175</ele>
        <time>2021-05-31T09:10:54.000Z</time>
      </trkpt>
      <trkpt lat="44.14953" lon="5.35946">
        <ele>1175.4</ele>
        <time>2021-05-31T09:10:55.000Z</time>
      </trkpt>
      <trkpt lat="44.14952" lon="5.35936">
        <ele>1175.9</ele>
        <time>2021-05-31T09:10:57.000Z</time>
      </trkpt>
      <trkpt lat="44.14949" lon="5.35927">
        <ele>1176.3</ele>
        <time>2021-05-31T09:10:58.000Z</time>
      </trkpt>
      <trkpt lat="44.14928" lon="5.35904">
        <ele>1177.8</ele>
        <time>2021-05-31T09:11:02.000Z</time>
      </trkpt>
      <trkpt lat="44.14906" lon="5.35882">
        <ele>1179.2</ele>
        <time>2021-05-31T09:11:07.000Z</time>
      </trkpt>
      <trkpt lat="44.14899" lon="5.35869">
        <ele>1179.8</ele>
        <time>2021-05-31T09:11:08.000Z</time>
      </trkpt>
      <trkpt lat="44.14894" lon="5.35855">
        <ele>1180.4</ele>
        <time>2021-05-31T09:11:10.000Z</time>
      </trkpt>
      <trkpt lat="44.14888" lon="5.35829">
        <ele>1182.5</ele>
        <time>2021-05-31T09:11:15.000Z</time>
      </trkpt>
      <trkpt lat="44.14882" lon="5.35803">
        <ele>1184.7</ele>
        <time>2021-05-31T09:11:20.000Z</time>
      </trkpt>
      <trkpt lat="44.14876" lon="5.35778">
        <ele>1187</ele>
        <time>2021-05-31T09:11:25.000Z</time>
      </trkpt>
      <trkpt lat="44.1487" lon="5.35752">
        <ele>1189</ele>
        <time>2021-05-31T09:11:29.000Z</time>
      </trkpt>
      <trkpt lat="44.14868" lon="5.35734">
        <ele>1189.5</ele>
        <time>2021-05-31T09:11:31.000Z</time>
      </trkpt>
      <trkpt lat="44.14868" lon="5.35706">
        <ele>1189.8</ele>
        <time>2021-05-31T09:11:33.000Z</time>
      </trkpt>
      <trkpt lat="44.14874" lon="5.3567">
        <ele>1190.3</ele>
        <time>2021-05-31T09:11:36.000Z</time>
      </trkpt>
      <trkpt lat="44.14884" lon="5.3564">
        <ele>1191.8</ele>
        <time>2021-05-31T09:11:41.000Z</time>
      </trkpt>
      <trkpt lat="44.14896" lon="5.35617">
        <ele>1193.1</ele>
        <time>2021-05-31T09:11:44.000Z</time>
      </trkpt>
      <trkpt lat="44.14907" lon="5.35593">
        <ele>1194.2</ele>
        <time>2021-05-31T09:11:48.000Z</time>
      </trkpt>
      <trkpt lat="44.14926" lon="5.35566">
        <ele>1195.6</ele>
        <time>2021-05-31T09:11:52.000Z</time>
      </trkpt>
      <trkpt lat="44.14941" lon="5.3555">
        <ele>1197</ele>
        <time>2021-05-31T09:11:55.000Z</time>
      </trkpt>
      <trkpt lat="44.14957" lon="5.35533">
        <ele>1198.5</ele>
        <time>2021-05-31T09:11:59.000Z</time>
      </trkpt>
      <trkpt lat="44.14972" lon="5.35517">
        <ele>1200</ele>
        <time>2021-05-31T09:12:03.000Z</time>
      </trkpt>
      <trkpt lat="44.14986" lon="5.35507">
        <ele>1201.6</ele>
        <time>2021-05-31T09:12:07.000Z</time>
      </trkpt>
      <trkpt lat="44.15005" lon="5.355">
        <ele>1202.5</ele>
        <time>2021-05-31T09:12:10.000Z</time>
      </trkpt>
      <trkpt lat="44.15029" lon="5.35499">
        <ele>1203.6</ele>
        <time>2021-05-31T09:12:13.000Z</time>
      </trkpt>
      <trkpt lat="44.15041" lon="5.35501">
        <ele>1205.1</ele>
        <time>2021-05-31T09:12:16.000Z</time>
      </trkpt>
      <trkpt lat="44.15051" lon="5.35505">
        <ele>1206.4</ele>
        <time>2021-05-31T09:12:19.000Z</time>
      </trkpt>
      <trkpt lat="44.1507" lon="5.35521">
        <ele>1208.1</ele>
        <time>2021-05-31T09:12:23.000Z</time>
      </trkpt>
      <trkpt lat="44.15093" lon="5.35552">
        <ele>1209.7</ele>
        <time>2021-05-31T09:12:28.000Z</time>
      </trkpt>
      <trkpt lat="44.15106" lon="5.35557">
        <ele>1210.7</ele>
        <time>2021-05-31T09:12:31.000Z</time>
      </trkpt>
      <trkpt lat="44.15111" lon="5.35556">
        <ele>1211.2</ele>
        <time>2021-05-31T09:12:32.000Z</time>
      </trkpt>
      <trkpt lat="44.15116" lon="5.35551">
        <ele>1211.7</ele>
        <time>2021-05-31T09:12:33.000Z</time>
      </trkpt>
      <trkpt lat="44.15125" lon="5.35526">
        <ele>1212.4</ele>
        <time>2021-05-31T09:12:36.000Z</time>
      </trkpt>
      <trkpt lat="44.15132" lon="5.35514">
        <ele>1213.2</ele>
        <time>2021-05-31T09:12:38.000Z</time>
      </trkpt>
      <trkpt lat="44.15144" lon="5.35499">
        <ele>1215.3</ele>
        <time>2021-05-31T09:12:43.000Z</time>
      </trkpt>
      <trkpt lat="44.15166" lon="5.35481">
        <ele>1216.9</ele>
        <time>2021-05-31T09:12:47.000Z</time>
      </trkpt>
      <trkpt lat="44.15188" lon="5.35463">
        <ele>1218.3</ele>
        <time>2021-05-31T09:12:51.000Z</time>
      </trkpt>
      <trkpt lat="44.15203" lon="5.3546">
        <ele>1219.5</ele>
        <time>2021-05-31T09:12:54.000Z</time>
      </trkpt>
      <trkpt lat="44.15211" lon="5.35456">
        <ele>1220</ele>
        <time>2021-05-31T09:12:56.000Z</time>
      </trkpt>
      <trkpt lat="44.15217" lon="5.35449">
        <ele>1220.5</ele>
        <time>2021-05-31T09:12:57.000Z</time>
      </trkpt>
      <trkpt lat="44.15219" lon="5.35443">
        <ele>1221</ele>
        <time>2021-05-31T09:12:58.000Z</time>
      </trkpt>
      <trkpt lat="44.15222" lon="5.35426">
        <ele>1222</ele>
        <time>2021-05-31T09:13:00.000Z</time>
      </trkpt>
      <trkpt lat="44.15219" lon="5.35397">
        <ele>1223.9</ele>
        <time>2021-05-31T09:13:05.000Z</time>
      </trkpt>
      <trkpt lat="44.1522" lon="5.35377">
        <ele>1224.8</ele>
        <time>2021-05-31T09:13:08.000Z</time>
      </trkpt>
      <trkpt lat="44.15226" lon="5.35347">
        <ele>1226.2</ele>
        <time>2021-05-31T09:13:11.000Z</time>
      </trkpt>
      <trkpt lat="44.15232" lon="5.35317">
        <ele>1227.6</ele>
        <time>2021-05-31T09:13:15.000Z</time>
      </trkpt>
      <trkpt lat="44.15242" lon="5.35286">
        <ele>1229.7</ele>
        <time>2021-05-31T09:13:20.000Z</time>
      </trkpt>
      <trkpt lat="44.15255" lon="5.35256">
        <ele>1231.5</ele>
        <time>2021-05-31T09:13:25.000Z</time>
      </trkpt>
      <trkpt lat="44.15268" lon="5.35225">
        <ele>1233.2</ele>
        <time>2021-05-31T09:13:30.000Z</time>
      </trkpt>
      <trkpt lat="44.15277" lon="5.35193">
        <ele>1234.8</ele>
        <time>2021-05-31T09:13:34.000Z</time>
      </trkpt>
      <trkpt lat="44.15278" lon="5.35167">
        <ele>1236.2</ele>
        <time>2021-05-31T09:13:38.000Z</time>
      </trkpt>
      <trkpt lat="44.15279" lon="5.35141">
        <ele>1237.6</ele>
        <time>2021-05-31T09:13:41.000Z</time>
      </trkpt>
      <trkpt lat="44.1528" lon="5.35115">
        <ele>1239</ele>
        <time>2021-05-31T09:13:45.000Z</time>
      </trkpt>
      <trkpt lat="44.15281" lon="5.35089">
        <ele>1240.4</ele>
        <time>2021-05-31T09:13:48.000Z</time>
      </trkpt>
      <trkpt lat="44.15288" lon="5.35058">
        <ele>1241.4</ele>
        <time>2021-05-31T09:13:52.000Z</time>
      </trkpt>
      <trkpt lat="44.15294" lon="5.35044">
        <ele>1242.2</ele>
        <time>2021-05-31T09:13:54.000Z</time>
      </trkpt>
      <trkpt lat="44.15313" lon="5.35019">
        <ele>1243.4</ele>
        <time>2021-05-31T09:13:58.000Z</time>
      </trkpt>
      <trkpt lat="44.15334" lon="5.35003">
        <ele>1245.4</ele>
        <time>2021-05-31T09:14:03.000Z</time>
      </trkpt>
      <trkpt lat="44.15368" lon="5.34996">
        <ele>1247.1</ele>
        <time>2021-05-31T09:14:08.000Z</time>
      </trkpt>
      <trkpt lat="44.15396" lon="5.34993">
        <ele>1247.6</ele>
        <time>2021-05-31T09:14:11.000Z</time>
      </trkpt>
      <trkpt lat="44.15416" lon="5.34995">
        <ele>1248.1</ele>
        <time>2021-05-31T09:14:14.000Z</time>
      </trkpt>
      <trkpt lat="44.15436" lon="5.34998">
        <ele>1248.6</ele>
        <time>2021-05-31T09:14:16.000Z</time>
      </trkpt>
      <trkpt lat="44.15458" lon="5.34997">
        <ele>1248.8</ele>
        <time>2021-05-31T09:14:18.000Z</time>
      </trkpt>
      <trkpt lat="44.15483" lon="5.34985">
        <ele>1248.8</ele>
        <time>2021-05-31T09:14:21.000Z</time>
      </trkpt>
      <trkpt lat="44.15508" lon="5.34972">
        <ele>1248.9</ele>
        <time>2021-05-31T09:14:24.000Z</time>
      </trkpt>
      <trkpt lat="44.15532" lon="5.34958">
        <ele>1249</ele>
        <time>2021-05-31T09:14:26.000Z</time>
      </trkpt>
      <trkpt lat="44.15555" lon="5.34944">
        <ele>1249.1</ele>
        <time>2021-05-31T09:14:29.000Z</time>
      </trkpt>
      <trkpt lat="44.15581" lon="5.34938">
        <ele>1249.2</ele>
        <time>2021-05-31T09:14:31.000Z</time>
      </trkpt>
      <trkpt lat="44.15594" lon="5.34937">
        <ele>1249.2</ele>
        <time>2021-05-31T09:14:33.000Z</time>
      </trkpt>
      <trkpt lat="44.15617" lon="5.34943">
        <ele>1249.4</ele>
        <time>2021-05-31T09:14:35.000Z</time>
      </trkpt>
      <trkpt lat="44.15649" lon="5.34965">
        <ele>1249.9</ele>
        <time>2021-05-31T09:14:39.000Z</time>
      </trkpt>
      <trkpt lat="44.15662" lon="5.3497">
        <ele>1250.2</ele>
        <time>2021-05-31T09:14:41.000Z</time>
      </trkpt>
      <trkpt lat="44.15697" lon="5.34977">
        <ele>1251.3</ele>
        <time>2021-05-31T09:14:45.000Z</time>
      </trkpt>
      <trkpt lat="44.15717" lon="5.34975">
        <ele>1251.7</ele>
        <time>2021-05-31T09:14:47.000Z</time>
      </trkpt>
      <trkpt lat="44.15721" lon="5.34971">
        <ele>1251.9</ele>
        <time>2021-05-31T09:14:48.000Z</time>
      </trkpt>
      <trkpt lat="44.15724" lon="5.34961">
        <ele>1252.3</ele>
        <time>2021-05-31T09:14:49.000Z</time>
      </trkpt>
      <trkpt lat="44.15724" lon="5.3495">
        <ele>1252.8</ele>
        <time>2021-05-31T09:14:51.000Z</time>
      </trkpt>
      <trkpt lat="44.1572" lon="5.34939">
        <ele>1253.2</ele>
        <time>2021-05-31T09:14:52.000Z</time>
      </trkpt>
      <trkpt lat="44.15706" lon="5.34909">
        <ele>1253.6</ele>
        <time>2021-05-31T09:14:55.000Z</time>
      </trkpt>
      <trkpt lat="44.15691" lon="5.34879">
        <ele>1253.9</ele>
        <time>2021-05-31T09:14:58.000Z</time>
      </trkpt>
      <trkpt lat="44.15688" lon="5.34868">
        <ele>1254.2</ele>
        <time>2021-05-31T09:14:59.000Z</time>
      </trkpt>
      <trkpt lat="44.15689" lon="5.34856">
        <ele>1254.5</ele>
        <time>2021-05-31T09:15:00.000Z</time>
      </trkpt>
      <trkpt lat="44.15697" lon="5.34838">
        <ele>1254.8</ele>
        <time>2021-05-31T09:15:02.000Z</time>
      </trkpt>
      <trkpt lat="44.15709" lon="5.34824">
        <ele>1255.1</ele>
        <time>2021-05-31T09:15:04.000Z</time>
      </trkpt>
      <trkpt lat="44.15725" lon="5.34813">
        <ele>1255.4</ele>
        <time>2021-05-31T09:15:06.000Z</time>
      </trkpt>
      <trkpt lat="44.15754" lon="5.34802">
        <ele>1256.7</ele>
        <time>2021-05-31T09:15:10.000Z</time>
      </trkpt>
      <trkpt lat="44.15761" lon="5.34797">
        <ele>1257</ele>
        <time>2021-05-31T09:15:11.000Z</time>
      </trkpt>
      <trkpt lat="44.15767" lon="5.3479">
        <ele>1257.2</ele>
        <time>2021-05-31T09:15:12.000Z</time>
      </trkpt>
      <trkpt lat="44.1577" lon="5.3478">
        <ele>1257.4</ele>
        <time>2021-05-31T09:15:13.000Z</time>
      </trkpt>
      <trkpt lat="44.1577" lon="5.34769">
        <ele>1257.6</ele>
        <time>2021-05-31T09:15:14.000Z</time>
      </trkpt>
      <trkpt lat="44.15766" lon="5.34758">
        <ele>1257.8</ele>
        <time>2021-05-31T09:15:15.000Z</time>
      </trkpt>
      <trkpt lat="44.15759" lon="5.34751">
        <ele>1258</ele>
        <time>2021-05-31T09:15:16.000Z</time>
      </trkpt>
      <trkpt lat="44.15726" lon="5.34736">
        <ele>1259.3</ele>
        <time>2021-05-31T09:15:21.000Z</time>
      </trkpt>
      <trkpt lat="44.15701" lon="5.34728">
        <ele>1260.9</ele>
        <time>2021-05-31T09:15:25.000Z</time>
      </trkpt>
      <trkpt lat="44.15684" lon="5.34717">
        <ele>1261.7</ele>
        <time>2021-05-31T09:15:28.000Z</time>
      </trkpt>
      <trkpt lat="44.15667" lon="5.34707">
        <ele>1262.4</ele>
        <time>2021-05-31T09:15:30.000Z</time>
      </trkpt>
      <trkpt lat="44.15646" lon="5.34688">
        <ele>1264</ele>
        <time>2021-05-31T09:15:34.000Z</time>
      </trkpt>
      <trkpt lat="44.15628" lon="5.34664">
        <ele>1266.2</ele>
        <time>2021-05-31T09:15:40.000Z</time>
      </trkpt>
      <trkpt lat="44.15613" lon="5.34634">
        <ele>1266.8</ele>
        <time>2021-05-31T09:15:43.000Z</time>
      </trkpt>
      <trkpt lat="44.15597" lon="5.34609">
        <ele>1267.3</ele>
        <time>2021-05-31T09:15:46.000Z</time>
      </trkpt>
      <trkpt lat="44.15575" lon="5.34584">
        <ele>1268.4</ele>
        <time>2021-05-31T09:15:50.000Z</time>
      </trkpt>
      <trkpt lat="44.15553" lon="5.3456">
        <ele>1269.8</ele>
        <time>2021-05-31T09:15:54.000Z</time>
      </trkpt>
      <trkpt lat="44.15546" lon="5.34547">
        <ele>1270.7</ele>
        <time>2021-05-31T09:15:56.000Z</time>
      </trkpt>
      <trkpt lat="44.15533" lon="5.34514">
        <ele>1271.8</ele>
        <time>2021-05-31T09:16:00.000Z</time>
      </trkpt>
      <trkpt lat="44.15519" lon="5.34481">
        <ele>1272.8</ele>
        <time>2021-05-31T09:16:03.000Z</time>
      </trkpt>
      <trkpt lat="44.15507" lon="5.3446">
        <ele>1274.1</ele>
        <time>2021-05-31T09:16:07.000Z</time>
      </trkpt>
      <trkpt lat="44.15501" lon="5.34454">
        <ele>1274.8</ele>
        <time>2021-05-31T09:16:09.000Z</time>
      </trkpt>
      <trkpt lat="44.15493" lon="5.34455">
        <ele>1275.3</ele>
        <time>2021-05-31T09:16:10.000Z</time>
      </trkpt>
      <trkpt lat="44.15485" lon="5.3446">
        <ele>1275.6</ele>
        <time>2021-05-31T09:16:11.000Z</time>
      </trkpt>
      <trkpt lat="44.15478" lon="5.3447">
        <ele>1275.8</ele>
        <time>2021-05-31T09:16:12.000Z</time>
      </trkpt>
      <trkpt lat="44.15463" lon="5.34501">
        <ele>1276.4</ele>
        <time>2021-05-31T09:16:15.000Z</time>
      </trkpt>
      <trkpt lat="44.15448" lon="5.34532">
        <ele>1277.1</ele>
        <time>2021-05-31T09:16:19.000Z</time>
      </trkpt>
      <trkpt lat="44.1543" lon="5.34558">
        <ele>1278.2</ele>
        <time>2021-05-31T09:16:22.000Z</time>
      </trkpt>
      <trkpt lat="44.15408" lon="5.34578">
        <ele>1278.9</ele>
        <time>2021-05-31T09:16:26.000Z</time>
      </trkpt>
      <trkpt lat="44.15397" lon="5.34585">
        <ele>1279.3</ele>
        <time>2021-05-31T09:16:27.000Z</time>
      </trkpt>
      <trkpt lat="44.1538" lon="5.34588">
        <ele>1279.7</ele>
        <time>2021-05-31T09:16:29.000Z</time>
      </trkpt>
      <trkpt lat="44.15352" lon="5.3459">
        <ele>1280.1</ele>
        <time>2021-05-31T09:16:32.000Z</time>
      </trkpt>
      <trkpt lat="44.15338" lon="5.34589">
        <ele>1280.4</ele>
        <time>2021-05-31T09:16:34.000Z</time>
      </trkpt>
      <trkpt lat="44.15308" lon="5.3458">
        <ele>1281.1</ele>
        <time>2021-05-31T09:16:37.000Z</time>
      </trkpt>
      <trkpt lat="44.15278" lon="5.34571">
        <ele>1281.8</ele>
        <time>2021-05-31T09:16:41.000Z</time>
      </trkpt>
      <trkpt lat="44.15259" lon="5.34557">
        <ele>1282.2</ele>
        <time>2021-05-31T09:16:44.000Z</time>
      </trkpt>
      <trkpt lat="44.15251" lon="5.34547">
        <ele>1282.7</ele>
        <time>2021-05-31T09:16:45.000Z</time>
      </trkpt>
      <trkpt lat="44.15244" lon="5.34536">
        <ele>1283.1</ele>
        <time>2021-05-31T09:16:47.000Z</time>
      </trkpt>
      <trkpt lat="44.15225" lon="5.34498">
        <ele>1283.8</ele>
        <time>2021-05-31T09:16:50.000Z</time>
      </trkpt>
      <trkpt lat="44.15212" lon="5.34486">
        <ele>1284</ele>
        <time>2021-05-31T09:16:52.000Z</time>
      </trkpt>
      <trkpt lat="44.15203" lon="5.34483">
        <ele>1284.3</ele>
        <time>2021-05-31T09:16:53.000Z</time>
      </trkpt>
      <trkpt lat="44.15191" lon="5.34486">
        <ele>1284.7</ele>
        <time>2021-05-31T09:16:55.000Z</time>
      </trkpt>
      <trkpt lat="44.15182" lon="5.34493">
        <ele>1285</ele>
        <time>2021-05-31T09:16:56.000Z</time>
      </trkpt>
      <trkpt lat="44.15164" lon="5.3452">
        <ele>1285.5</ele>
        <time>2021-05-31T09:16:59.000Z</time>
      </trkpt>
      <trkpt lat="44.15155" lon="5.34528">
        <ele>1285.6</ele>
        <time>2021-05-31T09:17:00.000Z</time>
      </trkpt>
      <trkpt lat="44.15141" lon="5.34536">
        <ele>1285.7</ele>
        <time>2021-05-31T09:17:02.000Z</time>
      </trkpt>
      <trkpt lat="44.15121" lon="5.34541">
        <ele>1285.9</ele>
        <time>2021-05-31T09:17:04.000Z</time>
      </trkpt>
      <trkpt lat="44.15094" lon="5.34538">
        <ele>1286.6</ele>
        <time>2021-05-31T09:17:07.000Z</time>
      </trkpt>
      <trkpt lat="44.15066" lon="5.34536">
        <ele>1287.3</ele>
        <time>2021-05-31T09:17:11.000Z</time>
      </trkpt>
      <trkpt lat="44.1504" lon="5.3453">
        <ele>1287.9</ele>
        <time>2021-05-31T09:17:14.000Z</time>
      </trkpt>
      <trkpt lat="44.15013" lon="5.34524">
        <ele>1288.5</ele>
        <time>2021-05-31T09:17:17.000Z</time>
      </trkpt>
      <trkpt lat="44.14985" lon="5.34512">
        <ele>1289.6</ele>
        <time>2021-05-31T09:17:21.000Z</time>
      </trkpt>
      <trkpt lat="44.14969" lon="5.34498">
        <ele>1290.2</ele>
        <time>2021-05-31T09:17:23.000Z</time>
      </trkpt>
      <trkpt lat="44.14956" lon="5.34482">
        <ele>1291.2</ele>
        <time>2021-05-31T09:17:26.000Z</time>
      </trkpt>
      <trkpt lat="44.14949" lon="5.34476">
        <ele>1291.5</ele>
        <time>2021-05-31T09:17:27.000Z</time>
      </trkpt>
      <trkpt lat="44.14941" lon="5.34474">
        <ele>1291.8</ele>
        <time>2021-05-31T09:17:28.000Z</time>
      </trkpt>
      <trkpt lat="44.14932" lon="5.34477">
        <ele>1292.1</ele>
        <time>2021-05-31T09:17:29.000Z</time>
      </trkpt>
      <trkpt lat="44.14906" lon="5.34495">
        <ele>1292.5</ele>
        <time>2021-05-31T09:17:33.000Z</time>
      </trkpt>
      <trkpt lat="44.14895" lon="5.345">
        <ele>1292.8</ele>
        <time>2021-05-31T09:17:34.000Z</time>
      </trkpt>
      <trkpt lat="44.1486" lon="5.34506">
        <ele>1293.9</ele>
        <time>2021-05-31T09:17:38.000Z</time>
      </trkpt>
      <trkpt lat="44.14834" lon="5.34509">
        <ele>1295</ele>
        <time>2021-05-31T09:17:42.000Z</time>
      </trkpt>
      <trkpt lat="44.14809" lon="5.34511">
        <ele>1296.1</ele>
        <time>2021-05-31T09:17:46.000Z</time>
      </trkpt>
      <trkpt lat="44.14783" lon="5.34514">
        <ele>1297.1</ele>
        <time>2021-05-31T09:17:49.000Z</time>
      </trkpt>
      <trkpt lat="44.14761" lon="5.34515">
        <ele>1297.8</ele>
        <time>2021-05-31T09:17:52.000Z</time>
      </trkpt>
      <trkpt lat="44.14739" lon="5.34515">
        <ele>1298.4</ele>
        <time>2021-05-31T09:17:55.000Z</time>
      </trkpt>
      <trkpt lat="44.14717" lon="5.34516">
        <ele>1299.1</ele>
        <time>2021-05-31T09:17:58.000Z</time>
      </trkpt>
      <trkpt lat="44.14694" lon="5.34514">
        <ele>1300.5</ele>
        <time>2021-05-31T09:18:01.000Z</time>
      </trkpt>
      <trkpt lat="44.14667" lon="5.34508">
        <ele>1301.4</ele>
        <time>2021-05-31T09:18:05.000Z</time>
      </trkpt>
      <trkpt lat="44.1464" lon="5.34503">
        <ele>1302.3</ele>
        <time>2021-05-31T09:18:08.000Z</time>
      </trkpt>
      <trkpt lat="44.1463" lon="5.345">
        <ele>1302.7</ele>
        <time>2021-05-31T09:18:10.000Z</time>
      </trkpt>
      <trkpt lat="44.14612" lon="5.34491">
        <ele>1303.5</ele>
        <time>2021-05-31T09:18:13.000Z</time>
      </trkpt>
      <trkpt lat="44.14587" lon="5.34471">
        <ele>1304.6</ele>
        <time>2021-05-31T09:18:16.000Z</time>
      </trkpt>
      <trkpt lat="44.14571" lon="5.34449">
        <ele>1305.5</ele>
        <time>2021-05-31T09:18:19.000Z</time>
      </trkpt>
      <trkpt lat="44.14556" lon="5.34428">
        <ele>1306.4</ele>
        <time>2021-05-31T09:18:23.000Z</time>
      </trkpt>
      <trkpt lat="44.1454" lon="5.34406">
        <ele>1307.3</ele>
        <time>2021-05-31T09:18:26.000Z</time>
      </trkpt>
      <trkpt lat="44.14527" lon="5.34393">
        <ele>1307.9</ele>
        <time>2021-05-31T09:18:28.000Z</time>
      </trkpt>
      <trkpt lat="44.14519" lon="5.3439">
        <ele>1308.1</ele>
        <time>2021-05-31T09:18:29.000Z</time>
      </trkpt>
      <trkpt lat="44.1451" lon="5.34391">
        <ele>1308.4</ele>
        <time>2021-05-31T09:18:30.000Z</time>
      </trkpt>
      <trkpt lat="44.14501" lon="5.34396">
        <ele>1308.8</ele>
        <time>2021-05-31T09:18:31.000Z</time>
      </trkpt>
      <trkpt lat="44.14479" lon="5.34415">
        <ele>1309.4</ele>
        <time>2021-05-31T09:18:34.000Z</time>
      </trkpt>
      <trkpt lat="44.14458" lon="5.34434">
        <ele>1310</ele>
        <time>2021-05-31T09:18:37.000Z</time>
      </trkpt>
      <trkpt lat="44.14436" lon="5.34452">
        <ele>1310.6</ele>
        <time>2021-05-31T09:18:40.000Z</time>
      </trkpt>
      <trkpt lat="44.14414" lon="5.34471">
        <ele>1311.3</ele>
        <time>2021-05-31T09:18:43.000Z</time>
      </trkpt>
      <trkpt lat="44.14388" lon="5.34487">
        <ele>1311.8</ele>
        <time>2021-05-31T09:18:47.000Z</time>
      </trkpt>
      <trkpt lat="44.14362" lon="5.34503">
        <ele>1312.4</ele>
        <time>2021-05-31T09:18:50.000Z</time>
      </trkpt>
      <trkpt lat="44.14345" lon="5.34511">
        <ele>1313.4</ele>
        <time>2021-05-31T09:18:53.000Z</time>
      </trkpt>
      <trkpt lat="44.14327" lon="5.34519">
        <ele>1314.3</ele>
        <time>2021-05-31T09:18:56.000Z</time>
      </trkpt>
      <trkpt lat="44.14308" lon="5.34523">
        <ele>1314.9</ele>
        <time>2021-05-31T09:18:58.000Z</time>
      </trkpt>
      <trkpt lat="44.14288" lon="5.34526">
        <ele>1315.4</ele>
        <time>2021-05-31T09:19:00.000Z</time>
      </trkpt>
      <trkpt lat="44.14256" lon="5.34528">
        <ele>1316</ele>
        <time>2021-05-31T09:19:04.000Z</time>
      </trkpt>
      <trkpt lat="44.1424" lon="5.34526">
        <ele>1316.4</ele>
        <time>2021-05-31T09:19:06.000Z</time>
      </trkpt>
      <trkpt lat="44.14219" lon="5.34518">
        <ele>1317.1</ele>
        <time>2021-05-31T09:19:09.000Z</time>
      </trkpt>
      <trkpt lat="44.14198" lon="5.3451">
        <ele>1317.8</ele>
        <time>2021-05-31T09:19:12.000Z</time>
      </trkpt>
      <trkpt lat="44.14177" lon="5.34502">
        <ele>1318.4</ele>
        <time>2021-05-31T09:19:14.000Z</time>
      </trkpt>
      <trkpt lat="44.14159" lon="5.34491">
        <ele>1319.1</ele>
        <time>2021-05-31T09:19:17.000Z</time>
      </trkpt>
      <trkpt lat="44.1414" lon="5.34481">
        <ele>1319.7</ele>
        <time>2021-05-31T09:19:19.000Z</time>
      </trkpt>
      <trkpt lat="44.14116" lon="5.34458">
        <ele>1320.5</ele>
        <time>2021-05-31T09:19:23.000Z</time>
      </trkpt>
      <trkpt lat="44.14109" lon="5.34439">
        <ele>1321</ele>
        <time>2021-05-31T09:19:25.000Z</time>
      </trkpt>
      <trkpt lat="44.1411" lon="5.34429">
        <ele>1321.1</ele>
        <time>2021-05-31T09:19:26.000Z</time>
      </trkpt>
      <trkpt lat="44.14117" lon="5.34411">
        <ele>1321.4</ele>
        <time>2021-05-31T09:19:27.000Z</time>
      </trkpt>
      <trkpt lat="44.14132" lon="5.34389">
        <ele>1322.1</ele>
        <time>2021-05-31T09:19:30.000Z</time>
      </trkpt>
      <trkpt lat="44.14147" lon="5.34367">
        <ele>1322.8</ele>
        <time>2021-05-31T09:19:33.000Z</time>
      </trkpt>
      <trkpt lat="44.14162" lon="5.34344">
        <ele>1323.5</ele>
        <time>2021-05-31T09:19:36.000Z</time>
      </trkpt>
      <trkpt lat="44.14177" lon="5.34322">
        <ele>1324.2</ele>
        <time>2021-05-31T09:19:38.000Z</time>
      </trkpt>
      <trkpt lat="44.14191" lon="5.34292">
        <ele>1325.2</ele>
        <time>2021-05-31T09:19:42.000Z</time>
      </trkpt>
      <trkpt lat="44.142" lon="5.34266">
        <ele>1325.7</ele>
        <time>2021-05-31T09:19:44.000Z</time>
      </trkpt>
      <trkpt lat="44.14209" lon="5.34239">
        <ele>1326.2</ele>
        <time>2021-05-31T09:19:47.000Z</time>
      </trkpt>
      <trkpt lat="44.14213" lon="5.34221">
        <ele>1326.8</ele>
        <time>2021-05-31T09:19:49.000Z</time>
      </trkpt>
      <trkpt lat="44.14218" lon="5.34185">
        <ele>1327.7</ele>
        <time>2021-05-31T09:19:52.000Z</time>
      </trkpt>
      <trkpt lat="44.14222" lon="5.34148">
        <ele>1328.6</ele>
        <time>2021-05-31T09:19:56.000Z</time>
      </trkpt>
      <trkpt lat="44.14227" lon="5.34112">
        <ele>1329.4</ele>
        <time>2021-05-31T09:19:59.000Z</time>
      </trkpt>
      <trkpt lat="44.14235" lon="5.34087">
        <ele>1330.2</ele>
        <time>2021-05-31T09:20:02.000Z</time>
      </trkpt>
      <trkpt lat="44.14242" lon="5.34062">
        <ele>1330.9</ele>
        <time>2021-05-31T09:20:04.000Z</time>
      </trkpt>
      <trkpt lat="44.14251" lon="5.34039">
        <ele>1331.7</ele>
        <time>2021-05-31T09:20:07.000Z</time>
      </trkpt>
      <trkpt lat="44.1426" lon="5.34016">
        <ele>1332.4</ele>
        <time>2021-05-31T09:20:09.000Z</time>
      </trkpt>
      <trkpt lat="44.14285" lon="5.3398">
        <ele>1333.6</ele>
        <time>2021-05-31T09:20:14.000Z</time>
      </trkpt>
      <trkpt lat="44.14311" lon="5.33956">
        <ele>1334.7</ele>
        <time>2021-05-31T09:20:18.000Z</time>
      </trkpt>
      <trkpt lat="44.14335" lon="5.33944">
        <ele>1336.1</ele>
        <time>2021-05-31T09:20:22.000Z</time>
      </trkpt>
      <trkpt lat="44.14347" lon="5.3394">
        <ele>1337.2</ele>
        <time>2021-05-31T09:20:25.000Z</time>
      </trkpt>
      <trkpt lat="44.14378" lon="5.33938">
        <ele>1338</ele>
        <time>2021-05-31T09:20:29.000Z</time>
      </trkpt>
      <trkpt lat="44.14408" lon="5.33936">
        <ele>1338.6</ele>
        <time>2021-05-31T09:20:32.000Z</time>
      </trkpt>
      <trkpt lat="44.14423" lon="5.33933">
        <ele>1339.6</ele>
        <time>2021-05-31T09:20:35.000Z</time>
      </trkpt>
      <trkpt lat="44.14439" lon="5.33927">
        <ele>1340.6</ele>
        <time>2021-05-31T09:20:38.000Z</time>
      </trkpt>
      <trkpt lat="44.1446" lon="5.33915">
        <ele>1341</ele>
        <time>2021-05-31T09:20:40.000Z</time>
      </trkpt>
      <trkpt lat="44.14482" lon="5.33903">
        <ele>1341.3</ele>
        <time>2021-05-31T09:20:43.000Z</time>
      </trkpt>
      <trkpt lat="44.14503" lon="5.33891">
        <ele>1342.4</ele>
        <time>2021-05-31T09:20:46.000Z</time>
      </trkpt>
      <trkpt lat="44.14524" lon="5.33879">
        <ele>1343.5</ele>
        <time>2021-05-31T09:20:50.000Z</time>
      </trkpt>
      <trkpt lat="44.14559" lon="5.3387">
        <ele>1344.7</ele>
        <time>2021-05-31T09:20:54.000Z</time>
      </trkpt>
      <trkpt lat="44.14587" lon="5.3387">
        <ele>1345.8</ele>
        <time>2021-05-31T09:20:58.000Z</time>
      </trkpt>
      <trkpt lat="44.14615" lon="5.33869">
        <ele>1346.9</ele>
        <time>2021-05-31T09:21:02.000Z</time>
      </trkpt>
      <trkpt lat="44.1462" lon="5.33865">
        <ele>1347.1</ele>
        <time>2021-05-31T09:21:03.000Z</time>
      </trkpt>
      <trkpt lat="44.14623" lon="5.33859">
        <ele>1347.2</ele>
        <time>2021-05-31T09:21:03.000Z</time>
      </trkpt>
      <trkpt lat="44.14624" lon="5.3385">
        <ele>1347.3</ele>
        <time>2021-05-31T09:21:04.000Z</time>
      </trkpt>
      <trkpt lat="44.14622" lon="5.33843">
        <ele>1347.4</ele>
        <time>2021-05-31T09:21:05.000Z</time>
      </trkpt>
      <trkpt lat="44.14618" lon="5.33839">
        <ele>1347.6</ele>
        <time>2021-05-31T09:21:05.000Z</time>
      </trkpt>
      <trkpt lat="44.14597" lon="5.33825">
        <ele>1348.1</ele>
        <time>2021-05-31T09:21:08.000Z</time>
      </trkpt>
      <trkpt lat="44.14576" lon="5.33812">
        <ele>1348.7</ele>
        <time>2021-05-31T09:21:11.000Z</time>
      </trkpt>
      <trkpt lat="44.14555" lon="5.33798">
        <ele>1349.3</ele>
        <time>2021-05-31T09:21:13.000Z</time>
      </trkpt>
      <trkpt lat="44.14534" lon="5.33785">
        <ele>1350</ele>
        <time>2021-05-31T09:21:16.000Z</time>
      </trkpt>
      <trkpt lat="44.14513" lon="5.33771">
        <ele>1350.6</ele>
        <time>2021-05-31T09:21:19.000Z</time>
      </trkpt>
      <trkpt lat="44.14492" lon="5.33758">
        <ele>1351.4</ele>
        <time>2021-05-31T09:21:22.000Z</time>
      </trkpt>
      <trkpt lat="44.14484" lon="5.3375">
        <ele>1352.1</ele>
        <time>2021-05-31T09:21:24.000Z</time>
      </trkpt>
      <trkpt lat="44.14472" lon="5.33728">
        <ele>1353.2</ele>
        <time>2021-05-31T09:21:27.000Z</time>
      </trkpt>
      <trkpt lat="44.14468" lon="5.33716">
        <ele>1353.4</ele>
        <time>2021-05-31T09:21:28.000Z</time>
      </trkpt>
      <trkpt lat="44.14465" lon="5.33687">
        <ele>1353.7</ele>
        <time>2021-05-31T09:21:31.000Z</time>
      </trkpt>
      <trkpt lat="44.14468" lon="5.33655">
        <ele>1354.7</ele>
        <time>2021-05-31T09:21:34.000Z</time>
      </trkpt>
      <trkpt lat="44.14473" lon="5.33622">
        <ele>1355.3</ele>
        <time>2021-05-31T09:21:37.000Z</time>
      </trkpt>
      <trkpt lat="44.14482" lon="5.33592">
        <ele>1356.4</ele>
        <time>2021-05-31T09:21:40.000Z</time>
      </trkpt>
      <trkpt lat="44.14491" lon="5.33561">
        <ele>1357.4</ele>
        <time>2021-05-31T09:21:44.000Z</time>
      </trkpt>
      <trkpt lat="44.145" lon="5.33531">
        <ele>1358.4</ele>
        <time>2021-05-31T09:21:47.000Z</time>
      </trkpt>
      <trkpt lat="44.14509" lon="5.335">
        <ele>1359.4</ele>
        <time>2021-05-31T09:21:50.000Z</time>
      </trkpt>
      <trkpt lat="44.14519" lon="5.33479">
        <ele>1360.3</ele>
        <time>2021-05-31T09:21:53.000Z</time>
      </trkpt>
      <trkpt lat="44.14529" lon="5.33458">
        <ele>1361.2</ele>
        <time>2021-05-31T09:21:56.000Z</time>
      </trkpt>
      <trkpt lat="44.14538" lon="5.33449">
        <ele>1362</ele>
        <time>2021-05-31T09:21:58.000Z</time>
      </trkpt>
      <trkpt lat="44.14548" lon="5.33443">
        <ele>1362.6</ele>
        <time>2021-05-31T09:22:00.000Z</time>
      </trkpt>
      <trkpt lat="44.14559" lon="5.33441">
        <ele>1363.1</ele>
        <time>2021-05-31T09:22:01.000Z</time>
      </trkpt>
      <trkpt lat="44.14571" lon="5.33441">
        <ele>1363.7</ele>
        <time>2021-05-31T09:22:03.000Z</time>
      </trkpt>
      <trkpt lat="44.14593" lon="5.33443">
        <ele>1364.8</ele>
        <time>2021-05-31T09:22:06.000Z</time>
      </trkpt>
      <trkpt lat="44.14614" lon="5.33446">
        <ele>1365.9</ele>
        <time>2021-05-31T09:22:10.000Z</time>
      </trkpt>
      <trkpt lat="44.14636" lon="5.33448">
        <ele>1367</ele>
        <time>2021-05-31T09:22:13.000Z</time>
      </trkpt>
      <trkpt lat="44.14664" lon="5.33447">
        <ele>1367.7</ele>
        <time>2021-05-31T09:22:16.000Z</time>
      </trkpt>
      <trkpt lat="44.14691" lon="5.33445">
        <ele>1368.4</ele>
        <time>2021-05-31T09:22:20.000Z</time>
      </trkpt>
      <trkpt lat="44.14712" lon="5.3344">
        <ele>1369.7</ele>
        <time>2021-05-31T09:22:23.000Z</time>
      </trkpt>
      <trkpt lat="44.14733" lon="5.33436">
        <ele>1371.1</ele>
        <time>2021-05-31T09:22:27.000Z</time>
      </trkpt>
      <trkpt lat="44.14753" lon="5.33431">
        <ele>1372.6</ele>
        <time>2021-05-31T09:22:31.000Z</time>
      </trkpt>
      <trkpt lat="44.14774" lon="5.33427">
        <ele>1374</ele>
        <time>2021-05-31T09:22:35.000Z</time>
      </trkpt>
      <trkpt lat="44.14795" lon="5.33422">
        <ele>1375.1</ele>
        <time>2021-05-31T09:22:38.000Z</time>
      </trkpt>
      <trkpt lat="44.14816" lon="5.33417">
        <ele>1376.2</ele>
        <time>2021-05-31T09:22:41.000Z</time>
      </trkpt>
      <trkpt lat="44.14836" lon="5.33413">
        <ele>1377.3</ele>
        <time>2021-05-31T09:22:45.000Z</time>
      </trkpt>
      <trkpt lat="44.14857" lon="5.33408">
        <ele>1378.5</ele>
        <time>2021-05-31T09:22:48.000Z</time>
      </trkpt>
      <trkpt lat="44.14883" lon="5.3341">
        <ele>1380.6</ele>
        <time>2021-05-31T09:22:54.000Z</time>
      </trkpt>
      <trkpt lat="44.14904" lon="5.33418">
        <ele>1381.5</ele>
        <time>2021-05-31T09:22:57.000Z</time>
      </trkpt>
      <trkpt lat="44.14924" lon="5.33427">
        <ele>1382.2</ele>
        <time>2021-05-31T09:22:59.000Z</time>
      </trkpt>
      <trkpt lat="44.14933" lon="5.33427">
        <ele>1382.7</ele>
        <time>2021-05-31T09:23:01.000Z</time>
      </trkpt>
      <trkpt lat="44.14939" lon="5.33422">
        <ele>1383</ele>
        <time>2021-05-31T09:23:02.000Z</time>
      </trkpt>
      <trkpt lat="44.14942" lon="5.33414">
        <ele>1383.3</ele>
        <time>2021-05-31T09:23:03.000Z</time>
      </trkpt>
      <trkpt lat="44.14941" lon="5.33403">
        <ele>1383.5</ele>
        <time>2021-05-31T09:23:04.000Z</time>
      </trkpt>
      <trkpt lat="44.14919" lon="5.33366">
        <ele>1384.4</ele>
        <time>2021-05-31T09:23:08.000Z</time>
      </trkpt>
      <trkpt lat="44.14903" lon="5.33333">
        <ele>1385.7</ele>
        <time>2021-05-31T09:23:12.000Z</time>
      </trkpt>
      <trkpt lat="44.14887" lon="5.33301">
        <ele>1386.9</ele>
        <time>2021-05-31T09:23:16.000Z</time>
      </trkpt>
      <trkpt lat="44.14885" lon="5.33282">
        <ele>1387.4</ele>
        <time>2021-05-31T09:23:18.000Z</time>
      </trkpt>
      <trkpt lat="44.14886" lon="5.33275">
        <ele>1387.5</ele>
        <time>2021-05-31T09:23:18.000Z</time>
      </trkpt>
      <trkpt lat="44.14891" lon="5.33271">
        <ele>1387.6</ele>
        <time>2021-05-31T09:23:19.000Z</time>
      </trkpt>
      <trkpt lat="44.14896" lon="5.33269">
        <ele>1387.6</ele>
        <time>2021-05-31T09:23:19.000Z</time>
      </trkpt>
      <trkpt lat="44.14912" lon="5.33267">
        <ele>1387.7</ele>
        <time>2021-05-31T09:23:21.000Z</time>
      </trkpt>
      <trkpt lat="44.14928" lon="5.33262">
        <ele>1387.7</ele>
        <time>2021-05-31T09:23:23.000Z</time>
      </trkpt>
      <trkpt lat="44.14935" lon="5.33258">
        <ele>1387.7</ele>
        <time>2021-05-31T09:23:23.000Z</time>
      </trkpt>
      <trkpt lat="44.14942" lon="5.33239">
        <ele>1387.7</ele>
        <time>2021-05-31T09:23:25.000Z</time>
      </trkpt>
      <trkpt lat="44.14942" lon="5.33222">
        <ele>1387.7</ele>
        <time>2021-05-31T09:23:26.000Z</time>
      </trkpt>
      <trkpt lat="44.14934" lon="5.33181">
        <ele>1387.7</ele>
        <time>2021-05-31T09:23:29.000Z</time>
      </trkpt>
      <trkpt lat="44.14924" lon="5.33149">
        <ele>1387.9</ele>
        <time>2021-05-31T09:23:32.000Z</time>
      </trkpt>
      <trkpt lat="44.14914" lon="5.33117">
        <ele>1388.1</ele>
        <time>2021-05-31T09:23:35.000Z</time>
      </trkpt>
      <trkpt lat="44.14904" lon="5.33085">
        <ele>1388.4</ele>
        <time>2021-05-31T09:23:37.000Z</time>
      </trkpt>
      <trkpt lat="44.14898" lon="5.33057">
        <ele>1388.6</ele>
        <time>2021-05-31T09:23:39.000Z</time>
      </trkpt>
      <trkpt lat="44.14892" lon="5.3303">
        <ele>1388.8</ele>
        <time>2021-05-31T09:23:42.000Z</time>
      </trkpt>
      <trkpt lat="44.14888" lon="5.32999">
        <ele>1389.1</ele>
        <time>2021-05-31T09:23:44.000Z</time>
      </trkpt>
      <trkpt lat="44.14888" lon="5.32982">
        <ele>1389.4</ele>
        <time>2021-05-31T09:23:46.000Z</time>
      </trkpt>
      <trkpt lat="44.14892" lon="5.32947">
        <ele>1389.7</ele>
        <time>2021-05-31T09:23:48.000Z</time>
      </trkpt>
      <trkpt lat="44.14896" lon="5.32912">
        <ele>1389.9</ele>
        <time>2021-05-31T09:23:51.000Z</time>
      </trkpt>
      <trkpt lat="44.14898" lon="5.32869">
        <ele>1390.1</ele>
        <time>2021-05-31T09:23:54.000Z</time>
      </trkpt>
      <trkpt lat="44.14899" lon="5.32826">
        <ele>1390.3</ele>
        <time>2021-05-31T09:23:57.000Z</time>
      </trkpt>
      <trkpt lat="44.14897" lon="5.3281">
        <ele>1390.3</ele>
        <time>2021-05-31T09:23:59.000Z</time>
      </trkpt>
      <trkpt lat="44.14888" lon="5.32779">
        <ele>1390.4</ele>
        <time>2021-05-31T09:24:01.000Z</time>
      </trkpt>
      <trkpt lat="44.14879" lon="5.32748">
        <ele>1390.4</ele>
        <time>2021-05-31T09:24:03.000Z</time>
      </trkpt>
      <trkpt lat="44.14875" lon="5.3272">
        <ele>1390.5</ele>
        <time>2021-05-31T09:24:05.000Z</time>
      </trkpt>
      <trkpt lat="44.14876" lon="5.32707">
        <ele>1390.6</ele>
        <time>2021-05-31T09:24:06.000Z</time>
      </trkpt>
      <trkpt lat="44.1488" lon="5.32695">
        <ele>1390.7</ele>
        <time>2021-05-31T09:24:08.000Z</time>
      </trkpt>
      <trkpt lat="44.14886" lon="5.32686">
        <ele>1390.7</ele>
        <time>2021-05-31T09:24:08.000Z</time>
      </trkpt>
      <trkpt lat="44.14893" lon="5.3268">
        <ele>1390.8</ele>
        <time>2021-05-31T09:24:09.000Z</time>
      </trkpt>
      <trkpt lat="44.14902" lon="5.32679">
        <ele>1390.8</ele>
        <time>2021-05-31T09:24:10.000Z</time>
      </trkpt>
      <trkpt lat="44.14921" lon="5.32683">
        <ele>1390.9</ele>
        <time>2021-05-31T09:24:12.000Z</time>
      </trkpt>
      <trkpt lat="44.14946" lon="5.32696">
        <ele>1390.9</ele>
        <time>2021-05-31T09:24:15.000Z</time>
      </trkpt>
      <trkpt lat="44.14972" lon="5.32709">
        <ele>1391</ele>
        <time>2021-05-31T09:24:18.000Z</time>
      </trkpt>
      <trkpt lat="44.14997" lon="5.32723">
        <ele>1391.3</ele>
        <time>2021-05-31T09:24:20.000Z</time>
      </trkpt>
      <trkpt lat="44.15022" lon="5.32736">
        <ele>1391.7</ele>
        <time>2021-05-31T09:24:23.000Z</time>
      </trkpt>
      <trkpt lat="44.15046" lon="5.32746">
        <ele>1392.2</ele>
        <time>2021-05-31T09:24:26.000Z</time>
      </trkpt>
      <trkpt lat="44.15069" lon="5.32755">
        <ele>1392.7</ele>
        <time>2021-05-31T09:24:29.000Z</time>
      </trkpt>
      <trkpt lat="44.15093" lon="5.32765">
        <ele>1393.2</ele>
        <time>2021-05-31T09:24:32.000Z</time>
      </trkpt>
      <trkpt lat="44.15129" lon="5.32775">
        <ele>1393.6</ele>
        <time>2021-05-31T09:24:36.000Z</time>
      </trkpt>
      <trkpt lat="44.15159" lon="5.3278">
        <ele>1393.8</ele>
        <time>2021-05-31T09:24:39.000Z</time>
      </trkpt>
      <trkpt lat="44.15189" lon="5.32785">
        <ele>1394</ele>
        <time>2021-05-31T09:24:42.000Z</time>
      </trkpt>
      <trkpt lat="44.15213" lon="5.32787">
        <ele>1394.1</ele>
        <time>2021-05-31T09:24:45.000Z</time>
      </trkpt>
      <trkpt lat="44.15236" lon="5.32789">
        <ele>1394.4</ele>
        <time>2021-05-31T09:24:47.000Z</time>
      </trkpt>
      <trkpt lat="44.15261" lon="5.32789">
        <ele>1394.8</ele>
        <time>2021-05-31T09:24:50.000Z</time>
      </trkpt>
      <trkpt lat="44.15286" lon="5.3279">
        <ele>1395.2</ele>
        <time>2021-05-31T09:24:53.000Z</time>
      </trkpt>
      <trkpt lat="44.15311" lon="5.3279">
        <ele>1395.7</ele>
        <time>2021-05-31T09:24:56.000Z</time>
      </trkpt>
      <trkpt lat="44.15319" lon="5.32789">
        <ele>1395.9</ele>
        <time>2021-05-31T09:24:57.000Z</time>
      </trkpt>
      <trkpt lat="44.15325" lon="5.32785">
        <ele>1396</ele>
        <time>2021-05-31T09:24:57.000Z</time>
      </trkpt>
      <trkpt lat="44.15329" lon="5.32778">
        <ele>1396</ele>
        <time>2021-05-31T09:24:58.000Z</time>
      </trkpt>
      <trkpt lat="44.1533" lon="5.32771">
        <ele>1396</ele>
        <time>2021-05-31T09:24:59.000Z</time>
      </trkpt>
      <trkpt lat="44.15329" lon="5.32762">
        <ele>1396</ele>
        <time>2021-05-31T09:24:59.000Z</time>
      </trkpt>
      <trkpt lat="44.15325" lon="5.32756">
        <ele>1395.9</ele>
        <time>2021-05-31T09:25:00.000Z</time>
      </trkpt>
      <trkpt lat="44.15318" lon="5.3275">
        <ele>1395.9</ele>
        <time>2021-05-31T09:25:00.000Z</time>
      </trkpt>
      <trkpt lat="44.15292" lon="5.32737">
        <ele>1396</ele>
        <time>2021-05-31T09:25:03.000Z</time>
      </trkpt>
      <trkpt lat="44.15267" lon="5.32724">
        <ele>1396.1</ele>
        <time>2021-05-31T09:25:06.000Z</time>
      </trkpt>
      <trkpt lat="44.15241" lon="5.32711">
        <ele>1396.3</ele>
        <time>2021-05-31T09:25:09.000Z</time>
      </trkpt>
      <trkpt lat="44.15223" lon="5.32699">
        <ele>1396.8</ele>
        <time>2021-05-31T09:25:11.000Z</time>
      </trkpt>
      <trkpt lat="44.15204" lon="5.32687">
        <ele>1397.3</ele>
        <time>2021-05-31T09:25:14.000Z</time>
      </trkpt>
      <trkpt lat="44.15177" lon="5.32666">
        <ele>1398</ele>
        <time>2021-05-31T09:25:17.000Z</time>
      </trkpt>
      <trkpt lat="44.15153" lon="5.32636">
        <ele>1398.5</ele>
        <time>2021-05-31T09:25:21.000Z</time>
      </trkpt>
      <trkpt lat="44.15134" lon="5.32605">
        <ele>1398.7</ele>
        <time>2021-05-31T09:25:24.000Z</time>
      </trkpt>
      <trkpt lat="44.15114" lon="5.32575">
        <ele>1398.9</ele>
        <time>2021-05-31T09:25:27.000Z</time>
      </trkpt>
      <trkpt lat="44.15095" lon="5.32544">
        <ele>1399.1</ele>
        <time>2021-05-31T09:25:30.000Z</time>
      </trkpt>
      <trkpt lat="44.15074" lon="5.32517">
        <ele>1399.3</ele>
        <time>2021-05-31T09:25:33.000Z</time>
      </trkpt>
      <trkpt lat="44.15056" lon="5.32497">
        <ele>1399.3</ele>
        <time>2021-05-31T09:25:35.000Z</time>
      </trkpt>
      <trkpt lat="44.15037" lon="5.32477">
        <ele>1399.4</ele>
        <time>2021-05-31T09:25:38.000Z</time>
      </trkpt>
      <trkpt lat="44.1502" lon="5.32461">
        <ele>1399.6</ele>
        <time>2021-05-31T09:25:40.000Z</time>
      </trkpt>
      <trkpt lat="44.15003" lon="5.32445">
        <ele>1399.8</ele>
        <time>2021-05-31T09:25:42.000Z</time>
      </trkpt>
      <trkpt lat="44.1498" lon="5.32427">
        <ele>1400.1</ele>
        <time>2021-05-31T09:25:45.000Z</time>
      </trkpt>
      <trkpt lat="44.14957" lon="5.32408">
        <ele>1400.3</ele>
        <time>2021-05-31T09:25:48.000Z</time>
      </trkpt>
      <trkpt lat="44.14934" lon="5.3239">
        <ele>1400.6</ele>
        <time>2021-05-31T09:25:51.000Z</time>
      </trkpt>
      <trkpt lat="44.14913" lon="5.32376">
        <ele>1401</ele>
        <time>2021-05-31T09:25:53.000Z</time>
      </trkpt>
      <trkpt lat="44.14893" lon="5.32363">
        <ele>1401.3</ele>
        <time>2021-05-31T09:25:56.000Z</time>
      </trkpt>
      <trkpt lat="44.14872" lon="5.32349">
        <ele>1401.7</ele>
        <time>2021-05-31T09:25:58.000Z</time>
      </trkpt>
      <trkpt lat="44.14846" lon="5.3232">
        <ele>1402.4</ele>
        <time>2021-05-31T09:26:02.000Z</time>
      </trkpt>
      <trkpt lat="44.1484" lon="5.32307">
        <ele>1402.6</ele>
        <time>2021-05-31T09:26:04.000Z</time>
      </trkpt>
      <trkpt lat="44.14832" lon="5.32278">
        <ele>1402.9</ele>
        <time>2021-05-31T09:26:06.000Z</time>
      </trkpt>
      <trkpt lat="44.14829" lon="5.32246">
        <ele>1403.3</ele>
        <time>2021-05-31T09:26:09.000Z</time>
      </trkpt>
      <trkpt lat="44.1483" lon="5.32229">
        <ele>1403.5</ele>
        <time>2021-05-31T09:26:10.000Z</time>
      </trkpt>
      <trkpt lat="44.14839" lon="5.32197">
        <ele>1403.8</ele>
        <time>2021-05-31T09:26:13.000Z</time>
      </trkpt>
      <trkpt lat="44.14852" lon="5.32165">
        <ele>1404.2</ele>
        <time>2021-05-31T09:26:16.000Z</time>
      </trkpt>
      <trkpt lat="44.14865" lon="5.32137">
        <ele>1404.4</ele>
        <time>2021-05-31T09:26:18.000Z</time>
      </trkpt>
      <trkpt lat="44.1488" lon="5.321">
        <ele>1404.8</ele>
        <time>2021-05-31T09:26:22.000Z</time>
      </trkpt>
      <trkpt lat="44.14888" lon="5.3207">
        <ele>1405.3</ele>
        <time>2021-05-31T09:26:24.000Z</time>
      </trkpt>
      <trkpt lat="44.14895" lon="5.32021">
        <ele>1405.8</ele>
        <time>2021-05-31T09:26:28.000Z</time>
      </trkpt>
      <trkpt lat="44.14895" lon="5.3199">
        <ele>1406</ele>
        <time>2021-05-31T09:26:31.000Z</time>
      </trkpt>
      <trkpt lat="44.14895" lon="5.31958">
        <ele>1406.2</ele>
        <time>2021-05-31T09:26:33.000Z</time>
      </trkpt>
      <trkpt lat="44.14895" lon="5.31927">
        <ele>1406.4</ele>
        <time>2021-05-31T09:26:35.000Z</time>
      </trkpt>
      <trkpt lat="44.14898" lon="5.31893">
        <ele>1406.4</ele>
        <time>2021-05-31T09:26:38.000Z</time>
      </trkpt>
      <trkpt lat="44.149" lon="5.31858">
        <ele>1406.3</ele>
        <time>2021-05-31T09:26:40.000Z</time>
      </trkpt>
      <trkpt lat="44.14907" lon="5.3183">
        <ele>1406.3</ele>
        <time>2021-05-31T09:26:42.000Z</time>
      </trkpt>
      <trkpt lat="44.14913" lon="5.31801">
        <ele>1406.2</ele>
        <time>2021-05-31T09:26:44.000Z</time>
      </trkpt>
      <trkpt lat="44.14919" lon="5.31785">
        <ele>1406.3</ele>
        <time>2021-05-31T09:26:46.000Z</time>
      </trkpt>
      <trkpt lat="44.14926" lon="5.31775">
        <ele>1406.3</ele>
        <time>2021-05-31T09:26:47.000Z</time>
      </trkpt>
      <trkpt lat="44.14933" lon="5.3177">
        <ele>1406.3</ele>
        <time>2021-05-31T09:26:47.000Z</time>
      </trkpt>
      <trkpt lat="44.14942" lon="5.31767">
        <ele>1406.3</ele>
        <time>2021-05-31T09:26:48.000Z</time>
      </trkpt>
      <trkpt lat="44.14962" lon="5.31769">
        <ele>1406.2</ele>
        <time>2021-05-31T09:26:50.000Z</time>
      </trkpt>
      <trkpt lat="44.14987" lon="5.31778">
        <ele>1406.2</ele>
        <time>2021-05-31T09:26:53.000Z</time>
      </trkpt>
      <trkpt lat="44.15013" lon="5.31786">
        <ele>1406.1</ele>
        <time>2021-05-31T09:26:55.000Z</time>
      </trkpt>
      <trkpt lat="44.15038" lon="5.31795">
        <ele>1406.1</ele>
        <time>2021-05-31T09:26:58.000Z</time>
      </trkpt>
      <trkpt lat="44.15063" lon="5.31804">
        <ele>1406.1</ele>
        <time>2021-05-31T09:27:00.000Z</time>
      </trkpt>
      <trkpt lat="44.15091" lon="5.31818">
        <ele>1405.8</ele>
        <time>2021-05-31T09:27:03.000Z</time>
      </trkpt>
      <trkpt lat="44.15109" lon="5.3183">
        <ele>1405.7</ele>
        <time>2021-05-31T09:27:05.000Z</time>
      </trkpt>
      <trkpt lat="44.15134" lon="5.3185">
        <ele>1405.8</ele>
        <time>2021-05-31T09:27:08.000Z</time>
      </trkpt>
      <trkpt lat="44.15158" lon="5.3187">
        <ele>1406</ele>
        <time>2021-05-31T09:27:11.000Z</time>
      </trkpt>
      <trkpt lat="44.15183" lon="5.3189">
        <ele>1406.1</ele>
        <time>2021-05-31T09:27:14.000Z</time>
      </trkpt>
      <trkpt lat="44.15191" lon="5.31891">
        <ele>1406.2</ele>
        <time>2021-05-31T09:27:15.000Z</time>
      </trkpt>
      <trkpt lat="44.15198" lon="5.31886">
        <ele>1406.4</ele>
        <time>2021-05-31T09:27:16.000Z</time>
      </trkpt>
      <trkpt lat="44.15203" lon="5.31886">
        <ele>1406.8</ele>
        <time>2021-05-31T09:27:17.000Z</time>
      </trkpt>
      <trkpt lat="44.1521" lon="5.3188">
        <ele>1407.3</ele>
        <time>2021-05-31T09:27:18.000Z</time>
      </trkpt>
      <trkpt lat="44.1522" lon="5.31868">
        <ele>1408.5</ele>
        <time>2021-05-31T09:27:21.000Z</time>
      </trkpt>
      <trkpt lat="44.15222" lon="5.31858">
        <ele>1410.1</ele>
        <time>2021-05-31T09:27:24.000Z</time>
      </trkpt>
      <trkpt lat="44.15222" lon="5.31839">
        <ele>1412.3</ele>
        <time>2021-05-31T09:27:28.000Z</time>
      </trkpt>
      <trkpt lat="44.15212" lon="5.31804">
        <ele>1413.4</ele>
        <time>2021-05-31T09:27:32.000Z</time>
      </trkpt>
      <trkpt lat="44.15201" lon="5.31768">
        <ele>1414.2</ele>
        <time>2021-05-31T09:27:35.000Z</time>
      </trkpt>
      <trkpt lat="44.15191" lon="5.31733">
        <ele>1415</ele>
        <time>2021-05-31T09:27:39.000Z</time>
      </trkpt>
      <trkpt lat="44.15179" lon="5.31703">
        <ele>1416.7</ele>
        <time>2021-05-31T09:27:43.000Z</time>
      </trkpt>
      <trkpt lat="44.15168" lon="5.31673">
        <ele>1418.4</ele>
        <time>2021-05-31T09:27:48.000Z</time>
      </trkpt>
      <trkpt lat="44.15156" lon="5.31643">
        <ele>1420.1</ele>
        <time>2021-05-31T09:27:52.000Z</time>
      </trkpt>
      <trkpt lat="44.1515" lon="5.31619">
        <ele>1421.6</ele>
        <time>2021-05-31T09:27:56.000Z</time>
      </trkpt>
      <trkpt lat="44.15143" lon="5.31595">
        <ele>1423</ele>
        <time>2021-05-31T09:28:00.000Z</time>
      </trkpt>
      <trkpt lat="44.15137" lon="5.31571">
        <ele>1424.4</ele>
        <time>2021-05-31T09:28:03.000Z</time>
      </trkpt>
      <trkpt lat="44.15131" lon="5.31548">
        <ele>1425.6</ele>
        <time>2021-05-31T09:28:06.000Z</time>
      </trkpt>
      <trkpt lat="44.15124" lon="5.31524">
        <ele>1426.7</ele>
        <time>2021-05-31T09:28:09.000Z</time>
      </trkpt>
      <trkpt lat="44.15118" lon="5.315">
        <ele>1428</ele>
        <time>2021-05-31T09:28:13.000Z</time>
      </trkpt>
      <trkpt lat="44.15115" lon="5.31491">
        <ele>1428.8</ele>
        <time>2021-05-31T09:28:15.000Z</time>
      </trkpt>
      <trkpt lat="44.15095" lon="5.31455">
        <ele>1430.2</ele>
        <time>2021-05-31T09:28:19.000Z</time>
      </trkpt>
      <trkpt lat="44.1509" lon="5.3144">
        <ele>1430.7</ele>
        <time>2021-05-31T09:28:21.000Z</time>
      </trkpt>
      <trkpt lat="44.15089" lon="5.31426">
        <ele>1431.3</ele>
        <time>2021-05-31T09:28:23.000Z</time>
      </trkpt>
      <trkpt lat="44.15097" lon="5.314">
        <ele>1432.8</ele>
        <time>2021-05-31T09:28:26.000Z</time>
      </trkpt>
      <trkpt lat="44.15105" lon="5.31388">
        <ele>1433.9</ele>
        <time>2021-05-31T09:28:29.000Z</time>
      </trkpt>
      <trkpt lat="44.15125" lon="5.3137">
        <ele>1436.1</ele>
        <time>2021-05-31T09:28:34.000Z</time>
      </trkpt>
      <trkpt lat="44.15144" lon="5.31352">
        <ele>1438.3</ele>
        <time>2021-05-31T09:28:40.000Z</time>
      </trkpt>
      <trkpt lat="44.15153" lon="5.31348">
        <ele>1439.3</ele>
        <time>2021-05-31T09:28:42.000Z</time>
      </trkpt>
      <trkpt lat="44.15174" lon="5.31348">
        <ele>1440.7</ele>
        <time>2021-05-31T09:28:46.000Z</time>
      </trkpt>
      <trkpt lat="44.15188" lon="5.31351">
        <ele>1442.5</ele>
        <time>2021-05-31T09:28:50.000Z</time>
      </trkpt>
      <trkpt lat="44.15202" lon="5.31354">
        <ele>1444.5</ele>
        <time>2021-05-31T09:28:54.000Z</time>
      </trkpt>
      <trkpt lat="44.15216" lon="5.31357">
        <ele>1446.5</ele>
        <time>2021-05-31T09:28:58.000Z</time>
      </trkpt>
      <trkpt lat="44.15239" lon="5.31366">
        <ele>1449.7</ele>
        <time>2021-05-31T09:29:04.000Z</time>
      </trkpt>
      <trkpt lat="44.15258" lon="5.3138">
        <ele>1452.6</ele>
        <time>2021-05-31T09:29:11.000Z</time>
      </trkpt>
      <trkpt lat="44.15278" lon="5.31404">
        <ele>1454.3</ele>
        <time>2021-05-31T09:29:15.000Z</time>
      </trkpt>
      <trkpt lat="44.15297" lon="5.31428">
        <ele>1456</ele>
        <time>2021-05-31T09:29:20.000Z</time>
      </trkpt>
      <trkpt lat="44.15308" lon="5.31437">
        <ele>1457.5</ele>
        <time>2021-05-31T09:29:23.000Z</time>
      </trkpt>
      <trkpt lat="44.15319" lon="5.31447">
        <ele>1458.9</ele>
        <time>2021-05-31T09:29:26.000Z</time>
      </trkpt>
      <trkpt lat="44.15344" lon="5.31458">
        <ele>1459.8</ele>
        <time>2021-05-31T09:29:30.000Z</time>
      </trkpt>
      <trkpt lat="44.15368" lon="5.31469">
        <ele>1460.8</ele>
        <time>2021-05-31T09:29:33.000Z</time>
      </trkpt>
      <trkpt lat="44.15383" lon="5.31478">
        <ele>1463.3</ele>
        <time>2021-05-31T09:29:38.000Z</time>
      </trkpt>
      <trkpt lat="44.15406" lon="5.31494">
        <ele>1465.2</ele>
        <time>2021-05-31T09:29:43.000Z</time>
      </trkpt>
      <trkpt lat="44.15428" lon="5.31509">
        <ele>1467</ele>
        <time>2021-05-31T09:29:48.000Z</time>
      </trkpt>
      <trkpt lat="44.15443" lon="5.3152">
        <ele>1468.4</ele>
        <time>2021-05-31T09:29:51.000Z</time>
      </trkpt>
      <trkpt lat="44.15458" lon="5.3153">
        <ele>1470</ele>
        <time>2021-05-31T09:29:55.000Z</time>
      </trkpt>
      <trkpt lat="44.15473" lon="5.31541">
        <ele>1471.4</ele>
        <time>2021-05-31T09:29:58.000Z</time>
      </trkpt>
      <trkpt lat="44.15489" lon="5.31546">
        <ele>1472.3</ele>
        <time>2021-05-31T09:30:01.000Z</time>
      </trkpt>
      <trkpt lat="44.15495" lon="5.31543">
        <ele>1472.7</ele>
        <time>2021-05-31T09:30:02.000Z</time>
      </trkpt>
      <trkpt lat="44.15498" lon="5.31536">
        <ele>1473.1</ele>
        <time>2021-05-31T09:30:03.000Z</time>
      </trkpt>
      <trkpt lat="44.15498" lon="5.31528">
        <ele>1473.3</ele>
        <time>2021-05-31T09:30:04.000Z</time>
      </trkpt>
      <trkpt lat="44.15496" lon="5.3152">
        <ele>1473.4</ele>
        <time>2021-05-31T09:30:05.000Z</time>
      </trkpt>
      <trkpt lat="44.15483" lon="5.31491">
        <ele>1474.1</ele>
        <time>2021-05-31T09:30:08.000Z</time>
      </trkpt>
      <trkpt lat="44.15477" lon="5.31461">
        <ele>1475</ele>
        <time>2021-05-31T09:30:11.000Z</time>
      </trkpt>
      <trkpt lat="44.15477" lon="5.31434">
        <ele>1475.8</ele>
        <time>2021-05-31T09:30:13.000Z</time>
      </trkpt>
      <trkpt lat="44.15479" lon="5.31399">
        <ele>1477.5</ele>
        <time>2021-05-31T09:30:18.000Z</time>
      </trkpt>
      <trkpt lat="44.15481" lon="5.31364">
        <ele>1479.3</ele>
        <time>2021-05-31T09:30:23.000Z</time>
      </trkpt>
      <trkpt lat="44.15483" lon="5.31329">
        <ele>1480.8</ele>
        <time>2021-05-31T09:30:27.000Z</time>
      </trkpt>
      <trkpt lat="44.15485" lon="5.31294">
        <ele>1482.4</ele>
        <time>2021-05-31T09:30:31.000Z</time>
      </trkpt>
      <trkpt lat="44.15489" lon="5.31268">
        <ele>1484</ele>
        <time>2021-05-31T09:30:35.000Z</time>
      </trkpt>
      <trkpt lat="44.15494" lon="5.31248">
        <ele>1485.4</ele>
        <time>2021-05-31T09:30:39.000Z</time>
      </trkpt>
      <trkpt lat="44.15501" lon="5.31234">
        <ele>1485.9</ele>
        <time>2021-05-31T09:30:40.000Z</time>
      </trkpt>
      <trkpt lat="44.1551" lon="5.31223">
        <ele>1486.3</ele>
        <time>2021-05-31T09:30:42.000Z</time>
      </trkpt>
      <trkpt lat="44.1552" lon="5.31219">
        <ele>1486.8</ele>
        <time>2021-05-31T09:30:43.000Z</time>
      </trkpt>
      <trkpt lat="44.15531" lon="5.31217">
        <ele>1487.8</ele>
        <time>2021-05-31T09:30:46.000Z</time>
      </trkpt>
      <trkpt lat="44.15542" lon="5.31219">
        <ele>1488.9</ele>
        <time>2021-05-31T09:30:49.000Z</time>
      </trkpt>
      <trkpt lat="44.15563" lon="5.31234">
        <ele>1490.3</ele>
        <time>2021-05-31T09:30:53.000Z</time>
      </trkpt>
      <trkpt lat="44.15584" lon="5.31249">
        <ele>1491.6</ele>
        <time>2021-05-31T09:30:56.000Z</time>
      </trkpt>
      <trkpt lat="44.15605" lon="5.31264">
        <ele>1492.8</ele>
        <time>2021-05-31T09:31:00.000Z</time>
      </trkpt>
      <trkpt lat="44.15623" lon="5.31275">
        <ele>1493.4</ele>
        <time>2021-05-31T09:31:03.000Z</time>
      </trkpt>
      <trkpt lat="44.15646" lon="5.31285">
        <ele>1494.7</ele>
        <time>2021-05-31T09:31:06.000Z</time>
      </trkpt>
      <trkpt lat="44.15669" lon="5.31294">
        <ele>1496</ele>
        <time>2021-05-31T09:31:10.000Z</time>
      </trkpt>
      <trkpt lat="44.15692" lon="5.31304">
        <ele>1497.3</ele>
        <time>2021-05-31T09:31:14.000Z</time>
      </trkpt>
      <trkpt lat="44.15711" lon="5.31315">
        <ele>1498.8</ele>
        <time>2021-05-31T09:31:18.000Z</time>
      </trkpt>
      <trkpt lat="44.15729" lon="5.31329">
        <ele>1499.7</ele>
        <time>2021-05-31T09:31:21.000Z</time>
      </trkpt>
      <trkpt lat="44.15747" lon="5.31343">
        <ele>1500.6</ele>
        <time>2021-05-31T09:31:24.000Z</time>
      </trkpt>
      <trkpt lat="44.15762" lon="5.31345">
        <ele>1501.1</ele>
        <time>2021-05-31T09:31:26.000Z</time>
      </trkpt>
      <trkpt lat="44.15769" lon="5.31342">
        <ele>1501.6</ele>
        <time>2021-05-31T09:31:27.000Z</time>
      </trkpt>
      <trkpt lat="44.15774" lon="5.31336">
        <ele>1501.8</ele>
        <time>2021-05-31T09:31:28.000Z</time>
      </trkpt>
      <trkpt lat="44.15779" lon="5.31326">
        <ele>1502.1</ele>
        <time>2021-05-31T09:31:29.000Z</time>
      </trkpt>
      <trkpt lat="44.15781" lon="5.31312">
        <ele>1502.6</ele>
        <time>2021-05-31T09:31:31.000Z</time>
      </trkpt>
      <trkpt lat="44.1578" lon="5.31284">
        <ele>1503.8</ele>
        <time>2021-05-31T09:31:34.000Z</time>
      </trkpt>
      <trkpt lat="44.1578" lon="5.31255">
        <ele>1504.9</ele>
        <time>2021-05-31T09:31:37.000Z</time>
      </trkpt>
      <trkpt lat="44.15779" lon="5.31227">
        <ele>1506.2</ele>
        <time>2021-05-31T09:31:41.000Z</time>
      </trkpt>
      <trkpt lat="44.15774" lon="5.31208">
        <ele>1508.3</ele>
        <time>2021-05-31T09:31:45.000Z</time>
      </trkpt>
      <trkpt lat="44.15765" lon="5.31184">
        <ele>1510.2</ele>
        <time>2021-05-31T09:31:50.000Z</time>
      </trkpt>
      <trkpt lat="44.15755" lon="5.3116">
        <ele>1511.8</ele>
        <time>2021-05-31T09:31:54.000Z</time>
      </trkpt>
      <trkpt lat="44.15749" lon="5.3114">
        <ele>1513.1</ele>
        <time>2021-05-31T09:31:57.000Z</time>
      </trkpt>
      <trkpt lat="44.15746" lon="5.31121">
        <ele>1515.3</ele>
        <time>2021-05-31T09:32:01.000Z</time>
      </trkpt>
      <trkpt lat="44.15742" lon="5.31102">
        <ele>1517.4</ele>
        <time>2021-05-31T09:32:06.000Z</time>
      </trkpt>
      <trkpt lat="44.15741" lon="5.31075">
        <ele>1518.7</ele>
        <time>2021-05-31T09:32:09.000Z</time>
      </trkpt>
      <trkpt lat="44.1574" lon="5.31048">
        <ele>1519.7</ele>
        <time>2021-05-31T09:32:12.000Z</time>
      </trkpt>
      <trkpt lat="44.15745" lon="5.31011">
        <ele>1521.1</ele>
        <time>2021-05-31T09:32:16.000Z</time>
      </trkpt>
      <trkpt lat="44.15751" lon="5.30985">
        <ele>1523.1</ele>
        <time>2021-05-31T09:32:21.000Z</time>
      </trkpt>
      <trkpt lat="44.15756" lon="5.30959">
        <ele>1525.2</ele>
        <time>2021-05-31T09:32:26.000Z</time>
      </trkpt>
      <trkpt lat="44.15763" lon="5.30934">
        <ele>1527.5</ele>
        <time>2021-05-31T09:32:31.000Z</time>
      </trkpt>
      <trkpt lat="44.15774" lon="5.3091">
        <ele>1529</ele>
        <time>2021-05-31T09:32:35.000Z</time>
      </trkpt>
      <trkpt lat="44.15785" lon="5.30885">
        <ele>1530.3</ele>
        <time>2021-05-31T09:32:38.000Z</time>
      </trkpt>
      <trkpt lat="44.15799" lon="5.30866">
        <ele>1531.7</ele>
        <time>2021-05-31T09:32:42.000Z</time>
      </trkpt>
      <trkpt lat="44.15813" lon="5.30851">
        <ele>1533.1</ele>
        <time>2021-05-31T09:32:45.000Z</time>
      </trkpt>
      <trkpt lat="44.1583" lon="5.30837">
        <ele>1535</ele>
        <time>2021-05-31T09:32:50.000Z</time>
      </trkpt>
      <trkpt lat="44.15848" lon="5.30827">
        <ele>1536.5</ele>
        <time>2021-05-31T09:32:54.000Z</time>
      </trkpt>
      <trkpt lat="44.15867" lon="5.3082">
        <ele>1537.6</ele>
        <time>2021-05-31T09:32:57.000Z</time>
      </trkpt>
      <trkpt lat="44.15885" lon="5.30813">
        <ele>1538.8</ele>
        <time>2021-05-31T09:33:00.000Z</time>
      </trkpt>
      <trkpt lat="44.15903" lon="5.3081">
        <ele>1540.4</ele>
        <time>2021-05-31T09:33:04.000Z</time>
      </trkpt>
      <trkpt lat="44.15913" lon="5.3081">
        <ele>1542.1</ele>
        <time>2021-05-31T09:33:07.000Z</time>
      </trkpt>
      <trkpt lat="44.15922" lon="5.3081">
        <ele>1543.7</ele>
        <time>2021-05-31T09:33:11.000Z</time>
      </trkpt>
      <trkpt lat="44.15948" lon="5.30814">
        <ele>1545.4</ele>
        <time>2021-05-31T09:33:15.000Z</time>
      </trkpt>
      <trkpt lat="44.15975" lon="5.30817">
        <ele>1546.8</ele>
        <time>2021-05-31T09:33:19.000Z</time>
      </trkpt>
      <trkpt lat="44.16001" lon="5.30821">
        <ele>1548.1</ele>
        <time>2021-05-31T09:33:23.000Z</time>
      </trkpt>
      <trkpt lat="44.1601" lon="5.30821">
        <ele>1548.4</ele>
        <time>2021-05-31T09:33:25.000Z</time>
      </trkpt>
      <trkpt lat="44.16019" lon="5.30818">
        <ele>1548.8</ele>
        <time>2021-05-31T09:33:26.000Z</time>
      </trkpt>
      <trkpt lat="44.16024" lon="5.30813">
        <ele>1549.2</ele>
        <time>2021-05-31T09:33:27.000Z</time>
      </trkpt>
      <trkpt lat="44.16027" lon="5.30807">
        <ele>1549.5</ele>
        <time>2021-05-31T09:33:28.000Z</time>
      </trkpt>
      <trkpt lat="44.16026" lon="5.30786">
        <ele>1550.2</ele>
        <time>2021-05-31T09:33:30.000Z</time>
      </trkpt>
      <trkpt lat="44.16023" lon="5.30776">
        <ele>1551.1</ele>
        <time>2021-05-31T09:33:32.000Z</time>
      </trkpt>
      <trkpt lat="44.16011" lon="5.30747">
        <ele>1552.1</ele>
        <time>2021-05-31T09:33:35.000Z</time>
      </trkpt>
      <trkpt lat="44.15998" lon="5.30718">
        <ele>1552.9</ele>
        <time>2021-05-31T09:33:39.000Z</time>
      </trkpt>
      <trkpt lat="44.15991" lon="5.30695">
        <ele>1554.8</ele>
        <time>2021-05-31T09:33:43.000Z</time>
      </trkpt>
      <trkpt lat="44.15984" lon="5.30672">
        <ele>1556.8</ele>
        <time>2021-05-31T09:33:47.000Z</time>
      </trkpt>
      <trkpt lat="44.15977" lon="5.3064">
        <ele>1558.3</ele>
        <time>2021-05-31T09:33:52.000Z</time>
      </trkpt>
      <trkpt lat="44.15971" lon="5.30607">
        <ele>1559.7</ele>
        <time>2021-05-31T09:33:56.000Z</time>
      </trkpt>
      <trkpt lat="44.15964" lon="5.30575">
        <ele>1561.3</ele>
        <time>2021-05-31T09:34:00.000Z</time>
      </trkpt>
      <trkpt lat="44.15961" lon="5.30547">
        <ele>1563.2</ele>
        <time>2021-05-31T09:34:04.000Z</time>
      </trkpt>
      <trkpt lat="44.15963" lon="5.30526">
        <ele>1564.9</ele>
        <time>2021-05-31T09:34:08.000Z</time>
      </trkpt>
      <trkpt lat="44.15964" lon="5.30504">
        <ele>1566.6</ele>
        <time>2021-05-31T09:34:12.000Z</time>
      </trkpt>
      <trkpt lat="44.15969" lon="5.30481">
        <ele>1568.4</ele>
        <time>2021-05-31T09:34:16.000Z</time>
      </trkpt>
      <trkpt lat="44.15974" lon="5.30458">
        <ele>1570.1</ele>
        <time>2021-05-31T09:34:20.000Z</time>
      </trkpt>
      <trkpt lat="44.15979" lon="5.30435">
        <ele>1571.9</ele>
        <time>2021-05-31T09:34:24.000Z</time>
      </trkpt>
      <trkpt lat="44.15985" lon="5.30412">
        <ele>1573.6</ele>
        <time>2021-05-31T09:34:28.000Z</time>
      </trkpt>
      <trkpt lat="44.15991" lon="5.30381">
        <ele>1574.9</ele>
        <time>2021-05-31T09:34:32.000Z</time>
      </trkpt>
      <trkpt lat="44.15998" lon="5.3035">
        <ele>1576.1</ele>
        <time>2021-05-31T09:34:36.000Z</time>
      </trkpt>
      <trkpt lat="44.16005" lon="5.30319">
        <ele>1577.3</ele>
        <time>2021-05-31T09:34:39.000Z</time>
      </trkpt>
      <trkpt lat="44.16014" lon="5.30295">
        <ele>1578.4</ele>
        <time>2021-05-31T09:34:43.000Z</time>
      </trkpt>
      <trkpt lat="44.16023" lon="5.30271">
        <ele>1579.4</ele>
        <time>2021-05-31T09:34:46.000Z</time>
      </trkpt>
      <trkpt lat="44.16032" lon="5.30247">
        <ele>1580.6</ele>
        <time>2021-05-31T09:34:49.000Z</time>
      </trkpt>
      <trkpt lat="44.1604" lon="5.30223">
        <ele>1582.6</ele>
        <time>2021-05-31T09:34:54.000Z</time>
      </trkpt>
      <trkpt lat="44.16049" lon="5.30199">
        <ele>1584.7</ele>
        <time>2021-05-31T09:34:58.000Z</time>
      </trkpt>
      <trkpt lat="44.16058" lon="5.30175">
        <ele>1586.7</ele>
        <time>2021-05-31T09:35:03.000Z</time>
      </trkpt>
      <trkpt lat="44.16072" lon="5.30149">
        <ele>1589.1</ele>
        <time>2021-05-31T09:35:09.000Z</time>
      </trkpt>
      <trkpt lat="44.16089" lon="5.30127">
        <ele>1591.1</ele>
        <time>2021-05-31T09:35:14.000Z</time>
      </trkpt>
      <trkpt lat="44.16107" lon="5.30109">
        <ele>1593.1</ele>
        <time>2021-05-31T09:35:18.000Z</time>
      </trkpt>
      <trkpt lat="44.16124" lon="5.30096">
        <ele>1594.4</ele>
        <time>2021-05-31T09:35:22.000Z</time>
      </trkpt>
      <trkpt lat="44.16141" lon="5.30083">
        <ele>1595.7</ele>
        <time>2021-05-31T09:35:25.000Z</time>
      </trkpt>
      <trkpt lat="44.16163" lon="5.30072">
        <ele>1597.7</ele>
        <time>2021-05-31T09:35:30.000Z</time>
      </trkpt>
      <trkpt lat="44.16174" lon="5.30072">
        <ele>1598.9</ele>
        <time>2021-05-31T09:35:33.000Z</time>
      </trkpt>
      <trkpt lat="44.16181" lon="5.30075">
        <ele>1600.2</ele>
        <time>2021-05-31T09:35:36.000Z</time>
      </trkpt>
      <trkpt lat="44.16189" lon="5.30081">
        <ele>1602.1</ele>
        <time>2021-05-31T09:35:39.000Z</time>
      </trkpt>
      <trkpt lat="44.16197" lon="5.30091">
        <ele>1604.4</ele>
        <time>2021-05-31T09:35:43.000Z</time>
      </trkpt>
      <trkpt lat="44.16209" lon="5.30112">
        <ele>1605.8</ele>
        <time>2021-05-31T09:35:46.000Z</time>
      </trkpt>
      <trkpt lat="44.1622" lon="5.30134">
        <ele>1606.8</ele>
        <time>2021-05-31T09:35:49.000Z</time>
      </trkpt>
      <trkpt lat="44.16232" lon="5.30155">
        <ele>1607.8</ele>
        <time>2021-05-31T09:35:52.000Z</time>
      </trkpt>
      <trkpt lat="44.16244" lon="5.30177">
        <ele>1609</ele>
        <time>2021-05-31T09:35:56.000Z</time>
      </trkpt>
      <trkpt lat="44.16255" lon="5.30198">
        <ele>1610.3</ele>
        <time>2021-05-31T09:35:59.000Z</time>
      </trkpt>
      <trkpt lat="44.16267" lon="5.3022">
        <ele>1611.7</ele>
        <time>2021-05-31T09:36:03.000Z</time>
      </trkpt>
      <trkpt lat="44.16275" lon="5.30233">
        <ele>1613</ele>
        <time>2021-05-31T09:36:06.000Z</time>
      </trkpt>
      <trkpt lat="44.1629" lon="5.30249">
        <ele>1614.4</ele>
        <time>2021-05-31T09:36:09.000Z</time>
      </trkpt>
      <trkpt lat="44.16298" lon="5.30252">
        <ele>1614.8</ele>
        <time>2021-05-31T09:36:11.000Z</time>
      </trkpt>
      <trkpt lat="44.16305" lon="5.30252">
        <ele>1615.2</ele>
        <time>2021-05-31T09:36:12.000Z</time>
      </trkpt>
      <trkpt lat="44.16318" lon="5.30247">
        <ele>1615.9</ele>
        <time>2021-05-31T09:36:14.000Z</time>
      </trkpt>
      <trkpt lat="44.16337" lon="5.30234">
        <ele>1616.9</ele>
        <time>2021-05-31T09:36:17.000Z</time>
      </trkpt>
      <trkpt lat="44.16356" lon="5.3022">
        <ele>1617.9</ele>
        <time>2021-05-31T09:36:20.000Z</time>
      </trkpt>
      <trkpt lat="44.16375" lon="5.30207">
        <ele>1618.9</ele>
        <time>2021-05-31T09:36:24.000Z</time>
      </trkpt>
      <trkpt lat="44.16384" lon="5.30196">
        <ele>1619.8</ele>
        <time>2021-05-31T09:36:26.000Z</time>
      </trkpt>
      <trkpt lat="44.16394" lon="5.3018">
        <ele>1620.9</ele>
        <time>2021-05-31T09:36:29.000Z</time>
      </trkpt>
      <trkpt lat="44.16404" lon="5.30151">
        <ele>1622.9</ele>
        <time>2021-05-31T09:36:34.000Z</time>
      </trkpt>
      <trkpt lat="44.16414" lon="5.30123">
        <ele>1624.8</ele>
        <time>2021-05-31T09:36:38.000Z</time>
      </trkpt>
      <trkpt lat="44.16424" lon="5.30094">
        <ele>1626.8</ele>
        <time>2021-05-31T09:36:43.000Z</time>
      </trkpt>
      <trkpt lat="44.16434" lon="5.30065">
        <ele>1628.4</ele>
        <time>2021-05-31T09:36:47.000Z</time>
      </trkpt>
      <trkpt lat="44.16444" lon="5.30037">
        <ele>1630</ele>
        <time>2021-05-31T09:36:52.000Z</time>
      </trkpt>
      <trkpt lat="44.16454" lon="5.30008">
        <ele>1631.6</ele>
        <time>2021-05-31T09:36:56.000Z</time>
      </trkpt>
      <trkpt lat="44.16467" lon="5.29979">
        <ele>1633.7</ele>
        <time>2021-05-31T09:37:01.000Z</time>
      </trkpt>
      <trkpt lat="44.1648" lon="5.29949">
        <ele>1635.7</ele>
        <time>2021-05-31T09:37:06.000Z</time>
      </trkpt>
      <trkpt lat="44.16489" lon="5.29929">
        <ele>1637.3</ele>
        <time>2021-05-31T09:37:10.000Z</time>
      </trkpt>
      <trkpt lat="44.16497" lon="5.2991">
        <ele>1638.8</ele>
        <time>2021-05-31T09:37:13.000Z</time>
      </trkpt>
      <trkpt lat="44.16506" lon="5.2989">
        <ele>1640.4</ele>
        <time>2021-05-31T09:37:17.000Z</time>
      </trkpt>
      <trkpt lat="44.16513" lon="5.29861">
        <ele>1642.2</ele>
        <time>2021-05-31T09:37:22.000Z</time>
      </trkpt>
      <trkpt lat="44.16519" lon="5.29832">
        <ele>1643.9</ele>
        <time>2021-05-31T09:37:26.000Z</time>
      </trkpt>
      <trkpt lat="44.16526" lon="5.29802">
        <ele>1645.7</ele>
        <time>2021-05-31T09:37:30.000Z</time>
      </trkpt>
      <trkpt lat="44.16532" lon="5.29773">
        <ele>1647.4</ele>
        <time>2021-05-31T09:37:35.000Z</time>
      </trkpt>
      <trkpt lat="44.16539" lon="5.2975">
        <ele>1648.7</ele>
        <time>2021-05-31T09:37:38.000Z</time>
      </trkpt>
      <trkpt lat="44.16546" lon="5.29726">
        <ele>1650</ele>
        <time>2021-05-31T09:37:41.000Z</time>
      </trkpt>
      <trkpt lat="44.16554" lon="5.2971">
        <ele>1651</ele>
        <time>2021-05-31T09:37:44.000Z</time>
      </trkpt>
      <trkpt lat="44.16567" lon="5.29694">
        <ele>1653.4</ele>
        <time>2021-05-31T09:37:49.000Z</time>
      </trkpt>
      <trkpt lat="44.16575" lon="5.29688">
        <ele>1655.3</ele>
        <time>2021-05-31T09:37:52.000Z</time>
      </trkpt>
      <trkpt lat="44.16583" lon="5.29681">
        <ele>1657.1</ele>
        <time>2021-05-31T09:37:56.000Z</time>
      </trkpt>
      <trkpt lat="44.16601" lon="5.29669">
        <ele>1658.9</ele>
        <time>2021-05-31T09:38:00.000Z</time>
      </trkpt>
      <trkpt lat="44.1662" lon="5.29658">
        <ele>1660.3</ele>
        <time>2021-05-31T09:38:04.000Z</time>
      </trkpt>
      <trkpt lat="44.16638" lon="5.29646">
        <ele>1661.8</ele>
        <time>2021-05-31T09:38:08.000Z</time>
      </trkpt>
      <trkpt lat="44.16656" lon="5.29634">
        <ele>1663.5</ele>
        <time>2021-05-31T09:38:12.000Z</time>
      </trkpt>
      <trkpt lat="44.16675" lon="5.29623">
        <ele>1665.2</ele>
        <time>2021-05-31T09:38:16.000Z</time>
      </trkpt>
      <trkpt lat="44.16693" lon="5.29611">
        <ele>1667.1</ele>
        <time>2021-05-31T09:38:21.000Z</time>
      </trkpt>
      <trkpt lat="44.16707" lon="5.29598">
        <ele>1668.8</ele>
        <time>2021-05-31T09:38:25.000Z</time>
      </trkpt>
      <trkpt lat="44.1672" lon="5.29585">
        <ele>1670.6</ele>
        <time>2021-05-31T09:38:29.000Z</time>
      </trkpt>
      <trkpt lat="44.16734" lon="5.29572">
        <ele>1672.3</ele>
        <time>2021-05-31T09:38:33.000Z</time>
      </trkpt>
      <trkpt lat="44.1675" lon="5.29552">
        <ele>1673.5</ele>
        <time>2021-05-31T09:38:36.000Z</time>
      </trkpt>
      <trkpt lat="44.16762" lon="5.29528">
        <ele>1674.6</ele>
        <time>2021-05-31T09:38:39.000Z</time>
      </trkpt>
      <trkpt lat="44.16766" lon="5.29513">
        <ele>1675.5</ele>
        <time>2021-05-31T09:38:42.000Z</time>
      </trkpt>
      <trkpt lat="44.16767" lon="5.29499">
        <ele>1676.1</ele>
        <time>2021-05-31T09:38:43.000Z</time>
      </trkpt>
      <trkpt lat="44.16759" lon="5.29464">
        <ele>1677.4</ele>
        <time>2021-05-31T09:38:48.000Z</time>
      </trkpt>
      <trkpt lat="44.16746" lon="5.29435">
        <ele>1678.9</ele>
        <time>2021-05-31T09:38:52.000Z</time>
      </trkpt>
      <trkpt lat="44.16732" lon="5.29406">
        <ele>1680.4</ele>
        <time>2021-05-31T09:38:56.000Z</time>
      </trkpt>
      <trkpt lat="44.16719" lon="5.29377">
        <ele>1681.9</ele>
        <time>2021-05-31T09:39:00.000Z</time>
      </trkpt>
      <trkpt lat="44.16711" lon="5.29355">
        <ele>1683.6</ele>
        <time>2021-05-31T09:39:04.000Z</time>
      </trkpt>
      <trkpt lat="44.16707" lon="5.29331">
        <ele>1684.9</ele>
        <time>2021-05-31T09:39:07.000Z</time>
      </trkpt>
      <trkpt lat="44.16705" lon="5.29302">
        <ele>1687.3</ele>
        <time>2021-05-31T09:39:13.000Z</time>
      </trkpt>
      <trkpt lat="44.16707" lon="5.29277">
        <ele>1689.5</ele>
        <time>2021-05-31T09:39:18.000Z</time>
      </trkpt>
      <trkpt lat="44.16715" lon="5.2925">
        <ele>1692.2</ele>
        <time>2021-05-31T09:39:23.000Z</time>
      </trkpt>
      <trkpt lat="44.16727" lon="5.29227">
        <ele>1693.4</ele>
        <time>2021-05-31T09:39:27.000Z</time>
      </trkpt>
      <trkpt lat="44.16742" lon="5.29206">
        <ele>1695.8</ele>
        <time>2021-05-31T09:39:32.000Z</time>
      </trkpt>
      <trkpt lat="44.16756" lon="5.29193">
        <ele>1697.6</ele>
        <time>2021-05-31T09:39:36.000Z</time>
      </trkpt>
      <trkpt lat="44.1677" lon="5.29184">
        <ele>1699.3</ele>
        <time>2021-05-31T09:39:40.000Z</time>
      </trkpt>
      <trkpt lat="44.16789" lon="5.29177">
        <ele>1701</ele>
        <time>2021-05-31T09:39:44.000Z</time>
      </trkpt>
      <trkpt lat="44.16807" lon="5.29169">
        <ele>1702.6</ele>
        <time>2021-05-31T09:39:48.000Z</time>
      </trkpt>
      <trkpt lat="44.16826" lon="5.29162">
        <ele>1704.2</ele>
        <time>2021-05-31T09:39:52.000Z</time>
      </trkpt>
      <trkpt lat="44.16845" lon="5.29154">
        <ele>1705.9</ele>
        <time>2021-05-31T09:39:56.000Z</time>
      </trkpt>
      <trkpt lat="44.16863" lon="5.29147">
        <ele>1708</ele>
        <time>2021-05-31T09:40:01.000Z</time>
      </trkpt>
      <trkpt lat="44.16882" lon="5.29139">
        <ele>1710.3</ele>
        <time>2021-05-31T09:40:06.000Z</time>
      </trkpt>
      <trkpt lat="44.169" lon="5.29132">
        <ele>1712.6</ele>
        <time>2021-05-31T09:40:11.000Z</time>
      </trkpt>
      <trkpt lat="44.16919" lon="5.29124">
        <ele>1714.7</ele>
        <time>2021-05-31T09:40:16.000Z</time>
      </trkpt>
      <trkpt lat="44.1693" lon="5.29118">
        <ele>1715.8</ele>
        <time>2021-05-31T09:40:18.000Z</time>
      </trkpt>
      <trkpt lat="44.1694" lon="5.2911">
        <ele>1716.9</ele>
        <time>2021-05-31T09:40:21.000Z</time>
      </trkpt>
      <trkpt lat="44.16945" lon="5.29102">
        <ele>1717.4</ele>
        <time>2021-05-31T09:40:22.000Z</time>
      </trkpt>
      <trkpt lat="44.16945" lon="5.29087">
        <ele>1718.1</ele>
        <time>2021-05-31T09:40:24.000Z</time>
      </trkpt>
      <trkpt lat="44.16941" lon="5.29075">
        <ele>1718.9</ele>
        <time>2021-05-31T09:40:26.000Z</time>
      </trkpt>
      <trkpt lat="44.16933" lon="5.29064">
        <ele>1719.6</ele>
        <time>2021-05-31T09:40:28.000Z</time>
      </trkpt>
      <trkpt lat="44.16918" lon="5.29048">
        <ele>1720.7</ele>
        <time>2021-05-31T09:40:31.000Z</time>
      </trkpt>
      <trkpt lat="44.16903" lon="5.29031">
        <ele>1721.8</ele>
        <time>2021-05-31T09:40:34.000Z</time>
      </trkpt>
      <trkpt lat="44.16888" lon="5.29015">
        <ele>1723</ele>
        <time>2021-05-31T09:40:38.000Z</time>
      </trkpt>
      <trkpt lat="44.16875" lon="5.28996">
        <ele>1724.5</ele>
        <time>2021-05-31T09:40:41.000Z</time>
      </trkpt>
      <trkpt lat="44.16866" lon="5.28975">
        <ele>1725.8</ele>
        <time>2021-05-31T09:40:45.000Z</time>
      </trkpt>
      <trkpt lat="44.16861" lon="5.28953">
        <ele>1727.9</ele>
        <time>2021-05-31T09:40:49.000Z</time>
      </trkpt>
      <trkpt lat="44.16859" lon="5.28927">
        <ele>1729.8</ele>
        <time>2021-05-31T09:40:54.000Z</time>
      </trkpt>
      <trkpt lat="44.16861" lon="5.28886">
        <ele>1731.8</ele>
        <time>2021-05-31T09:40:59.000Z</time>
      </trkpt>
      <trkpt lat="44.16864" lon="5.28864">
        <ele>1733.2</ele>
        <time>2021-05-31T09:41:02.000Z</time>
      </trkpt>
      <trkpt lat="44.16867" lon="5.28841">
        <ele>1734.6</ele>
        <time>2021-05-31T09:41:06.000Z</time>
      </trkpt>
      <trkpt lat="44.16875" lon="5.28801">
        <ele>1736.7</ele>
        <time>2021-05-31T09:41:11.000Z</time>
      </trkpt>
      <trkpt lat="44.16881" lon="5.28781">
        <ele>1738.3</ele>
        <time>2021-05-31T09:41:15.000Z</time>
      </trkpt>
      <trkpt lat="44.16886" lon="5.2876">
        <ele>1739.9</ele>
        <time>2021-05-31T09:41:19.000Z</time>
      </trkpt>
      <trkpt lat="44.16895" lon="5.28737">
        <ele>1741.1</ele>
        <time>2021-05-31T09:41:22.000Z</time>
      </trkpt>
      <trkpt lat="44.16903" lon="5.28713">
        <ele>1742.3</ele>
        <time>2021-05-31T09:41:25.000Z</time>
      </trkpt>
      <trkpt lat="44.16913" lon="5.28689">
        <ele>1744.4</ele>
        <time>2021-05-31T09:41:30.000Z</time>
      </trkpt>
      <trkpt lat="44.16923" lon="5.28665">
        <ele>1746.6</ele>
        <time>2021-05-31T09:41:35.000Z</time>
      </trkpt>
      <trkpt lat="44.16934" lon="5.28648">
        <ele>1748.2</ele>
        <time>2021-05-31T09:41:39.000Z</time>
      </trkpt>
      <trkpt lat="44.16945" lon="5.28631">
        <ele>1749.9</ele>
        <time>2021-05-31T09:41:43.000Z</time>
      </trkpt>
      <trkpt lat="44.16955" lon="5.28618">
        <ele>1751.9</ele>
        <time>2021-05-31T09:41:47.000Z</time>
      </trkpt>
      <trkpt lat="44.16965" lon="5.28604">
        <ele>1753.9</ele>
        <time>2021-05-31T09:41:51.000Z</time>
      </trkpt>
      <trkpt lat="44.16976" lon="5.28592">
        <ele>1755.7</ele>
        <time>2021-05-31T09:41:55.000Z</time>
      </trkpt>
      <trkpt lat="44.16987" lon="5.28579">
        <ele>1757.4</ele>
        <time>2021-05-31T09:41:58.000Z</time>
      </trkpt>
      <trkpt lat="44.17002" lon="5.28566">
        <ele>1759.2</ele>
        <time>2021-05-31T09:42:03.000Z</time>
      </trkpt>
      <trkpt lat="44.17017" lon="5.28553">
        <ele>1760.9</ele>
        <time>2021-05-31T09:42:07.000Z</time>
      </trkpt>
      <trkpt lat="44.17031" lon="5.28541">
        <ele>1762.7</ele>
        <time>2021-05-31T09:42:11.000Z</time>
      </trkpt>
      <trkpt lat="44.17046" lon="5.28528">
        <ele>1764.4</ele>
        <time>2021-05-31T09:42:15.000Z</time>
      </trkpt>
      <trkpt lat="44.17061" lon="5.28515">
        <ele>1766.2</ele>
        <time>2021-05-31T09:42:19.000Z</time>
      </trkpt>
      <trkpt lat="44.17071" lon="5.285">
        <ele>1767.7</ele>
        <time>2021-05-31T09:42:22.000Z</time>
      </trkpt>
      <trkpt lat="44.1708" lon="5.28485">
        <ele>1769.3</ele>
        <time>2021-05-31T09:42:26.000Z</time>
      </trkpt>
      <trkpt lat="44.1709" lon="5.28473">
        <ele>1770.9</ele>
        <time>2021-05-31T09:42:29.000Z</time>
      </trkpt>
      <trkpt lat="44.17099" lon="5.28461">
        <ele>1772.5</ele>
        <time>2021-05-31T09:42:33.000Z</time>
      </trkpt>
      <trkpt lat="44.17117" lon="5.28444">
        <ele>1774.5</ele>
        <time>2021-05-31T09:42:38.000Z</time>
      </trkpt>
      <trkpt lat="44.17135" lon="5.28434">
        <ele>1777</ele>
        <time>2021-05-31T09:42:43.000Z</time>
      </trkpt>
      <trkpt lat="44.17153" lon="5.28428">
        <ele>1779.2</ele>
        <time>2021-05-31T09:42:48.000Z</time>
      </trkpt>
      <trkpt lat="44.17171" lon="5.28425">
        <ele>1780.9</ele>
        <time>2021-05-31T09:42:52.000Z</time>
      </trkpt>
      <trkpt lat="44.17189" lon="5.28422">
        <ele>1782.6</ele>
        <time>2021-05-31T09:42:56.000Z</time>
      </trkpt>
      <trkpt lat="44.17207" lon="5.28419">
        <ele>1784.3</ele>
        <time>2021-05-31T09:43:00.000Z</time>
      </trkpt>
      <trkpt lat="44.17225" lon="5.28416">
        <ele>1786.1</ele>
        <time>2021-05-31T09:43:04.000Z</time>
      </trkpt>
      <trkpt lat="44.17243" lon="5.28413">
        <ele>1788.4</ele>
        <time>2021-05-31T09:43:09.000Z</time>
      </trkpt>
      <trkpt lat="44.17261" lon="5.2841">
        <ele>1790.7</ele>
        <time>2021-05-31T09:43:14.000Z</time>
      </trkpt>
      <trkpt lat="44.17278" lon="5.28407">
        <ele>1793.1</ele>
        <time>2021-05-31T09:43:19.000Z</time>
      </trkpt>
      <trkpt lat="44.17296" lon="5.28404">
        <ele>1795.4</ele>
        <time>2021-05-31T09:43:24.000Z</time>
      </trkpt>
      <trkpt lat="44.17314" lon="5.28401">
        <ele>1797.3</ele>
        <time>2021-05-31T09:43:28.000Z</time>
      </trkpt>
      <trkpt lat="44.17332" lon="5.28398">
        <ele>1799.2</ele>
        <time>2021-05-31T09:43:33.000Z</time>
      </trkpt>
      <trkpt lat="44.1735" lon="5.28395">
        <ele>1801</ele>
        <time>2021-05-31T09:43:37.000Z</time>
      </trkpt>
      <trkpt lat="44.17368" lon="5.28392">
        <ele>1802.8</ele>
        <time>2021-05-31T09:43:41.000Z</time>
      </trkpt>
      <trkpt lat="44.17385" lon="5.28388">
        <ele>1804.5</ele>
        <time>2021-05-31T09:43:45.000Z</time>
      </trkpt>
      <trkpt lat="44.17401" lon="5.28383">
        <ele>1806.3</ele>
        <time>2021-05-31T09:43:49.000Z</time>
      </trkpt>
      <trkpt lat="44.17413" lon="5.28376">
        <ele>1808</ele>
        <time>2021-05-31T09:43:53.000Z</time>
      </trkpt>
      <trkpt lat="44.17417" lon="5.28371">
        <ele>1808.8</ele>
        <time>2021-05-31T09:43:54.000Z</time>
      </trkpt>
      <trkpt lat="44.17424" lon="5.2835">
        <ele>1809.6</ele>
        <time>2021-05-31T09:43:57.000Z</time>
      </trkpt>
      <trkpt lat="44.17423" lon="5.2833">
        <ele>1811.1</ele>
        <time>2021-05-31T09:44:00.000Z</time>
      </trkpt>
      <trkpt lat="44.17421" lon="5.2831">
        <ele>1812.9</ele>
        <time>2021-05-31T09:44:04.000Z</time>
      </trkpt>
      <trkpt lat="44.17417" lon="5.28288">
        <ele>1815.2</ele>
        <time>2021-05-31T09:44:09.000Z</time>
      </trkpt>
      <trkpt lat="44.17413" lon="5.28265">
        <ele>1817.5</ele>
        <time>2021-05-31T09:44:14.000Z</time>
      </trkpt>
      <trkpt lat="44.17408" lon="5.28243">
        <ele>1819.8</ele>
        <time>2021-05-31T09:44:18.000Z</time>
      </trkpt>
      <trkpt lat="44.17404" lon="5.28221">
        <ele>1822.2</ele>
        <time>2021-05-31T09:44:23.000Z</time>
      </trkpt>
      <trkpt lat="44.174" lon="5.28198">
        <ele>1824.4</ele>
        <time>2021-05-31T09:44:28.000Z</time>
      </trkpt>
      <trkpt lat="44.17395" lon="5.28171">
        <ele>1826.6</ele>
        <time>2021-05-31T09:44:33.000Z</time>
      </trkpt>
      <trkpt lat="44.1739" lon="5.28143">
        <ele>1828.7</ele>
        <time>2021-05-31T09:44:38.000Z</time>
      </trkpt>
      <trkpt lat="44.17384" lon="5.28115">
        <ele>1830.8</ele>
        <time>2021-05-31T09:44:43.000Z</time>
      </trkpt>
      <trkpt lat="44.17379" lon="5.28087">
        <ele>1833.2</ele>
        <time>2021-05-31T09:44:48.000Z</time>
      </trkpt>
      <trkpt lat="44.17373" lon="5.28066">
        <ele>1836</ele>
        <time>2021-05-31T09:44:53.000Z</time>
      </trkpt>
      <trkpt lat="44.17362" lon="5.28043">
        <ele>1838</ele>
        <time>2021-05-31T09:44:58.000Z</time>
      </trkpt>
      <trkpt lat="44.17351" lon="5.2802">
        <ele>1839.7</ele>
        <time>2021-05-31T09:45:02.000Z</time>
      </trkpt>
      <trkpt lat="44.1734" lon="5.27996">
        <ele>1841.6</ele>
        <time>2021-05-31T09:45:07.000Z</time>
      </trkpt>
      <trkpt lat="44.17332" lon="5.27979">
        <ele>1843.4</ele>
        <time>2021-05-31T09:45:11.000Z</time>
      </trkpt>
      <trkpt lat="44.17324" lon="5.27962">
        <ele>1845.4</ele>
        <time>2021-05-31T09:45:15.000Z</time>
      </trkpt>
      <trkpt lat="44.17315" lon="5.27944">
        <ele>1847.4</ele>
        <time>2021-05-31T09:45:19.000Z</time>
      </trkpt>
      <trkpt lat="44.17307" lon="5.27927">
        <ele>1849.3</ele>
        <time>2021-05-31T09:45:23.000Z</time>
      </trkpt>
      <trkpt lat="44.17299" lon="5.27902">
        <ele>1851.2</ele>
        <time>2021-05-31T09:45:28.000Z</time>
      </trkpt>
      <trkpt lat="44.17296" lon="5.27875">
        <ele>1854.2</ele>
        <time>2021-05-31T09:45:34.000Z</time>
      </trkpt>
      <trkpt lat="44.17296" lon="5.27846">
        <ele>1856</ele>
        <time>2021-05-31T09:45:38.000Z</time>
      </trkpt>
      <trkpt lat="44.17302" lon="5.27803">
        <ele>1857.5</ele>
        <time>2021-05-31T09:45:43.000Z</time>
      </trkpt>
      <trkpt lat="44.17314" lon="5.27774">
        <ele>1859.7</ele>
        <time>2021-05-31T09:45:48.000Z</time>
      </trkpt>
      <trkpt lat="44.17325" lon="5.27745">
        <ele>1862</ele>
        <time>2021-05-31T09:45:54.000Z</time>
      </trkpt>
      <trkpt lat="44.17335" lon="5.27709">
        <ele>1864.6</ele>
        <time>2021-05-31T09:46:00.000Z</time>
      </trkpt>
      <trkpt lat="44.1734" lon="5.27702">
        <ele>1865.4</ele>
        <time>2021-05-31T09:46:02.000Z</time>
      </trkpt>
      <trkpt lat="44.17345" lon="5.27702">
        <ele>1866.1</ele>
        <time>2021-05-31T09:46:03.000Z</time>
      </trkpt>
      <trkpt lat="44.1735" lon="5.27706">
        <ele>1867.4</ele>
        <time>2021-05-31T09:46:05.000Z</time>
      </trkpt>
      <trkpt lat="44.17352" lon="5.27715">
        <ele>1869.9</ele>
        <time>2021-05-31T09:46:08.000Z</time>
      </trkpt>
      <trkpt lat="44.17352" lon="5.27746">
        <ele>1872.3</ele>
        <time>2021-05-31T09:46:13.000Z</time>
      </trkpt>
      <trkpt lat="44.17352" lon="5.27778">
        <ele>1873.6</ele>
        <time>2021-05-31T09:46:17.000Z</time>
      </trkpt>
      <trkpt lat="44.17351" lon="5.27809">
        <ele>1874.8</ele>
        <time>2021-05-31T09:46:20.000Z</time>
      </trkpt>
      <trkpt lat="44.17351" lon="5.2784">
        <ele>1875.8</ele>
        <time>2021-05-31T09:46:24.000Z</time>
      </trkpt>
      <trkpt lat="44.17357" lon="5.27878">
        <ele>1874.9</ele>
        <time>2021-05-31T09:46:26.000Z</time>
      </trkpt>
      <trkpt lat="44.17363" lon="5.27889">
        <ele>1874.1</ele>
        <time>2021-05-31T09:46:27.000Z</time>
      </trkpt>
      <trkpt lat="44.17384" lon="5.27919">
        <ele>1872.4</ele>
        <time>2021-05-31T09:46:29.000Z</time>
      </trkpt>
      <trkpt lat="44.17415" lon="5.27949">
        <ele>1868.7</ele>
        <time>2021-05-31T09:46:32.000Z</time>
      </trkpt>
      <trkpt lat="44.17446" lon="5.2798">
        <ele>1864.9</ele>
        <time>2021-05-31T09:46:34.000Z</time>
      </trkpt>
      <trkpt lat="44.1747" lon="5.28032">
        <ele>1861.4</ele>
        <time>2021-05-31T09:46:37.000Z</time>
      </trkpt>
      <trkpt lat="44.17478" lon="5.28044">
        <ele>1860.8</ele>
        <time>2021-05-31T09:46:38.000Z</time>
      </trkpt>
      <trkpt lat="44.17483" lon="5.28048">
        <ele>1860.5</ele>
        <time>2021-05-31T09:46:39.000Z</time>
      </trkpt>
      <trkpt lat="44.17488" lon="5.28049">
        <ele>1860.3</ele>
        <time>2021-05-31T09:46:39.000Z</time>
      </trkpt>
      <trkpt lat="44.17497" lon="5.28045">
        <ele>1859.9</ele>
        <time>2021-05-31T09:46:40.000Z</time>
      </trkpt>
      <trkpt lat="44.17504" lon="5.28027">
        <ele>1858.8</ele>
        <time>2021-05-31T09:46:41.000Z</time>
      </trkpt>
      <trkpt lat="44.17512" lon="5.27989">
        <ele>1855.9</ele>
        <time>2021-05-31T09:46:43.000Z</time>
      </trkpt>
      <trkpt lat="44.17519" lon="5.27951">
        <ele>1852.9</ele>
        <time>2021-05-31T09:46:45.000Z</time>
      </trkpt>
      <trkpt lat="44.17524" lon="5.279">
        <ele>1849.3</ele>
        <time>2021-05-31T09:46:48.000Z</time>
      </trkpt>
      <trkpt lat="44.17522" lon="5.27869">
        <ele>1846</ele>
        <time>2021-05-31T09:46:49.000Z</time>
      </trkpt>
      <trkpt lat="44.17511" lon="5.27806">
        <ele>1840.6</ele>
        <time>2021-05-31T09:46:53.000Z</time>
      </trkpt>
      <trkpt lat="44.17498" lon="5.27776">
        <ele>1838.2</ele>
        <time>2021-05-31T09:46:55.000Z</time>
      </trkpt>
      <trkpt lat="44.17478" lon="5.27746">
        <ele>1836.2</ele>
        <time>2021-05-31T09:46:57.000Z</time>
      </trkpt>
      <trkpt lat="44.17465" lon="5.2773">
        <ele>1833.1</ele>
        <time>2021-05-31T09:46:58.000Z</time>
      </trkpt>
      <trkpt lat="44.17441" lon="5.27708">
        <ele>1830.5</ele>
        <time>2021-05-31T09:47:00.000Z</time>
      </trkpt>
      <trkpt lat="44.17417" lon="5.27679">
        <ele>1827.3</ele>
        <time>2021-05-31T09:47:02.000Z</time>
      </trkpt>
      <trkpt lat="44.17407" lon="5.27659">
        <ele>1825.7</ele>
        <time>2021-05-31T09:47:04.000Z</time>
      </trkpt>
      <trkpt lat="44.17382" lon="5.27599">
        <ele>1819.4</ele>
        <time>2021-05-31T09:47:08.000Z</time>
      </trkpt>
      <trkpt lat="44.1737" lon="5.27569">
        <ele>1817.3</ele>
        <time>2021-05-31T09:47:09.000Z</time>
      </trkpt>
      <trkpt lat="44.17357" lon="5.27539">
        <ele>1815.3</ele>
        <time>2021-05-31T09:47:11.000Z</time>
      </trkpt>
      <trkpt lat="44.17352" lon="5.27519">
        <ele>1814.4</ele>
        <time>2021-05-31T09:47:12.000Z</time>
      </trkpt>
      <trkpt lat="44.17351" lon="5.27499">
        <ele>1813.4</ele>
        <time>2021-05-31T09:47:13.000Z</time>
      </trkpt>
      <trkpt lat="44.17352" lon="5.27447">
        <ele>1810.1</ele>
        <time>2021-05-31T09:47:16.000Z</time>
      </trkpt>
      <trkpt lat="44.17353" lon="5.27394">
        <ele>1806.8</ele>
        <time>2021-05-31T09:47:18.000Z</time>
      </trkpt>
      <trkpt lat="44.17351" lon="5.2736">
        <ele>1805.4</ele>
        <time>2021-05-31T09:47:20.000Z</time>
      </trkpt>
      <trkpt lat="44.1735" lon="5.27326">
        <ele>1804.1</ele>
        <time>2021-05-31T09:47:22.000Z</time>
      </trkpt>
      <trkpt lat="44.17348" lon="5.27292">
        <ele>1803.1</ele>
        <time>2021-05-31T09:47:24.000Z</time>
      </trkpt>
      <trkpt lat="44.17346" lon="5.27258">
        <ele>1802.1</ele>
        <time>2021-05-31T09:47:26.000Z</time>
      </trkpt>
      <trkpt lat="44.17348" lon="5.27249">
        <ele>1801.8</ele>
        <time>2021-05-31T09:47:26.000Z</time>
      </trkpt>
      <trkpt lat="44.17352" lon="5.27244">
        <ele>1801.6</ele>
        <time>2021-05-31T09:47:27.000Z</time>
      </trkpt>
      <trkpt lat="44.17358" lon="5.2724">
        <ele>1801.4</ele>
        <time>2021-05-31T09:47:27.000Z</time>
      </trkpt>
      <trkpt lat="44.17365" lon="5.27238">
        <ele>1801.2</ele>
        <time>2021-05-31T09:47:28.000Z</time>
      </trkpt>
      <trkpt lat="44.17372" lon="5.27239">
        <ele>1801</ele>
        <time>2021-05-31T09:47:29.000Z</time>
      </trkpt>
      <trkpt lat="44.17379" lon="5.27244">
        <ele>1800.7</ele>
        <time>2021-05-31T09:47:29.000Z</time>
      </trkpt>
      <trkpt lat="44.17383" lon="5.27249">
        <ele>1800.4</ele>
        <time>2021-05-31T09:47:30.000Z</time>
      </trkpt>
      <trkpt lat="44.17385" lon="5.27257">
        <ele>1800.1</ele>
        <time>2021-05-31T09:47:30.000Z</time>
      </trkpt>
      <trkpt lat="44.17386" lon="5.27279">
        <ele>1799.3</ele>
        <time>2021-05-31T09:47:31.000Z</time>
      </trkpt>
      <trkpt lat="44.17381" lon="5.27305">
        <ele>1798</ele>
        <time>2021-05-31T09:47:33.000Z</time>
      </trkpt>
      <trkpt lat="44.17379" lon="5.27344">
        <ele>1796.4</ele>
        <time>2021-05-31T09:47:35.000Z</time>
      </trkpt>
      <trkpt lat="44.1738" lon="5.27396">
        <ele>1793.6</ele>
        <time>2021-05-31T09:47:37.000Z</time>
      </trkpt>
      <trkpt lat="44.17381" lon="5.27448">
        <ele>1790.7</ele>
        <time>2021-05-31T09:47:40.000Z</time>
      </trkpt>
      <trkpt lat="44.17382" lon="5.27462">
        <ele>1789.7</ele>
        <time>2021-05-31T09:47:41.000Z</time>
      </trkpt>
      <trkpt lat="44.17388" lon="5.27485">
        <ele>1787.7</ele>
        <time>2021-05-31T09:47:42.000Z</time>
      </trkpt>
      <trkpt lat="44.17406" lon="5.27515">
        <ele>1784.5</ele>
        <time>2021-05-31T09:47:44.000Z</time>
      </trkpt>
      <trkpt lat="44.17437" lon="5.27553">
        <ele>1781</ele>
        <time>2021-05-31T09:47:47.000Z</time>
      </trkpt>
      <trkpt lat="44.17459" lon="5.27584">
        <ele>1778.1</ele>
        <time>2021-05-31T09:47:49.000Z</time>
      </trkpt>
      <trkpt lat="44.17469" lon="5.27593">
        <ele>1775.9</ele>
        <time>2021-05-31T09:47:50.000Z</time>
      </trkpt>
      <trkpt lat="44.17489" lon="5.27606">
        <ele>1772.1</ele>
        <time>2021-05-31T09:47:52.000Z</time>
      </trkpt>
      <trkpt lat="44.17514" lon="5.27611">
        <ele>1769.3</ele>
        <time>2021-05-31T09:47:54.000Z</time>
      </trkpt>
      <trkpt lat="44.17539" lon="5.27616">
        <ele>1766.4</ele>
        <time>2021-05-31T09:47:56.000Z</time>
      </trkpt>
      <trkpt lat="44.17561" lon="5.27623">
        <ele>1763</ele>
        <time>2021-05-31T09:47:58.000Z</time>
      </trkpt>
      <trkpt lat="44.17589" lon="5.27639">
        <ele>1759.5</ele>
        <time>2021-05-31T09:48:00.000Z</time>
      </trkpt>
      <trkpt lat="44.17617" lon="5.27655">
        <ele>1756.1</ele>
        <time>2021-05-31T09:48:02.000Z</time>
      </trkpt>
      <trkpt lat="44.1765" lon="5.27685">
        <ele>1752.3</ele>
        <time>2021-05-31T09:48:05.000Z</time>
      </trkpt>
      <trkpt lat="44.1767" lon="5.2772">
        <ele>1747.4</ele>
        <time>2021-05-31T09:48:08.000Z</time>
      </trkpt>
      <trkpt lat="44.17684" lon="5.27753">
        <ele>1744.4</ele>
        <time>2021-05-31T09:48:10.000Z</time>
      </trkpt>
      <trkpt lat="44.17707" lon="5.27812">
        <ele>1739.8</ele>
        <time>2021-05-31T09:48:13.000Z</time>
      </trkpt>
      <trkpt lat="44.17723" lon="5.27859">
        <ele>1736.6</ele>
        <time>2021-05-31T09:48:16.000Z</time>
      </trkpt>
      <trkpt lat="44.1773" lon="5.27895">
        <ele>1734.4</ele>
        <time>2021-05-31T09:48:18.000Z</time>
      </trkpt>
      <trkpt lat="44.17737" lon="5.27932">
        <ele>1732.2</ele>
        <time>2021-05-31T09:48:19.000Z</time>
      </trkpt>
      <trkpt lat="44.17741" lon="5.27964">
        <ele>1730.8</ele>
        <time>2021-05-31T09:48:21.000Z</time>
      </trkpt>
      <trkpt lat="44.17741" lon="5.27996">
        <ele>1728.2</ele>
        <time>2021-05-31T09:48:23.000Z</time>
      </trkpt>
      <trkpt lat="44.17736" lon="5.28026">
        <ele>1725.8</ele>
        <time>2021-05-31T09:48:25.000Z</time>
      </trkpt>
      <trkpt lat="44.17741" lon="5.28037">
        <ele>1723.6</ele>
        <time>2021-05-31T09:48:25.000Z</time>
      </trkpt>
      <trkpt lat="44.17745" lon="5.28041">
        <ele>1722.5</ele>
        <time>2021-05-31T09:48:26.000Z</time>
      </trkpt>
      <trkpt lat="44.17754" lon="5.28038">
        <ele>1720.8</ele>
        <time>2021-05-31T09:48:26.000Z</time>
      </trkpt>
      <trkpt lat="44.17758" lon="5.28029">
        <ele>1719.4</ele>
        <time>2021-05-31T09:48:27.000Z</time>
      </trkpt>
      <trkpt lat="44.17757" lon="5.27996">
        <ele>1717.2</ele>
        <time>2021-05-31T09:48:29.000Z</time>
      </trkpt>
      <trkpt lat="44.17763" lon="5.27952">
        <ele>1715.1</ele>
        <time>2021-05-31T09:48:31.000Z</time>
      </trkpt>
      <trkpt lat="44.17768" lon="5.27907">
        <ele>1713</ele>
        <time>2021-05-31T09:48:33.000Z</time>
      </trkpt>
      <trkpt lat="44.1777" lon="5.27864">
        <ele>1709.7</ele>
        <time>2021-05-31T09:48:36.000Z</time>
      </trkpt>
      <trkpt lat="44.17772" lon="5.27821">
        <ele>1706.3</ele>
        <time>2021-05-31T09:48:38.000Z</time>
      </trkpt>
      <trkpt lat="44.17773" lon="5.27778">
        <ele>1702.8</ele>
        <time>2021-05-31T09:48:40.000Z</time>
      </trkpt>
      <trkpt lat="44.17775" lon="5.27735">
        <ele>1699.1</ele>
        <time>2021-05-31T09:48:43.000Z</time>
      </trkpt>
      <trkpt lat="44.17774" lon="5.27712">
        <ele>1696.4</ele>
        <time>2021-05-31T09:48:44.000Z</time>
      </trkpt>
      <trkpt lat="44.17769" lon="5.27672">
        <ele>1694.3</ele>
        <time>2021-05-31T09:48:46.000Z</time>
      </trkpt>
      <trkpt lat="44.17763" lon="5.27633">
        <ele>1692.5</ele>
        <time>2021-05-31T09:48:48.000Z</time>
      </trkpt>
      <trkpt lat="44.17746" lon="5.27576">
        <ele>1688.2</ele>
        <time>2021-05-31T09:48:51.000Z</time>
      </trkpt>
      <trkpt lat="44.17729" lon="5.27533">
        <ele>1682.7</ele>
        <time>2021-05-31T09:48:54.000Z</time>
      </trkpt>
      <trkpt lat="44.17702" lon="5.2749">
        <ele>1679.9</ele>
        <time>2021-05-31T09:48:57.000Z</time>
      </trkpt>
      <trkpt lat="44.17682" lon="5.2747">
        <ele>1675.9</ele>
        <time>2021-05-31T09:48:59.000Z</time>
      </trkpt>
      <trkpt lat="44.17669" lon="5.27462">
        <ele>1674.7</ele>
        <time>2021-05-31T09:49:00.000Z</time>
      </trkpt>
      <trkpt lat="44.17644" lon="5.27453">
        <ele>1672.5</ele>
        <time>2021-05-31T09:49:02.000Z</time>
      </trkpt>
      <trkpt lat="44.17626" lon="5.27444">
        <ele>1671.1</ele>
        <time>2021-05-31T09:49:03.000Z</time>
      </trkpt>
      <trkpt lat="44.17618" lon="5.27438">
        <ele>1670.1</ele>
        <time>2021-05-31T09:49:04.000Z</time>
      </trkpt>
      <trkpt lat="44.17609" lon="5.27428">
        <ele>1668</ele>
        <time>2021-05-31T09:49:05.000Z</time>
      </trkpt>
      <trkpt lat="44.17607" lon="5.27422">
        <ele>1666.4</ele>
        <time>2021-05-31T09:49:05.000Z</time>
      </trkpt>
      <trkpt lat="44.17607" lon="5.27415">
        <ele>1664.9</ele>
        <time>2021-05-31T09:49:06.000Z</time>
      </trkpt>
      <trkpt lat="44.17622" lon="5.2738">
        <ele>1662.8</ele>
        <time>2021-05-31T09:49:08.000Z</time>
      </trkpt>
      <trkpt lat="44.17636" lon="5.27344">
        <ele>1661.5</ele>
        <time>2021-05-31T09:49:10.000Z</time>
      </trkpt>
      <trkpt lat="44.17645" lon="5.27326">
        <ele>1660.1</ele>
        <time>2021-05-31T09:49:11.000Z</time>
      </trkpt>
      <trkpt lat="44.17656" lon="5.27309">
        <ele>1659.1</ele>
        <time>2021-05-31T09:49:12.000Z</time>
      </trkpt>
      <trkpt lat="44.17673" lon="5.27289">
        <ele>1657.9</ele>
        <time>2021-05-31T09:49:14.000Z</time>
      </trkpt>
      <trkpt lat="44.17686" lon="5.27278">
        <ele>1656.8</ele>
        <time>2021-05-31T09:49:15.000Z</time>
      </trkpt>
      <trkpt lat="44.17698" lon="5.27271">
        <ele>1655.6</ele>
        <time>2021-05-31T09:49:16.000Z</time>
      </trkpt>
      <trkpt lat="44.17709" lon="5.27262">
        <ele>1654.3</ele>
        <time>2021-05-31T09:49:17.000Z</time>
      </trkpt>
      <trkpt lat="44.1772" lon="5.27241">
        <ele>1651.3</ele>
        <time>2021-05-31T09:49:18.000Z</time>
      </trkpt>
      <trkpt lat="44.17724" lon="5.27221">
        <ele>1649.8</ele>
        <time>2021-05-31T09:49:19.000Z</time>
      </trkpt>
      <trkpt lat="44.17728" lon="5.27187">
        <ele>1648.3</ele>
        <time>2021-05-31T09:49:21.000Z</time>
      </trkpt>
      <trkpt lat="44.17732" lon="5.27153">
        <ele>1646.7</ele>
        <time>2021-05-31T09:49:23.000Z</time>
      </trkpt>
      <trkpt lat="44.17741" lon="5.27107">
        <ele>1642.7</ele>
        <time>2021-05-31T09:49:25.000Z</time>
      </trkpt>
      <trkpt lat="44.1775" lon="5.27061">
        <ele>1638.7</ele>
        <time>2021-05-31T09:49:28.000Z</time>
      </trkpt>
      <trkpt lat="44.17753" lon="5.27027">
        <ele>1636.6</ele>
        <time>2021-05-31T09:49:30.000Z</time>
      </trkpt>
      <trkpt lat="44.17757" lon="5.26992">
        <ele>1634.5</ele>
        <time>2021-05-31T09:49:32.000Z</time>
      </trkpt>
      <trkpt lat="44.1776" lon="5.26958">
        <ele>1632.4</ele>
        <time>2021-05-31T09:49:33.000Z</time>
      </trkpt>
      <trkpt lat="44.17763" lon="5.26923">
        <ele>1630.2</ele>
        <time>2021-05-31T09:49:35.000Z</time>
      </trkpt>
      <trkpt lat="44.17765" lon="5.26878">
        <ele>1627.4</ele>
        <time>2021-05-31T09:49:37.000Z</time>
      </trkpt>
      <trkpt lat="44.17767" lon="5.26833">
        <ele>1624.5</ele>
        <time>2021-05-31T09:49:40.000Z</time>
      </trkpt>
      <trkpt lat="44.17768" lon="5.26799">
        <ele>1622.7</ele>
        <time>2021-05-31T09:49:41.000Z</time>
      </trkpt>
      <trkpt lat="44.17768" lon="5.26764">
        <ele>1620.9</ele>
        <time>2021-05-31T09:49:43.000Z</time>
      </trkpt>
      <trkpt lat="44.17769" lon="5.2673">
        <ele>1618.9</ele>
        <time>2021-05-31T09:49:45.000Z</time>
      </trkpt>
      <trkpt lat="44.17769" lon="5.26695">
        <ele>1616.7</ele>
        <time>2021-05-31T09:49:47.000Z</time>
      </trkpt>
      <trkpt lat="44.17767" lon="5.26665">
        <ele>1614</ele>
        <time>2021-05-31T09:49:48.000Z</time>
      </trkpt>
      <trkpt lat="44.17763" lon="5.26631">
        <ele>1612.2</ele>
        <time>2021-05-31T09:49:50.000Z</time>
      </trkpt>
      <trkpt lat="44.17759" lon="5.26598">
        <ele>1610.4</ele>
        <time>2021-05-31T09:49:52.000Z</time>
      </trkpt>
      <trkpt lat="44.17775" lon="5.26544">
        <ele>1606.4</ele>
        <time>2021-05-31T09:49:55.000Z</time>
      </trkpt>
      <trkpt lat="44.17782" lon="5.2649">
        <ele>1603.1</ele>
        <time>2021-05-31T09:49:57.000Z</time>
      </trkpt>
      <trkpt lat="44.17784" lon="5.26453">
        <ele>1600.8</ele>
        <time>2021-05-31T09:49:59.000Z</time>
      </trkpt>
      <trkpt lat="44.17786" lon="5.26414">
        <ele>1597.7</ele>
        <time>2021-05-31T09:50:01.000Z</time>
      </trkpt>
      <trkpt lat="44.17787" lon="5.26374">
        <ele>1594.7</ele>
        <time>2021-05-31T09:50:03.000Z</time>
      </trkpt>
      <trkpt lat="44.17786" lon="5.26335">
        <ele>1591.7</ele>
        <time>2021-05-31T09:50:06.000Z</time>
      </trkpt>
      <trkpt lat="44.17785" lon="5.26296">
        <ele>1588.7</ele>
        <time>2021-05-31T09:50:08.000Z</time>
      </trkpt>
      <trkpt lat="44.17783" lon="5.26258">
        <ele>1586</ele>
        <time>2021-05-31T09:50:10.000Z</time>
      </trkpt>
      <trkpt lat="44.17782" lon="5.26219">
        <ele>1583.3</ele>
        <time>2021-05-31T09:50:12.000Z</time>
      </trkpt>
      <trkpt lat="44.17785" lon="5.26174">
        <ele>1580.8</ele>
        <time>2021-05-31T09:50:14.000Z</time>
      </trkpt>
      <trkpt lat="44.17788" lon="5.26129">
        <ele>1578.3</ele>
        <time>2021-05-31T09:50:16.000Z</time>
      </trkpt>
      <trkpt lat="44.17789" lon="5.26089">
        <ele>1575.8</ele>
        <time>2021-05-31T09:50:18.000Z</time>
      </trkpt>
      <trkpt lat="44.17789" lon="5.26049">
        <ele>1573.4</ele>
        <time>2021-05-31T09:50:20.000Z</time>
      </trkpt>
      <trkpt lat="44.17787" lon="5.26005">
        <ele>1571.7</ele>
        <time>2021-05-31T09:50:22.000Z</time>
      </trkpt>
      <trkpt lat="44.17784" lon="5.25962">
        <ele>1570</ele>
        <time>2021-05-31T09:50:25.000Z</time>
      </trkpt>
      <trkpt lat="44.17781" lon="5.25947">
        <ele>1569.1</ele>
        <time>2021-05-31T09:50:25.000Z</time>
      </trkpt>
      <trkpt lat="44.17772" lon="5.25923">
        <ele>1566.6</ele>
        <time>2021-05-31T09:50:27.000Z</time>
      </trkpt>
      <trkpt lat="44.17769" lon="5.25899">
        <ele>1564.4</ele>
        <time>2021-05-31T09:50:28.000Z</time>
      </trkpt>
      <trkpt lat="44.17772" lon="5.25888">
        <ele>1563.5</ele>
        <time>2021-05-31T09:50:29.000Z</time>
      </trkpt>
      <trkpt lat="44.17785" lon="5.25858">
        <ele>1560.8</ele>
        <time>2021-05-31T09:50:31.000Z</time>
      </trkpt>
      <trkpt lat="44.17795" lon="5.25818">
        <ele>1557.9</ele>
        <time>2021-05-31T09:50:33.000Z</time>
      </trkpt>
      <trkpt lat="44.17799" lon="5.25766">
        <ele>1554.6</ele>
        <time>2021-05-31T09:50:36.000Z</time>
      </trkpt>
      <trkpt lat="44.178" lon="5.25726">
        <ele>1552.7</ele>
        <time>2021-05-31T09:50:38.000Z</time>
      </trkpt>
      <trkpt lat="44.17798" lon="5.25688">
        <ele>1550.9</ele>
        <time>2021-05-31T09:50:40.000Z</time>
      </trkpt>
      <trkpt lat="44.17795" lon="5.2565">
        <ele>1549.3</ele>
        <time>2021-05-31T09:50:42.000Z</time>
      </trkpt>
      <trkpt lat="44.17792" lon="5.25628">
        <ele>1548.9</ele>
        <time>2021-05-31T09:50:43.000Z</time>
      </trkpt>
      <trkpt lat="44.17787" lon="5.25609">
        <ele>1548.8</ele>
        <time>2021-05-31T09:50:44.000Z</time>
      </trkpt>
      <trkpt lat="44.1777" lon="5.25561">
        <ele>1547.1</ele>
        <time>2021-05-31T09:50:47.000Z</time>
      </trkpt>
      <trkpt lat="44.17767" lon="5.25547">
        <ele>1546.8</ele>
        <time>2021-05-31T09:50:48.000Z</time>
      </trkpt>
      <trkpt lat="44.17767" lon="5.25531">
        <ele>1546</ele>
        <time>2021-05-31T09:50:49.000Z</time>
      </trkpt>
      <trkpt lat="44.17774" lon="5.25499">
        <ele>1544.1</ele>
        <time>2021-05-31T09:50:51.000Z</time>
      </trkpt>
      <trkpt lat="44.1778" lon="5.25466">
        <ele>1542</ele>
        <time>2021-05-31T09:50:52.000Z</time>
      </trkpt>
      <trkpt lat="44.17781" lon="5.25446">
        <ele>1540.5</ele>
        <time>2021-05-31T09:50:53.000Z</time>
      </trkpt>
      <trkpt lat="44.17777" lon="5.25396">
        <ele>1536.9</ele>
        <time>2021-05-31T09:50:56.000Z</time>
      </trkpt>
      <trkpt lat="44.17774" lon="5.25346">
        <ele>1533.5</ele>
        <time>2021-05-31T09:50:59.000Z</time>
      </trkpt>
      <trkpt lat="44.17771" lon="5.25313">
        <ele>1533.1</ele>
        <time>2021-05-31T09:51:01.000Z</time>
      </trkpt>
      <trkpt lat="44.17769" lon="5.25279">
        <ele>1532.9</ele>
        <time>2021-05-31T09:51:03.000Z</time>
      </trkpt>
      <trkpt lat="44.17766" lon="5.25246">
        <ele>1532.6</ele>
        <time>2021-05-31T09:51:05.000Z</time>
      </trkpt>
      <trkpt lat="44.17764" lon="5.25203">
        <ele>1531</ele>
        <time>2021-05-31T09:51:07.000Z</time>
      </trkpt>
      <trkpt lat="44.17761" lon="5.25159">
        <ele>1529.4</ele>
        <time>2021-05-31T09:51:10.000Z</time>
      </trkpt>
      <trkpt lat="44.17759" lon="5.25116">
        <ele>1528</ele>
        <time>2021-05-31T09:51:12.000Z</time>
      </trkpt>
      <trkpt lat="44.17756" lon="5.25073">
        <ele>1526.6</ele>
        <time>2021-05-31T09:51:15.000Z</time>
      </trkpt>
      <trkpt lat="44.17751" lon="5.25035">
        <ele>1524</ele>
        <time>2021-05-31T09:51:16.000Z</time>
      </trkpt>
      <trkpt lat="44.17745" lon="5.24998">
        <ele>1521.3</ele>
        <time>2021-05-31T09:51:18.000Z</time>
      </trkpt>
      <trkpt lat="44.1774" lon="5.2496">
        <ele>1518.7</ele>
        <time>2021-05-31T09:51:20.000Z</time>
      </trkpt>
      <trkpt lat="44.17729" lon="5.24911">
        <ele>1516.8</ele>
        <time>2021-05-31T09:51:23.000Z</time>
      </trkpt>
      <trkpt lat="44.17718" lon="5.24862">
        <ele>1515</ele>
        <time>2021-05-31T09:51:26.000Z</time>
      </trkpt>
      <trkpt lat="44.1771" lon="5.24829">
        <ele>1513.9</ele>
        <time>2021-05-31T09:51:28.000Z</time>
      </trkpt>
      <trkpt lat="44.17701" lon="5.24796">
        <ele>1512.8</ele>
        <time>2021-05-31T09:51:30.000Z</time>
      </trkpt>
      <trkpt lat="44.17693" lon="5.24764">
        <ele>1510.7</ele>
        <time>2021-05-31T09:51:31.000Z</time>
      </trkpt>
      <trkpt lat="44.17684" lon="5.24731">
        <ele>1508.7</ele>
        <time>2021-05-31T09:51:33.000Z</time>
      </trkpt>
      <trkpt lat="44.17677" lon="5.24712">
        <ele>1507.7</ele>
        <time>2021-05-31T09:51:34.000Z</time>
      </trkpt>
      <trkpt lat="44.1766" lon="5.24687">
        <ele>1505.7</ele>
        <time>2021-05-31T09:51:36.000Z</time>
      </trkpt>
      <trkpt lat="44.17658" lon="5.24681">
        <ele>1505.1</ele>
        <time>2021-05-31T09:51:36.000Z</time>
      </trkpt>
      <trkpt lat="44.17658" lon="5.24674">
        <ele>1504.5</ele>
        <time>2021-05-31T09:51:37.000Z</time>
      </trkpt>
      <trkpt lat="44.17666" lon="5.24663">
        <ele>1503.4</ele>
        <time>2021-05-31T09:51:38.000Z</time>
      </trkpt>
      <trkpt lat="44.17674" lon="5.24665">
        <ele>1502.4</ele>
        <time>2021-05-31T09:51:38.000Z</time>
      </trkpt>
      <trkpt lat="44.17691" lon="5.24709">
        <ele>1498.1</ele>
        <time>2021-05-31T09:51:41.000Z</time>
      </trkpt>
      <trkpt lat="44.17715" lon="5.24743">
        <ele>1494.9</ele>
        <time>2021-05-31T09:51:43.000Z</time>
      </trkpt>
      <trkpt lat="44.17739" lon="5.24777">
        <ele>1491.7</ele>
        <time>2021-05-31T09:51:46.000Z</time>
      </trkpt>
      <trkpt lat="44.17761" lon="5.24812">
        <ele>1488.3</ele>
        <time>2021-05-31T09:51:48.000Z</time>
      </trkpt>
      <trkpt lat="44.17783" lon="5.24847">
        <ele>1484.9</ele>
        <time>2021-05-31T09:51:51.000Z</time>
      </trkpt>
      <trkpt lat="44.17805" lon="5.24882">
        <ele>1481</ele>
        <time>2021-05-31T09:51:53.000Z</time>
      </trkpt>
      <trkpt lat="44.17827" lon="5.24917">
        <ele>1477.2</ele>
        <time>2021-05-31T09:51:56.000Z</time>
      </trkpt>
      <trkpt lat="44.17842" lon="5.24948">
        <ele>1474.3</ele>
        <time>2021-05-31T09:51:58.000Z</time>
      </trkpt>
      <trkpt lat="44.17857" lon="5.2498">
        <ele>1471.4</ele>
        <time>2021-05-31T09:52:00.000Z</time>
      </trkpt>
      <trkpt lat="44.17875" lon="5.25023">
        <ele>1468.4</ele>
        <time>2021-05-31T09:52:02.000Z</time>
      </trkpt>
      <trkpt lat="44.17893" lon="5.25066">
        <ele>1465.2</ele>
        <time>2021-05-31T09:52:05.000Z</time>
      </trkpt>
      <trkpt lat="44.17898" lon="5.25085">
        <ele>1462.8</ele>
        <time>2021-05-31T09:52:06.000Z</time>
      </trkpt>
      <trkpt lat="44.179" lon="5.25119">
        <ele>1460.8</ele>
        <time>2021-05-31T09:52:08.000Z</time>
      </trkpt>
      <trkpt lat="44.17898" lon="5.25139">
        <ele>1459.7</ele>
        <time>2021-05-31T09:52:09.000Z</time>
      </trkpt>
      <trkpt lat="44.17889" lon="5.25184">
        <ele>1454.8</ele>
        <time>2021-05-31T09:52:11.000Z</time>
      </trkpt>
      <trkpt lat="44.17889" lon="5.25196">
        <ele>1453.5</ele>
        <time>2021-05-31T09:52:12.000Z</time>
      </trkpt>
      <trkpt lat="44.17906" lon="5.25237">
        <ele>1448.3</ele>
        <time>2021-05-31T09:52:15.000Z</time>
      </trkpt>
      <trkpt lat="44.17919" lon="5.2529">
        <ele>1442.4</ele>
        <time>2021-05-31T09:52:18.000Z</time>
      </trkpt>
      <trkpt lat="44.17928" lon="5.25341">
        <ele>1438.4</ele>
        <time>2021-05-31T09:52:21.000Z</time>
      </trkpt>
      <trkpt lat="44.17934" lon="5.25361">
        <ele>1436.9</ele>
        <time>2021-05-31T09:52:22.000Z</time>
      </trkpt>
      <trkpt lat="44.1795" lon="5.25401">
        <ele>1434</ele>
        <time>2021-05-31T09:52:24.000Z</time>
      </trkpt>
      <trkpt lat="44.17961" lon="5.25441">
        <ele>1431.4</ele>
        <time>2021-05-31T09:52:26.000Z</time>
      </trkpt>
      <trkpt lat="44.17972" lon="5.25481">
        <ele>1428.7</ele>
        <time>2021-05-31T09:52:28.000Z</time>
      </trkpt>
      <trkpt lat="44.17981" lon="5.25499">
        <ele>1426.2</ele>
        <time>2021-05-31T09:52:30.000Z</time>
      </trkpt>
      <trkpt lat="44.1799" lon="5.25509">
        <ele>1423</ele>
        <time>2021-05-31T09:52:30.000Z</time>
      </trkpt>
      <trkpt lat="44.18017" lon="5.25527">
        <ele>1420.3</ele>
        <time>2021-05-31T09:52:33.000Z</time>
      </trkpt>
      <trkpt lat="44.18043" lon="5.25546">
        <ele>1418.2</ele>
        <time>2021-05-31T09:52:35.000Z</time>
      </trkpt>
      <trkpt lat="44.18062" lon="5.25563">
        <ele>1417.5</ele>
        <time>2021-05-31T09:52:36.000Z</time>
      </trkpt>
      <trkpt lat="44.18079" lon="5.25585">
        <ele>1415.4</ele>
        <time>2021-05-31T09:52:38.000Z</time>
      </trkpt>
      <trkpt lat="44.18082" lon="5.25593">
        <ele>1415.1</ele>
        <time>2021-05-31T09:52:39.000Z</time>
      </trkpt>
      <trkpt lat="44.18088" lon="5.25618">
        <ele>1415</ele>
        <time>2021-05-31T09:52:40.000Z</time>
      </trkpt>
      <trkpt lat="44.1809" lon="5.25647">
        <ele>1415.5</ele>
        <time>2021-05-31T09:52:43.000Z</time>
      </trkpt>
      <trkpt lat="44.18089" lon="5.25676">
        <ele>1416.1</ele>
        <time>2021-05-31T09:52:45.000Z</time>
      </trkpt>
      <trkpt lat="44.18089" lon="5.25705">
        <ele>1416.8</ele>
        <time>2021-05-31T09:52:48.000Z</time>
      </trkpt>
      <trkpt lat="44.18088" lon="5.25734">
        <ele>1417.3</ele>
        <time>2021-05-31T09:52:51.000Z</time>
      </trkpt>
      <trkpt lat="44.18089" lon="5.25766">
        <ele>1417.3</ele>
        <time>2021-05-31T09:52:53.000Z</time>
      </trkpt>
      <trkpt lat="44.18089" lon="5.25797">
        <ele>1417.2</ele>
        <time>2021-05-31T09:52:55.000Z</time>
      </trkpt>
      <trkpt lat="44.1809" lon="5.25829">
        <ele>1417.1</ele>
        <time>2021-05-31T09:52:57.000Z</time>
      </trkpt>
      <trkpt lat="44.18092" lon="5.25841">
        <ele>1417.1</ele>
        <time>2021-05-31T09:52:58.000Z</time>
      </trkpt>
      <trkpt lat="44.18098" lon="5.25848">
        <ele>1417</ele>
        <time>2021-05-31T09:52:59.000Z</time>
      </trkpt>
      <trkpt lat="44.18105" lon="5.25847">
        <ele>1416.7</ele>
        <time>2021-05-31T09:52:59.000Z</time>
      </trkpt>
      <trkpt lat="44.18108" lon="5.25843">
        <ele>1416.5</ele>
        <time>2021-05-31T09:53:00.000Z</time>
      </trkpt>
      <trkpt lat="44.1811" lon="5.25834">
        <ele>1416.2</ele>
        <time>2021-05-31T09:53:00.000Z</time>
      </trkpt>
      <trkpt lat="44.18112" lon="5.258">
        <ele>1415.3</ele>
        <time>2021-05-31T09:53:02.000Z</time>
      </trkpt>
      <trkpt lat="44.18113" lon="5.25765">
        <ele>1414.5</ele>
        <time>2021-05-31T09:53:04.000Z</time>
      </trkpt>
      <trkpt lat="44.18112" lon="5.25714">
        <ele>1412.6</ele>
        <time>2021-05-31T09:53:07.000Z</time>
      </trkpt>
      <trkpt lat="44.18111" lon="5.25664">
        <ele>1410.7</ele>
        <time>2021-05-31T09:53:10.000Z</time>
      </trkpt>
      <trkpt lat="44.18109" lon="5.25617">
        <ele>1409.5</ele>
        <time>2021-05-31T09:53:12.000Z</time>
      </trkpt>
      <trkpt lat="44.18107" lon="5.2557">
        <ele>1408.2</ele>
        <time>2021-05-31T09:53:15.000Z</time>
      </trkpt>
      <trkpt lat="44.18109" lon="5.25536">
        <ele>1407.3</ele>
        <time>2021-05-31T09:53:17.000Z</time>
      </trkpt>
      <trkpt lat="44.18111" lon="5.25536">
        <ele>1407.3</ele>
        <time>2021-05-31T09:53:17.000Z</time>
      </trkpt>
      <trkpt lat="44.18115" lon="5.25528">
        <ele>1407.2</ele>
        <time>2021-05-31T09:53:18.000Z</time>
      </trkpt>
      <trkpt lat="44.18115" lon="5.25524">
        <ele>1407.1</ele>
        <time>2021-05-31T09:53:18.000Z</time>
      </trkpt>
      <trkpt lat="44.18099" lon="5.25502">
        <ele>1406.7</ele>
        <time>2021-05-31T09:53:20.000Z</time>
      </trkpt>
      <trkpt lat="44.18081" lon="5.25491">
        <ele>1406.4</ele>
        <time>2021-05-31T09:53:22.000Z</time>
      </trkpt>
      <trkpt lat="44.18043" lon="5.25478">
        <ele>1406</ele>
        <time>2021-05-31T09:53:25.000Z</time>
      </trkpt>
      <trkpt lat="44.1803" lon="5.2547">
        <ele>1405.8</ele>
        <time>2021-05-31T09:53:27.000Z</time>
      </trkpt>
      <trkpt lat="44.18021" lon="5.2546">
        <ele>1405.6</ele>
        <time>2021-05-31T09:53:28.000Z</time>
      </trkpt>
      <trkpt lat="44.18014" lon="5.25445">
        <ele>1405</ele>
        <time>2021-05-31T09:53:29.000Z</time>
      </trkpt>
      <trkpt lat="44.18004" lon="5.25409">
        <ele>1404.7</ele>
        <time>2021-05-31T09:53:31.000Z</time>
      </trkpt>
      <trkpt lat="44.17994" lon="5.25374">
        <ele>1404.4</ele>
        <time>2021-05-31T09:53:34.000Z</time>
      </trkpt>
      <trkpt lat="44.17984" lon="5.25338">
        <ele>1404.1</ele>
        <time>2021-05-31T09:53:36.000Z</time>
      </trkpt>
      <trkpt lat="44.17982" lon="5.25312">
        <ele>1403.1</ele>
        <time>2021-05-31T09:53:38.000Z</time>
      </trkpt>
      <trkpt lat="44.17983" lon="5.25271">
        <ele>1401.4</ele>
        <time>2021-05-31T09:53:40.000Z</time>
      </trkpt>
      <trkpt lat="44.17983" lon="5.2523">
        <ele>1399.8</ele>
        <time>2021-05-31T09:53:42.000Z</time>
      </trkpt>
      <trkpt lat="44.17985" lon="5.25214">
        <ele>1399.6</ele>
        <time>2021-05-31T09:53:43.000Z</time>
      </trkpt>
      <trkpt lat="44.17989" lon="5.25204">
        <ele>1399.5</ele>
        <time>2021-05-31T09:53:44.000Z</time>
      </trkpt>
      <trkpt lat="44.17997" lon="5.25193">
        <ele>1399.3</ele>
        <time>2021-05-31T09:53:45.000Z</time>
      </trkpt>
      <trkpt lat="44.18016" lon="5.25178">
        <ele>1399</ele>
        <time>2021-05-31T09:53:47.000Z</time>
      </trkpt>
      <trkpt lat="44.18024" lon="5.25168">
        <ele>1398.4</ele>
        <time>2021-05-31T09:53:48.000Z</time>
      </trkpt>
      <trkpt lat="44.18032" lon="5.25152">
        <ele>1397.9</ele>
        <time>2021-05-31T09:53:49.000Z</time>
      </trkpt>
      <trkpt lat="44.18036" lon="5.25139">
        <ele>1397.3</ele>
        <time>2021-05-31T09:53:49.000Z</time>
      </trkpt>
      <trkpt lat="44.18038" lon="5.25114">
        <ele>1396.5</ele>
        <time>2021-05-31T09:53:51.000Z</time>
      </trkpt>
      <trkpt lat="44.18041" lon="5.25075">
        <ele>1395.8</ele>
        <time>2021-05-31T09:53:53.000Z</time>
      </trkpt>
      <trkpt lat="44.18044" lon="5.25036">
        <ele>1395.1</ele>
        <time>2021-05-31T09:53:56.000Z</time>
      </trkpt>
      <trkpt lat="44.18053" lon="5.24981">
        <ele>1393.8</ele>
        <time>2021-05-31T09:53:59.000Z</time>
      </trkpt>
      <trkpt lat="44.18054" lon="5.2494">
        <ele>1392.6</ele>
        <time>2021-05-31T09:54:01.000Z</time>
      </trkpt>
      <trkpt lat="44.1805" lon="5.24898">
        <ele>1391.5</ele>
        <time>2021-05-31T09:54:04.000Z</time>
      </trkpt>
      <trkpt lat="44.1804" lon="5.24856">
        <ele>1390.3</ele>
        <time>2021-05-31T09:54:06.000Z</time>
      </trkpt>
      <trkpt lat="44.1803" lon="5.24815">
        <ele>1389</ele>
        <time>2021-05-31T09:54:09.000Z</time>
      </trkpt>
      <trkpt lat="44.18008" lon="5.24764">
        <ele>1386.3</ele>
        <time>2021-05-31T09:54:12.000Z</time>
      </trkpt>
      <trkpt lat="44.17991" lon="5.2473">
        <ele>1384.4</ele>
        <time>2021-05-31T09:54:14.000Z</time>
      </trkpt>
      <trkpt lat="44.17973" lon="5.24696">
        <ele>1382.3</ele>
        <time>2021-05-31T09:54:16.000Z</time>
      </trkpt>
      <trkpt lat="44.17944" lon="5.24648">
        <ele>1375.7</ele>
        <time>2021-05-31T09:54:20.000Z</time>
      </trkpt>
      <trkpt lat="44.1792" lon="5.24619">
        <ele>1373.3</ele>
        <time>2021-05-31T09:54:22.000Z</time>
      </trkpt>
      <trkpt lat="44.17896" lon="5.24596">
        <ele>1370.8</ele>
        <time>2021-05-31T09:54:24.000Z</time>
      </trkpt>
      <trkpt lat="44.17872" lon="5.24574">
        <ele>1368.1</ele>
        <time>2021-05-31T09:54:26.000Z</time>
      </trkpt>
      <trkpt lat="44.17856" lon="5.24553">
        <ele>1365.9</ele>
        <time>2021-05-31T09:54:27.000Z</time>
      </trkpt>
      <trkpt lat="44.17847" lon="5.24525">
        <ele>1364.1</ele>
        <time>2021-05-31T09:54:29.000Z</time>
      </trkpt>
      <trkpt lat="44.17845" lon="5.24487">
        <ele>1362.5</ele>
        <time>2021-05-31T09:54:31.000Z</time>
      </trkpt>
      <trkpt lat="44.17845" lon="5.2444">
        <ele>1360.8</ele>
        <time>2021-05-31T09:54:33.000Z</time>
      </trkpt>
      <trkpt lat="44.1784" lon="5.24412">
        <ele>1359.4</ele>
        <time>2021-05-31T09:54:35.000Z</time>
      </trkpt>
      <trkpt lat="44.17831" lon="5.24376">
        <ele>1357.9</ele>
        <time>2021-05-31T09:54:37.000Z</time>
      </trkpt>
      <trkpt lat="44.17819" lon="5.24339">
        <ele>1356.4</ele>
        <time>2021-05-31T09:54:39.000Z</time>
      </trkpt>
      <trkpt lat="44.17807" lon="5.24303">
        <ele>1355</ele>
        <time>2021-05-31T09:54:41.000Z</time>
      </trkpt>
      <trkpt lat="44.17793" lon="5.24268">
        <ele>1353.2</ele>
        <time>2021-05-31T09:54:43.000Z</time>
      </trkpt>
      <trkpt lat="44.17778" lon="5.24233">
        <ele>1351.4</ele>
        <time>2021-05-31T09:54:45.000Z</time>
      </trkpt>
      <trkpt lat="44.17765" lon="5.24209">
        <ele>1349.7</ele>
        <time>2021-05-31T09:54:47.000Z</time>
      </trkpt>
      <trkpt lat="44.17749" lon="5.24184">
        <ele>1348.2</ele>
        <time>2021-05-31T09:54:49.000Z</time>
      </trkpt>
      <trkpt lat="44.17737" lon="5.24169">
        <ele>1347.5</ele>
        <time>2021-05-31T09:54:50.000Z</time>
      </trkpt>
      <trkpt lat="44.17714" lon="5.24147">
        <ele>1346.2</ele>
        <time>2021-05-31T09:54:52.000Z</time>
      </trkpt>
      <trkpt lat="44.17692" lon="5.24127">
        <ele>1345.3</ele>
        <time>2021-05-31T09:54:54.000Z</time>
      </trkpt>
      <trkpt lat="44.17671" lon="5.24106">
        <ele>1344.4</ele>
        <time>2021-05-31T09:54:56.000Z</time>
      </trkpt>
      <trkpt lat="44.17649" lon="5.24086">
        <ele>1343.4</ele>
        <time>2021-05-31T09:54:58.000Z</time>
      </trkpt>
      <trkpt lat="44.17643" lon="5.24073">
        <ele>1342.7</ele>
        <time>2021-05-31T09:54:59.000Z</time>
      </trkpt>
      <trkpt lat="44.17642" lon="5.24044">
        <ele>1341.1</ele>
        <time>2021-05-31T09:55:01.000Z</time>
      </trkpt>
      <trkpt lat="44.17649" lon="5.24004">
        <ele>1338.8</ele>
        <time>2021-05-31T09:55:03.000Z</time>
      </trkpt>
      <trkpt lat="44.17657" lon="5.23975">
        <ele>1336.7</ele>
        <time>2021-05-31T09:55:04.000Z</time>
      </trkpt>
      <trkpt lat="44.1767" lon="5.23945">
        <ele>1334.2</ele>
        <time>2021-05-31T09:55:06.000Z</time>
      </trkpt>
      <trkpt lat="44.17683" lon="5.23914">
        <ele>1331.7</ele>
        <time>2021-05-31T09:55:08.000Z</time>
      </trkpt>
      <trkpt lat="44.17688" lon="5.23899">
        <ele>1330.7</ele>
        <time>2021-05-31T09:55:09.000Z</time>
      </trkpt>
      <trkpt lat="44.1769" lon="5.23884">
        <ele>1329.6</ele>
        <time>2021-05-31T09:55:09.000Z</time>
      </trkpt>
      <trkpt lat="44.17685" lon="5.23843">
        <ele>1326.7</ele>
        <time>2021-05-31T09:55:12.000Z</time>
      </trkpt>
      <trkpt lat="44.17674" lon="5.23807">
        <ele>1321.9</ele>
        <time>2021-05-31T09:55:14.000Z</time>
      </trkpt>
      <trkpt lat="44.17656" lon="5.23767">
        <ele>1319.3</ele>
        <time>2021-05-31T09:55:16.000Z</time>
      </trkpt>
      <trkpt lat="44.17638" lon="5.23728">
        <ele>1316.8</ele>
        <time>2021-05-31T09:55:18.000Z</time>
      </trkpt>
      <trkpt lat="44.17618" lon="5.23696">
        <ele>1313.2</ele>
        <time>2021-05-31T09:55:21.000Z</time>
      </trkpt>
      <trkpt lat="44.17598" lon="5.23663">
        <ele>1309.4</ele>
        <time>2021-05-31T09:55:23.000Z</time>
      </trkpt>
      <trkpt lat="44.17577" lon="5.23631">
        <ele>1306.5</ele>
        <time>2021-05-31T09:55:26.000Z</time>
      </trkpt>
      <trkpt lat="44.17557" lon="5.23599">
        <ele>1303.7</ele>
        <time>2021-05-31T09:55:28.000Z</time>
      </trkpt>
      <trkpt lat="44.17547" lon="5.23573">
        <ele>1301.5</ele>
        <time>2021-05-31T09:55:29.000Z</time>
      </trkpt>
      <trkpt lat="44.17545" lon="5.23548">
        <ele>1298.7</ele>
        <time>2021-05-31T09:55:31.000Z</time>
      </trkpt>
      <trkpt lat="44.17546" lon="5.23535">
        <ele>1296.3</ele>
        <time>2021-05-31T09:55:31.000Z</time>
      </trkpt>
      <trkpt lat="44.17557" lon="5.23502">
        <ele>1294</ele>
        <time>2021-05-31T09:55:33.000Z</time>
      </trkpt>
      <trkpt lat="44.17567" lon="5.23469">
        <ele>1291.7</ele>
        <time>2021-05-31T09:55:35.000Z</time>
      </trkpt>
      <trkpt lat="44.17569" lon="5.23438">
        <ele>1285.5</ele>
        <time>2021-05-31T09:55:37.000Z</time>
      </trkpt>
      <trkpt lat="44.17566" lon="5.23389">
        <ele>1283.5</ele>
        <time>2021-05-31T09:55:39.000Z</time>
      </trkpt>
      <trkpt lat="44.17566" lon="5.23323">
        <ele>1277.8</ele>
        <time>2021-05-31T09:55:43.000Z</time>
      </trkpt>
      <trkpt lat="44.17558" lon="5.23283">
        <ele>1273.5</ele>
        <time>2021-05-31T09:55:45.000Z</time>
      </trkpt>
      <trkpt lat="44.1755" lon="5.23243">
        <ele>1269.1</ele>
        <time>2021-05-31T09:55:48.000Z</time>
      </trkpt>
      <trkpt lat="44.17541" lon="5.23203">
        <ele>1264</ele>
        <time>2021-05-31T09:55:50.000Z</time>
      </trkpt>
      <trkpt lat="44.17533" lon="5.23163">
        <ele>1258.6</ele>
        <time>2021-05-31T09:55:52.000Z</time>
      </trkpt>
      <trkpt lat="44.17513" lon="5.23103">
        <ele>1247.9</ele>
        <time>2021-05-31T09:55:56.000Z</time>
      </trkpt>
      <trkpt lat="44.17498" lon="5.2307">
        <ele>1238.2</ele>
        <time>2021-05-31T09:55:58.000Z</time>
      </trkpt>
      <trkpt lat="44.17479" lon="5.23035">
        <ele>1232.5</ele>
        <time>2021-05-31T09:56:01.000Z</time>
      </trkpt>
      <trkpt lat="44.1746" lon="5.22999">
        <ele>1227.2</ele>
        <time>2021-05-31T09:56:03.000Z</time>
      </trkpt>
      <trkpt lat="44.17441" lon="5.22964">
        <ele>1222</ele>
        <time>2021-05-31T09:56:06.000Z</time>
      </trkpt>
      <trkpt lat="44.17422" lon="5.22929">
        <ele>1216.3</ele>
        <time>2021-05-31T09:56:08.000Z</time>
      </trkpt>
      <trkpt lat="44.17406" lon="5.22896">
        <ele>1206.7</ele>
        <time>2021-05-31T09:56:11.000Z</time>
      </trkpt>
      <trkpt lat="44.1739" lon="5.22853">
        <ele>1201</ele>
        <time>2021-05-31T09:56:13.000Z</time>
      </trkpt>
      <trkpt lat="44.17373" lon="5.2281">
        <ele>1195.6</ele>
        <time>2021-05-31T09:56:16.000Z</time>
      </trkpt>
      <trkpt lat="44.17351" lon="5.22747">
        <ele>1184.9</ele>
        <time>2021-05-31T09:56:20.000Z</time>
      </trkpt>
      <trkpt lat="44.17341" lon="5.22709">
        <ele>1175.3</ele>
        <time>2021-05-31T09:56:22.000Z</time>
      </trkpt>
      <trkpt lat="44.17328" lon="5.22654">
        <ele>1169.5</ele>
        <time>2021-05-31T09:56:26.000Z</time>
      </trkpt>
      <trkpt lat="44.17316" lon="5.226">
        <ele>1164.5</ele>
        <time>2021-05-31T09:56:29.000Z</time>
      </trkpt>
      <trkpt lat="44.17307" lon="5.22564">
        <ele>1164.1</ele>
        <time>2021-05-31T09:56:32.000Z</time>
      </trkpt>
      <trkpt lat="44.17299" lon="5.22527">
        <ele>1164</ele>
        <time>2021-05-31T09:56:34.000Z</time>
      </trkpt>
      <trkpt lat="44.1729" lon="5.22491">
        <ele>1163.9</ele>
        <time>2021-05-31T09:56:37.000Z</time>
      </trkpt>
      <trkpt lat="44.17274" lon="5.22452">
        <ele>1163.5</ele>
        <time>2021-05-31T09:56:40.000Z</time>
      </trkpt>
      <trkpt lat="44.17257" lon="5.22418">
        <ele>1163.2</ele>
        <time>2021-05-31T09:56:43.000Z</time>
      </trkpt>
      <trkpt lat="44.17245" lon="5.22389">
        <ele>1163</ele>
        <time>2021-05-31T09:56:45.000Z</time>
      </trkpt>
      <trkpt lat="44.17233" lon="5.2236">
        <ele>1162.8</ele>
        <time>2021-05-31T09:56:47.000Z</time>
      </trkpt>
      <trkpt lat="44.17221" lon="5.22322">
        <ele>1162.6</ele>
        <time>2021-05-31T09:56:50.000Z</time>
      </trkpt>
      <trkpt lat="44.17209" lon="5.22284">
        <ele>1162.5</ele>
        <time>2021-05-31T09:56:53.000Z</time>
      </trkpt>
      <trkpt lat="44.17198" lon="5.22253">
        <ele>1162.3</ele>
        <time>2021-05-31T09:56:55.000Z</time>
      </trkpt>
      <trkpt lat="44.17186" lon="5.22222">
        <ele>1162.1</ele>
        <time>2021-05-31T09:56:57.000Z</time>
      </trkpt>
      <trkpt lat="44.17175" lon="5.22193">
        <ele>1162</ele>
        <time>2021-05-31T09:57:00.000Z</time>
      </trkpt>
      <trkpt lat="44.17163" lon="5.22163">
        <ele>1161.9</ele>
        <time>2021-05-31T09:57:02.000Z</time>
      </trkpt>
      <trkpt lat="44.17152" lon="5.22134">
        <ele>1161.7</ele>
        <time>2021-05-31T09:57:04.000Z</time>
      </trkpt>
      <trkpt lat="44.17129" lon="5.22087">
        <ele>1161.1</ele>
        <time>2021-05-31T09:57:08.000Z</time>
      </trkpt>
      <trkpt lat="44.17126" lon="5.22078">
        <ele>1160.5</ele>
        <time>2021-05-31T09:57:09.000Z</time>
      </trkpt>
      <trkpt lat="44.17126" lon="5.22064">
        <ele>1159.5</ele>
        <time>2021-05-31T09:57:09.000Z</time>
      </trkpt>
      <trkpt lat="44.17128" lon="5.22058">
        <ele>1158.9</ele>
        <time>2021-05-31T09:57:10.000Z</time>
      </trkpt>
      <trkpt lat="44.17136" lon="5.22054">
        <ele>1158</ele>
        <time>2021-05-31T09:57:10.000Z</time>
      </trkpt>
      <trkpt lat="44.1714" lon="5.22055">
        <ele>1157.6</ele>
        <time>2021-05-31T09:57:11.000Z</time>
      </trkpt>
      <trkpt lat="44.17155" lon="5.22079">
        <ele>1156.5</ele>
        <time>2021-05-31T09:57:12.000Z</time>
      </trkpt>
      <trkpt lat="44.17178" lon="5.22111">
        <ele>1153.4</ele>
        <time>2021-05-31T09:57:15.000Z</time>
      </trkpt>
      <trkpt lat="44.17208" lon="5.22138">
        <ele>1149.4</ele>
        <time>2021-05-31T09:57:17.000Z</time>
      </trkpt>
      <trkpt lat="44.17244" lon="5.22164">
        <ele>1145.5</ele>
        <time>2021-05-31T09:57:20.000Z</time>
      </trkpt>
      <trkpt lat="44.17276" lon="5.22169">
        <ele>1141</ele>
        <time>2021-05-31T09:57:23.000Z</time>
      </trkpt>
      <trkpt lat="44.17314" lon="5.22172">
        <ele>1138.2</ele>
        <time>2021-05-31T09:57:25.000Z</time>
      </trkpt>
      <trkpt lat="44.17323" lon="5.22171">
        <ele>1137</ele>
        <time>2021-05-31T09:57:26.000Z</time>
      </trkpt>
      <trkpt lat="44.17329" lon="5.22168">
        <ele>1135.8</ele>
        <time>2021-05-31T09:57:27.000Z</time>
      </trkpt>
      <trkpt lat="44.17337" lon="5.22158">
        <ele>1134.1</ele>
        <time>2021-05-31T09:57:27.000Z</time>
      </trkpt>
      <trkpt lat="44.17342" lon="5.22144">
        <ele>1133</ele>
        <time>2021-05-31T09:57:28.000Z</time>
      </trkpt>
      <trkpt lat="44.17346" lon="5.22121">
        <ele>1131.7</ele>
        <time>2021-05-31T09:57:29.000Z</time>
      </trkpt>
      <trkpt lat="44.17346" lon="5.22106">
        <ele>1130.5</ele>
        <time>2021-05-31T09:57:30.000Z</time>
      </trkpt>
      <trkpt lat="44.17343" lon="5.22093">
        <ele>1129.4</ele>
        <time>2021-05-31T09:57:31.000Z</time>
      </trkpt>
      <trkpt lat="44.17318" lon="5.22052">
        <ele>1125.3</ele>
        <time>2021-05-31T09:57:34.000Z</time>
      </trkpt>
      <trkpt lat="44.17313" lon="5.22038">
        <ele>1122.5</ele>
        <time>2021-05-31T09:57:35.000Z</time>
      </trkpt>
      <trkpt lat="44.17311" lon="5.22026">
        <ele>1119.7</ele>
        <time>2021-05-31T09:57:35.000Z</time>
      </trkpt>
      <trkpt lat="44.17313" lon="5.2198">
        <ele>1116.9</ele>
        <time>2021-05-31T09:57:38.000Z</time>
      </trkpt>
      <trkpt lat="44.17314" lon="5.21933">
        <ele>1114.7</ele>
        <time>2021-05-31T09:57:40.000Z</time>
      </trkpt>
      <trkpt lat="44.17317" lon="5.2189">
        <ele>1110</ele>
        <time>2021-05-31T09:57:43.000Z</time>
      </trkpt>
      <trkpt lat="44.17323" lon="5.21848">
        <ele>1107.8</ele>
        <time>2021-05-31T09:57:45.000Z</time>
      </trkpt>
      <trkpt lat="44.17332" lon="5.21817">
        <ele>1103</ele>
        <time>2021-05-31T09:57:47.000Z</time>
      </trkpt>
      <trkpt lat="44.17343" lon="5.21794">
        <ele>1100.8</ele>
        <time>2021-05-31T09:57:48.000Z</time>
      </trkpt>
      <trkpt lat="44.17365" lon="5.2176">
        <ele>1098.5</ele>
        <time>2021-05-31T09:57:51.000Z</time>
      </trkpt>
      <trkpt lat="44.1738" lon="5.21733">
        <ele>1095.9</ele>
        <time>2021-05-31T09:57:52.000Z</time>
      </trkpt>
      <trkpt lat="44.17385" lon="5.21709">
        <ele>1093.4</ele>
        <time>2021-05-31T09:57:54.000Z</time>
      </trkpt>
      <trkpt lat="44.17383" lon="5.21685">
        <ele>1091.6</ele>
        <time>2021-05-31T09:57:55.000Z</time>
      </trkpt>
      <trkpt lat="44.17369" lon="5.21633">
        <ele>1086</ele>
        <time>2021-05-31T09:57:58.000Z</time>
      </trkpt>
      <trkpt lat="44.17354" lon="5.21582">
        <ele>1080.2</ele>
        <time>2021-05-31T09:58:01.000Z</time>
      </trkpt>
      <trkpt lat="44.1734" lon="5.2153">
        <ele>1074.8</ele>
        <time>2021-05-31T09:58:05.000Z</time>
      </trkpt>
      <trkpt lat="44.17325" lon="5.21478">
        <ele>1069.6</ele>
        <time>2021-05-31T09:58:08.000Z</time>
      </trkpt>
      <trkpt lat="44.17315" lon="5.21444">
        <ele>1067.5</ele>
        <time>2021-05-31T09:58:10.000Z</time>
      </trkpt>
      <trkpt lat="44.17306" lon="5.21409">
        <ele>1065.7</ele>
        <time>2021-05-31T09:58:12.000Z</time>
      </trkpt>
      <trkpt lat="44.17296" lon="5.21375">
        <ele>1063.7</ele>
        <time>2021-05-31T09:58:13.000Z</time>
      </trkpt>
      <trkpt lat="44.17287" lon="5.21341">
        <ele>1061.5</ele>
        <time>2021-05-31T09:58:15.000Z</time>
      </trkpt>
      <trkpt lat="44.17279" lon="5.21306">
        <ele>1059</ele>
        <time>2021-05-31T09:58:17.000Z</time>
      </trkpt>
      <trkpt lat="44.17261" lon="5.21238">
        <ele>1050.7</ele>
        <time>2021-05-31T09:58:21.000Z</time>
      </trkpt>
      <trkpt lat="44.17255" lon="5.21188">
        <ele>1044.7</ele>
        <time>2021-05-31T09:58:24.000Z</time>
      </trkpt>
      <trkpt lat="44.17251" lon="5.21137">
        <ele>1042</ele>
        <time>2021-05-31T09:58:27.000Z</time>
      </trkpt>
      <trkpt lat="44.17247" lon="5.21086">
        <ele>1039.4</ele>
        <time>2021-05-31T09:58:29.000Z</time>
      </trkpt>
      <trkpt lat="44.17239" lon="5.21047">
        <ele>1037</ele>
        <time>2021-05-31T09:58:31.000Z</time>
      </trkpt>
      <trkpt lat="44.1723" lon="5.21008">
        <ele>1034.6</ele>
        <time>2021-05-31T09:58:33.000Z</time>
      </trkpt>
      <trkpt lat="44.17224" lon="5.20965">
        <ele>1031.3</ele>
        <time>2021-05-31T09:58:36.000Z</time>
      </trkpt>
      <trkpt lat="44.17217" lon="5.20923">
        <ele>1028</ele>
        <time>2021-05-31T09:58:38.000Z</time>
      </trkpt>
      <trkpt lat="44.17205" lon="5.20863">
        <ele>1022.8</ele>
        <time>2021-05-31T09:58:42.000Z</time>
      </trkpt>
      <trkpt lat="44.1719" lon="5.20802">
        <ele>1015.7</ele>
        <time>2021-05-31T09:58:45.000Z</time>
      </trkpt>
      <trkpt lat="44.17182" lon="5.20771">
        <ele>1014</ele>
        <time>2021-05-31T09:58:47.000Z</time>
      </trkpt>
      <trkpt lat="44.17174" lon="5.20741">
        <ele>1012.4</ele>
        <time>2021-05-31T09:58:49.000Z</time>
      </trkpt>
      <trkpt lat="44.17164" lon="5.20707">
        <ele>1010.8</ele>
        <time>2021-05-31T09:58:50.000Z</time>
      </trkpt>
      <trkpt lat="44.17153" lon="5.20673">
        <ele>1008.9</ele>
        <time>2021-05-31T09:58:52.000Z</time>
      </trkpt>
      <trkpt lat="44.17132" lon="5.20605">
        <ele>998.4</ele>
        <time>2021-05-31T09:58:57.000Z</time>
      </trkpt>
      <trkpt lat="44.17119" lon="5.20572">
        <ele>995.7</ele>
        <time>2021-05-31T09:58:58.000Z</time>
      </trkpt>
      <trkpt lat="44.17097" lon="5.20527">
        <ele>990.4</ele>
        <time>2021-05-31T09:59:02.000Z</time>
      </trkpt>
      <trkpt lat="44.17075" lon="5.20482">
        <ele>985</ele>
        <time>2021-05-31T09:59:05.000Z</time>
      </trkpt>
      <trkpt lat="44.17066" lon="5.20459">
        <ele>983.2</ele>
        <time>2021-05-31T09:59:06.000Z</time>
      </trkpt>
      <trkpt lat="44.17062" lon="5.20433">
        <ele>981.4</ele>
        <time>2021-05-31T09:59:07.000Z</time>
      </trkpt>
      <trkpt lat="44.17062" lon="5.20405">
        <ele>978.2</ele>
        <time>2021-05-31T09:59:09.000Z</time>
      </trkpt>
      <trkpt lat="44.17065" lon="5.20382">
        <ele>974.6</ele>
        <time>2021-05-31T09:59:10.000Z</time>
      </trkpt>
      <trkpt lat="44.17076" lon="5.20344">
        <ele>972.1</ele>
        <time>2021-05-31T09:59:12.000Z</time>
      </trkpt>
      <trkpt lat="44.17087" lon="5.20305">
        <ele>969.9</ele>
        <time>2021-05-31T09:59:14.000Z</time>
      </trkpt>
      <trkpt lat="44.17094" lon="5.20271">
        <ele>967.3</ele>
        <time>2021-05-31T09:59:16.000Z</time>
      </trkpt>
      <trkpt lat="44.17094" lon="5.20224">
        <ele>963.9</ele>
        <time>2021-05-31T09:59:19.000Z</time>
      </trkpt>
      <trkpt lat="44.17089" lon="5.20202">
        <ele>963</ele>
        <time>2021-05-31T09:59:20.000Z</time>
      </trkpt>
      <trkpt lat="44.17078" lon="5.20179">
        <ele>962.8</ele>
        <time>2021-05-31T09:59:22.000Z</time>
      </trkpt>
      <trkpt lat="44.17068" lon="5.20164">
        <ele>962.7</ele>
        <time>2021-05-31T09:59:23.000Z</time>
      </trkpt>
      <trkpt lat="44.17054" lon="5.20151">
        <ele>962.1</ele>
        <time>2021-05-31T09:59:24.000Z</time>
      </trkpt>
      <trkpt lat="44.17039" lon="5.2014">
        <ele>961.5</ele>
        <time>2021-05-31T09:59:26.000Z</time>
      </trkpt>
      <trkpt lat="44.17006" lon="5.20125">
        <ele>959.7</ele>
        <time>2021-05-31T09:59:28.000Z</time>
      </trkpt>
      <trkpt lat="44.16973" lon="5.2011">
        <ele>957.7</ele>
        <time>2021-05-31T09:59:31.000Z</time>
      </trkpt>
      <trkpt lat="44.16957" lon="5.20101">
        <ele>956</ele>
        <time>2021-05-31T09:59:32.000Z</time>
      </trkpt>
      <trkpt lat="44.16941" lon="5.20088">
        <ele>954.9</ele>
        <time>2021-05-31T09:59:33.000Z</time>
      </trkpt>
      <trkpt lat="44.16926" lon="5.20072">
        <ele>953.8</ele>
        <time>2021-05-31T09:59:35.000Z</time>
      </trkpt>
      <trkpt lat="44.16897" lon="5.20032">
        <ele>948.3</ele>
        <time>2021-05-31T09:59:38.000Z</time>
      </trkpt>
      <trkpt lat="44.16884" lon="5.20006">
        <ele>946.3</ele>
        <time>2021-05-31T09:59:40.000Z</time>
      </trkpt>
      <trkpt lat="44.1687" lon="5.19969">
        <ele>943.3</ele>
        <time>2021-05-31T09:59:42.000Z</time>
      </trkpt>
      <trkpt lat="44.16865" lon="5.19947">
        <ele>941.1</ele>
        <time>2021-05-31T09:59:43.000Z</time>
      </trkpt>
      <trkpt lat="44.1686" lon="5.19905">
        <ele>937.6</ele>
        <time>2021-05-31T09:59:45.000Z</time>
      </trkpt>
      <trkpt lat="44.16865" lon="5.19866">
        <ele>934.5</ele>
        <time>2021-05-31T09:59:48.000Z</time>
      </trkpt>
      <trkpt lat="44.16877" lon="5.19841">
        <ele>933.5</ele>
        <time>2021-05-31T09:59:49.000Z</time>
      </trkpt>
      <trkpt lat="44.16894" lon="5.19815">
        <ele>931.7</ele>
        <time>2021-05-31T09:59:51.000Z</time>
      </trkpt>
      <trkpt lat="44.1691" lon="5.19789">
        <ele>929.8</ele>
        <time>2021-05-31T09:59:53.000Z</time>
      </trkpt>
      <trkpt lat="44.16929" lon="5.19757">
        <ele>927.3</ele>
        <time>2021-05-31T09:59:55.000Z</time>
      </trkpt>
      <trkpt lat="44.16948" lon="5.19725">
        <ele>924.8</ele>
        <time>2021-05-31T09:59:57.000Z</time>
      </trkpt>
      <trkpt lat="44.16967" lon="5.19693">
        <ele>922.3</ele>
        <time>2021-05-31T09:59:59.000Z</time>
      </trkpt>
      <trkpt lat="44.16972" lon="5.1968">
        <ele>921.4</ele>
        <time>2021-05-31T10:00:00.000Z</time>
      </trkpt>
      <trkpt lat="44.16976" lon="5.19656">
        <ele>920.7</ele>
        <time>2021-05-31T10:00:01.000Z</time>
      </trkpt>
      <trkpt lat="44.16973" lon="5.19637">
        <ele>920.5</ele>
        <time>2021-05-31T10:00:02.000Z</time>
      </trkpt>
      <trkpt lat="44.1697" lon="5.19627">
        <ele>920.2</ele>
        <time>2021-05-31T10:00:03.000Z</time>
      </trkpt>
      <trkpt lat="44.16959" lon="5.19612">
        <ele>919.8</ele>
        <time>2021-05-31T10:00:04.000Z</time>
      </trkpt>
      <trkpt lat="44.16932" lon="5.19588">
        <ele>919.1</ele>
        <time>2021-05-31T10:00:07.000Z</time>
      </trkpt>
      <trkpt lat="44.16892" lon="5.19563">
        <ele>917</ele>
        <time>2021-05-31T10:00:10.000Z</time>
      </trkpt>
      <trkpt lat="44.16866" lon="5.19552">
        <ele>915.7</ele>
        <time>2021-05-31T10:00:12.000Z</time>
      </trkpt>
      <trkpt lat="44.1684" lon="5.19541">
        <ele>914.3</ele>
        <time>2021-05-31T10:00:15.000Z</time>
      </trkpt>
      <trkpt lat="44.16815" lon="5.1953">
        <ele>912.9</ele>
        <time>2021-05-31T10:00:17.000Z</time>
      </trkpt>
      <trkpt lat="44.16789" lon="5.19519">
        <ele>911.3</ele>
        <time>2021-05-31T10:00:18.000Z</time>
      </trkpt>
      <trkpt lat="44.16763" lon="5.19508">
        <ele>909.6</ele>
        <time>2021-05-31T10:00:20.000Z</time>
      </trkpt>
      <trkpt lat="44.16737" lon="5.19497">
        <ele>908</ele>
        <time>2021-05-31T10:00:22.000Z</time>
      </trkpt>
      <trkpt lat="44.1671" lon="5.19483">
        <ele>906.7</ele>
        <time>2021-05-31T10:00:25.000Z</time>
      </trkpt>
      <trkpt lat="44.16682" lon="5.1947">
        <ele>905.4</ele>
        <time>2021-05-31T10:00:27.000Z</time>
      </trkpt>
      <trkpt lat="44.16657" lon="5.19448">
        <ele>904</ele>
        <time>2021-05-31T10:00:29.000Z</time>
      </trkpt>
      <trkpt lat="44.1665" lon="5.19436">
        <ele>902.8</ele>
        <time>2021-05-31T10:00:30.000Z</time>
      </trkpt>
      <trkpt lat="44.16646" lon="5.19425">
        <ele>902</ele>
        <time>2021-05-31T10:00:30.000Z</time>
      </trkpt>
      <trkpt lat="44.16645" lon="5.19398">
        <ele>900.6</ele>
        <time>2021-05-31T10:00:32.000Z</time>
      </trkpt>
      <trkpt lat="44.16648" lon="5.19383">
        <ele>899.5</ele>
        <time>2021-05-31T10:00:33.000Z</time>
      </trkpt>
      <trkpt lat="44.16661" lon="5.19349">
        <ele>898.6</ele>
        <time>2021-05-31T10:00:35.000Z</time>
      </trkpt>
      <trkpt lat="44.16674" lon="5.19315">
        <ele>897.7</ele>
        <time>2021-05-31T10:00:37.000Z</time>
      </trkpt>
      <trkpt lat="44.16687" lon="5.1928">
        <ele>895.9</ele>
        <time>2021-05-31T10:00:39.000Z</time>
      </trkpt>
      <trkpt lat="44.167" lon="5.19246">
        <ele>894.1</ele>
        <time>2021-05-31T10:00:41.000Z</time>
      </trkpt>
      <trkpt lat="44.16709" lon="5.19227">
        <ele>893.1</ele>
        <time>2021-05-31T10:00:42.000Z</time>
      </trkpt>
      <trkpt lat="44.16718" lon="5.19214">
        <ele>892.2</ele>
        <time>2021-05-31T10:00:43.000Z</time>
      </trkpt>
      <trkpt lat="44.16737" lon="5.19197">
        <ele>890.3</ele>
        <time>2021-05-31T10:00:45.000Z</time>
      </trkpt>
      <trkpt lat="44.16772" lon="5.19184">
        <ele>888.2</ele>
        <time>2021-05-31T10:00:48.000Z</time>
      </trkpt>
      <trkpt lat="44.16797" lon="5.19178">
        <ele>887.4</ele>
        <time>2021-05-31T10:00:50.000Z</time>
      </trkpt>
      <trkpt lat="44.16823" lon="5.19171">
        <ele>886.7</ele>
        <time>2021-05-31T10:00:52.000Z</time>
      </trkpt>
      <trkpt lat="44.16848" lon="5.19165">
        <ele>885.8</ele>
        <time>2021-05-31T10:00:54.000Z</time>
      </trkpt>
      <trkpt lat="44.16868" lon="5.19157">
        <ele>884.3</ele>
        <time>2021-05-31T10:00:55.000Z</time>
      </trkpt>
      <trkpt lat="44.16904" lon="5.19138">
        <ele>882.6</ele>
        <time>2021-05-31T10:00:58.000Z</time>
      </trkpt>
      <trkpt lat="44.16918" lon="5.19128">
        <ele>881.3</ele>
        <time>2021-05-31T10:01:00.000Z</time>
      </trkpt>
      <trkpt lat="44.16927" lon="5.19117">
        <ele>880.5</ele>
        <time>2021-05-31T10:01:00.000Z</time>
      </trkpt>
      <trkpt lat="44.16934" lon="5.19105">
        <ele>879.9</ele>
        <time>2021-05-31T10:01:01.000Z</time>
      </trkpt>
      <trkpt lat="44.16937" lon="5.19085">
        <ele>879.3</ele>
        <time>2021-05-31T10:01:02.000Z</time>
      </trkpt>
      <trkpt lat="44.16933" lon="5.19069">
        <ele>878.8</ele>
        <time>2021-05-31T10:01:03.000Z</time>
      </trkpt>
      <trkpt lat="44.16924" lon="5.19053">
        <ele>877.6</ele>
        <time>2021-05-31T10:01:04.000Z</time>
      </trkpt>
      <trkpt lat="44.16908" lon="5.19033">
        <ele>876.7</ele>
        <time>2021-05-31T10:01:06.000Z</time>
      </trkpt>
      <trkpt lat="44.16891" lon="5.19013">
        <ele>875.9</ele>
        <time>2021-05-31T10:01:08.000Z</time>
      </trkpt>
      <trkpt lat="44.16864" lon="5.18983">
        <ele>873.9</ele>
        <time>2021-05-31T10:01:10.000Z</time>
      </trkpt>
      <trkpt lat="44.16836" lon="5.18953">
        <ele>871.8</ele>
        <time>2021-05-31T10:01:13.000Z</time>
      </trkpt>
      <trkpt lat="44.16823" lon="5.18933">
        <ele>870.8</ele>
        <time>2021-05-31T10:01:14.000Z</time>
      </trkpt>
      <trkpt lat="44.16816" lon="5.1891">
        <ele>869.4</ele>
        <time>2021-05-31T10:01:16.000Z</time>
      </trkpt>
      <trkpt lat="44.16815" lon="5.18898">
        <ele>868.5</ele>
        <time>2021-05-31T10:01:16.000Z</time>
      </trkpt>
      <trkpt lat="44.16824" lon="5.18865">
        <ele>867.1</ele>
        <time>2021-05-31T10:01:18.000Z</time>
      </trkpt>
      <trkpt lat="44.16839" lon="5.18833">
        <ele>865.2</ele>
        <time>2021-05-31T10:01:20.000Z</time>
      </trkpt>
      <trkpt lat="44.16854" lon="5.18802">
        <ele>863.2</ele>
        <time>2021-05-31T10:01:22.000Z</time>
      </trkpt>
      <trkpt lat="44.16869" lon="5.1877">
        <ele>861.1</ele>
        <time>2021-05-31T10:01:24.000Z</time>
      </trkpt>
      <trkpt lat="44.16882" lon="5.18739">
        <ele>859</ele>
        <time>2021-05-31T10:01:26.000Z</time>
      </trkpt>
      <trkpt lat="44.16895" lon="5.18708">
        <ele>857</ele>
        <time>2021-05-31T10:01:27.000Z</time>
      </trkpt>
      <trkpt lat="44.16897" lon="5.18691">
        <ele>856.4</ele>
        <time>2021-05-31T10:01:28.000Z</time>
      </trkpt>
      <trkpt lat="44.16896" lon="5.18674">
        <ele>855.8</ele>
        <time>2021-05-31T10:01:29.000Z</time>
      </trkpt>
      <trkpt lat="44.16893" lon="5.18659">
        <ele>854.8</ele>
        <time>2021-05-31T10:01:30.000Z</time>
      </trkpt>
      <trkpt lat="44.16886" lon="5.18641">
        <ele>853.9</ele>
        <time>2021-05-31T10:01:31.000Z</time>
      </trkpt>
      <trkpt lat="44.16877" lon="5.18625">
        <ele>853</ele>
        <time>2021-05-31T10:01:32.000Z</time>
      </trkpt>
      <trkpt lat="44.16858" lon="5.18598">
        <ele>851.7</ele>
        <time>2021-05-31T10:01:34.000Z</time>
      </trkpt>
      <trkpt lat="44.16839" lon="5.18572">
        <ele>850.3</ele>
        <time>2021-05-31T10:01:36.000Z</time>
      </trkpt>
      <trkpt lat="44.16823" lon="5.18537">
        <ele>848.8</ele>
        <time>2021-05-31T10:01:38.000Z</time>
      </trkpt>
      <trkpt lat="44.16816" lon="5.18501">
        <ele>847</ele>
        <time>2021-05-31T10:01:40.000Z</time>
      </trkpt>
      <trkpt lat="44.16808" lon="5.18466">
        <ele>845.1</ele>
        <time>2021-05-31T10:01:42.000Z</time>
      </trkpt>
      <trkpt lat="44.16801" lon="5.1843">
        <ele>843.3</ele>
        <time>2021-05-31T10:01:44.000Z</time>
      </trkpt>
      <trkpt lat="44.16794" lon="5.18378">
        <ele>841.3</ele>
        <time>2021-05-31T10:01:47.000Z</time>
      </trkpt>
      <trkpt lat="44.16785" lon="5.18327">
        <ele>840.5</ele>
        <time>2021-05-31T10:01:50.000Z</time>
      </trkpt>
      <trkpt lat="44.16772" lon="5.18275">
        <ele>837</ele>
        <time>2021-05-31T10:01:53.000Z</time>
      </trkpt>
      <trkpt lat="44.16756" lon="5.18235">
        <ele>835.3</ele>
        <time>2021-05-31T10:01:55.000Z</time>
      </trkpt>
      <trkpt lat="44.1674" lon="5.18196">
        <ele>833.6</ele>
        <time>2021-05-31T10:01:58.000Z</time>
      </trkpt>
      <trkpt lat="44.16725" lon="5.1816">
        <ele>831.4</ele>
        <time>2021-05-31T10:02:00.000Z</time>
      </trkpt>
      <trkpt lat="44.1671" lon="5.18124">
        <ele>829.2</ele>
        <time>2021-05-31T10:02:02.000Z</time>
      </trkpt>
      <trkpt lat="44.16695" lon="5.18089">
        <ele>826.5</ele>
        <time>2021-05-31T10:02:04.000Z</time>
      </trkpt>
      <trkpt lat="44.1668" lon="5.18053">
        <ele>823.6</ele>
        <time>2021-05-31T10:02:06.000Z</time>
      </trkpt>
      <trkpt lat="44.16676" lon="5.18033">
        <ele>821.2</ele>
        <time>2021-05-31T10:02:07.000Z</time>
      </trkpt>
      <trkpt lat="44.16678" lon="5.17989">
        <ele>818.3</ele>
        <time>2021-05-31T10:02:09.000Z</time>
      </trkpt>
      <trkpt lat="44.1669" lon="5.17922">
        <ele>812.3</ele>
        <time>2021-05-31T10:02:13.000Z</time>
      </trkpt>
      <trkpt lat="44.16696" lon="5.17888">
        <ele>809.8</ele>
        <time>2021-05-31T10:02:15.000Z</time>
      </trkpt>
      <trkpt lat="44.16702" lon="5.17854">
        <ele>807.1</ele>
        <time>2021-05-31T10:02:17.000Z</time>
      </trkpt>
      <trkpt lat="44.16711" lon="5.17826">
        <ele>803.3</ele>
        <time>2021-05-31T10:02:19.000Z</time>
      </trkpt>
      <trkpt lat="44.16735" lon="5.17771">
        <ele>798</ele>
        <time>2021-05-31T10:02:22.000Z</time>
      </trkpt>
      <trkpt lat="44.16743" lon="5.17747">
        <ele>796.3</ele>
        <time>2021-05-31T10:02:24.000Z</time>
      </trkpt>
      <trkpt lat="44.16749" lon="5.17722">
        <ele>794.6</ele>
        <time>2021-05-31T10:02:25.000Z</time>
      </trkpt>
      <trkpt lat="44.16753" lon="5.17682">
        <ele>791.6</ele>
        <time>2021-05-31T10:02:27.000Z</time>
      </trkpt>
      <trkpt lat="44.16753" lon="5.1766">
        <ele>790.3</ele>
        <time>2021-05-31T10:02:28.000Z</time>
      </trkpt>
      <trkpt lat="44.1675" lon="5.17638">
        <ele>789.6</ele>
        <time>2021-05-31T10:02:29.000Z</time>
      </trkpt>
      <trkpt lat="44.16736" lon="5.17594">
        <ele>787.8</ele>
        <time>2021-05-31T10:02:32.000Z</time>
      </trkpt>
      <trkpt lat="44.16722" lon="5.17551">
        <ele>786</ele>
        <time>2021-05-31T10:02:35.000Z</time>
      </trkpt>
      <trkpt lat="44.1672" lon="5.17505">
        <ele>783.5</ele>
        <time>2021-05-31T10:02:37.000Z</time>
      </trkpt>
      <trkpt lat="44.16717" lon="5.17459">
        <ele>781</ele>
        <time>2021-05-31T10:02:39.000Z</time>
      </trkpt>
      <trkpt lat="44.16715" lon="5.17398">
        <ele>778.9</ele>
        <time>2021-05-31T10:02:42.000Z</time>
      </trkpt>
      <trkpt lat="44.16715" lon="5.17355">
        <ele>776.6</ele>
        <time>2021-05-31T10:02:45.000Z</time>
      </trkpt>
      <trkpt lat="44.16716" lon="5.17312">
        <ele>774.1</ele>
        <time>2021-05-31T10:02:47.000Z</time>
      </trkpt>
      <trkpt lat="44.16716" lon="5.17269">
        <ele>771.1</ele>
        <time>2021-05-31T10:02:49.000Z</time>
      </trkpt>
      <trkpt lat="44.16716" lon="5.17226">
        <ele>768</ele>
        <time>2021-05-31T10:02:51.000Z</time>
      </trkpt>
      <trkpt lat="44.16717" lon="5.17183">
        <ele>764.6</ele>
        <time>2021-05-31T10:02:53.000Z</time>
      </trkpt>
      <trkpt lat="44.16717" lon="5.1714">
        <ele>761.2</ele>
        <time>2021-05-31T10:02:56.000Z</time>
      </trkpt>
      <trkpt lat="44.1672" lon="5.17104">
        <ele>759</ele>
        <time>2021-05-31T10:02:58.000Z</time>
      </trkpt>
      <trkpt lat="44.16722" lon="5.17069">
        <ele>757</ele>
        <time>2021-05-31T10:02:59.000Z</time>
      </trkpt>
      <trkpt lat="44.16725" lon="5.17033">
        <ele>756.5</ele>
        <time>2021-05-31T10:03:02.000Z</time>
      </trkpt>
      <trkpt lat="44.16727" lon="5.16997">
        <ele>756</ele>
        <time>2021-05-31T10:03:04.000Z</time>
      </trkpt>
      <trkpt lat="44.16724" lon="5.1696">
        <ele>754.8</ele>
        <time>2021-05-31T10:03:06.000Z</time>
      </trkpt>
      <trkpt lat="44.16712" lon="5.16904">
        <ele>753.5</ele>
        <time>2021-05-31T10:03:10.000Z</time>
      </trkpt>
      <trkpt lat="44.16701" lon="5.16869">
        <ele>752.2</ele>
        <time>2021-05-31T10:03:12.000Z</time>
      </trkpt>
      <trkpt lat="44.16688" lon="5.16836">
        <ele>750.9</ele>
        <time>2021-05-31T10:03:14.000Z</time>
      </trkpt>
      <trkpt lat="44.16674" lon="5.16804">
        <ele>749.6</ele>
        <time>2021-05-31T10:03:16.000Z</time>
      </trkpt>
      <trkpt lat="44.16653" lon="5.16765">
        <ele>747.2</ele>
        <time>2021-05-31T10:03:18.000Z</time>
      </trkpt>
      <trkpt lat="44.1663" lon="5.1671">
        <ele>743.8</ele>
        <time>2021-05-31T10:03:21.000Z</time>
      </trkpt>
      <trkpt lat="44.16617" lon="5.16655">
        <ele>742.3</ele>
        <time>2021-05-31T10:03:25.000Z</time>
      </trkpt>
      <trkpt lat="44.16607" lon="5.16601">
        <ele>739.4</ele>
        <time>2021-05-31T10:03:28.000Z</time>
      </trkpt>
      <trkpt lat="44.16602" lon="5.16552">
        <ele>737</ele>
        <time>2021-05-31T10:03:30.000Z</time>
      </trkpt>
      <trkpt lat="44.16596" lon="5.16503">
        <ele>734.6</ele>
        <time>2021-05-31T10:03:33.000Z</time>
      </trkpt>
      <trkpt lat="44.16591" lon="5.16454">
        <ele>732.2</ele>
        <time>2021-05-31T10:03:35.000Z</time>
      </trkpt>
      <trkpt lat="44.16585" lon="5.16405">
        <ele>729.8</ele>
        <time>2021-05-31T10:03:38.000Z</time>
      </trkpt>
      <trkpt lat="44.1658" lon="5.16377">
        <ele>727.8</ele>
        <time>2021-05-31T10:03:39.000Z</time>
      </trkpt>
      <trkpt lat="44.16562" lon="5.1632">
        <ele>724.9</ele>
        <time>2021-05-31T10:03:42.000Z</time>
      </trkpt>
      <trkpt lat="44.16546" lon="5.16291">
        <ele>722.6</ele>
        <time>2021-05-31T10:03:44.000Z</time>
      </trkpt>
      <trkpt lat="44.16519" lon="5.16253">
        <ele>720.2</ele>
        <time>2021-05-31T10:03:47.000Z</time>
      </trkpt>
      <trkpt lat="44.16503" lon="5.16223">
        <ele>718.3</ele>
        <time>2021-05-31T10:03:49.000Z</time>
      </trkpt>
      <trkpt lat="44.16489" lon="5.16181">
        <ele>714.5</ele>
        <time>2021-05-31T10:03:52.000Z</time>
      </trkpt>
      <trkpt lat="44.16484" lon="5.16146">
        <ele>713</ele>
        <time>2021-05-31T10:03:53.000Z</time>
      </trkpt>
      <trkpt lat="44.16478" lon="5.16112">
        <ele>711.7</ele>
        <time>2021-05-31T10:03:55.000Z</time>
      </trkpt>
      <trkpt lat="44.16473" lon="5.16077">
        <ele>710.2</ele>
        <time>2021-05-31T10:03:57.000Z</time>
      </trkpt>
      <trkpt lat="44.16462" lon="5.16044">
        <ele>707.1</ele>
        <time>2021-05-31T10:03:59.000Z</time>
      </trkpt>
      <trkpt lat="44.16451" lon="5.16012">
        <ele>704.1</ele>
        <time>2021-05-31T10:04:01.000Z</time>
      </trkpt>
      <trkpt lat="44.16431" lon="5.15975">
        <ele>702.8</ele>
        <time>2021-05-31T10:04:04.000Z</time>
      </trkpt>
      <trkpt lat="44.16411" lon="5.15948">
        <ele>701.1</ele>
        <time>2021-05-31T10:04:06.000Z</time>
      </trkpt>
      <trkpt lat="44.16401" lon="5.15942">
        <ele>700.6</ele>
        <time>2021-05-31T10:04:07.000Z</time>
      </trkpt>
      <trkpt lat="44.16378" lon="5.15935">
        <ele>700.1</ele>
        <time>2021-05-31T10:04:09.000Z</time>
      </trkpt>
      <trkpt lat="44.16344" lon="5.15931">
        <ele>699.5</ele>
        <time>2021-05-31T10:04:12.000Z</time>
      </trkpt>
      <trkpt lat="44.16322" lon="5.15923">
        <ele>698.9</ele>
        <time>2021-05-31T10:04:14.000Z</time>
      </trkpt>
      <trkpt lat="44.16299" lon="5.15906">
        <ele>698.7</ele>
        <time>2021-05-31T10:04:16.000Z</time>
      </trkpt>
      <trkpt lat="44.16276" lon="5.1589">
        <ele>698.5</ele>
        <time>2021-05-31T10:04:19.000Z</time>
      </trkpt>
      <trkpt lat="44.16262" lon="5.15877">
        <ele>698.4</ele>
        <time>2021-05-31T10:04:20.000Z</time>
      </trkpt>
      <trkpt lat="44.16253" lon="5.15866">
        <ele>698.1</ele>
        <time>2021-05-31T10:04:21.000Z</time>
      </trkpt>
      <trkpt lat="44.16248" lon="5.15849">
        <ele>697.8</ele>
        <time>2021-05-31T10:04:22.000Z</time>
      </trkpt>
      <trkpt lat="44.16244" lon="5.15827">
        <ele>697.5</ele>
        <time>2021-05-31T10:04:24.000Z</time>
      </trkpt>
      <trkpt lat="44.16241" lon="5.1578">
        <ele>696.6</ele>
        <time>2021-05-31T10:04:27.000Z</time>
      </trkpt>
      <trkpt lat="44.16238" lon="5.15734">
        <ele>695.6</ele>
        <time>2021-05-31T10:04:29.000Z</time>
      </trkpt>
      <trkpt lat="44.16233" lon="5.15693">
        <ele>693.7</ele>
        <time>2021-05-31T10:04:32.000Z</time>
      </trkpt>
      <trkpt lat="44.16226" lon="5.15658">
        <ele>692.6</ele>
        <time>2021-05-31T10:04:34.000Z</time>
      </trkpt>
      <trkpt lat="44.16216" lon="5.15625">
        <ele>691.5</ele>
        <time>2021-05-31T10:04:36.000Z</time>
      </trkpt>
      <trkpt lat="44.16206" lon="5.15593">
        <ele>690.2</ele>
        <time>2021-05-31T10:04:37.000Z</time>
      </trkpt>
      <trkpt lat="44.16194" lon="5.15562">
        <ele>687.7</ele>
        <time>2021-05-31T10:04:39.000Z</time>
      </trkpt>
      <trkpt lat="44.16178" lon="5.15533">
        <ele>685.3</ele>
        <time>2021-05-31T10:04:41.000Z</time>
      </trkpt>
      <trkpt lat="44.16168" lon="5.15521">
        <ele>684.9</ele>
        <time>2021-05-31T10:04:42.000Z</time>
      </trkpt>
      <trkpt lat="44.16153" lon="5.15505">
        <ele>684.5</ele>
        <time>2021-05-31T10:04:44.000Z</time>
      </trkpt>
      <trkpt lat="44.16128" lon="5.15484">
        <ele>683.1</ele>
        <time>2021-05-31T10:04:46.000Z</time>
      </trkpt>
      <trkpt lat="44.16102" lon="5.15462">
        <ele>681.6</ele>
        <time>2021-05-31T10:04:48.000Z</time>
      </trkpt>
      <trkpt lat="44.16077" lon="5.15441">
        <ele>679.6</ele>
        <time>2021-05-31T10:04:50.000Z</time>
      </trkpt>
      <trkpt lat="44.16051" lon="5.1542">
        <ele>677.5</ele>
        <time>2021-05-31T10:04:53.000Z</time>
      </trkpt>
      <trkpt lat="44.16029" lon="5.15407">
        <ele>675.8</ele>
        <time>2021-05-31T10:04:54.000Z</time>
      </trkpt>
      <trkpt lat="44.1602" lon="5.15405">
        <ele>674.3</ele>
        <time>2021-05-31T10:04:55.000Z</time>
      </trkpt>
      <trkpt lat="44.15993" lon="5.15406">
        <ele>671.9</ele>
        <time>2021-05-31T10:04:57.000Z</time>
      </trkpt>
      <trkpt lat="44.15969" lon="5.154">
        <ele>670.7</ele>
        <time>2021-05-31T10:04:59.000Z</time>
      </trkpt>
      <trkpt lat="44.15945" lon="5.15395">
        <ele>669.3</ele>
        <time>2021-05-31T10:05:00.000Z</time>
      </trkpt>
      <trkpt lat="44.15904" lon="5.15406">
        <ele>665.5</ele>
        <time>2021-05-31T10:05:03.000Z</time>
      </trkpt>
      <trkpt lat="44.15891" lon="5.15407">
        <ele>664.3</ele>
        <time>2021-05-31T10:05:04.000Z</time>
      </trkpt>
      <trkpt lat="44.15884" lon="5.15405">
        <ele>663.2</ele>
        <time>2021-05-31T10:05:05.000Z</time>
      </trkpt>
      <trkpt lat="44.15875" lon="5.15398">
        <ele>661.7</ele>
        <time>2021-05-31T10:05:06.000Z</time>
      </trkpt>
      <trkpt lat="44.15862" lon="5.15382">
        <ele>659.9</ele>
        <time>2021-05-31T10:05:07.000Z</time>
      </trkpt>
      <trkpt lat="44.15842" lon="5.15335">
        <ele>655.6</ele>
        <time>2021-05-31T10:05:10.000Z</time>
      </trkpt>
      <trkpt lat="44.15822" lon="5.15305">
        <ele>652.8</ele>
        <time>2021-05-31T10:05:12.000Z</time>
      </trkpt>
      <trkpt lat="44.15805" lon="5.15285">
        <ele>651.8</ele>
        <time>2021-05-31T10:05:14.000Z</time>
      </trkpt>
      <trkpt lat="44.15787" lon="5.15266">
        <ele>650.7</ele>
        <time>2021-05-31T10:05:15.000Z</time>
      </trkpt>
      <trkpt lat="44.1577" lon="5.15238">
        <ele>647.4</ele>
        <time>2021-05-31T10:05:17.000Z</time>
      </trkpt>
      <trkpt lat="44.15756" lon="5.15208">
        <ele>641.7</ele>
        <time>2021-05-31T10:05:19.000Z</time>
      </trkpt>
      <trkpt lat="44.15745" lon="5.15171">
        <ele>639.2</ele>
        <time>2021-05-31T10:05:21.000Z</time>
      </trkpt>
      <trkpt lat="44.15734" lon="5.15133">
        <ele>637.1</ele>
        <time>2021-05-31T10:05:23.000Z</time>
      </trkpt>
      <trkpt lat="44.15723" lon="5.15096">
        <ele>635</ele>
        <time>2021-05-31T10:05:26.000Z</time>
      </trkpt>
      <trkpt lat="44.1572" lon="5.15066">
        <ele>633.5</ele>
        <time>2021-05-31T10:05:27.000Z</time>
      </trkpt>
      <trkpt lat="44.15726" lon="5.14999">
        <ele>627.6</ele>
        <time>2021-05-31T10:05:31.000Z</time>
      </trkpt>
      <trkpt lat="44.15718" lon="5.14945">
        <ele>623</ele>
        <time>2021-05-31T10:05:34.000Z</time>
      </trkpt>
      <trkpt lat="44.15712" lon="5.14922">
        <ele>619.2</ele>
        <time>2021-05-31T10:05:35.000Z</time>
      </trkpt>
      <trkpt lat="44.15688" lon="5.14872">
        <ele>614.7</ele>
        <time>2021-05-31T10:05:39.000Z</time>
      </trkpt>
      <trkpt lat="44.15663" lon="5.14835">
        <ele>613.5</ele>
        <time>2021-05-31T10:05:42.000Z</time>
      </trkpt>
      <trkpt lat="44.15624" lon="5.14802">
        <ele>609.6</ele>
        <time>2021-05-31T10:05:45.000Z</time>
      </trkpt>
      <trkpt lat="44.15597" lon="5.14773">
        <ele>606.4</ele>
        <time>2021-05-31T10:05:47.000Z</time>
      </trkpt>
      <trkpt lat="44.15593" lon="5.14766">
        <ele>606</ele>
        <time>2021-05-31T10:05:48.000Z</time>
      </trkpt>
      <trkpt lat="44.15592" lon="5.14759">
        <ele>605.7</ele>
        <time>2021-05-31T10:05:48.000Z</time>
      </trkpt>
      <trkpt lat="44.15598" lon="5.14743">
        <ele>605.2</ele>
        <time>2021-05-31T10:05:49.000Z</time>
      </trkpt>
      <trkpt lat="44.15607" lon="5.14735">
        <ele>604.8</ele>
        <time>2021-05-31T10:05:50.000Z</time>
      </trkpt>
      <trkpt lat="44.15649" lon="5.14721">
        <ele>599.9</ele>
        <time>2021-05-31T10:05:53.000Z</time>
      </trkpt>
      <trkpt lat="44.15696" lon="5.14708">
        <ele>594</ele>
        <time>2021-05-31T10:05:57.000Z</time>
      </trkpt>
      <trkpt lat="44.15706" lon="5.14709">
        <ele>592.4</ele>
        <time>2021-05-31T10:05:58.000Z</time>
      </trkpt>
      <trkpt lat="44.15729" lon="5.14717">
        <ele>590.2</ele>
        <time>2021-05-31T10:05:59.000Z</time>
      </trkpt>
      <trkpt lat="44.15752" lon="5.14725">
        <ele>588.1</ele>
        <time>2021-05-31T10:06:01.000Z</time>
      </trkpt>
      <trkpt lat="44.15784" lon="5.14741">
        <ele>583.6</ele>
        <time>2021-05-31T10:06:04.000Z</time>
      </trkpt>
      <trkpt lat="44.15822" lon="5.14751">
        <ele>580</ele>
        <time>2021-05-31T10:06:06.000Z</time>
      </trkpt>
      <trkpt lat="44.15859" lon="5.14761">
        <ele>576.6</ele>
        <time>2021-05-31T10:06:09.000Z</time>
      </trkpt>
      <trkpt lat="44.15872" lon="5.14768">
        <ele>575.4</ele>
        <time>2021-05-31T10:06:10.000Z</time>
      </trkpt>
      <trkpt lat="44.15883" lon="5.14778">
        <ele>574.3</ele>
        <time>2021-05-31T10:06:11.000Z</time>
      </trkpt>
      <trkpt lat="44.15894" lon="5.14791">
        <ele>573.2</ele>
        <time>2021-05-31T10:06:12.000Z</time>
      </trkpt>
      <trkpt lat="44.15909" lon="5.14831">
        <ele>570.3</ele>
        <time>2021-05-31T10:06:14.000Z</time>
      </trkpt>
      <trkpt lat="44.15923" lon="5.14871">
        <ele>567.4</ele>
        <time>2021-05-31T10:06:17.000Z</time>
      </trkpt>
      <trkpt lat="44.15932" lon="5.14881">
        <ele>566.5</ele>
        <time>2021-05-31T10:06:17.000Z</time>
      </trkpt>
      <trkpt lat="44.15971" lon="5.14912">
        <ele>563.9</ele>
        <time>2021-05-31T10:06:21.000Z</time>
      </trkpt>
      <trkpt lat="44.15982" lon="5.14916">
        <ele>562.6</ele>
        <time>2021-05-31T10:06:21.000Z</time>
      </trkpt>
      <trkpt lat="44.15988" lon="5.14914">
        <ele>562</ele>
        <time>2021-05-31T10:06:22.000Z</time>
      </trkpt>
      <trkpt lat="44.15997" lon="5.14901">
        <ele>561.2</ele>
        <time>2021-05-31T10:06:23.000Z</time>
      </trkpt>
      <trkpt lat="44.16004" lon="5.14853">
        <ele>557.3</ele>
        <time>2021-05-31T10:06:26.000Z</time>
      </trkpt>
      <trkpt lat="44.16011" lon="5.14805">
        <ele>553.2</ele>
        <time>2021-05-31T10:06:28.000Z</time>
      </trkpt>
      <trkpt lat="44.16015" lon="5.1479">
        <ele>551.8</ele>
        <time>2021-05-31T10:06:29.000Z</time>
      </trkpt>
      <trkpt lat="44.16021" lon="5.14779">
        <ele>550.5</ele>
        <time>2021-05-31T10:06:30.000Z</time>
      </trkpt>
      <trkpt lat="44.16037" lon="5.14768">
        <ele>548.3</ele>
        <time>2021-05-31T10:06:31.000Z</time>
      </trkpt>
      <trkpt lat="44.16043" lon="5.14757">
        <ele>547.5</ele>
        <time>2021-05-31T10:06:32.000Z</time>
      </trkpt>
      <trkpt lat="44.16048" lon="5.14742">
        <ele>546.8</ele>
        <time>2021-05-31T10:06:33.000Z</time>
      </trkpt>
      <trkpt lat="44.16058" lon="5.14698">
        <ele>544.4</ele>
        <time>2021-05-31T10:06:35.000Z</time>
      </trkpt>
      <trkpt lat="44.16062" lon="5.14691">
        <ele>543.7</ele>
        <time>2021-05-31T10:06:36.000Z</time>
      </trkpt>
      <trkpt lat="44.16067" lon="5.14685">
        <ele>543.1</ele>
        <time>2021-05-31T10:06:36.000Z</time>
      </trkpt>
      <trkpt lat="44.16073" lon="5.14683">
        <ele>542.3</ele>
        <time>2021-05-31T10:06:37.000Z</time>
      </trkpt>
      <trkpt lat="44.16081" lon="5.14684">
        <ele>540.9</ele>
        <time>2021-05-31T10:06:37.000Z</time>
      </trkpt>
      <trkpt lat="44.16091" lon="5.14688">
        <ele>539.9</ele>
        <time>2021-05-31T10:06:38.000Z</time>
      </trkpt>
      <trkpt lat="44.16122" lon="5.14706">
        <ele>536.8</ele>
        <time>2021-05-31T10:06:40.000Z</time>
      </trkpt>
      <trkpt lat="44.16133" lon="5.14705">
        <ele>535.8</ele>
        <time>2021-05-31T10:06:41.000Z</time>
      </trkpt>
      <trkpt lat="44.16138" lon="5.14701">
        <ele>535.4</ele>
        <time>2021-05-31T10:06:42.000Z</time>
      </trkpt>
      <trkpt lat="44.16145" lon="5.14691">
        <ele>534.3</ele>
        <time>2021-05-31T10:06:42.000Z</time>
      </trkpt>
      <trkpt lat="44.16146" lon="5.14673">
        <ele>531.6</ele>
        <time>2021-05-31T10:06:43.000Z</time>
      </trkpt>
      <trkpt lat="44.16138" lon="5.14643">
        <ele>529.3</ele>
        <time>2021-05-31T10:06:45.000Z</time>
      </trkpt>
      <trkpt lat="44.16137" lon="5.14604">
        <ele>527.6</ele>
        <time>2021-05-31T10:06:47.000Z</time>
      </trkpt>
      <trkpt lat="44.16131" lon="5.14587">
        <ele>525.8</ele>
        <time>2021-05-31T10:06:48.000Z</time>
      </trkpt>
      <trkpt lat="44.16119" lon="5.14568">
        <ele>524.1</ele>
        <time>2021-05-31T10:06:49.000Z</time>
      </trkpt>
      <trkpt lat="44.16114" lon="5.14548">
        <ele>522.4</ele>
        <time>2021-05-31T10:06:51.000Z</time>
      </trkpt>
      <trkpt lat="44.16118" lon="5.14505">
        <ele>519.3</ele>
        <time>2021-05-31T10:06:53.000Z</time>
      </trkpt>
      <trkpt lat="44.16117" lon="5.14487">
        <ele>517.8</ele>
        <time>2021-05-31T10:06:54.000Z</time>
      </trkpt>
      <trkpt lat="44.16108" lon="5.14468">
        <ele>515.8</ele>
        <time>2021-05-31T10:06:55.000Z</time>
      </trkpt>
      <trkpt lat="44.16089" lon="5.14443">
        <ele>512.8</ele>
        <time>2021-05-31T10:06:57.000Z</time>
      </trkpt>
      <trkpt lat="44.16069" lon="5.14418">
        <ele>509.8</ele>
        <time>2021-05-31T10:06:59.000Z</time>
      </trkpt>
      <trkpt lat="44.16033" lon="5.14377">
        <ele>503.6</ele>
        <time>2021-05-31T10:07:03.000Z</time>
      </trkpt>
      <trkpt lat="44.15996" lon="5.14337">
        <ele>499.1</ele>
        <time>2021-05-31T10:07:06.000Z</time>
      </trkpt>
      <trkpt lat="44.15984" lon="5.1432">
        <ele>496.5</ele>
        <time>2021-05-31T10:07:08.000Z</time>
      </trkpt>
      <trkpt lat="44.15977" lon="5.14305">
        <ele>494.9</ele>
        <time>2021-05-31T10:07:09.000Z</time>
      </trkpt>
      <trkpt lat="44.15972" lon="5.14288">
        <ele>493.6</ele>
        <time>2021-05-31T10:07:09.000Z</time>
      </trkpt>
      <trkpt lat="44.15971" lon="5.14272">
        <ele>492.1</ele>
        <time>2021-05-31T10:07:10.000Z</time>
      </trkpt>
      <trkpt lat="44.15973" lon="5.14257">
        <ele>490.7</ele>
        <time>2021-05-31T10:07:11.000Z</time>
      </trkpt>
      <trkpt lat="44.15983" lon="5.14232">
        <ele>488.6</ele>
        <time>2021-05-31T10:07:13.000Z</time>
      </trkpt>
      <trkpt lat="44.16001" lon="5.14198">
        <ele>485</ele>
        <time>2021-05-31T10:07:15.000Z</time>
      </trkpt>
      <trkpt lat="44.16022" lon="5.14175">
        <ele>482.1</ele>
        <time>2021-05-31T10:07:17.000Z</time>
      </trkpt>
      <trkpt lat="44.16054" lon="5.14157">
        <ele>479.1</ele>
        <time>2021-05-31T10:07:20.000Z</time>
      </trkpt>
      <trkpt lat="44.16086" lon="5.14139">
        <ele>476.1</ele>
        <time>2021-05-31T10:07:22.000Z</time>
      </trkpt>
      <trkpt lat="44.161" lon="5.14135">
        <ele>474.4</ele>
        <time>2021-05-31T10:07:23.000Z</time>
      </trkpt>
      <trkpt lat="44.16112" lon="5.14134">
        <ele>473</ele>
        <time>2021-05-31T10:07:24.000Z</time>
      </trkpt>
      <trkpt lat="44.16139" lon="5.14137">
        <ele>471.9</ele>
        <time>2021-05-31T10:07:26.000Z</time>
      </trkpt>
      <trkpt lat="44.16166" lon="5.14141">
        <ele>470.4</ele>
        <time>2021-05-31T10:07:28.000Z</time>
      </trkpt>
      <trkpt lat="44.16179" lon="5.1414">
        <ele>467.3</ele>
        <time>2021-05-31T10:07:29.000Z</time>
      </trkpt>
      <trkpt lat="44.16193" lon="5.14135">
        <ele>466.2</ele>
        <time>2021-05-31T10:07:30.000Z</time>
      </trkpt>
      <trkpt lat="44.16211" lon="5.14125">
        <ele>465.3</ele>
        <time>2021-05-31T10:07:32.000Z</time>
      </trkpt>
      <trkpt lat="44.16222" lon="5.14122">
        <ele>464</ele>
        <time>2021-05-31T10:07:33.000Z</time>
      </trkpt>
      <trkpt lat="44.16245" lon="5.14121">
        <ele>462.4</ele>
        <time>2021-05-31T10:07:34.000Z</time>
      </trkpt>
      <trkpt lat="44.16268" lon="5.14119">
        <ele>461.1</ele>
        <time>2021-05-31T10:07:36.000Z</time>
      </trkpt>
      <trkpt lat="44.16291" lon="5.14119">
        <ele>460.2</ele>
        <time>2021-05-31T10:07:38.000Z</time>
      </trkpt>
      <trkpt lat="44.16313" lon="5.1412">
        <ele>459.1</ele>
        <time>2021-05-31T10:07:39.000Z</time>
      </trkpt>
      <trkpt lat="44.16334" lon="5.1412">
        <ele>456.6</ele>
        <time>2021-05-31T10:07:41.000Z</time>
      </trkpt>
      <trkpt lat="44.16347" lon="5.14122">
        <ele>454.1</ele>
        <time>2021-05-31T10:07:42.000Z</time>
      </trkpt>
      <trkpt lat="44.1636" lon="5.14131">
        <ele>452.7</ele>
        <time>2021-05-31T10:07:43.000Z</time>
      </trkpt>
      <trkpt lat="44.16371" lon="5.14143">
        <ele>451.6</ele>
        <time>2021-05-31T10:07:44.000Z</time>
      </trkpt>
      <trkpt lat="44.16389" lon="5.14167">
        <ele>449</ele>
        <time>2021-05-31T10:07:46.000Z</time>
      </trkpt>
      <trkpt lat="44.16406" lon="5.14192">
        <ele>446.5</ele>
        <time>2021-05-31T10:07:48.000Z</time>
      </trkpt>
      <trkpt lat="44.16437" lon="5.14232">
        <ele>443.3</ele>
        <time>2021-05-31T10:07:51.000Z</time>
      </trkpt>
      <trkpt lat="44.16466" lon="5.14261">
        <ele>440.6</ele>
        <time>2021-05-31T10:07:53.000Z</time>
      </trkpt>
      <trkpt lat="44.16474" lon="5.14277">
        <ele>439.9</ele>
        <time>2021-05-31T10:07:54.000Z</time>
      </trkpt>
      <trkpt lat="44.16488" lon="5.14322">
        <ele>437.5</ele>
        <time>2021-05-31T10:07:57.000Z</time>
      </trkpt>
      <trkpt lat="44.16497" lon="5.14341">
        <ele>436.2</ele>
        <time>2021-05-31T10:07:58.000Z</time>
      </trkpt>
      <trkpt lat="44.16505" lon="5.14366">
        <ele>433.6</ele>
        <time>2021-05-31T10:07:59.000Z</time>
      </trkpt>
      <trkpt lat="44.16507" lon="5.14386">
        <ele>432.3</ele>
        <time>2021-05-31T10:08:00.000Z</time>
      </trkpt>
      <trkpt lat="44.165" lon="5.14442">
        <ele>430.6</ele>
        <time>2021-05-31T10:08:03.000Z</time>
      </trkpt>
      <trkpt lat="44.165" lon="5.14454">
        <ele>429.5</ele>
        <time>2021-05-31T10:08:04.000Z</time>
      </trkpt>
      <trkpt lat="44.16506" lon="5.14477">
        <ele>427.2</ele>
        <time>2021-05-31T10:08:06.000Z</time>
      </trkpt>
      <trkpt lat="44.1652" lon="5.14503">
        <ele>425.4</ele>
        <time>2021-05-31T10:08:07.000Z</time>
      </trkpt>
      <trkpt lat="44.16546" lon="5.14527">
        <ele>423.4</ele>
        <time>2021-05-31T10:08:09.000Z</time>
      </trkpt>
      <trkpt lat="44.16551" lon="5.14534">
        <ele>422.8</ele>
        <time>2021-05-31T10:08:10.000Z</time>
      </trkpt>
      <trkpt lat="44.16557" lon="5.14551">
        <ele>421.9</ele>
        <time>2021-05-31T10:08:11.000Z</time>
      </trkpt>
      <trkpt lat="44.16558" lon="5.14564">
        <ele>421.2</ele>
        <time>2021-05-31T10:08:12.000Z</time>
      </trkpt>
      <trkpt lat="44.16556" lon="5.14579">
        <ele>420</ele>
        <time>2021-05-31T10:08:12.000Z</time>
      </trkpt>
      <trkpt lat="44.16548" lon="5.14609">
        <ele>417.3</ele>
        <time>2021-05-31T10:08:14.000Z</time>
      </trkpt>
      <trkpt lat="44.16547" lon="5.14623">
        <ele>415.2</ele>
        <time>2021-05-31T10:08:15.000Z</time>
      </trkpt>
      <trkpt lat="44.16551" lon="5.14666">
        <ele>413.2</ele>
        <time>2021-05-31T10:08:17.000Z</time>
      </trkpt>
      <trkpt lat="44.16555" lon="5.14709">
        <ele>411.7</ele>
        <time>2021-05-31T10:08:20.000Z</time>
      </trkpt>
      <trkpt lat="44.16557" lon="5.14718">
        <ele>411.4</ele>
        <time>2021-05-31T10:08:20.000Z</time>
      </trkpt>
      <trkpt lat="44.16561" lon="5.14725">
        <ele>411.1</ele>
        <time>2021-05-31T10:08:21.000Z</time>
      </trkpt>
      <trkpt lat="44.16571" lon="5.14735">
        <ele>410.5</ele>
        <time>2021-05-31T10:08:22.000Z</time>
      </trkpt>
      <trkpt lat="44.16577" lon="5.14737">
        <ele>410</ele>
        <time>2021-05-31T10:08:22.000Z</time>
      </trkpt>
      <trkpt lat="44.16598" lon="5.14737">
        <ele>408.7</ele>
        <time>2021-05-31T10:08:23.000Z</time>
      </trkpt>
      <trkpt lat="44.16608" lon="5.14742">
        <ele>407.7</ele>
        <time>2021-05-31T10:08:24.000Z</time>
      </trkpt>
      <trkpt lat="44.16616" lon="5.1475">
        <ele>406.3</ele>
        <time>2021-05-31T10:08:25.000Z</time>
      </trkpt>
      <trkpt lat="44.16622" lon="5.14762">
        <ele>404.3</ele>
        <time>2021-05-31T10:08:26.000Z</time>
      </trkpt>
      <trkpt lat="44.16637" lon="5.14801">
        <ele>402.4</ele>
        <time>2021-05-31T10:08:28.000Z</time>
      </trkpt>
      <trkpt lat="44.16651" lon="5.14841">
        <ele>401</ele>
        <time>2021-05-31T10:08:31.000Z</time>
      </trkpt>
      <trkpt lat="44.16658" lon="5.14853">
        <ele>400.5</ele>
        <time>2021-05-31T10:08:31.000Z</time>
      </trkpt>
      <trkpt lat="44.16667" lon="5.14863">
        <ele>400.3</ele>
        <time>2021-05-31T10:08:32.000Z</time>
      </trkpt>
      <trkpt lat="44.16677" lon="5.1487">
        <ele>400.1</ele>
        <time>2021-05-31T10:08:33.000Z</time>
      </trkpt>
      <trkpt lat="44.16699" lon="5.14873">
        <ele>400</ele>
        <time>2021-05-31T10:08:36.000Z</time>
      </trkpt>
      <trkpt lat="44.16709" lon="5.1487">
        <ele>399.9</ele>
        <time>2021-05-31T10:08:37.000Z</time>
      </trkpt>
      <trkpt lat="44.1672" lon="5.14859">
        <ele>399.8</ele>
        <time>2021-05-31T10:08:38.000Z</time>
      </trkpt>
      <trkpt lat="44.16738" lon="5.1483">
        <ele>399.7</ele>
        <time>2021-05-31T10:08:40.000Z</time>
      </trkpt>
      <trkpt lat="44.16751" lon="5.14798">
        <ele>399.4</ele>
        <time>2021-05-31T10:08:43.000Z</time>
      </trkpt>
      <trkpt lat="44.16764" lon="5.14753">
        <ele>398.8</ele>
        <time>2021-05-31T10:08:46.000Z</time>
      </trkpt>
      <trkpt lat="44.16777" lon="5.14709">
        <ele>398.3</ele>
        <time>2021-05-31T10:08:49.000Z</time>
      </trkpt>
      <trkpt lat="44.1679" lon="5.14664">
        <ele>397.6</ele>
        <time>2021-05-31T10:08:52.000Z</time>
      </trkpt>
      <trkpt lat="44.16802" lon="5.14619">
        <ele>397</ele>
        <time>2021-05-31T10:08:55.000Z</time>
      </trkpt>
      <trkpt lat="44.16815" lon="5.14575">
        <ele>396</ele>
        <time>2021-05-31T10:08:58.000Z</time>
      </trkpt>
      <trkpt lat="44.16828" lon="5.1453">
        <ele>395</ele>
        <time>2021-05-31T10:09:01.000Z</time>
      </trkpt>
      <trkpt lat="44.1684" lon="5.14474">
        <ele>392.8</ele>
        <time>2021-05-31T10:09:04.000Z</time>
      </trkpt>
      <trkpt lat="44.16847" lon="5.14433">
        <ele>390.9</ele>
        <time>2021-05-31T10:09:06.000Z</time>
      </trkpt>
      <trkpt lat="44.16853" lon="5.14391">
        <ele>388.9</ele>
        <time>2021-05-31T10:09:09.000Z</time>
      </trkpt>
      <trkpt lat="44.16864" lon="5.14353">
        <ele>387.3</ele>
        <time>2021-05-31T10:09:11.000Z</time>
      </trkpt>
      <trkpt lat="44.1688" lon="5.1432">
        <ele>385.9</ele>
        <time>2021-05-31T10:09:13.000Z</time>
      </trkpt>
      <trkpt lat="44.16897" lon="5.1429">
        <ele>384</ele>
        <time>2021-05-31T10:09:15.000Z</time>
      </trkpt>
      <trkpt lat="44.16915" lon="5.14259">
        <ele>382</ele>
        <time>2021-05-31T10:09:17.000Z</time>
      </trkpt>
      <trkpt lat="44.16932" lon="5.14229">
        <ele>380.2</ele>
        <time>2021-05-31T10:09:19.000Z</time>
      </trkpt>
      <trkpt lat="44.16954" lon="5.14197">
        <ele>379</ele>
        <time>2021-05-31T10:09:21.000Z</time>
      </trkpt>
      <trkpt lat="44.16969" lon="5.14182">
        <ele>376.9</ele>
        <time>2021-05-31T10:09:23.000Z</time>
      </trkpt>
      <trkpt lat="44.16983" lon="5.14163">
        <ele>374.7</ele>
        <time>2021-05-31T10:09:24.000Z</time>
      </trkpt>
      <trkpt lat="44.17" lon="5.14131">
        <ele>373.3</ele>
        <time>2021-05-31T10:09:26.000Z</time>
      </trkpt>
      <trkpt lat="44.17017" lon="5.14099">
        <ele>372</ele>
        <time>2021-05-31T10:09:29.000Z</time>
      </trkpt>
      <trkpt lat="44.17038" lon="5.14073">
        <ele>370</ele>
        <time>2021-05-31T10:09:31.000Z</time>
      </trkpt>
      <trkpt lat="44.17058" lon="5.14046">
        <ele>367.9</ele>
        <time>2021-05-31T10:09:33.000Z</time>
      </trkpt>
      <trkpt lat="44.17067" lon="5.14025">
        <ele>366.8</ele>
        <time>2021-05-31T10:09:34.000Z</time>
      </trkpt>
      <trkpt lat="44.17078" lon="5.13982">
        <ele>364.1</ele>
        <time>2021-05-31T10:09:36.000Z</time>
      </trkpt>
      <trkpt lat="44.17083" lon="5.1397">
        <ele>362.8</ele>
        <time>2021-05-31T10:09:37.000Z</time>
      </trkpt>
      <trkpt lat="44.17089" lon="5.1396">
        <ele>361.3</ele>
        <time>2021-05-31T10:09:38.000Z</time>
      </trkpt>
      <trkpt lat="44.17122" lon="5.13924">
        <ele>358.8</ele>
        <time>2021-05-31T10:09:41.000Z</time>
      </trkpt>
      <trkpt lat="44.17135" lon="5.13903">
        <ele>357</ele>
        <time>2021-05-31T10:09:42.000Z</time>
      </trkpt>
      <trkpt lat="44.1715" lon="5.13865">
        <ele>355.8</ele>
        <time>2021-05-31T10:09:45.000Z</time>
      </trkpt>
      <trkpt lat="44.17165" lon="5.13826">
        <ele>354.4</ele>
        <time>2021-05-31T10:09:47.000Z</time>
      </trkpt>
      <trkpt lat="44.17177" lon="5.13806">
        <ele>351.1</ele>
        <time>2021-05-31T10:09:49.000Z</time>
      </trkpt>
      <trkpt lat="44.17208" lon="5.13778">
        <ele>349</ele>
        <time>2021-05-31T10:09:51.000Z</time>
      </trkpt>
      <trkpt lat="44.17238" lon="5.13749">
        <ele>347.2</ele>
        <time>2021-05-31T10:09:54.000Z</time>
      </trkpt>
      <trkpt lat="44.17268" lon="5.13719">
        <ele>345.6</ele>
        <time>2021-05-31T10:09:57.000Z</time>
      </trkpt>
      <trkpt lat="44.17279" lon="5.13705">
        <ele>344.5</ele>
        <time>2021-05-31T10:09:58.000Z</time>
      </trkpt>
      <trkpt lat="44.17284" lon="5.13694">
        <ele>344</ele>
        <time>2021-05-31T10:09:59.000Z</time>
      </trkpt>
      <trkpt lat="44.17288" lon="5.13678">
        <ele>342.7</ele>
        <time>2021-05-31T10:09:59.000Z</time>
      </trkpt>
      <trkpt lat="44.17296" lon="5.13643">
        <ele>341.6</ele>
        <time>2021-05-31T10:10:01.000Z</time>
      </trkpt>
      <trkpt lat="44.17304" lon="5.13608">
        <ele>340.6</ele>
        <time>2021-05-31T10:10:04.000Z</time>
      </trkpt>
      <trkpt lat="44.17311" lon="5.13552">
        <ele>338.1</ele>
        <time>2021-05-31T10:10:07.000Z</time>
      </trkpt>
      <trkpt lat="44.17311" lon="5.13522">
        <ele>336.6</ele>
        <time>2021-05-31T10:10:08.000Z</time>
      </trkpt>
      <trkpt lat="44.17309" lon="5.13502">
        <ele>335.9</ele>
        <time>2021-05-31T10:10:09.000Z</time>
      </trkpt>
      <trkpt lat="44.17311" lon="5.13467">
        <ele>335.2</ele>
        <time>2021-05-31T10:10:11.000Z</time>
      </trkpt>
      <trkpt lat="44.17313" lon="5.13432">
        <ele>334.4</ele>
        <time>2021-05-31T10:10:13.000Z</time>
      </trkpt>
      <trkpt lat="44.17318" lon="5.13369">
        <ele>331.9</ele>
        <time>2021-05-31T10:10:17.000Z</time>
      </trkpt>
      <trkpt lat="44.17289" lon="5.13363">
        <ele>332.7</ele>
        <time>2021-05-31T10:10:20.000Z</time>
      </trkpt>
      <trkpt lat="44.17259" lon="5.13358">
        <ele>334</ele>
        <time>2021-05-31T10:10:25.000Z</time>
      </trkpt>
      <trkpt lat="44.1725" lon="5.13354">
        <ele>335.2</ele>
        <time>2021-05-31T10:10:27.000Z</time>
      </trkpt>
      <trkpt lat="44.17221" lon="5.13327">
        <ele>336.5</ele>
        <time>2021-05-31T10:10:32.000Z</time>
      </trkpt>
      <trkpt lat="44.17213" lon="5.13316">
        <ele>336.9</ele>
        <time>2021-05-31T10:10:33.000Z</time>
      </trkpt>
      <trkpt lat="44.17208" lon="5.13302">
        <ele>337.3</ele>
        <time>2021-05-31T10:10:35.000Z</time>
      </trkpt>
      <trkpt lat="44.17199" lon="5.13262">
        <ele>338.6</ele>
        <time>2021-05-31T10:10:39.000Z</time>
      </trkpt>
      <trkpt lat="44.17187" lon="5.13235">
        <ele>338.8</ele>
        <time>2021-05-31T10:10:41.000Z</time>
      </trkpt>
      <trkpt lat="44.17174" lon="5.13209">
        <ele>339</ele>
        <time>2021-05-31T10:10:44.000Z</time>
      </trkpt>
      <trkpt lat="44.17173" lon="5.13204">
        <ele>339.1</ele>
        <time>2021-05-31T10:10:44.000Z</time>
      </trkpt>
      <trkpt lat="44.1717" lon="5.13198">
        <ele>339.2</ele>
        <time>2021-05-31T10:10:45.000Z</time>
      </trkpt>
      <trkpt lat="44.17165" lon="5.13196">
        <ele>339.5</ele>
        <time>2021-05-31T10:10:46.000Z</time>
      </trkpt>
      <trkpt lat="44.1716" lon="5.13198">
        <ele>339.8</ele>
        <time>2021-05-31T10:10:47.000Z</time>
      </trkpt>
      <trkpt lat="44.17156" lon="5.13203">
        <ele>340.1</ele>
        <time>2021-05-31T10:10:48.000Z</time>
      </trkpt>
      <trkpt lat="44.1714" lon="5.1321">
        <ele>340.9</ele>
        <time>2021-05-31T10:10:50.000Z</time>
      </trkpt>
      <trkpt lat="44.17112" lon="5.13199">
        <ele>341.6</ele>
        <time>2021-05-31T10:10:53.000Z</time>
      </trkpt>
      <trkpt lat="44.17089" lon="5.13189">
        <ele>342.5</ele>
        <time>2021-05-31T10:10:57.000Z</time>
      </trkpt>
      <trkpt lat="44.17066" lon="5.13179">
        <ele>343.3</ele>
        <time>2021-05-31T10:11:00.000Z</time>
      </trkpt>
      <trkpt lat="44.17043" lon="5.13169">
        <ele>344.2</ele>
        <time>2021-05-31T10:11:03.000Z</time>
      </trkpt>
      <trkpt lat="44.1702" lon="5.13159">
        <ele>345.5</ele>
        <time>2021-05-31T10:11:07.000Z</time>
      </trkpt>
      <trkpt lat="44.16996" lon="5.13149">
        <ele>346.9</ele>
        <time>2021-05-31T10:11:11.000Z</time>
      </trkpt>
      <trkpt lat="44.16973" lon="5.13139">
        <ele>348.2</ele>
        <time>2021-05-31T10:11:15.000Z</time>
      </trkpt>
      <trkpt lat="44.1695" lon="5.13129">
        <ele>349.3</ele>
        <time>2021-05-31T10:11:18.000Z</time>
      </trkpt>
      <trkpt lat="44.16927" lon="5.13119">
        <ele>350.4</ele>
        <time>2021-05-31T10:11:22.000Z</time>
      </trkpt>
      <trkpt lat="44.16904" lon="5.13109">
        <ele>351.5</ele>
        <time>2021-05-31T10:11:26.000Z</time>
      </trkpt>
      <trkpt lat="44.16893" lon="5.13102">
        <ele>352.2</ele>
        <time>2021-05-31T10:11:27.000Z</time>
      </trkpt>
      <trkpt lat="44.16882" lon="5.13087">
        <ele>352.8</ele>
        <time>2021-05-31T10:11:30.000Z</time>
      </trkpt>
      <trkpt lat="44.16876" lon="5.13066">
        <ele>353.3</ele>
        <time>2021-05-31T10:11:32.000Z</time>
      </trkpt>
      <trkpt lat="44.16877" lon="5.13041">
        <ele>354.3</ele>
        <time>2021-05-31T10:11:34.000Z</time>
      </trkpt>
      <trkpt lat="44.16885" lon="5.13005">
        <ele>355.4</ele>
        <time>2021-05-31T10:11:38.000Z</time>
      </trkpt>
      <trkpt lat="44.16894" lon="5.1297">
        <ele>356.4</ele>
        <time>2021-05-31T10:11:42.000Z</time>
      </trkpt>
      <trkpt lat="44.16902" lon="5.12934">
        <ele>357.6</ele>
        <time>2021-05-31T10:11:46.000Z</time>
      </trkpt>
      <trkpt lat="44.1691" lon="5.12898">
        <ele>358.7</ele>
        <time>2021-05-31T10:11:49.000Z</time>
      </trkpt>
      <trkpt lat="44.16917" lon="5.12869">
        <ele>359.4</ele>
        <time>2021-05-31T10:11:52.000Z</time>
      </trkpt>
      <trkpt lat="44.16923" lon="5.12841">
        <ele>360.2</ele>
        <time>2021-05-31T10:11:55.000Z</time>
      </trkpt>
      <trkpt lat="44.1693" lon="5.12812">
        <ele>360.9</ele>
        <time>2021-05-31T10:11:58.000Z</time>
      </trkpt>
      <trkpt lat="44.16935" lon="5.12793">
        <ele>361.8</ele>
        <time>2021-05-31T10:12:00.000Z</time>
      </trkpt>
      <trkpt lat="44.16945" lon="5.1277">
        <ele>362.8</ele>
        <time>2021-05-31T10:12:03.000Z</time>
      </trkpt>
      <trkpt lat="44.16955" lon="5.12754">
        <ele>363.5</ele>
        <time>2021-05-31T10:12:06.000Z</time>
      </trkpt>
      <trkpt lat="44.16973" lon="5.12733">
        <ele>365</ele>
        <time>2021-05-31T10:12:10.000Z</time>
      </trkpt>
      <trkpt lat="44.16996" lon="5.12716">
        <ele>365.7</ele>
        <time>2021-05-31T10:12:13.000Z</time>
      </trkpt>
      <trkpt lat="44.17018" lon="5.12698">
        <ele>366.2</ele>
        <time>2021-05-31T10:12:16.000Z</time>
      </trkpt>
      <trkpt lat="44.17041" lon="5.12681">
        <ele>366.9</ele>
        <time>2021-05-31T10:12:19.000Z</time>
      </trkpt>
      <trkpt lat="44.17063" lon="5.12663">
        <ele>368</ele>
        <time>2021-05-31T10:12:23.000Z</time>
      </trkpt>
      <trkpt lat="44.17086" lon="5.12646">
        <ele>369.1</ele>
        <time>2021-05-31T10:12:26.000Z</time>
      </trkpt>
      <trkpt lat="44.17108" lon="5.12628">
        <ele>370.2</ele>
        <time>2021-05-31T10:12:30.000Z</time>
      </trkpt>
      <trkpt lat="44.17116" lon="5.1262">
        <ele>370.3</ele>
        <time>2021-05-31T10:12:31.000Z</time>
      </trkpt>
      <trkpt lat="44.17124" lon="5.126">
        <ele>370.5</ele>
        <time>2021-05-31T10:12:33.000Z</time>
      </trkpt>
      <trkpt lat="44.17128" lon="5.12577">
        <ele>371.1</ele>
        <time>2021-05-31T10:12:35.000Z</time>
      </trkpt>
      <trkpt lat="44.17124" lon="5.12551">
        <ele>371.8</ele>
        <time>2021-05-31T10:12:38.000Z</time>
      </trkpt>
      <trkpt lat="44.17114" lon="5.12534">
        <ele>372.2</ele>
        <time>2021-05-31T10:12:39.000Z</time>
      </trkpt>
      <trkpt lat="44.17102" lon="5.12523">
        <ele>372.7</ele>
        <time>2021-05-31T10:12:41.000Z</time>
      </trkpt>
      <trkpt lat="44.17083" lon="5.12519">
        <ele>373.8</ele>
        <time>2021-05-31T10:12:45.000Z</time>
      </trkpt>
      <trkpt lat="44.17056" lon="5.12522">
        <ele>374.4</ele>
        <time>2021-05-31T10:12:48.000Z</time>
      </trkpt>
      <trkpt lat="44.17028" lon="5.12526">
        <ele>374.8</ele>
        <time>2021-05-31T10:12:51.000Z</time>
      </trkpt>
      <trkpt lat="44.17001" lon="5.12529">
        <ele>375.3</ele>
        <time>2021-05-31T10:12:54.000Z</time>
      </trkpt>
      <trkpt lat="44.16981" lon="5.12533">
        <ele>375.6</ele>
        <time>2021-05-31T10:12:56.000Z</time>
      </trkpt>
      <trkpt lat="44.16961" lon="5.12536">
        <ele>375.9</ele>
        <time>2021-05-31T10:12:58.000Z</time>
      </trkpt>
      <trkpt lat="44.1694" lon="5.12542">
        <ele>376.6</ele>
        <time>2021-05-31T10:13:01.000Z</time>
      </trkpt>
      <trkpt lat="44.16918" lon="5.12548">
        <ele>377.3</ele>
        <time>2021-05-31T10:13:04.000Z</time>
      </trkpt>
      <trkpt lat="44.16897" lon="5.12553">
        <ele>378</ele>
        <time>2021-05-31T10:13:07.000Z</time>
      </trkpt>
      <trkpt lat="44.16875" lon="5.12559">
        <ele>378.7</ele>
        <time>2021-05-31T10:13:09.000Z</time>
      </trkpt>
      <trkpt lat="44.16848" lon="5.12567">
        <ele>379.4</ele>
        <time>2021-05-31T10:13:13.000Z</time>
      </trkpt>
      <trkpt lat="44.16821" lon="5.12575">
        <ele>380.1</ele>
        <time>2021-05-31T10:13:16.000Z</time>
      </trkpt>
      <trkpt lat="44.16795" lon="5.12583">
        <ele>380.8</ele>
        <time>2021-05-31T10:13:19.000Z</time>
      </trkpt>
      <trkpt lat="44.16768" lon="5.1259">
        <ele>381.7</ele>
        <time>2021-05-31T10:13:23.000Z</time>
      </trkpt>
      <trkpt lat="44.16741" lon="5.12598">
        <ele>382.7</ele>
        <time>2021-05-31T10:13:26.000Z</time>
      </trkpt>
      <trkpt lat="44.16714" lon="5.12606">
        <ele>383.6</ele>
        <time>2021-05-31T10:13:30.000Z</time>
      </trkpt>
      <trkpt lat="44.16688" lon="5.12613">
        <ele>384.4</ele>
        <time>2021-05-31T10:13:33.000Z</time>
      </trkpt>
      <trkpt lat="44.16662" lon="5.1262">
        <ele>385.2</ele>
        <time>2021-05-31T10:13:37.000Z</time>
      </trkpt>
      <trkpt lat="44.16636" lon="5.12627">
        <ele>385.8</ele>
        <time>2021-05-31T10:13:40.000Z</time>
      </trkpt>
      <trkpt lat="44.1661" lon="5.12634">
        <ele>386.4</ele>
        <time>2021-05-31T10:13:43.000Z</time>
      </trkpt>
      <trkpt lat="44.16595" lon="5.12639">
        <ele>387.5</ele>
        <time>2021-05-31T10:13:46.000Z</time>
      </trkpt>
      <trkpt lat="44.16579" lon="5.12644">
        <ele>388.5</ele>
        <time>2021-05-31T10:13:48.000Z</time>
      </trkpt>
      <trkpt lat="44.16543" lon="5.1266">
        <ele>389</ele>
        <time>2021-05-31T10:13:53.000Z</time>
      </trkpt>
      <trkpt lat="44.16524" lon="5.12672">
        <ele>389.4</ele>
        <time>2021-05-31T10:13:55.000Z</time>
      </trkpt>
      <trkpt lat="44.16501" lon="5.12691">
        <ele>390.3</ele>
        <time>2021-05-31T10:13:58.000Z</time>
      </trkpt>
      <trkpt lat="44.16478" lon="5.12715">
        <ele>391.3</ele>
        <time>2021-05-31T10:14:02.000Z</time>
      </trkpt>
      <trkpt lat="44.16457" lon="5.12742">
        <ele>392.2</ele>
        <time>2021-05-31T10:14:06.000Z</time>
      </trkpt>
      <trkpt lat="44.16441" lon="5.12768">
        <ele>392.7</ele>
        <time>2021-05-31T10:14:09.000Z</time>
      </trkpt>
      <trkpt lat="44.16422" lon="5.12806">
        <ele>393.5</ele>
        <time>2021-05-31T10:14:13.000Z</time>
      </trkpt>
      <trkpt lat="44.16411" lon="5.12833">
        <ele>394.1</ele>
        <time>2021-05-31T10:14:15.000Z</time>
      </trkpt>
      <trkpt lat="44.16401" lon="5.1286">
        <ele>394.7</ele>
        <time>2021-05-31T10:14:18.000Z</time>
      </trkpt>
      <trkpt lat="44.1639" lon="5.12886">
        <ele>395.3</ele>
        <time>2021-05-31T10:14:21.000Z</time>
      </trkpt>
      <trkpt lat="44.16379" lon="5.12913">
        <ele>395.9</ele>
        <time>2021-05-31T10:14:23.000Z</time>
      </trkpt>
      <trkpt lat="44.16369" lon="5.12935">
        <ele>396.4</ele>
        <time>2021-05-31T10:14:26.000Z</time>
      </trkpt>
      <trkpt lat="44.16359" lon="5.12957">
        <ele>397</ele>
        <time>2021-05-31T10:14:28.000Z</time>
      </trkpt>
      <trkpt lat="44.16345" lon="5.12974">
        <ele>397.4</ele>
        <time>2021-05-31T10:14:30.000Z</time>
      </trkpt>
      <trkpt lat="44.16329" lon="5.12984">
        <ele>397.9</ele>
        <time>2021-05-31T10:14:32.000Z</time>
      </trkpt>
      <trkpt lat="44.16322" lon="5.12987">
        <ele>398.1</ele>
        <time>2021-05-31T10:14:33.000Z</time>
      </trkpt>
      <trkpt lat="44.163" lon="5.12985">
        <ele>398.5</ele>
        <time>2021-05-31T10:14:36.000Z</time>
      </trkpt>
      <trkpt lat="44.16274" lon="5.12967">
        <ele>398.9</ele>
        <time>2021-05-31T10:14:39.000Z</time>
      </trkpt>
      <trkpt lat="44.16255" lon="5.12948">
        <ele>399.1</ele>
        <time>2021-05-31T10:14:41.000Z</time>
      </trkpt>
      <trkpt lat="44.16235" lon="5.12929">
        <ele>399.3</ele>
        <time>2021-05-31T10:14:44.000Z</time>
      </trkpt>
      <trkpt lat="44.16216" lon="5.12911">
        <ele>399.4</ele>
        <time>2021-05-31T10:14:46.000Z</time>
      </trkpt>
      <trkpt lat="44.16196" lon="5.12892">
        <ele>399.6</ele>
        <time>2021-05-31T10:14:49.000Z</time>
      </trkpt>
      <trkpt lat="44.16177" lon="5.12867">
        <ele>400</ele>
        <time>2021-05-31T10:14:52.000Z</time>
      </trkpt>
      <trkpt lat="44.16158" lon="5.12843">
        <ele>400.3</ele>
        <time>2021-05-31T10:14:55.000Z</time>
      </trkpt>
      <trkpt lat="44.1615" lon="5.12829">
        <ele>400.6</ele>
        <time>2021-05-31T10:14:56.000Z</time>
      </trkpt>
      <trkpt lat="44.16138" lon="5.12799">
        <ele>401.3</ele>
        <time>2021-05-31T10:14:59.000Z</time>
      </trkpt>
      <trkpt lat="44.16127" lon="5.12768">
        <ele>401.9</ele>
        <time>2021-05-31T10:15:02.000Z</time>
      </trkpt>
      <trkpt lat="44.16116" lon="5.12736">
        <ele>402.5</ele>
        <time>2021-05-31T10:15:05.000Z</time>
      </trkpt>
      <trkpt lat="44.16105" lon="5.12705">
        <ele>403.2</ele>
        <time>2021-05-31T10:15:08.000Z</time>
      </trkpt>
      <trkpt lat="44.16084" lon="5.12666">
        <ele>404</ele>
        <time>2021-05-31T10:15:12.000Z</time>
      </trkpt>
      <trkpt lat="44.16055" lon="5.12634">
        <ele>403.9</ele>
        <time>2021-05-31T10:15:16.000Z</time>
      </trkpt>
      <trkpt lat="44.16026" lon="5.12607">
        <ele>402.9</ele>
        <time>2021-05-31T10:15:19.000Z</time>
      </trkpt>
      <trkpt lat="44.15997" lon="5.1258">
        <ele>401.9</ele>
        <time>2021-05-31T10:15:22.000Z</time>
      </trkpt>
      <trkpt lat="44.15974" lon="5.12571">
        <ele>401.6</ele>
        <time>2021-05-31T10:15:24.000Z</time>
      </trkpt>
      <trkpt lat="44.15956" lon="5.12572">
        <ele>401.3</ele>
        <time>2021-05-31T10:15:25.000Z</time>
      </trkpt>
      <trkpt lat="44.1594" lon="5.1258">
        <ele>400.6</ele>
        <time>2021-05-31T10:15:27.000Z</time>
      </trkpt>
      <trkpt lat="44.15929" lon="5.12588">
        <ele>399.2</ele>
        <time>2021-05-31T10:15:28.000Z</time>
      </trkpt>
      <trkpt lat="44.15907" lon="5.12616">
        <ele>398.2</ele>
        <time>2021-05-31T10:15:30.000Z</time>
      </trkpt>
      <trkpt lat="44.15885" lon="5.12644">
        <ele>397.6</ele>
        <time>2021-05-31T10:15:33.000Z</time>
      </trkpt>
      <trkpt lat="44.15864" lon="5.12673">
        <ele>396.8</ele>
        <time>2021-05-31T10:15:35.000Z</time>
      </trkpt>
      <trkpt lat="44.15842" lon="5.12701">
        <ele>395.4</ele>
        <time>2021-05-31T10:15:38.000Z</time>
      </trkpt>
      <trkpt lat="44.1582" lon="5.12729">
        <ele>394</ele>
        <time>2021-05-31T10:15:40.000Z</time>
      </trkpt>
      <trkpt lat="44.15798" lon="5.12757">
        <ele>392.5</ele>
        <time>2021-05-31T10:15:42.000Z</time>
      </trkpt>
      <trkpt lat="44.15777" lon="5.12784">
        <ele>390.6</ele>
        <time>2021-05-31T10:15:44.000Z</time>
      </trkpt>
      <trkpt lat="44.15756" lon="5.1281">
        <ele>388.8</ele>
        <time>2021-05-31T10:15:46.000Z</time>
      </trkpt>
      <trkpt lat="44.15741" lon="5.12826">
        <ele>388</ele>
        <time>2021-05-31T10:15:48.000Z</time>
      </trkpt>
      <trkpt lat="44.15711" lon="5.12846">
        <ele>387.2</ele>
        <time>2021-05-31T10:15:50.000Z</time>
      </trkpt>
      <trkpt lat="44.15685" lon="5.12861">
        <ele>386.4</ele>
        <time>2021-05-31T10:15:53.000Z</time>
      </trkpt>
      <trkpt lat="44.15659" lon="5.12876">
        <ele>385.6</ele>
        <time>2021-05-31T10:15:55.000Z</time>
      </trkpt>
      <trkpt lat="44.15633" lon="5.12891">
        <ele>384.8</ele>
        <time>2021-05-31T10:15:58.000Z</time>
      </trkpt>
      <trkpt lat="44.15606" lon="5.12905">
        <ele>383.6</ele>
        <time>2021-05-31T10:16:00.000Z</time>
      </trkpt>
      <trkpt lat="44.1558" lon="5.1292">
        <ele>382.4</ele>
        <time>2021-05-31T10:16:02.000Z</time>
      </trkpt>
      <trkpt lat="44.15554" lon="5.12935">
        <ele>381.3</ele>
        <time>2021-05-31T10:16:04.000Z</time>
      </trkpt>
      <trkpt lat="44.15527" lon="5.12949">
        <ele>380.7</ele>
        <time>2021-05-31T10:16:07.000Z</time>
      </trkpt>
      <trkpt lat="44.15499" lon="5.12962">
        <ele>380.1</ele>
        <time>2021-05-31T10:16:09.000Z</time>
      </trkpt>
      <trkpt lat="44.15488" lon="5.12963">
        <ele>379.5</ele>
        <time>2021-05-31T10:16:10.000Z</time>
      </trkpt>
      <trkpt lat="44.15478" lon="5.12959">
        <ele>379.3</ele>
        <time>2021-05-31T10:16:11.000Z</time>
      </trkpt>
      <trkpt lat="44.15472" lon="5.12953">
        <ele>379.3</ele>
        <time>2021-05-31T10:16:12.000Z</time>
      </trkpt>
      <trkpt lat="44.1546" lon="5.12974">
        <ele>380</ele>
        <time>2021-05-31T10:16:14.000Z</time>
      </trkpt>
      <trkpt lat="44.15451" lon="5.12984">
        <ele>380.6</ele>
        <time>2021-05-31T10:16:16.000Z</time>
      </trkpt>
      <trkpt lat="44.15414" lon="5.12986">
        <ele>381.4</ele>
        <time>2021-05-31T10:16:20.000Z</time>
      </trkpt>
      <trkpt lat="44.15396" lon="5.12985">
        <ele>381.5</ele>
        <time>2021-05-31T10:16:22.000Z</time>
      </trkpt>
      <trkpt lat="44.15382" lon="5.12988">
        <ele>381.5</ele>
        <time>2021-05-31T10:16:24.000Z</time>
      </trkpt>
      <trkpt lat="44.15368" lon="5.12995">
        <ele>381.4</ele>
        <time>2021-05-31T10:16:25.000Z</time>
      </trkpt>
      <trkpt lat="44.15346" lon="5.13011">
        <ele>380.7</ele>
        <time>2021-05-31T10:16:27.000Z</time>
      </trkpt>
      <trkpt lat="44.15323" lon="5.13037">
        <ele>380.3</ele>
        <time>2021-05-31T10:16:30.000Z</time>
      </trkpt>
      <trkpt lat="44.153" lon="5.13063">
        <ele>379.8</ele>
        <time>2021-05-31T10:16:33.000Z</time>
      </trkpt>
      <trkpt lat="44.15276" lon="5.13088">
        <ele>379.4</ele>
        <time>2021-05-31T10:16:35.000Z</time>
      </trkpt>
      <trkpt lat="44.15253" lon="5.13114">
        <ele>379</ele>
        <time>2021-05-31T10:16:38.000Z</time>
      </trkpt>
      <trkpt lat="44.1523" lon="5.13138">
        <ele>378.4</ele>
        <time>2021-05-31T10:16:41.000Z</time>
      </trkpt>
      <trkpt lat="44.15208" lon="5.13163">
        <ele>377.7</ele>
        <time>2021-05-31T10:16:43.000Z</time>
      </trkpt>
      <trkpt lat="44.15185" lon="5.13187">
        <ele>377.1</ele>
        <time>2021-05-31T10:16:46.000Z</time>
      </trkpt>
      <trkpt lat="44.15164" lon="5.1322">
        <ele>377.2</ele>
        <time>2021-05-31T10:16:49.000Z</time>
      </trkpt>
      <trkpt lat="44.15142" lon="5.13253">
        <ele>377.4</ele>
        <time>2021-05-31T10:16:52.000Z</time>
      </trkpt>
      <trkpt lat="44.15128" lon="5.13275">
        <ele>378.3</ele>
        <time>2021-05-31T10:16:55.000Z</time>
      </trkpt>
      <trkpt lat="44.15114" lon="5.13296">
        <ele>379.3</ele>
        <time>2021-05-31T10:16:58.000Z</time>
      </trkpt>
      <trkpt lat="44.151" lon="5.13318">
        <ele>380.3</ele>
        <time>2021-05-31T10:17:01.000Z</time>
      </trkpt>
      <trkpt lat="44.15085" lon="5.1334">
        <ele>381.4</ele>
        <time>2021-05-31T10:17:05.000Z</time>
      </trkpt>
      <trkpt lat="44.15071" lon="5.13362">
        <ele>382.6</ele>
        <time>2021-05-31T10:17:08.000Z</time>
      </trkpt>
      <trkpt lat="44.15057" lon="5.13384">
        <ele>383.6</ele>
        <time>2021-05-31T10:17:11.000Z</time>
      </trkpt>
      <trkpt lat="44.15043" lon="5.13399">
        <ele>384.3</ele>
        <time>2021-05-31T10:17:14.000Z</time>
      </trkpt>
      <trkpt lat="44.15025" lon="5.13404">
        <ele>385.8</ele>
        <time>2021-05-31T10:17:18.000Z</time>
      </trkpt>
      <trkpt lat="44.15008" lon="5.13404">
        <ele>387.3</ele>
        <time>2021-05-31T10:17:21.000Z</time>
      </trkpt>
      <trkpt lat="44.15003" lon="5.13401">
        <ele>387.6</ele>
        <time>2021-05-31T10:17:22.000Z</time>
      </trkpt>
      <trkpt lat="44.14999" lon="5.13395">
        <ele>388.1</ele>
        <time>2021-05-31T10:17:23.000Z</time>
      </trkpt>
      <trkpt lat="44.14996" lon="5.13369">
        <ele>389.4</ele>
        <time>2021-05-31T10:17:27.000Z</time>
      </trkpt>
      <trkpt lat="44.14998" lon="5.13342">
        <ele>390.7</ele>
        <time>2021-05-31T10:17:30.000Z</time>
      </trkpt>
      <trkpt lat="44.15" lon="5.13314">
        <ele>392</ele>
        <time>2021-05-31T10:17:34.000Z</time>
      </trkpt>
      <trkpt lat="44.14998" lon="5.13284">
        <ele>393</ele>
        <time>2021-05-31T10:17:37.000Z</time>
      </trkpt>
      <trkpt lat="44.14997" lon="5.13254">
        <ele>393.9</ele>
        <time>2021-05-31T10:17:40.000Z</time>
      </trkpt>
      <trkpt lat="44.14995" lon="5.13224">
        <ele>394.9</ele>
        <time>2021-05-31T10:17:43.000Z</time>
      </trkpt>
      <trkpt lat="44.14993" lon="5.13195">
        <ele>396.2</ele>
        <time>2021-05-31T10:17:47.000Z</time>
      </trkpt>
      <trkpt lat="44.14992" lon="5.13165">
        <ele>397.5</ele>
        <time>2021-05-31T10:17:50.000Z</time>
      </trkpt>
      <trkpt lat="44.1499" lon="5.13135">
        <ele>398.8</ele>
        <time>2021-05-31T10:17:54.000Z</time>
      </trkpt>
      <trkpt lat="44.14986" lon="5.13114">
        <ele>399.7</ele>
        <time>2021-05-31T10:17:57.000Z</time>
      </trkpt>
      <trkpt lat="44.14979" lon="5.13098">
        <ele>401.5</ele>
        <time>2021-05-31T10:18:01.000Z</time>
      </trkpt>
      <trkpt lat="44.14964" lon="5.13072">
        <ele>402.7</ele>
        <time>2021-05-31T10:18:04.000Z</time>
      </trkpt>
      <trkpt lat="44.14948" lon="5.13045">
        <ele>403.5</ele>
        <time>2021-05-31T10:18:07.000Z</time>
      </trkpt>
      <trkpt lat="44.14933" lon="5.13019">
        <ele>404.5</ele>
        <time>2021-05-31T10:18:11.000Z</time>
      </trkpt>
      <trkpt lat="44.14919" lon="5.12999">
        <ele>405.9</ele>
        <time>2021-05-31T10:18:14.000Z</time>
      </trkpt>
      <trkpt lat="44.14898" lon="5.12978">
        <ele>407.2</ele>
        <time>2021-05-31T10:18:18.000Z</time>
      </trkpt>
      <trkpt lat="44.14883" lon="5.12966">
        <ele>408.6</ele>
        <time>2021-05-31T10:18:22.000Z</time>
      </trkpt>
      <trkpt lat="44.14867" lon="5.12953">
        <ele>410</ele>
        <time>2021-05-31T10:18:25.000Z</time>
      </trkpt>
      <trkpt lat="44.14852" lon="5.12941">
        <ele>411.4</ele>
        <time>2021-05-31T10:18:29.000Z</time>
      </trkpt>
      <trkpt lat="44.14832" lon="5.12931">
        <ele>412.4</ele>
        <time>2021-05-31T10:18:32.000Z</time>
      </trkpt>
      <trkpt lat="44.14814" lon="5.12924">
        <ele>413.4</ele>
        <time>2021-05-31T10:18:35.000Z</time>
      </trkpt>
      <trkpt lat="44.14795" lon="5.12918">
        <ele>414.5</ele>
        <time>2021-05-31T10:18:38.000Z</time>
      </trkpt>
      <trkpt lat="44.14777" lon="5.12914">
        <ele>416.1</ele>
        <time>2021-05-31T10:18:42.000Z</time>
      </trkpt>
      <trkpt lat="44.1476" lon="5.12914">
        <ele>416.8</ele>
        <time>2021-05-31T10:18:44.000Z</time>
      </trkpt>
      <trkpt lat="44.14745" lon="5.12918">
        <ele>417.2</ele>
        <time>2021-05-31T10:18:46.000Z</time>
      </trkpt>
      <trkpt lat="44.14732" lon="5.12926">
        <ele>417.7</ele>
        <time>2021-05-31T10:18:48.000Z</time>
      </trkpt>
      <trkpt lat="44.14717" lon="5.12941">
        <ele>418.4</ele>
        <time>2021-05-31T10:18:51.000Z</time>
      </trkpt>
      <trkpt lat="44.14703" lon="5.12963">
        <ele>419.2</ele>
        <time>2021-05-31T10:18:54.000Z</time>
      </trkpt>
      <trkpt lat="44.14691" lon="5.12994">
        <ele>420.3</ele>
        <time>2021-05-31T10:18:57.000Z</time>
      </trkpt>
      <trkpt lat="44.1468" lon="5.13026">
        <ele>421.4</ele>
        <time>2021-05-31T10:19:01.000Z</time>
      </trkpt>
      <trkpt lat="44.14668" lon="5.13057">
        <ele>422.5</ele>
        <time>2021-05-31T10:19:04.000Z</time>
      </trkpt>
      <trkpt lat="44.14653" lon="5.13087">
        <ele>423</ele>
        <time>2021-05-31T10:19:07.000Z</time>
      </trkpt>
      <trkpt lat="44.14635" lon="5.13114">
        <ele>423.4</ele>
        <time>2021-05-31T10:19:10.000Z</time>
      </trkpt>
      <trkpt lat="44.14617" lon="5.13142">
        <ele>423.9</ele>
        <time>2021-05-31T10:19:13.000Z</time>
      </trkpt>
      <trkpt lat="44.14599" lon="5.13169">
        <ele>424.4</ele>
        <time>2021-05-31T10:19:16.000Z</time>
      </trkpt>
      <trkpt lat="44.14591" lon="5.13189">
        <ele>425</ele>
        <time>2021-05-31T10:19:19.000Z</time>
      </trkpt>
      <trkpt lat="44.14584" lon="5.13216">
        <ele>425.4</ele>
        <time>2021-05-31T10:19:21.000Z</time>
      </trkpt>
      <trkpt lat="44.14581" lon="5.13245">
        <ele>426.2</ele>
        <time>2021-05-31T10:19:24.000Z</time>
      </trkpt>
      <trkpt lat="44.14577" lon="5.13273">
        <ele>427.2</ele>
        <time>2021-05-31T10:19:27.000Z</time>
      </trkpt>
      <trkpt lat="44.14578" lon="5.13309">
        <ele>428.3</ele>
        <time>2021-05-31T10:19:31.000Z</time>
      </trkpt>
      <trkpt lat="44.14578" lon="5.13345">
        <ele>429.5</ele>
        <time>2021-05-31T10:19:34.000Z</time>
      </trkpt>
      <trkpt lat="44.14571" lon="5.13361">
        <ele>430.2</ele>
        <time>2021-05-31T10:19:37.000Z</time>
      </trkpt>
      <trkpt lat="44.14565" lon="5.13364">
        <ele>430.8</ele>
        <time>2021-05-31T10:19:38.000Z</time>
      </trkpt>
      <trkpt lat="44.14558" lon="5.13364">
        <ele>431.4</ele>
        <time>2021-05-31T10:19:39.000Z</time>
      </trkpt>
      <trkpt lat="44.1453" lon="5.13355">
        <ele>432</ele>
        <time>2021-05-31T10:19:43.000Z</time>
      </trkpt>
      <trkpt lat="44.14501" lon="5.13347">
        <ele>432.6</ele>
        <time>2021-05-31T10:19:46.000Z</time>
      </trkpt>
      <trkpt lat="44.14484" lon="5.13347">
        <ele>434</ele>
        <time>2021-05-31T10:19:50.000Z</time>
      </trkpt>
      <trkpt lat="44.14457" lon="5.13351">
        <ele>434.7</ele>
        <time>2021-05-31T10:19:53.000Z</time>
      </trkpt>
      <trkpt lat="44.14429" lon="5.13355">
        <ele>435.2</ele>
        <time>2021-05-31T10:19:56.000Z</time>
      </trkpt>
      <trkpt lat="44.14406" lon="5.1335">
        <ele>435.8</ele>
        <time>2021-05-31T10:19:59.000Z</time>
      </trkpt>
      <trkpt lat="44.14391" lon="5.13339">
        <ele>436.8</ele>
        <time>2021-05-31T10:20:02.000Z</time>
      </trkpt>
      <trkpt lat="44.14375" lon="5.13329">
        <ele>437.7</ele>
        <time>2021-05-31T10:20:04.000Z</time>
      </trkpt>
      <trkpt lat="44.14358" lon="5.13299">
        <ele>438.4</ele>
        <time>2021-05-31T10:20:08.000Z</time>
      </trkpt>
      <trkpt lat="44.14345" lon="5.13266">
        <ele>440.4</ele>
        <time>2021-05-31T10:20:13.000Z</time>
      </trkpt>
      <trkpt lat="44.14335" lon="5.13248">
        <ele>441.5</ele>
        <time>2021-05-31T10:20:16.000Z</time>
      </trkpt>
      <trkpt lat="44.14325" lon="5.13239">
        <ele>442</ele>
        <time>2021-05-31T10:20:18.000Z</time>
      </trkpt>
      <trkpt lat="44.14297" lon="5.13229">
        <ele>443.2</ele>
        <time>2021-05-31T10:20:22.000Z</time>
      </trkpt>
      <trkpt lat="44.14285" lon="5.13218">
        <ele>444.4</ele>
        <time>2021-05-31T10:20:25.000Z</time>
      </trkpt>
      <trkpt lat="44.14269" lon="5.1319">
        <ele>445.6</ele>
        <time>2021-05-31T10:20:28.000Z</time>
      </trkpt>
      <trkpt lat="44.14253" lon="5.13161">
        <ele>446.7</ele>
        <time>2021-05-31T10:20:32.000Z</time>
      </trkpt>
      <trkpt lat="44.14237" lon="5.13133">
        <ele>447.8</ele>
        <time>2021-05-31T10:20:36.000Z</time>
      </trkpt>
      <trkpt lat="44.14218" lon="5.13108">
        <ele>448.9</ele>
        <time>2021-05-31T10:20:39.000Z</time>
      </trkpt>
      <trkpt lat="44.14198" lon="5.13091">
        <ele>450.6</ele>
        <time>2021-05-31T10:20:44.000Z</time>
      </trkpt>
      <trkpt lat="44.1417" lon="5.1306">
        <ele>451.8</ele>
        <time>2021-05-31T10:20:48.000Z</time>
      </trkpt>
      <trkpt lat="44.14151" lon="5.13029">
        <ele>453.4</ele>
        <time>2021-05-31T10:20:53.000Z</time>
      </trkpt>
      <trkpt lat="44.14139" lon="5.13">
        <ele>454.4</ele>
        <time>2021-05-31T10:20:57.000Z</time>
      </trkpt>
      <trkpt lat="44.14139" lon="5.12959">
        <ele>455.9</ele>
        <time>2021-05-31T10:21:01.000Z</time>
      </trkpt>
      <trkpt lat="44.14133" lon="5.12947">
        <ele>456.1</ele>
        <time>2021-05-31T10:21:02.000Z</time>
      </trkpt>
      <trkpt lat="44.14129" lon="5.12943">
        <ele>456.1</ele>
        <time>2021-05-31T10:21:03.000Z</time>
      </trkpt>
      <trkpt lat="44.14122" lon="5.12941">
        <ele>456.1</ele>
        <time>2021-05-31T10:21:04.000Z</time>
      </trkpt>
      <trkpt lat="44.14114" lon="5.12945">
        <ele>456</ele>
        <time>2021-05-31T10:21:04.000Z</time>
      </trkpt>
      <trkpt lat="44.14103" lon="5.12961">
        <ele>455.6</ele>
        <time>2021-05-31T10:21:06.000Z</time>
      </trkpt>
      <trkpt lat="44.14099" lon="5.12971">
        <ele>455.1</ele>
        <time>2021-05-31T10:21:06.000Z</time>
      </trkpt>
      <trkpt lat="44.14099" lon="5.1299">
        <ele>454.5</ele>
        <time>2021-05-31T10:21:07.000Z</time>
      </trkpt>
      <trkpt lat="44.14107" lon="5.13028">
        <ele>454.1</ele>
        <time>2021-05-31T10:21:10.000Z</time>
      </trkpt>
      <trkpt lat="44.14109" lon="5.13049">
        <ele>453.7</ele>
        <time>2021-05-31T10:21:11.000Z</time>
      </trkpt>
      <trkpt lat="44.14108" lon="5.13074">
        <ele>452.7</ele>
        <time>2021-05-31T10:21:13.000Z</time>
      </trkpt>
      <trkpt lat="44.14102" lon="5.13116">
        <ele>451.5</ele>
        <time>2021-05-31T10:21:15.000Z</time>
      </trkpt>
      <trkpt lat="44.14096" lon="5.13157">
        <ele>450.3</ele>
        <time>2021-05-31T10:21:17.000Z</time>
      </trkpt>
      <trkpt lat="44.14086" lon="5.13191">
        <ele>449.3</ele>
        <time>2021-05-31T10:21:19.000Z</time>
      </trkpt>
      <trkpt lat="44.14075" lon="5.13216">
        <ele>448.4</ele>
        <time>2021-05-31T10:21:21.000Z</time>
      </trkpt>
      <trkpt lat="44.14058" lon="5.13245">
        <ele>447.6</ele>
        <time>2021-05-31T10:21:23.000Z</time>
      </trkpt>
      <trkpt lat="44.14055" lon="5.13263">
        <ele>446.9</ele>
        <time>2021-05-31T10:21:24.000Z</time>
      </trkpt>
      <trkpt lat="44.14057" lon="5.13272">
        <ele>446.2</ele>
        <time>2021-05-31T10:21:25.000Z</time>
      </trkpt>
      <trkpt lat="44.14073" lon="5.13298">
        <ele>445.4</ele>
        <time>2021-05-31T10:21:27.000Z</time>
      </trkpt>
      <trkpt lat="44.14089" lon="5.13325">
        <ele>444.6</ele>
        <time>2021-05-31T10:21:29.000Z</time>
      </trkpt>
      <trkpt lat="44.14096" lon="5.13342">
        <ele>443.3</ele>
        <time>2021-05-31T10:21:30.000Z</time>
      </trkpt>
      <trkpt lat="44.14099" lon="5.13365">
        <ele>442.4</ele>
        <time>2021-05-31T10:21:31.000Z</time>
      </trkpt>
      <trkpt lat="44.14097" lon="5.13383">
        <ele>441.7</ele>
        <time>2021-05-31T10:21:32.000Z</time>
      </trkpt>
      <trkpt lat="44.14088" lon="5.13412">
        <ele>440.8</ele>
        <time>2021-05-31T10:21:34.000Z</time>
      </trkpt>
      <trkpt lat="44.14078" lon="5.1344">
        <ele>439.9</ele>
        <time>2021-05-31T10:21:36.000Z</time>
      </trkpt>
      <trkpt lat="44.14076" lon="5.13458">
        <ele>439.2</ele>
        <time>2021-05-31T10:21:37.000Z</time>
      </trkpt>
      <trkpt lat="44.14081" lon="5.13493">
        <ele>438.4</ele>
        <time>2021-05-31T10:21:39.000Z</time>
      </trkpt>
      <trkpt lat="44.1409" lon="5.13515">
        <ele>437.4</ele>
        <time>2021-05-31T10:21:40.000Z</time>
      </trkpt>
      <trkpt lat="44.14094" lon="5.13524">
        <ele>437.1</ele>
        <time>2021-05-31T10:21:41.000Z</time>
      </trkpt>
      <trkpt lat="44.14112" lon="5.13549">
        <ele>436</ele>
        <time>2021-05-31T10:21:43.000Z</time>
      </trkpt>
      <trkpt lat="44.14138" lon="5.13579">
        <ele>435.2</ele>
        <time>2021-05-31T10:21:45.000Z</time>
      </trkpt>
      <trkpt lat="44.14167" lon="5.13602">
        <ele>434.9</ele>
        <time>2021-05-31T10:21:49.000Z</time>
      </trkpt>
      <trkpt lat="44.14206" lon="5.13612">
        <ele>434.7</ele>
        <time>2021-05-31T10:21:52.000Z</time>
      </trkpt>
      <trkpt lat="44.14215" lon="5.13617">
        <ele>434.7</ele>
        <time>2021-05-31T10:21:53.000Z</time>
      </trkpt>
      <trkpt lat="44.14218" lon="5.13633">
        <ele>434.7</ele>
        <time>2021-05-31T10:21:55.000Z</time>
      </trkpt>
      <trkpt lat="44.14217" lon="5.13643">
        <ele>434.7</ele>
        <time>2021-05-31T10:21:55.000Z</time>
      </trkpt>
      <trkpt lat="44.14195" lon="5.13686">
        <ele>434.6</ele>
        <time>2021-05-31T10:21:59.000Z</time>
      </trkpt>
      <trkpt lat="44.14176" lon="5.13721">
        <ele>434.4</ele>
        <time>2021-05-31T10:22:02.000Z</time>
      </trkpt>
      <trkpt lat="44.14157" lon="5.13756">
        <ele>434.2</ele>
        <time>2021-05-31T10:22:05.000Z</time>
      </trkpt>
      <trkpt lat="44.14147" lon="5.13782">
        <ele>434.1</ele>
        <time>2021-05-31T10:22:07.000Z</time>
      </trkpt>
      <trkpt lat="44.14141" lon="5.13806">
        <ele>434</ele>
        <time>2021-05-31T10:22:09.000Z</time>
      </trkpt>
      <trkpt lat="44.14141" lon="5.13823">
        <ele>433.9</ele>
        <time>2021-05-31T10:22:10.000Z</time>
      </trkpt>
      <trkpt lat="44.1415" lon="5.13846">
        <ele>433.5</ele>
        <time>2021-05-31T10:22:11.000Z</time>
      </trkpt>
      <trkpt lat="44.14158" lon="5.13853">
        <ele>433.2</ele>
        <time>2021-05-31T10:22:12.000Z</time>
      </trkpt>
      <trkpt lat="44.14167" lon="5.13855">
        <ele>432.8</ele>
        <time>2021-05-31T10:22:13.000Z</time>
      </trkpt>
      <trkpt lat="44.14177" lon="5.13853">
        <ele>432.4</ele>
        <time>2021-05-31T10:22:14.000Z</time>
      </trkpt>
      <trkpt lat="44.14203" lon="5.13843">
        <ele>431</ele>
        <time>2021-05-31T10:22:16.000Z</time>
      </trkpt>
      <trkpt lat="44.14216" lon="5.1384">
        <ele>429.6</ele>
        <time>2021-05-31T10:22:17.000Z</time>
      </trkpt>
      <trkpt lat="44.14224" lon="5.13842">
        <ele>429.2</ele>
        <time>2021-05-31T10:22:17.000Z</time>
      </trkpt>
      <trkpt lat="44.14231" lon="5.13846">
        <ele>428.9</ele>
        <time>2021-05-31T10:22:18.000Z</time>
      </trkpt>
      <trkpt lat="44.14237" lon="5.13852">
        <ele>428.4</ele>
        <time>2021-05-31T10:22:18.000Z</time>
      </trkpt>
      <trkpt lat="44.14242" lon="5.13862">
        <ele>427.6</ele>
        <time>2021-05-31T10:22:19.000Z</time>
      </trkpt>
      <trkpt lat="44.14259" lon="5.13912">
        <ele>426.1</ele>
        <time>2021-05-31T10:22:22.000Z</time>
      </trkpt>
      <trkpt lat="44.14274" lon="5.13928">
        <ele>425.5</ele>
        <time>2021-05-31T10:22:24.000Z</time>
      </trkpt>
      <trkpt lat="44.14285" lon="5.13934">
        <ele>424.9</ele>
        <time>2021-05-31T10:22:25.000Z</time>
      </trkpt>
      <trkpt lat="44.1429" lon="5.1394">
        <ele>424.7</ele>
        <time>2021-05-31T10:22:25.000Z</time>
      </trkpt>
      <trkpt lat="44.14292" lon="5.13946">
        <ele>424.5</ele>
        <time>2021-05-31T10:22:26.000Z</time>
      </trkpt>
      <trkpt lat="44.14291" lon="5.13954">
        <ele>424.2</ele>
        <time>2021-05-31T10:22:26.000Z</time>
      </trkpt>
      <trkpt lat="44.14263" lon="5.14003">
        <ele>420.8</ele>
        <time>2021-05-31T10:22:29.000Z</time>
      </trkpt>
      <trkpt lat="44.14253" lon="5.14038">
        <ele>419</ele>
        <time>2021-05-31T10:22:31.000Z</time>
      </trkpt>
      <trkpt lat="44.14252" lon="5.14054">
        <ele>418.2</ele>
        <time>2021-05-31T10:22:32.000Z</time>
      </trkpt>
      <trkpt lat="44.14254" lon="5.14069">
        <ele>417.7</ele>
        <time>2021-05-31T10:22:33.000Z</time>
      </trkpt>
      <trkpt lat="44.14259" lon="5.14085">
        <ele>417.1</ele>
        <time>2021-05-31T10:22:34.000Z</time>
      </trkpt>
      <trkpt lat="44.14266" lon="5.14095">
        <ele>416.8</ele>
        <time>2021-05-31T10:22:35.000Z</time>
      </trkpt>
      <trkpt lat="44.14288" lon="5.14113">
        <ele>416.3</ele>
        <time>2021-05-31T10:22:37.000Z</time>
      </trkpt>
      <trkpt lat="44.14291" lon="5.14126">
        <ele>416.2</ele>
        <time>2021-05-31T10:22:38.000Z</time>
      </trkpt>
      <trkpt lat="44.14287" lon="5.1414">
        <ele>416</ele>
        <time>2021-05-31T10:22:39.000Z</time>
      </trkpt>
      <trkpt lat="44.14277" lon="5.14148">
        <ele>415.9</ele>
        <time>2021-05-31T10:22:40.000Z</time>
      </trkpt>
      <trkpt lat="44.14258" lon="5.14147">
        <ele>416.4</ele>
        <time>2021-05-31T10:22:42.000Z</time>
      </trkpt>
      <trkpt lat="44.14238" lon="5.14146">
        <ele>416.8</ele>
        <time>2021-05-31T10:22:44.000Z</time>
      </trkpt>
      <trkpt lat="44.14232" lon="5.14149">
        <ele>416.9</ele>
        <time>2021-05-31T10:22:45.000Z</time>
      </trkpt>
      <trkpt lat="44.14226" lon="5.14157">
        <ele>417</ele>
        <time>2021-05-31T10:22:46.000Z</time>
      </trkpt>
      <trkpt lat="44.14217" lon="5.14188">
        <ele>417.3</ele>
        <time>2021-05-31T10:22:49.000Z</time>
      </trkpt>
      <trkpt lat="44.14212" lon="5.14196">
        <ele>417.9</ele>
        <time>2021-05-31T10:22:50.000Z</time>
      </trkpt>
      <trkpt lat="44.14203" lon="5.14202">
        <ele>418.3</ele>
        <time>2021-05-31T10:22:51.000Z</time>
      </trkpt>
      <trkpt lat="44.14195" lon="5.14204">
        <ele>418.5</ele>
        <time>2021-05-31T10:22:52.000Z</time>
      </trkpt>
      <trkpt lat="44.14175" lon="5.142">
        <ele>418.6</ele>
        <time>2021-05-31T10:22:55.000Z</time>
      </trkpt>
      <trkpt lat="44.14154" lon="5.14197">
        <ele>418.8</ele>
        <time>2021-05-31T10:22:57.000Z</time>
      </trkpt>
      <trkpt lat="44.14136" lon="5.14198">
        <ele>419.2</ele>
        <time>2021-05-31T10:22:59.000Z</time>
      </trkpt>
      <trkpt lat="44.1412" lon="5.14208">
        <ele>420</ele>
        <time>2021-05-31T10:23:01.000Z</time>
      </trkpt>
      <trkpt lat="44.14104" lon="5.14218">
        <ele>420.9</ele>
        <time>2021-05-31T10:23:04.000Z</time>
      </trkpt>
      <trkpt lat="44.14089" lon="5.14222">
        <ele>421.3</ele>
        <time>2021-05-31T10:23:06.000Z</time>
      </trkpt>
      <trkpt lat="44.14083" lon="5.14221">
        <ele>421.4</ele>
        <time>2021-05-31T10:23:07.000Z</time>
      </trkpt>
      <trkpt lat="44.14064" lon="5.14197">
        <ele>421.9</ele>
        <time>2021-05-31T10:23:09.000Z</time>
      </trkpt>
      <trkpt lat="44.14051" lon="5.14186">
        <ele>422.2</ele>
        <time>2021-05-31T10:23:11.000Z</time>
      </trkpt>
      <trkpt lat="44.1403" lon="5.14181">
        <ele>422.7</ele>
        <time>2021-05-31T10:23:14.000Z</time>
      </trkpt>
      <trkpt lat="44.14009" lon="5.14177">
        <ele>423.2</ele>
        <time>2021-05-31T10:23:16.000Z</time>
      </trkpt>
      <trkpt lat="44.13988" lon="5.14172">
        <ele>423.8</ele>
        <time>2021-05-31T10:23:19.000Z</time>
      </trkpt>
      <trkpt lat="44.1398" lon="5.14164">
        <ele>424.6</ele>
        <time>2021-05-31T10:23:21.000Z</time>
      </trkpt>
      <trkpt lat="44.13969" lon="5.14148">
        <ele>425.2</ele>
        <time>2021-05-31T10:23:23.000Z</time>
      </trkpt>
      <trkpt lat="44.13958" lon="5.14138">
        <ele>425.7</ele>
        <time>2021-05-31T10:23:25.000Z</time>
      </trkpt>
      <trkpt lat="44.13939" lon="5.14129">
        <ele>426.7</ele>
        <time>2021-05-31T10:23:28.000Z</time>
      </trkpt>
      <trkpt lat="44.13915" lon="5.14122">
        <ele>427.3</ele>
        <time>2021-05-31T10:23:31.000Z</time>
      </trkpt>
      <trkpt lat="44.13891" lon="5.14115">
        <ele>427.9</ele>
        <time>2021-05-31T10:23:34.000Z</time>
      </trkpt>
      <trkpt lat="44.13871" lon="5.14115">
        <ele>428.1</ele>
        <time>2021-05-31T10:23:36.000Z</time>
      </trkpt>
      <trkpt lat="44.13859" lon="5.14118">
        <ele>428.3</ele>
        <time>2021-05-31T10:23:37.000Z</time>
      </trkpt>
      <trkpt lat="44.13833" lon="5.14141">
        <ele>428.9</ele>
        <time>2021-05-31T10:23:41.000Z</time>
      </trkpt>
      <trkpt lat="44.13819" lon="5.14184">
        <ele>429.2</ele>
        <time>2021-05-31T10:23:44.000Z</time>
      </trkpt>
      <trkpt lat="44.13812" lon="5.14216">
        <ele>429.2</ele>
        <time>2021-05-31T10:23:47.000Z</time>
      </trkpt>
      <trkpt lat="44.13805" lon="5.14248">
        <ele>429.1</ele>
        <time>2021-05-31T10:23:49.000Z</time>
      </trkpt>
      <trkpt lat="44.13798" lon="5.14281">
        <ele>429</ele>
        <time>2021-05-31T10:23:51.000Z</time>
      </trkpt>
      <trkpt lat="44.1379" lon="5.14313">
        <ele>429.1</ele>
        <time>2021-05-31T10:23:54.000Z</time>
      </trkpt>
      <trkpt lat="44.13783" lon="5.14345">
        <ele>429.2</ele>
        <time>2021-05-31T10:23:56.000Z</time>
      </trkpt>
      <trkpt lat="44.13776" lon="5.14377">
        <ele>429.4</ele>
        <time>2021-05-31T10:23:59.000Z</time>
      </trkpt>
      <trkpt lat="44.13771" lon="5.14397">
        <ele>429.7</ele>
        <time>2021-05-31T10:24:01.000Z</time>
      </trkpt>
      <trkpt lat="44.13765" lon="5.14409">
        <ele>430</ele>
        <time>2021-05-31T10:24:02.000Z</time>
      </trkpt>
      <trkpt lat="44.13746" lon="5.14424">
        <ele>430.7</ele>
        <time>2021-05-31T10:24:05.000Z</time>
      </trkpt>
      <trkpt lat="44.13724" lon="5.1443">
        <ele>431.1</ele>
        <time>2021-05-31T10:24:07.000Z</time>
      </trkpt>
      <trkpt lat="44.13701" lon="5.14436">
        <ele>431.4</ele>
        <time>2021-05-31T10:24:10.000Z</time>
      </trkpt>
      <trkpt lat="44.13679" lon="5.14441">
        <ele>431.8</ele>
        <time>2021-05-31T10:24:12.000Z</time>
      </trkpt>
      <trkpt lat="44.13657" lon="5.14447">
        <ele>432.2</ele>
        <time>2021-05-31T10:24:15.000Z</time>
      </trkpt>
      <trkpt lat="44.1364" lon="5.14454">
        <ele>432.6</ele>
        <time>2021-05-31T10:24:17.000Z</time>
      </trkpt>
      <trkpt lat="44.13611" lon="5.14471">
        <ele>432.9</ele>
        <time>2021-05-31T10:24:20.000Z</time>
      </trkpt>
      <trkpt lat="44.13583" lon="5.14489">
        <ele>433.2</ele>
        <time>2021-05-31T10:24:24.000Z</time>
      </trkpt>
      <trkpt lat="44.13554" lon="5.14506">
        <ele>433.1</ele>
        <time>2021-05-31T10:24:27.000Z</time>
      </trkpt>
      <trkpt lat="44.13525" lon="5.14523">
        <ele>432.9</ele>
        <time>2021-05-31T10:24:30.000Z</time>
      </trkpt>
      <trkpt lat="44.13517" lon="5.14529">
        <ele>432.8</ele>
        <time>2021-05-31T10:24:30.000Z</time>
      </trkpt>
      <trkpt lat="44.13505" lon="5.14545">
        <ele>432.5</ele>
        <time>2021-05-31T10:24:32.000Z</time>
      </trkpt>
      <trkpt lat="44.13498" lon="5.1456">
        <ele>432</ele>
        <time>2021-05-31T10:24:33.000Z</time>
      </trkpt>
      <trkpt lat="44.13489" lon="5.1461">
        <ele>431.3</ele>
        <time>2021-05-31T10:24:36.000Z</time>
      </trkpt>
      <trkpt lat="44.13492" lon="5.14628">
        <ele>430.7</ele>
        <time>2021-05-31T10:24:37.000Z</time>
      </trkpt>
      <trkpt lat="44.13502" lon="5.14638">
        <ele>430.1</ele>
        <time>2021-05-31T10:24:38.000Z</time>
      </trkpt>
      <trkpt lat="44.13508" lon="5.1464">
        <ele>429.6</ele>
        <time>2021-05-31T10:24:39.000Z</time>
      </trkpt>
      <trkpt lat="44.13528" lon="5.14642">
        <ele>428.8</ele>
        <time>2021-05-31T10:24:40.000Z</time>
      </trkpt>
      <trkpt lat="44.1356" lon="5.14643">
        <ele>426.8</ele>
        <time>2021-05-31T10:24:42.000Z</time>
      </trkpt>
      <trkpt lat="44.13569" lon="5.14646">
        <ele>426</ele>
        <time>2021-05-31T10:24:43.000Z</time>
      </trkpt>
      <trkpt lat="44.13592" lon="5.14661">
        <ele>424.1</ele>
        <time>2021-05-31T10:24:45.000Z</time>
      </trkpt>
      <trkpt lat="44.13615" lon="5.14677">
        <ele>422.4</ele>
        <time>2021-05-31T10:24:47.000Z</time>
      </trkpt>
      <trkpt lat="44.13639" lon="5.14678">
        <ele>421</ele>
        <time>2021-05-31T10:24:48.000Z</time>
      </trkpt>
      <trkpt lat="44.13662" lon="5.14679">
        <ele>419.6</ele>
        <time>2021-05-31T10:24:50.000Z</time>
      </trkpt>
      <trkpt lat="44.13669" lon="5.14681">
        <ele>419.1</ele>
        <time>2021-05-31T10:24:51.000Z</time>
      </trkpt>
      <trkpt lat="44.13681" lon="5.14694">
        <ele>418.2</ele>
        <time>2021-05-31T10:24:52.000Z</time>
      </trkpt>
      <trkpt lat="44.13695" lon="5.14735">
        <ele>415.8</ele>
        <time>2021-05-31T10:24:54.000Z</time>
      </trkpt>
      <trkpt lat="44.13708" lon="5.14777">
        <ele>413.5</ele>
        <time>2021-05-31T10:24:56.000Z</time>
      </trkpt>
      <trkpt lat="44.13722" lon="5.14807">
        <ele>412.3</ele>
        <time>2021-05-31T10:24:58.000Z</time>
      </trkpt>
      <trkpt lat="44.13754" lon="5.14854">
        <ele>407.9</ele>
        <time>2021-05-31T10:25:02.000Z</time>
      </trkpt>
      <trkpt lat="44.13781" lon="5.14886">
        <ele>405</ele>
        <time>2021-05-31T10:25:04.000Z</time>
      </trkpt>
      <trkpt lat="44.13805" lon="5.14909">
        <ele>403.1</ele>
        <time>2021-05-31T10:25:06.000Z</time>
      </trkpt>
      <trkpt lat="44.13829" lon="5.14933">
        <ele>401.2</ele>
        <time>2021-05-31T10:25:08.000Z</time>
      </trkpt>
      <trkpt lat="44.13853" lon="5.14956">
        <ele>399.3</ele>
        <time>2021-05-31T10:25:10.000Z</time>
      </trkpt>
      <trkpt lat="44.13872" lon="5.14983">
        <ele>396.8</ele>
        <time>2021-05-31T10:25:12.000Z</time>
      </trkpt>
      <trkpt lat="44.1389" lon="5.15014">
        <ele>395.7</ele>
        <time>2021-05-31T10:25:15.000Z</time>
      </trkpt>
      <trkpt lat="44.13909" lon="5.15045">
        <ele>394.7</ele>
        <time>2021-05-31T10:25:17.000Z</time>
      </trkpt>
      <trkpt lat="44.13927" lon="5.15076">
        <ele>393.7</ele>
        <time>2021-05-31T10:25:19.000Z</time>
      </trkpt>
      <trkpt lat="44.13945" lon="5.15107">
        <ele>391.9</ele>
        <time>2021-05-31T10:25:21.000Z</time>
      </trkpt>
      <trkpt lat="44.13964" lon="5.15138">
        <ele>390</ele>
        <time>2021-05-31T10:25:23.000Z</time>
      </trkpt>
      <trkpt lat="44.13982" lon="5.15169">
        <ele>388.2</ele>
        <time>2021-05-31T10:25:26.000Z</time>
      </trkpt>
      <trkpt lat="44.14005" lon="5.15194">
        <ele>387.3</ele>
        <time>2021-05-31T10:25:28.000Z</time>
      </trkpt>
      <trkpt lat="44.14033" lon="5.15215">
        <ele>385.8</ele>
        <time>2021-05-31T10:25:30.000Z</time>
      </trkpt>
      <trkpt lat="44.1406" lon="5.15237">
        <ele>384.3</ele>
        <time>2021-05-31T10:25:33.000Z</time>
      </trkpt>
      <trkpt lat="44.14071" lon="5.15251">
        <ele>383.7</ele>
        <time>2021-05-31T10:25:34.000Z</time>
      </trkpt>
      <trkpt lat="44.14076" lon="5.15262">
        <ele>383</ele>
        <time>2021-05-31T10:25:35.000Z</time>
      </trkpt>
      <trkpt lat="44.14086" lon="5.15304">
        <ele>380.9</ele>
        <time>2021-05-31T10:25:37.000Z</time>
      </trkpt>
      <trkpt lat="44.14086" lon="5.15327">
        <ele>380.1</ele>
        <time>2021-05-31T10:25:38.000Z</time>
      </trkpt>
      <trkpt lat="44.14069" lon="5.15385">
        <ele>377.4</ele>
        <time>2021-05-31T10:25:41.000Z</time>
      </trkpt>
      <trkpt lat="44.14067" lon="5.15396">
        <ele>376.4</ele>
        <time>2021-05-31T10:25:42.000Z</time>
      </trkpt>
      <trkpt lat="44.14067" lon="5.1542">
        <ele>374.8</ele>
        <time>2021-05-31T10:25:43.000Z</time>
      </trkpt>
      <trkpt lat="44.14071" lon="5.15455">
        <ele>373.7</ele>
        <time>2021-05-31T10:25:45.000Z</time>
      </trkpt>
      <trkpt lat="44.14075" lon="5.15491">
        <ele>372.6</ele>
        <time>2021-05-31T10:25:47.000Z</time>
      </trkpt>
      <trkpt lat="44.14079" lon="5.1551">
        <ele>371.7</ele>
        <time>2021-05-31T10:25:48.000Z</time>
      </trkpt>
      <trkpt lat="44.14093" lon="5.15534">
        <ele>369.9</ele>
        <time>2021-05-31T10:25:50.000Z</time>
      </trkpt>
      <trkpt lat="44.14121" lon="5.15558">
        <ele>367.8</ele>
        <time>2021-05-31T10:25:52.000Z</time>
      </trkpt>
      <trkpt lat="44.14144" lon="5.15583">
        <ele>366.6</ele>
        <time>2021-05-31T10:25:54.000Z</time>
      </trkpt>
      <trkpt lat="44.14162" lon="5.15606">
        <ele>365.6</ele>
        <time>2021-05-31T10:25:56.000Z</time>
      </trkpt>
      <trkpt lat="44.14179" lon="5.1563">
        <ele>364.6</ele>
        <time>2021-05-31T10:25:58.000Z</time>
      </trkpt>
      <trkpt lat="44.14186" lon="5.15647">
        <ele>363.9</ele>
        <time>2021-05-31T10:25:59.000Z</time>
      </trkpt>
      <trkpt lat="44.14187" lon="5.15658">
        <ele>363</ele>
        <time>2021-05-31T10:26:00.000Z</time>
      </trkpt>
      <trkpt lat="44.14184" lon="5.15671">
        <ele>361.3</ele>
        <time>2021-05-31T10:26:01.000Z</time>
      </trkpt>
      <trkpt lat="44.14171" lon="5.15697">
        <ele>359.8</ele>
        <time>2021-05-31T10:26:02.000Z</time>
      </trkpt>
      <trkpt lat="44.14157" lon="5.15723">
        <ele>358.6</ele>
        <time>2021-05-31T10:26:04.000Z</time>
      </trkpt>
      <trkpt lat="44.1413" lon="5.15774">
        <ele>355.6</ele>
        <time>2021-05-31T10:26:07.000Z</time>
      </trkpt>
      <trkpt lat="44.14126" lon="5.1579">
        <ele>355</ele>
        <time>2021-05-31T10:26:08.000Z</time>
      </trkpt>
      <trkpt lat="44.14125" lon="5.15807">
        <ele>354.3</ele>
        <time>2021-05-31T10:26:09.000Z</time>
      </trkpt>
      <trkpt lat="44.14128" lon="5.15849">
        <ele>353.2</ele>
        <time>2021-05-31T10:26:11.000Z</time>
      </trkpt>
      <trkpt lat="44.14131" lon="5.15891">
        <ele>352.3</ele>
        <time>2021-05-31T10:26:14.000Z</time>
      </trkpt>
      <trkpt lat="44.14131" lon="5.15928">
        <ele>352.4</ele>
        <time>2021-05-31T10:26:17.000Z</time>
      </trkpt>
      <trkpt lat="44.1413" lon="5.15959">
        <ele>353.1</ele>
        <time>2021-05-31T10:26:19.000Z</time>
      </trkpt>
      <trkpt lat="44.14128" lon="5.1599">
        <ele>353.8</ele>
        <time>2021-05-31T10:26:22.000Z</time>
      </trkpt>
      <trkpt lat="44.14126" lon="5.16002">
        <ele>354.3</ele>
        <time>2021-05-31T10:26:24.000Z</time>
      </trkpt>
      <trkpt lat="44.14118" lon="5.16025">
        <ele>355.8</ele>
        <time>2021-05-31T10:26:27.000Z</time>
      </trkpt>
      <trkpt lat="44.14109" lon="5.16047">
        <ele>357.4</ele>
        <time>2021-05-31T10:26:31.000Z</time>
      </trkpt>
      <trkpt lat="44.14101" lon="5.1607">
        <ele>358.9</ele>
        <time>2021-05-31T10:26:35.000Z</time>
      </trkpt>
      <trkpt lat="44.14092" lon="5.16093">
        <ele>360.4</ele>
        <time>2021-05-31T10:26:39.000Z</time>
      </trkpt>
      <trkpt lat="44.14084" lon="5.16115">
        <ele>361.8</ele>
        <time>2021-05-31T10:26:42.000Z</time>
      </trkpt>
      <trkpt lat="44.14075" lon="5.16138">
        <ele>363.1</ele>
        <time>2021-05-31T10:26:46.000Z</time>
      </trkpt>
      <trkpt lat="44.14071" lon="5.1616">
        <ele>363.9</ele>
        <time>2021-05-31T10:26:48.000Z</time>
      </trkpt>
      <trkpt lat="44.1407" lon="5.16189">
        <ele>364.9</ele>
        <time>2021-05-31T10:26:51.000Z</time>
      </trkpt>
      <trkpt lat="44.14068" lon="5.16217">
        <ele>365.9</ele>
        <time>2021-05-31T10:26:55.000Z</time>
      </trkpt>
      <trkpt lat="44.14067" lon="5.16246">
        <ele>366.8</ele>
        <time>2021-05-31T10:26:58.000Z</time>
      </trkpt>
      <trkpt lat="44.14064" lon="5.1627">
        <ele>366.9</ele>
        <time>2021-05-31T10:26:59.000Z</time>
      </trkpt>
      <trkpt lat="44.14051" lon="5.1631">
        <ele>365.6</ele>
        <time>2021-05-31T10:27:02.000Z</time>
      </trkpt>
      <trkpt lat="44.14028" lon="5.16361">
        <ele>362.7</ele>
        <time>2021-05-31T10:27:05.000Z</time>
      </trkpt>
      <trkpt lat="44.14009" lon="5.16395">
        <ele>360.5</ele>
        <time>2021-05-31T10:27:07.000Z</time>
      </trkpt>
      <trkpt lat="44.13981" lon="5.16434">
        <ele>356.6</ele>
        <time>2021-05-31T10:27:10.000Z</time>
      </trkpt>
      <trkpt lat="44.13955" lon="5.16462">
        <ele>354.4</ele>
        <time>2021-05-31T10:27:12.000Z</time>
      </trkpt>
      <trkpt lat="44.1392" lon="5.16488">
        <ele>351.9</ele>
        <time>2021-05-31T10:27:15.000Z</time>
      </trkpt>
      <trkpt lat="44.13882" lon="5.16502">
        <ele>349.9</ele>
        <time>2021-05-31T10:27:18.000Z</time>
      </trkpt>
      <trkpt lat="44.13857" lon="5.1651">
        <ele>349.2</ele>
        <time>2021-05-31T10:27:20.000Z</time>
      </trkpt>
      <trkpt lat="44.13832" lon="5.16517">
        <ele>348.5</ele>
        <time>2021-05-31T10:27:22.000Z</time>
      </trkpt>
      <trkpt lat="44.13807" lon="5.16525">
        <ele>347.9</ele>
        <time>2021-05-31T10:27:25.000Z</time>
      </trkpt>
      <trkpt lat="44.13784" lon="5.16531">
        <ele>347.9</ele>
        <time>2021-05-31T10:27:27.000Z</time>
      </trkpt>
      <trkpt lat="44.13761" lon="5.16536">
        <ele>348</ele>
        <time>2021-05-31T10:27:29.000Z</time>
      </trkpt>
      <trkpt lat="44.13742" lon="5.16543">
        <ele>348.1</ele>
        <time>2021-05-31T10:27:31.000Z</time>
      </trkpt>
      <trkpt lat="44.13717" lon="5.16561">
        <ele>348.5</ele>
        <time>2021-05-31T10:27:34.000Z</time>
      </trkpt>
      <trkpt lat="44.13691" lon="5.16579">
        <ele>348.9</ele>
        <time>2021-05-31T10:27:38.000Z</time>
      </trkpt>
      <trkpt lat="44.13671" lon="5.1659">
        <ele>349.3</ele>
        <time>2021-05-31T10:27:40.000Z</time>
      </trkpt>
      <trkpt lat="44.1365" lon="5.16602">
        <ele>349.7</ele>
        <time>2021-05-31T10:27:43.000Z</time>
      </trkpt>
      <trkpt lat="44.1363" lon="5.16613">
        <ele>350.2</ele>
        <time>2021-05-31T10:27:45.000Z</time>
      </trkpt>
      <trkpt lat="44.13609" lon="5.16624">
        <ele>351</ele>
        <time>2021-05-31T10:27:48.000Z</time>
      </trkpt>
      <trkpt lat="44.13589" lon="5.16636">
        <ele>351.9</ele>
        <time>2021-05-31T10:27:51.000Z</time>
      </trkpt>
      <trkpt lat="44.13568" lon="5.16647">
        <ele>352.8</ele>
        <time>2021-05-31T10:27:54.000Z</time>
      </trkpt>
      <trkpt lat="44.13548" lon="5.16658">
        <ele>353.7</ele>
        <time>2021-05-31T10:27:57.000Z</time>
      </trkpt>
      <trkpt lat="44.13527" lon="5.1667">
        <ele>354.6</ele>
        <time>2021-05-31T10:28:00.000Z</time>
      </trkpt>
      <trkpt lat="44.13507" lon="5.16681">
        <ele>355.5</ele>
        <time>2021-05-31T10:28:03.000Z</time>
      </trkpt>
      <trkpt lat="44.13481" lon="5.16696">
        <ele>355.9</ele>
        <time>2021-05-31T10:28:07.000Z</time>
      </trkpt>
      <trkpt lat="44.13454" lon="5.16712">
        <ele>356.2</ele>
        <time>2021-05-31T10:28:10.000Z</time>
      </trkpt>
      <trkpt lat="44.13428" lon="5.16727">
        <ele>356.4</ele>
        <time>2021-05-31T10:28:13.000Z</time>
      </trkpt>
      <trkpt lat="44.13405" lon="5.16746">
        <ele>355.2</ele>
        <time>2021-05-31T10:28:15.000Z</time>
      </trkpt>
      <trkpt lat="44.13379" lon="5.16776">
        <ele>354.1</ele>
        <time>2021-05-31T10:28:17.000Z</time>
      </trkpt>
      <trkpt lat="44.13359" lon="5.16814">
        <ele>352.5</ele>
        <time>2021-05-31T10:28:20.000Z</time>
      </trkpt>
      <trkpt lat="44.13339" lon="5.16851">
        <ele>350.8</ele>
        <time>2021-05-31T10:28:23.000Z</time>
      </trkpt>
      <trkpt lat="44.13319" lon="5.16889">
        <ele>349.8</ele>
        <time>2021-05-31T10:28:25.000Z</time>
      </trkpt>
      <trkpt lat="44.13298" lon="5.16926">
        <ele>349</ele>
        <time>2021-05-31T10:28:28.000Z</time>
      </trkpt>
      <trkpt lat="44.13278" lon="5.16964">
        <ele>348.6</ele>
        <time>2021-05-31T10:28:31.000Z</time>
      </trkpt>
      <trkpt lat="44.13258" lon="5.17001">
        <ele>348.3</ele>
        <time>2021-05-31T10:28:34.000Z</time>
      </trkpt>
      <trkpt lat="44.13237" lon="5.17029">
        <ele>348.1</ele>
        <time>2021-05-31T10:28:37.000Z</time>
      </trkpt>
      <trkpt lat="44.13215" lon="5.17056">
        <ele>347.8</ele>
        <time>2021-05-31T10:28:40.000Z</time>
      </trkpt>
      <trkpt lat="44.13194" lon="5.17084">
        <ele>347.5</ele>
        <time>2021-05-31T10:28:43.000Z</time>
      </trkpt>
      <trkpt lat="44.13171" lon="5.17112">
        <ele>345.9</ele>
        <time>2021-05-31T10:28:45.000Z</time>
      </trkpt>
      <trkpt lat="44.13148" lon="5.1714">
        <ele>344.4</ele>
        <time>2021-05-31T10:28:47.000Z</time>
      </trkpt>
      <trkpt lat="44.13125" lon="5.17169">
        <ele>343.3</ele>
        <time>2021-05-31T10:28:50.000Z</time>
      </trkpt>
      <trkpt lat="44.13101" lon="5.17197">
        <ele>342.2</ele>
        <time>2021-05-31T10:28:52.000Z</time>
      </trkpt>
      <trkpt lat="44.13078" lon="5.17225">
        <ele>341.8</ele>
        <time>2021-05-31T10:28:55.000Z</time>
      </trkpt>
      <trkpt lat="44.13055" lon="5.17253">
        <ele>341.5</ele>
        <time>2021-05-31T10:28:58.000Z</time>
      </trkpt>
      <trkpt lat="44.13044" lon="5.17277">
        <ele>341.4</ele>
        <time>2021-05-31T10:29:00.000Z</time>
      </trkpt>
      <trkpt lat="44.13031" lon="5.17326">
        <ele>340.7</ele>
        <time>2021-05-31T10:29:03.000Z</time>
      </trkpt>
      <trkpt lat="44.13026" lon="5.17359">
        <ele>339.9</ele>
        <time>2021-05-31T10:29:05.000Z</time>
      </trkpt>
      <trkpt lat="44.1302" lon="5.17393">
        <ele>339.1</ele>
        <time>2021-05-31T10:29:07.000Z</time>
      </trkpt>
      <trkpt lat="44.13015" lon="5.17426">
        <ele>338.2</ele>
        <time>2021-05-31T10:29:09.000Z</time>
      </trkpt>
      <trkpt lat="44.13006" lon="5.17476">
        <ele>336.2</ele>
        <time>2021-05-31T10:29:12.000Z</time>
      </trkpt>
      <trkpt lat="44.12998" lon="5.17526">
        <ele>334.2</ele>
        <time>2021-05-31T10:29:15.000Z</time>
      </trkpt>
      <trkpt lat="44.1299" lon="5.17566">
        <ele>333.4</ele>
        <time>2021-05-31T10:29:17.000Z</time>
      </trkpt>
      <trkpt lat="44.1298" lon="5.17595">
        <ele>332.8</ele>
        <time>2021-05-31T10:29:19.000Z</time>
      </trkpt>
      <trkpt lat="44.12967" lon="5.17622">
        <ele>332.3</ele>
        <time>2021-05-31T10:29:21.000Z</time>
      </trkpt>
      <trkpt lat="44.12954" lon="5.17642">
        <ele>331.8</ele>
        <time>2021-05-31T10:29:23.000Z</time>
      </trkpt>
      <trkpt lat="44.12934" lon="5.17665">
        <ele>331.2</ele>
        <time>2021-05-31T10:29:25.000Z</time>
      </trkpt>
      <trkpt lat="44.12913" lon="5.17687">
        <ele>330.7</ele>
        <time>2021-05-31T10:29:27.000Z</time>
      </trkpt>
      <trkpt lat="44.12895" lon="5.17703">
        <ele>330.2</ele>
        <time>2021-05-31T10:29:29.000Z</time>
      </trkpt>
      <trkpt lat="44.12876" lon="5.17719">
        <ele>329.7</ele>
        <time>2021-05-31T10:29:31.000Z</time>
      </trkpt>
      <trkpt lat="44.12852" lon="5.17737">
        <ele>329.2</ele>
        <time>2021-05-31T10:29:34.000Z</time>
      </trkpt>
      <trkpt lat="44.12835" lon="5.17754">
        <ele>328.8</ele>
        <time>2021-05-31T10:29:35.000Z</time>
      </trkpt>
      <trkpt lat="44.12805" lon="5.17779">
        <ele>327.5</ele>
        <time>2021-05-31T10:29:38.000Z</time>
      </trkpt>
      <trkpt lat="44.12774" lon="5.17805">
        <ele>326.3</ele>
        <time>2021-05-31T10:29:41.000Z</time>
      </trkpt>
      <trkpt lat="44.12744" lon="5.1783">
        <ele>325</ele>
        <time>2021-05-31T10:29:44.000Z</time>
      </trkpt>
      <trkpt lat="44.12713" lon="5.17855">
        <ele>323.7</ele>
        <time>2021-05-31T10:29:47.000Z</time>
      </trkpt>
      <trkpt lat="44.12683" lon="5.1788">
        <ele>321.7</ele>
        <time>2021-05-31T10:29:49.000Z</time>
      </trkpt>
      <trkpt lat="44.12652" lon="5.17906">
        <ele>319.7</ele>
        <time>2021-05-31T10:29:52.000Z</time>
      </trkpt>
      <trkpt lat="44.12622" lon="5.17931">
        <ele>318.5</ele>
        <time>2021-05-31T10:29:55.000Z</time>
      </trkpt>
      <trkpt lat="44.12591" lon="5.17956">
        <ele>317.2</ele>
        <time>2021-05-31T10:29:58.000Z</time>
      </trkpt>
      <trkpt lat="44.1257" lon="5.17975">
        <ele>315.8</ele>
        <time>2021-05-31T10:30:00.000Z</time>
      </trkpt>
      <trkpt lat="44.12548" lon="5.17994">
        <ele>314.4</ele>
        <time>2021-05-31T10:30:02.000Z</time>
      </trkpt>
      <trkpt lat="44.12525" lon="5.18017">
        <ele>313.4</ele>
        <time>2021-05-31T10:30:04.000Z</time>
      </trkpt>
      <trkpt lat="44.12507" lon="5.18026">
        <ele>312.4</ele>
        <time>2021-05-31T10:30:05.000Z</time>
      </trkpt>
      <trkpt lat="44.12518" lon="5.18029">
        <ele>312.7</ele>
        <time>2021-05-31T10:30:07.000Z</time>
      </trkpt>
      <trkpt lat="44.12521" lon="5.18034">
        <ele>313</ele>
        <time>2021-05-31T10:30:07.000Z</time>
      </trkpt>
      <trkpt lat="44.12525" lon="5.18034">
        <ele>313.1</ele>
        <time>2021-05-31T10:30:08.000Z</time>
      </trkpt>
      <trkpt lat="44.12529" lon="5.18045">
        <ele>313.2</ele>
        <time>2021-05-31T10:30:09.000Z</time>
      </trkpt>
      <trkpt lat="44.12526" lon="5.18074">
        <ele>313.1</ele>
        <time>2021-05-31T10:30:11.000Z</time>
      </trkpt>
      <trkpt lat="44.12519" lon="5.18107">
        <ele>313.1</ele>
        <time>2021-05-31T10:30:13.000Z</time>
      </trkpt>
      <trkpt lat="44.12511" lon="5.18141">
        <ele>313.2</ele>
        <time>2021-05-31T10:30:16.000Z</time>
      </trkpt>
      <trkpt lat="44.12504" lon="5.18174">
        <ele>313</ele>
        <time>2021-05-31T10:30:18.000Z</time>
      </trkpt>
      <trkpt lat="44.12496" lon="5.18208">
        <ele>312.8</ele>
        <time>2021-05-31T10:30:21.000Z</time>
      </trkpt>
      <trkpt lat="44.12489" lon="5.18241">
        <ele>312.8</ele>
        <time>2021-05-31T10:30:23.000Z</time>
      </trkpt>
      <trkpt lat="44.12481" lon="5.18274">
        <ele>312.9</ele>
        <time>2021-05-31T10:30:26.000Z</time>
      </trkpt>
      <trkpt lat="44.12474" lon="5.18308">
        <ele>314.1</ele>
        <time>2021-05-31T10:30:29.000Z</time>
      </trkpt>
      <trkpt lat="44.12466" lon="5.18341">
        <ele>315.3</ele>
        <time>2021-05-31T10:30:33.000Z</time>
      </trkpt>
      <trkpt lat="44.12459" lon="5.18375">
        <ele>315.6</ele>
        <time>2021-05-31T10:30:36.000Z</time>
      </trkpt>
      <trkpt lat="44.12452" lon="5.18408">
        <ele>315.8</ele>
        <time>2021-05-31T10:30:38.000Z</time>
      </trkpt>
      <trkpt lat="44.12444" lon="5.18441">
        <ele>316.1</ele>
        <time>2021-05-31T10:30:41.000Z</time>
      </trkpt>
      <trkpt lat="44.12437" lon="5.18475">
        <ele>316.5</ele>
        <time>2021-05-31T10:30:44.000Z</time>
      </trkpt>
      <trkpt lat="44.12429" lon="5.18508">
        <ele>317</ele>
        <time>2021-05-31T10:30:47.000Z</time>
      </trkpt>
      <trkpt lat="44.12422" lon="5.18541">
        <ele>317.5</ele>
        <time>2021-05-31T10:30:50.000Z</time>
      </trkpt>
      <trkpt lat="44.12414" lon="5.18575">
        <ele>317.3</ele>
        <time>2021-05-31T10:30:52.000Z</time>
      </trkpt>
      <trkpt lat="44.12407" lon="5.18608">
        <ele>317.2</ele>
        <time>2021-05-31T10:30:55.000Z</time>
      </trkpt>
      <trkpt lat="44.12399" lon="5.18642">
        <ele>318.2</ele>
        <time>2021-05-31T10:30:58.000Z</time>
      </trkpt>
      <trkpt lat="44.12392" lon="5.18675">
        <ele>319.4</ele>
        <time>2021-05-31T10:31:02.000Z</time>
      </trkpt>
      <trkpt lat="44.12385" lon="5.18707">
        <ele>320</ele>
        <time>2021-05-31T10:31:05.000Z</time>
      </trkpt>
      <trkpt lat="44.12377" lon="5.18738">
        <ele>320.7</ele>
        <time>2021-05-31T10:31:08.000Z</time>
      </trkpt>
      <trkpt lat="44.1237" lon="5.1877">
        <ele>322.3</ele>
        <time>2021-05-31T10:31:12.000Z</time>
      </trkpt>
      <trkpt lat="44.12363" lon="5.18802">
        <ele>324</ele>
        <time>2021-05-31T10:31:16.000Z</time>
      </trkpt>
      <trkpt lat="44.12355" lon="5.18833">
        <ele>325</ele>
        <time>2021-05-31T10:31:20.000Z</time>
      </trkpt>
      <trkpt lat="44.12348" lon="5.18865">
        <ele>326.1</ele>
        <time>2021-05-31T10:31:23.000Z</time>
      </trkpt>
      <trkpt lat="44.12342" lon="5.18885">
        <ele>327</ele>
        <time>2021-05-31T10:31:26.000Z</time>
      </trkpt>
      <trkpt lat="44.12326" lon="5.18917">
        <ele>328.6</ele>
        <time>2021-05-31T10:31:30.000Z</time>
      </trkpt>
      <trkpt lat="44.12303" lon="5.18937">
        <ele>330.2</ele>
        <time>2021-05-31T10:31:35.000Z</time>
      </trkpt>
      <trkpt lat="44.12279" lon="5.18956">
        <ele>331.1</ele>
        <time>2021-05-31T10:31:39.000Z</time>
      </trkpt>
      <trkpt lat="44.12256" lon="5.18976">
        <ele>332</ele>
        <time>2021-05-31T10:31:42.000Z</time>
      </trkpt>
      <trkpt lat="44.12232" lon="5.18995">
        <ele>332.6</ele>
        <time>2021-05-31T10:31:45.000Z</time>
      </trkpt>
      <trkpt lat="44.12222" lon="5.19009">
        <ele>333</ele>
        <time>2021-05-31T10:31:47.000Z</time>
      </trkpt>
      <trkpt lat="44.12206" lon="5.19044">
        <ele>333.6</ele>
        <time>2021-05-31T10:31:50.000Z</time>
      </trkpt>
      <trkpt lat="44.12189" lon="5.19079">
        <ele>334.3</ele>
        <time>2021-05-31T10:31:54.000Z</time>
      </trkpt>
      <trkpt lat="44.12177" lon="5.19108">
        <ele>334.8</ele>
        <time>2021-05-31T10:31:57.000Z</time>
      </trkpt>
      <trkpt lat="44.12166" lon="5.19138">
        <ele>335.1</ele>
        <time>2021-05-31T10:31:59.000Z</time>
      </trkpt>
      <trkpt lat="44.12154" lon="5.19167">
        <ele>335.5</ele>
        <time>2021-05-31T10:32:02.000Z</time>
      </trkpt>
      <trkpt lat="44.12144" lon="5.19199">
        <ele>336.1</ele>
        <time>2021-05-31T10:32:05.000Z</time>
      </trkpt>
      <trkpt lat="44.12134" lon="5.1923">
        <ele>336.8</ele>
        <time>2021-05-31T10:32:08.000Z</time>
      </trkpt>
      <trkpt lat="44.12124" lon="5.19262">
        <ele>337.3</ele>
        <time>2021-05-31T10:32:11.000Z</time>
      </trkpt>
      <trkpt lat="44.12116" lon="5.19289">
        <ele>337.6</ele>
        <time>2021-05-31T10:32:13.000Z</time>
      </trkpt>
      <trkpt lat="44.12109" lon="5.19317">
        <ele>337.7</ele>
        <time>2021-05-31T10:32:15.000Z</time>
      </trkpt>
      <trkpt lat="44.12101" lon="5.19344">
        <ele>337.8</ele>
        <time>2021-05-31T10:32:18.000Z</time>
      </trkpt>
      <trkpt lat="44.12094" lon="5.19371">
        <ele>337.9</ele>
        <time>2021-05-31T10:32:20.000Z</time>
      </trkpt>
      <trkpt lat="44.12086" lon="5.19399">
        <ele>338.8</ele>
        <time>2021-05-31T10:32:23.000Z</time>
      </trkpt>
      <trkpt lat="44.12079" lon="5.19426">
        <ele>339.7</ele>
        <time>2021-05-31T10:32:26.000Z</time>
      </trkpt>
      <trkpt lat="44.12071" lon="5.19453">
        <ele>340.6</ele>
        <time>2021-05-31T10:32:29.000Z</time>
      </trkpt>
      <trkpt lat="44.12064" lon="5.19481">
        <ele>341.4</ele>
        <time>2021-05-31T10:32:32.000Z</time>
      </trkpt>
      <trkpt lat="44.12056" lon="5.19508">
        <ele>342.2</ele>
        <time>2021-05-31T10:32:34.000Z</time>
      </trkpt>
      <trkpt lat="44.12046" lon="5.19534">
        <ele>343</ele>
        <time>2021-05-31T10:32:37.000Z</time>
      </trkpt>
      <trkpt lat="44.12036" lon="5.1956">
        <ele>343.6</ele>
        <time>2021-05-31T10:32:40.000Z</time>
      </trkpt>
      <trkpt lat="44.12026" lon="5.19586">
        <ele>344.2</ele>
        <time>2021-05-31T10:32:42.000Z</time>
      </trkpt>
      <trkpt lat="44.12016" lon="5.19612">
        <ele>344.9</ele>
        <time>2021-05-31T10:32:45.000Z</time>
      </trkpt>
      <trkpt lat="44.12006" lon="5.19638">
        <ele>345.7</ele>
        <time>2021-05-31T10:32:48.000Z</time>
      </trkpt>
      <trkpt lat="44.11996" lon="5.19664">
        <ele>346.6</ele>
        <time>2021-05-31T10:32:51.000Z</time>
      </trkpt>
      <trkpt lat="44.11983" lon="5.19691">
        <ele>347.6</ele>
        <time>2021-05-31T10:32:54.000Z</time>
      </trkpt>
      <trkpt lat="44.11969" lon="5.19719">
        <ele>348.5</ele>
        <time>2021-05-31T10:32:58.000Z</time>
      </trkpt>
      <trkpt lat="44.11956" lon="5.19746">
        <ele>349.4</ele>
        <time>2021-05-31T10:33:01.000Z</time>
      </trkpt>
      <trkpt lat="44.11942" lon="5.19773">
        <ele>349.9</ele>
        <time>2021-05-31T10:33:03.000Z</time>
      </trkpt>
      <trkpt lat="44.11929" lon="5.19801">
        <ele>350.4</ele>
        <time>2021-05-31T10:33:06.000Z</time>
      </trkpt>
      <trkpt lat="44.11915" lon="5.19828">
        <ele>351.1</ele>
        <time>2021-05-31T10:33:09.000Z</time>
      </trkpt>
      <trkpt lat="44.11902" lon="5.19855">
        <ele>351.8</ele>
        <time>2021-05-31T10:33:12.000Z</time>
      </trkpt>
      <trkpt lat="44.11888" lon="5.19883">
        <ele>352.5</ele>
        <time>2021-05-31T10:33:15.000Z</time>
      </trkpt>
      <trkpt lat="44.11875" lon="5.1991">
        <ele>353.3</ele>
        <time>2021-05-31T10:33:18.000Z</time>
      </trkpt>
      <trkpt lat="44.11865" lon="5.19943">
        <ele>354.5</ele>
        <time>2021-05-31T10:33:22.000Z</time>
      </trkpt>
      <trkpt lat="44.11854" lon="5.19977">
        <ele>355.9</ele>
        <time>2021-05-31T10:33:26.000Z</time>
      </trkpt>
      <trkpt lat="44.11844" lon="5.2001">
        <ele>357.5</ele>
        <time>2021-05-31T10:33:31.000Z</time>
      </trkpt>
      <trkpt lat="44.11845" lon="5.20025">
        <ele>358.2</ele>
        <time>2021-05-31T10:33:33.000Z</time>
      </trkpt>
      <trkpt lat="44.11849" lon="5.20036">
        <ele>358.8</ele>
        <time>2021-05-31T10:33:34.000Z</time>
      </trkpt>
      <trkpt lat="44.11869" lon="5.20051">
        <ele>360.2</ele>
        <time>2021-05-31T10:33:38.000Z</time>
      </trkpt>
      <trkpt lat="44.11892" lon="5.20064">
        <ele>361.6</ele>
        <time>2021-05-31T10:33:42.000Z</time>
      </trkpt>
      <trkpt lat="44.11914" lon="5.20077">
        <ele>362.6</ele>
        <time>2021-05-31T10:33:45.000Z</time>
      </trkpt>
      <trkpt lat="44.11943" lon="5.20102">
        <ele>364</ele>
        <time>2021-05-31T10:33:50.000Z</time>
      </trkpt>
      <trkpt lat="44.11957" lon="5.2012">
        <ele>364.8</ele>
        <time>2021-05-31T10:33:53.000Z</time>
      </trkpt>
      <trkpt lat="44.1197" lon="5.20139">
        <ele>365.5</ele>
        <time>2021-05-31T10:33:55.000Z</time>
      </trkpt>
      <trkpt lat="44.11982" lon="5.20165">
        <ele>366.5</ele>
        <time>2021-05-31T10:33:59.000Z</time>
      </trkpt>
      <trkpt lat="44.11988" lon="5.20204">
        <ele>367.9</ele>
        <time>2021-05-31T10:34:03.000Z</time>
      </trkpt>
      <trkpt lat="44.11991" lon="5.20234">
        <ele>369.1</ele>
        <time>2021-05-31T10:34:06.000Z</time>
      </trkpt>
      <trkpt lat="44.11994" lon="5.20264">
        <ele>370.4</ele>
        <time>2021-05-31T10:34:10.000Z</time>
      </trkpt>
      <trkpt lat="44.11996" lon="5.20295">
        <ele>371.8</ele>
        <time>2021-05-31T10:34:14.000Z</time>
      </trkpt>
      <trkpt lat="44.11999" lon="5.20325">
        <ele>373.2</ele>
        <time>2021-05-31T10:34:18.000Z</time>
      </trkpt>
      <trkpt lat="44.12002" lon="5.20356">
        <ele>374.2</ele>
        <time>2021-05-31T10:34:21.000Z</time>
      </trkpt>
      <trkpt lat="44.12004" lon="5.20387">
        <ele>375.2</ele>
        <time>2021-05-31T10:34:24.000Z</time>
      </trkpt>
      <trkpt lat="44.12007" lon="5.20417">
        <ele>376.2</ele>
        <time>2021-05-31T10:34:28.000Z</time>
      </trkpt>
      <trkpt lat="44.1201" lon="5.20448">
        <ele>376.8</ele>
        <time>2021-05-31T10:34:30.000Z</time>
      </trkpt>
      <trkpt lat="44.12012" lon="5.20479">
        <ele>377.4</ele>
        <time>2021-05-31T10:34:33.000Z</time>
      </trkpt>
      <trkpt lat="44.12015" lon="5.2051">
        <ele>378</ele>
        <time>2021-05-31T10:34:36.000Z</time>
      </trkpt>
      <trkpt lat="44.12015" lon="5.20537">
        <ele>378.5</ele>
        <time>2021-05-31T10:34:38.000Z</time>
      </trkpt>
      <trkpt lat="44.12015" lon="5.20563">
        <ele>379</ele>
        <time>2021-05-31T10:34:40.000Z</time>
      </trkpt>
      <trkpt lat="44.12014" lon="5.20587">
        <ele>379.5</ele>
        <time>2021-05-31T10:34:42.000Z</time>
      </trkpt>
      <trkpt lat="44.12013" lon="5.20611">
        <ele>380.2</ele>
        <time>2021-05-31T10:34:45.000Z</time>
      </trkpt>
      <trkpt lat="44.1201" lon="5.20641">
        <ele>381.2</ele>
        <time>2021-05-31T10:34:48.000Z</time>
      </trkpt>
      <trkpt lat="44.12007" lon="5.2067">
        <ele>382.2</ele>
        <time>2021-05-31T10:34:51.000Z</time>
      </trkpt>
      <trkpt lat="44.12005" lon="5.207">
        <ele>383.2</ele>
        <time>2021-05-31T10:34:54.000Z</time>
      </trkpt>
      <trkpt lat="44.12002" lon="5.20729">
        <ele>384.2</ele>
        <time>2021-05-31T10:34:58.000Z</time>
      </trkpt>
      <trkpt lat="44.11999" lon="5.20759">
        <ele>385.2</ele>
        <time>2021-05-31T10:35:01.000Z</time>
      </trkpt>
      <trkpt lat="44.11996" lon="5.20788">
        <ele>386.2</ele>
        <time>2021-05-31T10:35:04.000Z</time>
      </trkpt>
      <trkpt lat="44.11994" lon="5.20818">
        <ele>387.2</ele>
        <time>2021-05-31T10:35:07.000Z</time>
      </trkpt>
      <trkpt lat="44.11991" lon="5.20847">
        <ele>388.3</ele>
        <time>2021-05-31T10:35:10.000Z</time>
      </trkpt>
      <trkpt lat="44.11988" lon="5.20877">
        <ele>389.5</ele>
        <time>2021-05-31T10:35:14.000Z</time>
      </trkpt>
      <trkpt lat="44.11992" lon="5.20912">
        <ele>391</ele>
        <time>2021-05-31T10:35:18.000Z</time>
      </trkpt>
      <trkpt lat="44.11995" lon="5.20947">
        <ele>391.8</ele>
        <time>2021-05-31T10:35:21.000Z</time>
      </trkpt>
      <trkpt lat="44.12001" lon="5.20979">
        <ele>392.5</ele>
        <time>2021-05-31T10:35:24.000Z</time>
      </trkpt>
      <trkpt lat="44.12006" lon="5.21012">
        <ele>393.5</ele>
        <time>2021-05-31T10:35:28.000Z</time>
      </trkpt>
      <trkpt lat="44.12012" lon="5.21044">
        <ele>394.7</ele>
        <time>2021-05-31T10:35:31.000Z</time>
      </trkpt>
      <trkpt lat="44.12016" lon="5.21068">
        <ele>395.8</ele>
        <time>2021-05-31T10:35:34.000Z</time>
      </trkpt>
      <trkpt lat="44.12021" lon="5.21092">
        <ele>396.9</ele>
        <time>2021-05-31T10:35:37.000Z</time>
      </trkpt>
      <trkpt lat="44.12025" lon="5.21117">
        <ele>398.1</ele>
        <time>2021-05-31T10:35:41.000Z</time>
      </trkpt>
      <trkpt lat="44.12029" lon="5.21141">
        <ele>399.6</ele>
        <time>2021-05-31T10:35:44.000Z</time>
      </trkpt>
      <trkpt lat="44.12043" lon="5.21184">
        <ele>402.4</ele>
        <time>2021-05-31T10:35:51.000Z</time>
      </trkpt>
      <trkpt lat="44.12058" lon="5.21212">
        <ele>403.7</ele>
        <time>2021-05-31T10:35:55.000Z</time>
      </trkpt>
      <trkpt lat="44.12072" lon="5.2124">
        <ele>405</ele>
        <time>2021-05-31T10:35:59.000Z</time>
      </trkpt>
      <trkpt lat="44.12087" lon="5.21268">
        <ele>405.9</ele>
        <time>2021-05-31T10:36:03.000Z</time>
      </trkpt>
      <trkpt lat="44.12101" lon="5.21296">
        <ele>406.9</ele>
        <time>2021-05-31T10:36:06.000Z</time>
      </trkpt>
      <trkpt lat="44.12116" lon="5.21323">
        <ele>408.1</ele>
        <time>2021-05-31T10:36:10.000Z</time>
      </trkpt>
      <trkpt lat="44.1213" lon="5.21351">
        <ele>409.4</ele>
        <time>2021-05-31T10:36:14.000Z</time>
      </trkpt>
      <trkpt lat="44.12141" lon="5.21372">
        <ele>410.4</ele>
        <time>2021-05-31T10:36:17.000Z</time>
      </trkpt>
      <trkpt lat="44.12152" lon="5.21393">
        <ele>411.4</ele>
        <time>2021-05-31T10:36:20.000Z</time>
      </trkpt>
      <trkpt lat="44.12163" lon="5.21414">
        <ele>412.5</ele>
        <time>2021-05-31T10:36:23.000Z</time>
      </trkpt>
      <trkpt lat="44.12174" lon="5.21435">
        <ele>413.9</ele>
        <time>2021-05-31T10:36:26.000Z</time>
      </trkpt>
      <trkpt lat="44.12185" lon="5.21461">
        <ele>415.6</ele>
        <time>2021-05-31T10:36:31.000Z</time>
      </trkpt>
      <trkpt lat="44.12194" lon="5.21488">
        <ele>417.2</ele>
        <time>2021-05-31T10:36:35.000Z</time>
      </trkpt>
      <trkpt lat="44.12202" lon="5.21515">
        <ele>418.5</ele>
        <time>2021-05-31T10:36:38.000Z</time>
      </trkpt>
      <trkpt lat="44.12211" lon="5.21542">
        <ele>419.8</ele>
        <time>2021-05-31T10:36:42.000Z</time>
      </trkpt>
      <trkpt lat="44.12219" lon="5.21572">
        <ele>421.3</ele>
        <time>2021-05-31T10:36:46.000Z</time>
      </trkpt>
      <trkpt lat="44.12222" lon="5.21592">
        <ele>422.3</ele>
        <time>2021-05-31T10:36:49.000Z</time>
      </trkpt>
      <trkpt lat="44.12221" lon="5.2161">
        <ele>423.3</ele>
        <time>2021-05-31T10:36:51.000Z</time>
      </trkpt>
      <trkpt lat="44.12217" lon="5.21629">
        <ele>424.3</ele>
        <time>2021-05-31T10:36:54.000Z</time>
      </trkpt>
      <trkpt lat="44.12208" lon="5.2166">
        <ele>426.1</ele>
        <time>2021-05-31T10:36:58.000Z</time>
      </trkpt>
      <trkpt lat="44.122" lon="5.2169">
        <ele>428</ele>
        <time>2021-05-31T10:37:03.000Z</time>
      </trkpt>
      <trkpt lat="44.12191" lon="5.21721">
        <ele>430</ele>
        <time>2021-05-31T10:37:08.000Z</time>
      </trkpt>
      <trkpt lat="44.12182" lon="5.21752">
        <ele>431.4</ele>
        <time>2021-05-31T10:37:12.000Z</time>
      </trkpt>
      <trkpt lat="44.12174" lon="5.21782">
        <ele>432.9</ele>
        <time>2021-05-31T10:37:16.000Z</time>
      </trkpt>
      <trkpt lat="44.12165" lon="5.21813">
        <ele>434.6</ele>
        <time>2021-05-31T10:37:21.000Z</time>
      </trkpt>
      <trkpt lat="44.12156" lon="5.21844">
        <ele>436.4</ele>
        <time>2021-05-31T10:37:25.000Z</time>
      </trkpt>
      <trkpt lat="44.12148" lon="5.21874">
        <ele>438.3</ele>
        <time>2021-05-31T10:37:30.000Z</time>
      </trkpt>
      <trkpt lat="44.12139" lon="5.21905">
        <ele>440.2</ele>
        <time>2021-05-31T10:37:35.000Z</time>
      </trkpt>
      <trkpt lat="44.12131" lon="5.2193">
        <ele>441.2</ele>
        <time>2021-05-31T10:37:38.000Z</time>
      </trkpt>
      <trkpt lat="44.12122" lon="5.21955">
        <ele>442.2</ele>
        <time>2021-05-31T10:37:41.000Z</time>
      </trkpt>
      <trkpt lat="44.12114" lon="5.2198">
        <ele>443.3</ele>
        <time>2021-05-31T10:37:44.000Z</time>
      </trkpt>
      <trkpt lat="44.12105" lon="5.22003">
        <ele>444.4</ele>
        <time>2021-05-31T10:37:47.000Z</time>
      </trkpt>
      <trkpt lat="44.12097" lon="5.22026">
        <ele>445.6</ele>
        <time>2021-05-31T10:37:51.000Z</time>
      </trkpt>
      <trkpt lat="44.12088" lon="5.2205">
        <ele>446.8</ele>
        <time>2021-05-31T10:37:54.000Z</time>
      </trkpt>
      <trkpt lat="44.12079" lon="5.22073">
        <ele>447.7</ele>
        <time>2021-05-31T10:37:57.000Z</time>
      </trkpt>
      <trkpt lat="44.12071" lon="5.22096">
        <ele>448.6</ele>
        <time>2021-05-31T10:37:59.000Z</time>
      </trkpt>
      <trkpt lat="44.12062" lon="5.22119">
        <ele>449.4</ele>
        <time>2021-05-31T10:38:02.000Z</time>
      </trkpt>
      <trkpt lat="44.12054" lon="5.22145">
        <ele>450.1</ele>
        <time>2021-05-31T10:38:05.000Z</time>
      </trkpt>
      <trkpt lat="44.12045" lon="5.2217">
        <ele>450.8</ele>
        <time>2021-05-31T10:38:07.000Z</time>
      </trkpt>
      <trkpt lat="44.12037" lon="5.22202">
        <ele>451.7</ele>
        <time>2021-05-31T10:38:11.000Z</time>
      </trkpt>
      <trkpt lat="44.12029" lon="5.22233">
        <ele>452.9</ele>
        <time>2021-05-31T10:38:14.000Z</time>
      </trkpt>
      <trkpt lat="44.12026" lon="5.2225">
        <ele>453.6</ele>
        <time>2021-05-31T10:38:16.000Z</time>
      </trkpt>
      <trkpt lat="44.12026" lon="5.22277">
        <ele>454.7</ele>
        <time>2021-05-31T10:38:20.000Z</time>
      </trkpt>
      <trkpt lat="44.12032" lon="5.22309">
        <ele>456.1</ele>
        <time>2021-05-31T10:38:24.000Z</time>
      </trkpt>
      <trkpt lat="44.12038" lon="5.22341">
        <ele>457.6</ele>
        <time>2021-05-31T10:38:28.000Z</time>
      </trkpt>
      <trkpt lat="44.12044" lon="5.22374">
        <ele>458.9</ele>
        <time>2021-05-31T10:38:32.000Z</time>
      </trkpt>
      <trkpt lat="44.1205" lon="5.22406">
        <ele>460.3</ele>
        <time>2021-05-31T10:38:36.000Z</time>
      </trkpt>
      <trkpt lat="44.12052" lon="5.22428">
        <ele>461.4</ele>
        <time>2021-05-31T10:38:38.000Z</time>
      </trkpt>
      <trkpt lat="44.12051" lon="5.22452">
        <ele>462.6</ele>
        <time>2021-05-31T10:38:42.000Z</time>
      </trkpt>
      <trkpt lat="44.1205" lon="5.22476">
        <ele>463.8</ele>
        <time>2021-05-31T10:38:45.000Z</time>
      </trkpt>
      <trkpt lat="44.12046" lon="5.2251">
        <ele>465.4</ele>
        <time>2021-05-31T10:38:49.000Z</time>
      </trkpt>
      <trkpt lat="44.12041" lon="5.22544">
        <ele>467</ele>
        <time>2021-05-31T10:38:54.000Z</time>
      </trkpt>
      <trkpt lat="44.12037" lon="5.22578">
        <ele>468.8</ele>
        <time>2021-05-31T10:38:58.000Z</time>
      </trkpt>
      <trkpt lat="44.12033" lon="5.22611">
        <ele>470.5</ele>
        <time>2021-05-31T10:39:03.000Z</time>
      </trkpt>
      <trkpt lat="44.12028" lon="5.22645">
        <ele>471.1</ele>
        <time>2021-05-31T10:39:06.000Z</time>
      </trkpt>
      <trkpt lat="44.12024" lon="5.22679">
        <ele>471.8</ele>
        <time>2021-05-31T10:39:09.000Z</time>
      </trkpt>
      <trkpt lat="44.12022" lon="5.22702">
        <ele>473.2</ele>
        <time>2021-05-31T10:39:12.000Z</time>
      </trkpt>
      <trkpt lat="44.1202" lon="5.22724">
        <ele>474.8</ele>
        <time>2021-05-31T10:39:16.000Z</time>
      </trkpt>
      <trkpt lat="44.12021" lon="5.22751">
        <ele>476.6</ele>
        <time>2021-05-31T10:39:20.000Z</time>
      </trkpt>
      <trkpt lat="44.12021" lon="5.22778">
        <ele>478</ele>
        <time>2021-05-31T10:39:24.000Z</time>
      </trkpt>
      <trkpt lat="44.12025" lon="5.22805">
        <ele>479.4</ele>
        <time>2021-05-31T10:39:28.000Z</time>
      </trkpt>
      <trkpt lat="44.12029" lon="5.22831">
        <ele>480.8</ele>
        <time>2021-05-31T10:39:31.000Z</time>
      </trkpt>
      <trkpt lat="44.12032" lon="5.22858">
        <ele>482.1</ele>
        <time>2021-05-31T10:39:35.000Z</time>
      </trkpt>
      <trkpt lat="44.12036" lon="5.22885">
        <ele>483.4</ele>
        <time>2021-05-31T10:39:38.000Z</time>
      </trkpt>
      <trkpt lat="44.1204" lon="5.22912">
        <ele>484.7</ele>
        <time>2021-05-31T10:39:42.000Z</time>
      </trkpt>
      <trkpt lat="44.12044" lon="5.22938">
        <ele>486.2</ele>
        <time>2021-05-31T10:39:45.000Z</time>
      </trkpt>
      <trkpt lat="44.12047" lon="5.22965">
        <ele>487.8</ele>
        <time>2021-05-31T10:39:49.000Z</time>
      </trkpt>
      <trkpt lat="44.12051" lon="5.22992">
        <ele>489.4</ele>
        <time>2021-05-31T10:39:53.000Z</time>
      </trkpt>
      <trkpt lat="44.12052" lon="5.2302">
        <ele>490.6</ele>
        <time>2021-05-31T10:39:57.000Z</time>
      </trkpt>
      <trkpt lat="44.12051" lon="5.23031">
        <ele>491</ele>
        <time>2021-05-31T10:39:58.000Z</time>
      </trkpt>
      <trkpt lat="44.12046" lon="5.23051">
        <ele>491.9</ele>
        <time>2021-05-31T10:40:01.000Z</time>
      </trkpt>
      <trkpt lat="44.12039" lon="5.23065">
        <ele>492.6</ele>
        <time>2021-05-31T10:40:03.000Z</time>
      </trkpt>
      <trkpt lat="44.12027" lon="5.23082">
        <ele>493.8</ele>
        <time>2021-05-31T10:40:06.000Z</time>
      </trkpt>
      <trkpt lat="44.12014" lon="5.231">
        <ele>495</ele>
        <time>2021-05-31T10:40:09.000Z</time>
      </trkpt>
      <trkpt lat="44.12" lon="5.23118">
        <ele>496.3</ele>
        <time>2021-05-31T10:40:12.000Z</time>
      </trkpt>
      <trkpt lat="44.11987" lon="5.23136">
        <ele>497.7</ele>
        <time>2021-05-31T10:40:16.000Z</time>
      </trkpt>
      <trkpt lat="44.11973" lon="5.23154">
        <ele>499.1</ele>
        <time>2021-05-31T10:40:20.000Z</time>
      </trkpt>
      <trkpt lat="44.11955" lon="5.23178">
        <ele>501</ele>
        <time>2021-05-31T10:40:24.000Z</time>
      </trkpt>
      <trkpt lat="44.11937" lon="5.23202">
        <ele>502.5</ele>
        <time>2021-05-31T10:40:29.000Z</time>
      </trkpt>
      <trkpt lat="44.1192" lon="5.23227">
        <ele>504</ele>
        <time>2021-05-31T10:40:33.000Z</time>
      </trkpt>
      <trkpt lat="44.11902" lon="5.23251">
        <ele>505.3</ele>
        <time>2021-05-31T10:40:37.000Z</time>
      </trkpt>
      <trkpt lat="44.11884" lon="5.23275">
        <ele>506.6</ele>
        <time>2021-05-31T10:40:41.000Z</time>
      </trkpt>
      <trkpt lat="44.11866" lon="5.23299">
        <ele>508</ele>
        <time>2021-05-31T10:40:45.000Z</time>
      </trkpt>
      <trkpt lat="44.11848" lon="5.23323">
        <ele>509.5</ele>
        <time>2021-05-31T10:40:49.000Z</time>
      </trkpt>
      <trkpt lat="44.1183" lon="5.23347">
        <ele>511.1</ele>
        <time>2021-05-31T10:40:54.000Z</time>
      </trkpt>
      <trkpt lat="44.11812" lon="5.23371">
        <ele>512.8</ele>
        <time>2021-05-31T10:40:58.000Z</time>
      </trkpt>
      <trkpt lat="44.11802" lon="5.23389">
        <ele>513.5</ele>
        <time>2021-05-31T10:41:00.000Z</time>
      </trkpt>
      <trkpt lat="44.11797" lon="5.23403">
        <ele>514</ele>
        <time>2021-05-31T10:41:02.000Z</time>
      </trkpt>
      <trkpt lat="44.11792" lon="5.23429">
        <ele>514.8</ele>
        <time>2021-05-31T10:41:05.000Z</time>
      </trkpt>
      <trkpt lat="44.11787" lon="5.23455">
        <ele>515.4</ele>
        <time>2021-05-31T10:41:07.000Z</time>
      </trkpt>
      <trkpt lat="44.11782" lon="5.2347">
        <ele>515.7</ele>
        <time>2021-05-31T10:41:09.000Z</time>
      </trkpt>
      <trkpt lat="44.11774" lon="5.23484">
        <ele>516</ele>
        <time>2021-05-31T10:41:10.000Z</time>
      </trkpt>
      <trkpt lat="44.11757" lon="5.23505">
        <ele>516.6</ele>
        <time>2021-05-31T10:41:13.000Z</time>
      </trkpt>
      <trkpt lat="44.11748" lon="5.23521">
        <ele>517</ele>
        <time>2021-05-31T10:41:15.000Z</time>
      </trkpt>
      <trkpt lat="44.11743" lon="5.23537">
        <ele>517.3</ele>
        <time>2021-05-31T10:41:16.000Z</time>
      </trkpt>
      <trkpt lat="44.11742" lon="5.23555">
        <ele>517.6</ele>
        <time>2021-05-31T10:41:18.000Z</time>
      </trkpt>
      <trkpt lat="44.11746" lon="5.23589">
        <ele>518.2</ele>
        <time>2021-05-31T10:41:21.000Z</time>
      </trkpt>
      <trkpt lat="44.11751" lon="5.23624">
        <ele>518.7</ele>
        <time>2021-05-31T10:41:23.000Z</time>
      </trkpt>
      <trkpt lat="44.11755" lon="5.23658">
        <ele>519.3</ele>
        <time>2021-05-31T10:41:26.000Z</time>
      </trkpt>
      <trkpt lat="44.1175" lon="5.23704">
        <ele>520.9</ele>
        <time>2021-05-31T10:41:31.000Z</time>
      </trkpt>
      <trkpt lat="44.11746" lon="5.23731">
        <ele>521.8</ele>
        <time>2021-05-31T10:41:34.000Z</time>
      </trkpt>
      <trkpt lat="44.11741" lon="5.23758">
        <ele>522.6</ele>
        <time>2021-05-31T10:41:37.000Z</time>
      </trkpt>
      <trkpt lat="44.11737" lon="5.23785">
        <ele>523.4</ele>
        <time>2021-05-31T10:41:40.000Z</time>
      </trkpt>
      <trkpt lat="44.11729" lon="5.23822">
        <ele>524.5</ele>
        <time>2021-05-31T10:41:44.000Z</time>
      </trkpt>
      <trkpt lat="44.11715" lon="5.23847">
        <ele>525.8</ele>
        <time>2021-05-31T10:41:47.000Z</time>
      </trkpt>
      <trkpt lat="44.11695" lon="5.23873">
        <ele>527.3</ele>
        <time>2021-05-31T10:41:52.000Z</time>
      </trkpt>
      <trkpt lat="44.11674" lon="5.23899">
        <ele>527.7</ele>
        <time>2021-05-31T10:41:55.000Z</time>
      </trkpt>
      <trkpt lat="44.11654" lon="5.23925">
        <ele>528</ele>
        <time>2021-05-31T10:41:58.000Z</time>
      </trkpt>
      <trkpt lat="44.11633" lon="5.2395">
        <ele>527.6</ele>
        <time>2021-05-31T10:42:00.000Z</time>
      </trkpt>
      <trkpt lat="44.11613" lon="5.23976">
        <ele>527.3</ele>
        <time>2021-05-31T10:42:03.000Z</time>
      </trkpt>
      <trkpt lat="44.11592" lon="5.24002">
        <ele>527.1</ele>
        <time>2021-05-31T10:42:06.000Z</time>
      </trkpt>
      <trkpt lat="44.11584" lon="5.24009">
        <ele>527.1</ele>
        <time>2021-05-31T10:42:07.000Z</time>
      </trkpt>
      <trkpt lat="44.1157" lon="5.24017">
        <ele>527.1</ele>
        <time>2021-05-31T10:42:08.000Z</time>
      </trkpt>
      <trkpt lat="44.1155" lon="5.24023">
        <ele>527.5</ele>
        <time>2021-05-31T10:42:10.000Z</time>
      </trkpt>
      <trkpt lat="44.11514" lon="5.24028">
        <ele>528.3</ele>
        <time>2021-05-31T10:42:15.000Z</time>
      </trkpt>
      <trkpt lat="44.11489" lon="5.24026">
        <ele>529.4</ele>
        <time>2021-05-31T10:42:18.000Z</time>
      </trkpt>
      <trkpt lat="44.11474" lon="5.24017">
        <ele>530.2</ele>
        <time>2021-05-31T10:42:21.000Z</time>
      </trkpt>
      <trkpt lat="44.11458" lon="5.24004">
        <ele>531</ele>
        <time>2021-05-31T10:42:23.000Z</time>
      </trkpt>
      <trkpt lat="44.11442" lon="5.23992">
        <ele>531.7</ele>
        <time>2021-05-31T10:42:26.000Z</time>
      </trkpt>
      <trkpt lat="44.11424" lon="5.2398">
        <ele>532.3</ele>
        <time>2021-05-31T10:42:28.000Z</time>
      </trkpt>
      <trkpt lat="44.11404" lon="5.23973">
        <ele>533.1</ele>
        <time>2021-05-31T10:42:31.000Z</time>
      </trkpt>
      <trkpt lat="44.11385" lon="5.23968">
        <ele>534.7</ele>
        <time>2021-05-31T10:42:35.000Z</time>
      </trkpt>
      <trkpt lat="44.11363" lon="5.23966">
        <ele>536.5</ele>
        <time>2021-05-31T10:42:40.000Z</time>
      </trkpt>
      <trkpt lat="44.11357" lon="5.23968">
        <ele>537</ele>
        <time>2021-05-31T10:42:41.000Z</time>
      </trkpt>
      <trkpt lat="44.11351" lon="5.23974">
        <ele>537.7</ele>
        <time>2021-05-31T10:42:42.000Z</time>
      </trkpt>
      <trkpt lat="44.11349" lon="5.2398">
        <ele>538.1</ele>
        <time>2021-05-31T10:42:43.000Z</time>
      </trkpt>
      <trkpt lat="44.1135" lon="5.23986">
        <ele>538.5</ele>
        <time>2021-05-31T10:42:44.000Z</time>
      </trkpt>
      <trkpt lat="44.11353" lon="5.2399">
        <ele>538.9</ele>
        <time>2021-05-31T10:42:45.000Z</time>
      </trkpt>
      <trkpt lat="44.11373" lon="5.24">
        <ele>540.8</ele>
        <time>2021-05-31T10:42:50.000Z</time>
      </trkpt>
      <trkpt lat="44.11392" lon="5.24011">
        <ele>542.7</ele>
        <time>2021-05-31T10:42:54.000Z</time>
      </trkpt>
      <trkpt lat="44.11408" lon="5.24026">
        <ele>544.7</ele>
        <time>2021-05-31T10:42:59.000Z</time>
      </trkpt>
      <trkpt lat="44.1142" lon="5.24043">
        <ele>546.6</ele>
        <time>2021-05-31T10:43:03.000Z</time>
      </trkpt>
      <trkpt lat="44.11431" lon="5.2406">
        <ele>548.4</ele>
        <time>2021-05-31T10:43:07.000Z</time>
      </trkpt>
      <trkpt lat="44.11443" lon="5.24077">
        <ele>550.3</ele>
        <time>2021-05-31T10:43:12.000Z</time>
      </trkpt>
      <trkpt lat="44.1146" lon="5.24103">
        <ele>553.1</ele>
        <time>2021-05-31T10:43:18.000Z</time>
      </trkpt>
      <trkpt lat="44.11477" lon="5.24129">
        <ele>555.8</ele>
        <time>2021-05-31T10:43:24.000Z</time>
      </trkpt>
      <trkpt lat="44.11492" lon="5.24145">
        <ele>558</ele>
        <time>2021-05-31T10:43:29.000Z</time>
      </trkpt>
      <trkpt lat="44.11507" lon="5.24161">
        <ele>560.1</ele>
        <time>2021-05-31T10:43:34.000Z</time>
      </trkpt>
      <trkpt lat="44.11521" lon="5.24171">
        <ele>561.7</ele>
        <time>2021-05-31T10:43:37.000Z</time>
      </trkpt>
      <trkpt lat="44.11534" lon="5.24181">
        <ele>562.9</ele>
        <time>2021-05-31T10:43:40.000Z</time>
      </trkpt>
      <trkpt lat="44.11548" lon="5.24191">
        <ele>564</ele>
        <time>2021-05-31T10:43:43.000Z</time>
      </trkpt>
      <trkpt lat="44.11569" lon="5.24207">
        <ele>565.7</ele>
        <time>2021-05-31T10:43:48.000Z</time>
      </trkpt>
      <trkpt lat="44.11589" lon="5.24222">
        <ele>568.3</ele>
        <time>2021-05-31T10:43:53.000Z</time>
      </trkpt>
      <trkpt lat="44.11599" lon="5.24235">
        <ele>569.9</ele>
        <time>2021-05-31T10:43:57.000Z</time>
      </trkpt>
      <trkpt lat="44.11609" lon="5.24249">
        <ele>571.5</ele>
        <time>2021-05-31T10:44:00.000Z</time>
      </trkpt>
      <trkpt lat="44.11613" lon="5.24259">
        <ele>572.4</ele>
        <time>2021-05-31T10:44:03.000Z</time>
      </trkpt>
      <trkpt lat="44.11613" lon="5.24269">
        <ele>573.3</ele>
        <time>2021-05-31T10:44:04.000Z</time>
      </trkpt>
      <trkpt lat="44.11599" lon="5.24292">
        <ele>575.7</ele>
        <time>2021-05-31T10:44:10.000Z</time>
      </trkpt>
      <trkpt lat="44.11585" lon="5.24315">
        <ele>578.2</ele>
        <time>2021-05-31T10:44:15.000Z</time>
      </trkpt>
      <trkpt lat="44.11571" lon="5.24338">
        <ele>580.1</ele>
        <time>2021-05-31T10:44:20.000Z</time>
      </trkpt>
      <trkpt lat="44.1156" lon="5.24358">
        <ele>581.7</ele>
        <time>2021-05-31T10:44:24.000Z</time>
      </trkpt>
      <trkpt lat="44.11549" lon="5.24378">
        <ele>583.2</ele>
        <time>2021-05-31T10:44:28.000Z</time>
      </trkpt>
      <trkpt lat="44.11543" lon="5.24394">
        <ele>584.4</ele>
        <time>2021-05-31T10:44:30.000Z</time>
      </trkpt>
      <trkpt lat="44.11544" lon="5.24421">
        <ele>586.1</ele>
        <time>2021-05-31T10:44:35.000Z</time>
      </trkpt>
      <trkpt lat="44.11547" lon="5.24431">
        <ele>586.8</ele>
        <time>2021-05-31T10:44:36.000Z</time>
      </trkpt>
      <trkpt lat="44.11554" lon="5.24443">
        <ele>587.8</ele>
        <time>2021-05-31T10:44:39.000Z</time>
      </trkpt>
      <trkpt lat="44.11564" lon="5.24456">
        <ele>589</ele>
        <time>2021-05-31T10:44:42.000Z</time>
      </trkpt>
      <trkpt lat="44.11581" lon="5.24476">
        <ele>590.9</ele>
        <time>2021-05-31T10:44:46.000Z</time>
      </trkpt>
      <trkpt lat="44.11598" lon="5.24496">
        <ele>592.9</ele>
        <time>2021-05-31T10:44:51.000Z</time>
      </trkpt>
      <trkpt lat="44.11616" lon="5.24516">
        <ele>595.2</ele>
        <time>2021-05-31T10:44:57.000Z</time>
      </trkpt>
      <trkpt lat="44.11633" lon="5.24536">
        <ele>597.6</ele>
        <time>2021-05-31T10:45:02.000Z</time>
      </trkpt>
      <trkpt lat="44.1165" lon="5.24556">
        <ele>600</ele>
        <time>2021-05-31T10:45:07.000Z</time>
      </trkpt>
      <trkpt lat="44.11667" lon="5.24576">
        <ele>601.7</ele>
        <time>2021-05-31T10:45:12.000Z</time>
      </trkpt>
      <trkpt lat="44.11684" lon="5.24595">
        <ele>603.4</ele>
        <time>2021-05-31T10:45:16.000Z</time>
      </trkpt>
      <trkpt lat="44.11702" lon="5.24614">
        <ele>605.1</ele>
        <time>2021-05-31T10:45:20.000Z</time>
      </trkpt>
      <trkpt lat="44.11719" lon="5.24633">
        <ele>607.7</ele>
        <time>2021-05-31T10:45:26.000Z</time>
      </trkpt>
      <trkpt lat="44.11732" lon="5.24647">
        <ele>609.7</ele>
        <time>2021-05-31T10:45:30.000Z</time>
      </trkpt>
      <trkpt lat="44.11745" lon="5.24661">
        <ele>611.6</ele>
        <time>2021-05-31T10:45:35.000Z</time>
      </trkpt>
      <trkpt lat="44.11758" lon="5.24676">
        <ele>613.7</ele>
        <time>2021-05-31T10:45:39.000Z</time>
      </trkpt>
      <trkpt lat="44.11771" lon="5.2469">
        <ele>615.8</ele>
        <time>2021-05-31T10:45:43.000Z</time>
      </trkpt>
      <trkpt lat="44.11785" lon="5.24702">
        <ele>617.7</ele>
        <time>2021-05-31T10:45:48.000Z</time>
      </trkpt>
      <trkpt lat="44.11799" lon="5.24715">
        <ele>619.2</ele>
        <time>2021-05-31T10:45:51.000Z</time>
      </trkpt>
      <trkpt lat="44.11813" lon="5.24727">
        <ele>620.6</ele>
        <time>2021-05-31T10:45:55.000Z</time>
      </trkpt>
      <trkpt lat="44.11827" lon="5.2474">
        <ele>622.1</ele>
        <time>2021-05-31T10:45:58.000Z</time>
      </trkpt>
      <trkpt lat="44.11841" lon="5.24752">
        <ele>624</ele>
        <time>2021-05-31T10:46:03.000Z</time>
      </trkpt>
      <trkpt lat="44.11855" lon="5.24765">
        <ele>625.9</ele>
        <time>2021-05-31T10:46:07.000Z</time>
      </trkpt>
      <trkpt lat="44.11869" lon="5.24777">
        <ele>627.9</ele>
        <time>2021-05-31T10:46:11.000Z</time>
      </trkpt>
      <trkpt lat="44.11883" lon="5.2479">
        <ele>630.2</ele>
        <time>2021-05-31T10:46:16.000Z</time>
      </trkpt>
      <trkpt lat="44.11895" lon="5.24795">
        <ele>632</ele>
        <time>2021-05-31T10:46:19.000Z</time>
      </trkpt>
      <trkpt lat="44.11918" lon="5.248">
        <ele>635.1</ele>
        <time>2021-05-31T10:46:26.000Z</time>
      </trkpt>
      <trkpt lat="44.1194" lon="5.24805">
        <ele>637.4</ele>
        <time>2021-05-31T10:46:31.000Z</time>
      </trkpt>
      <trkpt lat="44.11949" lon="5.24811">
        <ele>638.4</ele>
        <time>2021-05-31T10:46:34.000Z</time>
      </trkpt>
      <trkpt lat="44.11976" lon="5.24838">
        <ele>641.8</ele>
        <time>2021-05-31T10:46:41.000Z</time>
      </trkpt>
      <trkpt lat="44.11988" lon="5.24845">
        <ele>643.6</ele>
        <time>2021-05-31T10:46:45.000Z</time>
      </trkpt>
      <trkpt lat="44.11999" lon="5.24853">
        <ele>645.6</ele>
        <time>2021-05-31T10:46:49.000Z</time>
      </trkpt>
      <trkpt lat="44.12023" lon="5.2486">
        <ele>649.3</ele>
        <time>2021-05-31T10:46:57.000Z</time>
      </trkpt>
      <trkpt lat="44.12042" lon="5.24864">
        <ele>650.9</ele>
        <time>2021-05-31T10:47:01.000Z</time>
      </trkpt>
      <trkpt lat="44.12061" lon="5.24868">
        <ele>652.4</ele>
        <time>2021-05-31T10:47:04.000Z</time>
      </trkpt>
      <trkpt lat="44.1208" lon="5.24872">
        <ele>653.9</ele>
        <time>2021-05-31T10:47:08.000Z</time>
      </trkpt>
      <trkpt lat="44.12099" lon="5.24876">
        <ele>655.8</ele>
        <time>2021-05-31T10:47:13.000Z</time>
      </trkpt>
      <trkpt lat="44.12107" lon="5.2488">
        <ele>656.7</ele>
        <time>2021-05-31T10:47:15.000Z</time>
      </trkpt>
      <trkpt lat="44.12112" lon="5.24884">
        <ele>657.2</ele>
        <time>2021-05-31T10:47:16.000Z</time>
      </trkpt>
      <trkpt lat="44.12116" lon="5.24893">
        <ele>658</ele>
        <time>2021-05-31T10:47:18.000Z</time>
      </trkpt>
      <trkpt lat="44.12126" lon="5.24926">
        <ele>660.7</ele>
        <time>2021-05-31T10:47:24.000Z</time>
      </trkpt>
      <trkpt lat="44.12136" lon="5.24935">
        <ele>662.1</ele>
        <time>2021-05-31T10:47:27.000Z</time>
      </trkpt>
      <trkpt lat="44.1215" lon="5.24938">
        <ele>663.8</ele>
        <time>2021-05-31T10:47:31.000Z</time>
      </trkpt>
      <trkpt lat="44.1216" lon="5.24935">
        <ele>665</ele>
        <time>2021-05-31T10:47:33.000Z</time>
      </trkpt>
      <trkpt lat="44.12174" lon="5.24922">
        <ele>667</ele>
        <time>2021-05-31T10:47:38.000Z</time>
      </trkpt>
      <trkpt lat="44.12197" lon="5.24912">
        <ele>669.2</ele>
        <time>2021-05-31T10:47:43.000Z</time>
      </trkpt>
      <trkpt lat="44.12211" lon="5.24916">
        <ele>670.5</ele>
        <time>2021-05-31T10:47:46.000Z</time>
      </trkpt>
      <trkpt lat="44.12222" lon="5.24924">
        <ele>671.6</ele>
        <time>2021-05-31T10:47:49.000Z</time>
      </trkpt>
      <trkpt lat="44.12236" lon="5.24948">
        <ele>673.7</ele>
        <time>2021-05-31T10:47:54.000Z</time>
      </trkpt>
      <trkpt lat="44.1225" lon="5.24972">
        <ele>675.7</ele>
        <time>2021-05-31T10:47:59.000Z</time>
      </trkpt>
      <trkpt lat="44.12264" lon="5.24996">
        <ele>677.7</ele>
        <time>2021-05-31T10:48:04.000Z</time>
      </trkpt>
      <trkpt lat="44.12278" lon="5.2502">
        <ele>679.7</ele>
        <time>2021-05-31T10:48:08.000Z</time>
      </trkpt>
      <trkpt lat="44.12289" lon="5.25039">
        <ele>681.3</ele>
        <time>2021-05-31T10:48:12.000Z</time>
      </trkpt>
      <trkpt lat="44.123" lon="5.25059">
        <ele>682.9</ele>
        <time>2021-05-31T10:48:16.000Z</time>
      </trkpt>
      <trkpt lat="44.12312" lon="5.25078">
        <ele>684.6</ele>
        <time>2021-05-31T10:48:20.000Z</time>
      </trkpt>
      <trkpt lat="44.12323" lon="5.25097">
        <ele>686.2</ele>
        <time>2021-05-31T10:48:24.000Z</time>
      </trkpt>
      <trkpt lat="44.12334" lon="5.25116">
        <ele>687.8</ele>
        <time>2021-05-31T10:48:28.000Z</time>
      </trkpt>
      <trkpt lat="44.12348" lon="5.25141">
        <ele>689.8</ele>
        <time>2021-05-31T10:48:33.000Z</time>
      </trkpt>
      <trkpt lat="44.12362" lon="5.25165">
        <ele>691.8</ele>
        <time>2021-05-31T10:48:38.000Z</time>
      </trkpt>
      <trkpt lat="44.12376" lon="5.25189">
        <ele>693.9</ele>
        <time>2021-05-31T10:48:43.000Z</time>
      </trkpt>
      <trkpt lat="44.1239" lon="5.25213">
        <ele>696.1</ele>
        <time>2021-05-31T10:48:48.000Z</time>
      </trkpt>
      <trkpt lat="44.12401" lon="5.25232">
        <ele>697.8</ele>
        <time>2021-05-31T10:48:52.000Z</time>
      </trkpt>
      <trkpt lat="44.12412" lon="5.25251">
        <ele>699.6</ele>
        <time>2021-05-31T10:48:56.000Z</time>
      </trkpt>
      <trkpt lat="44.12424" lon="5.2527">
        <ele>701.3</ele>
        <time>2021-05-31T10:49:00.000Z</time>
      </trkpt>
      <trkpt lat="44.12435" lon="5.2529">
        <ele>703.1</ele>
        <time>2021-05-31T10:49:04.000Z</time>
      </trkpt>
      <trkpt lat="44.12446" lon="5.25309">
        <ele>704.8</ele>
        <time>2021-05-31T10:49:08.000Z</time>
      </trkpt>
      <trkpt lat="44.12462" lon="5.2534">
        <ele>707.4</ele>
        <time>2021-05-31T10:49:14.000Z</time>
      </trkpt>
      <trkpt lat="44.12467" lon="5.2536">
        <ele>708.9</ele>
        <time>2021-05-31T10:49:18.000Z</time>
      </trkpt>
      <trkpt lat="44.12467" lon="5.25388">
        <ele>710.8</ele>
        <time>2021-05-31T10:49:23.000Z</time>
      </trkpt>
      <trkpt lat="44.12467" lon="5.25417">
        <ele>712.8</ele>
        <time>2021-05-31T10:49:27.000Z</time>
      </trkpt>
      <trkpt lat="44.12467" lon="5.25445">
        <ele>714.8</ele>
        <time>2021-05-31T10:49:32.000Z</time>
      </trkpt>
      <trkpt lat="44.12466" lon="5.25473">
        <ele>716.7</ele>
        <time>2021-05-31T10:49:36.000Z</time>
      </trkpt>
      <trkpt lat="44.12466" lon="5.25502">
        <ele>718.7</ele>
        <time>2021-05-31T10:49:41.000Z</time>
      </trkpt>
      <trkpt lat="44.12466" lon="5.2553">
        <ele>720.6</ele>
        <time>2021-05-31T10:49:46.000Z</time>
      </trkpt>
      <trkpt lat="44.12468" lon="5.25551">
        <ele>722.1</ele>
        <time>2021-05-31T10:49:49.000Z</time>
      </trkpt>
      <trkpt lat="44.12469" lon="5.25573">
        <ele>723.6</ele>
        <time>2021-05-31T10:49:53.000Z</time>
      </trkpt>
      <trkpt lat="44.12474" lon="5.25601">
        <ele>725.6</ele>
        <time>2021-05-31T10:49:57.000Z</time>
      </trkpt>
      <trkpt lat="44.1248" lon="5.25626">
        <ele>727.5</ele>
        <time>2021-05-31T10:50:02.000Z</time>
      </trkpt>
      <trkpt lat="44.12486" lon="5.2565">
        <ele>729.5</ele>
        <time>2021-05-31T10:50:06.000Z</time>
      </trkpt>
      <trkpt lat="44.12493" lon="5.25675">
        <ele>731.6</ele>
        <time>2021-05-31T10:50:11.000Z</time>
      </trkpt>
      <trkpt lat="44.12499" lon="5.257">
        <ele>733.6</ele>
        <time>2021-05-31T10:50:16.000Z</time>
      </trkpt>
      <trkpt lat="44.12505" lon="5.25724">
        <ele>735.6</ele>
        <time>2021-05-31T10:50:20.000Z</time>
      </trkpt>
      <trkpt lat="44.12511" lon="5.25749">
        <ele>737.6</ele>
        <time>2021-05-31T10:50:25.000Z</time>
      </trkpt>
      <trkpt lat="44.12515" lon="5.25773">
        <ele>739.4</ele>
        <time>2021-05-31T10:50:29.000Z</time>
      </trkpt>
      <trkpt lat="44.12515" lon="5.258">
        <ele>741.5</ele>
        <time>2021-05-31T10:50:34.000Z</time>
      </trkpt>
      <trkpt lat="44.12509" lon="5.25821">
        <ele>743.2</ele>
        <time>2021-05-31T10:50:38.000Z</time>
      </trkpt>
      <trkpt lat="44.12496" lon="5.25841">
        <ele>745.2</ele>
        <time>2021-05-31T10:50:42.000Z</time>
      </trkpt>
      <trkpt lat="44.12483" lon="5.25861">
        <ele>747.2</ele>
        <time>2021-05-31T10:50:47.000Z</time>
      </trkpt>
      <trkpt lat="44.12466" lon="5.2588">
        <ele>749.5</ele>
        <time>2021-05-31T10:50:52.000Z</time>
      </trkpt>
      <trkpt lat="44.12449" lon="5.25899">
        <ele>751.9</ele>
        <time>2021-05-31T10:50:57.000Z</time>
      </trkpt>
      <trkpt lat="44.12439" lon="5.25917">
        <ele>753.8</ele>
        <time>2021-05-31T10:51:02.000Z</time>
      </trkpt>
      <trkpt lat="44.12437" lon="5.25928">
        <ele>754.7</ele>
        <time>2021-05-31T10:51:04.000Z</time>
      </trkpt>
      <trkpt lat="44.12435" lon="5.25938">
        <ele>755.6</ele>
        <time>2021-05-31T10:51:06.000Z</time>
      </trkpt>
      <trkpt lat="44.12433" lon="5.25971">
        <ele>758.4</ele>
        <time>2021-05-31T10:51:12.000Z</time>
      </trkpt>
      <trkpt lat="44.1243" lon="5.26004">
        <ele>761.1</ele>
        <time>2021-05-31T10:51:18.000Z</time>
      </trkpt>
      <trkpt lat="44.12428" lon="5.26037">
        <ele>763.8</ele>
        <time>2021-05-31T10:51:24.000Z</time>
      </trkpt>
      <trkpt lat="44.12429" lon="5.2606">
        <ele>765.8</ele>
        <time>2021-05-31T10:51:28.000Z</time>
      </trkpt>
      <trkpt lat="44.12432" lon="5.2608">
        <ele>767.5</ele>
        <time>2021-05-31T10:51:32.000Z</time>
      </trkpt>
      <trkpt lat="44.12437" lon="5.26099">
        <ele>769.2</ele>
        <time>2021-05-31T10:51:35.000Z</time>
      </trkpt>
      <trkpt lat="44.12445" lon="5.26116">
        <ele>771</ele>
        <time>2021-05-31T10:51:39.000Z</time>
      </trkpt>
      <trkpt lat="44.12452" lon="5.26133">
        <ele>772.9</ele>
        <time>2021-05-31T10:51:43.000Z</time>
      </trkpt>
      <trkpt lat="44.12456" lon="5.26151">
        <ele>774.6</ele>
        <time>2021-05-31T10:51:47.000Z</time>
      </trkpt>
      <trkpt lat="44.12457" lon="5.26167">
        <ele>776</ele>
        <time>2021-05-31T10:51:50.000Z</time>
      </trkpt>
      <trkpt lat="44.12453" lon="5.26189">
        <ele>777.8</ele>
        <time>2021-05-31T10:51:54.000Z</time>
      </trkpt>
      <trkpt lat="44.12449" lon="5.26211">
        <ele>779.6</ele>
        <time>2021-05-31T10:51:58.000Z</time>
      </trkpt>
      <trkpt lat="44.12445" lon="5.26234">
        <ele>781.5</ele>
        <time>2021-05-31T10:52:02.000Z</time>
      </trkpt>
      <trkpt lat="44.1244" lon="5.26256">
        <ele>783.4</ele>
        <time>2021-05-31T10:52:06.000Z</time>
      </trkpt>
      <trkpt lat="44.12436" lon="5.26278">
        <ele>785.4</ele>
        <time>2021-05-31T10:52:11.000Z</time>
      </trkpt>
      <trkpt lat="44.12432" lon="5.263">
        <ele>787.4</ele>
        <time>2021-05-31T10:52:15.000Z</time>
      </trkpt>
      <trkpt lat="44.1243" lon="5.26324">
        <ele>789.6</ele>
        <time>2021-05-31T10:52:20.000Z</time>
      </trkpt>
      <trkpt lat="44.12427" lon="5.26348">
        <ele>791.8</ele>
        <time>2021-05-31T10:52:24.000Z</time>
      </trkpt>
      <trkpt lat="44.12425" lon="5.26372">
        <ele>794</ele>
        <time>2021-05-31T10:52:29.000Z</time>
      </trkpt>
      <trkpt lat="44.1242" lon="5.26392">
        <ele>795.5</ele>
        <time>2021-05-31T10:52:33.000Z</time>
      </trkpt>
      <trkpt lat="44.1241" lon="5.26417">
        <ele>797.6</ele>
        <time>2021-05-31T10:52:37.000Z</time>
      </trkpt>
      <trkpt lat="44.12403" lon="5.26441">
        <ele>799.5</ele>
        <time>2021-05-31T10:52:42.000Z</time>
      </trkpt>
      <trkpt lat="44.12396" lon="5.26465">
        <ele>801.5</ele>
        <time>2021-05-31T10:52:46.000Z</time>
      </trkpt>
      <trkpt lat="44.12395" lon="5.26485">
        <ele>803.1</ele>
        <time>2021-05-31T10:52:50.000Z</time>
      </trkpt>
      <trkpt lat="44.12397" lon="5.26494">
        <ele>803.9</ele>
        <time>2021-05-31T10:52:52.000Z</time>
      </trkpt>
      <trkpt lat="44.12399" lon="5.26503">
        <ele>804.6</ele>
        <time>2021-05-31T10:52:53.000Z</time>
      </trkpt>
      <trkpt lat="44.1241" lon="5.2653">
        <ele>807.2</ele>
        <time>2021-05-31T10:52:59.000Z</time>
      </trkpt>
      <trkpt lat="44.12421" lon="5.26558">
        <ele>809.9</ele>
        <time>2021-05-31T10:53:05.000Z</time>
      </trkpt>
      <trkpt lat="44.12432" lon="5.26585">
        <ele>812.8</ele>
        <time>2021-05-31T10:53:11.000Z</time>
      </trkpt>
      <trkpt lat="44.12446" lon="5.26601">
        <ele>815.1</ele>
        <time>2021-05-31T10:53:16.000Z</time>
      </trkpt>
      <trkpt lat="44.12459" lon="5.26618">
        <ele>817.4</ele>
        <time>2021-05-31T10:53:21.000Z</time>
      </trkpt>
      <trkpt lat="44.1247" lon="5.26633">
        <ele>819.1</ele>
        <time>2021-05-31T10:53:25.000Z</time>
      </trkpt>
      <trkpt lat="44.12481" lon="5.26648">
        <ele>820.8</ele>
        <time>2021-05-31T10:53:28.000Z</time>
      </trkpt>
      <trkpt lat="44.12486" lon="5.26659">
        <ele>821.8</ele>
        <time>2021-05-31T10:53:31.000Z</time>
      </trkpt>
      <trkpt lat="44.12491" lon="5.26671">
        <ele>822.9</ele>
        <time>2021-05-31T10:53:33.000Z</time>
      </trkpt>
      <trkpt lat="44.12498" lon="5.2669">
        <ele>825.1</ele>
        <time>2021-05-31T10:53:38.000Z</time>
      </trkpt>
      <trkpt lat="44.12505" lon="5.26709">
        <ele>827.4</ele>
        <time>2021-05-31T10:53:42.000Z</time>
      </trkpt>
      <trkpt lat="44.12511" lon="5.26728">
        <ele>829.6</ele>
        <time>2021-05-31T10:53:47.000Z</time>
      </trkpt>
      <trkpt lat="44.12518" lon="5.26747">
        <ele>832</ele>
        <time>2021-05-31T10:53:52.000Z</time>
      </trkpt>
      <trkpt lat="44.12525" lon="5.26766">
        <ele>834.3</ele>
        <time>2021-05-31T10:53:56.000Z</time>
      </trkpt>
      <trkpt lat="44.12533" lon="5.26784">
        <ele>836.5</ele>
        <time>2021-05-31T10:54:01.000Z</time>
      </trkpt>
      <trkpt lat="44.12548" lon="5.26805">
        <ele>838.8</ele>
        <time>2021-05-31T10:54:06.000Z</time>
      </trkpt>
      <trkpt lat="44.12562" lon="5.26827">
        <ele>840.9</ele>
        <time>2021-05-31T10:54:11.000Z</time>
      </trkpt>
      <trkpt lat="44.12569" lon="5.26843">
        <ele>842.3</ele>
        <time>2021-05-31T10:54:14.000Z</time>
      </trkpt>
      <trkpt lat="44.12579" lon="5.26872">
        <ele>844.7</ele>
        <time>2021-05-31T10:54:20.000Z</time>
      </trkpt>
      <trkpt lat="44.12589" lon="5.26902">
        <ele>847</ele>
        <time>2021-05-31T10:54:25.000Z</time>
      </trkpt>
      <trkpt lat="44.12595" lon="5.26922">
        <ele>848.6</ele>
        <time>2021-05-31T10:54:29.000Z</time>
      </trkpt>
      <trkpt lat="44.12602" lon="5.26941">
        <ele>850.2</ele>
        <time>2021-05-31T10:54:32.000Z</time>
      </trkpt>
      <trkpt lat="44.12608" lon="5.26961">
        <ele>851.8</ele>
        <time>2021-05-31T10:54:36.000Z</time>
      </trkpt>
      <trkpt lat="44.12612" lon="5.26983">
        <ele>853.4</ele>
        <time>2021-05-31T10:54:40.000Z</time>
      </trkpt>
      <trkpt lat="44.12616" lon="5.27004">
        <ele>855</ele>
        <time>2021-05-31T10:54:44.000Z</time>
      </trkpt>
      <trkpt lat="44.1262" lon="5.27026">
        <ele>856.7</ele>
        <time>2021-05-31T10:54:47.000Z</time>
      </trkpt>
      <trkpt lat="44.12628" lon="5.27048">
        <ele>858.5</ele>
        <time>2021-05-31T10:54:52.000Z</time>
      </trkpt>
      <trkpt lat="44.12636" lon="5.27071">
        <ele>860.3</ele>
        <time>2021-05-31T10:54:56.000Z</time>
      </trkpt>
      <trkpt lat="44.12644" lon="5.27093">
        <ele>862.2</ele>
        <time>2021-05-31T10:55:00.000Z</time>
      </trkpt>
      <trkpt lat="44.12652" lon="5.27116">
        <ele>864</ele>
        <time>2021-05-31T10:55:04.000Z</time>
      </trkpt>
      <trkpt lat="44.12655" lon="5.27145">
        <ele>866.1</ele>
        <time>2021-05-31T10:55:09.000Z</time>
      </trkpt>
      <trkpt lat="44.12657" lon="5.27174">
        <ele>868.3</ele>
        <time>2021-05-31T10:55:14.000Z</time>
      </trkpt>
      <trkpt lat="44.1266" lon="5.27204">
        <ele>870.4</ele>
        <time>2021-05-31T10:55:19.000Z</time>
      </trkpt>
      <trkpt lat="44.12662" lon="5.27233">
        <ele>872.6</ele>
        <time>2021-05-31T10:55:24.000Z</time>
      </trkpt>
      <trkpt lat="44.12663" lon="5.27258">
        <ele>874.4</ele>
        <time>2021-05-31T10:55:29.000Z</time>
      </trkpt>
      <trkpt lat="44.12664" lon="5.27284">
        <ele>875.9</ele>
        <time>2021-05-31T10:55:32.000Z</time>
      </trkpt>
      <trkpt lat="44.12665" lon="5.27309">
        <ele>877.4</ele>
        <time>2021-05-31T10:55:36.000Z</time>
      </trkpt>
      <trkpt lat="44.12661" lon="5.27344">
        <ele>879.5</ele>
        <time>2021-05-31T10:55:41.000Z</time>
      </trkpt>
      <trkpt lat="44.12656" lon="5.27364">
        <ele>881.1</ele>
        <time>2021-05-31T10:55:45.000Z</time>
      </trkpt>
      <trkpt lat="44.12648" lon="5.27384">
        <ele>883</ele>
        <time>2021-05-31T10:55:49.000Z</time>
      </trkpt>
      <trkpt lat="44.12639" lon="5.27404">
        <ele>884.8</ele>
        <time>2021-05-31T10:55:53.000Z</time>
      </trkpt>
      <trkpt lat="44.12631" lon="5.27424">
        <ele>886.3</ele>
        <time>2021-05-31T10:55:57.000Z</time>
      </trkpt>
      <trkpt lat="44.12623" lon="5.27443">
        <ele>887.8</ele>
        <time>2021-05-31T10:56:00.000Z</time>
      </trkpt>
      <trkpt lat="44.12614" lon="5.27463">
        <ele>889.3</ele>
        <time>2021-05-31T10:56:04.000Z</time>
      </trkpt>
      <trkpt lat="44.12606" lon="5.27483">
        <ele>890.9</ele>
        <time>2021-05-31T10:56:08.000Z</time>
      </trkpt>
      <trkpt lat="44.12598" lon="5.27505">
        <ele>892.8</ele>
        <time>2021-05-31T10:56:12.000Z</time>
      </trkpt>
      <trkpt lat="44.1259" lon="5.27527">
        <ele>894.7</ele>
        <time>2021-05-31T10:56:16.000Z</time>
      </trkpt>
      <trkpt lat="44.12581" lon="5.27549">
        <ele>896.6</ele>
        <time>2021-05-31T10:56:21.000Z</time>
      </trkpt>
      <trkpt lat="44.12573" lon="5.27571">
        <ele>898.7</ele>
        <time>2021-05-31T10:56:25.000Z</time>
      </trkpt>
      <trkpt lat="44.12571" lon="5.2759">
        <ele>900.1</ele>
        <time>2021-05-31T10:56:29.000Z</time>
      </trkpt>
      <trkpt lat="44.12572" lon="5.27625">
        <ele>902.1</ele>
        <time>2021-05-31T10:56:34.000Z</time>
      </trkpt>
      <trkpt lat="44.12577" lon="5.27645">
        <ele>903.3</ele>
        <time>2021-05-31T10:56:37.000Z</time>
      </trkpt>
      <trkpt lat="44.12582" lon="5.27665">
        <ele>904.5</ele>
        <time>2021-05-31T10:56:40.000Z</time>
      </trkpt>
      <trkpt lat="44.12587" lon="5.27685">
        <ele>906</ele>
        <time>2021-05-31T10:56:43.000Z</time>
      </trkpt>
      <trkpt lat="44.12594" lon="5.27718">
        <ele>908.4</ele>
        <time>2021-05-31T10:56:49.000Z</time>
      </trkpt>
      <trkpt lat="44.126" lon="5.2775">
        <ele>910.8</ele>
        <time>2021-05-31T10:56:54.000Z</time>
      </trkpt>
      <trkpt lat="44.12607" lon="5.27783">
        <ele>912.5</ele>
        <time>2021-05-31T10:56:59.000Z</time>
      </trkpt>
      <trkpt lat="44.12613" lon="5.27816">
        <ele>914.3</ele>
        <time>2021-05-31T10:57:04.000Z</time>
      </trkpt>
      <trkpt lat="44.12619" lon="5.27828">
        <ele>915.4</ele>
        <time>2021-05-31T10:57:06.000Z</time>
      </trkpt>
      <trkpt lat="44.12633" lon="5.27842">
        <ele>917.3</ele>
        <time>2021-05-31T10:57:10.000Z</time>
      </trkpt>
      <trkpt lat="44.12646" lon="5.27856">
        <ele>919.2</ele>
        <time>2021-05-31T10:57:15.000Z</time>
      </trkpt>
      <trkpt lat="44.12652" lon="5.27869">
        <ele>920.4</ele>
        <time>2021-05-31T10:57:17.000Z</time>
      </trkpt>
      <trkpt lat="44.12654" lon="5.27885">
        <ele>921.6</ele>
        <time>2021-05-31T10:57:20.000Z</time>
      </trkpt>
      <trkpt lat="44.12655" lon="5.27921">
        <ele>924.1</ele>
        <time>2021-05-31T10:57:26.000Z</time>
      </trkpt>
      <trkpt lat="44.12655" lon="5.27958">
        <ele>926.6</ele>
        <time>2021-05-31T10:57:32.000Z</time>
      </trkpt>
      <trkpt lat="44.12656" lon="5.27994">
        <ele>928.9</ele>
        <time>2021-05-31T10:57:38.000Z</time>
      </trkpt>
      <trkpt lat="44.12658" lon="5.28021">
        <ele>930.7</ele>
        <time>2021-05-31T10:57:42.000Z</time>
      </trkpt>
      <trkpt lat="44.12659" lon="5.28048">
        <ele>932.6</ele>
        <time>2021-05-31T10:57:46.000Z</time>
      </trkpt>
      <trkpt lat="44.12663" lon="5.28067">
        <ele>934.1</ele>
        <time>2021-05-31T10:57:50.000Z</time>
      </trkpt>
      <trkpt lat="44.12671" lon="5.2809">
        <ele>936</ele>
        <time>2021-05-31T10:57:54.000Z</time>
      </trkpt>
      <trkpt lat="44.1268" lon="5.28114">
        <ele>937.4</ele>
        <time>2021-05-31T10:57:58.000Z</time>
      </trkpt>
      <trkpt lat="44.12688" lon="5.28137">
        <ele>938.8</ele>
        <time>2021-05-31T10:58:01.000Z</time>
      </trkpt>
      <trkpt lat="44.12696" lon="5.28161">
        <ele>940.3</ele>
        <time>2021-05-31T10:58:05.000Z</time>
      </trkpt>
      <trkpt lat="44.12701" lon="5.2818">
        <ele>941.8</ele>
        <time>2021-05-31T10:58:09.000Z</time>
      </trkpt>
      <trkpt lat="44.12703" lon="5.28191">
        <ele>942.6</ele>
        <time>2021-05-31T10:58:11.000Z</time>
      </trkpt>
      <trkpt lat="44.12704" lon="5.28202">
        <ele>943.5</ele>
        <time>2021-05-31T10:58:12.000Z</time>
      </trkpt>
      <trkpt lat="44.12701" lon="5.28233">
        <ele>945.9</ele>
        <time>2021-05-31T10:58:18.000Z</time>
      </trkpt>
      <trkpt lat="44.12698" lon="5.28264">
        <ele>948.4</ele>
        <time>2021-05-31T10:58:24.000Z</time>
      </trkpt>
      <trkpt lat="44.12695" lon="5.28295">
        <ele>951</ele>
        <time>2021-05-31T10:58:29.000Z</time>
      </trkpt>
      <trkpt lat="44.12692" lon="5.28326">
        <ele>953.6</ele>
        <time>2021-05-31T10:58:35.000Z</time>
      </trkpt>
      <trkpt lat="44.12697" lon="5.28351">
        <ele>955.8</ele>
        <time>2021-05-31T10:58:40.000Z</time>
      </trkpt>
      <trkpt lat="44.12704" lon="5.28359">
        <ele>956.9</ele>
        <time>2021-05-31T10:58:42.000Z</time>
      </trkpt>
      <trkpt lat="44.12726" lon="5.28374">
        <ele>959.8</ele>
        <time>2021-05-31T10:58:48.000Z</time>
      </trkpt>
      <trkpt lat="44.12739" lon="5.28377">
        <ele>961.4</ele>
        <time>2021-05-31T10:58:52.000Z</time>
      </trkpt>
      <trkpt lat="44.12751" lon="5.28376">
        <ele>962.9</ele>
        <time>2021-05-31T10:58:55.000Z</time>
      </trkpt>
      <trkpt lat="44.12776" lon="5.28365">
        <ele>966</ele>
        <time>2021-05-31T10:59:02.000Z</time>
      </trkpt>
      <trkpt lat="44.12786" lon="5.28363">
        <ele>967.1</ele>
        <time>2021-05-31T10:59:04.000Z</time>
      </trkpt>
      <trkpt lat="44.12805" lon="5.28367">
        <ele>969.2</ele>
        <time>2021-05-31T10:59:09.000Z</time>
      </trkpt>
      <trkpt lat="44.12823" lon="5.28371">
        <ele>971.2</ele>
        <time>2021-05-31T10:59:14.000Z</time>
      </trkpt>
      <trkpt lat="44.12842" lon="5.28375">
        <ele>972.8</ele>
        <time>2021-05-31T10:59:18.000Z</time>
      </trkpt>
      <trkpt lat="44.12855" lon="5.28373">
        <ele>973.9</ele>
        <time>2021-05-31T10:59:20.000Z</time>
      </trkpt>
      <trkpt lat="44.12868" lon="5.2837">
        <ele>975</ele>
        <time>2021-05-31T10:59:23.000Z</time>
      </trkpt>
      <trkpt lat="44.12875" lon="5.28375">
        <ele>975.6</ele>
        <time>2021-05-31T10:59:25.000Z</time>
      </trkpt>
      <trkpt lat="44.12875" lon="5.28386">
        <ele>976.2</ele>
        <time>2021-05-31T10:59:26.000Z</time>
      </trkpt>
      <trkpt lat="44.12873" lon="5.28391">
        <ele>976.5</ele>
        <time>2021-05-31T10:59:27.000Z</time>
      </trkpt>
      <trkpt lat="44.12855" lon="5.28401">
        <ele>977.9</ele>
        <time>2021-05-31T10:59:30.000Z</time>
      </trkpt>
      <trkpt lat="44.12849" lon="5.28406">
        <ele>978.5</ele>
        <time>2021-05-31T10:59:32.000Z</time>
      </trkpt>
      <trkpt lat="44.12845" lon="5.28414">
        <ele>979</ele>
        <time>2021-05-31T10:59:33.000Z</time>
      </trkpt>
      <trkpt lat="44.12843" lon="5.28425">
        <ele>979.7</ele>
        <time>2021-05-31T10:59:35.000Z</time>
      </trkpt>
      <trkpt lat="44.12848" lon="5.28444">
        <ele>980.9</ele>
        <time>2021-05-31T10:59:38.000Z</time>
      </trkpt>
      <trkpt lat="44.12861" lon="5.28466">
        <ele>982.7</ele>
        <time>2021-05-31T10:59:42.000Z</time>
      </trkpt>
      <trkpt lat="44.12874" lon="5.28488">
        <ele>984.5</ele>
        <time>2021-05-31T10:59:47.000Z</time>
      </trkpt>
      <trkpt lat="44.12883" lon="5.28509">
        <ele>986.2</ele>
        <time>2021-05-31T10:59:51.000Z</time>
      </trkpt>
      <trkpt lat="44.12887" lon="5.28533">
        <ele>987.9</ele>
        <time>2021-05-31T10:59:55.000Z</time>
      </trkpt>
      <trkpt lat="44.12888" lon="5.28553">
        <ele>989.5</ele>
        <time>2021-05-31T10:59:58.000Z</time>
      </trkpt>
      <trkpt lat="44.1289" lon="5.28573">
        <ele>991.2</ele>
        <time>2021-05-31T11:00:02.000Z</time>
      </trkpt>
      <trkpt lat="44.12891" lon="5.28593">
        <ele>992.9</ele>
        <time>2021-05-31T11:00:06.000Z</time>
      </trkpt>
      <trkpt lat="44.12895" lon="5.28615">
        <ele>994.8</ele>
        <time>2021-05-31T11:00:10.000Z</time>
      </trkpt>
      <trkpt lat="44.12905" lon="5.28637">
        <ele>996.8</ele>
        <time>2021-05-31T11:00:14.000Z</time>
      </trkpt>
      <trkpt lat="44.12916" lon="5.28651">
        <ele>998.4</ele>
        <time>2021-05-31T11:00:18.000Z</time>
      </trkpt>
      <trkpt lat="44.12927" lon="5.28666">
        <ele>1000.1</ele>
        <time>2021-05-31T11:00:22.000Z</time>
      </trkpt>
      <trkpt lat="44.12939" lon="5.2869">
        <ele>1002.6</ele>
        <time>2021-05-31T11:00:27.000Z</time>
      </trkpt>
      <trkpt lat="44.12951" lon="5.28715">
        <ele>1005.2</ele>
        <time>2021-05-31T11:00:33.000Z</time>
      </trkpt>
      <trkpt lat="44.12955" lon="5.2873">
        <ele>1006.6</ele>
        <time>2021-05-31T11:00:36.000Z</time>
      </trkpt>
      <trkpt lat="44.12958" lon="5.28746">
        <ele>1007.9</ele>
        <time>2021-05-31T11:00:39.000Z</time>
      </trkpt>
      <trkpt lat="44.12957" lon="5.28772">
        <ele>1009.8</ele>
        <time>2021-05-31T11:00:43.000Z</time>
      </trkpt>
      <trkpt lat="44.12956" lon="5.28798">
        <ele>1011.8</ele>
        <time>2021-05-31T11:00:48.000Z</time>
      </trkpt>
      <trkpt lat="44.12958" lon="5.28814">
        <ele>1013</ele>
        <time>2021-05-31T11:00:50.000Z</time>
      </trkpt>
      <trkpt lat="44.12963" lon="5.28824">
        <ele>1013.8</ele>
        <time>2021-05-31T11:00:52.000Z</time>
      </trkpt>
      <trkpt lat="44.12975" lon="5.28836">
        <ele>1015.2</ele>
        <time>2021-05-31T11:00:56.000Z</time>
      </trkpt>
      <trkpt lat="44.12997" lon="5.28852">
        <ele>1017.7</ele>
        <time>2021-05-31T11:01:02.000Z</time>
      </trkpt>
      <trkpt lat="44.13019" lon="5.28868">
        <ele>1020.4</ele>
        <time>2021-05-31T11:01:08.000Z</time>
      </trkpt>
      <trkpt lat="44.13041" lon="5.28884">
        <ele>1023.2</ele>
        <time>2021-05-31T11:01:14.000Z</time>
      </trkpt>
      <trkpt lat="44.13053" lon="5.28897">
        <ele>1024.6</ele>
        <time>2021-05-31T11:01:17.000Z</time>
      </trkpt>
      <trkpt lat="44.13064" lon="5.28916">
        <ele>1026.3</ele>
        <time>2021-05-31T11:01:21.000Z</time>
      </trkpt>
      <trkpt lat="44.13069" lon="5.28935">
        <ele>1027.7</ele>
        <time>2021-05-31T11:01:25.000Z</time>
      </trkpt>
      <trkpt lat="44.13075" lon="5.28953">
        <ele>1029.5</ele>
        <time>2021-05-31T11:01:28.000Z</time>
      </trkpt>
      <trkpt lat="44.1308" lon="5.28972">
        <ele>1031.3</ele>
        <time>2021-05-31T11:01:32.000Z</time>
      </trkpt>
      <trkpt lat="44.13085" lon="5.28991">
        <ele>1033.1</ele>
        <time>2021-05-31T11:01:36.000Z</time>
      </trkpt>
      <trkpt lat="44.13093" lon="5.29014">
        <ele>1035.4</ele>
        <time>2021-05-31T11:01:41.000Z</time>
      </trkpt>
      <trkpt lat="44.13101" lon="5.29037">
        <ele>1037.7</ele>
        <time>2021-05-31T11:01:46.000Z</time>
      </trkpt>
      <trkpt lat="44.13111" lon="5.29057">
        <ele>1040</ele>
        <time>2021-05-31T11:01:51.000Z</time>
      </trkpt>
      <trkpt lat="44.13122" lon="5.29074">
        <ele>1042</ele>
        <time>2021-05-31T11:01:55.000Z</time>
      </trkpt>
      <trkpt lat="44.13132" lon="5.29092">
        <ele>1044.2</ele>
        <time>2021-05-31T11:02:00.000Z</time>
      </trkpt>
      <trkpt lat="44.13143" lon="5.29109">
        <ele>1046.3</ele>
        <time>2021-05-31T11:02:04.000Z</time>
      </trkpt>
      <trkpt lat="44.13153" lon="5.29127">
        <ele>1048.3</ele>
        <time>2021-05-31T11:02:09.000Z</time>
      </trkpt>
      <trkpt lat="44.1316" lon="5.29147">
        <ele>1049.6</ele>
        <time>2021-05-31T11:02:12.000Z</time>
      </trkpt>
      <trkpt lat="44.13168" lon="5.29167">
        <ele>1050.8</ele>
        <time>2021-05-31T11:02:15.000Z</time>
      </trkpt>
      <trkpt lat="44.13175" lon="5.29187">
        <ele>1052.2</ele>
        <time>2021-05-31T11:02:18.000Z</time>
      </trkpt>
      <trkpt lat="44.13186" lon="5.29218">
        <ele>1055.5</ele>
        <time>2021-05-31T11:02:25.000Z</time>
      </trkpt>
      <trkpt lat="44.13197" lon="5.29248">
        <ele>1058.9</ele>
        <time>2021-05-31T11:02:32.000Z</time>
      </trkpt>
      <trkpt lat="44.13207" lon="5.2927">
        <ele>1060.9</ele>
        <time>2021-05-31T11:02:37.000Z</time>
      </trkpt>
      <trkpt lat="44.13216" lon="5.29293">
        <ele>1062.7</ele>
        <time>2021-05-31T11:02:41.000Z</time>
      </trkpt>
      <trkpt lat="44.13226" lon="5.29313">
        <ele>1064.5</ele>
        <time>2021-05-31T11:02:45.000Z</time>
      </trkpt>
      <trkpt lat="44.13236" lon="5.29334">
        <ele>1066.6</ele>
        <time>2021-05-31T11:02:50.000Z</time>
      </trkpt>
      <trkpt lat="44.13245" lon="5.29354">
        <ele>1068.7</ele>
        <time>2021-05-31T11:02:54.000Z</time>
      </trkpt>
      <trkpt lat="44.13255" lon="5.29375">
        <ele>1070.8</ele>
        <time>2021-05-31T11:02:59.000Z</time>
      </trkpt>
      <trkpt lat="44.13265" lon="5.29395">
        <ele>1073</ele>
        <time>2021-05-31T11:03:04.000Z</time>
      </trkpt>
      <trkpt lat="44.13274" lon="5.29411">
        <ele>1074.7</ele>
        <time>2021-05-31T11:03:07.000Z</time>
      </trkpt>
      <trkpt lat="44.13282" lon="5.29426">
        <ele>1076.3</ele>
        <time>2021-05-31T11:03:11.000Z</time>
      </trkpt>
      <trkpt lat="44.13291" lon="5.29442">
        <ele>1077.5</ele>
        <time>2021-05-31T11:03:14.000Z</time>
      </trkpt>
      <trkpt lat="44.13303" lon="5.29459">
        <ele>1078.8</ele>
        <time>2021-05-31T11:03:17.000Z</time>
      </trkpt>
      <trkpt lat="44.13314" lon="5.29477">
        <ele>1080.1</ele>
        <time>2021-05-31T11:03:20.000Z</time>
      </trkpt>
      <trkpt lat="44.13326" lon="5.29494">
        <ele>1081.6</ele>
        <time>2021-05-31T11:03:24.000Z</time>
      </trkpt>
      <trkpt lat="44.13337" lon="5.29517">
        <ele>1083.4</ele>
        <time>2021-05-31T11:03:28.000Z</time>
      </trkpt>
      <trkpt lat="44.13347" lon="5.29539">
        <ele>1085.2</ele>
        <time>2021-05-31T11:03:33.000Z</time>
      </trkpt>
      <trkpt lat="44.13358" lon="5.29562">
        <ele>1086.8</ele>
        <time>2021-05-31T11:03:37.000Z</time>
      </trkpt>
      <trkpt lat="44.13374" lon="5.29596">
        <ele>1089.3</ele>
        <time>2021-05-31T11:03:43.000Z</time>
      </trkpt>
      <trkpt lat="44.1339" lon="5.2963">
        <ele>1092.9</ele>
        <time>2021-05-31T11:03:51.000Z</time>
      </trkpt>
      <trkpt lat="44.13398" lon="5.29648">
        <ele>1094.9</ele>
        <time>2021-05-31T11:03:55.000Z</time>
      </trkpt>
      <trkpt lat="44.13406" lon="5.29666">
        <ele>1096.8</ele>
        <time>2021-05-31T11:03:59.000Z</time>
      </trkpt>
      <trkpt lat="44.13414" lon="5.29684">
        <ele>1098.4</ele>
        <time>2021-05-31T11:04:02.000Z</time>
      </trkpt>
      <trkpt lat="44.13426" lon="5.29712">
        <ele>1100.7</ele>
        <time>2021-05-31T11:04:08.000Z</time>
      </trkpt>
      <trkpt lat="44.13438" lon="5.29739">
        <ele>1103</ele>
        <time>2021-05-31T11:04:13.000Z</time>
      </trkpt>
      <trkpt lat="44.13445" lon="5.29764">
        <ele>1104.8</ele>
        <time>2021-05-31T11:04:18.000Z</time>
      </trkpt>
      <trkpt lat="44.13451" lon="5.2979">
        <ele>1106.6</ele>
        <time>2021-05-31T11:04:22.000Z</time>
      </trkpt>
      <trkpt lat="44.13453" lon="5.29808">
        <ele>1107.9</ele>
        <time>2021-05-31T11:04:25.000Z</time>
      </trkpt>
      <trkpt lat="44.13456" lon="5.29827">
        <ele>1109.2</ele>
        <time>2021-05-31T11:04:28.000Z</time>
      </trkpt>
      <trkpt lat="44.13458" lon="5.29845">
        <ele>1110.6</ele>
        <time>2021-05-31T11:04:31.000Z</time>
      </trkpt>
      <trkpt lat="44.1346" lon="5.29869">
        <ele>1112.4</ele>
        <time>2021-05-31T11:04:35.000Z</time>
      </trkpt>
      <trkpt lat="44.13462" lon="5.29893">
        <ele>1114.3</ele>
        <time>2021-05-31T11:04:40.000Z</time>
      </trkpt>
      <trkpt lat="44.13464" lon="5.29918">
        <ele>1116.3</ele>
        <time>2021-05-31T11:04:44.000Z</time>
      </trkpt>
      <trkpt lat="44.13467" lon="5.29942">
        <ele>1118.4</ele>
        <time>2021-05-31T11:04:49.000Z</time>
      </trkpt>
      <trkpt lat="44.13469" lon="5.29974">
        <ele>1121.1</ele>
        <time>2021-05-31T11:04:54.000Z</time>
      </trkpt>
      <trkpt lat="44.13472" lon="5.30007">
        <ele>1122.5</ele>
        <time>2021-05-31T11:04:58.000Z</time>
      </trkpt>
      <trkpt lat="44.13475" lon="5.30039">
        <ele>1124</ele>
        <time>2021-05-31T11:05:03.000Z</time>
      </trkpt>
      <trkpt lat="44.13483" lon="5.30088">
        <ele>1128.2</ele>
        <time>2021-05-31T11:05:12.000Z</time>
      </trkpt>
      <trkpt lat="44.13488" lon="5.301">
        <ele>1129.5</ele>
        <time>2021-05-31T11:05:14.000Z</time>
      </trkpt>
      <trkpt lat="44.13492" lon="5.30113">
        <ele>1130.8</ele>
        <time>2021-05-31T11:05:17.000Z</time>
      </trkpt>
      <trkpt lat="44.13504" lon="5.30133">
        <ele>1133.3</ele>
        <time>2021-05-31T11:05:23.000Z</time>
      </trkpt>
      <trkpt lat="44.13515" lon="5.30154">
        <ele>1135.7</ele>
        <time>2021-05-31T11:05:28.000Z</time>
      </trkpt>
      <trkpt lat="44.13527" lon="5.30174">
        <ele>1137.4</ele>
        <time>2021-05-31T11:05:32.000Z</time>
      </trkpt>
      <trkpt lat="44.13538" lon="5.30195">
        <ele>1139</ele>
        <time>2021-05-31T11:05:36.000Z</time>
      </trkpt>
      <trkpt lat="44.1355" lon="5.30215">
        <ele>1140.7</ele>
        <time>2021-05-31T11:05:40.000Z</time>
      </trkpt>
      <trkpt lat="44.13561" lon="5.30236">
        <ele>1142.5</ele>
        <time>2021-05-31T11:05:44.000Z</time>
      </trkpt>
      <trkpt lat="44.13573" lon="5.30256">
        <ele>1144.4</ele>
        <time>2021-05-31T11:05:48.000Z</time>
      </trkpt>
      <trkpt lat="44.13584" lon="5.30277">
        <ele>1146.2</ele>
        <time>2021-05-31T11:05:53.000Z</time>
      </trkpt>
      <trkpt lat="44.13589" lon="5.30298">
        <ele>1147.7</ele>
        <time>2021-05-31T11:05:56.000Z</time>
      </trkpt>
      <trkpt lat="44.13589" lon="5.30309">
        <ele>1148.4</ele>
        <time>2021-05-31T11:05:58.000Z</time>
      </trkpt>
      <trkpt lat="44.13589" lon="5.30319">
        <ele>1149.1</ele>
        <time>2021-05-31T11:06:00.000Z</time>
      </trkpt>
      <trkpt lat="44.13587" lon="5.30334">
        <ele>1150.1</ele>
        <time>2021-05-31T11:06:02.000Z</time>
      </trkpt>
      <trkpt lat="44.13581" lon="5.30366">
        <ele>1152.3</ele>
        <time>2021-05-31T11:06:07.000Z</time>
      </trkpt>
      <trkpt lat="44.13574" lon="5.30399">
        <ele>1154.6</ele>
        <time>2021-05-31T11:06:13.000Z</time>
      </trkpt>
      <trkpt lat="44.13568" lon="5.30431">
        <ele>1156.8</ele>
        <time>2021-05-31T11:06:18.000Z</time>
      </trkpt>
      <trkpt lat="44.13561" lon="5.30463">
        <ele>1159</ele>
        <time>2021-05-31T11:06:23.000Z</time>
      </trkpt>
      <trkpt lat="44.13557" lon="5.30487">
        <ele>1160.7</ele>
        <time>2021-05-31T11:06:27.000Z</time>
      </trkpt>
      <trkpt lat="44.13553" lon="5.30512">
        <ele>1162.4</ele>
        <time>2021-05-31T11:06:31.000Z</time>
      </trkpt>
      <trkpt lat="44.13549" lon="5.30536">
        <ele>1164</ele>
        <time>2021-05-31T11:06:35.000Z</time>
      </trkpt>
      <trkpt lat="44.13547" lon="5.30562">
        <ele>1165.8</ele>
        <time>2021-05-31T11:06:39.000Z</time>
      </trkpt>
      <trkpt lat="44.13549" lon="5.30599">
        <ele>1168.2</ele>
        <time>2021-05-31T11:06:45.000Z</time>
      </trkpt>
      <trkpt lat="44.13554" lon="5.30626">
        <ele>1169.7</ele>
        <time>2021-05-31T11:06:49.000Z</time>
      </trkpt>
      <trkpt lat="44.13561" lon="5.30646">
        <ele>1170.9</ele>
        <time>2021-05-31T11:06:52.000Z</time>
      </trkpt>
      <trkpt lat="44.13567" lon="5.30666">
        <ele>1172.2</ele>
        <time>2021-05-31T11:06:55.000Z</time>
      </trkpt>
      <trkpt lat="44.13581" lon="5.30692">
        <ele>1175.1</ele>
        <time>2021-05-31T11:07:02.000Z</time>
      </trkpt>
      <trkpt lat="44.13595" lon="5.30719">
        <ele>1178.1</ele>
        <time>2021-05-31T11:07:08.000Z</time>
      </trkpt>
      <trkpt lat="44.1361" lon="5.30742">
        <ele>1180.1</ele>
        <time>2021-05-31T11:07:13.000Z</time>
      </trkpt>
      <trkpt lat="44.13626" lon="5.30763">
        <ele>1182</ele>
        <time>2021-05-31T11:07:18.000Z</time>
      </trkpt>
      <trkpt lat="44.13642" lon="5.30783">
        <ele>1183.9</ele>
        <time>2021-05-31T11:07:22.000Z</time>
      </trkpt>
      <trkpt lat="44.13658" lon="5.30804">
        <ele>1185.9</ele>
        <time>2021-05-31T11:07:27.000Z</time>
      </trkpt>
      <trkpt lat="44.13675" lon="5.30825">
        <ele>1188</ele>
        <time>2021-05-31T11:07:32.000Z</time>
      </trkpt>
      <trkpt lat="44.13687" lon="5.30842">
        <ele>1189.6</ele>
        <time>2021-05-31T11:07:36.000Z</time>
      </trkpt>
      <trkpt lat="44.137" lon="5.30858">
        <ele>1190.9</ele>
        <time>2021-05-31T11:07:39.000Z</time>
      </trkpt>
      <trkpt lat="44.13713" lon="5.30875">
        <ele>1192.2</ele>
        <time>2021-05-31T11:07:43.000Z</time>
      </trkpt>
      <trkpt lat="44.13726" lon="5.30891">
        <ele>1193.5</ele>
        <time>2021-05-31T11:07:46.000Z</time>
      </trkpt>
      <trkpt lat="44.13739" lon="5.30908">
        <ele>1195</ele>
        <time>2021-05-31T11:07:50.000Z</time>
      </trkpt>
      <trkpt lat="44.13756" lon="5.30937">
        <ele>1197.5</ele>
        <time>2021-05-31T11:07:56.000Z</time>
      </trkpt>
      <trkpt lat="44.13767" lon="5.30962">
        <ele>1199.4</ele>
        <time>2021-05-31T11:08:00.000Z</time>
      </trkpt>
      <trkpt lat="44.13778" lon="5.3099">
        <ele>1201.7</ele>
        <time>2021-05-31T11:08:06.000Z</time>
      </trkpt>
      <trkpt lat="44.13788" lon="5.31019">
        <ele>1204</ele>
        <time>2021-05-31T11:08:11.000Z</time>
      </trkpt>
      <trkpt lat="44.13795" lon="5.31038">
        <ele>1205.4</ele>
        <time>2021-05-31T11:08:14.000Z</time>
      </trkpt>
      <trkpt lat="44.13802" lon="5.31057">
        <ele>1206.7</ele>
        <time>2021-05-31T11:08:18.000Z</time>
      </trkpt>
      <trkpt lat="44.13809" lon="5.31076">
        <ele>1208.1</ele>
        <time>2021-05-31T11:08:21.000Z</time>
      </trkpt>
      <trkpt lat="44.13813" lon="5.31094">
        <ele>1209.5</ele>
        <time>2021-05-31T11:08:24.000Z</time>
      </trkpt>
      <trkpt lat="44.13816" lon="5.31112">
        <ele>1210.9</ele>
        <time>2021-05-31T11:08:27.000Z</time>
      </trkpt>
      <trkpt lat="44.13814" lon="5.31137">
        <ele>1212.8</ele>
        <time>2021-05-31T11:08:32.000Z</time>
      </trkpt>
      <trkpt lat="44.13812" lon="5.31161">
        <ele>1214.7</ele>
        <time>2021-05-31T11:08:36.000Z</time>
      </trkpt>
      <trkpt lat="44.13814" lon="5.31183">
        <ele>1216.6</ele>
        <time>2021-05-31T11:08:40.000Z</time>
      </trkpt>
      <trkpt lat="44.13822" lon="5.31209">
        <ele>1219.1</ele>
        <time>2021-05-31T11:08:45.000Z</time>
      </trkpt>
      <trkpt lat="44.13829" lon="5.31234">
        <ele>1221.6</ele>
        <time>2021-05-31T11:08:51.000Z</time>
      </trkpt>
      <trkpt lat="44.13837" lon="5.3126">
        <ele>1223.8</ele>
        <time>2021-05-31T11:08:56.000Z</time>
      </trkpt>
      <trkpt lat="44.1384" lon="5.31286">
        <ele>1225.8</ele>
        <time>2021-05-31T11:09:00.000Z</time>
      </trkpt>
      <trkpt lat="44.13843" lon="5.31313">
        <ele>1227.8</ele>
        <time>2021-05-31T11:09:05.000Z</time>
      </trkpt>
      <trkpt lat="44.13846" lon="5.31339">
        <ele>1229.9</ele>
        <time>2021-05-31T11:09:10.000Z</time>
      </trkpt>
      <trkpt lat="44.13852" lon="5.31365">
        <ele>1231.9</ele>
        <time>2021-05-31T11:09:14.000Z</time>
      </trkpt>
      <trkpt lat="44.13858" lon="5.31391">
        <ele>1234</ele>
        <time>2021-05-31T11:09:19.000Z</time>
      </trkpt>
      <trkpt lat="44.13868" lon="5.31412">
        <ele>1235.8</ele>
        <time>2021-05-31T11:09:23.000Z</time>
      </trkpt>
      <trkpt lat="44.13877" lon="5.31434">
        <ele>1237.6</ele>
        <time>2021-05-31T11:09:27.000Z</time>
      </trkpt>
      <trkpt lat="44.13887" lon="5.31455">
        <ele>1239.5</ele>
        <time>2021-05-31T11:09:32.000Z</time>
      </trkpt>
      <trkpt lat="44.13899" lon="5.31474">
        <ele>1241.7</ele>
        <time>2021-05-31T11:09:36.000Z</time>
      </trkpt>
      <trkpt lat="44.1391" lon="5.31493">
        <ele>1244</ele>
        <time>2021-05-31T11:09:41.000Z</time>
      </trkpt>
      <trkpt lat="44.13922" lon="5.31512">
        <ele>1246.2</ele>
        <time>2021-05-31T11:09:46.000Z</time>
      </trkpt>
      <trkpt lat="44.13934" lon="5.31531">
        <ele>1248.1</ele>
        <time>2021-05-31T11:09:50.000Z</time>
      </trkpt>
      <trkpt lat="44.13945" lon="5.3155">
        <ele>1250</ele>
        <time>2021-05-31T11:09:55.000Z</time>
      </trkpt>
      <trkpt lat="44.13957" lon="5.31569">
        <ele>1251.8</ele>
        <time>2021-05-31T11:09:59.000Z</time>
      </trkpt>
      <trkpt lat="44.1397" lon="5.31588">
        <ele>1253.6</ele>
        <time>2021-05-31T11:10:03.000Z</time>
      </trkpt>
      <trkpt lat="44.13983" lon="5.31607">
        <ele>1255.3</ele>
        <time>2021-05-31T11:10:07.000Z</time>
      </trkpt>
      <trkpt lat="44.13996" lon="5.31626">
        <ele>1257</ele>
        <time>2021-05-31T11:10:11.000Z</time>
      </trkpt>
      <trkpt lat="44.14006" lon="5.31639">
        <ele>1258.3</ele>
        <time>2021-05-31T11:10:15.000Z</time>
      </trkpt>
      <trkpt lat="44.14016" lon="5.31652">
        <ele>1259.6</ele>
        <time>2021-05-31T11:10:18.000Z</time>
      </trkpt>
      <trkpt lat="44.14026" lon="5.31664">
        <ele>1260.9</ele>
        <time>2021-05-31T11:10:21.000Z</time>
      </trkpt>
      <trkpt lat="44.14035" lon="5.31677">
        <ele>1262.3</ele>
        <time>2021-05-31T11:10:24.000Z</time>
      </trkpt>
      <trkpt lat="44.14045" lon="5.3169">
        <ele>1264</ele>
        <time>2021-05-31T11:10:27.000Z</time>
      </trkpt>
      <trkpt lat="44.14055" lon="5.31703">
        <ele>1265.7</ele>
        <time>2021-05-31T11:10:31.000Z</time>
      </trkpt>
      <trkpt lat="44.14071" lon="5.31729">
        <ele>1268.8</ele>
        <time>2021-05-31T11:10:38.000Z</time>
      </trkpt>
      <trkpt lat="44.14088" lon="5.31754">
        <ele>1271.4</ele>
        <time>2021-05-31T11:10:44.000Z</time>
      </trkpt>
      <trkpt lat="44.14104" lon="5.3178">
        <ele>1274</ele>
        <time>2021-05-31T11:10:50.000Z</time>
      </trkpt>
      <trkpt lat="44.14121" lon="5.31799">
        <ele>1275.9</ele>
        <time>2021-05-31T11:10:54.000Z</time>
      </trkpt>
      <trkpt lat="44.14137" lon="5.31818">
        <ele>1277.7</ele>
        <time>2021-05-31T11:10:59.000Z</time>
      </trkpt>
      <trkpt lat="44.14148" lon="5.31827">
        <ele>1278.9</ele>
        <time>2021-05-31T11:11:02.000Z</time>
      </trkpt>
      <trkpt lat="44.14159" lon="5.31837">
        <ele>1280.2</ele>
        <time>2021-05-31T11:11:05.000Z</time>
      </trkpt>
      <trkpt lat="44.14178" lon="5.31849">
        <ele>1282.4</ele>
        <time>2021-05-31T11:11:10.000Z</time>
      </trkpt>
      <trkpt lat="44.14188" lon="5.31849">
        <ele>1283.5</ele>
        <time>2021-05-31T11:11:12.000Z</time>
      </trkpt>
      <trkpt lat="44.14205" lon="5.31845">
        <ele>1285.2</ele>
        <time>2021-05-31T11:11:16.000Z</time>
      </trkpt>
      <trkpt lat="44.14221" lon="5.3184">
        <ele>1287.1</ele>
        <time>2021-05-31T11:11:20.000Z</time>
      </trkpt>
      <trkpt lat="44.14232" lon="5.3184">
        <ele>1288.3</ele>
        <time>2021-05-31T11:11:23.000Z</time>
      </trkpt>
      <trkpt lat="44.14246" lon="5.31847">
        <ele>1289.8</ele>
        <time>2021-05-31T11:11:26.000Z</time>
      </trkpt>
      <trkpt lat="44.14259" lon="5.31855">
        <ele>1291.4</ele>
        <time>2021-05-31T11:11:30.000Z</time>
      </trkpt>
      <trkpt lat="44.14269" lon="5.31857">
        <ele>1292.4</ele>
        <time>2021-05-31T11:11:32.000Z</time>
      </trkpt>
      <trkpt lat="44.1428" lon="5.31855">
        <ele>1293.4</ele>
        <time>2021-05-31T11:11:35.000Z</time>
      </trkpt>
      <trkpt lat="44.14296" lon="5.31842">
        <ele>1295.1</ele>
        <time>2021-05-31T11:11:39.000Z</time>
      </trkpt>
      <trkpt lat="44.14312" lon="5.31829">
        <ele>1296.9</ele>
        <time>2021-05-31T11:11:43.000Z</time>
      </trkpt>
      <trkpt lat="44.14328" lon="5.31816">
        <ele>1299</ele>
        <time>2021-05-31T11:11:48.000Z</time>
      </trkpt>
      <trkpt lat="44.14342" lon="5.31807">
        <ele>1300.8</ele>
        <time>2021-05-31T11:11:52.000Z</time>
      </trkpt>
      <trkpt lat="44.14355" lon="5.31797">
        <ele>1302.6</ele>
        <time>2021-05-31T11:11:56.000Z</time>
      </trkpt>
      <trkpt lat="44.14373" lon="5.31778">
        <ele>1305</ele>
        <time>2021-05-31T11:12:01.000Z</time>
      </trkpt>
      <trkpt lat="44.1439" lon="5.31759">
        <ele>1307.5</ele>
        <time>2021-05-31T11:12:07.000Z</time>
      </trkpt>
      <trkpt lat="44.14408" lon="5.31747">
        <ele>1309.6</ele>
        <time>2021-05-31T11:12:11.000Z</time>
      </trkpt>
      <trkpt lat="44.1442" lon="5.31744">
        <ele>1310.9</ele>
        <time>2021-05-31T11:12:14.000Z</time>
      </trkpt>
      <trkpt lat="44.14438" lon="5.31742">
        <ele>1312.8</ele>
        <time>2021-05-31T11:12:19.000Z</time>
      </trkpt>
      <trkpt lat="44.14456" lon="5.3174">
        <ele>1314.7</ele>
        <time>2021-05-31T11:12:23.000Z</time>
      </trkpt>
      <trkpt lat="44.14471" lon="5.31741">
        <ele>1316.7</ele>
        <time>2021-05-31T11:12:27.000Z</time>
      </trkpt>
      <trkpt lat="44.14491" lon="5.31745">
        <ele>1319.3</ele>
        <time>2021-05-31T11:12:33.000Z</time>
      </trkpt>
      <trkpt lat="44.1451" lon="5.31748">
        <ele>1321.9</ele>
        <time>2021-05-31T11:12:38.000Z</time>
      </trkpt>
      <trkpt lat="44.1453" lon="5.31752">
        <ele>1323.5</ele>
        <time>2021-05-31T11:12:42.000Z</time>
      </trkpt>
      <trkpt lat="44.14548" lon="5.31756">
        <ele>1324.9</ele>
        <time>2021-05-31T11:12:46.000Z</time>
      </trkpt>
      <trkpt lat="44.14565" lon="5.31761">
        <ele>1326.2</ele>
        <time>2021-05-31T11:12:49.000Z</time>
      </trkpt>
      <trkpt lat="44.14579" lon="5.31769">
        <ele>1327.1</ele>
        <time>2021-05-31T11:12:52.000Z</time>
      </trkpt>
      <trkpt lat="44.14585" lon="5.31769">
        <ele>1327.5</ele>
        <time>2021-05-31T11:12:53.000Z</time>
      </trkpt>
      <trkpt lat="44.14589" lon="5.31766">
        <ele>1327.8</ele>
        <time>2021-05-31T11:12:54.000Z</time>
      </trkpt>
      <trkpt lat="44.14591" lon="5.31761">
        <ele>1328</ele>
        <time>2021-05-31T11:12:54.000Z</time>
      </trkpt>
      <trkpt lat="44.14587" lon="5.31747">
        <ele>1328.7</ele>
        <time>2021-05-31T11:12:56.000Z</time>
      </trkpt>
      <trkpt lat="44.14574" lon="5.31721">
        <ele>1330</ele>
        <time>2021-05-31T11:13:00.000Z</time>
      </trkpt>
      <trkpt lat="44.1456" lon="5.31696">
        <ele>1331.4</ele>
        <time>2021-05-31T11:13:04.000Z</time>
      </trkpt>
      <trkpt lat="44.14547" lon="5.3167">
        <ele>1332.8</ele>
        <time>2021-05-31T11:13:08.000Z</time>
      </trkpt>
      <trkpt lat="44.14544" lon="5.31657">
        <ele>1333.4</ele>
        <time>2021-05-31T11:13:09.000Z</time>
      </trkpt>
      <trkpt lat="44.14547" lon="5.31639">
        <ele>1334.2</ele>
        <time>2021-05-31T11:13:12.000Z</time>
      </trkpt>
      <trkpt lat="44.14562" lon="5.31614">
        <ele>1335.5</ele>
        <time>2021-05-31T11:13:15.000Z</time>
      </trkpt>
      <trkpt lat="44.14576" lon="5.31589">
        <ele>1335.8</ele>
        <time>2021-05-31T11:13:18.000Z</time>
      </trkpt>
      <trkpt lat="44.1459" lon="5.31563">
        <ele>1336.2</ele>
        <time>2021-05-31T11:13:21.000Z</time>
      </trkpt>
      <trkpt lat="44.14603" lon="5.31536">
        <ele>1338.3</ele>
        <time>2021-05-31T11:13:26.000Z</time>
      </trkpt>
      <trkpt lat="44.14617" lon="5.31525">
        <ele>1339.8</ele>
        <time>2021-05-31T11:13:29.000Z</time>
      </trkpt>
      <trkpt lat="44.14623" lon="5.31524">
        <ele>1340.4</ele>
        <time>2021-05-31T11:13:31.000Z</time>
      </trkpt>
      <trkpt lat="44.14648" lon="5.31527">
        <ele>1342.7</ele>
        <time>2021-05-31T11:13:36.000Z</time>
      </trkpt>
      <trkpt lat="44.14668" lon="5.31532">
        <ele>1344.7</ele>
        <time>2021-05-31T11:13:41.000Z</time>
      </trkpt>
      <trkpt lat="44.14688" lon="5.31538">
        <ele>1346.9</ele>
        <time>2021-05-31T11:13:46.000Z</time>
      </trkpt>
      <trkpt lat="44.14702" lon="5.31545">
        <ele>1348.6</ele>
        <time>2021-05-31T11:13:50.000Z</time>
      </trkpt>
      <trkpt lat="44.14714" lon="5.31555">
        <ele>1350.2</ele>
        <time>2021-05-31T11:13:53.000Z</time>
      </trkpt>
      <trkpt lat="44.14733" lon="5.31582">
        <ele>1353.3</ele>
        <time>2021-05-31T11:14:00.000Z</time>
      </trkpt>
      <trkpt lat="44.14749" lon="5.31597">
        <ele>1355.4</ele>
        <time>2021-05-31T11:14:05.000Z</time>
      </trkpt>
      <trkpt lat="44.14778" lon="5.31608">
        <ele>1357.9</ele>
        <time>2021-05-31T11:14:11.000Z</time>
      </trkpt>
      <trkpt lat="44.14791" lon="5.31612">
        <ele>1358.9</ele>
        <time>2021-05-31T11:14:14.000Z</time>
      </trkpt>
      <trkpt lat="44.14804" lon="5.31617">
        <ele>1360.1</ele>
        <time>2021-05-31T11:14:16.000Z</time>
      </trkpt>
      <trkpt lat="44.14832" lon="5.31633">
        <ele>1363.3</ele>
        <time>2021-05-31T11:14:24.000Z</time>
      </trkpt>
      <trkpt lat="44.14847" lon="5.31642">
        <ele>1365</ele>
        <time>2021-05-31T11:14:28.000Z</time>
      </trkpt>
      <trkpt lat="44.14861" lon="5.31652">
        <ele>1366.7</ele>
        <time>2021-05-31T11:14:31.000Z</time>
      </trkpt>
      <trkpt lat="44.14876" lon="5.31661">
        <ele>1368.3</ele>
        <time>2021-05-31T11:14:35.000Z</time>
      </trkpt>
      <trkpt lat="44.14897" lon="5.31675">
        <ele>1370.8</ele>
        <time>2021-05-31T11:14:41.000Z</time>
      </trkpt>
      <trkpt lat="44.14919" lon="5.31689">
        <ele>1372.7</ele>
        <time>2021-05-31T11:14:46.000Z</time>
      </trkpt>
      <trkpt lat="44.14937" lon="5.31701">
        <ele>1374.3</ele>
        <time>2021-05-31T11:14:50.000Z</time>
      </trkpt>
      <trkpt lat="44.14956" lon="5.31714">
        <ele>1375.8</ele>
        <time>2021-05-31T11:14:54.000Z</time>
      </trkpt>
      <trkpt lat="44.14974" lon="5.31726">
        <ele>1377.4</ele>
        <time>2021-05-31T11:14:58.000Z</time>
      </trkpt>
      <trkpt lat="44.14992" lon="5.31739">
        <ele>1379</ele>
        <time>2021-05-31T11:15:02.000Z</time>
      </trkpt>
      <trkpt lat="44.15014" lon="5.3175">
        <ele>1380.7</ele>
        <time>2021-05-31T11:15:06.000Z</time>
      </trkpt>
      <trkpt lat="44.15033" lon="5.31758">
        <ele>1381.6</ele>
        <time>2021-05-31T11:15:09.000Z</time>
      </trkpt>
      <trkpt lat="44.15053" lon="5.31766">
        <ele>1382.4</ele>
        <time>2021-05-31T11:15:12.000Z</time>
      </trkpt>
      <trkpt lat="44.15072" lon="5.31774">
        <ele>1383.2</ele>
        <time>2021-05-31T11:15:15.000Z</time>
      </trkpt>
      <trkpt lat="44.15092" lon="5.3179">
        <ele>1384.2</ele>
        <time>2021-05-31T11:15:18.000Z</time>
      </trkpt>
      <trkpt lat="44.15111" lon="5.31806">
        <ele>1385.3</ele>
        <time>2021-05-31T11:15:21.000Z</time>
      </trkpt>
      <trkpt lat="44.15129" lon="5.31824">
        <ele>1386.5</ele>
        <time>2021-05-31T11:15:25.000Z</time>
      </trkpt>
      <trkpt lat="44.15147" lon="5.31841">
        <ele>1387.8</ele>
        <time>2021-05-31T11:15:29.000Z</time>
      </trkpt>
      <trkpt lat="44.15165" lon="5.31859">
        <ele>1389</ele>
        <time>2021-05-31T11:15:32.000Z</time>
      </trkpt>
      <trkpt lat="44.15183" lon="5.31877">
        <ele>1390.1</ele>
        <time>2021-05-31T11:15:36.000Z</time>
      </trkpt>
      <trkpt lat="44.15198" lon="5.31886">
        <ele>1391</ele>
        <time>2021-05-31T11:15:38.000Z</time>
      </trkpt>
      <trkpt lat="44.15203" lon="5.31886">
        <ele>1391.2</ele>
        <time>2021-05-31T11:15:39.000Z</time>
      </trkpt>
      <trkpt lat="44.1521" lon="5.3188">
        <ele>1391.6</ele>
        <time>2021-05-31T11:15:40.000Z</time>
      </trkpt>
      <trkpt lat="44.1522" lon="5.31868">
        <ele>1392.3</ele>
        <time>2021-05-31T11:15:42.000Z</time>
      </trkpt>
      <trkpt lat="44.15222" lon="5.31858">
        <ele>1392.7</ele>
        <time>2021-05-31T11:15:43.000Z</time>
      </trkpt>
      <trkpt lat="44.15222" lon="5.31839">
        <ele>1393.4</ele>
        <time>2021-05-31T11:15:46.000Z</time>
      </trkpt>
      <trkpt lat="44.15214" lon="5.31812">
        <ele>1394.5</ele>
        <time>2021-05-31T11:15:49.000Z</time>
      </trkpt>
      <trkpt lat="44.15207" lon="5.31786">
        <ele>1396.6</ele>
        <time>2021-05-31T11:15:54.000Z</time>
      </trkpt>
      <trkpt lat="44.15199" lon="5.31759">
        <ele>1398.7</ele>
        <time>2021-05-31T11:15:59.000Z</time>
      </trkpt>
      <trkpt lat="44.15191" lon="5.31733">
        <ele>1400.8</ele>
        <time>2021-05-31T11:16:03.000Z</time>
      </trkpt>
      <trkpt lat="44.15179" lon="5.31703">
        <ele>1402.7</ele>
        <time>2021-05-31T11:16:08.000Z</time>
      </trkpt>
      <trkpt lat="44.15168" lon="5.31673">
        <ele>1404.6</ele>
        <time>2021-05-31T11:16:13.000Z</time>
      </trkpt>
      <trkpt lat="44.15156" lon="5.31643">
        <ele>1406.2</ele>
        <time>2021-05-31T11:16:17.000Z</time>
      </trkpt>
      <trkpt lat="44.1515" lon="5.31619">
        <ele>1407.4</ele>
        <time>2021-05-31T11:16:21.000Z</time>
      </trkpt>
      <trkpt lat="44.15143" lon="5.31595">
        <ele>1408.7</ele>
        <time>2021-05-31T11:16:24.000Z</time>
      </trkpt>
      <trkpt lat="44.15137" lon="5.31571">
        <ele>1410.4</ele>
        <time>2021-05-31T11:16:28.000Z</time>
      </trkpt>
      <trkpt lat="44.15131" lon="5.31548">
        <ele>1412.1</ele>
        <time>2021-05-31T11:16:32.000Z</time>
      </trkpt>
      <trkpt lat="44.15124" lon="5.31524">
        <ele>1413.8</ele>
        <time>2021-05-31T11:16:36.000Z</time>
      </trkpt>
      <trkpt lat="44.15118" lon="5.315">
        <ele>1414.9</ele>
        <time>2021-05-31T11:16:39.000Z</time>
      </trkpt>
      <trkpt lat="44.15115" lon="5.31491">
        <ele>1415.4</ele>
        <time>2021-05-31T11:16:41.000Z</time>
      </trkpt>
      <trkpt lat="44.151" lon="5.31465">
        <ele>1416.9</ele>
        <time>2021-05-31T11:16:45.000Z</time>
      </trkpt>
      <trkpt lat="44.15095" lon="5.31455">
        <ele>1417.7</ele>
        <time>2021-05-31T11:16:47.000Z</time>
      </trkpt>
      <trkpt lat="44.1509" lon="5.3144">
        <ele>1418.9</ele>
        <time>2021-05-31T11:16:50.000Z</time>
      </trkpt>
      <trkpt lat="44.15089" lon="5.31426">
        <ele>1419.9</ele>
        <time>2021-05-31T11:16:52.000Z</time>
      </trkpt>
      <trkpt lat="44.15097" lon="5.314">
        <ele>1422</ele>
        <time>2021-05-31T11:16:57.000Z</time>
      </trkpt>
      <trkpt lat="44.15105" lon="5.31388">
        <ele>1422.9</ele>
        <time>2021-05-31T11:16:59.000Z</time>
      </trkpt>
      <trkpt lat="44.15125" lon="5.3137">
        <ele>1424.8</ele>
        <time>2021-05-31T11:17:04.000Z</time>
      </trkpt>
      <trkpt lat="44.15144" lon="5.31352">
        <ele>1426.6</ele>
        <time>2021-05-31T11:17:08.000Z</time>
      </trkpt>
      <trkpt lat="44.15153" lon="5.31348">
        <ele>1427.4</ele>
        <time>2021-05-31T11:17:10.000Z</time>
      </trkpt>
      <trkpt lat="44.15174" lon="5.31348">
        <ele>1429.1</ele>
        <time>2021-05-31T11:17:15.000Z</time>
      </trkpt>
      <trkpt lat="44.15188" lon="5.31351">
        <ele>1430.3</ele>
        <time>2021-05-31T11:17:17.000Z</time>
      </trkpt>
      <trkpt lat="44.15202" lon="5.31354">
        <ele>1431.5</ele>
        <time>2021-05-31T11:17:20.000Z</time>
      </trkpt>
      <trkpt lat="44.15216" lon="5.31357">
        <ele>1432.9</ele>
        <time>2021-05-31T11:17:24.000Z</time>
      </trkpt>
      <trkpt lat="44.15239" lon="5.31366">
        <ele>1435.3</ele>
        <time>2021-05-31T11:17:29.000Z</time>
      </trkpt>
      <trkpt lat="44.15258" lon="5.3138">
        <ele>1437.4</ele>
        <time>2021-05-31T11:17:34.000Z</time>
      </trkpt>
      <trkpt lat="44.15278" lon="5.31404">
        <ele>1440</ele>
        <time>2021-05-31T11:17:40.000Z</time>
      </trkpt>
      <trkpt lat="44.15297" lon="5.31428">
        <ele>1442.6</ele>
        <time>2021-05-31T11:17:46.000Z</time>
      </trkpt>
      <trkpt lat="44.15308" lon="5.31437">
        <ele>1443.5</ele>
        <time>2021-05-31T11:17:49.000Z</time>
      </trkpt>
      <trkpt lat="44.15319" lon="5.31447">
        <ele>1444.3</ele>
        <time>2021-05-31T11:17:51.000Z</time>
      </trkpt>
      <trkpt lat="44.15344" lon="5.31458">
        <ele>1446</ele>
        <time>2021-05-31T11:17:56.000Z</time>
      </trkpt>
      <trkpt lat="44.15368" lon="5.31469">
        <ele>1447.7</ele>
        <time>2021-05-31T11:18:00.000Z</time>
      </trkpt>
      <trkpt lat="44.15383" lon="5.31478">
        <ele>1448.8</ele>
        <time>2021-05-31T11:18:03.000Z</time>
      </trkpt>
      <trkpt lat="44.15406" lon="5.31494">
        <ele>1450.5</ele>
        <time>2021-05-31T11:18:08.000Z</time>
      </trkpt>
      <trkpt lat="44.15428" lon="5.31509">
        <ele>1452.4</ele>
        <time>2021-05-31T11:18:13.000Z</time>
      </trkpt>
      <trkpt lat="44.15443" lon="5.3152">
        <ele>1453.7</ele>
        <time>2021-05-31T11:18:16.000Z</time>
      </trkpt>
      <trkpt lat="44.15458" lon="5.3153">
        <ele>1455</ele>
        <time>2021-05-31T11:18:19.000Z</time>
      </trkpt>
      <trkpt lat="44.15473" lon="5.31541">
        <ele>1456.4</ele>
        <time>2021-05-31T11:18:23.000Z</time>
      </trkpt>
      <trkpt lat="44.15489" lon="5.31546">
        <ele>1457.8</ele>
        <time>2021-05-31T11:18:26.000Z</time>
      </trkpt>
      <trkpt lat="44.15495" lon="5.31543">
        <ele>1458.3</ele>
        <time>2021-05-31T11:18:27.000Z</time>
      </trkpt>
      <trkpt lat="44.15498" lon="5.31536">
        <ele>1458.7</ele>
        <time>2021-05-31T11:18:28.000Z</time>
      </trkpt>
      <trkpt lat="44.15498" lon="5.31528">
        <ele>1459</ele>
        <time>2021-05-31T11:18:29.000Z</time>
      </trkpt>
      <trkpt lat="44.15496" lon="5.3152">
        <ele>1459.2</ele>
        <time>2021-05-31T11:18:30.000Z</time>
      </trkpt>
      <trkpt lat="44.15483" lon="5.31491">
        <ele>1460.1</ele>
        <time>2021-05-31T11:18:33.000Z</time>
      </trkpt>
      <trkpt lat="44.15477" lon="5.31461">
        <ele>1460.9</ele>
        <time>2021-05-31T11:18:36.000Z</time>
      </trkpt>
      <trkpt lat="44.15477" lon="5.31434">
        <ele>1461.7</ele>
        <time>2021-05-31T11:18:39.000Z</time>
      </trkpt>
      <trkpt lat="44.15479" lon="5.31399">
        <ele>1462.9</ele>
        <time>2021-05-31T11:18:43.000Z</time>
      </trkpt>
      <trkpt lat="44.15481" lon="5.31364">
        <ele>1464.1</ele>
        <time>2021-05-31T11:18:46.000Z</time>
      </trkpt>
      <trkpt lat="44.15483" lon="5.31329">
        <ele>1465.8</ele>
        <time>2021-05-31T11:18:51.000Z</time>
      </trkpt>
      <trkpt lat="44.15485" lon="5.31294">
        <ele>1467.6</ele>
        <time>2021-05-31T11:18:56.000Z</time>
      </trkpt>
      <trkpt lat="44.15489" lon="5.31268">
        <ele>1468.5</ele>
        <time>2021-05-31T11:18:59.000Z</time>
      </trkpt>
      <trkpt lat="44.15494" lon="5.31248">
        <ele>1469.3</ele>
        <time>2021-05-31T11:19:01.000Z</time>
      </trkpt>
      <trkpt lat="44.15501" lon="5.31234">
        <ele>1469.9</ele>
        <time>2021-05-31T11:19:03.000Z</time>
      </trkpt>
      <trkpt lat="44.1551" lon="5.31223">
        <ele>1470.8</ele>
        <time>2021-05-31T11:19:05.000Z</time>
      </trkpt>
      <trkpt lat="44.1552" lon="5.31219">
        <ele>1471.7</ele>
        <time>2021-05-31T11:19:07.000Z</time>
      </trkpt>
      <trkpt lat="44.15531" lon="5.31217">
        <ele>1472.6</ele>
        <time>2021-05-31T11:19:10.000Z</time>
      </trkpt>
      <trkpt lat="44.15542" lon="5.31219">
        <ele>1473.5</ele>
        <time>2021-05-31T11:19:12.000Z</time>
      </trkpt>
      <trkpt lat="44.15563" lon="5.31234">
        <ele>1475.4</ele>
        <time>2021-05-31T11:19:17.000Z</time>
      </trkpt>
      <trkpt lat="44.15584" lon="5.31249">
        <ele>1476.8</ele>
        <time>2021-05-31T11:19:21.000Z</time>
      </trkpt>
      <trkpt lat="44.15605" lon="5.31264">
        <ele>1478.2</ele>
        <time>2021-05-31T11:19:25.000Z</time>
      </trkpt>
      <trkpt lat="44.15623" lon="5.31275">
        <ele>1478.9</ele>
        <time>2021-05-31T11:19:27.000Z</time>
      </trkpt>
      <trkpt lat="44.15646" lon="5.31285">
        <ele>1479.8</ele>
        <time>2021-05-31T11:19:30.000Z</time>
      </trkpt>
      <trkpt lat="44.15669" lon="5.31294">
        <ele>1480.7</ele>
        <time>2021-05-31T11:19:34.000Z</time>
      </trkpt>
      <trkpt lat="44.15692" lon="5.31304">
        <ele>1482.3</ele>
        <time>2021-05-31T11:19:38.000Z</time>
      </trkpt>
      <trkpt lat="44.15711" lon="5.31315">
        <ele>1483.8</ele>
        <time>2021-05-31T11:19:42.000Z</time>
      </trkpt>
      <trkpt lat="44.15729" lon="5.31329">
        <ele>1485.2</ele>
        <time>2021-05-31T11:19:45.000Z</time>
      </trkpt>
      <trkpt lat="44.15747" lon="5.31343">
        <ele>1486.2</ele>
        <time>2021-05-31T11:19:49.000Z</time>
      </trkpt>
      <trkpt lat="44.15762" lon="5.31345">
        <ele>1487</ele>
        <time>2021-05-31T11:19:51.000Z</time>
      </trkpt>
      <trkpt lat="44.15769" lon="5.31342">
        <ele>1487.3</ele>
        <time>2021-05-31T11:19:52.000Z</time>
      </trkpt>
      <trkpt lat="44.15774" lon="5.31336">
        <ele>1487.7</ele>
        <time>2021-05-31T11:19:53.000Z</time>
      </trkpt>
      <trkpt lat="44.15779" lon="5.31326">
        <ele>1488.3</ele>
        <time>2021-05-31T11:19:55.000Z</time>
      </trkpt>
      <trkpt lat="44.15781" lon="5.31312">
        <ele>1489</ele>
        <time>2021-05-31T11:19:57.000Z</time>
      </trkpt>
      <trkpt lat="44.1578" lon="5.31284">
        <ele>1490.4</ele>
        <time>2021-05-31T11:20:00.000Z</time>
      </trkpt>
      <trkpt lat="44.1578" lon="5.31255">
        <ele>1491.8</ele>
        <time>2021-05-31T11:20:04.000Z</time>
      </trkpt>
      <trkpt lat="44.15779" lon="5.31227">
        <ele>1493.3</ele>
        <time>2021-05-31T11:20:08.000Z</time>
      </trkpt>
      <trkpt lat="44.15774" lon="5.31208">
        <ele>1494.4</ele>
        <time>2021-05-31T11:20:11.000Z</time>
      </trkpt>
      <trkpt lat="44.15765" lon="5.31184">
        <ele>1495.8</ele>
        <time>2021-05-31T11:20:14.000Z</time>
      </trkpt>
      <trkpt lat="44.15755" lon="5.3116">
        <ele>1497.2</ele>
        <time>2021-05-31T11:20:18.000Z</time>
      </trkpt>
      <trkpt lat="44.15749" lon="5.3114">
        <ele>1498.3</ele>
        <time>2021-05-31T11:20:21.000Z</time>
      </trkpt>
      <trkpt lat="44.15746" lon="5.31121">
        <ele>1499.3</ele>
        <time>2021-05-31T11:20:23.000Z</time>
      </trkpt>
      <trkpt lat="44.15742" lon="5.31102">
        <ele>1500.6</ele>
        <time>2021-05-31T11:20:27.000Z</time>
      </trkpt>
      <trkpt lat="44.15741" lon="5.31075">
        <ele>1502.4</ele>
        <time>2021-05-31T11:20:31.000Z</time>
      </trkpt>
      <trkpt lat="44.1574" lon="5.31048">
        <ele>1504.2</ele>
        <time>2021-05-31T11:20:35.000Z</time>
      </trkpt>
      <trkpt lat="44.15745" lon="5.31011">
        <ele>1506.7</ele>
        <time>2021-05-31T11:20:41.000Z</time>
      </trkpt>
      <trkpt lat="44.15751" lon="5.30985">
        <ele>1508.5</ele>
        <time>2021-05-31T11:20:45.000Z</time>
      </trkpt>
      <trkpt lat="44.15756" lon="5.30959">
        <ele>1510.5</ele>
        <time>2021-05-31T11:20:50.000Z</time>
      </trkpt>
      <trkpt lat="44.15763" lon="5.30934">
        <ele>1512.5</ele>
        <time>2021-05-31T11:20:55.000Z</time>
      </trkpt>
      <trkpt lat="44.15774" lon="5.3091">
        <ele>1514.6</ele>
        <time>2021-05-31T11:21:00.000Z</time>
      </trkpt>
      <trkpt lat="44.15785" lon="5.30885">
        <ele>1516.2</ele>
        <time>2021-05-31T11:21:04.000Z</time>
      </trkpt>
      <trkpt lat="44.15799" lon="5.30866">
        <ele>1517.7</ele>
        <time>2021-05-31T11:21:07.000Z</time>
      </trkpt>
      <trkpt lat="44.15813" lon="5.30851">
        <ele>1519</ele>
        <time>2021-05-31T11:21:11.000Z</time>
      </trkpt>
      <trkpt lat="44.1583" lon="5.30837">
        <ele>1520.6</ele>
        <time>2021-05-31T11:21:15.000Z</time>
      </trkpt>
      <trkpt lat="44.15848" lon="5.30827">
        <ele>1522.1</ele>
        <time>2021-05-31T11:21:19.000Z</time>
      </trkpt>
      <trkpt lat="44.15867" lon="5.3082">
        <ele>1523.6</ele>
        <time>2021-05-31T11:21:22.000Z</time>
      </trkpt>
      <trkpt lat="44.15885" lon="5.30813">
        <ele>1525.1</ele>
        <time>2021-05-31T11:21:26.000Z</time>
      </trkpt>
      <trkpt lat="44.15903" lon="5.3081">
        <ele>1526.5</ele>
        <time>2021-05-31T11:21:30.000Z</time>
      </trkpt>
      <trkpt lat="44.15913" lon="5.3081">
        <ele>1527.2</ele>
        <time>2021-05-31T11:21:32.000Z</time>
      </trkpt>
      <trkpt lat="44.15922" lon="5.3081">
        <ele>1527.8</ele>
        <time>2021-05-31T11:21:33.000Z</time>
      </trkpt>
      <trkpt lat="44.15948" lon="5.30814">
        <ele>1529.5</ele>
        <time>2021-05-31T11:21:38.000Z</time>
      </trkpt>
      <trkpt lat="44.15975" lon="5.30817">
        <ele>1531.2</ele>
        <time>2021-05-31T11:21:43.000Z</time>
      </trkpt>
      <trkpt lat="44.16001" lon="5.30821">
        <ele>1532.9</ele>
        <time>2021-05-31T11:21:47.000Z</time>
      </trkpt>
      <trkpt lat="44.1601" lon="5.30821">
        <ele>1533.5</ele>
        <time>2021-05-31T11:21:49.000Z</time>
      </trkpt>
      <trkpt lat="44.16019" lon="5.30818">
        <ele>1534</ele>
        <time>2021-05-31T11:21:50.000Z</time>
      </trkpt>
      <trkpt lat="44.16024" lon="5.30813">
        <ele>1534.4</ele>
        <time>2021-05-31T11:21:51.000Z</time>
      </trkpt>
      <trkpt lat="44.16027" lon="5.30807">
        <ele>1534.7</ele>
        <time>2021-05-31T11:21:52.000Z</time>
      </trkpt>
      <trkpt lat="44.16026" lon="5.30786">
        <ele>1535.4</ele>
        <time>2021-05-31T11:21:55.000Z</time>
      </trkpt>
      <trkpt lat="44.16023" lon="5.30776">
        <ele>1535.8</ele>
        <time>2021-05-31T11:21:56.000Z</time>
      </trkpt>
      <trkpt lat="44.16011" lon="5.30747">
        <ele>1537.1</ele>
        <time>2021-05-31T11:22:00.000Z</time>
      </trkpt>
      <trkpt lat="44.15998" lon="5.30718">
        <ele>1539</ele>
        <time>2021-05-31T11:22:04.000Z</time>
      </trkpt>
      <trkpt lat="44.15991" lon="5.30695">
        <ele>1540.4</ele>
        <time>2021-05-31T11:22:08.000Z</time>
      </trkpt>
      <trkpt lat="44.15984" lon="5.30672">
        <ele>1541.8</ele>
        <time>2021-05-31T11:22:12.000Z</time>
      </trkpt>
      <trkpt lat="44.15977" lon="5.3064">
        <ele>1543.9</ele>
        <time>2021-05-31T11:22:17.000Z</time>
      </trkpt>
      <trkpt lat="44.15971" lon="5.30607">
        <ele>1546</ele>
        <time>2021-05-31T11:22:22.000Z</time>
      </trkpt>
      <trkpt lat="44.15964" lon="5.30575">
        <ele>1548.2</ele>
        <time>2021-05-31T11:22:27.000Z</time>
      </trkpt>
      <trkpt lat="44.15961" lon="5.30547">
        <ele>1550</ele>
        <time>2021-05-31T11:22:31.000Z</time>
      </trkpt>
      <trkpt lat="44.15963" lon="5.30526">
        <ele>1551.4</ele>
        <time>2021-05-31T11:22:35.000Z</time>
      </trkpt>
      <trkpt lat="44.15964" lon="5.30504">
        <ele>1552.3</ele>
        <time>2021-05-31T11:22:37.000Z</time>
      </trkpt>
      <trkpt lat="44.15969" lon="5.30481">
        <ele>1553.3</ele>
        <time>2021-05-31T11:22:40.000Z</time>
      </trkpt>
      <trkpt lat="44.15974" lon="5.30458">
        <ele>1554.3</ele>
        <time>2021-05-31T11:22:43.000Z</time>
      </trkpt>
      <trkpt lat="44.15979" lon="5.30435">
        <ele>1555.7</ele>
        <time>2021-05-31T11:22:47.000Z</time>
      </trkpt>
      <trkpt lat="44.15985" lon="5.30412">
        <ele>1557.2</ele>
        <time>2021-05-31T11:22:50.000Z</time>
      </trkpt>
      <trkpt lat="44.15991" lon="5.30381">
        <ele>1559.2</ele>
        <time>2021-05-31T11:22:55.000Z</time>
      </trkpt>
      <trkpt lat="44.15998" lon="5.3035">
        <ele>1560.6</ele>
        <time>2021-05-31T11:22:59.000Z</time>
      </trkpt>
      <trkpt lat="44.16005" lon="5.30319">
        <ele>1562.1</ele>
        <time>2021-05-31T11:23:03.000Z</time>
      </trkpt>
      <trkpt lat="44.16014" lon="5.30295">
        <ele>1563.5</ele>
        <time>2021-05-31T11:23:07.000Z</time>
      </trkpt>
      <trkpt lat="44.16023" lon="5.30271">
        <ele>1565</ele>
        <time>2021-05-31T11:23:11.000Z</time>
      </trkpt>
      <trkpt lat="44.16032" lon="5.30247">
        <ele>1566.4</ele>
        <time>2021-05-31T11:23:14.000Z</time>
      </trkpt>
      <trkpt lat="44.1604" lon="5.30223">
        <ele>1568</ele>
        <time>2021-05-31T11:23:18.000Z</time>
      </trkpt>
      <trkpt lat="44.16049" lon="5.30199">
        <ele>1569.6</ele>
        <time>2021-05-31T11:23:22.000Z</time>
      </trkpt>
      <trkpt lat="44.16058" lon="5.30175">
        <ele>1571.3</ele>
        <time>2021-05-31T11:23:26.000Z</time>
      </trkpt>
      <trkpt lat="44.16072" lon="5.30149">
        <ele>1573.9</ele>
        <time>2021-05-31T11:23:32.000Z</time>
      </trkpt>
      <trkpt lat="44.16089" lon="5.30127">
        <ele>1576.5</ele>
        <time>2021-05-31T11:23:38.000Z</time>
      </trkpt>
      <trkpt lat="44.16107" lon="5.30109">
        <ele>1578.2</ele>
        <time>2021-05-31T11:23:42.000Z</time>
      </trkpt>
      <trkpt lat="44.16124" lon="5.30096">
        <ele>1579.5</ele>
        <time>2021-05-31T11:23:46.000Z</time>
      </trkpt>
      <trkpt lat="44.16141" lon="5.30083">
        <ele>1581</ele>
        <time>2021-05-31T11:23:50.000Z</time>
      </trkpt>
      <trkpt lat="44.16163" lon="5.30072">
        <ele>1583.8</ele>
        <time>2021-05-31T11:23:56.000Z</time>
      </trkpt>
      <trkpt lat="44.16174" lon="5.30072">
        <ele>1585.2</ele>
        <time>2021-05-31T11:23:59.000Z</time>
      </trkpt>
      <trkpt lat="44.16181" lon="5.30075">
        <ele>1586.1</ele>
        <time>2021-05-31T11:24:00.000Z</time>
      </trkpt>
      <trkpt lat="44.16189" lon="5.30081">
        <ele>1587.1</ele>
        <time>2021-05-31T11:24:03.000Z</time>
      </trkpt>
      <trkpt lat="44.16197" lon="5.30091">
        <ele>1587.9</ele>
        <time>2021-05-31T11:24:05.000Z</time>
      </trkpt>
      <trkpt lat="44.16209" lon="5.30112">
        <ele>1589.1</ele>
        <time>2021-05-31T11:24:08.000Z</time>
      </trkpt>
      <trkpt lat="44.1622" lon="5.30134">
        <ele>1590.3</ele>
        <time>2021-05-31T11:24:12.000Z</time>
      </trkpt>
      <trkpt lat="44.16232" lon="5.30155">
        <ele>1592.4</ele>
        <time>2021-05-31T11:24:16.000Z</time>
      </trkpt>
      <trkpt lat="44.16244" lon="5.30177">
        <ele>1594.6</ele>
        <time>2021-05-31T11:24:21.000Z</time>
      </trkpt>
      <trkpt lat="44.16255" lon="5.30198">
        <ele>1596.7</ele>
        <time>2021-05-31T11:24:26.000Z</time>
      </trkpt>
      <trkpt lat="44.16267" lon="5.3022">
        <ele>1598.1</ele>
        <time>2021-05-31T11:24:30.000Z</time>
      </trkpt>
      <trkpt lat="44.16275" lon="5.30233">
        <ele>1599</ele>
        <time>2021-05-31T11:24:32.000Z</time>
      </trkpt>
      <trkpt lat="44.1629" lon="5.30249">
        <ele>1600.2</ele>
        <time>2021-05-31T11:24:35.000Z</time>
      </trkpt>
      <trkpt lat="44.16298" lon="5.30252">
        <ele>1600.6</ele>
        <time>2021-05-31T11:24:36.000Z</time>
      </trkpt>
      <trkpt lat="44.16305" lon="5.30252">
        <ele>1600.9</ele>
        <time>2021-05-31T11:24:37.000Z</time>
      </trkpt>
      <trkpt lat="44.16318" lon="5.30247">
        <ele>1601.5</ele>
        <time>2021-05-31T11:24:39.000Z</time>
      </trkpt>
      <trkpt lat="44.16337" lon="5.30234">
        <ele>1602.5</ele>
        <time>2021-05-31T11:24:42.000Z</time>
      </trkpt>
      <trkpt lat="44.16356" lon="5.3022">
        <ele>1603.7</ele>
        <time>2021-05-31T11:24:46.000Z</time>
      </trkpt>
      <trkpt lat="44.16375" lon="5.30207">
        <ele>1604.9</ele>
        <time>2021-05-31T11:24:50.000Z</time>
      </trkpt>
      <trkpt lat="44.16384" lon="5.30196">
        <ele>1605.7</ele>
        <time>2021-05-31T11:24:52.000Z</time>
      </trkpt>
      <trkpt lat="44.16394" lon="5.3018">
        <ele>1606.7</ele>
        <time>2021-05-31T11:24:54.000Z</time>
      </trkpt>
      <trkpt lat="44.16404" lon="5.30151">
        <ele>1608.3</ele>
        <time>2021-05-31T11:24:58.000Z</time>
      </trkpt>
      <trkpt lat="44.16414" lon="5.30123">
        <ele>1609.9</ele>
        <time>2021-05-31T11:25:03.000Z</time>
      </trkpt>
      <trkpt lat="44.16424" lon="5.30094">
        <ele>1612.1</ele>
        <time>2021-05-31T11:25:08.000Z</time>
      </trkpt>
      <trkpt lat="44.16432" lon="5.30073">
        <ele>1613.7</ele>
        <time>2021-05-31T11:25:12.000Z</time>
      </trkpt>
      <trkpt lat="44.16439" lon="5.30051">
        <ele>1615.4</ele>
        <time>2021-05-31T11:25:16.000Z</time>
      </trkpt>
      <trkpt lat="44.16447" lon="5.3003">
        <ele>1616.5</ele>
        <time>2021-05-31T11:25:19.000Z</time>
      </trkpt>
      <trkpt lat="44.16454" lon="5.30008">
        <ele>1617.6</ele>
        <time>2021-05-31T11:25:22.000Z</time>
      </trkpt>
      <trkpt lat="44.16467" lon="5.29979">
        <ele>1619.3</ele>
        <time>2021-05-31T11:25:26.000Z</time>
      </trkpt>
      <trkpt lat="44.1648" lon="5.29949">
        <ele>1621.6</ele>
        <time>2021-05-31T11:25:32.000Z</time>
      </trkpt>
      <trkpt lat="44.16489" lon="5.29929">
        <ele>1623.2</ele>
        <time>2021-05-31T11:25:36.000Z</time>
      </trkpt>
      <trkpt lat="44.16497" lon="5.2991">
        <ele>1624.8</ele>
        <time>2021-05-31T11:25:39.000Z</time>
      </trkpt>
      <trkpt lat="44.16506" lon="5.2989">
        <ele>1626.1</ele>
        <time>2021-05-31T11:25:43.000Z</time>
      </trkpt>
      <trkpt lat="44.16513" lon="5.29861">
        <ele>1627.9</ele>
        <time>2021-05-31T11:25:47.000Z</time>
      </trkpt>
      <trkpt lat="44.16519" lon="5.29832">
        <ele>1629.6</ele>
        <time>2021-05-31T11:25:51.000Z</time>
      </trkpt>
      <trkpt lat="44.16526" lon="5.29802">
        <ele>1631.3</ele>
        <time>2021-05-31T11:25:56.000Z</time>
      </trkpt>
      <trkpt lat="44.16532" lon="5.29773">
        <ele>1633</ele>
        <time>2021-05-31T11:26:00.000Z</time>
      </trkpt>
      <trkpt lat="44.16539" lon="5.2975">
        <ele>1634.5</ele>
        <time>2021-05-31T11:26:04.000Z</time>
      </trkpt>
      <trkpt lat="44.16546" lon="5.29726">
        <ele>1636.3</ele>
        <time>2021-05-31T11:26:08.000Z</time>
      </trkpt>
      <trkpt lat="44.16554" lon="5.2971">
        <ele>1637.7</ele>
        <time>2021-05-31T11:26:11.000Z</time>
      </trkpt>
      <trkpt lat="44.16567" lon="5.29694">
        <ele>1639.4</ele>
        <time>2021-05-31T11:26:15.000Z</time>
      </trkpt>
      <trkpt lat="44.16575" lon="5.29688">
        <ele>1640.3</ele>
        <time>2021-05-31T11:26:17.000Z</time>
      </trkpt>
      <trkpt lat="44.16583" lon="5.29681">
        <ele>1641.2</ele>
        <time>2021-05-31T11:26:19.000Z</time>
      </trkpt>
      <trkpt lat="44.16601" lon="5.29669">
        <ele>1643.1</ele>
        <time>2021-05-31T11:26:24.000Z</time>
      </trkpt>
      <trkpt lat="44.1662" lon="5.29658">
        <ele>1645</ele>
        <time>2021-05-31T11:26:29.000Z</time>
      </trkpt>
      <trkpt lat="44.16638" lon="5.29646">
        <ele>1647</ele>
        <time>2021-05-31T11:26:33.000Z</time>
      </trkpt>
      <trkpt lat="44.16656" lon="5.29634">
        <ele>1649</ele>
        <time>2021-05-31T11:26:38.000Z</time>
      </trkpt>
      <trkpt lat="44.16675" lon="5.29623">
        <ele>1651</ele>
        <time>2021-05-31T11:26:43.000Z</time>
      </trkpt>
      <trkpt lat="44.16693" lon="5.29611">
        <ele>1652.8</ele>
        <time>2021-05-31T11:26:47.000Z</time>
      </trkpt>
      <trkpt lat="44.16707" lon="5.29598">
        <ele>1654.3</ele>
        <time>2021-05-31T11:26:51.000Z</time>
      </trkpt>
      <trkpt lat="44.1672" lon="5.29585">
        <ele>1655.8</ele>
        <time>2021-05-31T11:26:54.000Z</time>
      </trkpt>
      <trkpt lat="44.16734" lon="5.29572">
        <ele>1657.3</ele>
        <time>2021-05-31T11:26:58.000Z</time>
      </trkpt>
      <trkpt lat="44.1675" lon="5.29552">
        <ele>1659.3</ele>
        <time>2021-05-31T11:27:03.000Z</time>
      </trkpt>
      <trkpt lat="44.16762" lon="5.29528">
        <ele>1661.1</ele>
        <time>2021-05-31T11:27:07.000Z</time>
      </trkpt>
      <trkpt lat="44.16766" lon="5.29513">
        <ele>1661.7</ele>
        <time>2021-05-31T11:27:09.000Z</time>
      </trkpt>
      <trkpt lat="44.16767" lon="5.29499">
        <ele>1662</ele>
        <time>2021-05-31T11:27:10.000Z</time>
      </trkpt>
      <trkpt lat="44.16759" lon="5.29464">
        <ele>1663.1</ele>
        <time>2021-05-31T11:27:14.000Z</time>
      </trkpt>
      <trkpt lat="44.16746" lon="5.29435">
        <ele>1664.6</ele>
        <time>2021-05-31T11:27:18.000Z</time>
      </trkpt>
      <trkpt lat="44.16732" lon="5.29406">
        <ele>1666.3</ele>
        <time>2021-05-31T11:27:22.000Z</time>
      </trkpt>
      <trkpt lat="44.16719" lon="5.29377">
        <ele>1668.4</ele>
        <time>2021-05-31T11:27:28.000Z</time>
      </trkpt>
      <trkpt lat="44.16711" lon="5.29355">
        <ele>1669.9</ele>
        <time>2021-05-31T11:27:31.000Z</time>
      </trkpt>
      <trkpt lat="44.16707" lon="5.29331">
        <ele>1671.5</ele>
        <time>2021-05-31T11:27:35.000Z</time>
      </trkpt>
      <trkpt lat="44.16705" lon="5.29302">
        <ele>1673.5</ele>
        <time>2021-05-31T11:27:40.000Z</time>
      </trkpt>
      <trkpt lat="44.16707" lon="5.29277">
        <ele>1675.3</ele>
        <time>2021-05-31T11:27:44.000Z</time>
      </trkpt>
      <trkpt lat="44.16715" lon="5.2925">
        <ele>1677.4</ele>
        <time>2021-05-31T11:27:49.000Z</time>
      </trkpt>
      <trkpt lat="44.16727" lon="5.29227">
        <ele>1679.1</ele>
        <time>2021-05-31T11:27:53.000Z</time>
      </trkpt>
      <trkpt lat="44.16742" lon="5.29206">
        <ele>1680.9</ele>
        <time>2021-05-31T11:27:58.000Z</time>
      </trkpt>
      <trkpt lat="44.16756" lon="5.29193">
        <ele>1682.3</ele>
        <time>2021-05-31T11:28:01.000Z</time>
      </trkpt>
      <trkpt lat="44.1677" lon="5.29184">
        <ele>1683.7</ele>
        <time>2021-05-31T11:28:05.000Z</time>
      </trkpt>
      <trkpt lat="44.16789" lon="5.29177">
        <ele>1685.6</ele>
        <time>2021-05-31T11:28:09.000Z</time>
      </trkpt>
      <trkpt lat="44.16807" lon="5.29169">
        <ele>1687.5</ele>
        <time>2021-05-31T11:28:13.000Z</time>
      </trkpt>
      <trkpt lat="44.16826" lon="5.29162">
        <ele>1689.6</ele>
        <time>2021-05-31T11:28:18.000Z</time>
      </trkpt>
      <trkpt lat="44.16845" lon="5.29154">
        <ele>1691.7</ele>
        <time>2021-05-31T11:28:23.000Z</time>
      </trkpt>
      <trkpt lat="44.16863" lon="5.29147">
        <ele>1693.8</ele>
        <time>2021-05-31T11:28:28.000Z</time>
      </trkpt>
      <trkpt lat="44.16882" lon="5.29139">
        <ele>1695.6</ele>
        <time>2021-05-31T11:28:32.000Z</time>
      </trkpt>
      <trkpt lat="44.169" lon="5.29132">
        <ele>1697.4</ele>
        <time>2021-05-31T11:28:36.000Z</time>
      </trkpt>
      <trkpt lat="44.16919" lon="5.29124">
        <ele>1699.2</ele>
        <time>2021-05-31T11:28:41.000Z</time>
      </trkpt>
      <trkpt lat="44.1693" lon="5.29118">
        <ele>1700.3</ele>
        <time>2021-05-31T11:28:43.000Z</time>
      </trkpt>
      <trkpt lat="44.1694" lon="5.2911">
        <ele>1701.4</ele>
        <time>2021-05-31T11:28:46.000Z</time>
      </trkpt>
      <trkpt lat="44.16945" lon="5.29102">
        <ele>1702.1</ele>
        <time>2021-05-31T11:28:48.000Z</time>
      </trkpt>
      <trkpt lat="44.16945" lon="5.29087">
        <ele>1703.1</ele>
        <time>2021-05-31T11:28:50.000Z</time>
      </trkpt>
      <trkpt lat="44.16941" lon="5.29075">
        <ele>1704</ele>
        <time>2021-05-31T11:28:52.000Z</time>
      </trkpt>
      <trkpt lat="44.16933" lon="5.29064">
        <ele>1704.8</ele>
        <time>2021-05-31T11:28:54.000Z</time>
      </trkpt>
      <trkpt lat="44.16918" lon="5.29048">
        <ele>1706.2</ele>
        <time>2021-05-31T11:28:58.000Z</time>
      </trkpt>
      <trkpt lat="44.16903" lon="5.29031">
        <ele>1707.6</ele>
        <time>2021-05-31T11:29:01.000Z</time>
      </trkpt>
      <trkpt lat="44.16888" lon="5.29015">
        <ele>1708.5</ele>
        <time>2021-05-31T11:29:04.000Z</time>
      </trkpt>
      <trkpt lat="44.16875" lon="5.28996">
        <ele>1709.3</ele>
        <time>2021-05-31T11:29:07.000Z</time>
      </trkpt>
      <trkpt lat="44.16866" lon="5.28975">
        <ele>1710.1</ele>
        <time>2021-05-31T11:29:10.000Z</time>
      </trkpt>
      <trkpt lat="44.16861" lon="5.28953">
        <ele>1711.6</ele>
        <time>2021-05-31T11:29:13.000Z</time>
      </trkpt>
      <trkpt lat="44.16859" lon="5.28927">
        <ele>1713.4</ele>
        <time>2021-05-31T11:29:17.000Z</time>
      </trkpt>
      <trkpt lat="44.16861" lon="5.28886">
        <ele>1716.2</ele>
        <time>2021-05-31T11:29:24.000Z</time>
      </trkpt>
      <trkpt lat="44.16864" lon="5.28864">
        <ele>1717.8</ele>
        <time>2021-05-31T11:29:28.000Z</time>
      </trkpt>
      <trkpt lat="44.16867" lon="5.28841">
        <ele>1719.4</ele>
        <time>2021-05-31T11:29:32.000Z</time>
      </trkpt>
      <trkpt lat="44.16875" lon="5.28801">
        <ele>1722.3</ele>
        <time>2021-05-31T11:29:38.000Z</time>
      </trkpt>
      <trkpt lat="44.16881" lon="5.28781">
        <ele>1723.9</ele>
        <time>2021-05-31T11:29:42.000Z</time>
      </trkpt>
      <trkpt lat="44.16886" lon="5.2876">
        <ele>1725.6</ele>
        <time>2021-05-31T11:29:46.000Z</time>
      </trkpt>
      <trkpt lat="44.16895" lon="5.28737">
        <ele>1727.6</ele>
        <time>2021-05-31T11:29:50.000Z</time>
      </trkpt>
      <trkpt lat="44.16903" lon="5.28713">
        <ele>1729.3</ele>
        <time>2021-05-31T11:29:55.000Z</time>
      </trkpt>
      <trkpt lat="44.16913" lon="5.28689">
        <ele>1731.1</ele>
        <time>2021-05-31T11:29:59.000Z</time>
      </trkpt>
      <trkpt lat="44.16923" lon="5.28665">
        <ele>1732.8</ele>
        <time>2021-05-31T11:30:03.000Z</time>
      </trkpt>
      <trkpt lat="44.16934" lon="5.28648">
        <ele>1734.3</ele>
        <time>2021-05-31T11:30:07.000Z</time>
      </trkpt>
      <trkpt lat="44.16945" lon="5.28631">
        <ele>1735.8</ele>
        <time>2021-05-31T11:30:10.000Z</time>
      </trkpt>
      <trkpt lat="44.16955" lon="5.28618">
        <ele>1737.1</ele>
        <time>2021-05-31T11:30:13.000Z</time>
      </trkpt>
      <trkpt lat="44.16965" lon="5.28604">
        <ele>1738.6</ele>
        <time>2021-05-31T11:30:17.000Z</time>
      </trkpt>
      <trkpt lat="44.16976" lon="5.28592">
        <ele>1740.2</ele>
        <time>2021-05-31T11:30:20.000Z</time>
      </trkpt>
      <trkpt lat="44.16987" lon="5.28579">
        <ele>1741.8</ele>
        <time>2021-05-31T11:30:24.000Z</time>
      </trkpt>
      <trkpt lat="44.17002" lon="5.28566">
        <ele>1743.8</ele>
        <time>2021-05-31T11:30:28.000Z</time>
      </trkpt>
      <trkpt lat="44.17017" lon="5.28553">
        <ele>1746</ele>
        <time>2021-05-31T11:30:33.000Z</time>
      </trkpt>
      <trkpt lat="44.17031" lon="5.28541">
        <ele>1748.1</ele>
        <time>2021-05-31T11:30:38.000Z</time>
      </trkpt>
      <trkpt lat="44.17046" lon="5.28528">
        <ele>1750.2</ele>
        <time>2021-05-31T11:30:42.000Z</time>
      </trkpt>
      <trkpt lat="44.17061" lon="5.28515">
        <ele>1752.3</ele>
        <time>2021-05-31T11:30:47.000Z</time>
      </trkpt>
      <trkpt lat="44.17071" lon="5.285">
        <ele>1754.1</ele>
        <time>2021-05-31T11:30:50.000Z</time>
      </trkpt>
      <trkpt lat="44.1708" lon="5.28485">
        <ele>1755.7</ele>
        <time>2021-05-31T11:30:54.000Z</time>
      </trkpt>
      <trkpt lat="44.1709" lon="5.28473">
        <ele>1756.9</ele>
        <time>2021-05-31T11:30:57.000Z</time>
      </trkpt>
      <trkpt lat="44.17099" lon="5.28461">
        <ele>1757.9</ele>
        <time>2021-05-31T11:30:59.000Z</time>
      </trkpt>
      <trkpt lat="44.17117" lon="5.28444">
        <ele>1759.7</ele>
        <time>2021-05-31T11:31:04.000Z</time>
      </trkpt>
      <trkpt lat="44.17135" lon="5.28434">
        <ele>1761.4</ele>
        <time>2021-05-31T11:31:08.000Z</time>
      </trkpt>
      <trkpt lat="44.17153" lon="5.28428">
        <ele>1763</ele>
        <time>2021-05-31T11:31:12.000Z</time>
      </trkpt>
      <trkpt lat="44.17171" lon="5.28425">
        <ele>1764.7</ele>
        <time>2021-05-31T11:31:16.000Z</time>
      </trkpt>
      <trkpt lat="44.17189" lon="5.28422">
        <ele>1767</ele>
        <time>2021-05-31T11:31:21.000Z</time>
      </trkpt>
      <trkpt lat="44.17207" lon="5.28419">
        <ele>1769.4</ele>
        <time>2021-05-31T11:31:26.000Z</time>
      </trkpt>
      <trkpt lat="44.17225" lon="5.28416">
        <ele>1771.8</ele>
        <time>2021-05-31T11:31:31.000Z</time>
      </trkpt>
      <trkpt lat="44.17243" lon="5.28413">
        <ele>1773.8</ele>
        <time>2021-05-31T11:31:35.000Z</time>
      </trkpt>
      <trkpt lat="44.17261" lon="5.2841">
        <ele>1775.7</ele>
        <time>2021-05-31T11:31:40.000Z</time>
      </trkpt>
      <trkpt lat="44.17278" lon="5.28407">
        <ele>1777.7</ele>
        <time>2021-05-31T11:31:44.000Z</time>
      </trkpt>
      <trkpt lat="44.17296" lon="5.28404">
        <ele>1779.8</ele>
        <time>2021-05-31T11:31:49.000Z</time>
      </trkpt>
      <trkpt lat="44.17314" lon="5.28401">
        <ele>1781.9</ele>
        <time>2021-05-31T11:31:54.000Z</time>
      </trkpt>
      <trkpt lat="44.17332" lon="5.28398">
        <ele>1784</ele>
        <time>2021-05-31T11:31:58.000Z</time>
      </trkpt>
      <trkpt lat="44.1735" lon="5.28395">
        <ele>1785.9</ele>
        <time>2021-05-31T11:32:03.000Z</time>
      </trkpt>
      <trkpt lat="44.17368" lon="5.28392">
        <ele>1787.8</ele>
        <time>2021-05-31T11:32:07.000Z</time>
      </trkpt>
      <trkpt lat="44.17385" lon="5.28388">
        <ele>1789.6</ele>
        <time>2021-05-31T11:32:11.000Z</time>
      </trkpt>
      <trkpt lat="44.17401" lon="5.28383">
        <ele>1791</ele>
        <time>2021-05-31T11:32:14.000Z</time>
      </trkpt>
      <trkpt lat="44.17413" lon="5.28376">
        <ele>1792</ele>
        <time>2021-05-31T11:32:17.000Z</time>
      </trkpt>
      <trkpt lat="44.17417" lon="5.28371">
        <ele>1792.5</ele>
        <time>2021-05-31T11:32:18.000Z</time>
      </trkpt>
      <trkpt lat="44.17424" lon="5.2835">
        <ele>1793.9</ele>
        <time>2021-05-31T11:32:22.000Z</time>
      </trkpt>
      <trkpt lat="44.17423" lon="5.2833">
        <ele>1795.7</ele>
        <time>2021-05-31T11:32:25.000Z</time>
      </trkpt>
      <trkpt lat="44.17421" lon="5.2831">
        <ele>1797.5</ele>
        <time>2021-05-31T11:32:29.000Z</time>
      </trkpt>
      <trkpt lat="44.17417" lon="5.28288">
        <ele>1799.6</ele>
        <time>2021-05-31T11:32:34.000Z</time>
      </trkpt>
      <trkpt lat="44.17413" lon="5.28265">
        <ele>1801.6</ele>
        <time>2021-05-31T11:32:38.000Z</time>
      </trkpt>
      <trkpt lat="44.17408" lon="5.28243">
        <ele>1803.5</ele>
        <time>2021-05-31T11:32:42.000Z</time>
      </trkpt>
      <trkpt lat="44.17404" lon="5.28221">
        <ele>1805.4</ele>
        <time>2021-05-31T11:32:47.000Z</time>
      </trkpt>
      <trkpt lat="44.174" lon="5.28198">
        <ele>1807.4</ele>
        <time>2021-05-31T11:32:51.000Z</time>
      </trkpt>
      <trkpt lat="44.17395" lon="5.28171">
        <ele>1809.8</ele>
        <time>2021-05-31T11:32:56.000Z</time>
      </trkpt>
      <trkpt lat="44.1739" lon="5.28143">
        <ele>1812.1</ele>
        <time>2021-05-31T11:33:01.000Z</time>
      </trkpt>
      <trkpt lat="44.17384" lon="5.28115">
        <ele>1813.9</ele>
        <time>2021-05-31T11:33:06.000Z</time>
      </trkpt>
      <trkpt lat="44.17379" lon="5.28087">
        <ele>1815.5</ele>
        <time>2021-05-31T11:33:10.000Z</time>
      </trkpt>
      <trkpt lat="44.17373" lon="5.28066">
        <ele>1816.9</ele>
        <time>2021-05-31T11:33:13.000Z</time>
      </trkpt>
      <trkpt lat="44.17362" lon="5.28043">
        <ele>1819</ele>
        <time>2021-05-31T11:33:18.000Z</time>
      </trkpt>
      <trkpt lat="44.17351" lon="5.2802">
        <ele>1821.1</ele>
        <time>2021-05-31T11:33:23.000Z</time>
      </trkpt>
      <trkpt lat="44.1734" lon="5.27996">
        <ele>1823.2</ele>
        <time>2021-05-31T11:33:28.000Z</time>
      </trkpt>
      <trkpt lat="44.17332" lon="5.27979">
        <ele>1824.9</ele>
        <time>2021-05-31T11:33:31.000Z</time>
      </trkpt>
      <trkpt lat="44.17324" lon="5.27962">
        <ele>1826.5</ele>
        <time>2021-05-31T11:33:35.000Z</time>
      </trkpt>
      <trkpt lat="44.17315" lon="5.27944">
        <ele>1828.2</ele>
        <time>2021-05-31T11:33:39.000Z</time>
      </trkpt>
      <trkpt lat="44.17307" lon="5.27927">
        <ele>1829.8</ele>
        <time>2021-05-31T11:33:42.000Z</time>
      </trkpt>
      <trkpt lat="44.17299" lon="5.27902">
        <ele>1831.7</ele>
        <time>2021-05-31T11:33:47.000Z</time>
      </trkpt>
      <trkpt lat="44.17296" lon="5.27875">
        <ele>1833.6</ele>
        <time>2021-05-31T11:33:51.000Z</time>
      </trkpt>
      <trkpt lat="44.17296" lon="5.27846">
        <ele>1835.6</ele>
        <time>2021-05-31T11:33:56.000Z</time>
      </trkpt>
      <trkpt lat="44.17302" lon="5.27803">
        <ele>1838.2</ele>
        <time>2021-05-31T11:34:03.000Z</time>
      </trkpt>
      <trkpt lat="44.17314" lon="5.27774">
        <ele>1840.3</ele>
        <time>2021-05-31T11:34:08.000Z</time>
      </trkpt>
      <trkpt lat="44.17325" lon="5.27745">
        <ele>1842.8</ele>
        <time>2021-05-31T11:34:13.000Z</time>
      </trkpt>
      <trkpt lat="44.17335" lon="5.27709">
        <ele>1845.8</ele>
        <time>2021-05-31T11:34:20.000Z</time>
      </trkpt>
      <trkpt lat="44.1734" lon="5.27702">
        <ele>1846.7</ele>
        <time>2021-05-31T11:34:22.000Z</time>
      </trkpt>
      <trkpt lat="44.17345" lon="5.27702">
        <ele>1847.2</ele>
        <time>2021-05-31T11:34:23.000Z</time>
      </trkpt>
      <trkpt lat="44.1735" lon="5.27706">
        <ele>1847.9</ele>
        <time>2021-05-31T11:34:25.000Z</time>
      </trkpt>
      <trkpt lat="44.17352" lon="5.27715">
        <ele>1848.7</ele>
        <time>2021-05-31T11:34:26.000Z</time>
      </trkpt>
      <trkpt lat="44.17351" lon="5.27745">
        <ele>1851.1</ele>
        <time>2021-05-31T11:34:32.000Z</time>
      </trkpt>
      <trkpt lat="44.17351" lon="5.27775">
        <ele>1852.7</ele>
        <time>2021-05-31T11:34:36.000Z</time>
      </trkpt>
      <trkpt lat="44.1735" lon="5.27805">
        <ele>1854.1</ele>
        <time>2021-05-31T11:34:40.000Z</time>
      </trkpt>
    </trkseg>
  </trk>
</gpx>